<?xml version='1.0' encoding='UTF-8'?><gpx version="1.1" creator="JPX - https://github.com/jenetics/jpx" xmlns="http://www.topografix.com/GPX/1/1"><trk><trkseg><trkpt lat="39.22337679707182" lon="9.195677360009123"><ele>1.9999999999999998</ele><time>2026-04-08T13:35:53Z</time></trkpt><trkpt lat="39.22340689776044" lon="9.195799464457936"><ele>2.0</ele><time>2026-04-08T13:35:55Z</time></trkpt><trkpt lat="39.22342476464189" lon="9.195919252094615"><ele>2.0</ele><time>2026-04-08T13:35:57Z</time></trkpt><trkpt lat="39.22348541763929" lon="9.195946084595208"><ele>2.0</ele><time>2026-04-08T13:36:01Z</time></trkpt><trkpt lat="39.22354343651999" lon="9.195885883261312"><ele>1.9999999999999998</ele><time>2026-04-08T13:37:01.998Z</time></trkpt><trkpt lat="39.22361473903031" lon="9.195846932073813"><ele>2.0</ele><time>2026-04-08T13:37:03.998Z</time></trkpt><trkpt lat="39.22372938424523" lon="9.195869452920471"><ele>2.0</ele><time>2026-04-08T13:37:05.998Z</time></trkpt><trkpt lat="39.22379286158994" lon="9.195929158857517"><ele>2.0</ele><time>2026-04-08T13:37:06.998Z</time></trkpt><trkpt lat="39.22385319696865" lon="9.196023252956214"><ele>2.0</ele><time>2026-04-08T13:37:07.998Z</time></trkpt><trkpt lat="39.223892874105395" lon="9.196146558243838"><ele>2.0</ele><time>2026-04-08T13:37:08.998Z</time></trkpt><trkpt lat="39.22393322011537" lon="9.196277425042993"><ele>2.0</ele><time>2026-04-08T13:37:09.998Z</time></trkpt><trkpt lat="39.223980218626245" lon="9.196418506543411"><ele>2.0</ele><time>2026-04-08T13:37:10.998Z</time></trkpt><trkpt lat="39.22403557659953" lon="9.196567646268875"><ele>2.0</ele><time>2026-04-08T13:37:11.998Z</time></trkpt><trkpt lat="39.22409622021734" lon="9.196721835904633"><ele>2.0</ele><time>2026-04-08T13:37:12.998Z</time></trkpt><trkpt lat="39.22416274598539" lon="9.196886712355626"><ele>2.0</ele><time>2026-04-08T13:37:13.998Z</time></trkpt><trkpt lat="39.224229895148994" lon="9.197058800317837"><ele>2.0</ele><time>2026-04-08T13:37:14.999Z</time></trkpt><trkpt lat="39.224297154600166" lon="9.197248896572676"><ele>2.0</ele><time>2026-04-08T13:37:15.999Z</time></trkpt><trkpt lat="39.224362745758214" lon="9.197441478118737"><ele>2.0</ele><time>2026-04-08T13:37:16.999Z</time></trkpt><trkpt lat="39.22443089579039" lon="9.19764671415866"><ele>1.6666666666666665</ele><time>2026-04-08T13:37:17.999Z</time></trkpt><trkpt lat="39.22450314660962" lon="9.197857810785607"><ele>1.3333333333333333</ele><time>2026-04-08T13:37:18.999Z</time></trkpt><trkpt lat="39.22457409119245" lon="9.198071233895606"><ele>1.0</ele><time>2026-04-08T13:37:19.999Z</time></trkpt><trkpt lat="39.22464498621782" lon="9.198292668772575"><ele>1.0</ele><time>2026-04-08T13:37:20.999Z</time></trkpt><trkpt lat="39.22471322973691" lon="9.198521846121453"><ele>1.0</ele><time>2026-04-08T13:37:21.999Z</time></trkpt><trkpt lat="39.22478562464261" lon="9.198756248291726"><ele>1.0</ele><time>2026-04-08T13:37:22.999Z</time></trkpt><trkpt lat="39.22485791056478" lon="9.19899352561123"><ele>1.6666666666666665</ele><time>2026-04-08T13:37:23.999Z</time></trkpt><trkpt lat="39.22493172344138" lon="9.199223379712068"><ele>2.3333333333333335</ele><time>2026-04-08T13:37:24.999Z</time></trkpt><trkpt lat="39.22501134919679" lon="9.199448871253347"><ele>3.0</ele><time>2026-04-08T13:37:25.999Z</time></trkpt><trkpt lat="39.22508996643366" lon="9.199667687448786"><ele>3.0</ele><time>2026-04-08T13:37:26.999Z</time></trkpt><trkpt lat="39.2251663160358" lon="9.199887309183653"><ele>3.0</ele><time>2026-04-08T13:37:27.999Z</time></trkpt><trkpt lat="39.22523881979726" lon="9.200107431450798"><ele>3.0</ele><time>2026-04-08T13:37:28.999Z</time></trkpt><trkpt lat="39.2253096601227" lon="9.200323605298841"><ele>3.0</ele><time>2026-04-08T13:37:29.999Z</time></trkpt><trkpt lat="39.22538132101493" lon="9.200539381374593"><ele>3.0</ele><time>2026-04-08T13:37:30.999Z</time></trkpt><trkpt lat="39.225451120339926" lon="9.20074676192643"><ele>3.0</ele><time>2026-04-08T13:37:31.999Z</time></trkpt><trkpt lat="39.22551437779992" lon="9.200930356076517"><ele>3.0</ele><time>2026-04-08T13:37:32.999Z</time></trkpt><trkpt lat="39.225572421186385" lon="9.201096873098292"><ele>3.0</ele><time>2026-04-08T13:37:33.999Z</time></trkpt><trkpt lat="39.225626284978475" lon="9.201250312437999"><ele>3.0</ele><time>2026-04-08T13:37:34.999Z</time></trkpt><trkpt lat="39.22567640929845" lon="9.201400478301522"><ele>3.0</ele><time>2026-04-08T13:37:35.999Z</time></trkpt><trkpt lat="39.225724785022656" lon="9.201552299570658"><ele>2.75</ele><time>2026-04-08T13:37:36.999Z</time></trkpt><trkpt lat="39.225773161786556" lon="9.201695937169228"><ele>2.5</ele><time>2026-04-08T13:37:37.999Z</time></trkpt><trkpt lat="39.22582478953564" lon="9.201840455003424"><ele>2.25</ele><time>2026-04-08T13:37:38.999Z</time></trkpt><trkpt lat="39.22587837820105" lon="9.201993940033478"><ele>2.0</ele><time>2026-04-08T13:37:39.999Z</time></trkpt><trkpt lat="39.22593297631437" lon="9.202153106646186"><ele>2.0</ele><time>2026-04-08T13:37:40.999Z</time></trkpt><trkpt lat="39.22598706709226" lon="9.202316215805872"><ele>2.0</ele><time>2026-04-08T13:37:41.999Z</time></trkpt><trkpt lat="39.226040900855295" lon="9.202484247360765"><ele>2.0</ele><time>2026-04-08T13:37:42.999Z</time></trkpt><trkpt lat="39.226098170764445" lon="9.202657861819155"><ele>2.0</ele><time>2026-04-08T13:37:43.999Z</time></trkpt><trkpt lat="39.226159759691306" lon="9.202834433828519"><ele>2.0</ele><time>2026-04-08T13:37:44.999Z</time></trkpt><trkpt lat="39.22622206694114" lon="9.203016723109098"><ele>2.0</ele><time>2026-04-08T13:37:45.999Z</time></trkpt><trkpt lat="39.226285754187664" lon="9.20319979611041"><ele>2.0</ele><time>2026-04-08T13:37:46.999Z</time></trkpt><trkpt lat="39.2263469117618" lon="9.203384528572217"><ele>2.0</ele><time>2026-04-08T13:37:47.999Z</time></trkpt><trkpt lat="39.22640724677806" lon="9.203570585754383"><ele>2.0</ele><time>2026-04-08T13:37:48.999Z</time></trkpt><trkpt lat="39.226468133214105" lon="9.203756601601313"><ele>2.0</ele><time>2026-04-08T13:37:49.999Z</time></trkpt><trkpt lat="39.226529651493564" lon="9.203942803131701"><ele>1.6666666666666665</ele><time>2026-04-08T13:37:50.999Z</time></trkpt><trkpt lat="39.22659435460464" lon="9.204131181937422"><ele>1.3333333333333333</ele><time>2026-04-08T13:37:51.999Z</time></trkpt><trkpt lat="39.22665396806394" lon="9.20432074262814"><ele>1.0</ele><time>2026-04-08T13:37:52.999Z</time></trkpt><trkpt lat="39.2267072411809" lon="9.204499819260855"><ele>1.0</ele><time>2026-04-08T13:37:53.999Z</time></trkpt><trkpt lat="39.22675605819099" lon="9.204671774285892"><ele>1.0</ele><time>2026-04-08T13:37:55Z</time></trkpt><trkpt lat="39.22680450410178" lon="9.204839318779873"><ele>1.0</ele><time>2026-04-08T13:37:56Z</time></trkpt><trkpt lat="39.22684648155641" lon="9.20500492109073"><ele>1.0</ele><time>2026-04-08T13:37:57Z</time></trkpt><trkpt lat="39.2268749355147" lon="9.205163835780704"><ele>1.25</ele><time>2026-04-08T13:37:58Z</time></trkpt><trkpt lat="39.22688729714249" lon="9.205322568190423"><ele>1.5</ele><time>2026-04-08T13:37:59Z</time></trkpt><trkpt lat="39.226895366437034" lon="9.205494080184721"><ele>1.75</ele><time>2026-04-08T13:38:00Z</time></trkpt><trkpt lat="39.2269395807212" lon="9.205669375382042"><ele>2.0</ele><time>2026-04-08T13:38:01Z</time></trkpt><trkpt lat="39.227031941764885" lon="9.20581867306295"><ele>3.333333333333333</ele><time>2026-04-08T13:38:02Z</time></trkpt><trkpt lat="39.227102821972416" lon="9.206001369690348"><ele>4.666666666666667</ele><time>2026-04-08T13:38:03Z</time></trkpt><trkpt lat="39.22717794128299" lon="9.206192954474435"><ele>6.0</ele><time>2026-04-08T13:38:04Z</time></trkpt><trkpt lat="39.22724089387389" lon="9.206403313307913"><ele>6.333333333333334</ele><time>2026-04-08T13:38:05Z</time></trkpt><trkpt lat="39.227295097350826" lon="9.206615048744247"><ele>6.666666666666667</ele><time>2026-04-08T13:38:06Z</time></trkpt><trkpt lat="39.22734909962688" lon="9.206829949346337"><ele>7.0</ele><time>2026-04-08T13:38:07Z</time></trkpt><trkpt lat="39.227408173292" lon="9.20705034030381"><ele>5.0</ele><time>2026-04-08T13:38:08Z</time></trkpt><trkpt lat="39.227463350453185" lon="9.207259397767327"><ele>3.0</ele><time>2026-04-08T13:38:09Z</time></trkpt><trkpt lat="39.227520607712265" lon="9.20746496019779"><ele>1.0</ele><time>2026-04-08T13:38:10Z</time></trkpt><trkpt lat="39.22757863892676" lon="9.207669161886463"><ele>1.0</ele><time>2026-04-08T13:38:11Z</time></trkpt><trkpt lat="39.22763404990729" lon="9.207869809911635"><ele>1.0</ele><time>2026-04-08T13:38:12Z</time></trkpt><trkpt lat="39.2276858269952" lon="9.208058156770553"><ele>1.0</ele><time>2026-04-08T13:38:13Z</time></trkpt><trkpt lat="39.227739173254484" lon="9.208240462118"><ele>1.3333333333333333</ele><time>2026-04-08T13:38:14Z</time></trkpt><trkpt lat="39.2277938952428" lon="9.2084243001819"><ele>1.6666666666666665</ele><time>2026-04-08T13:38:15Z</time></trkpt><trkpt lat="39.22784798444189" lon="9.208615747946183"><ele>2.0</ele><time>2026-04-08T13:38:16Z</time></trkpt><trkpt lat="39.227898096680256" lon="9.208796903167602"><ele>2.0</ele><time>2026-04-08T13:38:17Z</time></trkpt><trkpt lat="39.22794600912035" lon="9.208963880673492"><ele>2.0</ele><time>2026-04-08T13:38:18Z</time></trkpt><trkpt lat="39.22798879990529" lon="9.209125261236121"><ele>2.0</ele><time>2026-04-08T13:38:19Z</time></trkpt><trkpt lat="39.228028609344925" lon="9.209277704453509"><ele>2.0</ele><time>2026-04-08T13:38:20Z</time></trkpt><trkpt lat="39.228069418021555" lon="9.209427953772675"><ele>1.75</ele><time>2026-04-08T13:38:21Z</time></trkpt><trkpt lat="39.228119634842656" lon="9.209605048330479"><ele>1.5</ele><time>2026-04-08T13:38:22Z</time></trkpt><trkpt lat="39.22816715898782" lon="9.209785173875098"><ele>1.25</ele><time>2026-04-08T13:38:23Z</time></trkpt><trkpt lat="39.22821000258398" lon="9.209969393894912"><ele>1.0</ele><time>2026-04-08T13:38:24Z</time></trkpt><trkpt lat="39.22824664009272" lon="9.210157755669007"><ele>0.6666666666666666</ele><time>2026-04-08T13:38:25Z</time></trkpt><trkpt lat="39.228270599832314" lon="9.210352949716173"><ele>0.3333333333333333</ele><time>2026-04-08T13:38:26Z</time></trkpt><trkpt lat="39.228287605707756" lon="9.210546965700726"><ele>0.0</ele><time>2026-04-08T13:38:27Z</time></trkpt><trkpt lat="39.2282967189401" lon="9.210734775096356"><ele>0.0</ele><time>2026-04-08T13:38:28Z</time></trkpt><trkpt lat="39.228294751094154" lon="9.210922227077388"><ele>0.0</ele><time>2026-04-08T13:38:29Z</time></trkpt><trkpt lat="39.22828797915957" lon="9.211114416196681"><ele>0.0</ele><time>2026-04-08T13:38:30Z</time></trkpt><trkpt lat="39.22827439821787" lon="9.211307077991712"><ele>0.0</ele><time>2026-04-08T13:38:31Z</time></trkpt><trkpt lat="39.2282540976101" lon="9.211502460118787"><ele>0.0</ele><time>2026-04-08T13:38:32Z</time></trkpt><trkpt lat="39.2282344634589" lon="9.211697887696005"><ele>0.0</ele><time>2026-04-08T13:38:33Z</time></trkpt><trkpt lat="39.22821677978954" lon="9.211896900045865"><ele>0.0</ele><time>2026-04-08T13:38:34Z</time></trkpt><trkpt lat="39.22819986156511" lon="9.212101583116333"><ele>0.0</ele><time>2026-04-08T13:38:35Z</time></trkpt><trkpt lat="39.22819087077202" lon="9.21230886768354"><ele>0.0</ele><time>2026-04-08T13:38:36Z</time></trkpt><trkpt lat="39.228192726335934" lon="9.2125234402413"><ele>0.0</ele><time>2026-04-08T13:38:37Z</time></trkpt><trkpt lat="39.22821275820243" lon="9.212744332211255"><ele>0.0</ele><time>2026-04-08T13:38:38Z</time></trkpt><trkpt lat="39.22824097512269" lon="9.21297492356152"><ele>0.0</ele><time>2026-04-08T13:38:39Z</time></trkpt><trkpt lat="39.22827802897655" lon="9.213206807636196"><ele>0.0</ele><time>2026-04-08T13:38:40Z</time></trkpt><trkpt lat="39.228314285879065" lon="9.213426129480244"><ele>-0.3333333333333333</ele><time>2026-04-08T13:38:41Z</time></trkpt><trkpt lat="39.228348313588164" lon="9.21363204794544"><ele>-0.6666666666666666</ele><time>2026-04-08T13:38:42Z</time></trkpt><trkpt lat="39.22838643598626" lon="9.213833471715061"><ele>-1.0</ele><time>2026-04-08T13:38:43Z</time></trkpt><trkpt lat="39.22842586729893" lon="9.214032322120955"><ele>-1.0</ele><time>2026-04-08T13:38:44Z</time></trkpt><trkpt lat="39.22847238055153" lon="9.21424059006463"><ele>-1.0</ele><time>2026-04-08T13:38:45Z</time></trkpt><trkpt lat="39.22852276613132" lon="9.214451178397795"><ele>-1.0</ele><time>2026-04-08T13:38:46Z</time></trkpt><trkpt lat="39.228574129132205" lon="9.21466262496851"><ele>0.0</ele><time>2026-04-08T13:38:47Z</time></trkpt><trkpt lat="39.22862865284903" lon="9.214879389814321"><ele>1.0</ele><time>2026-04-08T13:38:48Z</time></trkpt><trkpt lat="39.22868257552564" lon="9.215099921539494"><ele>2.0</ele><time>2026-04-08T13:38:49Z</time></trkpt><trkpt lat="39.22873670940095" lon="9.215323040733448"><ele>2.0</ele><time>2026-04-08T13:38:50Z</time></trkpt><trkpt lat="39.228791670091354" lon="9.21554880086717"><ele>2.0</ele><time>2026-04-08T13:38:51Z</time></trkpt><trkpt lat="39.228845959739324" lon="9.215770564393672"><ele>2.0</ele><time>2026-04-08T13:38:52Z</time></trkpt><trkpt lat="39.22889529649536" lon="9.215972963021311"><ele>2.0</ele><time>2026-04-08T13:38:53Z</time></trkpt><trkpt lat="39.22894024619218" lon="9.216159739716483"><ele>2.0</ele><time>2026-04-08T13:38:54Z</time></trkpt><trkpt lat="39.22898501800661" lon="9.21634337046962"><ele>2.0</ele><time>2026-04-08T13:38:55Z</time></trkpt><trkpt lat="39.22903194587242" lon="9.216529405752674"><ele>2.333333333333333</ele><time>2026-04-08T13:38:56Z</time></trkpt><trkpt lat="39.22906424405533" lon="9.216725643607065"><ele>2.6666666666666665</ele><time>2026-04-08T13:38:57Z</time></trkpt><trkpt lat="39.2291271068859" lon="9.216918069515486"><ele>3.0</ele><time>2026-04-08T13:38:58Z</time></trkpt><trkpt lat="39.22917251230487" lon="9.217124898289438"><ele>2.3333333333333335</ele><time>2026-04-08T13:38:59Z</time></trkpt><trkpt lat="39.22922031408548" lon="9.217331937062111"><ele>1.6666666666666665</ele><time>2026-04-08T13:39:00Z</time></trkpt><trkpt lat="39.22926736794513" lon="9.21753996940114"><ele>1.0</ele><time>2026-04-08T13:39:01Z</time></trkpt><trkpt lat="39.22931539327081" lon="9.217752760539874"><ele>1.0</ele><time>2026-04-08T13:39:02Z</time></trkpt><trkpt lat="39.22936789246538" lon="9.217962998297287"><ele>1.0</ele><time>2026-04-08T13:39:03Z</time></trkpt><trkpt lat="39.229419386275595" lon="9.218171219334636"><ele>1.0</ele><time>2026-04-08T13:39:04Z</time></trkpt><trkpt lat="39.22946950344438" lon="9.218377232828304"><ele>1.0</ele><time>2026-04-08T13:39:05Z</time></trkpt><trkpt lat="39.22951773362157" lon="9.218580280417699"><ele>1.0</ele><time>2026-04-08T13:39:06Z</time></trkpt><trkpt lat="39.229567813778694" lon="9.218785021368184"><ele>1.0</ele><time>2026-04-08T13:39:06.997Z</time></trkpt><trkpt lat="39.22961604467829" lon="9.21899433139187"><ele>2.0</ele><time>2026-04-08T13:39:07.997Z</time></trkpt><trkpt lat="39.22967250735236" lon="9.219205038404906"><ele>3.0</ele><time>2026-04-08T13:39:08.997Z</time></trkpt><trkpt lat="39.22972231925112" lon="9.219418885798852"><ele>4.0</ele><time>2026-04-08T13:39:09.997Z</time></trkpt><trkpt lat="39.22975712045812" lon="9.21962497444221"><ele>3.6666666666666665</ele><time>2026-04-08T13:39:10.997Z</time></trkpt><trkpt lat="39.229842407482735" lon="9.219800013536908"><ele>3.333333333333333</ele><time>2026-04-08T13:39:11.997Z</time></trkpt><trkpt lat="39.22991703362527" lon="9.219967332616704"><ele>3.0</ele><time>2026-04-08T13:39:12.998Z</time></trkpt><trkpt lat="39.22999848815708" lon="9.220121457956655"><ele>3.0</ele><time>2026-04-08T13:39:13.998Z</time></trkpt><trkpt lat="39.230082102636594" lon="9.220265555368988"><ele>3.0</ele><time>2026-04-08T13:39:14.998Z</time></trkpt><trkpt lat="39.2301535148814" lon="9.22040544861143"><ele>3.0</ele><time>2026-04-08T13:39:15.998Z</time></trkpt><trkpt lat="39.23021316299733" lon="9.220564023927954"><ele>3.0</ele><time>2026-04-08T13:39:16.998Z</time></trkpt><trkpt lat="39.23022925659576" lon="9.220728192678354"><ele>3.25</ele><time>2026-04-08T13:39:17.998Z</time></trkpt><trkpt lat="39.230261692426296" lon="9.220882908930067"><ele>3.5</ele><time>2026-04-08T13:39:18.998Z</time></trkpt><trkpt lat="39.23027428083797" lon="9.221043583423842"><ele>3.75</ele><time>2026-04-08T13:39:19.998Z</time></trkpt><trkpt lat="39.230302974130566" lon="9.221200449018552"><ele>4.0</ele><time>2026-04-08T13:39:20.998Z</time></trkpt><trkpt lat="39.23036362084528" lon="9.22134766365181"><ele>4.0</ele><time>2026-04-08T13:39:21.998Z</time></trkpt><trkpt lat="39.230445011212886" lon="9.221481293328678"><ele>4.0</ele><time>2026-04-08T13:39:22.998Z</time></trkpt><trkpt lat="39.230551503926705" lon="9.221577695146221"><ele>4.0</ele><time>2026-04-08T13:39:23.998Z</time></trkpt><trkpt lat="39.23066905486846" lon="9.221634013667497"><ele>4.0</ele><time>2026-04-08T13:39:24.998Z</time></trkpt><trkpt lat="39.230784330583454" lon="9.2216589690437"><ele>4.0</ele><time>2026-04-08T13:39:25.998Z</time></trkpt><trkpt lat="39.23090998961868" lon="9.221648185726586"><ele>4.0</ele><time>2026-04-08T13:39:26.998Z</time></trkpt><trkpt lat="39.231037548484714" lon="9.221619841788364"><ele>4.0</ele><time>2026-04-08T13:39:27.998Z</time></trkpt><trkpt lat="39.23117121181648" lon="9.221586178291215"><ele>4.0</ele><time>2026-04-08T13:39:28.999Z</time></trkpt><trkpt lat="39.23131087310704" lon="9.221580846951273"><ele>4.0</ele><time>2026-04-08T13:39:29.999Z</time></trkpt><trkpt lat="39.23145270340091" lon="9.22162528347358"><ele>4.0</ele><time>2026-04-08T13:39:30.999Z</time></trkpt><trkpt lat="39.23158614182594" lon="9.221707050331636"><ele>4.0</ele><time>2026-04-08T13:39:31.999Z</time></trkpt><trkpt lat="39.23170485351877" lon="9.221812545990172"><ele>4.0</ele><time>2026-04-08T13:39:32.999Z</time></trkpt><trkpt lat="39.23183739465204" lon="9.221906787071175"><ele>4.666666666666666</ele><time>2026-04-08T13:39:33.999Z</time></trkpt><trkpt lat="39.2319877321935" lon="9.22193286588722"><ele>5.333333333333333</ele><time>2026-04-08T13:39:34.999Z</time></trkpt><trkpt lat="39.23214079720468" lon="9.221927199298698"><ele>6.0</ele><time>2026-04-08T13:39:35.999Z</time></trkpt><trkpt lat="39.232295274818775" lon="9.221880218409021"><ele>6.0</ele><time>2026-04-08T13:39:36.999Z</time></trkpt><trkpt lat="39.23243583973553" lon="9.221797448764644"><ele>6.0</ele><time>2026-04-08T13:39:37.999Z</time></trkpt><trkpt lat="39.2325656851113" lon="9.221687449509432"><ele>6.0</ele><time>2026-04-08T13:39:38.999Z</time></trkpt><trkpt lat="39.23267206430391" lon="9.221545565538811"><ele>5.666666666666667</ele><time>2026-04-08T13:39:39.999Z</time></trkpt><trkpt lat="39.23277272622496" lon="9.221382139258639"><ele>5.333333333333334</ele><time>2026-04-08T13:39:40.999Z</time></trkpt><trkpt lat="39.23286960309223" lon="9.22120635770421"><ele>5.0</ele><time>2026-04-08T13:39:41.999Z</time></trkpt><trkpt lat="39.23296691282618" lon="9.221025919435926"><ele>5.0</ele><time>2026-04-08T13:39:42.999Z</time></trkpt><trkpt lat="39.23306713380769" lon="9.220844553048341"><ele>5.0</ele><time>2026-04-08T13:39:43.999Z</time></trkpt><trkpt lat="39.23316766014429" lon="9.220663905757696"><ele>5.0</ele><time>2026-04-08T13:39:44.999Z</time></trkpt><trkpt lat="39.2332732995248" lon="9.220483252054358"><ele>5.333333333333334</ele><time>2026-04-08T13:39:45.999Z</time></trkpt><trkpt lat="39.23338331351529" lon="9.220298356837988"><ele>5.666666666666667</ele><time>2026-04-08T13:39:46.999Z</time></trkpt><trkpt lat="39.2334926774197" lon="9.220110636695376"><ele>6.0</ele><time>2026-04-08T13:39:47.999Z</time></trkpt><trkpt lat="39.23359964868354" lon="9.219926496279855"><ele>6.0</ele><time>2026-04-08T13:39:48.999Z</time></trkpt><trkpt lat="39.233708531191255" lon="9.21974176000678"><ele>6.0</ele><time>2026-04-08T13:39:49.999Z</time></trkpt><trkpt lat="39.2338200909421" lon="9.219553708305694"><ele>6.0</ele><time>2026-04-08T13:39:50.999Z</time></trkpt><trkpt lat="39.2339361588633" lon="9.219367095075764"><ele>6.333333333333334</ele><time>2026-04-08T13:39:51.999Z</time></trkpt><trkpt lat="39.23405325860777" lon="9.219174649075905"><ele>6.666666666666667</ele><time>2026-04-08T13:39:52.999Z</time></trkpt><trkpt lat="39.23416740420567" lon="9.218981842220352"><ele>7.0</ele><time>2026-04-08T13:39:53.999Z</time></trkpt><trkpt lat="39.23428061270343" lon="9.218788253641286"><ele>6.333333333333334</ele><time>2026-04-08T13:39:54.999Z</time></trkpt><trkpt lat="39.234390701089225" lon="9.218596318114427"><ele>5.666666666666667</ele><time>2026-04-08T13:39:55.999Z</time></trkpt><trkpt lat="39.23450399001634" lon="9.2184065975511"><ele>5.0</ele><time>2026-04-08T13:39:56.999Z</time></trkpt><trkpt lat="39.23461723676156" lon="9.218221945387393"><ele>5.333333333333334</ele><time>2026-04-08T13:39:57.999Z</time></trkpt><trkpt lat="39.234728366446646" lon="9.218035093651451"><ele>5.666666666666667</ele><time>2026-04-08T13:39:58.999Z</time></trkpt><trkpt lat="39.2348320812677" lon="9.217863484643832"><ele>6.0</ele><time>2026-04-08T13:40:00Z</time></trkpt><trkpt lat="39.23492993459579" lon="9.217697636430277"><ele>6.666666666666666</ele><time>2026-04-08T13:40:01Z</time></trkpt><trkpt lat="39.23503015618996" lon="9.217530071731685"><ele>7.333333333333333</ele><time>2026-04-08T13:40:02Z</time></trkpt><trkpt lat="39.23512878998392" lon="9.217360183005553"><ele>8.0</ele><time>2026-04-08T13:40:03Z</time></trkpt><trkpt lat="39.23523085806202" lon="9.217181287335448"><ele>8.0</ele><time>2026-04-08T13:40:04Z</time></trkpt><trkpt lat="39.2353433511113" lon="9.216988716788597"><ele>8.0</ele><time>2026-04-08T13:40:05Z</time></trkpt><trkpt lat="39.23545061647603" lon="9.216808963900643"><ele>8.0</ele><time>2026-04-08T13:40:06Z</time></trkpt><trkpt lat="39.235555227710044" lon="9.21663335957465"><ele>8.0</ele><time>2026-04-08T13:40:07Z</time></trkpt><trkpt lat="39.23566376088686" lon="9.216451997045002"><ele>8.0</ele><time>2026-04-08T13:40:08Z</time></trkpt><trkpt lat="39.2357677655808" lon="9.216284814101094"><ele>8.0</ele><time>2026-04-08T13:40:09Z</time></trkpt><trkpt lat="39.23587443055198" lon="9.216109920577457"><ele>8.0</ele><time>2026-04-08T13:40:10Z</time></trkpt><trkpt lat="39.23598637490472" lon="9.215933096522674"><ele>8.0</ele><time>2026-04-08T13:40:11Z</time></trkpt><trkpt lat="39.236098540296375" lon="9.215762877301215"><ele>8.0</ele><time>2026-04-08T13:40:12Z</time></trkpt><trkpt lat="39.236214054831386" lon="9.215596443581724"><ele>8.0</ele><time>2026-04-08T13:40:13Z</time></trkpt><trkpt lat="39.23633811732628" lon="9.215412369290021"><ele>8.0</ele><time>2026-04-08T13:40:14Z</time></trkpt><trkpt lat="39.23646764917391" lon="9.215219202391124"><ele>8.0</ele><time>2026-04-08T13:40:15Z</time></trkpt><trkpt lat="39.23659760840218" lon="9.215024927376051"><ele>8.0</ele><time>2026-04-08T13:40:16Z</time></trkpt><trkpt lat="39.236728610832536" lon="9.214835676525112"><ele>8.0</ele><time>2026-04-08T13:40:17Z</time></trkpt><trkpt lat="39.23686012504514" lon="9.214650647896143"><ele>8.0</ele><time>2026-04-08T13:40:18Z</time></trkpt><trkpt lat="39.23699693919041" lon="9.214470568641001"><ele>7.333333333333333</ele><time>2026-04-08T13:40:19Z</time></trkpt><trkpt lat="39.23714312332158" lon="9.214302865525953"><ele>6.666666666666666</ele><time>2026-04-08T13:40:20Z</time></trkpt><trkpt lat="39.23728507992003" lon="9.214141450666474"><ele>6.0</ele><time>2026-04-08T13:40:21Z</time></trkpt><trkpt lat="39.23742219832152" lon="9.213973490186369"><ele>7.666666666666666</ele><time>2026-04-08T13:40:22Z</time></trkpt><trkpt lat="39.23755425344286" lon="9.213803570458131"><ele>9.333333333333332</ele><time>2026-04-08T13:40:23Z</time></trkpt><trkpt lat="39.23768872118594" lon="9.213637090626627"><ele>11.0</ele><time>2026-04-08T13:40:24Z</time></trkpt><trkpt lat="39.2378210399308" lon="9.213476302870703"><ele>11.0</ele><time>2026-04-08T13:40:25Z</time></trkpt><trkpt lat="39.23795472970146" lon="9.213312844254048"><ele>11.0</ele><time>2026-04-08T13:40:26Z</time></trkpt><trkpt lat="39.238092202906344" lon="9.213143741224945"><ele>11.0</ele><time>2026-04-08T13:40:27Z</time></trkpt><trkpt lat="39.2382300044989" lon="9.212973289688273"><ele>11.333333333333332</ele><time>2026-04-08T13:40:28Z</time></trkpt><trkpt lat="39.238365893689206" lon="9.212803507450959"><ele>11.666666666666666</ele><time>2026-04-08T13:40:29Z</time></trkpt><trkpt lat="39.23850326748549" lon="9.21263514464952"><ele>12.0</ele><time>2026-04-08T13:40:30Z</time></trkpt><trkpt lat="39.238634924175145" lon="9.212470727156434"><ele>12.0</ele><time>2026-04-08T13:40:31Z</time></trkpt><trkpt lat="39.23875680543351" lon="9.212318494329786"><ele>12.0</ele><time>2026-04-08T13:40:32Z</time></trkpt><trkpt lat="39.23887536638459" lon="9.21217283283754"><ele>12.0</ele><time>2026-04-08T13:40:33Z</time></trkpt><trkpt lat="39.23898814397143" lon="9.21203746399669"><ele>12.5</ele><time>2026-04-08T13:40:34Z</time></trkpt><trkpt lat="39.23909465465124" lon="9.211908987605433"><ele>13.0</ele><time>2026-04-08T13:40:35Z</time></trkpt><trkpt lat="39.23919036957284" lon="9.211788966285502"><ele>13.5</ele><time>2026-04-08T13:40:36Z</time></trkpt><trkpt lat="39.23928105303109" lon="9.21167230372046"><ele>14.0</ele><time>2026-04-08T13:40:37Z</time></trkpt><trkpt lat="39.23937287341232" lon="9.211555675279708"><ele>13.5</ele><time>2026-04-08T13:40:38Z</time></trkpt><trkpt lat="39.23946799356116" lon="9.211439409539208"><ele>13.0</ele><time>2026-04-08T13:40:39Z</time></trkpt><trkpt lat="39.239565259949956" lon="9.211321040300364"><ele>12.5</ele><time>2026-04-08T13:40:40Z</time></trkpt><trkpt lat="39.239659789344586" lon="9.211200296931745"><ele>12.0</ele><time>2026-04-08T13:40:41Z</time></trkpt><trkpt lat="39.23975270731286" lon="9.211079633277224"><ele>12.6</ele><time>2026-04-08T13:40:42Z</time></trkpt><trkpt lat="39.23984266357569" lon="9.210968785898812"><ele>13.2</ele><time>2026-04-08T13:40:43Z</time></trkpt><trkpt lat="39.239922225406886" lon="9.210868634580198"><ele>13.8</ele><time>2026-04-08T13:40:44Z</time></trkpt><trkpt lat="39.23999451474457" lon="9.210778723897754"><ele>14.4</ele><time>2026-04-08T13:40:45Z</time></trkpt><trkpt lat="39.24005638296785" lon="9.210694619778446"><ele>15.0</ele><time>2026-04-08T13:40:46Z</time></trkpt><trkpt lat="39.240114603223056" lon="9.210617670366437"><ele>15.0</ele><time>2026-04-08T13:40:47Z</time></trkpt><trkpt lat="39.24016006495183" lon="9.210553318439258"><ele>15.0</ele><time>2026-04-08T13:40:48Z</time></trkpt><trkpt lat="39.24022637055386" lon="9.210459387212468"><ele>15.0</ele><time>2026-04-08T13:40:50Z</time></trkpt><trkpt lat="39.24027921602158" lon="9.210380439000428"><ele>15.0</ele><time>2026-04-08T13:40:53Z</time></trkpt><trkpt lat="39.240342723418" lon="9.21028106657768"><ele>15.0</ele><time>2026-04-08T13:42:16Z</time></trkpt><trkpt lat="39.24042156345645" lon="9.210186312288341"><ele>15.0</ele><time>2026-04-08T13:42:17Z</time></trkpt><trkpt lat="39.24053472492862" lon="9.210051057609775"><ele>15.0</ele><time>2026-04-08T13:42:18Z</time></trkpt><trkpt lat="39.24062583088193" lon="9.209944355534663"><ele>15.0</ele><time>2026-04-08T13:42:19Z</time></trkpt><trkpt lat="39.24072329844869" lon="9.209831255763353"><ele>15.0</ele><time>2026-04-08T13:42:20Z</time></trkpt><trkpt lat="39.24081338189236" lon="9.209721847225325"><ele>14.5</ele><time>2026-04-08T13:42:21Z</time></trkpt><trkpt lat="39.24089052764544" lon="9.209629097195712"><ele>14.0</ele><time>2026-04-08T13:42:22Z</time></trkpt><trkpt lat="39.24097358190343" lon="9.209531164356914"><ele>13.5</ele><time>2026-04-08T13:42:23Z</time></trkpt><trkpt lat="39.24106429803334" lon="9.209418002322739"><ele>13.0</ele><time>2026-04-08T13:42:24.001Z</time></trkpt><trkpt lat="39.24115636697681" lon="9.20930215701772"><ele>13.0</ele><time>2026-04-08T13:42:25.001Z</time></trkpt><trkpt lat="39.24124968973398" lon="9.209189618535035"><ele>13.0</ele><time>2026-04-08T13:42:26.001Z</time></trkpt><trkpt lat="39.24134484563478" lon="9.209070770461485"><ele>13.0</ele><time>2026-04-08T13:42:27.001Z</time></trkpt><trkpt lat="39.241440802981806" lon="9.208947427924812"><ele>13.0</ele><time>2026-04-08T13:42:28.001Z</time></trkpt><trkpt lat="39.24156264779088" lon="9.20879223296903"><ele>13.333333333333332</ele><time>2026-04-08T13:42:29.001Z</time></trkpt><trkpt lat="39.24170818113208" lon="9.208617764146778"><ele>13.666666666666668</ele><time>2026-04-08T13:42:30.001Z</time></trkpt><trkpt lat="39.241863400650814" lon="9.208422984862628"><ele>14.0</ele><time>2026-04-08T13:42:31.001Z</time></trkpt><trkpt lat="39.24205628504917" lon="9.208182180379762"><ele>14.5</ele><time>2026-04-08T13:42:32.001Z</time></trkpt><trkpt lat="39.24225600648989" lon="9.207934573965268"><ele>15.0</ele><time>2026-04-08T13:42:33.001Z</time></trkpt><trkpt lat="39.24243964578584" lon="9.207711029998654"><ele>15.0</ele><time>2026-04-08T13:42:34.001Z</time></trkpt><trkpt lat="39.242598647839856" lon="9.207513610240639"><ele>15.0</ele><time>2026-04-08T13:42:35.001Z</time></trkpt><trkpt lat="39.2427436363198" lon="9.20732938246721"><ele>15.0</ele><time>2026-04-08T13:42:36.001Z</time></trkpt><trkpt lat="39.24288628121102" lon="9.207158408066306"><ele>15.333333333333332</ele><time>2026-04-08T13:42:37.001Z</time></trkpt><trkpt lat="39.243017384502416" lon="9.206995242770857"><ele>15.666666666666666</ele><time>2026-04-08T13:42:38.001Z</time></trkpt><trkpt lat="39.24314331018032" lon="9.206843247734849"><ele>16.0</ele><time>2026-04-08T13:42:39.001Z</time></trkpt><trkpt lat="39.243272105248664" lon="9.20668901023837"><ele>16.0</ele><time>2026-04-08T13:42:40.001Z</time></trkpt><trkpt lat="39.24339553578447" lon="9.206535342678375"><ele>16.0</ele><time>2026-04-08T13:42:41.001Z</time></trkpt><trkpt lat="39.24352365233406" lon="9.206380106534452"><ele>16.0</ele><time>2026-04-08T13:42:42.001Z</time></trkpt><trkpt lat="39.24365298378743" lon="9.206220970072184"><ele>15.666666666666666</ele><time>2026-04-08T13:42:43.001Z</time></trkpt><trkpt lat="39.24378616024891" lon="9.206057486483356"><ele>15.333333333333332</ele><time>2026-04-08T13:42:44.001Z</time></trkpt><trkpt lat="39.243923805438534" lon="9.205887660997549"><ele>15.0</ele><time>2026-04-08T13:42:45.001Z</time></trkpt><trkpt lat="39.244064895051956" lon="9.205708182373746"><ele>15.0</ele><time>2026-04-08T13:42:46.001Z</time></trkpt><trkpt lat="39.24420640738879" lon="9.205525489091135"><ele>15.0</ele><time>2026-04-08T13:42:47.001Z</time></trkpt><trkpt lat="39.2443539126314" lon="9.205347484496395"><ele>15.0</ele><time>2026-04-08T13:42:48.001Z</time></trkpt><trkpt lat="39.24450774105864" lon="9.205162066002641"><ele>15.0</ele><time>2026-04-08T13:42:49.001Z</time></trkpt><trkpt lat="39.24465939364594" lon="9.20497230794018"><ele>15.0</ele><time>2026-04-08T13:42:50.001Z</time></trkpt><trkpt lat="39.24481639083974" lon="9.204779911711446"><ele>15.0</ele><time>2026-04-08T13:42:51.001Z</time></trkpt><trkpt lat="39.244972123273804" lon="9.20458902587179"><ele>15.666666666666668</ele><time>2026-04-08T13:42:52.001Z</time></trkpt><trkpt lat="39.245123845635945" lon="9.204400026036797"><ele>16.333333333333336</ele><time>2026-04-08T13:42:53.001Z</time></trkpt><trkpt lat="39.24526671309073" lon="9.204222309539439"><ele>17.0</ele><time>2026-04-08T13:42:54.001Z</time></trkpt><trkpt lat="39.24541099993057" lon="9.204048057371697"><ele>16.666666666666668</ele><time>2026-04-08T13:42:55.001Z</time></trkpt><trkpt lat="39.24555096936192" lon="9.203877808166043"><ele>16.333333333333332</ele><time>2026-04-08T13:42:56.001Z</time></trkpt><trkpt lat="39.245694514669836" lon="9.203703125794021"><ele>16.0</ele><time>2026-04-08T13:42:57.001Z</time></trkpt><trkpt lat="39.245837722120456" lon="9.203527496269633"><ele>16.0</ele><time>2026-04-08T13:42:58.001Z</time></trkpt><trkpt lat="39.24597818355772" lon="9.20335260131197"><ele>16.0</ele><time>2026-04-08T13:42:59.001Z</time></trkpt><trkpt lat="39.24611783873558" lon="9.203177336787343"><ele>16.0</ele><time>2026-04-08T13:43:00.001Z</time></trkpt><trkpt lat="39.246256567092594" lon="9.203002751898037"><ele>15.666666666666666</ele><time>2026-04-08T13:43:01.001Z</time></trkpt><trkpt lat="39.24639730031153" lon="9.202830812970848"><ele>15.333333333333332</ele><time>2026-04-08T13:43:02.001Z</time></trkpt><trkpt lat="39.24653515820058" lon="9.202661241513022"><ele>15.0</ele><time>2026-04-08T13:43:03.001Z</time></trkpt><trkpt lat="39.24667318888947" lon="9.202490497947434"><ele>14.666666666666668</ele><time>2026-04-08T13:43:04.001Z</time></trkpt><trkpt lat="39.24681080789853" lon="9.202319053278513"><ele>14.333333333333334</ele><time>2026-04-08T13:43:05.001Z</time></trkpt><trkpt lat="39.24694824184253" lon="9.202149897977979"><ele>14.0</ele><time>2026-04-08T13:43:06.001Z</time></trkpt><trkpt lat="39.247077080324146" lon="9.201983327888811"><ele>14.0</ele><time>2026-04-08T13:43:07.001Z</time></trkpt><trkpt lat="39.247199465252535" lon="9.201829919719515"><ele>14.0</ele><time>2026-04-08T13:43:08.001Z</time></trkpt><trkpt lat="39.247322566529014" lon="9.20167643449648"><ele>14.0</ele><time>2026-04-08T13:43:09.001Z</time></trkpt><trkpt lat="39.247447819430434" lon="9.201517723759535"><ele>14.0</ele><time>2026-04-08T13:43:10.001Z</time></trkpt><trkpt lat="39.247574193126965" lon="9.201358182030647"><ele>14.0</ele><time>2026-04-08T13:43:11.001Z</time></trkpt><trkpt lat="39.247698807298654" lon="9.201205266439993"><ele>14.0</ele><time>2026-04-08T13:43:12.001Z</time></trkpt><trkpt lat="39.24782059665693" lon="9.201062162731201"><ele>14.0</ele><time>2026-04-08T13:43:13.001Z</time></trkpt><trkpt lat="39.24793735330719" lon="9.200933091078683"><ele>14.0</ele><time>2026-04-08T13:43:14.001Z</time></trkpt><trkpt lat="39.24805274222816" lon="9.20080114079489"><ele>14.0</ele><time>2026-04-08T13:43:15.001Z</time></trkpt><trkpt lat="39.2481560302725" lon="9.200672419061329"><ele>14.333333333333334</ele><time>2026-04-08T13:43:16.001Z</time></trkpt><trkpt lat="39.24825707742327" lon="9.200545202954615"><ele>14.666666666666668</ele><time>2026-04-08T13:43:17.002Z</time></trkpt><trkpt lat="39.2483675452135" lon="9.200409440137754"><ele>15.0</ele><time>2026-04-08T13:43:18.002Z</time></trkpt><trkpt lat="39.24848062835178" lon="9.200270628261283"><ele>15.0</ele><time>2026-04-08T13:43:19Z</time></trkpt><trkpt lat="39.248589979629415" lon="9.200123911717021"><ele>15.0</ele><time>2026-04-08T13:43:20Z</time></trkpt><trkpt lat="39.2487056061063" lon="9.199987479561116"><ele>15.0</ele><time>2026-04-08T13:43:21Z</time></trkpt><trkpt lat="39.248799621143554" lon="9.199861336680629"><ele>15.0</ele><time>2026-04-08T13:43:22Z</time></trkpt><trkpt lat="39.24889508204806" lon="9.199731320659133"><ele>15.0</ele><time>2026-04-08T13:43:23Z</time></trkpt><trkpt lat="39.24900022766081" lon="9.19959714323914"><ele>15.0</ele><time>2026-04-08T13:43:24Z</time></trkpt><trkpt lat="39.24910589125563" lon="9.199468125687215"><ele>15.0</ele><time>2026-04-08T13:43:25Z</time></trkpt><trkpt lat="39.249207084771434" lon="9.199345891289187"><ele>15.0</ele><time>2026-04-08T13:43:26Z</time></trkpt><trkpt lat="39.24930203024819" lon="9.199227600734895"><ele>15.0</ele><time>2026-04-08T13:43:27Z</time></trkpt><trkpt lat="39.24938861254106" lon="9.199119434280478"><ele>15.0</ele><time>2026-04-08T13:43:28Z</time></trkpt><trkpt lat="39.24947660317449" lon="9.199016479162536"><ele>15.0</ele><time>2026-04-08T13:43:29Z</time></trkpt><trkpt lat="39.2495585752738" lon="9.198903310212886"><ele>14.75</ele><time>2026-04-08T13:43:30Z</time></trkpt><trkpt lat="39.24964037144757" lon="9.198801376223823"><ele>14.5</ele><time>2026-04-08T13:43:31Z</time></trkpt><trkpt lat="39.249795195524854" lon="9.198827607475168"><ele>14.25</ele><time>2026-04-08T13:43:32Z</time></trkpt><trkpt lat="39.249917991727536" lon="9.19883595180628"><ele>14.0</ele><time>2026-04-08T13:43:33Z</time></trkpt><trkpt lat="39.250037214985795" lon="9.198874539107592"><ele>14.5</ele><time>2026-04-08T13:43:34Z</time></trkpt><trkpt lat="39.25015886878768" lon="9.19894220558204"><ele>15.0</ele><time>2026-04-08T13:43:35Z</time></trkpt><trkpt lat="39.2502852448966" lon="9.198973691395652"><ele>15.5</ele><time>2026-04-08T13:43:36Z</time></trkpt><trkpt lat="39.25037595183323" lon="9.199155767646927"><ele>16.0</ele><time>2026-04-08T13:43:37Z</time></trkpt><trkpt lat="39.25047162119454" lon="9.199294423336617"><ele>16.0</ele><time>2026-04-08T13:43:38Z</time></trkpt><trkpt lat="39.25057546234547" lon="9.199440615322114"><ele>16.0</ele><time>2026-04-08T13:43:39Z</time></trkpt><trkpt lat="39.25068372745377" lon="9.199574874900774"><ele>16.0</ele><time>2026-04-08T13:43:40Z</time></trkpt><trkpt lat="39.25078878653252" lon="9.199715319232848"><ele>17.25</ele><time>2026-04-08T13:43:41Z</time></trkpt><trkpt lat="39.25089438820476" lon="9.199857806862015"><ele>18.5</ele><time>2026-04-08T13:43:42Z</time></trkpt><trkpt lat="39.250998808368045" lon="9.199997087921442"><ele>19.75</ele><time>2026-04-08T13:43:43Z</time></trkpt><trkpt lat="39.25109237829539" lon="9.200125451251589"><ele>21.0</ele><time>2026-04-08T13:43:44Z</time></trkpt><trkpt lat="39.25118971491939" lon="9.200254037372858"><ele>21.0</ele><time>2026-04-08T13:43:45Z</time></trkpt><trkpt lat="39.25128730517446" lon="9.200384438996215"><ele>21.0</ele><time>2026-04-08T13:43:46Z</time></trkpt><trkpt lat="39.251391062565915" lon="9.200522471331512"><ele>21.0</ele><time>2026-04-08T13:43:47.001Z</time></trkpt><trkpt lat="39.25150827012502" lon="9.200675158836889"><ele>22.0</ele><time>2026-04-08T13:43:48.001Z</time></trkpt><trkpt lat="39.251623080124396" lon="9.200825499518661"><ele>23.0</ele><time>2026-04-08T13:43:49.001Z</time></trkpt><trkpt lat="39.25173154605105" lon="9.20097120376687"><ele>24.0</ele><time>2026-04-08T13:43:50.001Z</time></trkpt><trkpt lat="39.251837818801455" lon="9.201115308369344"><ele>24.0</ele><time>2026-04-08T13:43:51.001Z</time></trkpt><trkpt lat="39.2519396261304" lon="9.201257168135662"><ele>24.0</ele><time>2026-04-08T13:43:52.001Z</time></trkpt><trkpt lat="39.2520490638127" lon="9.20140318333538"><ele>24.0</ele><time>2026-04-08T13:43:53.001Z</time></trkpt><trkpt lat="39.25215380981389" lon="9.201549354318868"><ele>24.75</ele><time>2026-04-08T13:43:54.001Z</time></trkpt><trkpt lat="39.25225611885709" lon="9.201686282720464"><ele>25.5</ele><time>2026-04-08T13:43:55.001Z</time></trkpt><trkpt lat="39.252354813088374" lon="9.201820116697682"><ele>26.25</ele><time>2026-04-08T13:43:56.001Z</time></trkpt><trkpt lat="39.25244931114079" lon="9.201941309646541"><ele>27.0</ele><time>2026-04-08T13:43:57.001Z</time></trkpt><trkpt lat="39.252543496947645" lon="9.202069211179536"><ele>27.75</ele><time>2026-04-08T13:43:58.001Z</time></trkpt><trkpt lat="39.25264044103009" lon="9.20219562707626"><ele>28.5</ele><time>2026-04-08T13:43:59.001Z</time></trkpt><trkpt lat="39.25273558814817" lon="9.202323993829488"><ele>29.25</ele><time>2026-04-08T13:44:00.001Z</time></trkpt><trkpt lat="39.252832403978196" lon="9.202451722449327"><ele>30.0</ele><time>2026-04-08T13:44:01.001Z</time></trkpt><trkpt lat="39.25293039923463" lon="9.202578238645032"><ele>30.0</ele><time>2026-04-08T13:44:02.001Z</time></trkpt><trkpt lat="39.253025468126474" lon="9.202697422352884"><ele>30.0</ele><time>2026-04-08T13:44:03.001Z</time></trkpt><trkpt lat="39.253112116029314" lon="9.202807148889965"><ele>30.0</ele><time>2026-04-08T13:44:04.001Z</time></trkpt><trkpt lat="39.25320188044448" lon="9.202930672406112"><ele>30.0</ele><time>2026-04-08T13:44:05.001Z</time></trkpt><trkpt lat="39.25329239533299" lon="9.203052556591683"><ele>31.0</ele><time>2026-04-08T13:44:06.001Z</time></trkpt><trkpt lat="39.25337993310772" lon="9.203168783133659"><ele>32.0</ele><time>2026-04-08T13:44:07.001Z</time></trkpt><trkpt lat="39.25346498223877" lon="9.203284022730594"><ele>33.0</ele><time>2026-04-08T13:44:08.001Z</time></trkpt><trkpt lat="39.25354349474305" lon="9.203389650150006"><ele>34.0</ele><time>2026-04-08T13:44:09.001Z</time></trkpt><trkpt lat="39.25361816719853" lon="9.203478787732468"><ele>34.0</ele><time>2026-04-08T13:44:10.001Z</time></trkpt><trkpt lat="39.25368588916126" lon="9.20357592800682"><ele>34.0</ele><time>2026-04-08T13:44:11.001Z</time></trkpt><trkpt lat="39.253752635229375" lon="9.20366666286348"><ele>34.0</ele><time>2026-04-08T13:44:12.001Z</time></trkpt><trkpt lat="39.25381146020137" lon="9.203736756314047"><ele>34.0</ele><time>2026-04-08T13:44:13.001Z</time></trkpt><trkpt lat="39.25384694737573" lon="9.203807766838057"><ele>34.0</ele><time>2026-04-08T13:44:14.001Z</time></trkpt><trkpt lat="39.253999037918575" lon="9.203723629426422"><ele>35.5</ele><time>2026-04-08T13:44:17.001Z</time></trkpt><trkpt lat="39.25405981533709" lon="9.20364489009947"><ele>37.0</ele><time>2026-04-08T13:44:18.001Z</time></trkpt><trkpt lat="39.25414419812835" lon="9.203529694951394"><ele>38.5</ele><time>2026-04-08T13:44:19.001Z</time></trkpt><trkpt lat="39.254241308271716" lon="9.20340533156392"><ele>40.0</ele><time>2026-04-08T13:44:20.001Z</time></trkpt><trkpt lat="39.25431729934254" lon="9.203306150693455"><ele>40.0</ele><time>2026-04-08T13:44:21.001Z</time></trkpt><trkpt lat="39.25437515888519" lon="9.203224516082603"><ele>40.0</ele><time>2026-04-08T13:44:22.001Z</time></trkpt><trkpt lat="39.25443856992052" lon="9.203139612581678"><ele>40.0</ele><time>2026-04-08T13:44:23.001Z</time></trkpt><trkpt lat="39.2545178083966" lon="9.20303762373772"><ele>40.0</ele><time>2026-04-08T13:44:24.001Z</time></trkpt><trkpt lat="39.254606584359045" lon="9.202926178600332"><ele>40.0</ele><time>2026-04-08T13:44:25.001Z</time></trkpt><trkpt lat="39.254689782087304" lon="9.202820110381145"><ele>40.0</ele><time>2026-04-08T13:44:26.001Z</time></trkpt><trkpt lat="39.25476239324687" lon="9.202734603372962"><ele>40.0</ele><time>2026-04-08T13:44:27.001Z</time></trkpt><trkpt lat="39.254831524890854" lon="9.202678765566183"><ele>40.0</ele><time>2026-04-08T13:44:28.001Z</time></trkpt><trkpt lat="39.25489293732399" lon="9.202636058199541"><ele>40.0</ele><time>2026-04-08T13:44:29.001Z</time></trkpt><trkpt lat="39.254955911814626" lon="9.202584398006902"><ele>40.0</ele><time>2026-04-08T13:44:30.001Z</time></trkpt><trkpt lat="39.25503135525699" lon="9.202511503982722"><ele>40.0</ele><time>2026-04-08T13:44:31.001Z</time></trkpt><trkpt lat="39.2551199632783" lon="9.202413234278177"><ele>42.25</ele><time>2026-04-08T13:44:32.001Z</time></trkpt><trkpt lat="39.25522381848895" lon="9.202306006737002"><ele>44.5</ele><time>2026-04-08T13:44:33.001Z</time></trkpt><trkpt lat="39.2553173591284" lon="9.202217182210333"><ele>46.75</ele><time>2026-04-08T13:44:34.001Z</time></trkpt><trkpt lat="39.25541502233268" lon="9.202136089470832"><ele>49.0</ele><time>2026-04-08T13:44:35.001Z</time></trkpt><trkpt lat="39.25552204703229" lon="9.20206710369345"><ele>49.2</ele><time>2026-04-08T13:44:36.001Z</time></trkpt><trkpt lat="39.255622451174304" lon="9.20201404528652"><ele>49.400000000000006</ele><time>2026-04-08T13:44:37.001Z</time></trkpt><trkpt lat="39.255712442551044" lon="9.20195974572456"><ele>49.6</ele><time>2026-04-08T13:44:38.001Z</time></trkpt><trkpt lat="39.25579919957189" lon="9.201904099010239"><ele>49.8</ele><time>2026-04-08T13:44:39.001Z</time></trkpt><trkpt lat="39.255877139750034" lon="9.201850593669235"><ele>50.0</ele><time>2026-04-08T13:44:40.001Z</time></trkpt><trkpt lat="39.25597450536409" lon="9.201808093592067"><ele>50.00000000000001</ele><time>2026-04-08T13:44:41.001Z</time></trkpt><trkpt lat="39.256052564020926" lon="9.201710099029894"><ele>50.0</ele><time>2026-04-08T13:44:42.001Z</time></trkpt><trkpt lat="39.25612232962076" lon="9.201654355148408"><ele>50.0</ele><time>2026-04-08T13:44:43.001Z</time></trkpt><trkpt lat="39.25620325065742" lon="9.201581265555689"><ele>50.0</ele><time>2026-04-08T13:44:45.002Z</time></trkpt><trkpt lat="39.256260579316134" lon="9.20152672041161"><ele>50.00000000000001</ele><time>2026-04-08T13:45:01.002Z</time></trkpt><trkpt lat="39.256331395923475" lon="9.201460157499099"><ele>50.0</ele><time>2026-04-08T13:46:49.001Z</time></trkpt><trkpt lat="39.2563927277765" lon="9.20140030188419"><ele>50.4</ele><time>2026-04-08T13:46:51.001Z</time></trkpt><trkpt lat="39.256456730791804" lon="9.201314407109722"><ele>50.8</ele><time>2026-04-08T13:46:53.002Z</time></trkpt><trkpt lat="39.25652950493661" lon="9.201250375533895"><ele>51.2</ele><time>2026-04-08T13:46:54.002Z</time></trkpt><trkpt lat="39.25662392735354" lon="9.201153301209695"><ele>51.6</ele><time>2026-04-08T13:46:55.002Z</time></trkpt><trkpt lat="39.25673605394676" lon="9.201036440553853"><ele>52.0</ele><time>2026-04-08T13:46:56.002Z</time></trkpt><trkpt lat="39.25685298022919" lon="9.200911263650378"><ele>52.0</ele><time>2026-04-08T13:46:57.002Z</time></trkpt><trkpt lat="39.25694588873918" lon="9.200838515672343"><ele>52.0</ele><time>2026-04-08T13:46:58.002Z</time></trkpt><trkpt lat="39.257011160576226" lon="9.200796090958773"><ele>52.0</ele><time>2026-04-08T13:46:59.002Z</time></trkpt><trkpt lat="39.257051204833225" lon="9.200664546028303"><ele>52.0</ele><time>2026-04-08T13:47:00.002Z</time></trkpt><trkpt lat="39.25712284878537" lon="9.200580941412044"><ele>52.0</ele><time>2026-04-08T13:47:01.002Z</time></trkpt><trkpt lat="39.25721134054856" lon="9.200537767007408"><ele>52.49999999999999</ele><time>2026-04-08T13:47:02.002Z</time></trkpt><trkpt lat="39.25729570879322" lon="9.200477331538863"><ele>53.0</ele><time>2026-04-08T13:47:03.002Z</time></trkpt><trkpt lat="39.25738299464344" lon="9.200441613146292"><ele>53.5</ele><time>2026-04-08T13:47:04.002Z</time></trkpt><trkpt lat="39.25745410461018" lon="9.200429017239808"><ele>54.0</ele><time>2026-04-08T13:47:05.002Z</time></trkpt><trkpt lat="39.25752220723873" lon="9.200425657697252"><ele>54.49999999999999</ele><time>2026-04-08T13:47:06.002Z</time></trkpt><trkpt lat="39.25761059032863" lon="9.200414788877339"><ele>55.0</ele><time>2026-04-08T13:47:07.002Z</time></trkpt><trkpt lat="39.2576873417649" lon="9.200391149175664"><ele>54.99999999999999</ele><time>2026-04-08T13:47:08.002Z</time></trkpt><trkpt lat="39.25775297206842" lon="9.20033578369706"><ele>55.0</ele><time>2026-04-08T13:47:09.002Z</time></trkpt><trkpt lat="39.257797866097526" lon="9.200257115958646"><ele>55.0</ele><time>2026-04-08T13:47:10.002Z</time></trkpt><trkpt lat="39.257831682743614" lon="9.200170839917536"><ele>55.0</ele><time>2026-04-08T13:47:11.002Z</time></trkpt><trkpt lat="39.257861308676226" lon="9.200080507553366"><ele>54.99999999999999</ele><time>2026-04-08T13:47:12.002Z</time></trkpt><trkpt lat="39.25792346159789" lon="9.199947964317834"><ele>55.0</ele><time>2026-04-08T13:47:14.002Z</time></trkpt><trkpt lat="39.25794855809016" lon="9.199862802106662"><ele>55.5</ele><time>2026-04-08T13:47:16.002Z</time></trkpt><trkpt lat="39.258200274893895" lon="9.199920509629052"><ele>56.0</ele><time>2026-04-08T13:47:19.002Z</time></trkpt><trkpt lat="39.25826448839728" lon="9.199950350531061"><ele>56.5</ele><time>2026-04-08T13:47:20.002Z</time></trkpt><trkpt lat="39.25833511996836" lon="9.200004259501677"><ele>57.0</ele><time>2026-04-08T13:47:21.002Z</time></trkpt><trkpt lat="39.25838417519324" lon="9.20006560351209"><ele>57.0</ele><time>2026-04-08T13:47:22.002Z</time></trkpt><trkpt lat="39.25841757955527" lon="9.200136556284132"><ele>57.0</ele><time>2026-04-08T13:47:23.002Z</time></trkpt><trkpt lat="39.258456717304256" lon="9.20023427153523"><ele>57.0</ele><time>2026-04-08T13:47:24.002Z</time></trkpt><trkpt lat="39.25850107796774" lon="9.200337763631676"><ele>57.0</ele><time>2026-04-08T13:47:25.002Z</time></trkpt><trkpt lat="39.258539704368815" lon="9.20042543131603"><ele>57.0</ele><time>2026-04-08T13:47:26.002Z</time></trkpt><trkpt lat="39.25857313266281" lon="9.200498007722869"><ele>57.0</ele><time>2026-04-08T13:47:27.002Z</time></trkpt><trkpt lat="39.258661294135734" lon="9.200572230713057"><ele>57.0</ele><time>2026-04-08T13:47:29.002Z</time></trkpt><trkpt lat="39.25872474627488" lon="9.200582863617322"><ele>57.0</ele><time>2026-04-08T13:47:30.002Z</time></trkpt><trkpt lat="39.25880636307585" lon="9.200583597560149"><ele>57.0</ele><time>2026-04-08T13:47:31.001Z</time></trkpt><trkpt lat="39.25889970430637" lon="9.200573412638494"><ele>57.0</ele><time>2026-04-08T13:47:32.001Z</time></trkpt><trkpt lat="39.25897398334285" lon="9.200540641277843"><ele>57.0</ele><time>2026-04-08T13:47:33.001Z</time></trkpt><trkpt lat="39.25904244358985" lon="9.200482825960313"><ele>57.0</ele><time>2026-04-08T13:47:34.001Z</time></trkpt><trkpt lat="39.259110573260095" lon="9.20043864586818"><ele>56.8</ele><time>2026-04-08T13:47:35.001Z</time></trkpt><trkpt lat="39.25918877249562" lon="9.20041302715367"><ele>56.6</ele><time>2026-04-08T13:47:36.001Z</time></trkpt><trkpt lat="39.25927966014042" lon="9.20039395312806"><ele>56.39999999999999</ele><time>2026-04-08T13:47:37.001Z</time></trkpt><trkpt lat="39.2593720792953" lon="9.20036236993577"><ele>56.199999999999996</ele><time>2026-04-08T13:47:38.001Z</time></trkpt><trkpt lat="39.25946700617643" lon="9.200313133964105"><ele>56.0</ele><time>2026-04-08T13:47:39.001Z</time></trkpt><trkpt lat="39.25956128181098" lon="9.20026273687087"><ele>56.0</ele><time>2026-04-08T13:47:40.001Z</time></trkpt><trkpt lat="39.25965659069503" lon="9.200226216335642"><ele>55.99999999999999</ele><time>2026-04-08T13:47:41.001Z</time></trkpt><trkpt lat="39.25976700676448" lon="9.200192077773936"><ele>55.99999999999999</ele><time>2026-04-08T13:47:42.001Z</time></trkpt><trkpt lat="39.2598818378098" lon="9.200162217305714"><ele>56.0</ele><time>2026-04-08T13:47:43.001Z</time></trkpt><trkpt lat="39.25998258044663" lon="9.200146469379991"><ele>56.0</ele><time>2026-04-08T13:47:44.001Z</time></trkpt><trkpt lat="39.26006649019366" lon="9.200141386604345"><ele>55.833333333333336</ele><time>2026-04-08T13:47:45.001Z</time></trkpt><trkpt lat="39.260144581573186" lon="9.200116804014868"><ele>55.66666666666667</ele><time>2026-04-08T13:47:46.001Z</time></trkpt><trkpt lat="39.26021930064813" lon="9.200069367547632"><ele>55.5</ele><time>2026-04-08T13:47:47.001Z</time></trkpt><trkpt lat="39.260319533941065" lon="9.200004066254417"><ele>55.33333333333333</ele><time>2026-04-08T13:47:48.001Z</time></trkpt><trkpt lat="39.26039919873873" lon="9.199959840090706"><ele>55.166666666666664</ele><time>2026-04-08T13:47:49.001Z</time></trkpt><trkpt lat="39.260479604537124" lon="9.199961200819507"><ele>55.0</ele><time>2026-04-08T13:47:50.001Z</time></trkpt><trkpt lat="39.26055091275668" lon="9.19994475016364"><ele>54.99999999999999</ele><time>2026-04-08T13:47:51.001Z</time></trkpt><trkpt lat="39.26061395272614" lon="9.199913519363143"><ele>55.0</ele><time>2026-04-08T13:47:52.001Z</time></trkpt><trkpt lat="39.260688433033366" lon="9.199904732305564"><ele>55.0</ele><time>2026-04-08T13:47:53.001Z</time></trkpt><trkpt lat="39.2607644953051" lon="9.199885983764014"><ele>55.0</ele><time>2026-04-08T13:47:54.001Z</time></trkpt><trkpt lat="39.260832917462885" lon="9.199848454595879"><ele>54.99999999999999</ele><time>2026-04-08T13:47:55.001Z</time></trkpt><trkpt lat="39.260890233534745" lon="9.199801911892386"><ele>55.0</ele><time>2026-04-08T13:47:56.001Z</time></trkpt><trkpt lat="39.260976326332376" lon="9.199726197775817"><ele>54.57142857142857</ele><time>2026-04-08T13:47:58.001Z</time></trkpt><trkpt lat="39.26104077878922" lon="9.199707697336803"><ele>54.14285714285714</ele><time>2026-04-08T13:48:01.001Z</time></trkpt><trkpt lat="39.26111544623165" lon="9.19972135096695"><ele>53.71428571428571</ele><time>2026-04-08T13:48:06.001Z</time></trkpt><trkpt lat="39.261179241512984" lon="9.199693162219434"><ele>53.285714285714285</ele><time>2026-04-08T13:48:07.001Z</time></trkpt><trkpt lat="39.26124074507402" lon="9.199647731071657"><ele>52.85714285714286</ele><time>2026-04-08T13:48:08.001Z</time></trkpt><trkpt lat="39.26130470583781" lon="9.199618401491072"><ele>52.42857142857142</ele><time>2026-04-08T13:48:09.001Z</time></trkpt><trkpt lat="39.261382442855215" lon="9.199586390835698"><ele>52.0</ele><time>2026-04-08T13:48:10.001Z</time></trkpt><trkpt lat="39.26145990650285" lon="9.199558697134844"><ele>51.83333333333333</ele><time>2026-04-08T13:48:11.001Z</time></trkpt><trkpt lat="39.26153931074591" lon="9.199537951985949"><ele>51.666666666666664</ele><time>2026-04-08T13:48:12.001Z</time></trkpt><trkpt lat="39.26160680406737" lon="9.199519689502726"><ele>51.5</ele><time>2026-04-08T13:48:13.001Z</time></trkpt><trkpt lat="39.26167852550358" lon="9.19949798818274"><ele>51.33333333333333</ele><time>2026-04-08T13:48:14.001Z</time></trkpt><trkpt lat="39.261764900699234" lon="9.199470540653861"><ele>51.166666666666664</ele><time>2026-04-08T13:48:15.001Z</time></trkpt><trkpt lat="39.26188223927429" lon="9.199423244035513"><ele>51.0</ele><time>2026-04-08T13:48:16.001Z</time></trkpt><trkpt lat="39.26199785053905" lon="9.199382377048702"><ele>51.0</ele><time>2026-04-08T13:48:17.001Z</time></trkpt><trkpt lat="39.262108805212115" lon="9.199340525973877"><ele>51.0</ele><time>2026-04-08T13:48:18.001Z</time></trkpt><trkpt lat="39.26221063417031" lon="9.199299927558494"><ele>51.0</ele><time>2026-04-08T13:48:19.001Z</time></trkpt><trkpt lat="39.26231784488455" lon="9.199255207271548"><ele>51.0</ele><time>2026-04-08T13:48:20.001Z</time></trkpt><trkpt lat="39.26243029552798" lon="9.199208833334612"><ele>52.199999999999996</ele><time>2026-04-08T13:48:21.001Z</time></trkpt><trkpt lat="39.262546794451914" lon="9.199168054971981"><ele>53.4</ele><time>2026-04-08T13:48:22.001Z</time></trkpt><trkpt lat="39.26266495835038" lon="9.199130086418613"><ele>54.6</ele><time>2026-04-08T13:48:23.001Z</time></trkpt><trkpt lat="39.26276439564782" lon="9.199103812585289"><ele>55.8</ele><time>2026-04-08T13:48:24.001Z</time></trkpt><trkpt lat="39.262850660820575" lon="9.199128614323394"><ele>57.0</ele><time>2026-04-08T13:48:25.001Z</time></trkpt><trkpt lat="39.26294430119294" lon="9.199106641360876"><ele>57.0</ele><time>2026-04-08T13:48:26.001Z</time></trkpt><trkpt lat="39.263023632205154" lon="9.19906071257039"><ele>57.0</ele><time>2026-04-08T13:48:27.001Z</time></trkpt><trkpt lat="39.26311688236066" lon="9.19903082626936"><ele>57.0</ele><time>2026-04-08T13:48:28.001Z</time></trkpt><trkpt lat="39.26321396175098" lon="9.198980273875666"><ele>57.0</ele><time>2026-04-08T13:48:29.001Z</time></trkpt><trkpt lat="39.26332520510121" lon="9.198944368914013"><ele>57.0</ele><time>2026-04-08T13:48:30.001Z</time></trkpt><trkpt lat="39.26341011638244" lon="9.19889126536627"><ele>56.8</ele><time>2026-04-08T13:48:31.001Z</time></trkpt><trkpt lat="39.26348501594049" lon="9.198875148356882"><ele>56.6</ele><time>2026-04-08T13:48:32.001Z</time></trkpt><trkpt lat="39.263550566619905" lon="9.19888386299063"><ele>56.39999999999999</ele><time>2026-04-08T13:48:33.001Z</time></trkpt><trkpt lat="39.26366344220002" lon="9.198853768918998"><ele>56.199999999999996</ele><time>2026-04-08T13:48:35.001Z</time></trkpt><trkpt lat="39.26376044063905" lon="9.198851442813487"><ele>56.0</ele><time>2026-04-08T13:48:37.001Z</time></trkpt><trkpt lat="39.26387990599293" lon="9.199194095543325"><ele>57.16666666666667</ele><time>2026-04-08T13:48:39.001Z</time></trkpt><trkpt lat="39.2639279445287" lon="9.199266364650791"><ele>58.333333333333336</ele><time>2026-04-08T13:48:40.001Z</time></trkpt><trkpt lat="39.263991498684085" lon="9.199346096245424"><ele>59.5</ele><time>2026-04-08T13:48:41.001Z</time></trkpt><trkpt lat="39.264034675741684" lon="9.199419673641952"><ele>60.66666666666667</ele><time>2026-04-08T13:48:42.001Z</time></trkpt><trkpt lat="39.264081251526115" lon="9.199511911987791"><ele>61.833333333333336</ele><time>2026-04-08T13:48:43.001Z</time></trkpt><trkpt lat="39.26412332957946" lon="9.199599089933283"><ele>63.0</ele><time>2026-04-08T13:48:44.001Z</time></trkpt><trkpt lat="39.264168026189246" lon="9.199674546070915"><ele>63.666666666666664</ele><time>2026-04-08T13:48:45.001Z</time></trkpt><trkpt lat="39.264231119943965" lon="9.199762952203312"><ele>64.33333333333333</ele><time>2026-04-08T13:48:47.001Z</time></trkpt><trkpt lat="39.264241033654706" lon="9.199888265119379"><ele>65.0</ele><time>2026-04-08T13:48:58.001Z</time></trkpt><trkpt lat="39.26426289274382" lon="9.200033970810951"><ele>65.66666666666666</ele><time>2026-04-08T13:49:00.001Z</time></trkpt><trkpt lat="39.26428322431364" lon="9.200112677403391"><ele>66.33333333333333</ele><time>2026-04-08T13:49:01.002Z</time></trkpt><trkpt lat="39.26430340931657" lon="9.20020764941328"><ele>67.0</ele><time>2026-04-08T13:49:02.002Z</time></trkpt><trkpt lat="39.264328521178435" lon="9.200302334950186"><ele>66.6</ele><time>2026-04-08T13:49:03.002Z</time></trkpt><trkpt lat="39.26435507212364" lon="9.20038026488367"><ele>66.2</ele><time>2026-04-08T13:49:04.002Z</time></trkpt><trkpt lat="39.26439338173363" lon="9.200528173923656"><ele>65.8</ele><time>2026-04-08T13:49:06.002Z</time></trkpt><trkpt lat="39.26439445689089" lon="9.20068509821795"><ele>65.4</ele><time>2026-04-08T13:49:08.002Z</time></trkpt><trkpt lat="39.26439821852598" lon="9.200827187668608"><ele>65.0</ele><time>2026-04-08T13:49:10.002Z</time></trkpt><trkpt lat="39.264430257965174" lon="9.20092447645443"><ele>65.0</ele><time>2026-04-08T13:49:12.002Z</time></trkpt><trkpt lat="39.26446562386993" lon="9.201008742294183"><ele>65.0</ele><time>2026-04-08T13:49:15.002Z</time></trkpt><trkpt lat="39.26450364467563" lon="9.201103982130915"><ele>65.0</ele><time>2026-04-08T13:49:17.002Z</time></trkpt><trkpt lat="39.26454766417926" lon="9.201240386548657"><ele>65.0</ele><time>2026-04-08T13:49:19.002Z</time></trkpt><trkpt lat="39.26459009415377" lon="9.20138557726263"><ele>65.0</ele><time>2026-04-08T13:49:21.002Z</time></trkpt><trkpt lat="39.26464672068953" lon="9.201511574599962"><ele>63.333333333333336</ele><time>2026-04-08T13:49:23.002Z</time></trkpt><trkpt lat="39.26470730762646" lon="9.201634643287665"><ele>61.66666666666667</ele><time>2026-04-08T13:49:25.002Z</time></trkpt><trkpt lat="39.26474945557283" lon="9.201701050263539"><ele>60.0</ele><time>2026-04-08T13:49:26.002Z</time></trkpt><trkpt lat="39.264806828335395" lon="9.201763082137058"><ele>58.33333333333333</ele><time>2026-04-08T13:49:27.002Z</time></trkpt><trkpt lat="39.264866065657735" lon="9.201825638992029"><ele>56.666666666666664</ele><time>2026-04-08T13:49:28.002Z</time></trkpt><trkpt lat="39.264918626174" lon="9.201881827729705"><ele>55.0</ele><time>2026-04-08T13:49:29.002Z</time></trkpt><trkpt lat="39.26498735380026" lon="9.201976635953379"><ele>53.8</ele><time>2026-04-08T13:49:31.002Z</time></trkpt><trkpt lat="39.26506055329777" lon="9.202110685595773"><ele>52.6</ele><time>2026-04-08T13:49:33.002Z</time></trkpt><trkpt lat="39.26510195063017" lon="9.202180071203077"><ele>51.400000000000006</ele><time>2026-04-08T13:49:34.002Z</time></trkpt><trkpt lat="39.26514430429084" lon="9.202269006527287"><ele>50.2</ele><time>2026-04-08T13:49:35.002Z</time></trkpt><trkpt lat="39.26519322653121" lon="9.20240302648794"><ele>49.0</ele><time>2026-04-08T13:49:36.002Z</time></trkpt><trkpt lat="39.26524070528318" lon="9.202524798639166"><ele>47.6</ele><time>2026-04-08T13:49:37.001Z</time></trkpt><trkpt lat="39.26527825866213" lon="9.202630822759653"><ele>46.2</ele><time>2026-04-08T13:49:38.001Z</time></trkpt><trkpt lat="39.26531067900288" lon="9.202717434326653"><ele>44.800000000000004</ele><time>2026-04-08T13:49:39.001Z</time></trkpt><trkpt lat="39.265362480809976" lon="9.202864583101237"><ele>43.400000000000006</ele><time>2026-04-08T13:49:41.001Z</time></trkpt><trkpt lat="39.26538708555356" lon="9.202957952653064"><ele>42.0</ele><time>2026-04-08T13:49:42.001Z</time></trkpt><trkpt lat="39.265428952151254" lon="9.203088553149232"><ele>41.166666666666664</ele><time>2026-04-08T13:49:44.001Z</time></trkpt><trkpt lat="39.26545202707946" lon="9.20324016247943"><ele>40.333333333333336</ele><time>2026-04-08T13:49:46Z</time></trkpt><trkpt lat="39.265462778133525" lon="9.203321558597704"><ele>39.5</ele><time>2026-04-08T13:49:47Z</time></trkpt><trkpt lat="39.26551253685133" lon="9.203412074182154"><ele>38.66666666666667</ele><time>2026-04-08T13:49:49Z</time></trkpt><trkpt lat="39.26559974291691" lon="9.203421786960455"><ele>37.833333333333336</ele><time>2026-04-08T13:49:51Z</time></trkpt><trkpt lat="39.265674183113624" lon="9.203414082773582"><ele>37.0</ele><time>2026-04-08T13:49:52Z</time></trkpt><trkpt lat="39.26575527160126" lon="9.203388248829993"><ele>36.6</ele><time>2026-04-08T13:49:53Z</time></trkpt><trkpt lat="39.265828407729394" lon="9.20336094365625"><ele>36.2</ele><time>2026-04-08T13:49:54Z</time></trkpt><trkpt lat="39.265955288978866" lon="9.203317618952987"><ele>35.8</ele><time>2026-04-08T13:49:56Z</time></trkpt><trkpt lat="39.266045515926166" lon="9.203282719470044"><ele>35.4</ele><time>2026-04-08T13:49:57Z</time></trkpt><trkpt lat="39.26613522947959" lon="9.20325150798279"><ele>35.0</ele><time>2026-04-08T13:49:58Z</time></trkpt><trkpt lat="39.26622416847148" lon="9.203235217608656"><ele>35.0</ele><time>2026-04-08T13:49:59Z</time></trkpt><trkpt lat="39.26630461524068" lon="9.203213301592912"><ele>35.0</ele><time>2026-04-08T13:50:00Z</time></trkpt><trkpt lat="39.266372074451255" lon="9.203179243343635"><ele>35.0</ele><time>2026-04-08T13:50:01Z</time></trkpt><trkpt lat="39.266463031595904" lon="9.203097694703951"><ele>35.0</ele><time>2026-04-08T13:50:03Z</time></trkpt><trkpt lat="39.26653248403226" lon="9.20303651984499"><ele>35.0</ele><time>2026-04-08T13:50:05Z</time></trkpt><trkpt lat="39.26655667178812" lon="9.202907956340336"><ele>35.666666666666664</ele><time>2026-04-08T13:50:07Z</time></trkpt><trkpt lat="39.26657803822993" lon="9.202818755455283"><ele>36.33333333333333</ele><time>2026-04-08T13:50:08.001Z</time></trkpt><trkpt lat="39.26661636075946" lon="9.202747213466163"><ele>37.0</ele><time>2026-04-08T13:50:09.001Z</time></trkpt><trkpt lat="39.266664363633595" lon="9.202691298351905"><ele>37.666666666666664</ele><time>2026-04-08T13:50:10.001Z</time></trkpt><trkpt lat="39.26674778864789" lon="9.202648785285582"><ele>38.333333333333336</ele><time>2026-04-08T13:50:12.001Z</time></trkpt><trkpt lat="39.26681368831398" lon="9.202645587792416"><ele>39.0</ele><time>2026-04-08T13:50:14.001Z</time></trkpt><trkpt lat="39.266934489874096" lon="9.20264706043911"><ele>39.0</ele><time>2026-04-08T13:50:16.001Z</time></trkpt><trkpt lat="39.26699073231924" lon="9.202721115898678"><ele>39.0</ele><time>2026-04-08T13:50:19.001Z</time></trkpt><trkpt lat="39.26694874965906" lon="9.202861566525367"><ele>39.0</ele><time>2026-04-08T13:50:21.001Z</time></trkpt><trkpt lat="39.266923407225754" lon="9.20297567245563"><ele>39.0</ele><time>2026-04-08T13:50:22.001Z</time></trkpt><trkpt lat="39.266899288700735" lon="9.203120073362275"><ele>39.0</ele><time>2026-04-08T13:50:23.001Z</time></trkpt><trkpt lat="39.26687344746478" lon="9.203289662499877"><ele>38.5</ele><time>2026-04-08T13:50:24.001Z</time></trkpt><trkpt lat="39.266841976017986" lon="9.203472576333295"><ele>38.0</ele><time>2026-04-08T13:50:25.001Z</time></trkpt><trkpt lat="39.26681177487913" lon="9.203632984300222"><ele>37.5</ele><time>2026-04-08T13:50:26.001Z</time></trkpt><trkpt lat="39.2667862622736" lon="9.203776637316547"><ele>37.0</ele><time>2026-04-08T13:50:27.001Z</time></trkpt><trkpt lat="39.266762488146405" lon="9.20390395394906"><ele>36.75</ele><time>2026-04-08T13:50:28.001Z</time></trkpt><trkpt lat="39.26673952506199" lon="9.20403415675748"><ele>36.5</ele><time>2026-04-08T13:50:29.001Z</time></trkpt><trkpt lat="39.26670368686168" lon="9.20418306844085"><ele>36.25</ele><time>2026-04-08T13:50:30.001Z</time></trkpt><trkpt lat="39.2666817380078" lon="9.20434456932592"><ele>36.0</ele><time>2026-04-08T13:50:31.001Z</time></trkpt><trkpt lat="39.266652762616204" lon="9.204511013640087"><ele>36.0</ele><time>2026-04-08T13:50:32.001Z</time></trkpt><trkpt lat="39.266627972273874" lon="9.20469665404174"><ele>36.0</ele><time>2026-04-08T13:50:33.001Z</time></trkpt><trkpt lat="39.26659889192819" lon="9.204878358299581"><ele>36.0</ele><time>2026-04-08T13:50:34.001Z</time></trkpt><trkpt lat="39.26656930997255" lon="9.205051201844418"><ele>36.0</ele><time>2026-04-08T13:50:35.001Z</time></trkpt><trkpt lat="39.2665399969161" lon="9.20522245925683"><ele>36.25</ele><time>2026-04-08T13:50:36.001Z</time></trkpt><trkpt lat="39.26651125508216" lon="9.205391750336224"><ele>36.5</ele><time>2026-04-08T13:50:37.001Z</time></trkpt><trkpt lat="39.26646927714302" lon="9.20554293321607"><ele>36.75</ele><time>2026-04-08T13:50:38.001Z</time></trkpt><trkpt lat="39.26645136578678" lon="9.205705256335106"><ele>37.0</ele><time>2026-04-08T13:50:39.001Z</time></trkpt><trkpt lat="39.266423536944394" lon="9.205865424072208"><ele>35.75</ele><time>2026-04-08T13:50:40.001Z</time></trkpt><trkpt lat="39.26639233765639" lon="9.206029910906674"><ele>34.5</ele><time>2026-04-08T13:50:41.001Z</time></trkpt><trkpt lat="39.2663540502919" lon="9.206197313787074"><ele>33.25</ele><time>2026-04-08T13:50:42.001Z</time></trkpt><trkpt lat="39.26632804037304" lon="9.206364841694286"><ele>32.0</ele><time>2026-04-08T13:50:43.001Z</time></trkpt><trkpt lat="39.26629715735962" lon="9.206531211956712"><ele>32.0</ele><time>2026-04-08T13:50:44.001Z</time></trkpt><trkpt lat="39.26626529747431" lon="9.206702384290189"><ele>32.0</ele><time>2026-04-08T13:50:45.001Z</time></trkpt><trkpt lat="39.26623774838839" lon="9.206874517894802"><ele>32.0</ele><time>2026-04-08T13:50:46.001Z</time></trkpt><trkpt lat="39.26620739033845" lon="9.207049795731534"><ele>32.0</ele><time>2026-04-08T13:50:47.001Z</time></trkpt><trkpt lat="39.266179600912764" lon="9.20722687858322"><ele>32.5</ele><time>2026-04-08T13:50:48.001Z</time></trkpt><trkpt lat="39.266153773555814" lon="9.207385766641437"><ele>33.0</ele><time>2026-04-08T13:50:49.001Z</time></trkpt><trkpt lat="39.26612930780368" lon="9.207535118422198"><ele>33.5</ele><time>2026-04-08T13:50:50.001Z</time></trkpt><trkpt lat="39.26610105251963" lon="9.20769637000055"><ele>34.0</ele><time>2026-04-08T13:50:51.001Z</time></trkpt><trkpt lat="39.266069893462316" lon="9.207885344878362"><ele>34.0</ele><time>2026-04-08T13:50:52.001Z</time></trkpt><trkpt lat="39.266037251267655" lon="9.208071333267922"><ele>34.0</ele><time>2026-04-08T13:50:53.001Z</time></trkpt><trkpt lat="39.26600902910278" lon="9.208231550976173"><ele>34.0</ele><time>2026-04-08T13:50:54.001Z</time></trkpt><trkpt lat="39.26598252211416" lon="9.208390568943862"><ele>34.0</ele><time>2026-04-08T13:50:55.001Z</time></trkpt><trkpt lat="39.26595543695102" lon="9.208548637076081"><ele>34.75</ele><time>2026-04-08T13:50:56.001Z</time></trkpt><trkpt lat="39.26591994276561" lon="9.208702678030221"><ele>35.5</ele><time>2026-04-08T13:50:57.001Z</time></trkpt><trkpt lat="39.26589530539769" lon="9.208860064070114"><ele>36.25</ele><time>2026-04-08T13:50:58.001Z</time></trkpt><trkpt lat="39.265869768317756" lon="9.209005707492066"><ele>37.0</ele><time>2026-04-08T13:50:59.001Z</time></trkpt><trkpt lat="39.26584426939826" lon="9.2091539607033"><ele>37.5</ele><time>2026-04-08T13:51:00.001Z</time></trkpt><trkpt lat="39.26581975290674" lon="9.209300957347416"><ele>38.0</ele><time>2026-04-08T13:51:01.001Z</time></trkpt><trkpt lat="39.26579556171757" lon="9.209454893696"><ele>38.5</ele><time>2026-04-08T13:51:02.001Z</time></trkpt><trkpt lat="39.26576761554415" lon="9.209617139531204"><ele>39.0</ele><time>2026-04-08T13:51:03.001Z</time></trkpt><trkpt lat="39.26573827627269" lon="9.209788820110127"><ele>39.25</ele><time>2026-04-08T13:51:04.001Z</time></trkpt><trkpt lat="39.26571049520604" lon="9.209959960605936"><ele>39.5</ele><time>2026-04-08T13:51:05.001Z</time></trkpt><trkpt lat="39.26567475263798" lon="9.210124024990566"><ele>39.75</ele><time>2026-04-08T13:51:06.001Z</time></trkpt><trkpt lat="39.265648925635894" lon="9.21027545632728"><ele>40.0</ele><time>2026-04-08T13:51:07.001Z</time></trkpt><trkpt lat="39.26562669910904" lon="9.210419843125722"><ele>39.4</ele><time>2026-04-08T13:51:08.001Z</time></trkpt><trkpt lat="39.265607278938475" lon="9.210550574837718"><ele>38.8</ele><time>2026-04-08T13:51:09.001Z</time></trkpt><trkpt lat="39.2655753141946" lon="9.210687765737001"><ele>38.2</ele><time>2026-04-08T13:51:10.001Z</time></trkpt><trkpt lat="39.265552820705786" lon="9.210828960333732"><ele>37.6</ele><time>2026-04-08T13:51:11.001Z</time></trkpt><trkpt lat="39.26552854241678" lon="9.210970233344677"><ele>37.0</ele><time>2026-04-08T13:51:12.001Z</time></trkpt><trkpt lat="39.26550674590632" lon="9.211116149971453"><ele>37.0</ele><time>2026-04-08T13:51:13.001Z</time></trkpt><trkpt lat="39.26548481256401" lon="9.21127382810502"><ele>37.0</ele><time>2026-04-08T13:51:14.001Z</time></trkpt><trkpt lat="39.26545861019229" lon="9.211440626573513"><ele>37.0</ele><time>2026-04-08T13:51:15.001Z</time></trkpt><trkpt lat="39.265418503455486" lon="9.211612718737305"><ele>37.0</ele><time>2026-04-08T13:51:16.001Z</time></trkpt><trkpt lat="39.2653889530984" lon="9.211793876175772"><ele>37.333333333333336</ele><time>2026-04-08T13:51:17.001Z</time></trkpt><trkpt lat="39.26535757849026" lon="9.211980684874234"><ele>37.666666666666664</ele><time>2026-04-08T13:51:18.001Z</time></trkpt><trkpt lat="39.26532518612021" lon="9.212171401440408"><ele>38.0</ele><time>2026-04-08T13:51:19.001Z</time></trkpt><trkpt lat="39.26529188682199" lon="9.21237080603499"><ele>38.0</ele><time>2026-04-08T13:51:20.001Z</time></trkpt><trkpt lat="39.26525901669253" lon="9.21256864626054"><ele>38.0</ele><time>2026-04-08T13:51:21.001Z</time></trkpt><trkpt lat="39.26522723942983" lon="9.21276465076715"><ele>38.0</ele><time>2026-04-08T13:51:22.001Z</time></trkpt><trkpt lat="39.26517768576693" lon="9.212956363329177"><ele>38.0</ele><time>2026-04-08T13:51:23.001Z</time></trkpt><trkpt lat="39.2651446360615" lon="9.213152935776549"><ele>38.0</ele><time>2026-04-08T13:51:24.001Z</time></trkpt><trkpt lat="39.265124952522676" lon="9.213363478246503"><ele>38.0</ele><time>2026-04-08T13:51:25.001Z</time></trkpt><trkpt lat="39.26508700085226" lon="9.213574594313062"><ele>37.75</ele><time>2026-04-08T13:51:26.001Z</time></trkpt><trkpt lat="39.26505892156171" lon="9.213763631715196"><ele>37.5</ele><time>2026-04-08T13:51:27.001Z</time></trkpt><trkpt lat="39.26503339201758" lon="9.213941621885974"><ele>37.25</ele><time>2026-04-08T13:51:28.001Z</time></trkpt><trkpt lat="39.265004360469966" lon="9.214122168784066"><ele>37.0</ele><time>2026-04-08T13:51:29.001Z</time></trkpt><trkpt lat="39.26497309107897" lon="9.21429933901778"><ele>37.0</ele><time>2026-04-08T13:51:30.001Z</time></trkpt><trkpt lat="39.26494182433038" lon="9.214476834874331"><ele>37.0</ele><time>2026-04-08T13:51:31.001Z</time></trkpt><trkpt lat="39.26491219850092" lon="9.214655434242776"><ele>37.0</ele><time>2026-04-08T13:51:32.001Z</time></trkpt><trkpt lat="39.26486441950124" lon="9.214826066261134"><ele>37.0</ele><time>2026-04-08T13:51:33.001Z</time></trkpt><trkpt lat="39.2648319871714" lon="9.215006254608337"><ele>37.0</ele><time>2026-04-08T13:51:34.001Z</time></trkpt><trkpt lat="39.264800587545885" lon="9.215192505808606"><ele>37.0</ele><time>2026-04-08T13:51:35.001Z</time></trkpt><trkpt lat="39.26476977076741" lon="9.215382921839621"><ele>37.0</ele><time>2026-04-08T13:51:36.001Z</time></trkpt><trkpt lat="39.26475339879535" lon="9.215581954982781"><ele>36.333333333333336</ele><time>2026-04-08T13:51:37.002Z</time></trkpt><trkpt lat="39.264717797603396" lon="9.21578532155196"><ele>35.666666666666664</ele><time>2026-04-08T13:51:38.002Z</time></trkpt><trkpt lat="39.26468195382554" lon="9.215997565031335"><ele>35.0</ele><time>2026-04-08T13:51:39.002Z</time></trkpt><trkpt lat="39.264649177305806" lon="9.216207709930028"><ele>35.0</ele><time>2026-04-08T13:51:40.002Z</time></trkpt><trkpt lat="39.26459849181908" lon="9.216403379791586"><ele>35.0</ele><time>2026-04-08T13:51:41.002Z</time></trkpt><trkpt lat="39.26456572109188" lon="9.21659299786722"><ele>35.0</ele><time>2026-04-08T13:51:42.002Z</time></trkpt><trkpt lat="39.26453368876606" lon="9.21678264417997"><ele>35.5</ele><time>2026-04-08T13:51:43Z</time></trkpt><trkpt lat="39.264503381402754" lon="9.216962452034295"><ele>36.0</ele><time>2026-04-08T13:51:44Z</time></trkpt><trkpt lat="39.26447356624113" lon="9.217139339785671"><ele>36.5</ele><time>2026-04-08T13:51:45Z</time></trkpt><trkpt lat="39.26444432548546" lon="9.217304697786775"><ele>37.0</ele><time>2026-04-08T13:51:46Z</time></trkpt><trkpt lat="39.26441225930839" lon="9.217476197114484"><ele>37.75</ele><time>2026-04-08T13:51:47Z</time></trkpt><trkpt lat="39.26438059868079" lon="9.217646978066654"><ele>38.5</ele><time>2026-04-08T13:51:48Z</time></trkpt><trkpt lat="39.2643495431992" lon="9.217817389386406"><ele>39.25</ele><time>2026-04-08T13:51:49Z</time></trkpt><trkpt lat="39.264322786361646" lon="9.217975754425177"><ele>40.0</ele><time>2026-04-08T13:51:50Z</time></trkpt><trkpt lat="39.26429911624308" lon="9.218115850097158"><ele>41.0</ele><time>2026-04-08T13:51:51Z</time></trkpt><trkpt lat="39.264273782151406" lon="9.218269627182128"><ele>42.0</ele><time>2026-04-08T13:51:52Z</time></trkpt><trkpt lat="39.26426418650405" lon="9.21843195429041"><ele>43.0</ele><time>2026-04-08T13:51:53Z</time></trkpt><trkpt lat="39.26423557914242" lon="9.218581658234235"><ele>44.0</ele><time>2026-04-08T13:51:54Z</time></trkpt><trkpt lat="39.264197015300944" lon="9.218705971649797"><ele>44.0</ele><time>2026-04-08T13:51:55Z</time></trkpt><trkpt lat="39.264176669690684" lon="9.218817052719135"><ele>44.0</ele><time>2026-04-08T13:51:56Z</time></trkpt><trkpt lat="39.26415740250057" lon="9.218923969309813"><ele>44.0</ele><time>2026-04-08T13:51:57Z</time></trkpt><trkpt lat="39.26415310090594" lon="9.219038790887977"><ele>44.0</ele><time>2026-04-08T13:51:58Z</time></trkpt><trkpt lat="39.26412983921324" lon="9.219138005039923"><ele>44.0</ele><time>2026-04-08T13:51:59Z</time></trkpt><trkpt lat="39.264111768803104" lon="9.219216198663187"><ele>44.0</ele><time>2026-04-08T13:52:00Z</time></trkpt><trkpt lat="39.26411024469268" lon="9.219311738206592"><ele>44.83333333333333</ele><time>2026-04-08T13:52:01Z</time></trkpt><trkpt lat="39.264102371066144" lon="9.219404036415966"><ele>45.666666666666664</ele><time>2026-04-08T13:52:02Z</time></trkpt><trkpt lat="39.26409624863212" lon="9.219515533904932"><ele>46.5</ele><time>2026-04-08T13:52:04Z</time></trkpt><trkpt lat="39.26403925689494" lon="9.219609311915947"><ele>47.33333333333333</ele><time>2026-04-08T13:52:36.001Z</time></trkpt><trkpt lat="39.26395668436293" lon="9.219695262156458"><ele>48.166666666666664</ele><time>2026-04-08T13:52:38.001Z</time></trkpt><trkpt lat="39.26390299526868" lon="9.219763342567948"><ele>49.0</ele><time>2026-04-08T13:52:41.001Z</time></trkpt><trkpt lat="39.26394303984442" lon="9.219912370216331"><ele>49.285714285714285</ele><time>2026-04-08T13:52:44.001Z</time></trkpt><trkpt lat="39.26394828630541" lon="9.22000896527433"><ele>49.57142857142857</ele><time>2026-04-08T13:52:45.001Z</time></trkpt><trkpt lat="39.26396987457434" lon="9.220098578038659"><ele>49.85714285714286</ele><time>2026-04-08T13:52:46.001Z</time></trkpt><trkpt lat="39.26397261368291" lon="9.220199086614972"><ele>50.14285714285714</ele><time>2026-04-08T13:52:47.001Z</time></trkpt><trkpt lat="39.26395583068417" lon="9.220296643969123"><ele>50.42857142857143</ele><time>2026-04-08T13:52:48.001Z</time></trkpt><trkpt lat="39.26393695139281" lon="9.220389100069436"><ele>50.714285714285715</ele><time>2026-04-08T13:52:49.001Z</time></trkpt><trkpt lat="39.26392219651967" lon="9.2204765568294"><ele>51.0</ele><time>2026-04-08T13:52:50.001Z</time></trkpt><trkpt lat="39.26390780876344" lon="9.220558635426514"><ele>51.8</ele><time>2026-04-08T13:52:51.001Z</time></trkpt><trkpt lat="39.26388354954468" lon="9.22069756331322"><ele>52.599999999999994</ele><time>2026-04-08T13:52:53.001Z</time></trkpt><trkpt lat="39.26385451014422" lon="9.220808378161525"><ele>53.4</ele><time>2026-04-08T13:52:55.001Z</time></trkpt><trkpt lat="39.26382793221268" lon="9.220958955726443"><ele>54.2</ele><time>2026-04-08T13:52:57.001Z</time></trkpt><trkpt lat="39.263811320855694" lon="9.221076953956393"><ele>55.0</ele><time>2026-04-08T13:52:58.001Z</time></trkpt><trkpt lat="39.26379142334297" lon="9.221207529700637"><ele>55.0</ele><time>2026-04-08T13:52:59.001Z</time></trkpt><trkpt lat="39.26376925594694" lon="9.221334726437876"><ele>55.0</ele><time>2026-04-08T13:53:00.001Z</time></trkpt><trkpt lat="39.26374809174284" lon="9.221457121455359"><ele>55.0</ele><time>2026-04-08T13:53:01.001Z</time></trkpt><trkpt lat="39.26372405310923" lon="9.221601166403724"><ele>55.0</ele><time>2026-04-08T13:53:02.001Z</time></trkpt><trkpt lat="39.263701183687225" lon="9.221743169853012"><ele>55.0</ele><time>2026-04-08T13:53:03.001Z</time></trkpt><trkpt lat="39.26367722898724" lon="9.221889552825262"><ele>56.75</ele><time>2026-04-08T13:53:04.001Z</time></trkpt><trkpt lat="39.263648069042276" lon="9.222047442893517"><ele>58.5</ele><time>2026-04-08T13:53:05.001Z</time></trkpt><trkpt lat="39.26362124108924" lon="9.222201916588567"><ele>60.25</ele><time>2026-04-08T13:53:06.001Z</time></trkpt><trkpt lat="39.263594691095186" lon="9.222358512683368"><ele>62.0</ele><time>2026-04-08T13:53:07.001Z</time></trkpt><trkpt lat="39.26356746061628" lon="9.222515859012333"><ele>62.75</ele><time>2026-04-08T13:53:08.001Z</time></trkpt><trkpt lat="39.26353736873876" lon="9.22267024298791"><ele>63.5</ele><time>2026-04-08T13:53:09.001Z</time></trkpt><trkpt lat="39.263508402863586" lon="9.222824514865886"><ele>64.25</ele><time>2026-04-08T13:53:10.001Z</time></trkpt><trkpt lat="39.2634823157113" lon="9.222977032637521"><ele>65.0</ele><time>2026-04-08T13:53:11.001Z</time></trkpt><trkpt lat="39.263456007613826" lon="9.223121940618775"><ele>65.2</ele><time>2026-04-08T13:53:12.001Z</time></trkpt><trkpt lat="39.263433755398246" lon="9.223250330037176"><ele>65.4</ele><time>2026-04-08T13:53:13.001Z</time></trkpt><trkpt lat="39.26341312768825" lon="9.22336598875089"><ele>65.6</ele><time>2026-04-08T13:53:14.001Z</time></trkpt><trkpt lat="39.26339597960239" lon="9.223483396045538"><ele>65.8</ele><time>2026-04-08T13:53:15.001Z</time></trkpt><trkpt lat="39.26339015819899" lon="9.223596717072617"><ele>66.0</ele><time>2026-04-08T13:53:16.001Z</time></trkpt><trkpt lat="39.26337130945971" lon="9.223696966645909"><ele>66.0</ele><time>2026-04-08T13:53:17.001Z</time></trkpt><trkpt lat="39.26339467818139" lon="9.223811772655543"><ele>66.0</ele><time>2026-04-08T13:53:18.001Z</time></trkpt><trkpt lat="39.26345215502024" lon="9.223904523714515"><ele>66.0</ele><time>2026-04-08T13:53:19.001Z</time></trkpt><trkpt lat="39.263537133189196" lon="9.223972875291983"><ele>66.0</ele><time>2026-04-08T13:53:20.001Z</time></trkpt><trkpt lat="39.26360508543668" lon="9.224067621984128"><ele>66.0</ele><time>2026-04-08T13:53:21.001Z</time></trkpt><trkpt lat="39.26370086534773" lon="9.224116724648175"><ele>65.39999999999999</ele><time>2026-04-08T13:53:22.001Z</time></trkpt><trkpt lat="39.263764820361835" lon="9.224202203818349"><ele>64.8</ele><time>2026-04-08T13:53:23.001Z</time></trkpt><trkpt lat="39.26383403288724" lon="9.224271963846254"><ele>64.19999999999999</ele><time>2026-04-08T13:53:24.001Z</time></trkpt><trkpt lat="39.26387468737843" lon="9.224369511798818"><ele>63.599999999999994</ele><time>2026-04-08T13:53:25.001Z</time></trkpt><trkpt lat="39.26390437141266" lon="9.224490577690613"><ele>63.0</ele><time>2026-04-08T13:53:26.001Z</time></trkpt><trkpt lat="39.26390261754934" lon="9.224630232420784"><ele>63.0</ele><time>2026-04-08T13:53:27.001Z</time></trkpt><trkpt lat="39.26391524390275" lon="9.224784231364751"><ele>63.0</ele><time>2026-04-08T13:53:28.001Z</time></trkpt><trkpt lat="39.26392555494524" lon="9.22494977294826"><ele>63.0</ele><time>2026-04-08T13:53:29.001Z</time></trkpt><trkpt lat="39.26393174312169" lon="9.225107289807484"><ele>63.0</ele><time>2026-04-08T13:53:30.001Z</time></trkpt><trkpt lat="39.26393744558187" lon="9.22526307795751"><ele>62.5</ele><time>2026-04-08T13:53:31.001Z</time></trkpt><trkpt lat="39.26394302893553" lon="9.225420959100635"><ele>62.0</ele><time>2026-04-08T13:53:32.001Z</time></trkpt><trkpt lat="39.26396422946573" lon="9.225579173815634"><ele>61.5</ele><time>2026-04-08T13:53:33.001Z</time></trkpt><trkpt lat="39.26396245922353" lon="9.225738530490975"><ele>61.0</ele><time>2026-04-08T13:53:34.001Z</time></trkpt><trkpt lat="39.26396650869184" lon="9.225892820777446"><ele>60.25</ele><time>2026-04-08T13:53:35.001Z</time></trkpt><trkpt lat="39.26396759095818" lon="9.226046834793214"><ele>59.5</ele><time>2026-04-08T13:53:36.001Z</time></trkpt><trkpt lat="39.263970115100626" lon="9.226199004126086"><ele>58.75</ele><time>2026-04-08T13:53:37.001Z</time></trkpt><trkpt lat="39.26396911434713" lon="9.22636634808197"><ele>58.0</ele><time>2026-04-08T13:53:38.001Z</time></trkpt><trkpt lat="39.263942609195965" lon="9.226529456132896"><ele>57.75</ele><time>2026-04-08T13:53:39.001Z</time></trkpt><trkpt lat="39.26394403584066" lon="9.226670823568215"><ele>57.5</ele><time>2026-04-08T13:53:40.001Z</time></trkpt><trkpt lat="39.263933651436794" lon="9.226811675366358"><ele>57.25</ele><time>2026-04-08T13:53:41.001Z</time></trkpt><trkpt lat="39.26392355312536" lon="9.226962063122155"><ele>57.0</ele><time>2026-04-08T13:53:42.001Z</time></trkpt><trkpt lat="39.26391212903753" lon="9.227117303776946"><ele>57.0</ele><time>2026-04-08T13:53:43.001Z</time></trkpt><trkpt lat="39.263900293100114" lon="9.227272569115444"><ele>57.0</ele><time>2026-04-08T13:53:44.001Z</time></trkpt><trkpt lat="39.263895029335565" lon="9.22742341919752"><ele>57.0</ele><time>2026-04-08T13:53:45.001Z</time></trkpt><trkpt lat="39.26389579281768" lon="9.227571616333138"><ele>57.0</ele><time>2026-04-08T13:53:46.001Z</time></trkpt><trkpt lat="39.263885914774235" lon="9.227718229035391"><ele>56.75</ele><time>2026-04-08T13:53:47.001Z</time></trkpt><trkpt lat="39.26390958050076" lon="9.227872503206402"><ele>56.5</ele><time>2026-04-08T13:53:48.001Z</time></trkpt><trkpt lat="39.263961254727334" lon="9.22802704559928"><ele>56.25</ele><time>2026-04-08T13:53:49Z</time></trkpt><trkpt lat="39.263984152592904" lon="9.228196289847082"><ele>56.0</ele><time>2026-04-08T13:53:50Z</time></trkpt><trkpt lat="39.2640405144785" lon="9.22835293432447"><ele>56.0</ele><time>2026-04-08T13:53:51Z</time></trkpt><trkpt lat="39.26407539392044" lon="9.22851655383759"><ele>56.0</ele><time>2026-04-08T13:53:52Z</time></trkpt><trkpt lat="39.26411894739579" lon="9.228673495318285"><ele>56.0</ele><time>2026-04-08T13:53:53Z</time></trkpt><trkpt lat="39.264157621116055" lon="9.228827749239517"><ele>56.0</ele><time>2026-04-08T13:53:54Z</time></trkpt><trkpt lat="39.26419186321373" lon="9.2289804423041"><ele>55.0</ele><time>2026-04-08T13:53:55Z</time></trkpt><trkpt lat="39.264227112604345" lon="9.229128977666814"><ele>54.0</ele><time>2026-04-08T13:53:56Z</time></trkpt><trkpt lat="39.26427123560412" lon="9.22929200984231"><ele>53.0</ele><time>2026-04-08T13:53:57Z</time></trkpt><trkpt lat="39.2643077857573" lon="9.229446683755963"><ele>52.0</ele><time>2026-04-08T13:53:58Z</time></trkpt><trkpt lat="39.26434684953708" lon="9.229610128659369"><ele>52.0</ele><time>2026-04-08T13:53:59Z</time></trkpt><trkpt lat="39.26438771285528" lon="9.22977012090453"><ele>52.0</ele><time>2026-04-08T13:54:00Z</time></trkpt><trkpt lat="39.26442908067358" lon="9.229940383173663"><ele>52.0</ele><time>2026-04-08T13:54:01Z</time></trkpt><trkpt lat="39.2644714181307" lon="9.230118045912926"><ele>52.0</ele><time>2026-04-08T13:54:02Z</time></trkpt><trkpt lat="39.26451408740895" lon="9.230292894977474"><ele>51.5</ele><time>2026-04-08T13:54:03Z</time></trkpt><trkpt lat="39.26455951832176" lon="9.230468929151145"><ele>51.0</ele><time>2026-04-08T13:54:04Z</time></trkpt><trkpt lat="39.26460353701227" lon="9.230637916182378"><ele>50.5</ele><time>2026-04-08T13:54:05Z</time></trkpt><trkpt lat="39.26463347709834" lon="9.230819503887108"><ele>50.0</ele><time>2026-04-08T13:54:06Z</time></trkpt><trkpt lat="39.264677294915394" lon="9.230994854363177"><ele>50.0</ele><time>2026-04-08T13:54:07Z</time></trkpt><trkpt lat="39.26471839299992" lon="9.23115582359399"><ele>50.0</ele><time>2026-04-08T13:54:08Z</time></trkpt><trkpt lat="39.264758765721496" lon="9.231323144460452"><ele>50.0</ele><time>2026-04-08T13:54:09Z</time></trkpt><trkpt lat="39.26479636404255" lon="9.231489464510386"><ele>50.0</ele><time>2026-04-08T13:54:10Z</time></trkpt><trkpt lat="39.2648336517663" lon="9.231656124707648"><ele>49.25</ele><time>2026-04-08T13:54:11Z</time></trkpt><trkpt lat="39.26485837107177" lon="9.231836922789732"><ele>48.5</ele><time>2026-04-08T13:54:12Z</time></trkpt><trkpt lat="39.264898414979854" lon="9.23201261956618"><ele>47.75</ele><time>2026-04-08T13:54:13Z</time></trkpt><trkpt lat="39.264939681091015" lon="9.232190035217108"><ele>47.0</ele><time>2026-04-08T13:54:14Z</time></trkpt><trkpt lat="39.26499458296982" lon="9.232361129257091"><ele>46.75</ele><time>2026-04-08T13:54:15Z</time></trkpt><trkpt lat="39.265034313465534" lon="9.232542988990518"><ele>46.5</ele><time>2026-04-08T13:54:16Z</time></trkpt><trkpt lat="39.265077758847134" lon="9.23271493677557"><ele>46.25</ele><time>2026-04-08T13:54:17Z</time></trkpt><trkpt lat="39.26512110011916" lon="9.232886390913363"><ele>46.0</ele><time>2026-04-08T13:54:18Z</time></trkpt><trkpt lat="39.26517728320489" lon="9.2330565817825"><ele>45.8</ele><time>2026-04-08T13:54:19Z</time></trkpt><trkpt lat="39.26519850317631" lon="9.233193610930948"><ele>45.599999999999994</ele><time>2026-04-08T13:54:20Z</time></trkpt><trkpt lat="39.26522741245678" lon="9.23331838093931"><ele>45.4</ele><time>2026-04-08T13:54:21Z</time></trkpt><trkpt lat="39.26525659529166" lon="9.233433055755203"><ele>45.2</ele><time>2026-04-08T13:54:22Z</time></trkpt><trkpt lat="39.265288197076096" lon="9.233569417086553"><ele>45.0</ele><time>2026-04-08T13:54:23Z</time></trkpt><trkpt lat="39.265311196803964" lon="9.233714901374643"><ele>45.0</ele><time>2026-04-08T13:54:24Z</time></trkpt><trkpt lat="39.26532306201292" lon="9.233859266227029"><ele>45.0</ele><time>2026-04-08T13:54:25Z</time></trkpt><trkpt lat="39.26531762933313" lon="9.234002152375892"><ele>45.0</ele><time>2026-04-08T13:54:26Z</time></trkpt><trkpt lat="39.26530020474585" lon="9.234150799620705"><ele>45.0</ele><time>2026-04-08T13:54:27Z</time></trkpt><trkpt lat="39.26526821659335" lon="9.23430070713397"><ele>45.25</ele><time>2026-04-08T13:54:28Z</time></trkpt><trkpt lat="39.26523546651558" lon="9.234456227186149"><ele>45.5</ele><time>2026-04-08T13:54:29Z</time></trkpt><trkpt lat="39.2652076278531" lon="9.234607630020356"><ele>45.75</ele><time>2026-04-08T13:54:30Z</time></trkpt><trkpt lat="39.265187314049776" lon="9.23475417258594"><ele>46.0</ele><time>2026-04-08T13:54:31Z</time></trkpt><trkpt lat="39.265166539802586" lon="9.234900713859965"><ele>46.0</ele><time>2026-04-08T13:54:32Z</time></trkpt><trkpt lat="39.26512696503851" lon="9.235039591617598"><ele>46.0</ele><time>2026-04-08T13:54:33Z</time></trkpt><trkpt lat="39.26510373383321" lon="9.235180774343151"><ele>46.0</ele><time>2026-04-08T13:54:34Z</time></trkpt><trkpt lat="39.26508343188106" lon="9.235313054818619"><ele>46.0</ele><time>2026-04-08T13:54:35Z</time></trkpt><trkpt lat="39.2650765143958" lon="9.235429688901323"><ele>46.0</ele><time>2026-04-08T13:54:36Z</time></trkpt><trkpt lat="39.265089205281996" lon="9.235517456982135"><ele>46.0</ele><time>2026-04-08T13:54:37.001Z</time></trkpt><trkpt lat="39.265088249202066" lon="9.23561576680338"><ele>46.0</ele><time>2026-04-08T13:54:39.001Z</time></trkpt><trkpt lat="39.265083765161265" lon="9.23570248641927"><ele>46.0</ele><time>2026-04-08T13:54:44.001Z</time></trkpt><trkpt lat="39.2650502636372" lon="9.235846462366204"><ele>46.0</ele><time>2026-04-08T13:54:46.001Z</time></trkpt><trkpt lat="39.26505526660522" lon="9.235993599525223"><ele>46.0</ele><time>2026-04-08T13:54:48.001Z</time></trkpt><trkpt lat="39.265052007149265" lon="9.236130653628342"><ele>46.0</ele><time>2026-04-08T13:54:50.001Z</time></trkpt><trkpt lat="39.265051495351855" lon="9.236218401218729"><ele>46.0</ele><time>2026-04-08T13:54:51.001Z</time></trkpt><trkpt lat="39.26501445011781" lon="9.236295243584832"><ele>46.0</ele><time>2026-04-08T13:54:52.001Z</time></trkpt><trkpt lat="39.2649860040036" lon="9.23637617254804"><ele>46.0</ele><time>2026-04-08T13:54:53.001Z</time></trkpt><trkpt lat="39.26493764728917" lon="9.23646386513581"><ele>46.0</ele><time>2026-04-08T13:54:54.001Z</time></trkpt><trkpt lat="39.26486844459974" lon="9.236593758032049"><ele>46.0</ele><time>2026-04-08T13:54:55.001Z</time></trkpt><trkpt lat="39.264810285250626" lon="9.236693036833472"><ele>46.0</ele><time>2026-04-08T13:54:56.001Z</time></trkpt><trkpt lat="39.26478400711343" lon="9.236784081101126"><ele>46.0</ele><time>2026-04-08T13:54:57.001Z</time></trkpt><trkpt lat="39.26478014159141" lon="9.236875629769099"><ele>46.0</ele><time>2026-04-08T13:54:58.001Z</time></trkpt><trkpt lat="39.264774936020665" lon="9.236983635171997"><ele>46.0</ele><time>2026-04-08T13:54:59.001Z</time></trkpt><trkpt lat="39.26481020543371" lon="9.237099440500215"><ele>46.0</ele><time>2026-04-08T13:55:00.001Z</time></trkpt><trkpt lat="39.264875027695105" lon="9.23719572937474"><ele>46.0</ele><time>2026-04-08T13:55:01.001Z</time></trkpt><trkpt lat="39.26494471553313" lon="9.237310457317397"><ele>46.0</ele><time>2026-04-08T13:55:02.001Z</time></trkpt><trkpt lat="39.26499518466437" lon="9.237438675304928"><ele>46.0</ele><time>2026-04-08T13:55:03.001Z</time></trkpt><trkpt lat="39.26504011433713" lon="9.23754144139067"><ele>46.0</ele><time>2026-04-08T13:55:04.001Z</time></trkpt><trkpt lat="39.265085704136034" lon="9.237617787240731"><ele>46.0</ele><time>2026-04-08T13:55:05.001Z</time></trkpt><trkpt lat="39.265090755134224" lon="9.237710780971783"><ele>46.0</ele><time>2026-04-08T13:55:06.001Z</time></trkpt><trkpt lat="39.26505504739573" lon="9.237814808166707"><ele>46.0</ele><time>2026-04-08T13:55:07.001Z</time></trkpt><trkpt lat="39.265029373037194" lon="9.237921473064365"><ele>46.0</ele><time>2026-04-08T13:55:08.001Z</time></trkpt><trkpt lat="39.26500492931761" lon="9.23802893494073"><ele>46.0</ele><time>2026-04-08T13:55:09.001Z</time></trkpt><trkpt lat="39.2649807684653" lon="9.238135153208557"><ele>46.0</ele><time>2026-04-08T13:55:10.001Z</time></trkpt><trkpt lat="39.26495197158152" lon="9.238256466110329"><ele>46.0</ele><time>2026-04-08T13:55:11.001Z</time></trkpt><trkpt lat="39.26492077715501" lon="9.23838028525921"><ele>46.0</ele><time>2026-04-08T13:55:12.001Z</time></trkpt><trkpt lat="39.26489440192781" lon="9.238512921010468"><ele>45.75</ele><time>2026-04-08T13:55:13.001Z</time></trkpt><trkpt lat="39.26484246449824" lon="9.238638244765399"><ele>45.5</ele><time>2026-04-08T13:55:14.001Z</time></trkpt><trkpt lat="39.264806396244786" lon="9.238789588665236"><ele>45.25</ele><time>2026-04-08T13:55:15.001Z</time></trkpt><trkpt lat="39.26475108743099" lon="9.23894679558309"><ele>45.0</ele><time>2026-04-08T13:55:16.001Z</time></trkpt><trkpt lat="39.264696331227036" lon="9.239102321847863"><ele>44.5</ele><time>2026-04-08T13:55:17.001Z</time></trkpt><trkpt lat="39.264650245484965" lon="9.239238441141586"><ele>44.0</ele><time>2026-04-08T13:55:18.001Z</time></trkpt><trkpt lat="39.264608941100775" lon="9.239372761208692"><ele>43.5</ele><time>2026-04-08T13:55:19.001Z</time></trkpt><trkpt lat="39.26455845158274" lon="9.239511281934156"><ele>43.0</ele><time>2026-04-08T13:55:20.001Z</time></trkpt><trkpt lat="39.26450687308136" lon="9.23964328131955"><ele>43.0</ele><time>2026-04-08T13:55:21.001Z</time></trkpt><trkpt lat="39.264473275101004" lon="9.239761134880192"><ele>43.0</ele><time>2026-04-08T13:55:22.001Z</time></trkpt><trkpt lat="39.26444701425589" lon="9.23987123160844"><ele>43.0</ele><time>2026-04-08T13:55:23.001Z</time></trkpt><trkpt lat="39.26443185399189" lon="9.239983428582772"><ele>43.0</ele><time>2026-04-08T13:55:24.001Z</time></trkpt><trkpt lat="39.264422203560585" lon="9.240113853330548"><ele>43.0</ele><time>2026-04-08T13:55:25.001Z</time></trkpt><trkpt lat="39.26442463181317" lon="9.240257066240305"><ele>43.0</ele><time>2026-04-08T13:55:26.001Z</time></trkpt><trkpt lat="39.264420744568554" lon="9.24040238115407"><ele>43.0</ele><time>2026-04-08T13:55:27.001Z</time></trkpt><trkpt lat="39.26441573819831" lon="9.240548201687657"><ele>43.0</ele><time>2026-04-08T13:55:28.001Z</time></trkpt><trkpt lat="39.26440848924037" lon="9.240692784315009"><ele>43.0</ele><time>2026-04-08T13:55:29.001Z</time></trkpt><trkpt lat="39.26439818311266" lon="9.240837822558927"><ele>43.2</ele><time>2026-04-08T13:55:30.001Z</time></trkpt><trkpt lat="39.26438223221029" lon="9.2409818129256"><ele>43.4</ele><time>2026-04-08T13:55:31.001Z</time></trkpt><trkpt lat="39.26436152574272" lon="9.241124261468332"><ele>43.6</ele><time>2026-04-08T13:55:32.001Z</time></trkpt><trkpt lat="39.26433428664231" lon="9.241255604957317"><ele>43.800000000000004</ele><time>2026-04-08T13:55:33.001Z</time></trkpt><trkpt lat="39.26430054708549" lon="9.241397525420947"><ele>44.0</ele><time>2026-04-08T13:55:34.001Z</time></trkpt><trkpt lat="39.26426957395813" lon="9.241539958141793"><ele>44.0</ele><time>2026-04-08T13:55:35.001Z</time></trkpt><trkpt lat="39.26423322890213" lon="9.241666218171499"><ele>44.0</ele><time>2026-04-08T13:55:36.001Z</time></trkpt><trkpt lat="39.264202616610426" lon="9.24178215853127"><ele>44.0</ele><time>2026-04-08T13:55:37.001Z</time></trkpt><trkpt lat="39.26416705452996" lon="9.241915874730067"><ele>44.0</ele><time>2026-04-08T13:55:38.001Z</time></trkpt><trkpt lat="39.26413192409766" lon="9.242064914872651"><ele>44.0</ele><time>2026-04-08T13:55:39.001Z</time></trkpt><trkpt lat="39.26409297265141" lon="9.242236417114194"><ele>44.2</ele><time>2026-04-08T13:55:40.001Z</time></trkpt><trkpt lat="39.2640522079192" lon="9.242388335617669"><ele>44.400000000000006</ele><time>2026-04-08T13:55:41.001Z</time></trkpt><trkpt lat="39.26401479696792" lon="9.242518820282427"><ele>44.6</ele><time>2026-04-08T13:55:42.001Z</time></trkpt><trkpt lat="39.26398476684407" lon="9.24265174940343"><ele>44.8</ele><time>2026-04-08T13:55:43.001Z</time></trkpt><trkpt lat="39.26394780014687" lon="9.24278520053218"><ele>45.0</ele><time>2026-04-08T13:55:44.001Z</time></trkpt><trkpt lat="39.26389869363341" lon="9.242895322138805"><ele>45.0</ele><time>2026-04-08T13:55:45.001Z</time></trkpt><trkpt lat="39.263894194800834" lon="9.24301291847551"><ele>45.0</ele><time>2026-04-08T13:55:46.001Z</time></trkpt><trkpt lat="39.26386895894807" lon="9.243141966108933"><ele>45.0</ele><time>2026-04-08T13:55:47.001Z</time></trkpt><trkpt lat="39.26385214997243" lon="9.243270901087609"><ele>45.0</ele><time>2026-04-08T13:55:48.001Z</time></trkpt><trkpt lat="39.26382430833085" lon="9.243381963930597"><ele>45.0</ele><time>2026-04-08T13:55:49.001Z</time></trkpt><trkpt lat="39.263801037056396" lon="9.24347031896621"><ele>45.0</ele><time>2026-04-08T13:55:50.001Z</time></trkpt><trkpt lat="39.263753892468415" lon="9.243629561106323"><ele>45.0</ele><time>2026-04-08T13:55:52.001Z</time></trkpt><trkpt lat="39.26373782635779" lon="9.243718514660648"><ele>45.0</ele><time>2026-04-08T13:55:53.001Z</time></trkpt><trkpt lat="39.26372116225563" lon="9.243810779356858"><ele>45.0</ele><time>2026-04-08T13:55:54.001Z</time></trkpt><trkpt lat="39.263785143378" lon="9.243923557682661"><ele>45.0</ele><time>2026-04-08T13:55:55Z</time></trkpt><trkpt lat="39.26380847826806" lon="9.244041273534727"><ele>45.0</ele><time>2026-04-08T13:55:56Z</time></trkpt><trkpt lat="39.26383963413285" lon="9.24416612611092"><ele>45.0</ele><time>2026-04-08T13:55:57Z</time></trkpt><trkpt lat="39.2638685468009" lon="9.244298627812952"><ele>45.0</ele><time>2026-04-08T13:55:58Z</time></trkpt><trkpt lat="39.26389366585855" lon="9.244437221308322"><ele>45.0</ele><time>2026-04-08T13:55:59Z</time></trkpt><trkpt lat="39.263918129635414" lon="9.244559771727985"><ele>45.0</ele><time>2026-04-08T13:56:00Z</time></trkpt><trkpt lat="39.2639283049819" lon="9.244685028507268"><ele>45.25</ele><time>2026-04-08T13:56:01Z</time></trkpt><trkpt lat="39.26397041139966" lon="9.24481317766285"><ele>45.5</ele><time>2026-04-08T13:56:02Z</time></trkpt><trkpt lat="39.26397819510344" lon="9.244968054521273"><ele>45.75</ele><time>2026-04-08T13:56:03Z</time></trkpt><trkpt lat="39.26401660749263" lon="9.245129327991497"><ele>46.0</ele><time>2026-04-08T13:56:04Z</time></trkpt><trkpt lat="39.26404654053475" lon="9.245278612689274"><ele>46.0</ele><time>2026-04-08T13:56:05Z</time></trkpt><trkpt lat="39.26407007377756" lon="9.24540669029357"><ele>46.0</ele><time>2026-04-08T13:56:06Z</time></trkpt><trkpt lat="39.26407037533639" lon="9.245542481402104"><ele>46.0</ele><time>2026-04-08T13:56:07Z</time></trkpt><trkpt lat="39.26407452835663" lon="9.245691553620928"><ele>46.0</ele><time>2026-04-08T13:56:08Z</time></trkpt><trkpt lat="39.26410873623728" lon="9.245833816754685"><ele>46.0</ele><time>2026-04-08T13:56:09Z</time></trkpt><trkpt lat="39.264155910359314" lon="9.24597211867988"><ele>46.199999999999996</ele><time>2026-04-08T13:56:10Z</time></trkpt><trkpt lat="39.264181215242445" lon="9.246106122694442"><ele>46.4</ele><time>2026-04-08T13:56:11Z</time></trkpt><trkpt lat="39.2642029910671" lon="9.2462153279554"><ele>46.6</ele><time>2026-04-08T13:56:12Z</time></trkpt><trkpt lat="39.26422143058662" lon="9.246345826059045"><ele>46.8</ele><time>2026-04-08T13:56:13Z</time></trkpt><trkpt lat="39.26425964371078" lon="9.246470891262444"><ele>47.0</ele><time>2026-04-08T13:56:14Z</time></trkpt><trkpt lat="39.26428644904815" lon="9.246594119448632"><ele>47.0</ele><time>2026-04-08T13:56:15Z</time></trkpt><trkpt lat="39.26430450430655" lon="9.246695883796717"><ele>47.0</ele><time>2026-04-08T13:56:16Z</time></trkpt><trkpt lat="39.26431604977451" lon="9.246831149881196"><ele>47.0</ele><time>2026-04-08T13:56:18Z</time></trkpt><trkpt lat="39.264348469592726" lon="9.246913904053551"><ele>47.0</ele><time>2026-04-08T13:56:20Z</time></trkpt><trkpt lat="39.26437609571539" lon="9.246989248475579"><ele>47.0</ele><time>2026-04-08T13:56:21Z</time></trkpt><trkpt lat="39.264374497781326" lon="9.247118924967262"><ele>47.0</ele><time>2026-04-08T13:56:22Z</time></trkpt><trkpt lat="39.264411307843176" lon="9.247246657284245"><ele>47.5</ele><time>2026-04-08T13:56:23Z</time></trkpt><trkpt lat="39.26442838868347" lon="9.247400485750868"><ele>48.0</ele><time>2026-04-08T13:56:24Z</time></trkpt><trkpt lat="39.264462314037026" lon="9.247548375476775"><ele>48.5</ele><time>2026-04-08T13:56:25Z</time></trkpt><trkpt lat="39.26449191814585" lon="9.247707847630055"><ele>49.0</ele><time>2026-04-08T13:56:26Z</time></trkpt><trkpt lat="39.26452285515326" lon="9.247875758203804"><ele>49.0</ele><time>2026-04-08T13:56:27Z</time></trkpt><trkpt lat="39.264559367117485" lon="9.248050933647937"><ele>49.0</ele><time>2026-04-08T13:56:28Z</time></trkpt><trkpt lat="39.264591006241204" lon="9.248222476787912"><ele>49.0</ele><time>2026-04-08T13:56:29Z</time></trkpt><trkpt lat="39.26461917778103" lon="9.248377835462295"><ele>49.0</ele><time>2026-04-08T13:56:30Z</time></trkpt><trkpt lat="39.26464162491868" lon="9.248519317038719"><ele>49.0</ele><time>2026-04-08T13:56:31Z</time></trkpt><trkpt lat="39.264666625383654" lon="9.248655255002356"><ele>49.0</ele><time>2026-04-08T13:56:32Z</time></trkpt><trkpt lat="39.26469409293981" lon="9.2488014081097"><ele>49.0</ele><time>2026-04-08T13:56:33Z</time></trkpt><trkpt lat="39.264723563215725" lon="9.248944178556949"><ele>49.0</ele><time>2026-04-08T13:56:34Z</time></trkpt><trkpt lat="39.264752508233656" lon="9.249077649775076"><ele>49.0</ele><time>2026-04-08T13:56:35Z</time></trkpt><trkpt lat="39.264780014501035" lon="9.249218761102032"><ele>49.5</ele><time>2026-04-08T13:56:36Z</time></trkpt><trkpt lat="39.264811141834585" lon="9.249371082600344"><ele>50.0</ele><time>2026-04-08T13:56:37Z</time></trkpt><trkpt lat="39.264839140828684" lon="9.249520711166303"><ele>50.5</ele><time>2026-04-08T13:56:38Z</time></trkpt><trkpt lat="39.26486830969966" lon="9.249665664088853"><ele>51.0</ele><time>2026-04-08T13:56:39Z</time></trkpt><trkpt lat="39.26489585715081" lon="9.24981243102399"><ele>51.4</ele><time>2026-04-08T13:56:40Z</time></trkpt><trkpt lat="39.264919694865796" lon="9.24995627093033"><ele>51.8</ele><time>2026-04-08T13:56:41Z</time></trkpt><trkpt lat="39.26494775386886" lon="9.250096441659855"><ele>52.199999999999996</ele><time>2026-04-08T13:56:42Z</time></trkpt><trkpt lat="39.26497513337836" lon="9.250237687801443"><ele>52.599999999999994</ele><time>2026-04-08T13:56:43Z</time></trkpt><trkpt lat="39.26499758809403" lon="9.250376184478649"><ele>53.0</ele><time>2026-04-08T13:56:44Z</time></trkpt><trkpt lat="39.265022497162626" lon="9.250509523558927"><ele>53.4</ele><time>2026-04-08T13:56:45Z</time></trkpt><trkpt lat="39.26505016141925" lon="9.250648004739457"><ele>53.8</ele><time>2026-04-08T13:56:46Z</time></trkpt><trkpt lat="39.265075118906054" lon="9.250781748254724"><ele>54.2</ele><time>2026-04-08T13:56:47Z</time></trkpt><trkpt lat="39.26510167273744" lon="9.250922332051942"><ele>54.6</ele><time>2026-04-08T13:56:48Z</time></trkpt><trkpt lat="39.26513203052501" lon="9.251071073231852"><ele>55.0</ele><time>2026-04-08T13:56:49Z</time></trkpt><trkpt lat="39.26516578182291" lon="9.251235802983013"><ele>55.0</ele><time>2026-04-08T13:56:50Z</time></trkpt><trkpt lat="39.26519701213112" lon="9.251404614727893"><ele>55.0</ele><time>2026-04-08T13:56:51Z</time></trkpt><trkpt lat="39.26522925912429" lon="9.251571740629052"><ele>55.0</ele><time>2026-04-08T13:56:52Z</time></trkpt><trkpt lat="39.26526165255346" lon="9.251732377263478"><ele>55.0</ele><time>2026-04-08T13:56:53Z</time></trkpt><trkpt lat="39.265296187090385" lon="9.251895420928236"><ele>55.5</ele><time>2026-04-08T13:56:54Z</time></trkpt><trkpt lat="39.26532872793107" lon="9.252063033666738"><ele>56.0</ele><time>2026-04-08T13:56:55Z</time></trkpt><trkpt lat="39.2653610032963" lon="9.252231120646986"><ele>56.5</ele><time>2026-04-08T13:56:56Z</time></trkpt><trkpt lat="39.26539387494038" lon="9.252397975163413"><ele>57.0</ele><time>2026-04-08T13:56:57Z</time></trkpt><trkpt lat="39.26542914222554" lon="9.252565647903117"><ele>57.5</ele><time>2026-04-08T13:56:58Z</time></trkpt><trkpt lat="39.26546179756452" lon="9.252732693915561"><ele>58.0</ele><time>2026-04-08T13:56:59Z</time></trkpt><trkpt lat="39.2654934706357" lon="9.25290129749233"><ele>58.5</ele><time>2026-04-08T13:57:00Z</time></trkpt><trkpt lat="39.265526394256874" lon="9.253069403248034"><ele>59.0</ele><time>2026-04-08T13:57:01Z</time></trkpt><trkpt lat="39.26555983046187" lon="9.25323968752639"><ele>59.5</ele><time>2026-04-08T13:57:02.001Z</time></trkpt><trkpt lat="39.2655968630618" lon="9.253420581687543"><ele>60.0</ele><time>2026-04-08T13:57:03.001Z</time></trkpt><trkpt lat="39.26563264871511" lon="9.25360881577699"><ele>60.5</ele><time>2026-04-08T13:57:04.001Z</time></trkpt><trkpt lat="39.26566788744541" lon="9.25380051119639"><ele>61.0</ele><time>2026-04-08T13:57:05.001Z</time></trkpt><trkpt lat="39.2657007150075" lon="9.253975580700752"><ele>61.75</ele><time>2026-04-08T13:57:06.001Z</time></trkpt><trkpt lat="39.265734996521175" lon="9.254140495248414"><ele>62.5</ele><time>2026-04-08T13:57:07.001Z</time></trkpt><trkpt lat="39.26577008409764" lon="9.25430897656578"><ele>63.25</ele><time>2026-04-08T13:57:08.001Z</time></trkpt><trkpt lat="39.26580459973396" lon="9.254486520886212"><ele>64.0</ele><time>2026-04-08T13:57:09.001Z</time></trkpt><trkpt lat="39.26583787219231" lon="9.254663481682332"><ele>65.25</ele><time>2026-04-08T13:57:10.001Z</time></trkpt><trkpt lat="39.265870103803834" lon="9.254838519012715"><ele>66.5</ele><time>2026-04-08T13:57:11.001Z</time></trkpt><trkpt lat="39.26590544204879" lon="9.255015603724061"><ele>67.75</ele><time>2026-04-08T13:57:12.001Z</time></trkpt><trkpt lat="39.26594176271131" lon="9.255195989320777"><ele>69.0</ele><time>2026-04-08T13:57:13.001Z</time></trkpt><trkpt lat="39.26597665098448" lon="9.255383758738786"><ele>69.0</ele><time>2026-04-08T13:57:14.001Z</time></trkpt><trkpt lat="39.2660104273212" lon="9.255576126798719"><ele>69.0</ele><time>2026-04-08T13:57:15.001Z</time></trkpt><trkpt lat="39.266045601241004" lon="9.255764457855786"><ele>69.0</ele><time>2026-04-08T13:57:16.001Z</time></trkpt><trkpt lat="39.26608361070634" lon="9.255963803543002"><ele>71.0</ele><time>2026-04-08T13:57:17.001Z</time></trkpt><trkpt lat="39.2661223886757" lon="9.256170184753028"><ele>73.0</ele><time>2026-04-08T13:57:18.001Z</time></trkpt><trkpt lat="39.266164406395056" lon="9.2563792505801"><ele>75.0</ele><time>2026-04-08T13:57:19.001Z</time></trkpt><trkpt lat="39.266184384711735" lon="9.256583187008731"><ele>75.5</ele><time>2026-04-08T13:57:20.001Z</time></trkpt><trkpt lat="39.26621966094074" lon="9.256778036462723"><ele>76.0</ele><time>2026-04-08T13:57:21.001Z</time></trkpt><trkpt lat="39.26625515171381" lon="9.25696122868732"><ele>76.5</ele><time>2026-04-08T13:57:22.001Z</time></trkpt><trkpt lat="39.26630062483456" lon="9.257119563060597"><ele>77.0</ele><time>2026-04-08T13:57:23.001Z</time></trkpt><trkpt lat="39.26632983941746" lon="9.257275502951616"><ele>77.25</ele><time>2026-04-08T13:57:24.001Z</time></trkpt><trkpt lat="39.26635767233568" lon="9.257425028216568"><ele>77.5</ele><time>2026-04-08T13:57:25.001Z</time></trkpt><trkpt lat="39.26637928584743" lon="9.257581923920274"><ele>77.75</ele><time>2026-04-08T13:57:26.001Z</time></trkpt><trkpt lat="39.266416867187175" lon="9.257741339978363"><ele>78.0</ele><time>2026-04-08T13:57:27.001Z</time></trkpt><trkpt lat="39.26644916561739" lon="9.257890749511214"><ele>78.0</ele><time>2026-04-08T13:57:28.001Z</time></trkpt><trkpt lat="39.26648533350855" lon="9.2580400914832"><ele>78.0</ele><time>2026-04-08T13:57:29.001Z</time></trkpt><trkpt lat="39.266527273363636" lon="9.258208231180086"><ele>78.0</ele><time>2026-04-08T13:57:30.001Z</time></trkpt><trkpt lat="39.26655700225812" lon="9.258363521862108"><ele>78.0</ele><time>2026-04-08T13:57:31.001Z</time></trkpt><trkpt lat="39.266587634978094" lon="9.258484026575218"><ele>78.4</ele><time>2026-04-08T13:57:32.001Z</time></trkpt><trkpt lat="39.266610504246344" lon="9.25857842671737"><ele>78.8</ele><time>2026-04-08T13:57:33.001Z</time></trkpt><trkpt lat="39.26662123777465" lon="9.258697758852726"><ele>79.2</ele><time>2026-04-08T13:57:35.001Z</time></trkpt><trkpt lat="39.266537150090166" lon="9.258829174073217"><ele>79.6</ele><time>2026-04-08T13:57:37.001Z</time></trkpt><trkpt lat="39.26649161158859" lon="9.25894843868923"><ele>80.0</ele><time>2026-04-08T13:57:38.001Z</time></trkpt><trkpt lat="39.26645172105442" lon="9.259049529336568"><ele>79.33333333333334</ele><time>2026-04-08T13:57:39.001Z</time></trkpt><trkpt lat="39.266413975835235" lon="9.259142101152866"><ele>78.66666666666667</ele><time>2026-04-08T13:57:40.001Z</time></trkpt><trkpt lat="39.266375834741815" lon="9.25924395128615"><ele>78.0</ele><time>2026-04-08T13:57:41.001Z</time></trkpt><trkpt lat="39.26635339330806" lon="9.259353993173269"><ele>77.33333333333333</ele><time>2026-04-08T13:57:42.001Z</time></trkpt><trkpt lat="39.2663137781983" lon="9.259459536428045"><ele>76.66666666666666</ele><time>2026-04-08T13:57:43.001Z</time></trkpt><trkpt lat="39.26629116498994" lon="9.259573485382461"><ele>76.0</ele><time>2026-04-08T13:57:44.001Z</time></trkpt><trkpt lat="39.26626196771095" lon="9.25969112391563"><ele>76.0</ele><time>2026-04-08T13:57:45.001Z</time></trkpt><trkpt lat="39.26623441998348" lon="9.259808678933155"><ele>76.0</ele><time>2026-04-08T13:57:46.001Z</time></trkpt><trkpt lat="39.26620681779101" lon="9.259934597344715"><ele>76.0</ele><time>2026-04-08T13:57:47.001Z</time></trkpt><trkpt lat="39.26617633311448" lon="9.260066487950189"><ele>76.0</ele><time>2026-04-08T13:57:48.001Z</time></trkpt><trkpt lat="39.26613768227168" lon="9.260196685247248"><ele>76.0</ele><time>2026-04-08T13:57:49.001Z</time></trkpt><trkpt lat="39.266097585750735" lon="9.260326864567592"><ele>76.0</ele><time>2026-04-08T13:57:50.001Z</time></trkpt><trkpt lat="39.2660617343028" lon="9.260465219179961"><ele>76.0</ele><time>2026-04-08T13:57:51.001Z</time></trkpt><trkpt lat="39.2660370072382" lon="9.260606470828145"><ele>76.0</ele><time>2026-04-08T13:57:52.001Z</time></trkpt><trkpt lat="39.26601534641033" lon="9.260743748517426"><ele>76.0</ele><time>2026-04-08T13:57:53.001Z</time></trkpt><trkpt lat="39.26598824929396" lon="9.260882215244399"><ele>76.0</ele><time>2026-04-08T13:57:54.001Z</time></trkpt><trkpt lat="39.26595877215487" lon="9.261019454799511"><ele>75.8</ele><time>2026-04-08T13:57:55.001Z</time></trkpt><trkpt lat="39.265938036619296" lon="9.261152188943703"><ele>75.6</ele><time>2026-04-08T13:57:56.001Z</time></trkpt><trkpt lat="39.265905655938035" lon="9.261289798753792"><ele>75.4</ele><time>2026-04-08T13:57:57.001Z</time></trkpt><trkpt lat="39.26588383020765" lon="9.261400086534053"><ele>75.2</ele><time>2026-04-08T13:57:58.001Z</time></trkpt><trkpt lat="39.26587766398247" lon="9.261525750926275"><ele>75.0</ele><time>2026-04-08T13:57:59.001Z</time></trkpt><trkpt lat="39.265862892107904" lon="9.26165739091633"><ele>75.0</ele><time>2026-04-08T13:58:00.001Z</time></trkpt><trkpt lat="39.265838605062655" lon="9.26178694572661"><ele>75.0</ele><time>2026-04-08T13:58:01Z</time></trkpt><trkpt lat="39.26580612641228" lon="9.261919993624714"><ele>75.0</ele><time>2026-04-08T13:58:02Z</time></trkpt><trkpt lat="39.265773025338774" lon="9.26206343831088"><ele>75.0</ele><time>2026-04-08T13:58:03Z</time></trkpt><trkpt lat="39.26574526957659" lon="9.262192848350645"><ele>75.0</ele><time>2026-04-08T13:58:04Z</time></trkpt><trkpt lat="39.26572703033653" lon="9.26229994467598"><ele>75.2</ele><time>2026-04-08T13:58:05Z</time></trkpt><trkpt lat="39.26571267348333" lon="9.262412534737965"><ele>75.4</ele><time>2026-04-08T13:58:06Z</time></trkpt><trkpt lat="39.26569624532067" lon="9.262535616443367"><ele>75.6</ele><time>2026-04-08T13:58:07Z</time></trkpt><trkpt lat="39.265686727625535" lon="9.262672642506034"><ele>75.8</ele><time>2026-04-08T13:58:08Z</time></trkpt><trkpt lat="39.26568919802778" lon="9.262813032889099"><ele>76.0</ele><time>2026-04-08T13:58:09Z</time></trkpt><trkpt lat="39.2657034468145" lon="9.262955419525927"><ele>76.0</ele><time>2026-04-08T13:58:10Z</time></trkpt><trkpt lat="39.26571446255338" lon="9.263105596108092"><ele>76.0</ele><time>2026-04-08T13:58:11Z</time></trkpt><trkpt lat="39.265717151266934" lon="9.263245616211401"><ele>76.0</ele><time>2026-04-08T13:58:12Z</time></trkpt><trkpt lat="39.26570766262068" lon="9.263377028766994"><ele>76.0</ele><time>2026-04-08T13:58:13Z</time></trkpt><trkpt lat="39.26569407178219" lon="9.263513941071004"><ele>76.0</ele><time>2026-04-08T13:58:14Z</time></trkpt><trkpt lat="39.26567347562776" lon="9.263662920687686"><ele>75.8</ele><time>2026-04-08T13:58:15Z</time></trkpt><trkpt lat="39.26565696463477" lon="9.26379709523567"><ele>75.6</ele><time>2026-04-08T13:58:16Z</time></trkpt><trkpt lat="39.265636285585764" lon="9.263920638297936"><ele>75.4</ele><time>2026-04-08T13:58:17Z</time></trkpt><trkpt lat="39.265612688525316" lon="9.264037755227168"><ele>75.2</ele><time>2026-04-08T13:58:18Z</time></trkpt><trkpt lat="39.2655907068445" lon="9.264165726947796"><ele>75.0</ele><time>2026-04-08T13:58:19Z</time></trkpt><trkpt lat="39.26557051745447" lon="9.264309437421536"><ele>74.6</ele><time>2026-04-08T13:58:20Z</time></trkpt><trkpt lat="39.26555321481217" lon="9.264467146968856"><ele>74.2</ele><time>2026-04-08T13:58:21Z</time></trkpt><trkpt lat="39.2655450347796" lon="9.264633187146476"><ele>73.8</ele><time>2026-04-08T13:58:22Z</time></trkpt><trkpt lat="39.265543002989105" lon="9.264775499011554"><ele>73.4</ele><time>2026-04-08T13:58:23Z</time></trkpt><trkpt lat="39.26554313496741" lon="9.26488594403539"><ele>73.0</ele><time>2026-04-08T13:58:24Z</time></trkpt><trkpt lat="39.26554114415103" lon="9.264994680834294"><ele>72.5</ele><time>2026-04-08T13:58:25Z</time></trkpt><trkpt lat="39.265534671878136" lon="9.265088175028295"><ele>72.0</ele><time>2026-04-08T13:58:26Z</time></trkpt><trkpt lat="39.2655147887336" lon="9.265180303049185"><ele>71.5</ele><time>2026-04-08T13:58:27Z</time></trkpt><trkpt lat="39.26549243827452" lon="9.265279728589025"><ele>71.0</ele><time>2026-04-08T13:58:28Z</time></trkpt><trkpt lat="39.265482405022624" lon="9.265398465715483"><ele>70.5</ele><time>2026-04-08T13:58:29Z</time></trkpt><trkpt lat="39.26547955118401" lon="9.265520129318988"><ele>70.0</ele><time>2026-04-08T13:58:30Z</time></trkpt><trkpt lat="39.26547644499199" lon="9.265659689104469"><ele>69.2</ele><time>2026-04-08T13:58:31Z</time></trkpt><trkpt lat="39.26547105695019" lon="9.265806223222377"><ele>68.4</ele><time>2026-04-08T13:58:32Z</time></trkpt><trkpt lat="39.26546497479823" lon="9.26593867370123"><ele>67.6</ele><time>2026-04-08T13:58:33Z</time></trkpt><trkpt lat="39.26545706335136" lon="9.26606620418053"><ele>66.8</ele><time>2026-04-08T13:58:34Z</time></trkpt><trkpt lat="39.265451465707706" lon="9.266205187123395"><ele>66.0</ele><time>2026-04-08T13:58:35Z</time></trkpt><trkpt lat="39.26544439015987" lon="9.26634367456385"><ele>65.6</ele><time>2026-04-08T13:58:36Z</time></trkpt><trkpt lat="39.265436208027594" lon="9.266453870997367"><ele>65.19999999999999</ele><time>2026-04-08T13:58:37Z</time></trkpt><trkpt lat="39.26542738494662" lon="9.266574715222287"><ele>64.80000000000001</ele><time>2026-04-08T13:58:38Z</time></trkpt><trkpt lat="39.26542013523003" lon="9.26670953900356"><ele>64.4</ele><time>2026-04-08T13:58:39Z</time></trkpt><trkpt lat="39.2654094893275" lon="9.266838609411682"><ele>64.0</ele><time>2026-04-08T13:58:40Z</time></trkpt><trkpt lat="39.2653923337527" lon="9.266981310077266"><ele>64.0</ele><time>2026-04-08T13:58:41Z</time></trkpt><trkpt lat="39.26537662598574" lon="9.267117269913726"><ele>64.0</ele><time>2026-04-08T13:58:42Z</time></trkpt><trkpt lat="39.26535873682345" lon="9.267237795353884"><ele>64.0</ele><time>2026-04-08T13:58:43Z</time></trkpt><trkpt lat="39.26533507059146" lon="9.26735095698502"><ele>64.0</ele><time>2026-04-08T13:58:44Z</time></trkpt><trkpt lat="39.26530939572442" lon="9.26747441261563"><ele>64.0</ele><time>2026-04-08T13:58:45Z</time></trkpt><trkpt lat="39.26528217512214" lon="9.267608776672178"><ele>63.5</ele><time>2026-04-08T13:58:46Z</time></trkpt><trkpt lat="39.26525180751614" lon="9.267761614506748"><ele>63.0</ele><time>2026-04-08T13:58:47Z</time></trkpt><trkpt lat="39.26519894852601" lon="9.267890814785451"><ele>62.5</ele><time>2026-04-08T13:58:48Z</time></trkpt><trkpt lat="39.26514925177718" lon="9.268027079373063"><ele>62.0</ele><time>2026-04-08T13:58:49Z</time></trkpt><trkpt lat="39.265091404264524" lon="9.268157426787926"><ele>61.5</ele><time>2026-04-08T13:58:50Z</time></trkpt><trkpt lat="39.26505014548623" lon="9.268291230702767"><ele>61.0</ele><time>2026-04-08T13:58:51Z</time></trkpt><trkpt lat="39.2649845600487" lon="9.268412816493449"><ele>60.5</ele><time>2026-04-08T13:58:52Z</time></trkpt><trkpt lat="39.26492840638619" lon="9.268540888711291"><ele>60.0</ele><time>2026-04-08T13:58:53Z</time></trkpt><trkpt lat="39.264869564210464" lon="9.268661515850479"><ele>60.0</ele><time>2026-04-08T13:58:54Z</time></trkpt><trkpt lat="39.264834740627265" lon="9.268776560649378"><ele>60.0</ele><time>2026-04-08T13:58:55Z</time></trkpt><trkpt lat="39.26480235120762" lon="9.268901247078944"><ele>60.0</ele><time>2026-04-08T13:58:56Z</time></trkpt><trkpt lat="39.26477807661146" lon="9.269039181929859"><ele>60.0</ele><time>2026-04-08T13:58:57Z</time></trkpt><trkpt lat="39.26475929312887" lon="9.269177143213621"><ele>60.0</ele><time>2026-04-08T13:58:58Z</time></trkpt><trkpt lat="39.264744297449575" lon="9.269324979908353"><ele>60.0</ele><time>2026-04-08T13:58:59Z</time></trkpt><trkpt lat="39.26474592055357" lon="9.269454489934143"><ele>60.0</ele><time>2026-04-08T13:59:00Z</time></trkpt><trkpt lat="39.26475040489077" lon="9.269572869648975"><ele>60.0</ele><time>2026-04-08T13:59:01Z</time></trkpt><trkpt lat="39.26475772375422" lon="9.269714987537336"><ele>60.0</ele><time>2026-04-08T13:59:02Z</time></trkpt><trkpt lat="39.2647738367189" lon="9.269840086816783"><ele>60.0</ele><time>2026-04-08T13:59:03Z</time></trkpt><trkpt lat="39.26480011389121" lon="9.269954960618273"><ele>60.0</ele><time>2026-04-08T13:59:04Z</time></trkpt><trkpt lat="39.264834873820774" lon="9.270049364528404"><ele>60.0</ele><time>2026-04-08T13:59:05Z</time></trkpt><trkpt lat="39.264850718643245" lon="9.270150085465247"><ele>60.0</ele><time>2026-04-08T13:59:06Z</time></trkpt><trkpt lat="39.264875524637944" lon="9.270231584881786"><ele>60.0</ele><time>2026-04-08T13:59:07Z</time></trkpt><trkpt lat="39.264905992775454" lon="9.270333325601898"><ele>60.0</ele><time>2026-04-08T13:59:08Z</time></trkpt><trkpt lat="39.26494127968463" lon="9.270457664046319"><ele>60.0</ele><time>2026-04-08T13:59:09.001Z</time></trkpt><trkpt lat="39.264983131893466" lon="9.270593046226356"><ele>60.25</ele><time>2026-04-08T13:59:10.001Z</time></trkpt><trkpt lat="39.26504923790286" lon="9.270715806988951"><ele>60.5</ele><time>2026-04-08T13:59:11.001Z</time></trkpt><trkpt lat="39.265106366589" lon="9.270834682247305"><ele>60.75</ele><time>2026-04-08T13:59:12.001Z</time></trkpt><trkpt lat="39.2651774384836" lon="9.270961728978829"><ele>61.0</ele><time>2026-04-08T13:59:13.001Z</time></trkpt><trkpt lat="39.26524990261877" lon="9.271094677700535"><ele>61.0</ele><time>2026-04-08T13:59:14.001Z</time></trkpt><trkpt lat="39.26532968529959" lon="9.271200614863426"><ele>60.99999999999999</ele><time>2026-04-08T13:59:15.001Z</time></trkpt><trkpt lat="39.265404160093716" lon="9.271305901121085"><ele>60.99999999999999</ele><time>2026-04-08T13:59:16.001Z</time></trkpt><trkpt lat="39.265479160145446" lon="9.271403553997267"><ele>61.0</ele><time>2026-04-08T13:59:17.001Z</time></trkpt><trkpt lat="39.26555698897142" lon="9.271493028624791"><ele>61.0</ele><time>2026-04-08T13:59:18.001Z</time></trkpt><trkpt lat="39.26564044975642" lon="9.271568450261439"><ele>61.199999999999996</ele><time>2026-04-08T13:59:19.001Z</time></trkpt><trkpt lat="39.2657013445131" lon="9.271652954467239"><ele>61.39999999999999</ele><time>2026-04-08T13:59:20.001Z</time></trkpt><trkpt lat="39.26575194777319" lon="9.271733089737587"><ele>61.6</ele><time>2026-04-08T13:59:21.001Z</time></trkpt><trkpt lat="39.26578984591229" lon="9.27182232079586"><ele>61.8</ele><time>2026-04-08T13:59:22.001Z</time></trkpt><trkpt lat="39.26583636702555" lon="9.271941749990999"><ele>62.0</ele><time>2026-04-08T13:59:23.001Z</time></trkpt><trkpt lat="39.265895619981045" lon="9.272090432254188"><ele>62.0</ele><time>2026-04-08T13:59:24.001Z</time></trkpt><trkpt lat="39.265950032928" lon="9.272227240528785"><ele>62.0</ele><time>2026-04-08T13:59:25.001Z</time></trkpt><trkpt lat="39.26600300718147" lon="9.272356846632283"><ele>62.0</ele><time>2026-04-08T13:59:26.001Z</time></trkpt><trkpt lat="39.26604844767976" lon="9.272487817992147"><ele>62.0</ele><time>2026-04-08T13:59:27.001Z</time></trkpt><trkpt lat="39.26608845085999" lon="9.272621675793646"><ele>62.0</ele><time>2026-04-08T13:59:28.001Z</time></trkpt><trkpt lat="39.266138456378066" lon="9.272757810029281"><ele>62.0</ele><time>2026-04-08T13:59:29.001Z</time></trkpt><trkpt lat="39.26618520723867" lon="9.272894271790959"><ele>62.0</ele><time>2026-04-08T13:59:30.001Z</time></trkpt><trkpt lat="39.26622510889993" lon="9.273034273142246"><ele>62.0</ele><time>2026-04-08T13:59:31.001Z</time></trkpt><trkpt lat="39.266272187612614" lon="9.27317068856243"><ele>62.0</ele><time>2026-04-08T13:59:32.001Z</time></trkpt><trkpt lat="39.266321277366394" lon="9.273294445259651"><ele>62.0</ele><time>2026-04-08T13:59:33.001Z</time></trkpt><trkpt lat="39.266368599167734" lon="9.273424187656493"><ele>62.0</ele><time>2026-04-08T13:59:34.001Z</time></trkpt><trkpt lat="39.26641298010258" lon="9.273561539420914"><ele>62.0</ele><time>2026-04-08T13:59:35.001Z</time></trkpt><trkpt lat="39.26645688671153" lon="9.273689087715233"><ele>62.0</ele><time>2026-04-08T13:59:36.001Z</time></trkpt><trkpt lat="39.26650495699313" lon="9.273813060784354"><ele>62.2</ele><time>2026-04-08T13:59:37.001Z</time></trkpt><trkpt lat="39.26654785261263" lon="9.273945379028774"><ele>62.400000000000006</ele><time>2026-04-08T13:59:38.001Z</time></trkpt><trkpt lat="39.26658798661483" lon="9.274078050668297"><ele>62.599999999999994</ele><time>2026-04-08T13:59:39.001Z</time></trkpt><trkpt lat="39.266622158557546" lon="9.274186733277165"><ele>62.8</ele><time>2026-04-08T13:59:40.001Z</time></trkpt><trkpt lat="39.266658345010185" lon="9.274284221317243"><ele>63.0</ele><time>2026-04-08T13:59:41.001Z</time></trkpt><trkpt lat="39.26668067043758" lon="9.274360558496163"><ele>63.0</ele><time>2026-04-08T13:59:42.001Z</time></trkpt><trkpt lat="39.266710334591316" lon="9.274447509734895"><ele>63.0</ele><time>2026-04-08T13:59:44.001Z</time></trkpt><trkpt lat="39.266762720374395" lon="9.274575103774662"><ele>63.0</ele><time>2026-04-08T13:59:50.001Z</time></trkpt><trkpt lat="39.266793545145454" lon="9.274662103855308"><ele>63.0</ele><time>2026-04-08T13:59:51.001Z</time></trkpt><trkpt lat="39.26679597253727" lon="9.274746287905563"><ele>63.0</ele><time>2026-04-08T13:59:52.001Z</time></trkpt><trkpt lat="39.266840084205846" lon="9.274846048428289"><ele>63.0</ele><time>2026-04-08T13:59:54.001Z</time></trkpt><trkpt lat="39.266846312658224" lon="9.274929570966522"><ele>62.8</ele><time>2026-04-08T13:59:56.001Z</time></trkpt><trkpt lat="39.26687193420224" lon="9.27503043644885"><ele>62.599999999999994</ele><time>2026-04-08T13:59:58.001Z</time></trkpt><trkpt lat="39.26689710869473" lon="9.275166861633279"><ele>62.400000000000006</ele><time>2026-04-08T14:00:00.001Z</time></trkpt><trkpt lat="39.26688622439724" lon="9.275303589259899"><ele>62.2</ele><time>2026-04-08T14:00:02.001Z</time></trkpt><trkpt lat="39.266872325887334" lon="9.275410978190225"><ele>62.0</ele><time>2026-04-08T14:00:03.001Z</time></trkpt><trkpt lat="39.26685170844052" lon="9.275513078565249"><ele>61.714285714285715</ele><time>2026-04-08T14:00:04.001Z</time></trkpt><trkpt lat="39.26682795486985" lon="9.275615851577532"><ele>61.42857142857143</ele><time>2026-04-08T14:00:05.001Z</time></trkpt><trkpt lat="39.26682115608276" lon="9.275705532481478"><ele>61.142857142857146</ele><time>2026-04-08T14:00:06.001Z</time></trkpt><trkpt lat="39.26679950855254" lon="9.275793246366462"><ele>60.85714285714286</ele><time>2026-04-08T14:00:07Z</time></trkpt><trkpt lat="39.26677918445949" lon="9.275890327311533"><ele>60.57142857142857</ele><time>2026-04-08T14:00:08Z</time></trkpt><trkpt lat="39.26676592548936" lon="9.27598915782531"><ele>60.28571428571429</ele><time>2026-04-08T14:00:09Z</time></trkpt><trkpt lat="39.26675510315313" lon="9.276069471186753"><ele>60.0</ele><time>2026-04-08T14:00:10Z</time></trkpt><trkpt lat="39.26673417160257" lon="9.276158651039236"><ele>60.0</ele><time>2026-04-08T14:00:11Z</time></trkpt><trkpt lat="39.26672955306084" lon="9.276265340586328"><ele>60.0</ele><time>2026-04-08T14:00:12Z</time></trkpt><trkpt lat="39.26673640794885" lon="9.276365363840599"><ele>60.0</ele><time>2026-04-08T14:00:13Z</time></trkpt><trkpt lat="39.266735257898304" lon="9.276467483018916"><ele>60.0</ele><time>2026-04-08T14:00:14Z</time></trkpt><trkpt lat="39.26673048265701" lon="9.276574948139814"><ele>60.0</ele><time>2026-04-08T14:00:15Z</time></trkpt><trkpt lat="39.26671798727048" lon="9.276672270932822"><ele>60.0</ele><time>2026-04-08T14:00:16Z</time></trkpt><trkpt lat="39.26670982130449" lon="9.276766701316873"><ele>60.0</ele><time>2026-04-08T14:00:17Z</time></trkpt><trkpt lat="39.266704309394186" lon="9.276880060740597"><ele>60.0</ele><time>2026-04-08T14:00:18Z</time></trkpt><trkpt lat="39.266705253880176" lon="9.276991168658805"><ele>60.0</ele><time>2026-04-08T14:00:19Z</time></trkpt><trkpt lat="39.26671339585411" lon="9.277094969144299"><ele>60.0</ele><time>2026-04-08T14:00:20Z</time></trkpt><trkpt lat="39.266737156351574" lon="9.277193691244117"><ele>60.0</ele><time>2026-04-08T14:00:21Z</time></trkpt><trkpt lat="39.26677735124112" lon="9.277276918253117"><ele>60.0</ele><time>2026-04-08T14:00:22Z</time></trkpt><trkpt lat="39.26682762234934" lon="9.27735924364897"><ele>60.0</ele><time>2026-04-08T14:00:23Z</time></trkpt><trkpt lat="39.266880667616526" lon="9.277441140711883"><ele>60.0</ele><time>2026-04-08T14:00:24Z</time></trkpt><trkpt lat="39.26691980335923" lon="9.27750520245326"><ele>60.0</ele><time>2026-04-08T14:00:25Z</time></trkpt><trkpt lat="39.26698888497587" lon="9.277577396666358"><ele>60.0</ele><time>2026-04-08T14:00:27Z</time></trkpt><trkpt lat="39.26709519558833" lon="9.277531584104942"><ele>60.0</ele><time>2026-04-08T14:00:29Z</time></trkpt><trkpt lat="39.26716497057509" lon="9.27747161375672"><ele>60.0</ele><time>2026-04-08T14:00:30Z</time></trkpt><trkpt lat="39.26724280856887" lon="9.277408957150685"><ele>60.0</ele><time>2026-04-08T14:00:31Z</time></trkpt><trkpt lat="39.267324701651546" lon="9.277356353155723"><ele>60.0</ele><time>2026-04-08T14:00:32Z</time></trkpt><trkpt lat="39.2674167172686" lon="9.277308559187448"><ele>60.0</ele><time>2026-04-08T14:00:33Z</time></trkpt><trkpt lat="39.26751590201485" lon="9.27729215102365"><ele>60.0</ele><time>2026-04-08T14:00:34Z</time></trkpt><trkpt lat="39.26761272752422" lon="9.277272502911774"><ele>60.0</ele><time>2026-04-08T14:00:35Z</time></trkpt><trkpt lat="39.26769733540172" lon="9.27724796175815"><ele>60.0</ele><time>2026-04-08T14:00:36Z</time></trkpt><trkpt lat="39.267768553919446" lon="9.27719399352574"><ele>60.0</ele><time>2026-04-08T14:00:37Z</time></trkpt><trkpt lat="39.26784205345128" lon="9.277149994295566"><ele>60.0</ele><time>2026-04-08T14:00:38Z</time></trkpt><trkpt lat="39.26790057642666" lon="9.277099334417231"><ele>60.0</ele><time>2026-04-08T14:00:39Z</time></trkpt><trkpt lat="39.2679922522314" lon="9.276997332340699"><ele>60.0</ele><time>2026-04-08T14:00:41Z</time></trkpt><trkpt lat="39.26806306595337" lon="9.27689843267083"><ele>60.0</ele><time>2026-04-08T14:00:43Z</time></trkpt><trkpt lat="39.268082703684996" lon="9.276817595552044"><ele>60.0</ele><time>2026-04-08T14:00:44Z</time></trkpt><trkpt lat="39.26809972867066" lon="9.276723321432085"><ele>60.0</ele><time>2026-04-08T14:00:45Z</time></trkpt><trkpt lat="39.268129885425786" lon="9.276622030302278"><ele>60.0</ele><time>2026-04-08T14:00:46Z</time></trkpt><trkpt lat="39.26815721384709" lon="9.276528257663692"><ele>60.0</ele><time>2026-04-08T14:00:47Z</time></trkpt><trkpt lat="39.26817212343602" lon="9.276447059054627"><ele>60.0</ele><time>2026-04-08T14:00:48Z</time></trkpt><trkpt lat="39.26817004736015" lon="9.276342532279935"><ele>60.0</ele><time>2026-04-08T14:00:49Z</time></trkpt><trkpt lat="39.268162747632616" lon="9.276223801255417"><ele>60.5</ele><time>2026-04-08T14:00:50Z</time></trkpt><trkpt lat="39.26816131940981" lon="9.276111535311244"><ele>61.0</ele><time>2026-04-08T14:00:51Z</time></trkpt><trkpt lat="39.268159846754514" lon="9.27599922565333"><ele>61.5</ele><time>2026-04-08T14:00:52Z</time></trkpt><trkpt lat="39.268158906112994" lon="9.275894933065972"><ele>62.0</ele><time>2026-04-08T14:00:53Z</time></trkpt><trkpt lat="39.26816551164507" lon="9.275797148501274"><ele>62.5</ele><time>2026-04-08T14:00:54Z</time></trkpt><trkpt lat="39.26819678080707" lon="9.275722934040472"><ele>63.0</ele><time>2026-04-08T14:00:55Z</time></trkpt><trkpt lat="39.26825134138264" lon="9.275579014302915"><ele>63.4</ele><time>2026-04-08T14:00:57Z</time></trkpt><trkpt lat="39.26832676388779" lon="9.275559162473362"><ele>63.8</ele><time>2026-04-08T14:00:58Z</time></trkpt><trkpt lat="39.268407248710865" lon="9.275533028622469"><ele>64.2</ele><time>2026-04-08T14:00:59Z</time></trkpt><trkpt lat="39.26852279898445" lon="9.275491158519488"><ele>64.6</ele><time>2026-04-08T14:01:00Z</time></trkpt><trkpt lat="39.268638371711965" lon="9.275448122451957"><ele>65.0</ele><time>2026-04-08T14:01:01Z</time></trkpt><trkpt lat="39.26872637840477" lon="9.27542212463478"><ele>65.0</ele><time>2026-04-08T14:01:02Z</time></trkpt><trkpt lat="39.2688020758029" lon="9.275389907477285"><ele>65.0</ele><time>2026-04-08T14:01:03Z</time></trkpt><trkpt lat="39.268904133879765" lon="9.275280868367535"><ele>65.0</ele><time>2026-04-08T14:01:05Z</time></trkpt><trkpt lat="39.26896294938833" lon="9.275210927574864"><ele>65.0</ele><time>2026-04-08T14:01:06Z</time></trkpt><trkpt lat="39.269028376489075" lon="9.275149378747525"><ele>65.0</ele><time>2026-04-08T14:01:07Z</time></trkpt><trkpt lat="39.26908960224827" lon="9.275071310179111"><ele>65.2</ele><time>2026-04-08T14:01:08Z</time></trkpt><trkpt lat="39.26915841849371" lon="9.274994833536685"><ele>65.4</ele><time>2026-04-08T14:01:09Z</time></trkpt><trkpt lat="39.26923836401825" lon="9.27490242544896"><ele>65.6</ele><time>2026-04-08T14:01:10Z</time></trkpt><trkpt lat="39.26931932323054" lon="9.274811900244108"><ele>65.8</ele><time>2026-04-08T14:01:11Z</time></trkpt><trkpt lat="39.26939926903655" lon="9.27472863366058"><ele>66.0</ele><time>2026-04-08T14:01:12Z</time></trkpt><trkpt lat="39.26948375402655" lon="9.274641420971099"><ele>66.0</ele><time>2026-04-08T14:01:13Z</time></trkpt><trkpt lat="39.269577013888714" lon="9.274552211736237"><ele>66.0</ele><time>2026-04-08T14:01:14Z</time></trkpt><trkpt lat="39.26966556929919" lon="9.274460656921045"><ele>66.0</ele><time>2026-04-08T14:01:15Z</time></trkpt><trkpt lat="39.26974796882492" lon="9.274382566526628"><ele>66.0</ele><time>2026-04-08T14:01:16.001Z</time></trkpt><trkpt lat="39.2698052231405" lon="9.274305823009874"><ele>66.0</ele><time>2026-04-08T14:01:17.001Z</time></trkpt><trkpt lat="39.26987191750602" lon="9.274228046569498"><ele>65.83333333333333</ele><time>2026-04-08T14:01:19.001Z</time></trkpt><trkpt lat="39.26992936907274" lon="9.274289990538064"><ele>65.66666666666667</ele><time>2026-04-08T14:01:23.001Z</time></trkpt><trkpt lat="39.26998145284736" lon="9.274428832958392"><ele>65.5</ele><time>2026-04-08T14:01:25.001Z</time></trkpt><trkpt lat="39.27000286704558" lon="9.274518987037565"><ele>65.33333333333334</ele><time>2026-04-08T14:01:26.001Z</time></trkpt><trkpt lat="39.27003606548263" lon="9.274612545488147"><ele>65.16666666666667</ele><time>2026-04-08T14:01:27.001Z</time></trkpt><trkpt lat="39.27007404338349" lon="9.274729922664477"><ele>65.0</ele><time>2026-04-08T14:01:28.001Z</time></trkpt><trkpt lat="39.270118245104314" lon="9.274857141247033"><ele>65.0</ele><time>2026-04-08T14:01:29.001Z</time></trkpt><trkpt lat="39.27015515943077" lon="9.274999499503815"><ele>65.0</ele><time>2026-04-08T14:01:30.001Z</time></trkpt><trkpt lat="39.270174638504855" lon="9.27515631337471"><ele>65.0</ele><time>2026-04-08T14:01:31.001Z</time></trkpt><trkpt lat="39.27021172195711" lon="9.275294459484849"><ele>65.0</ele><time>2026-04-08T14:01:32.001Z</time></trkpt><trkpt lat="39.27024324018516" lon="9.275435116453355"><ele>65.0</ele><time>2026-04-08T14:01:33.001Z</time></trkpt><trkpt lat="39.27027900771309" lon="9.275580533686616"><ele>65.0</ele><time>2026-04-08T14:01:34.001Z</time></trkpt><trkpt lat="39.27031893771716" lon="9.2757317188385"><ele>65.0</ele><time>2026-04-08T14:01:35.001Z</time></trkpt><trkpt lat="39.270362043106886" lon="9.275882345336354"><ele>65.0</ele><time>2026-04-08T14:01:36.001Z</time></trkpt><trkpt lat="39.27040121609293" lon="9.276024567342878"><ele>65.0</ele><time>2026-04-08T14:01:37.001Z</time></trkpt><trkpt lat="39.2704520286322" lon="9.276152510839006"><ele>65.0</ele><time>2026-04-08T14:01:38.001Z</time></trkpt><trkpt lat="39.27049570854674" lon="9.27628825406547"><ele>65.0</ele><time>2026-04-08T14:01:39.001Z</time></trkpt><trkpt lat="39.27054114467548" lon="9.276428552891067"><ele>65.0</ele><time>2026-04-08T14:01:40.001Z</time></trkpt><trkpt lat="39.27059536591431" lon="9.276552725183679"><ele>65.2</ele><time>2026-04-08T14:01:41.001Z</time></trkpt><trkpt lat="39.27067553495396" lon="9.276654230936836"><ele>65.4</ele><time>2026-04-08T14:01:42.001Z</time></trkpt><trkpt lat="39.27076517393232" lon="9.276719691867232"><ele>65.6</ele><time>2026-04-08T14:01:43.001Z</time></trkpt><trkpt lat="39.27083507766484" lon="9.27677527648444"><ele>65.8</ele><time>2026-04-08T14:01:44.001Z</time></trkpt><trkpt lat="39.270883584856236" lon="9.276836042528329"><ele>66.0</ele><time>2026-04-08T14:01:45.001Z</time></trkpt><trkpt lat="39.27093330772667" lon="9.276996165749484"><ele>66.0</ele><time>2026-04-08T14:01:47.001Z</time></trkpt><trkpt lat="39.270941723400036" lon="9.27709043671996"><ele>66.0</ele><time>2026-04-08T14:01:48.001Z</time></trkpt><trkpt lat="39.270951632238386" lon="9.277176306135539"><ele>66.0</ele><time>2026-04-08T14:01:50.001Z</time></trkpt><trkpt lat="39.270979848934836" lon="9.27725337727569"><ele>66.0</ele><time>2026-04-08T14:02:05.001Z</time></trkpt><trkpt lat="39.271005047150965" lon="9.277336538253897"><ele>66.0</ele><time>2026-04-08T14:02:07.001Z</time></trkpt><trkpt lat="39.27101647002175" lon="9.27745531823588"><ele>66.0</ele><time>2026-04-08T14:02:08.001Z</time></trkpt><trkpt lat="39.27103226662904" lon="9.277578352935175"><ele>65.8</ele><time>2026-04-08T14:02:09.001Z</time></trkpt><trkpt lat="39.27104073301555" lon="9.277709061596788"><ele>65.6</ele><time>2026-04-08T14:02:10.001Z</time></trkpt><trkpt lat="39.27104305678424" lon="9.277821643951281"><ele>65.4</ele><time>2026-04-08T14:02:11.001Z</time></trkpt><trkpt lat="39.27104718144559" lon="9.277948323406541"><ele>65.2</ele><time>2026-04-08T14:02:13Z</time></trkpt><trkpt lat="39.27105155058452" lon="9.278034983124591"><ele>65.0</ele><time>2026-04-08T14:02:16Z</time></trkpt><trkpt lat="39.2710451598771" lon="9.277893510344494"><ele>65.0</ele><time>2026-04-08T14:02:24Z</time></trkpt><trkpt lat="39.27106080291504" lon="9.277719071954603"><ele>65.0</ele><time>2026-04-08T14:02:25Z</time></trkpt><trkpt lat="39.27105296910643" lon="9.277581383153013"><ele>65.0</ele><time>2026-04-08T14:02:26Z</time></trkpt><trkpt lat="39.2710351416019" lon="9.277440738962758"><ele>65.0</ele><time>2026-04-08T14:02:27Z</time></trkpt><trkpt lat="39.271008728917245" lon="9.277313114996502"><ele>65.16666666666667</ele><time>2026-04-08T14:02:28Z</time></trkpt><trkpt lat="39.27098730190219" lon="9.277211291452275"><ele>65.33333333333334</ele><time>2026-04-08T14:02:29Z</time></trkpt><trkpt lat="39.27097737645508" lon="9.277116755031344"><ele>65.5</ele><time>2026-04-08T14:02:30Z</time></trkpt><trkpt lat="39.27096414991456" lon="9.277026235886101"><ele>65.66666666666667</ele><time>2026-04-08T14:02:31Z</time></trkpt><trkpt lat="39.27095362001875" lon="9.276920669549066"><ele>65.83333333333333</ele><time>2026-04-08T14:02:33Z</time></trkpt><trkpt lat="39.27095118345453" lon="9.276832027420147"><ele>66.0</ele><time>2026-04-08T14:02:53Z</time></trkpt><trkpt lat="39.27104505746079" lon="9.276782232729358"><ele>66.0</ele><time>2026-04-08T14:02:55Z</time></trkpt><trkpt lat="39.2711364525681" lon="9.276769856594008"><ele>66.0</ele><time>2026-04-08T14:02:56Z</time></trkpt><trkpt lat="39.271233587069204" lon="9.276746952307072"><ele>66.0</ele><time>2026-04-08T14:02:57Z</time></trkpt><trkpt lat="39.271326663303746" lon="9.276723567867432"><ele>66.0</ele><time>2026-04-08T14:02:58Z</time></trkpt><trkpt lat="39.27141612228878" lon="9.276709107599943"><ele>66.0</ele><time>2026-04-08T14:02:59Z</time></trkpt><trkpt lat="39.271494258794995" lon="9.276728902163335"><ele>66.33333333333333</ele><time>2026-04-08T14:03:00Z</time></trkpt><trkpt lat="39.27157250453249" lon="9.276736562573317"><ele>66.66666666666667</ele><time>2026-04-08T14:03:01Z</time></trkpt><trkpt lat="39.27165870551452" lon="9.276737265663256"><ele>67.0</ele><time>2026-04-08T14:03:02.001Z</time></trkpt><trkpt lat="39.27173751883029" lon="9.276793133719764"><ele>67.33333333333334</ele><time>2026-04-08T14:03:03.001Z</time></trkpt><trkpt lat="39.27182088949201" lon="9.276837439651628"><ele>67.66666666666667</ele><time>2026-04-08T14:03:04.001Z</time></trkpt><trkpt lat="39.271904711037145" lon="9.276870866957694"><ele>68.0</ele><time>2026-04-08T14:03:05.001Z</time></trkpt><trkpt lat="39.271972974158714" lon="9.276927291232374"><ele>68.0</ele><time>2026-04-08T14:03:06.001Z</time></trkpt><trkpt lat="39.27203204564159" lon="9.276958834718688"><ele>68.0</ele><time>2026-04-08T14:03:07.001Z</time></trkpt><trkpt lat="39.27214739251136" lon="9.27695548398017"><ele>68.0</ele><time>2026-04-08T14:03:09.001Z</time></trkpt><trkpt lat="39.27222778878179" lon="9.276912999411396"><ele>68.0</ele><time>2026-04-08T14:03:10.001Z</time></trkpt><trkpt lat="39.27233218371969" lon="9.276840544270776"><ele>68.0</ele><time>2026-04-08T14:03:11.001Z</time></trkpt><trkpt lat="39.27243691227671" lon="9.276789962806443"><ele>68.4</ele><time>2026-04-08T14:03:12.001Z</time></trkpt><trkpt lat="39.27253347739956" lon="9.27673715990063"><ele>68.8</ele><time>2026-04-08T14:03:13.001Z</time></trkpt><trkpt lat="39.27262654909837" lon="9.276671233915053"><ele>69.2</ele><time>2026-04-08T14:03:14.001Z</time></trkpt><trkpt lat="39.272737789715485" lon="9.276633340557735"><ele>69.6</ele><time>2026-04-08T14:03:15.001Z</time></trkpt><trkpt lat="39.27283578757257" lon="9.276593130749362"><ele>70.0</ele><time>2026-04-08T14:03:16.001Z</time></trkpt><trkpt lat="39.27291698999494" lon="9.27654022410134"><ele>70.0</ele><time>2026-04-08T14:03:17.001Z</time></trkpt><trkpt lat="39.27298874755771" lon="9.276511382942804"><ele>70.0</ele><time>2026-04-08T14:03:18.001Z</time></trkpt><trkpt lat="39.27305026687868" lon="9.276474882123273"><ele>70.0</ele><time>2026-04-08T14:03:19.001Z</time></trkpt><trkpt lat="39.27315758132159" lon="9.276443173394497"><ele>70.0</ele><time>2026-04-08T14:03:21.001Z</time></trkpt><trkpt lat="39.27323140831688" lon="9.276400208127347"><ele>70.0</ele><time>2026-04-08T14:03:23.001Z</time></trkpt><trkpt lat="39.27329733184758" lon="9.276369609111795"><ele>70.0</ele><time>2026-04-08T14:03:25.001Z</time></trkpt><trkpt lat="39.27340687757257" lon="9.276343616594266"><ele>70.33333333333333</ele><time>2026-04-08T14:03:27.001Z</time></trkpt><trkpt lat="39.273488976389174" lon="9.276326841246231"><ele>70.66666666666666</ele><time>2026-04-08T14:03:28.001Z</time></trkpt><trkpt lat="39.27357268753082" lon="9.276312963027129"><ele>71.0</ele><time>2026-04-08T14:03:29.001Z</time></trkpt><trkpt lat="39.27366828921314" lon="9.276307917449023"><ele>71.33333333333333</ele><time>2026-04-08T14:03:30.001Z</time></trkpt><trkpt lat="39.2737594225336" lon="9.2763190547217"><ele>71.66666666666667</ele><time>2026-04-08T14:03:31.001Z</time></trkpt><trkpt lat="39.2738369738549" lon="9.276334023077608"><ele>72.0</ele><time>2026-04-08T14:03:32.001Z</time></trkpt><trkpt lat="39.27390047760577" lon="9.276354442173206"><ele>71.83333333333333</ele><time>2026-04-08T14:03:33.001Z</time></trkpt><trkpt lat="39.27397075642358" lon="9.27636351791388"><ele>71.66666666666667</ele><time>2026-04-08T14:03:34.001Z</time></trkpt><trkpt lat="39.27405159576329" lon="9.276373376382955"><ele>71.5</ele><time>2026-04-08T14:03:35.001Z</time></trkpt><trkpt lat="39.2741323347027" lon="9.276365846579504"><ele>71.33333333333334</ele><time>2026-04-08T14:03:36.001Z</time></trkpt><trkpt lat="39.27420399071049" lon="9.276380178082475"><ele>71.16666666666667</ele><time>2026-04-08T14:03:37.001Z</time></trkpt><trkpt lat="39.27427045851196" lon="9.276392107850125"><ele>71.0</ele><time>2026-04-08T14:03:38.001Z</time></trkpt><trkpt lat="39.27436798575245" lon="9.276355342290243"><ele>71.0</ele><time>2026-04-08T14:03:40.001Z</time></trkpt><trkpt lat="39.27444139670497" lon="9.276346234624304"><ele>71.0</ele><time>2026-04-08T14:03:42.001Z</time></trkpt><trkpt lat="39.27452390817452" lon="9.276316830834332"><ele>71.0</ele><time>2026-04-08T14:03:44.001Z</time></trkpt><trkpt lat="39.2746055406908" lon="9.27628774026923"><ele>71.0</ele><time>2026-04-08T14:03:46.001Z</time></trkpt><trkpt lat="39.27467430430466" lon="9.276263771388393"><ele>71.0</ele><time>2026-04-08T14:03:48.001Z</time></trkpt><trkpt lat="39.27477748010323" lon="9.276213432322791"><ele>71.0</ele><time>2026-04-08T14:03:50.001Z</time></trkpt><trkpt lat="39.27488228974816" lon="9.276181861967896"><ele>70.83333333333334</ele><time>2026-04-08T14:03:52.001Z</time></trkpt><trkpt lat="39.2749853105732" lon="9.276168713370598"><ele>70.66666666666667</ele><time>2026-04-08T14:03:54.001Z</time></trkpt><trkpt lat="39.275050282209925" lon="9.2761603733627"><ele>70.5</ele><time>2026-04-08T14:03:55.001Z</time></trkpt><trkpt lat="39.275126566916256" lon="9.276137040370733"><ele>70.33333333333333</ele><time>2026-04-08T14:03:56.001Z</time></trkpt><trkpt lat="39.275202615883614" lon="9.276157938416263"><ele>70.16666666666666</ele><time>2026-04-08T14:03:57.001Z</time></trkpt><trkpt lat="39.27527433183653" lon="9.276183194272983"><ele>70.0</ele><time>2026-04-08T14:03:58.001Z</time></trkpt><trkpt lat="39.275341777000904" lon="9.276179056669074"><ele>70.0</ele><time>2026-04-08T14:03:59.001Z</time></trkpt><trkpt lat="39.275421978397645" lon="9.276170969683758"><ele>70.0</ele><time>2026-04-08T14:04:00.001Z</time></trkpt><trkpt lat="39.27550742806872" lon="9.276176783266711"><ele>70.0</ele><time>2026-04-08T14:04:01.001Z</time></trkpt><trkpt lat="39.27560315177861" lon="9.276204412987099"><ele>70.0</ele><time>2026-04-08T14:04:02.001Z</time></trkpt><trkpt lat="39.27572754485074" lon="9.276254016598614"><ele>70.0</ele><time>2026-04-08T14:04:03.001Z</time></trkpt><trkpt lat="39.275848659954825" lon="9.276306469922304"><ele>70.5</ele><time>2026-04-08T14:04:04.001Z</time></trkpt><trkpt lat="39.27598461005793" lon="9.276361145461141"><ele>71.0</ele><time>2026-04-08T14:04:05.001Z</time></trkpt><trkpt lat="39.27612840300114" lon="9.276419113162394"><ele>71.5</ele><time>2026-04-08T14:04:06.001Z</time></trkpt><trkpt lat="39.27624861434885" lon="9.27647976757368"><ele>72.0</ele><time>2026-04-08T14:04:07.001Z</time></trkpt><trkpt lat="39.27637311896369" lon="9.276483234558633"><ele>72.2</ele><time>2026-04-08T14:04:08.001Z</time></trkpt><trkpt lat="39.27649528085955" lon="9.276502697177902"><ele>72.4</ele><time>2026-04-08T14:04:09.001Z</time></trkpt><trkpt lat="39.276608822385384" lon="9.27651605892394"><ele>72.6</ele><time>2026-04-08T14:04:10.001Z</time></trkpt><trkpt lat="39.2767154515491" lon="9.276548768745226"><ele>72.8</ele><time>2026-04-08T14:04:11.001Z</time></trkpt><trkpt lat="39.276799994700845" lon="9.276607416104424"><ele>73.0</ele><time>2026-04-08T14:04:12.001Z</time></trkpt><trkpt lat="39.276877476354876" lon="9.276673585674533"><ele>73.0</ele><time>2026-04-08T14:04:13.001Z</time></trkpt><trkpt lat="39.27695764188711" lon="9.276748026781299"><ele>73.0</ele><time>2026-04-08T14:04:14.001Z</time></trkpt><trkpt lat="39.27704339396531" lon="9.276823077341644"><ele>73.0</ele><time>2026-04-08T14:04:15.002Z</time></trkpt><trkpt lat="39.27713389968124" lon="9.276879736703794"><ele>73.0</ele><time>2026-04-08T14:04:16.002Z</time></trkpt><trkpt lat="39.27721005764156" lon="9.27693296806391"><ele>73.0</ele><time>2026-04-08T14:04:17.002Z</time></trkpt><trkpt lat="39.27730418175448" lon="9.27697517865823"><ele>72.8</ele><time>2026-04-08T14:04:18.002Z</time></trkpt><trkpt lat="39.277405106352454" lon="9.277015081943143"><ele>72.6</ele><time>2026-04-08T14:04:19Z</time></trkpt><trkpt lat="39.27750077991709" lon="9.277039977111652"><ele>72.4</ele><time>2026-04-08T14:04:20Z</time></trkpt><trkpt lat="39.27760690161491" lon="9.277045845435557"><ele>72.2</ele><time>2026-04-08T14:04:21Z</time></trkpt><trkpt lat="39.277714729171045" lon="9.277045875204369"><ele>72.0</ele><time>2026-04-08T14:04:22Z</time></trkpt><trkpt lat="39.27781532108228" lon="9.277048165651747"><ele>72.0</ele><time>2026-04-08T14:04:23Z</time></trkpt><trkpt lat="39.277899418686275" lon="9.277038764669701"><ele>72.0</ele><time>2026-04-08T14:04:24Z</time></trkpt><trkpt lat="39.2779642053918" lon="9.277032258706633"><ele>72.0</ele><time>2026-04-08T14:04:25Z</time></trkpt><trkpt lat="39.278029145946554" lon="9.277039265125495"><ele>72.0</ele><time>2026-04-08T14:04:26Z</time></trkpt><trkpt lat="39.2780919497079" lon="9.277012617988078"><ele>72.0</ele><time>2026-04-08T14:04:27Z</time></trkpt><trkpt lat="39.278172706737" lon="9.276967584989958"><ele>72.0</ele><time>2026-04-08T14:04:28Z</time></trkpt><trkpt lat="39.27827301050752" lon="9.276895570500725"><ele>72.6</ele><time>2026-04-08T14:04:29Z</time></trkpt><trkpt lat="39.2783839554159" lon="9.276812562692438"><ele>73.2</ele><time>2026-04-08T14:04:30Z</time></trkpt><trkpt lat="39.27848856543768" lon="9.276726939042392"><ele>73.8</ele><time>2026-04-08T14:04:31Z</time></trkpt><trkpt lat="39.27856865251171" lon="9.27666464296161"><ele>74.4</ele><time>2026-04-08T14:04:32Z</time></trkpt><trkpt lat="39.27864519132164" lon="9.276626632555509"><ele>75.0</ele><time>2026-04-08T14:04:33Z</time></trkpt><trkpt lat="39.2787305193779" lon="9.27659786881595"><ele>75.0</ele><time>2026-04-08T14:04:34Z</time></trkpt><trkpt lat="39.27883010842516" lon="9.276570447001463"><ele>75.0</ele><time>2026-04-08T14:04:35Z</time></trkpt><trkpt lat="39.278930427850526" lon="9.276550493219409"><ele>75.0</ele><time>2026-04-08T14:04:36Z</time></trkpt><trkpt lat="39.279021500633476" lon="9.276572803421349"><ele>75.0</ele><time>2026-04-08T14:04:37Z</time></trkpt><trkpt lat="39.279107404219715" lon="9.276589750391432"><ele>75.0</ele><time>2026-04-08T14:04:38Z</time></trkpt><trkpt lat="39.27920606383678" lon="9.276620668799868"><ele>75.4</ele><time>2026-04-08T14:04:39Z</time></trkpt><trkpt lat="39.279317124318574" lon="9.2766688527674"><ele>75.8</ele><time>2026-04-08T14:04:40Z</time></trkpt><trkpt lat="39.279428704180056" lon="9.276718723412708"><ele>76.2</ele><time>2026-04-08T14:04:41Z</time></trkpt><trkpt lat="39.27952061506079" lon="9.276758764590644"><ele>76.6</ele><time>2026-04-08T14:04:42Z</time></trkpt><trkpt lat="39.27960738898993" lon="9.27678861160396"><ele>77.0</ele><time>2026-04-08T14:04:43Z</time></trkpt><trkpt lat="39.27968430298904" lon="9.276782402680539"><ele>77.0</ele><time>2026-04-08T14:04:44Z</time></trkpt><trkpt lat="39.279750825369554" lon="9.276783487758362"><ele>77.0</ele><time>2026-04-08T14:04:45Z</time></trkpt><trkpt lat="39.27983600731007" lon="9.276766931549918"><ele>77.0</ele><time>2026-04-08T14:04:46Z</time></trkpt><trkpt lat="39.27994118569617" lon="9.276743999544674"><ele>77.0</ele><time>2026-04-08T14:04:47Z</time></trkpt><trkpt lat="39.280056056903256" lon="9.276704800369746"><ele>77.0</ele><time>2026-04-08T14:04:48Z</time></trkpt><trkpt lat="39.280175265419416" lon="9.27665132269135"><ele>77.0</ele><time>2026-04-08T14:04:49Z</time></trkpt><trkpt lat="39.28028830880163" lon="9.276596999876965"><ele>77.0</ele><time>2026-04-08T14:04:50Z</time></trkpt><trkpt lat="39.28039284866363" lon="9.276547064816558"><ele>77.0</ele><time>2026-04-08T14:04:51Z</time></trkpt><trkpt lat="39.28049800871237" lon="9.276494077790021"><ele>77.0</ele><time>2026-04-08T14:04:52Z</time></trkpt><trkpt lat="39.280594305012784" lon="9.276444530355247"><ele>77.0</ele><time>2026-04-08T14:04:53Z</time></trkpt><trkpt lat="39.28070478865974" lon="9.27641966575156"><ele>77.33333333333334</ele><time>2026-04-08T14:04:54Z</time></trkpt><trkpt lat="39.28079480739963" lon="9.276354068552164"><ele>77.66666666666667</ele><time>2026-04-08T14:04:55Z</time></trkpt><trkpt lat="39.280872360239094" lon="9.27630534397583"><ele>78.0</ele><time>2026-04-08T14:04:56Z</time></trkpt><trkpt lat="39.280932013794086" lon="9.276252708583575"><ele>78.33333333333333</ele><time>2026-04-08T14:04:57Z</time></trkpt><trkpt lat="39.28100105402712" lon="9.276208815849314"><ele>78.66666666666666</ele><time>2026-04-08T14:04:58Z</time></trkpt><trkpt lat="39.281088955983854" lon="9.27617212967874"><ele>79.0</ele><time>2026-04-08T14:04:59Z</time></trkpt><trkpt lat="39.28118714757191" lon="9.276143480438563"><ele>79.0</ele><time>2026-04-08T14:05:00Z</time></trkpt><trkpt lat="39.28128787298691" lon="9.276115612636552"><ele>79.0</ele><time>2026-04-08T14:05:01Z</time></trkpt><trkpt lat="39.28138442081349" lon="9.276081302703028"><ele>79.0</ele><time>2026-04-08T14:05:02Z</time></trkpt><trkpt lat="39.28148782020562" lon="9.276033725151263"><ele>79.0</ele><time>2026-04-08T14:05:03Z</time></trkpt><trkpt lat="39.28159159968008" lon="9.27597780914819"><ele>79.0</ele><time>2026-04-08T14:05:04Z</time></trkpt><trkpt lat="39.281677617673296" lon="9.275932536556178"><ele>79.6</ele><time>2026-04-08T14:05:05Z</time></trkpt><trkpt lat="39.28174078743385" lon="9.27590033199467"><ele>80.2</ele><time>2026-04-08T14:05:06.001Z</time></trkpt><trkpt lat="39.28187399491903" lon="9.275866339809342"><ele>80.8</ele><time>2026-04-08T14:05:08.001Z</time></trkpt><trkpt lat="39.28195367562749" lon="9.275855256367578"><ele>81.39999999999999</ele><time>2026-04-08T14:05:09.001Z</time></trkpt><trkpt lat="39.2820428664105" lon="9.275848212098955"><ele>82.0</ele><time>2026-04-08T14:05:10.001Z</time></trkpt><trkpt lat="39.282128569968464" lon="9.27583520096367"><ele>82.0</ele><time>2026-04-08T14:05:11.001Z</time></trkpt><trkpt lat="39.28221248686965" lon="9.275813580362739"><ele>82.0</ele><time>2026-04-08T14:05:12.001Z</time></trkpt><trkpt lat="39.28229855899752" lon="9.275773295260567"><ele>82.0</ele><time>2026-04-08T14:05:13.001Z</time></trkpt><trkpt lat="39.28238765065299" lon="9.275715627923145"><ele>82.0</ele><time>2026-04-08T14:05:14.001Z</time></trkpt><trkpt lat="39.28248598428426" lon="9.27564078568801"><ele>82.0</ele><time>2026-04-08T14:05:15.001Z</time></trkpt><trkpt lat="39.282577979942474" lon="9.275572591364009"><ele>82.33333333333333</ele><time>2026-04-08T14:05:16.001Z</time></trkpt><trkpt lat="39.28266210280525" lon="9.275516615903374"><ele>82.66666666666666</ele><time>2026-04-08T14:05:17.001Z</time></trkpt><trkpt lat="39.28274629343906" lon="9.2754744662065"><ele>83.0</ele><time>2026-04-08T14:05:18.001Z</time></trkpt><trkpt lat="39.2828219465085" lon="9.275419478889571"><ele>83.33333333333333</ele><time>2026-04-08T14:05:19.001Z</time></trkpt><trkpt lat="39.282900247899725" lon="9.275368891242383"><ele>83.66666666666667</ele><time>2026-04-08T14:05:20.001Z</time></trkpt><trkpt lat="39.28297671404355" lon="9.275322449565694"><ele>84.0</ele><time>2026-04-08T14:05:21.001Z</time></trkpt><trkpt lat="39.283055348475195" lon="9.275269122250197"><ele>84.4</ele><time>2026-04-08T14:05:22.001Z</time></trkpt><trkpt lat="39.28314404978228" lon="9.275215196416621"><ele>84.80000000000001</ele><time>2026-04-08T14:05:23.001Z</time></trkpt><trkpt lat="39.28323088996846" lon="9.27515851199926"><ele>85.19999999999999</ele><time>2026-04-08T14:05:24.001Z</time></trkpt><trkpt lat="39.283331215674494" lon="9.275112246397102"><ele>85.6</ele><time>2026-04-08T14:05:25.001Z</time></trkpt><trkpt lat="39.283421239819994" lon="9.275033654276054"><ele>86.0</ele><time>2026-04-08T14:05:26.001Z</time></trkpt><trkpt lat="39.28351408375931" lon="9.274979100802511"><ele>86.0</ele><time>2026-04-08T14:05:27.001Z</time></trkpt><trkpt lat="39.283599414298024" lon="9.27493277520802"><ele>86.0</ele><time>2026-04-08T14:05:28.001Z</time></trkpt><trkpt lat="39.28366657943474" lon="9.274920439742063"><ele>86.0</ele><time>2026-04-08T14:05:29.001Z</time></trkpt><trkpt lat="39.28374577854088" lon="9.274888935628661"><ele>86.0</ele><time>2026-04-08T14:05:31.001Z</time></trkpt><trkpt lat="39.283814979511405" lon="9.27488199089844"><ele>86.0</ele><time>2026-04-08T14:05:40.001Z</time></trkpt><trkpt lat="39.28384256172189" lon="9.275073468825667"><ele>86.0</ele><time>2026-04-08T14:05:45.001Z</time></trkpt><trkpt lat="39.283806056902954" lon="9.27520477304736"><ele>86.0</ele><time>2026-04-08T14:05:46.001Z</time></trkpt><trkpt lat="39.283783480391264" lon="9.27535589746018"><ele>86.0</ele><time>2026-04-08T14:05:47.001Z</time></trkpt><trkpt lat="39.28376707792162" lon="9.275525457847516"><ele>86.0</ele><time>2026-04-08T14:05:48.001Z</time></trkpt><trkpt lat="39.28373175126278" lon="9.275704120404242"><ele>85.0</ele><time>2026-04-08T14:05:49.001Z</time></trkpt><trkpt lat="39.283683033652046" lon="9.275897072506028"><ele>84.0</ele><time>2026-04-08T14:05:50.001Z</time></trkpt><trkpt lat="39.283620418466995" lon="9.276103259092636"><ele>83.0</ele><time>2026-04-08T14:05:51.001Z</time></trkpt><trkpt lat="39.28356643580291" lon="9.276279597745848"><ele>82.75</ele><time>2026-04-08T14:05:52.001Z</time></trkpt><trkpt lat="39.28351384031759" lon="9.276452947754354"><ele>82.5</ele><time>2026-04-08T14:05:53.001Z</time></trkpt><trkpt lat="39.28346295965019" lon="9.276632509599846"><ele>82.25</ele><time>2026-04-08T14:05:54.001Z</time></trkpt><trkpt lat="39.283403658671716" lon="9.276813243194146"><ele>82.0</ele><time>2026-04-08T14:05:55.001Z</time></trkpt><trkpt lat="39.28337280575342" lon="9.276968571108947"><ele>82.0</ele><time>2026-04-08T14:05:56.001Z</time></trkpt><trkpt lat="39.283362605998434" lon="9.277132048861803"><ele>82.0</ele><time>2026-04-08T14:05:57.001Z</time></trkpt><trkpt lat="39.28337447425884" lon="9.277326946213924"><ele>82.0</ele><time>2026-04-08T14:05:58.001Z</time></trkpt><trkpt lat="39.283396070348694" lon="9.277534272613059"><ele>82.0</ele><time>2026-04-08T14:05:59.001Z</time></trkpt><trkpt lat="39.283430099976286" lon="9.277742657018546"><ele>82.25</ele><time>2026-04-08T14:06:00.001Z</time></trkpt><trkpt lat="39.283450004329055" lon="9.277938738207638"><ele>82.5</ele><time>2026-04-08T14:06:01.001Z</time></trkpt><trkpt lat="39.283448766804824" lon="9.278114210483793"><ele>82.75</ele><time>2026-04-08T14:06:02.001Z</time></trkpt><trkpt lat="39.283461934901695" lon="9.278277104814514"><ele>83.0</ele><time>2026-04-08T14:06:03.001Z</time></trkpt><trkpt lat="39.28347923859199" lon="9.278436119077012"><ele>83.0</ele><time>2026-04-08T14:06:04.001Z</time></trkpt><trkpt lat="39.283492399654314" lon="9.278601718559527"><ele>83.0</ele><time>2026-04-08T14:06:05.001Z</time></trkpt><trkpt lat="39.283500639624336" lon="9.278774368177086"><ele>83.0</ele><time>2026-04-08T14:06:06.001Z</time></trkpt><trkpt lat="39.28350082759613" lon="9.27894517795819"><ele>83.0</ele><time>2026-04-08T14:06:07.001Z</time></trkpt><trkpt lat="39.28350068336165" lon="9.2791051515858"><ele>83.0</ele><time>2026-04-08T14:06:08.001Z</time></trkpt><trkpt lat="39.28350248554284" lon="9.279271851428067"><ele>83.0</ele><time>2026-04-08T14:06:09.001Z</time></trkpt><trkpt lat="39.28350241133011" lon="9.27943118563719"><ele>83.0</ele><time>2026-04-08T14:06:10.001Z</time></trkpt><trkpt lat="39.28351294413686" lon="9.279586802364712"><ele>83.0</ele><time>2026-04-08T14:06:11.001Z</time></trkpt><trkpt lat="39.283518325436965" lon="9.279745193673884"><ele>82.75</ele><time>2026-04-08T14:06:12.001Z</time></trkpt><trkpt lat="39.28353870976222" lon="9.279903224106926"><ele>82.5</ele><time>2026-04-08T14:06:13.001Z</time></trkpt><trkpt lat="39.283572420574934" lon="9.280057174552331"><ele>82.25</ele><time>2026-04-08T14:06:14.001Z</time></trkpt><trkpt lat="39.28357889598355" lon="9.280210565594817"><ele>82.0</ele><time>2026-04-08T14:06:15.001Z</time></trkpt><trkpt lat="39.283548708217324" lon="9.280350447165318"><ele>82.0</ele><time>2026-04-08T14:06:16.001Z</time></trkpt><trkpt lat="39.283505484379106" lon="9.280487576945097"><ele>82.0</ele><time>2026-04-08T14:06:17.001Z</time></trkpt><trkpt lat="39.28343741795972" lon="9.280633029388513"><ele>82.0</ele><time>2026-04-08T14:06:18.001Z</time></trkpt><trkpt lat="39.28335004212912" lon="9.280774111985883"><ele>82.0</ele><time>2026-04-08T14:06:19.001Z</time></trkpt><trkpt lat="39.28326782689921" lon="9.280901799526612"><ele>82.5</ele><time>2026-04-08T14:06:20.001Z</time></trkpt><trkpt lat="39.283204759209404" lon="9.281039600198715"><ele>83.0</ele><time>2026-04-08T14:06:21.002Z</time></trkpt><trkpt lat="39.28314673411556" lon="9.281176221342774"><ele>83.5</ele><time>2026-04-08T14:06:22.002Z</time></trkpt><trkpt lat="39.28311944997311" lon="9.28132285002905"><ele>84.0</ele><time>2026-04-08T14:06:23.002Z</time></trkpt><trkpt lat="39.28310886450986" lon="9.281471032584534"><ele>85.25</ele><time>2026-04-08T14:06:24.002Z</time></trkpt><trkpt lat="39.28315252631603" lon="9.281638481113758"><ele>86.5</ele><time>2026-04-08T14:06:25Z</time></trkpt><trkpt lat="39.283179768008964" lon="9.281812684370712"><ele>87.75</ele><time>2026-04-08T14:06:26Z</time></trkpt><trkpt lat="39.283173279248494" lon="9.281984717570026"><ele>89.0</ele><time>2026-04-08T14:06:27Z</time></trkpt><trkpt lat="39.28316222744832" lon="9.282151298082859"><ele>89.6</ele><time>2026-04-08T14:06:28Z</time></trkpt><trkpt lat="39.28315274145151" lon="9.28230022820549"><ele>90.2</ele><time>2026-04-08T14:06:29Z</time></trkpt><trkpt lat="39.283143983279274" lon="9.28243773150332"><ele>90.8</ele><time>2026-04-08T14:06:30Z</time></trkpt><trkpt lat="39.28315177784847" lon="9.28256635764472"><ele>91.39999999999999</ele><time>2026-04-08T14:06:31Z</time></trkpt><trkpt lat="39.28313611871093" lon="9.28268992596579"><ele>92.0</ele><time>2026-04-08T14:06:32Z</time></trkpt><trkpt lat="39.28313154284661" lon="9.282802862914233"><ele>92.0</ele><time>2026-04-08T14:06:33Z</time></trkpt><trkpt lat="39.283125557697076" lon="9.282904704994422"><ele>92.0</ele><time>2026-04-08T14:06:34Z</time></trkpt><trkpt lat="39.28311718317456" lon="9.283030087792387"><ele>92.0</ele><time>2026-04-08T14:06:36Z</time></trkpt><trkpt lat="39.28309816623077" lon="9.283118024772634"><ele>92.0</ele><time>2026-04-08T14:06:38Z</time></trkpt><trkpt lat="39.28324213643449" lon="9.283214615731591"><ele>92.0</ele><time>2026-04-08T14:06:42Z</time></trkpt><trkpt lat="39.28332314352513" lon="9.283204550584712"><ele>92.0</ele><time>2026-04-08T14:06:43Z</time></trkpt><trkpt lat="39.28342903869037" lon="9.28317887225146"><ele>92.0</ele><time>2026-04-08T14:06:44Z</time></trkpt><trkpt lat="39.28354174507209" lon="9.2831406472878"><ele>92.0</ele><time>2026-04-08T14:06:45Z</time></trkpt><trkpt lat="39.28367971286676" lon="9.283094416775645"><ele>92.0</ele><time>2026-04-08T14:06:46Z</time></trkpt><trkpt lat="39.283825434781924" lon="9.283045758377634"><ele>92.25</ele><time>2026-04-08T14:06:47Z</time></trkpt><trkpt lat="39.28394418931156" lon="9.282996306119028"><ele>92.5</ele><time>2026-04-08T14:06:48Z</time></trkpt><trkpt lat="39.28405542755431" lon="9.282929615907669"><ele>92.75</ele><time>2026-04-08T14:06:49Z</time></trkpt><trkpt lat="39.28416364245451" lon="9.282863103619995"><ele>93.0</ele><time>2026-04-08T14:06:50Z</time></trkpt><trkpt lat="39.2842604545582" lon="9.282794361068035"><ele>93.0</ele><time>2026-04-08T14:06:51Z</time></trkpt><trkpt lat="39.28435916595725" lon="9.282769840537796"><ele>93.0</ele><time>2026-04-08T14:06:52Z</time></trkpt><trkpt lat="39.28446369866686" lon="9.282743364367004"><ele>93.0</ele><time>2026-04-08T14:06:53Z</time></trkpt><trkpt lat="39.28456918967457" lon="9.28269660125597"><ele>93.0</ele><time>2026-04-08T14:06:54Z</time></trkpt><trkpt lat="39.284682214292125" lon="9.282675535347064"><ele>93.0</ele><time>2026-04-08T14:06:55Z</time></trkpt><trkpt lat="39.28479538836034" lon="9.282634764888865"><ele>93.5</ele><time>2026-04-08T14:06:56Z</time></trkpt><trkpt lat="39.28490829969331" lon="9.282570818043471"><ele>94.0</ele><time>2026-04-08T14:06:57Z</time></trkpt><trkpt lat="39.28501655799258" lon="9.2824917571631"><ele>94.5</ele><time>2026-04-08T14:06:58Z</time></trkpt><trkpt lat="39.285135216307076" lon="9.282405404403615"><ele>95.0</ele><time>2026-04-08T14:06:59Z</time></trkpt><trkpt lat="39.28525913488101" lon="9.28232213509338"><ele>95.25</ele><time>2026-04-08T14:07:00Z</time></trkpt><trkpt lat="39.285386666682314" lon="9.282244332609553"><ele>95.5</ele><time>2026-04-08T14:07:01Z</time></trkpt><trkpt lat="39.28552100886877" lon="9.282157853715454"><ele>95.75</ele><time>2026-04-08T14:07:02Z</time></trkpt><trkpt lat="39.285652905504435" lon="9.282072682450938"><ele>96.0</ele><time>2026-04-08T14:07:03Z</time></trkpt><trkpt lat="39.28577903842317" lon="9.281989690349816"><ele>96.5</ele><time>2026-04-08T14:07:04Z</time></trkpt><trkpt lat="39.285898952696286" lon="9.28191025658659"><ele>97.0</ele><time>2026-04-08T14:07:05Z</time></trkpt><trkpt lat="39.286013735037464" lon="9.281835822104586"><ele>97.5</ele><time>2026-04-08T14:07:06Z</time></trkpt><trkpt lat="39.286124509168936" lon="9.28176711898907"><ele>98.0</ele><time>2026-04-08T14:07:07Z</time></trkpt><trkpt lat="39.286240579885366" lon="9.281704443408636"><ele>98.0</ele><time>2026-04-08T14:07:08Z</time></trkpt><trkpt lat="39.28635009671031" lon="9.28164968356244"><ele>98.0</ele><time>2026-04-08T14:07:09Z</time></trkpt><trkpt lat="39.28646197024126" lon="9.281605130646131"><ele>98.0</ele><time>2026-04-08T14:07:10Z</time></trkpt><trkpt lat="39.28656217832671" lon="9.281562268164196"><ele>98.0</ele><time>2026-04-08T14:07:11Z</time></trkpt><trkpt lat="39.28666590725113" lon="9.281531377115037"><ele>98.0</ele><time>2026-04-08T14:07:12Z</time></trkpt><trkpt lat="39.28678460029554" lon="9.281539628121791"><ele>98.75</ele><time>2026-04-08T14:07:13Z</time></trkpt><trkpt lat="39.28691673950595" lon="9.281538701141342"><ele>99.5</ele><time>2026-04-08T14:07:14Z</time></trkpt><trkpt lat="39.28705343060485" lon="9.281523620333072"><ele>100.25</ele><time>2026-04-08T14:07:15.001Z</time></trkpt><trkpt lat="39.28719064442844" lon="9.281516785713068"><ele>101.0</ele><time>2026-04-08T14:07:16.001Z</time></trkpt><trkpt lat="39.287327189196816" lon="9.281509122424039"><ele>102.0</ele><time>2026-04-08T14:07:17.001Z</time></trkpt><trkpt lat="39.287456052413255" lon="9.281497513906364"><ele>103.0</ele><time>2026-04-08T14:07:18.001Z</time></trkpt><trkpt lat="39.287576678095284" lon="9.281476098946042"><ele>104.0</ele><time>2026-04-08T14:07:19.001Z</time></trkpt><trkpt lat="39.2876920715985" lon="9.281479695107029"><ele>105.0</ele><time>2026-04-08T14:07:20.001Z</time></trkpt><trkpt lat="39.287814450821415" lon="9.281501972869474"><ele>105.0</ele><time>2026-04-08T14:07:21.001Z</time></trkpt><trkpt lat="39.287937959720864" lon="9.281536095469143"><ele>105.0</ele><time>2026-04-08T14:07:22.001Z</time></trkpt><trkpt lat="39.28804601320195" lon="9.281578911333918"><ele>105.0</ele><time>2026-04-08T14:07:23.001Z</time></trkpt><trkpt lat="39.28813251277736" lon="9.281622599188397"><ele>105.0</ele><time>2026-04-08T14:07:24.001Z</time></trkpt><trkpt lat="39.288222957781414" lon="9.281692254670078"><ele>105.0</ele><time>2026-04-08T14:07:26.001Z</time></trkpt><trkpt lat="39.28827497476764" lon="9.281750068986511"><ele>105.75</ele><time>2026-04-08T14:07:28.001Z</time></trkpt><trkpt lat="39.288238675217016" lon="9.282064565044086"><ele>106.5</ele><time>2026-04-08T14:07:30.001Z</time></trkpt><trkpt lat="39.288237192166754" lon="9.282167446224355"><ele>107.25</ele><time>2026-04-08T14:07:31.001Z</time></trkpt><trkpt lat="39.28822390155325" lon="9.282310277049225"><ele>108.0</ele><time>2026-04-08T14:07:33.001Z</time></trkpt><trkpt lat="39.28824887609852" lon="9.282396474614234"><ele>108.0</ele><time>2026-04-08T14:07:35.001Z</time></trkpt><trkpt lat="39.28833149215021" lon="9.282422486477353"><ele>108.0</ele><time>2026-04-08T14:07:37.001Z</time></trkpt><trkpt lat="39.288432529221936" lon="9.282396240375695"><ele>108.0</ele><time>2026-04-08T14:07:39.001Z</time></trkpt><trkpt lat="39.288502674487205" lon="9.282384719644494"><ele>108.0</ele><time>2026-04-08T14:07:40.001Z</time></trkpt><trkpt lat="39.28857630566116" lon="9.282378165948899"><ele>108.0</ele><time>2026-04-08T14:07:41.001Z</time></trkpt><trkpt lat="39.28865798017749" lon="9.282372317058945"><ele>108.0</ele><time>2026-04-08T14:07:42.001Z</time></trkpt><trkpt lat="39.28872260186577" lon="9.282373992902121"><ele>108.0</ele><time>2026-04-08T14:07:43.001Z</time></trkpt><trkpt lat="39.288794304127315" lon="9.282359460538713"><ele>108.0</ele><time>2026-04-08T14:07:44.001Z</time></trkpt><trkpt lat="39.2888815730611" lon="9.282351324406237"><ele>108.0</ele><time>2026-04-08T14:07:45.001Z</time></trkpt><trkpt lat="39.288971348668" lon="9.282353362171644"><ele>108.0</ele><time>2026-04-08T14:07:46.001Z</time></trkpt><trkpt lat="39.28904723530537" lon="9.282347244620528"><ele>108.0</ele><time>2026-04-08T14:07:47.001Z</time></trkpt><trkpt lat="39.28911606090972" lon="9.282339208700808"><ele>108.0</ele><time>2026-04-08T14:07:48.001Z</time></trkpt><trkpt lat="39.28918973833073" lon="9.282328963696083"><ele>109.16666666666667</ele><time>2026-04-08T14:07:49.001Z</time></trkpt><trkpt lat="39.28931980666147" lon="9.282367024846604"><ele>110.33333333333334</ele><time>2026-04-08T14:07:51.001Z</time></trkpt><trkpt lat="39.289382739611646" lon="9.282419542012919"><ele>111.5</ele><time>2026-04-08T14:07:52.001Z</time></trkpt><trkpt lat="39.289459866345894" lon="9.282462070414498"><ele>112.66666666666667</ele><time>2026-04-08T14:07:53.001Z</time></trkpt><trkpt lat="39.28953126866339" lon="9.282488883581703"><ele>113.83333333333334</ele><time>2026-04-08T14:07:54.001Z</time></trkpt><trkpt lat="39.28960503218132" lon="9.282516759521275"><ele>115.0</ele><time>2026-04-08T14:07:55.001Z</time></trkpt><trkpt lat="39.289688921173855" lon="9.282548661081767"><ele>116.00000000000001</ele><time>2026-04-08T14:07:56.001Z</time></trkpt><trkpt lat="39.28977928549095" lon="9.282578110614471"><ele>117.0</ele><time>2026-04-08T14:07:57.001Z</time></trkpt><trkpt lat="39.2898667260373" lon="9.282608164428131"><ele>118.0</ele><time>2026-04-08T14:07:58.001Z</time></trkpt><trkpt lat="39.28994982164267" lon="9.282636768134417"><ele>119.0</ele><time>2026-04-08T14:07:59.001Z</time></trkpt><trkpt lat="39.29003722045827" lon="9.282660092328896"><ele>120.00000000000001</ele><time>2026-04-08T14:08:00.001Z</time></trkpt><trkpt lat="39.290121412389205" lon="9.282677549444612"><ele>121.0</ele><time>2026-04-08T14:08:01.001Z</time></trkpt><trkpt lat="39.2902038909461" lon="9.282690154827764"><ele>121.00000000000001</ele><time>2026-04-08T14:08:02.001Z</time></trkpt><trkpt lat="39.29027973214017" lon="9.28269286674541"><ele>121.0</ele><time>2026-04-08T14:08:03.001Z</time></trkpt><trkpt lat="39.29036921243317" lon="9.282693240405049"><ele>121.0</ele><time>2026-04-08T14:08:04.001Z</time></trkpt><trkpt lat="39.29045641327708" lon="9.282701192934823"><ele>121.0</ele><time>2026-04-08T14:08:05.001Z</time></trkpt><trkpt lat="39.29054816366084" lon="9.282705836397772"><ele>121.00000000000001</ele><time>2026-04-08T14:08:06.001Z</time></trkpt><trkpt lat="39.29063706626739" lon="9.282707084206717"><ele>121.0</ele><time>2026-04-08T14:08:07.001Z</time></trkpt><trkpt lat="39.29072865696259" lon="9.28271090523651"><ele>123.0</ele><time>2026-04-08T14:08:08.001Z</time></trkpt><trkpt lat="39.2908281347367" lon="9.282727540915534"><ele>125.0</ele><time>2026-04-08T14:08:09.001Z</time></trkpt><trkpt lat="39.290925315636976" lon="9.282757168491298"><ele>127.0</ele><time>2026-04-08T14:08:10.001Z</time></trkpt><trkpt lat="39.29101501963561" lon="9.282791226839874"><ele>129.0</ele><time>2026-04-08T14:08:11.001Z</time></trkpt><trkpt lat="39.29108043811495" lon="9.282815726016528"><ele>131.0</ele><time>2026-04-08T14:08:12.001Z</time></trkpt><trkpt lat="39.29123596039698" lon="9.282807806787323"><ele>131.0</ele><time>2026-04-08T14:08:14.001Z</time></trkpt><trkpt lat="39.2913420149243" lon="9.28280726661103"><ele>131.0</ele><time>2026-04-08T14:08:15.001Z</time></trkpt><trkpt lat="39.29143898027282" lon="9.282812475692518"><ele>131.0</ele><time>2026-04-08T14:08:16.001Z</time></trkpt><trkpt lat="39.29153468325666" lon="9.282815752412315"><ele>131.0</ele><time>2026-04-08T14:08:17.001Z</time></trkpt><trkpt lat="39.29161075863363" lon="9.282826031527755"><ele>131.0</ele><time>2026-04-08T14:08:18.001Z</time></trkpt><trkpt lat="39.2916821202797" lon="9.282850140416624"><ele>131.0</ele><time>2026-04-08T14:08:19.001Z</time></trkpt><trkpt lat="39.29176015353417" lon="9.28287451174628"><ele>131.5</ele><time>2026-04-08T14:08:20.001Z</time></trkpt><trkpt lat="39.291885010144654" lon="9.282898530057372"><ele>132.0</ele><time>2026-04-08T14:08:22.001Z</time></trkpt><trkpt lat="39.292011031995976" lon="9.282944247408144"><ele>132.5</ele><time>2026-04-08T14:08:24.001Z</time></trkpt><trkpt lat="39.2921483391867" lon="9.283005786858576"><ele>133.0</ele><time>2026-04-08T14:08:26.001Z</time></trkpt><trkpt lat="39.29221551048106" lon="9.283042231031086"><ele>133.33333333333334</ele><time>2026-04-08T14:08:27.001Z</time></trkpt><trkpt lat="39.29228735841997" lon="9.28308282977236"><ele>133.66666666666669</ele><time>2026-04-08T14:08:28.001Z</time></trkpt><trkpt lat="39.29236654093912" lon="9.283114852897084"><ele>134.0</ele><time>2026-04-08T14:08:29.001Z</time></trkpt><trkpt lat="39.292445513941765" lon="9.283152892158991"><ele>134.33333333333334</ele><time>2026-04-08T14:08:30.001Z</time></trkpt><trkpt lat="39.29252808485291" lon="9.283190515400305"><ele>134.66666666666666</ele><time>2026-04-08T14:08:31Z</time></trkpt><trkpt lat="39.29260868616289" lon="9.283233935790232"><ele>135.0</ele><time>2026-04-08T14:08:32Z</time></trkpt><trkpt lat="39.29267539452289" lon="9.283279031860697"><ele>135.16666666666666</ele><time>2026-04-08T14:08:33Z</time></trkpt><trkpt lat="39.29273797286285" lon="9.283331533356195"><ele>135.33333333333334</ele><time>2026-04-08T14:08:34Z</time></trkpt><trkpt lat="39.29279978742907" lon="9.283385435685767"><ele>135.5</ele><time>2026-04-08T14:08:35Z</time></trkpt><trkpt lat="39.292864199071765" lon="9.283447644566191"><ele>135.66666666666669</ele><time>2026-04-08T14:08:36Z</time></trkpt><trkpt lat="39.29292990935623" lon="9.283538842734577"><ele>135.83333333333334</ele><time>2026-04-08T14:08:37Z</time></trkpt><trkpt lat="39.29298877091153" lon="9.283636911074938"><ele>136.0</ele><time>2026-04-08T14:08:38Z</time></trkpt><trkpt lat="39.29304324127854" lon="9.283718660443789"><ele>136.6</ele><time>2026-04-08T14:08:39Z</time></trkpt><trkpt lat="39.29310107877051" lon="9.283794790678545"><ele>137.2</ele><time>2026-04-08T14:08:40Z</time></trkpt><trkpt lat="39.29316733046341" lon="9.283853336049331"><ele>137.8</ele><time>2026-04-08T14:08:41Z</time></trkpt><trkpt lat="39.29324454428781" lon="9.283915241983987"><ele>138.4</ele><time>2026-04-08T14:08:42Z</time></trkpt><trkpt lat="39.29331599195806" lon="9.283996422871793"><ele>139.0</ele><time>2026-04-08T14:08:43Z</time></trkpt><trkpt lat="39.29339497750005" lon="9.284083813978903"><ele>139.5</ele><time>2026-04-08T14:08:44Z</time></trkpt><trkpt lat="39.29346234534791" lon="9.284151912108339"><ele>140.0</ele><time>2026-04-08T14:08:45Z</time></trkpt><trkpt lat="39.29353081688376" lon="9.284205473852456"><ele>140.5</ele><time>2026-04-08T14:08:46Z</time></trkpt><trkpt lat="39.293590178202464" lon="9.28424267877636"><ele>141.0</ele><time>2026-04-08T14:08:47Z</time></trkpt><trkpt lat="39.293700351593" lon="9.284231028159045"><ele>141.5</ele><time>2026-04-08T14:08:49Z</time></trkpt><trkpt lat="39.29377654669332" lon="9.284194011917593"><ele>142.0</ele><time>2026-04-08T14:08:50Z</time></trkpt><trkpt lat="39.2938450718379" lon="9.284189458531435"><ele>142.0</ele><time>2026-04-08T14:08:51Z</time></trkpt><trkpt lat="39.29391334666197" lon="9.284253224959757"><ele>142.0</ele><time>2026-04-08T14:08:53Z</time></trkpt><trkpt lat="39.29396022015265" lon="9.284331753021517"><ele>142.0</ele><time>2026-04-08T14:08:54Z</time></trkpt><trkpt lat="39.29404492166223" lon="9.284451659711603"><ele>142.0</ele><time>2026-04-08T14:08:55Z</time></trkpt><trkpt lat="39.29412420662169" lon="9.284551298288584"><ele>142.0</ele><time>2026-04-08T14:08:56Z</time></trkpt><trkpt lat="39.29419874372866" lon="9.284632503943232"><ele>142.33333333333334</ele><time>2026-04-08T14:08:57Z</time></trkpt><trkpt lat="39.29426484831038" lon="9.28470675755265"><ele>142.66666666666669</ele><time>2026-04-08T14:08:58Z</time></trkpt><trkpt lat="39.2943207362311" lon="9.284769273270792"><ele>143.0</ele><time>2026-04-08T14:08:59Z</time></trkpt><trkpt lat="39.29439387463104" lon="9.284842475547041"><ele>143.33333333333334</ele><time>2026-04-08T14:09:00Z</time></trkpt><trkpt lat="39.294474187136636" lon="9.284917927036222"><ele>143.66666666666666</ele><time>2026-04-08T14:09:01Z</time></trkpt><trkpt lat="39.29454930867609" lon="9.284985715950048"><ele>144.0</ele><time>2026-04-08T14:09:02Z</time></trkpt><trkpt lat="39.29463269860033" lon="9.285055401356274"><ele>144.6</ele><time>2026-04-08T14:09:03Z</time></trkpt><trkpt lat="39.29472565380988" lon="9.285108682858484"><ele>145.2</ele><time>2026-04-08T14:09:04Z</time></trkpt><trkpt lat="39.294784516133575" lon="9.28513814056917"><ele>145.79999999999998</ele><time>2026-04-08T14:09:05Z</time></trkpt><trkpt lat="39.29483280375219" lon="9.285202532413257"><ele>146.4</ele><time>2026-04-08T14:09:06Z</time></trkpt><trkpt lat="39.29489901682213" lon="9.285306689279556"><ele>147.0</ele><time>2026-04-08T14:09:07Z</time></trkpt><trkpt lat="39.29497327837927" lon="9.285430120584538"><ele>147.0</ele><time>2026-04-08T14:09:08Z</time></trkpt><trkpt lat="39.29504112353542" lon="9.28553277362914"><ele>147.0</ele><time>2026-04-08T14:09:09Z</time></trkpt><trkpt lat="39.29510630994929" lon="9.285635717618504"><ele>147.0</ele><time>2026-04-08T14:09:10Z</time></trkpt><trkpt lat="39.29517168789282" lon="9.285740968598821"><ele>147.0</ele><time>2026-04-08T14:09:11Z</time></trkpt><trkpt lat="39.295228338655065" lon="9.285827593144601"><ele>147.0</ele><time>2026-04-08T14:09:12Z</time></trkpt><trkpt lat="39.2953135817433" lon="9.28592296707491"><ele>147.85714285714286</ele><time>2026-04-08T14:09:14Z</time></trkpt><trkpt lat="39.29536682450914" lon="9.2859663794711"><ele>148.71428571428572</ele><time>2026-04-08T14:09:15Z</time></trkpt><trkpt lat="39.29542445635177" lon="9.286010969686448"><ele>149.57142857142856</ele><time>2026-04-08T14:09:16Z</time></trkpt><trkpt lat="39.2954867114798" lon="9.286044998818708"><ele>150.42857142857144</ele><time>2026-04-08T14:09:17Z</time></trkpt><trkpt lat="39.295567776221034" lon="9.286063979334154"><ele>151.28571428571428</ele><time>2026-04-08T14:09:18Z</time></trkpt><trkpt lat="39.29564089055804" lon="9.286071360336411"><ele>152.14285714285714</ele><time>2026-04-08T14:09:19Z</time></trkpt><trkpt lat="39.29570965194538" lon="9.286078567650947"><ele>153.0</ele><time>2026-04-08T14:09:20Z</time></trkpt><trkpt lat="39.29577542941242" lon="9.286095444056397"><ele>153.0</ele><time>2026-04-08T14:09:21Z</time></trkpt><trkpt lat="39.29584545027381" lon="9.28611460991116"><ele>153.0</ele><time>2026-04-08T14:09:22.001Z</time></trkpt><trkpt lat="39.29591684543047" lon="9.286133978386646"><ele>153.0</ele><time>2026-04-08T14:09:23.001Z</time></trkpt><trkpt lat="39.29598515723893" lon="9.286166139657952"><ele>153.0</ele><time>2026-04-08T14:09:24.001Z</time></trkpt><trkpt lat="39.296062652994536" lon="9.286219426536393"><ele>153.0</ele><time>2026-04-08T14:09:25.001Z</time></trkpt><trkpt lat="39.29613942511409" lon="9.286267012688194"><ele>153.0</ele><time>2026-04-08T14:09:26.001Z</time></trkpt><trkpt lat="39.29620512879627" lon="9.28630152568949"><ele>153.0</ele><time>2026-04-08T14:09:27.001Z</time></trkpt><trkpt lat="39.29630296700199" lon="9.286375251423943"><ele>153.0</ele><time>2026-04-08T14:09:29.001Z</time></trkpt><trkpt lat="39.296358017193285" lon="9.28648779644244"><ele>153.0</ele><time>2026-04-08T14:09:31.001Z</time></trkpt><trkpt lat="39.296420688823794" lon="9.286516613891036"><ele>153.0</ele><time>2026-04-08T14:09:33.001Z</time></trkpt><trkpt lat="39.296501635287676" lon="9.286393256349589"><ele>153.0</ele><time>2026-04-08T14:09:35.001Z</time></trkpt><trkpt lat="39.296522739858176" lon="9.286311855125385"><ele>153.0</ele><time>2026-04-08T14:09:36.001Z</time></trkpt><trkpt lat="39.29649849009165" lon="9.286155068367005"><ele>153.0</ele><time>2026-04-08T14:09:38.001Z</time></trkpt><trkpt lat="39.29646889162408" lon="9.286053892838051"><ele>153.0</ele><time>2026-04-08T14:09:39.001Z</time></trkpt><trkpt lat="39.296432787531835" lon="9.285945378093476"><ele>153.0</ele><time>2026-04-08T14:09:40.001Z</time></trkpt><trkpt lat="39.29638653811828" lon="9.28583301918731"><ele>153.0</ele><time>2026-04-08T14:09:41.001Z</time></trkpt><trkpt lat="39.296349677076954" lon="9.285740839461276"><ele>153.0</ele><time>2026-04-08T14:09:42.001Z</time></trkpt><trkpt lat="39.296313027653305" lon="9.285664619636167"><ele>153.0</ele><time>2026-04-08T14:09:43.001Z</time></trkpt><trkpt lat="39.29626000000203" lon="9.285605744998072"><ele>153.0</ele><time>2026-04-08T14:09:44.001Z</time></trkpt><trkpt lat="39.29620102391737" lon="9.285544965525132"><ele>153.0</ele><time>2026-04-08T14:09:45.001Z</time></trkpt><trkpt lat="39.296145445282555" lon="9.285490170895452"><ele>153.0</ele><time>2026-04-08T14:09:46.001Z</time></trkpt><trkpt lat="39.29608937456077" lon="9.285434494957594"><ele>153.0</ele><time>2026-04-08T14:09:47.001Z</time></trkpt><trkpt lat="39.2960317295913" lon="9.285354200695654"><ele>153.0</ele><time>2026-04-08T14:09:48.001Z</time></trkpt><trkpt lat="39.295991008428274" lon="9.285267314579416"><ele>151.0</ele><time>2026-04-08T14:09:49.001Z</time></trkpt><trkpt lat="39.2959656614185" lon="9.285191670509143"><ele>149.0</ele><time>2026-04-08T14:09:50.001Z</time></trkpt><trkpt lat="39.29596127525076" lon="9.285089815115132"><ele>147.0</ele><time>2026-04-08T14:09:52.001Z</time></trkpt><trkpt lat="39.29594101448858" lon="9.284964579385864"><ele>145.0</ele><time>2026-04-08T14:09:55.001Z</time></trkpt><trkpt lat="39.295907573537825" lon="9.284815385868585"><ele>143.0</ele><time>2026-04-08T14:09:57.001Z</time></trkpt><trkpt lat="39.29588516525975" lon="9.284738882814272"><ele>141.0</ele><time>2026-04-08T14:09:58.001Z</time></trkpt><trkpt lat="39.295842681194806" lon="9.28460629155936"><ele>140.0</ele><time>2026-04-08T14:10:00.001Z</time></trkpt><trkpt lat="39.29583134727935" lon="9.284522185059283"><ele>139.0</ele><time>2026-04-08T14:10:01.001Z</time></trkpt><trkpt lat="39.295842008160136" lon="9.284355070694735"><ele>138.0</ele><time>2026-04-08T14:10:03.001Z</time></trkpt><trkpt lat="39.295854035068366" lon="9.284265521941473"><ele>137.0</ele><time>2026-04-08T14:10:04.001Z</time></trkpt><trkpt lat="39.29586511682783" lon="9.28417628129111"><ele>136.0</ele><time>2026-04-08T14:10:05.001Z</time></trkpt><trkpt lat="39.29586719240938" lon="9.28408300843053"><ele>135.0</ele><time>2026-04-08T14:10:06.001Z</time></trkpt><trkpt lat="39.295857892863495" lon="9.283993503124421"><ele>133.83333333333334</ele><time>2026-04-08T14:10:07.001Z</time></trkpt><trkpt lat="39.29583275197054" lon="9.283904716623235"><ele>132.66666666666666</ele><time>2026-04-08T14:10:08.001Z</time></trkpt><trkpt lat="39.29578979428581" lon="9.283811069966008"><ele>131.5</ele><time>2026-04-08T14:10:09.001Z</time></trkpt><trkpt lat="39.2957435326469" lon="9.283714347913362"><ele>130.33333333333331</ele><time>2026-04-08T14:10:10.001Z</time></trkpt><trkpt lat="39.295705847652414" lon="9.283616605512654"><ele>129.16666666666666</ele><time>2026-04-08T14:10:11.001Z</time></trkpt><trkpt lat="39.29567871542052" lon="9.283541941351967"><ele>128.0</ele><time>2026-04-08T14:10:12.001Z</time></trkpt><trkpt lat="39.29566292727922" lon="9.283389467540294"><ele>127.99999999999999</ele><time>2026-04-08T14:10:14.001Z</time></trkpt><trkpt lat="39.29566668673073" lon="9.283270458304619"><ele>128.0</ele><time>2026-04-08T14:10:15.001Z</time></trkpt><trkpt lat="39.29566962965245" lon="9.28314520468115"><ele>128.0</ele><time>2026-04-08T14:10:16.001Z</time></trkpt><trkpt lat="39.29567163938583" lon="9.283052225107982"><ele>128.0</ele><time>2026-04-08T14:10:17.001Z</time></trkpt><trkpt lat="39.29567117084959" lon="9.282962280125144"><ele>127.99999999999999</ele><time>2026-04-08T14:10:18.001Z</time></trkpt><trkpt lat="39.29568545284746" lon="9.282879974420792"><ele>128.0</ele><time>2026-04-08T14:10:19.001Z</time></trkpt><trkpt lat="39.295723116634996" lon="9.282720235275002"><ele>126.0</ele><time>2026-04-08T14:10:21.001Z</time></trkpt><trkpt lat="39.29573901253561" lon="9.282630679997354"><ele>124.00000000000001</ele><time>2026-04-08T14:10:22.001Z</time></trkpt><trkpt lat="39.29574908398864" lon="9.282456090824594"><ele>122.00000000000001</ele><time>2026-04-08T14:10:24.001Z</time></trkpt><trkpt lat="39.295742354640986" lon="9.28234629642152"><ele>120.0</ele><time>2026-04-08T14:10:25.001Z</time></trkpt><trkpt lat="39.29573685492535" lon="9.282242689201208"><ele>118.0</ele><time>2026-04-08T14:10:26.001Z</time></trkpt><trkpt lat="39.29572279929203" lon="9.282135356710329"><ele>116.4</ele><time>2026-04-08T14:10:27.001Z</time></trkpt><trkpt lat="39.295725659305646" lon="9.282038594010203"><ele>114.80000000000001</ele><time>2026-04-08T14:10:28.001Z</time></trkpt><trkpt lat="39.29573461557783" lon="9.281924008528865"><ele>113.2</ele><time>2026-04-08T14:10:29.001Z</time></trkpt><trkpt lat="39.2957333486712" lon="9.281809401938574"><ele>111.6</ele><time>2026-04-08T14:10:30.001Z</time></trkpt><trkpt lat="39.295730373952864" lon="9.281715664150934"><ele>110.0</ele><time>2026-04-08T14:10:31.001Z</time></trkpt><trkpt lat="39.2957226708532" lon="9.281548095617909"><ele>109.99999999999999</ele><time>2026-04-08T14:10:33.001Z</time></trkpt><trkpt lat="39.29571127829818" lon="9.28143732839391"><ele>110.0</ele><time>2026-04-08T14:10:34.001Z</time></trkpt><trkpt lat="39.29569764733414" lon="9.281350927977696"><ele>110.0</ele><time>2026-04-08T14:10:35.001Z</time></trkpt><trkpt lat="39.29567743535293" lon="9.281205039071047"><ele>110.0</ele><time>2026-04-08T14:10:36.999Z</time></trkpt><trkpt lat="39.295687176184444" lon="9.281124181475532"><ele>109.99999999999999</ele><time>2026-04-08T14:10:37.999Z</time></trkpt><trkpt lat="39.29566349168466" lon="9.280981132327597"><ele>110.0</ele><time>2026-04-08T14:10:39.999Z</time></trkpt><trkpt lat="39.29556527762466" lon="9.280868103006997"><ele>108.6</ele><time>2026-04-08T14:10:41.999Z</time></trkpt><trkpt lat="39.29548711408285" lon="9.280808837759317"><ele>107.2</ele><time>2026-04-08T14:10:42.999Z</time></trkpt><trkpt lat="39.29543838990023" lon="9.28073082839979"><ele>105.80000000000001</ele><time>2026-04-08T14:10:43.999Z</time></trkpt><trkpt lat="39.295397748399964" lon="9.280637669974768"><ele>104.4</ele><time>2026-04-08T14:10:44.999Z</time></trkpt><trkpt lat="39.295327478056116" lon="9.280485809607082"><ele>103.0</ele><time>2026-04-08T14:10:46.999Z</time></trkpt><trkpt lat="39.295296467720476" lon="9.280403340649668"><ele>102.83333333333334</ele><time>2026-04-08T14:10:47.999Z</time></trkpt><trkpt lat="39.29527575218016" lon="9.28028212216542"><ele>102.66666666666667</ele><time>2026-04-08T14:10:49.999Z</time></trkpt><trkpt lat="39.295274844556985" lon="9.280170220224699"><ele>102.5</ele><time>2026-04-08T14:10:51.999Z</time></trkpt><trkpt lat="39.29528083298473" lon="9.280012949041321"><ele>102.33333333333334</ele><time>2026-04-08T14:10:54Z</time></trkpt><trkpt lat="39.2952738059194" lon="9.279921018957847"><ele>102.16666666666667</ele><time>2026-04-08T14:10:55Z</time></trkpt><trkpt lat="39.29526662220134" lon="9.279833974044923"><ele>102.0</ele><time>2026-04-08T14:10:56Z</time></trkpt><trkpt lat="39.29524451826966" lon="9.279740022993241"><ele>102.0</ele><time>2026-04-08T14:10:57Z</time></trkpt><trkpt lat="39.2952583781403" lon="9.279638454153972"><ele>102.0</ele><time>2026-04-08T14:10:58Z</time></trkpt><trkpt lat="39.29526006571045" lon="9.279555963316502"><ele>102.0</ele><time>2026-04-08T14:10:59Z</time></trkpt><trkpt lat="39.29527042887851" lon="9.279414827696776"><ele>102.0</ele><time>2026-04-08T14:11:01Z</time></trkpt><trkpt lat="39.29528627762255" lon="9.279243447778335"><ele>102.0</ele><time>2026-04-08T14:11:03Z</time></trkpt><trkpt lat="39.29524931184936" lon="9.279155742538553"><ele>102.0</ele><time>2026-04-08T14:11:05Z</time></trkpt><trkpt lat="39.295208978259325" lon="9.27907516486465"><ele>102.0</ele><time>2026-04-08T14:11:07Z</time></trkpt><trkpt lat="39.295153072234534" lon="9.278970635985846"><ele>102.0</ele><time>2026-04-08T14:11:09Z</time></trkpt><trkpt lat="39.295081403680705" lon="9.278858566503049"><ele>102.0</ele><time>2026-04-08T14:11:11Z</time></trkpt><trkpt lat="39.295046952577984" lon="9.278786245571371"><ele>102.0</ele><time>2026-04-08T14:11:12Z</time></trkpt><trkpt lat="39.295020896329476" lon="9.278680806323436"><ele>102.0</ele><time>2026-04-08T14:11:14Z</time></trkpt><trkpt lat="39.29495779885784" lon="9.278546639623347"><ele>102.0</ele><time>2026-04-08T14:11:16Z</time></trkpt><trkpt lat="39.294898507905785" lon="9.27840045850547"><ele>102.0</ele><time>2026-04-08T14:11:18Z</time></trkpt><trkpt lat="39.29487042277723" lon="9.27831184253236"><ele>102.0</ele><time>2026-04-08T14:11:19Z</time></trkpt><trkpt lat="39.29484296441519" lon="9.27823860171198"><ele>102.0</ele><time>2026-04-08T14:11:20Z</time></trkpt><trkpt lat="39.294818539246904" lon="9.27812192721641"><ele>102.0</ele><time>2026-04-08T14:11:22Z</time></trkpt><trkpt lat="39.2947863056473" lon="9.27804982970398"><ele>102.0</ele><time>2026-04-08T14:11:24Z</time></trkpt><trkpt lat="39.2947511754017" lon="9.277946222306678"><ele>101.83333333333333</ele><time>2026-04-08T14:11:26Z</time></trkpt><trkpt lat="39.29471856451283" lon="9.277825578441188"><ele>101.66666666666666</ele><time>2026-04-08T14:11:28Z</time></trkpt><trkpt lat="39.29469636492652" lon="9.277737075830304"><ele>101.5</ele><time>2026-04-08T14:11:29Z</time></trkpt><trkpt lat="39.294666398623804" lon="9.277583463981312"><ele>101.33333333333333</ele><time>2026-04-08T14:11:31Z</time></trkpt><trkpt lat="39.29465736165423" lon="9.277482983069321"><ele>101.16666666666666</ele><time>2026-04-08T14:11:32Z</time></trkpt><trkpt lat="39.294647997418316" lon="9.277384370564357"><ele>101.0</ele><time>2026-04-08T14:11:33Z</time></trkpt><trkpt lat="39.29464406380066" lon="9.27728001162538"><ele>101.16666666666666</ele><time>2026-04-08T14:11:34Z</time></trkpt><trkpt lat="39.29464391645614" lon="9.277171548580284"><ele>101.33333333333333</ele><time>2026-04-08T14:11:35Z</time></trkpt><trkpt lat="39.29463306723403" lon="9.277069338760548"><ele>101.5</ele><time>2026-04-08T14:11:36Z</time></trkpt><trkpt lat="39.29462610615462" lon="9.276962791521541"><ele>101.66666666666666</ele><time>2026-04-08T14:11:37Z</time></trkpt><trkpt lat="39.2946017558297" lon="9.276849579481551"><ele>101.83333333333333</ele><time>2026-04-08T14:11:38Z</time></trkpt><trkpt lat="39.29455930349389" lon="9.276741645669242"><ele>102.0</ele><time>2026-04-08T14:11:39Z</time></trkpt><trkpt lat="39.294540282393015" lon="9.276628966373025"><ele>102.0</ele><time>2026-04-08T14:11:40Z</time></trkpt><trkpt lat="39.29449362336686" lon="9.276528427457793"><ele>102.0</ele><time>2026-04-08T14:11:41Z</time></trkpt><trkpt lat="39.29446119390586" lon="9.27642184627292"><ele>102.0</ele><time>2026-04-08T14:11:42Z</time></trkpt><trkpt lat="39.29443553857057" lon="9.276345453016392"><ele>102.0</ele><time>2026-04-08T14:11:43.001Z</time></trkpt><trkpt lat="39.294397396908444" lon="9.276193794264865"><ele>102.0</ele><time>2026-04-08T14:11:45.001Z</time></trkpt><trkpt lat="39.29435783172641" lon="9.276042443888223"><ele>102.0</ele><time>2026-04-08T14:11:47.001Z</time></trkpt><trkpt lat="39.29432434630595" lon="9.27596418321174"><ele>102.0</ele><time>2026-04-08T14:11:48.001Z</time></trkpt><trkpt lat="39.29427022617073" lon="9.27586586716954"><ele>102.0</ele><time>2026-04-08T14:11:49.001Z</time></trkpt><trkpt lat="39.294199444949996" lon="9.275748684541394"><ele>102.0</ele><time>2026-04-08T14:11:50.001Z</time></trkpt><trkpt lat="39.29414110255728" lon="9.275641687588083"><ele>102.0</ele><time>2026-04-08T14:11:51.001Z</time></trkpt><trkpt lat="39.29411182371462" lon="9.275562085534062"><ele>102.0</ele><time>2026-04-08T14:11:52.001Z</time></trkpt><trkpt lat="39.29407341134246" lon="9.275481298759273"><ele>102.0</ele><time>2026-04-08T14:11:54.001Z</time></trkpt><trkpt lat="39.294055921619865" lon="9.275400207781152"><ele>102.0</ele><time>2026-04-08T14:11:58.001Z</time></trkpt><trkpt lat="39.2941175152506" lon="9.275436754669894"><ele>102.0</ele><time>2026-04-08T14:17:26.001Z</time></trkpt><trkpt lat="39.29420993639596" lon="9.275472039429637"><ele>102.0</ele><time>2026-04-08T14:17:27.001Z</time></trkpt><trkpt lat="39.29432262333939" lon="9.275524728840255"><ele>102.0</ele><time>2026-04-08T14:17:28.001Z</time></trkpt><trkpt lat="39.2944563174363" lon="9.27557688817125"><ele>102.66666666666666</ele><time>2026-04-08T14:17:29.001Z</time></trkpt><trkpt lat="39.29460187118797" lon="9.275651062017895"><ele>103.33333333333333</ele><time>2026-04-08T14:17:30.001Z</time></trkpt><trkpt lat="39.29477442742498" lon="9.275737143852187"><ele>104.0</ele><time>2026-04-08T14:17:31.001Z</time></trkpt><trkpt lat="39.29493673113003" lon="9.27581865834418"><ele>104.0</ele><time>2026-04-08T14:17:32.001Z</time></trkpt><trkpt lat="39.2950854856906" lon="9.275884873131812"><ele>104.0</ele><time>2026-04-08T14:17:33.001Z</time></trkpt><trkpt lat="39.29522094387245" lon="9.275947991484768"><ele>104.0</ele><time>2026-04-08T14:17:34.001Z</time></trkpt><trkpt lat="39.29534164577383" lon="9.276000151043934"><ele>104.0</ele><time>2026-04-08T14:17:35.001Z</time></trkpt><trkpt lat="39.29545151732959" lon="9.276054571950615"><ele>104.0</ele><time>2026-04-08T14:17:36.001Z</time></trkpt><trkpt lat="39.29555715740707" lon="9.276106294571976"><ele>104.0</ele><time>2026-04-08T14:17:37.001Z</time></trkpt><trkpt lat="39.29567885730293" lon="9.276162783506246"><ele>104.0</ele><time>2026-04-08T14:17:38.001Z</time></trkpt><trkpt lat="39.29580290190834" lon="9.276220206187196"><ele>104.0</ele><time>2026-04-08T14:17:39.001Z</time></trkpt><trkpt lat="39.29592920941805" lon="9.27628895413503"><ele>103.75</ele><time>2026-04-08T14:17:40.001Z</time></trkpt><trkpt lat="39.29605098863268" lon="9.276350782002657"><ele>103.5</ele><time>2026-04-08T14:17:41.001Z</time></trkpt><trkpt lat="39.29616191937135" lon="9.276404387598648"><ele>103.25</ele><time>2026-04-08T14:17:42.001Z</time></trkpt><trkpt lat="39.296280020218646" lon="9.276458193516644"><ele>103.0</ele><time>2026-04-08T14:17:43.001Z</time></trkpt><trkpt lat="39.29640081854943" lon="9.276517088967"><ele>103.2</ele><time>2026-04-08T14:17:44.001Z</time></trkpt><trkpt lat="39.29651455971625" lon="9.276574323303981"><ele>103.4</ele><time>2026-04-08T14:17:45.001Z</time></trkpt><trkpt lat="39.29660740479948" lon="9.276615925655534"><ele>103.60000000000001</ele><time>2026-04-08T14:17:46.001Z</time></trkpt><trkpt lat="39.29668338671136" lon="9.276649824192104"><ele>103.80000000000001</ele><time>2026-04-08T14:17:47.001Z</time></trkpt><trkpt lat="39.296768531315266" lon="9.27668635484153"><ele>104.0</ele><time>2026-04-08T14:17:49.001Z</time></trkpt><trkpt lat="39.29686771224951" lon="9.276723531670292"><ele>104.0</ele><time>2026-04-08T14:17:51.001Z</time></trkpt><trkpt lat="39.29697221597155" lon="9.276781018098005"><ele>104.0</ele><time>2026-04-08T14:17:52.001Z</time></trkpt><trkpt lat="39.297101152377806" lon="9.276856793023692"><ele>104.0</ele><time>2026-04-08T14:17:53.001Z</time></trkpt><trkpt lat="39.29723448691777" lon="9.276917012809864"><ele>104.0</ele><time>2026-04-08T14:17:54.001Z</time></trkpt><trkpt lat="39.29738442896649" lon="9.276981228200134"><ele>104.66666666666666</ele><time>2026-04-08T14:17:55.001Z</time></trkpt><trkpt lat="39.2975308022812" lon="9.277054418037773"><ele>105.33333333333334</ele><time>2026-04-08T14:17:56.001Z</time></trkpt><trkpt lat="39.297667579575744" lon="9.2771252034377"><ele>106.0</ele><time>2026-04-08T14:17:57.001Z</time></trkpt><trkpt lat="39.29780584771057" lon="9.277190351564677"><ele>106.0</ele><time>2026-04-08T14:17:58.001Z</time></trkpt><trkpt lat="39.29793149365981" lon="9.277244904961854"><ele>106.0</ele><time>2026-04-08T14:17:59.001Z</time></trkpt><trkpt lat="39.29804206447753" lon="9.277291874462142"><ele>106.0</ele><time>2026-04-08T14:18:00.001Z</time></trkpt><trkpt lat="39.29813065485007" lon="9.277342664738983"><ele>106.0</ele><time>2026-04-08T14:18:01.001Z</time></trkpt><trkpt lat="39.298188271412926" lon="9.277381186904929"><ele>106.0</ele><time>2026-04-08T14:18:02.001Z</time></trkpt><trkpt lat="39.29829710178179" lon="9.27725259791951"><ele>106.33333333333334</ele><time>2026-04-08T14:18:04.001Z</time></trkpt><trkpt lat="39.29837508389488" lon="9.277138626062445"><ele>106.66666666666666</ele><time>2026-04-08T14:18:05.001Z</time></trkpt><trkpt lat="39.29849283286759" lon="9.276995198675294"><ele>107.0</ele><time>2026-04-08T14:18:06.001Z</time></trkpt><trkpt lat="39.29862305493923" lon="9.276827465533755"><ele>107.0</ele><time>2026-04-08T14:18:07.001Z</time></trkpt><trkpt lat="39.29877183423914" lon="9.276634628391488"><ele>107.0</ele><time>2026-04-08T14:18:08.001Z</time></trkpt><trkpt lat="39.29893287249868" lon="9.276425902059561"><ele>107.0</ele><time>2026-04-08T14:18:09.001Z</time></trkpt><trkpt lat="39.29908849784373" lon="9.276220271172036"><ele>108.25</ele><time>2026-04-08T14:18:10.001Z</time></trkpt><trkpt lat="39.29921869399574" lon="9.27604745970631"><ele>109.5</ele><time>2026-04-08T14:18:11.001Z</time></trkpt><trkpt lat="39.29931755155132" lon="9.27591624446309"><ele>110.75</ele><time>2026-04-08T14:18:12.001Z</time></trkpt><trkpt lat="39.299394609542375" lon="9.27581396414126"><ele>112.0</ele><time>2026-04-08T14:18:13.001Z</time></trkpt><trkpt lat="39.299469743224066" lon="9.275714343593416"><ele>112.0</ele><time>2026-04-08T14:18:14.001Z</time></trkpt><trkpt lat="39.299536861528374" lon="9.275625406918124"><ele>111.99999999999999</ele><time>2026-04-08T14:18:15.001Z</time></trkpt><trkpt lat="39.2995851126699" lon="9.275535127480746"><ele>111.99999999999999</ele><time>2026-04-08T14:18:16.001Z</time></trkpt><trkpt lat="39.29965913866108" lon="9.275458234739851"><ele>112.0</ele><time>2026-04-08T14:18:17.001Z</time></trkpt><trkpt lat="39.299743882466345" lon="9.27535854906713"><ele>112.0</ele><time>2026-04-08T14:18:18.001Z</time></trkpt><trkpt lat="39.299826922713876" lon="9.27525501789813"><ele>113.0</ele><time>2026-04-08T14:18:19.001Z</time></trkpt><trkpt lat="39.29990922541419" lon="9.275142103015918"><ele>114.0</ele><time>2026-04-08T14:18:20.001Z</time></trkpt><trkpt lat="39.29998885740316" lon="9.275025809919164"><ele>115.0</ele><time>2026-04-08T14:18:21.001Z</time></trkpt><trkpt lat="39.30008466125687" lon="9.274901540720228"><ele>116.0</ele><time>2026-04-08T14:18:22.001Z</time></trkpt><trkpt lat="39.300189269262546" lon="9.274758426369411"><ele>117.0</ele><time>2026-04-08T14:18:23.001Z</time></trkpt><trkpt lat="39.30029033344563" lon="9.274621660606043"><ele>118.0</ele><time>2026-04-08T14:18:24.001Z</time></trkpt><trkpt lat="39.30038185314595" lon="9.274495554896383"><ele>119.0</ele><time>2026-04-08T14:18:25.001Z</time></trkpt><trkpt lat="39.30046945731173" lon="9.274399841710492"><ele>120.0</ele><time>2026-04-08T14:18:26.001Z</time></trkpt><trkpt lat="39.300563452241526" lon="9.2743192429005"><ele>120.5</ele><time>2026-04-08T14:18:27.001Z</time></trkpt><trkpt lat="39.300687224360445" lon="9.274279078014994"><ele>121.0</ele><time>2026-04-08T14:18:28.001Z</time></trkpt><trkpt lat="39.30082895657542" lon="9.274222658693171"><ele>121.5</ele><time>2026-04-08T14:18:29.001Z</time></trkpt><trkpt lat="39.30096982190313" lon="9.274148436097182"><ele>122.0</ele><time>2026-04-08T14:18:30.001Z</time></trkpt><trkpt lat="39.30110895100535" lon="9.274112520545218"><ele>122.0</ele><time>2026-04-08T14:18:31.001Z</time></trkpt><trkpt lat="39.30122395709104" lon="9.274060935359795"><ele>122.0</ele><time>2026-04-08T14:18:32.001Z</time></trkpt><trkpt lat="39.3013374649119" lon="9.274003562866637"><ele>122.0</ele><time>2026-04-08T14:18:33.001Z</time></trkpt><trkpt lat="39.30146385316971" lon="9.273947551694343"><ele>122.0</ele><time>2026-04-08T14:18:34.001Z</time></trkpt><trkpt lat="39.301593580435174" lon="9.273868839875878"><ele>124.0</ele><time>2026-04-08T14:18:35.001Z</time></trkpt><trkpt lat="39.30172199568814" lon="9.273772997917744"><ele>126.0</ele><time>2026-04-08T14:18:36.001Z</time></trkpt><trkpt lat="39.30186209725166" lon="9.27367203175678"><ele>128.0</ele><time>2026-04-08T14:18:37.001Z</time></trkpt><trkpt lat="39.30202356040429" lon="9.27354774991834"><ele>128.0</ele><time>2026-04-08T14:18:38.001Z</time></trkpt><trkpt lat="39.3022166047475" lon="9.273386951391544"><ele>128.0</ele><time>2026-04-08T14:18:39.001Z</time></trkpt><trkpt lat="39.30243956760718" lon="9.273195907017653"><ele>129.5</ele><time>2026-04-08T14:18:40.001Z</time></trkpt><trkpt lat="39.30268058211523" lon="9.272997603640711"><ele>131.0</ele><time>2026-04-08T14:18:41.001Z</time></trkpt><trkpt lat="39.30290887996718" lon="9.272811390288751"><ele>130.0</ele><time>2026-04-08T14:18:42.001Z</time></trkpt><trkpt lat="39.30311455955068" lon="9.272638785342664"><ele>129.0</ele><time>2026-04-08T14:18:43.002Z</time></trkpt><trkpt lat="39.30331024073147" lon="9.27249332000474"><ele>129.0</ele><time>2026-04-08T14:18:44.002Z</time></trkpt><trkpt lat="39.30348538016312" lon="9.27234750688962"><ele>129.0</ele><time>2026-04-08T14:18:45.002Z</time></trkpt><trkpt lat="39.303657509728794" lon="9.272202690263805"><ele>129.0</ele><time>2026-04-08T14:18:46.002Z</time></trkpt><trkpt lat="39.303824028407384" lon="9.272034545747134"><ele>130.33333333333334</ele><time>2026-04-08T14:18:47.002Z</time></trkpt><trkpt lat="39.303999046592246" lon="9.27188453377621"><ele>131.66666666666669</ele><time>2026-04-08T14:18:48.002Z</time></trkpt><trkpt lat="39.30417649699376" lon="9.27173155164659"><ele>133.0</ele><time>2026-04-08T14:18:49.002Z</time></trkpt><trkpt lat="39.304363683213076" lon="9.27157048600799"><ele>134.33333333333334</ele><time>2026-04-08T14:18:50.002Z</time></trkpt><trkpt lat="39.304550465286425" lon="9.271413572129536"><ele>135.66666666666666</ele><time>2026-04-08T14:18:51.002Z</time></trkpt><trkpt lat="39.30473608552852" lon="9.27126843867729"><ele>137.0</ele><time>2026-04-08T14:18:52.002Z</time></trkpt><trkpt lat="39.30490389504818" lon="9.271118552343678"><ele>137.0</ele><time>2026-04-08T14:18:53.002Z</time></trkpt><trkpt lat="39.30505778903215" lon="9.27096897362306"><ele>137.0</ele><time>2026-04-08T14:18:54.002Z</time></trkpt><trkpt lat="39.30521137610563" lon="9.27083478535142"><ele>137.0</ele><time>2026-04-08T14:18:55.002Z</time></trkpt><trkpt lat="39.30535588017478" lon="9.270712904156406"><ele>138.33333333333331</ele><time>2026-04-08T14:18:56.002Z</time></trkpt><trkpt lat="39.305496668024134" lon="9.270586010500763"><ele>139.66666666666666</ele><time>2026-04-08T14:18:57.002Z</time></trkpt><trkpt lat="39.30563677849728" lon="9.270448757825966"><ele>141.0</ele><time>2026-04-08T14:18:58.002Z</time></trkpt><trkpt lat="39.30578097807393" lon="9.270307637862746"><ele>141.33333333333334</ele><time>2026-04-08T14:18:59.002Z</time></trkpt><trkpt lat="39.30592658343614" lon="9.270172107564527"><ele>141.66666666666669</ele><time>2026-04-08T14:19:00.002Z</time></trkpt><trkpt lat="39.30606557254448" lon="9.27004161253757"><ele>142.0</ele><time>2026-04-08T14:19:01Z</time></trkpt><trkpt lat="39.30619752908687" lon="9.269916686868157"><ele>142.0</ele><time>2026-04-08T14:19:02Z</time></trkpt><trkpt lat="39.30631932951058" lon="9.269791879867986"><ele>142.0</ele><time>2026-04-08T14:19:03Z</time></trkpt><trkpt lat="39.30644569797021" lon="9.269669592782476"><ele>142.0</ele><time>2026-04-08T14:19:04Z</time></trkpt><trkpt lat="39.306569370669514" lon="9.269549485407799"><ele>143.0</ele><time>2026-04-08T14:19:05Z</time></trkpt><trkpt lat="39.306690481990266" lon="9.269424819645758"><ele>144.0</ele><time>2026-04-08T14:19:06Z</time></trkpt><trkpt lat="39.306815802949494" lon="9.2692990881232"><ele>145.0</ele><time>2026-04-08T14:19:07Z</time></trkpt><trkpt lat="39.30694424991796" lon="9.269173156241756"><ele>145.0</ele><time>2026-04-08T14:19:08Z</time></trkpt><trkpt lat="39.30707223284846" lon="9.269056208076348"><ele>145.0</ele><time>2026-04-08T14:19:09Z</time></trkpt><trkpt lat="39.3072076449796" lon="9.268934671533"><ele>145.0</ele><time>2026-04-08T14:19:10Z</time></trkpt><trkpt lat="39.30735776454402" lon="9.268843444080884"><ele>146.33333333333334</ele><time>2026-04-08T14:19:11Z</time></trkpt><trkpt lat="39.30750234124774" lon="9.268742351052765"><ele>147.66666666666666</ele><time>2026-04-08T14:19:12Z</time></trkpt><trkpt lat="39.30764604326116" lon="9.268628517676039"><ele>149.0</ele><time>2026-04-08T14:19:13Z</time></trkpt><trkpt lat="39.30779363909449" lon="9.268533812369279"><ele>149.0</ele><time>2026-04-08T14:19:14Z</time></trkpt><trkpt lat="39.30793094118095" lon="9.26844903223726"><ele>149.0</ele><time>2026-04-08T14:19:15Z</time></trkpt><trkpt lat="39.30804940173765" lon="9.268360773580037"><ele>149.0</ele><time>2026-04-08T14:19:16Z</time></trkpt><trkpt lat="39.308166400846" lon="9.268285552313522"><ele>149.0</ele><time>2026-04-08T14:19:17Z</time></trkpt><trkpt lat="39.308281091229446" lon="9.268214788413976"><ele>148.5</ele><time>2026-04-08T14:19:18Z</time></trkpt><trkpt lat="39.30838665065366" lon="9.268149581130242"><ele>148.0</ele><time>2026-04-08T14:19:19Z</time></trkpt><trkpt lat="39.30847917614319" lon="9.268089945312138"><ele>147.5</ele><time>2026-04-08T14:19:20Z</time></trkpt><trkpt lat="39.308583205507894" lon="9.268039338130789"><ele>147.0</ele><time>2026-04-08T14:19:21Z</time></trkpt><trkpt lat="39.30871002892127" lon="9.268024343267783"><ele>148.66666666666666</ele><time>2026-04-08T14:19:22Z</time></trkpt><trkpt lat="39.30884550825136" lon="9.267977167737099"><ele>150.33333333333331</ele><time>2026-04-08T14:19:23Z</time></trkpt><trkpt lat="39.30899467548463" lon="9.267922091447703"><ele>152.0</ele><time>2026-04-08T14:19:24Z</time></trkpt><trkpt lat="39.30914268270816" lon="9.267844368003594"><ele>152.0</ele><time>2026-04-08T14:19:25Z</time></trkpt><trkpt lat="39.309307804164625" lon="9.267783593726561"><ele>152.0</ele><time>2026-04-08T14:19:26Z</time></trkpt><trkpt lat="39.309474959446725" lon="9.267724232918278"><ele>152.0</ele><time>2026-04-08T14:19:27Z</time></trkpt><trkpt lat="39.30963900094362" lon="9.267659632599115"><ele>152.66666666666666</ele><time>2026-04-08T14:19:28Z</time></trkpt><trkpt lat="39.30979801188443" lon="9.267601441355104"><ele>153.33333333333334</ele><time>2026-04-08T14:19:29Z</time></trkpt><trkpt lat="39.30994160227956" lon="9.267547162210848"><ele>154.0</ele><time>2026-04-08T14:19:30Z</time></trkpt><trkpt lat="39.31007688859973" lon="9.267497545845607"><ele>154.0</ele><time>2026-04-08T14:19:31Z</time></trkpt><trkpt lat="39.310224749901074" lon="9.267432615638915"><ele>154.0</ele><time>2026-04-08T14:19:32Z</time></trkpt><trkpt lat="39.31038876415491" lon="9.267359241476226"><ele>154.0</ele><time>2026-04-08T14:19:33Z</time></trkpt><trkpt lat="39.31055564527637" lon="9.26728528354704"><ele>155.66666666666669</ele><time>2026-04-08T14:19:34Z</time></trkpt><trkpt lat="39.31071393681453" lon="9.267215586496237"><ele>157.33333333333334</ele><time>2026-04-08T14:19:35Z</time></trkpt><trkpt lat="39.31085455365197" lon="9.267152755209517"><ele>159.0</ele><time>2026-04-08T14:19:36Z</time></trkpt><trkpt lat="39.31099574489009" lon="9.267091914759808"><ele>159.0</ele><time>2026-04-08T14:19:37Z</time></trkpt><trkpt lat="39.31113902088408" lon="9.267023337275836"><ele>159.0</ele><time>2026-04-08T14:19:38Z</time></trkpt><trkpt lat="39.31127601226501" lon="9.266954229489654"><ele>159.0</ele><time>2026-04-08T14:19:39Z</time></trkpt><trkpt lat="39.31139179070366" lon="9.26689694550723"><ele>159.0</ele><time>2026-04-08T14:19:40Z</time></trkpt><trkpt lat="39.3114866280363" lon="9.266847307686392"><ele>159.33333333333334</ele><time>2026-04-08T14:19:41Z</time></trkpt><trkpt lat="39.31157996899781" lon="9.266811570903425"><ele>159.66666666666666</ele><time>2026-04-08T14:19:42Z</time></trkpt><trkpt lat="39.311660500670484" lon="9.266766153423385"><ele>160.0</ele><time>2026-04-08T14:19:43Z</time></trkpt><trkpt lat="39.311736830726126" lon="9.266738020359911"><ele>160.33333333333331</ele><time>2026-04-08T14:19:44Z</time></trkpt><trkpt lat="39.31180211410172" lon="9.266717912939423"><ele>160.66666666666666</ele><time>2026-04-08T14:19:45Z</time></trkpt><trkpt lat="39.31186335974867" lon="9.266694815528666"><ele>161.0</ele><time>2026-04-08T14:19:46Z</time></trkpt><trkpt lat="39.31194360333528" lon="9.266588629853086"><ele>162.25</ele><time>2026-04-08T14:19:48Z</time></trkpt><trkpt lat="39.31189943741385" lon="9.266429271401812"><ele>163.5</ele><time>2026-04-08T14:19:50Z</time></trkpt><trkpt lat="39.31183789205585" lon="9.266306587704193"><ele>164.75</ele><time>2026-04-08T14:19:51Z</time></trkpt><trkpt lat="39.31178321036465" lon="9.26613423336641"><ele>166.0</ele><time>2026-04-08T14:19:52Z</time></trkpt><trkpt lat="39.31174128371944" lon="9.265932373904212"><ele>166.0</ele><time>2026-04-08T14:19:53Z</time></trkpt><trkpt lat="39.31170722354894" lon="9.265716368287404"><ele>166.0</ele><time>2026-04-08T14:19:54Z</time></trkpt><trkpt lat="39.31167581656326" lon="9.26552547504624"><ele>166.0</ele><time>2026-04-08T14:19:55Z</time></trkpt><trkpt lat="39.311644389000584" lon="9.265363634788157"><ele>166.8</ele><time>2026-04-08T14:19:56Z</time></trkpt><trkpt lat="39.31161771047003" lon="9.265217603767645"><ele>167.60000000000002</ele><time>2026-04-08T14:19:57Z</time></trkpt><trkpt lat="39.311586766986665" lon="9.265098872674068"><ele>168.4</ele><time>2026-04-08T14:19:58Z</time></trkpt><trkpt lat="39.311553962971416" lon="9.26499688502751"><ele>169.2</ele><time>2026-04-08T14:19:59Z</time></trkpt><trkpt lat="39.31152723235423" lon="9.264901105014374"><ele>170.0</ele><time>2026-04-08T14:20:00Z</time></trkpt><trkpt lat="39.311506137059176" lon="9.264807902960515"><ele>170.5</ele><time>2026-04-08T14:20:01Z</time></trkpt><trkpt lat="39.311490747506795" lon="9.264715982700151"><ele>171.0</ele><time>2026-04-08T14:20:02Z</time></trkpt><trkpt lat="39.31148913074548" lon="9.264617597134917"><ele>171.5</ele><time>2026-04-08T14:20:03Z</time></trkpt><trkpt lat="39.311505882223976" lon="9.264507100514995"><ele>172.0</ele><time>2026-04-08T14:20:04Z</time></trkpt><trkpt lat="39.311554032987694" lon="9.26442357112507"><ele>172.5</ele><time>2026-04-08T14:20:05Z</time></trkpt><trkpt lat="39.31163894465326" lon="9.26438315325054"><ele>173.0</ele><time>2026-04-08T14:20:06Z</time></trkpt><trkpt lat="39.311728039378984" lon="9.264320437934293"><ele>173.0</ele><time>2026-04-08T14:20:07Z</time></trkpt><trkpt lat="39.311834583935884" lon="9.264273915601564"><ele>173.0</ele><time>2026-04-08T14:20:08Z</time></trkpt><trkpt lat="39.311946197146916" lon="9.264215342342661"><ele>173.0</ele><time>2026-04-08T14:20:09Z</time></trkpt><trkpt lat="39.31206451482318" lon="9.264152437640096"><ele>173.0</ele><time>2026-04-08T14:20:10.001Z</time></trkpt><trkpt lat="39.31218688611116" lon="9.26408233549746"><ele>174.75</ele><time>2026-04-08T14:20:11.001Z</time></trkpt><trkpt lat="39.31231418877629" lon="9.264024790945111"><ele>176.5</ele><time>2026-04-08T14:20:12.001Z</time></trkpt><trkpt lat="39.312457379042705" lon="9.263988377807673"><ele>178.25</ele><time>2026-04-08T14:20:13.001Z</time></trkpt><trkpt lat="39.3126170873553" lon="9.26397426016911"><ele>180.0</ele><time>2026-04-08T14:20:14.001Z</time></trkpt><trkpt lat="39.312762972971754" lon="9.263977218958571"><ele>180.0</ele><time>2026-04-08T14:20:15.001Z</time></trkpt><trkpt lat="39.31288384864602" lon="9.26399170729246"><ele>180.0</ele><time>2026-04-08T14:20:16.001Z</time></trkpt><trkpt lat="39.31301362906786" lon="9.263997781579812"><ele>180.0</ele><time>2026-04-08T14:20:17.001Z</time></trkpt><trkpt lat="39.31314926345477" lon="9.264004943258323"><ele>180.0</ele><time>2026-04-08T14:20:18.001Z</time></trkpt><trkpt lat="39.31328816497205" lon="9.264021432143604"><ele>181.66666666666666</ele><time>2026-04-08T14:20:19.001Z</time></trkpt><trkpt lat="39.31343039265254" lon="9.264023598026624"><ele>183.33333333333331</ele><time>2026-04-08T14:20:20.001Z</time></trkpt><trkpt lat="39.31358856648427" lon="9.264030469975618"><ele>185.0</ele><time>2026-04-08T14:20:21.001Z</time></trkpt><trkpt lat="39.31375264786466" lon="9.264048800300761"><ele>186.0</ele><time>2026-04-08T14:20:22.001Z</time></trkpt><trkpt lat="39.31393041430357" lon="9.264052316185825"><ele>187.0</ele><time>2026-04-08T14:20:23.001Z</time></trkpt><trkpt lat="39.31410908843762" lon="9.264058213746651"><ele>188.0</ele><time>2026-04-08T14:20:24.001Z</time></trkpt><trkpt lat="39.31427113381922" lon="9.264062525830774"><ele>188.0</ele><time>2026-04-08T14:20:25.001Z</time></trkpt><trkpt lat="39.31442413834948" lon="9.264066002839344"><ele>188.0</ele><time>2026-04-08T14:20:26.001Z</time></trkpt><trkpt lat="39.31458254594011" lon="9.264068422154754"><ele>188.0</ele><time>2026-04-08T14:20:27.001Z</time></trkpt><trkpt lat="39.31475851910043" lon="9.264062377052012"><ele>190.33333333333331</ele><time>2026-04-08T14:20:28.001Z</time></trkpt><trkpt lat="39.31494640567441" lon="9.264056726896845"><ele>192.66666666666666</ele><time>2026-04-08T14:20:29.001Z</time></trkpt><trkpt lat="39.315127432086555" lon="9.264051827459763"><ele>195.0</ele><time>2026-04-08T14:20:30.001Z</time></trkpt><trkpt lat="39.31529395851659" lon="9.264046905971693"><ele>195.0</ele><time>2026-04-08T14:20:31.001Z</time></trkpt><trkpt lat="39.31545504989697" lon="9.264039596009075"><ele>195.0</ele><time>2026-04-08T14:20:32.001Z</time></trkpt><trkpt lat="39.31561768300546" lon="9.264033492687505"><ele>195.0</ele><time>2026-04-08T14:20:33.001Z</time></trkpt><trkpt lat="39.31576837489346" lon="9.264028370240675"><ele>195.75</ele><time>2026-04-08T14:20:34.001Z</time></trkpt><trkpt lat="39.31590093341889" lon="9.26402182066788"><ele>196.5</ele><time>2026-04-08T14:20:35.001Z</time></trkpt><trkpt lat="39.31602695186018" lon="9.264014697548427"><ele>197.25</ele><time>2026-04-08T14:20:36.001Z</time></trkpt><trkpt lat="39.31615338426346" lon="9.264007131196895"><ele>198.0</ele><time>2026-04-08T14:20:37.001Z</time></trkpt><trkpt lat="39.31627103552861" lon="9.26399681534985"><ele>198.0</ele><time>2026-04-08T14:20:38.001Z</time></trkpt><trkpt lat="39.31638014010349" lon="9.263992363850186"><ele>198.0</ele><time>2026-04-08T14:20:39.001Z</time></trkpt><trkpt lat="39.31646800993155" lon="9.263974987302674"><ele>198.0</ele><time>2026-04-08T14:20:40.001Z</time></trkpt><trkpt lat="39.31654850406075" lon="9.263968918747878"><ele>198.0</ele><time>2026-04-08T14:20:41.001Z</time></trkpt><trkpt lat="39.3166245902623" lon="9.263962303131974"><ele>198.0</ele><time>2026-04-08T14:20:42.001Z</time></trkpt><trkpt lat="39.31669795727954" lon="9.263957086575838"><ele>198.0</ele><time>2026-04-08T14:20:43.001Z</time></trkpt><trkpt lat="39.31676471080309" lon="9.263952185256349"><ele>198.0</ele><time>2026-04-08T14:20:44.001Z</time></trkpt><trkpt lat="39.3168598646518" lon="9.263925855900945"><ele>198.0</ele><time>2026-04-08T14:20:46.001Z</time></trkpt><trkpt lat="39.316958705137345" lon="9.263884678449783"><ele>198.0</ele><time>2026-04-08T14:20:48.001Z</time></trkpt><trkpt lat="39.31704847914332" lon="9.263870933803501"><ele>198.0</ele><time>2026-04-08T14:20:50.001Z</time></trkpt><trkpt lat="39.31708959536546" lon="9.263969352930584"><ele>198.0</ele><time>2026-04-08T14:20:51.001Z</time></trkpt><trkpt lat="39.3171526012732" lon="9.264045156975545"><ele>199.33333333333331</ele><time>2026-04-08T14:20:52.001Z</time></trkpt><trkpt lat="39.31725539887547" lon="9.26413912180871"><ele>200.66666666666666</ele><time>2026-04-08T14:20:53.001Z</time></trkpt><trkpt lat="39.317389133205154" lon="9.264236009313873"><ele>202.0</ele><time>2026-04-08T14:20:54.001Z</time></trkpt><trkpt lat="39.3175579473256" lon="9.264330778701714"><ele>202.0</ele><time>2026-04-08T14:20:55.001Z</time></trkpt><trkpt lat="39.31772849242688" lon="9.264440985835968"><ele>202.0</ele><time>2026-04-08T14:20:56.001Z</time></trkpt><trkpt lat="39.31787905608343" lon="9.264521945011637"><ele>202.0</ele><time>2026-04-08T14:20:57.001Z</time></trkpt><trkpt lat="39.31800890295792" lon="9.264610082621578"><ele>202.75</ele><time>2026-04-08T14:20:58.001Z</time></trkpt><trkpt lat="39.31813399084177" lon="9.264683931404596"><ele>203.5</ele><time>2026-04-08T14:20:59.001Z</time></trkpt><trkpt lat="39.318259249458606" lon="9.264767258598793"><ele>204.25</ele><time>2026-04-08T14:21:00.001Z</time></trkpt><trkpt lat="39.31838536569111" lon="9.26485174446449"><ele>205.0</ele><time>2026-04-08T14:21:01.001Z</time></trkpt><trkpt lat="39.31851360927998" lon="9.264933653168194"><ele>203.5</ele><time>2026-04-08T14:21:02.001Z</time></trkpt><trkpt lat="39.318651661118025" lon="9.265013103805389"><ele>202.0</ele><time>2026-04-08T14:21:03.001Z</time></trkpt><trkpt lat="39.31878501912288" lon="9.265093800822818"><ele>200.5</ele><time>2026-04-08T14:21:04.001Z</time></trkpt><trkpt lat="39.318900884361824" lon="9.265166016944217"><ele>199.0</ele><time>2026-04-08T14:21:05.001Z</time></trkpt><trkpt lat="39.319018176781356" lon="9.265238333697889"><ele>199.0</ele><time>2026-04-08T14:21:06.001Z</time></trkpt><trkpt lat="39.31914620208114" lon="9.265307837473458"><ele>199.0</ele><time>2026-04-08T14:21:06.999Z</time></trkpt><trkpt lat="39.319271519977256" lon="9.265379611357533"><ele>199.0</ele><time>2026-04-08T14:21:07.999Z</time></trkpt><trkpt lat="39.319400031022084" lon="9.265461166985338"><ele>199.0</ele><time>2026-04-08T14:21:08.999Z</time></trkpt><trkpt lat="39.31952837215925" lon="9.265538396486377"><ele>198.5</ele><time>2026-04-08T14:21:09.999Z</time></trkpt><trkpt lat="39.31966095280232" lon="9.265618379115004"><ele>198.0</ele><time>2026-04-08T14:21:10.999Z</time></trkpt><trkpt lat="39.319784740334946" lon="9.265689308661333"><ele>197.5</ele><time>2026-04-08T14:21:11.999Z</time></trkpt><trkpt lat="39.31989805449106" lon="9.26575935804296"><ele>197.0</ele><time>2026-04-08T14:21:12.999Z</time></trkpt><trkpt lat="39.320007212345594" lon="9.265833162928931"><ele>197.0</ele><time>2026-04-08T14:21:13.999Z</time></trkpt><trkpt lat="39.32010884176804" lon="9.265904119463771"><ele>197.0</ele><time>2026-04-08T14:21:14.999Z</time></trkpt><trkpt lat="39.32020009742951" lon="9.266008537611253"><ele>197.0</ele><time>2026-04-08T14:21:15.999Z</time></trkpt><trkpt lat="39.32029131261041" lon="9.266099523837177"><ele>197.0</ele><time>2026-04-08T14:21:16.999Z</time></trkpt><trkpt lat="39.320370118652924" lon="9.266186594744534"><ele>197.0</ele><time>2026-04-08T14:21:17.999Z</time></trkpt><trkpt lat="39.32043537891537" lon="9.266263531909049"><ele>197.0</ele><time>2026-04-08T14:21:18.999Z</time></trkpt><trkpt lat="39.320498095401106" lon="9.266339829881932"><ele>197.0</ele><time>2026-04-08T14:21:19.999Z</time></trkpt><trkpt lat="39.32056574054517" lon="9.266430357228845"><ele>197.0</ele><time>2026-04-08T14:21:20.999Z</time></trkpt><trkpt lat="39.320645368492364" lon="9.266521548619673"><ele>197.0</ele><time>2026-04-08T14:21:21.999Z</time></trkpt><trkpt lat="39.32069493740376" lon="9.26662546714053"><ele>197.8</ele><time>2026-04-08T14:21:22.999Z</time></trkpt><trkpt lat="39.320741288307794" lon="9.266703026445596"><ele>198.6</ele><time>2026-04-08T14:21:23.999Z</time></trkpt><trkpt lat="39.320823395721675" lon="9.266839821085787"><ele>199.4</ele><time>2026-04-08T14:21:26Z</time></trkpt><trkpt lat="39.32089595691105" lon="9.266874593337793"><ele>200.20000000000002</ele><time>2026-04-08T14:21:27Z</time></trkpt><trkpt lat="39.320972666599694" lon="9.266917821975161"><ele>201.0</ele><time>2026-04-08T14:21:28Z</time></trkpt><trkpt lat="39.321070334504" lon="9.266960087377132"><ele>201.0</ele><time>2026-04-08T14:21:29Z</time></trkpt><trkpt lat="39.32118174339481" lon="9.266995439499501"><ele>201.0</ele><time>2026-04-08T14:21:30Z</time></trkpt><trkpt lat="39.321282550008675" lon="9.267018111489305"><ele>201.0</ele><time>2026-04-08T14:21:31Z</time></trkpt><trkpt lat="39.321384108247564" lon="9.267018152607784"><ele>201.0</ele><time>2026-04-08T14:21:32Z</time></trkpt><trkpt lat="39.3214855673672" lon="9.267004692268404"><ele>201.0</ele><time>2026-04-08T14:21:33Z</time></trkpt><trkpt lat="39.32157725866806" lon="9.266991151427026"><ele>202.60000000000002</ele><time>2026-04-08T14:21:34Z</time></trkpt><trkpt lat="39.321648942021696" lon="9.26698197584113"><ele>204.2</ele><time>2026-04-08T14:21:35Z</time></trkpt><trkpt lat="39.32177038835685" lon="9.267037814442018"><ele>205.8</ele><time>2026-04-08T14:21:37Z</time></trkpt><trkpt lat="39.3218443983297" lon="9.267092443309489"><ele>207.39999999999998</ele><time>2026-04-08T14:21:38Z</time></trkpt><trkpt lat="39.321927767704366" lon="9.26715653921103"><ele>209.0</ele><time>2026-04-08T14:21:39Z</time></trkpt><trkpt lat="39.32204438204042" lon="9.267238306864552"><ele>209.0</ele><time>2026-04-08T14:21:40Z</time></trkpt><trkpt lat="39.32214366142542" lon="9.267273137485175"><ele>209.0</ele><time>2026-04-08T14:21:41Z</time></trkpt><trkpt lat="39.32223837002243" lon="9.267319231369186"><ele>209.0</ele><time>2026-04-08T14:21:42Z</time></trkpt><trkpt lat="39.32233616395087" lon="9.267362208473752"><ele>209.0</ele><time>2026-04-08T14:21:43Z</time></trkpt><trkpt lat="39.322432797180554" lon="9.267409967701077"><ele>209.0</ele><time>2026-04-08T14:21:44Z</time></trkpt><trkpt lat="39.32254832260548" lon="9.267455202852483"><ele>209.0</ele><time>2026-04-08T14:21:45Z</time></trkpt><trkpt lat="39.32264759774704" lon="9.267497197891448"><ele>209.0</ele><time>2026-04-08T14:21:46Z</time></trkpt><trkpt lat="39.32275331055241" lon="9.267552145975882"><ele>209.0</ele><time>2026-04-08T14:21:47Z</time></trkpt><trkpt lat="39.322876542535504" lon="9.267610370177366"><ele>209.0</ele><time>2026-04-08T14:21:48Z</time></trkpt><trkpt lat="39.323001251790316" lon="9.267673105958384"><ele>211.0</ele><time>2026-04-08T14:21:49Z</time></trkpt><trkpt lat="39.323125173370805" lon="9.26773185173003"><ele>213.0</ele><time>2026-04-08T14:21:50Z</time></trkpt><trkpt lat="39.32323241842319" lon="9.267781009333914"><ele>215.0</ele><time>2026-04-08T14:21:51Z</time></trkpt><trkpt lat="39.32333324054583" lon="9.267825481704863"><ele>217.0</ele><time>2026-04-08T14:21:52Z</time></trkpt><trkpt lat="39.323433441859756" lon="9.267865604726405"><ele>217.0</ele><time>2026-04-08T14:21:53Z</time></trkpt><trkpt lat="39.323524865840994" lon="9.26790128523963"><ele>217.0</ele><time>2026-04-08T14:21:54Z</time></trkpt><trkpt lat="39.323611826873616" lon="9.26794394230232"><ele>217.0</ele><time>2026-04-08T14:21:55Z</time></trkpt><trkpt lat="39.323689239952635" lon="9.268005149877908"><ele>217.0</ele><time>2026-04-08T14:21:56Z</time></trkpt><trkpt lat="39.32376998306381" lon="9.268057463026894"><ele>217.0</ele><time>2026-04-08T14:21:57Z</time></trkpt><trkpt lat="39.32384681175328" lon="9.268119995103008"><ele>217.0</ele><time>2026-04-08T14:21:58Z</time></trkpt><trkpt lat="39.32393213307466" lon="9.268188291085261"><ele>217.0</ele><time>2026-04-08T14:21:59Z</time></trkpt><trkpt lat="39.32402451960879" lon="9.268231900993497"><ele>217.0</ele><time>2026-04-08T14:22:00Z</time></trkpt><trkpt lat="39.32410702776007" lon="9.268263975387345"><ele>217.0</ele><time>2026-04-08T14:22:01Z</time></trkpt><trkpt lat="39.32419005690458" lon="9.268277147571828"><ele>217.0</ele><time>2026-04-08T14:22:02Z</time></trkpt><trkpt lat="39.32428809975951" lon="9.268277487562651"><ele>217.0</ele><time>2026-04-08T14:22:03Z</time></trkpt><trkpt lat="39.324394989417286" lon="9.26827226687235"><ele>217.0</ele><time>2026-04-08T14:22:04Z</time></trkpt><trkpt lat="39.32449486470135" lon="9.268263007491441"><ele>217.0</ele><time>2026-04-08T14:22:05Z</time></trkpt><trkpt lat="39.32458380284588" lon="9.268252413073368"><ele>217.0</ele><time>2026-04-08T14:22:06Z</time></trkpt><trkpt lat="39.32467584142576" lon="9.26822191310464"><ele>217.0</ele><time>2026-04-08T14:22:07Z</time></trkpt><trkpt lat="39.32476252824154" lon="9.268173685435354"><ele>219.25</ele><time>2026-04-08T14:22:08Z</time></trkpt><trkpt lat="39.32484646204482" lon="9.268096704172052"><ele>221.5</ele><time>2026-04-08T14:22:09Z</time></trkpt><trkpt lat="39.324954255573054" lon="9.26799394954917"><ele>223.75</ele><time>2026-04-08T14:22:10Z</time></trkpt><trkpt lat="39.32505270755243" lon="9.267914425773537"><ele>226.0</ele><time>2026-04-08T14:22:11Z</time></trkpt><trkpt lat="39.32515258311489" lon="9.26783351727943"><ele>226.0</ele><time>2026-04-08T14:22:12Z</time></trkpt><trkpt lat="39.32524884180671" lon="9.267765510449227"><ele>226.00000000000003</ele><time>2026-04-08T14:22:13Z</time></trkpt><trkpt lat="39.325341217331115" lon="9.267702945681357"><ele>226.00000000000003</ele><time>2026-04-08T14:22:14Z</time></trkpt><trkpt lat="39.32542318320767" lon="9.26764651777479"><ele>226.0</ele><time>2026-04-08T14:22:15Z</time></trkpt><trkpt lat="39.325488780213085" lon="9.26759364846659"><ele>226.0</ele><time>2026-04-08T14:22:16Z</time></trkpt><trkpt lat="39.32555704305693" lon="9.267537528598956"><ele>226.66666666666666</ele><time>2026-04-08T14:22:17Z</time></trkpt><trkpt lat="39.325624957376256" lon="9.267489862006817"><ele>227.33333333333331</ele><time>2026-04-08T14:22:18Z</time></trkpt><trkpt lat="39.32574179279985" lon="9.267438938466428"><ele>228.0</ele><time>2026-04-08T14:22:20Z</time></trkpt><trkpt lat="39.3258074765655" lon="9.267464874867786"><ele>228.66666666666669</ele><time>2026-04-08T14:22:21Z</time></trkpt><trkpt lat="39.32589115687334" lon="9.267448374057736"><ele>229.33333333333334</ele><time>2026-04-08T14:22:22Z</time></trkpt><trkpt lat="39.32597102667853" lon="9.267442658349664"><ele>230.0</ele><time>2026-04-08T14:22:23Z</time></trkpt><trkpt lat="39.32604544277049" lon="9.267410491311434"><ele>230.00000000000003</ele><time>2026-04-08T14:22:24Z</time></trkpt><trkpt lat="39.32610587804726" lon="9.267361486607761"><ele>230.0</ele><time>2026-04-08T14:22:25Z</time></trkpt><trkpt lat="39.326171404834184" lon="9.267289121180513"><ele>230.0</ele><time>2026-04-08T14:22:26.001Z</time></trkpt><trkpt lat="39.32623978111363" lon="9.267193048431569"><ele>230.0</ele><time>2026-04-08T14:22:27.001Z</time></trkpt><trkpt lat="39.32631852232986" lon="9.267103302408264"><ele>230.00000000000003</ele><time>2026-04-08T14:22:28.001Z</time></trkpt><trkpt lat="39.32638994061999" lon="9.267043766525514"><ele>230.0</ele><time>2026-04-08T14:22:29.001Z</time></trkpt><trkpt lat="39.32651014249855" lon="9.266990091288754"><ele>231.66666666666669</ele><time>2026-04-08T14:22:31.001Z</time></trkpt><trkpt lat="39.326579291606336" lon="9.266991663208078"><ele>233.33333333333334</ele><time>2026-04-08T14:22:32.001Z</time></trkpt><trkpt lat="39.32663572919304" lon="9.267066878386022"><ele>235.0</ele><time>2026-04-08T14:22:33.001Z</time></trkpt><trkpt lat="39.32671420586745" lon="9.267121440977538"><ele>236.66666666666669</ele><time>2026-04-08T14:22:34.001Z</time></trkpt><trkpt lat="39.326786899866086" lon="9.267189602588722"><ele>238.33333333333334</ele><time>2026-04-08T14:22:35.001Z</time></trkpt><trkpt lat="39.32686405534134" lon="9.267267332919301"><ele>240.0</ele><time>2026-04-08T14:22:36.001Z</time></trkpt><trkpt lat="39.326944241472525" lon="9.267365292467371"><ele>240.0</ele><time>2026-04-08T14:22:37.001Z</time></trkpt><trkpt lat="39.32703828541293" lon="9.26743762088532"><ele>240.0</ele><time>2026-04-08T14:22:38.001Z</time></trkpt><trkpt lat="39.327119020649434" lon="9.267515801883645"><ele>240.0</ele><time>2026-04-08T14:22:39.001Z</time></trkpt><trkpt lat="39.32719831203987" lon="9.267612384054"><ele>240.0</ele><time>2026-04-08T14:22:40.001Z</time></trkpt><trkpt lat="39.32728906642376" lon="9.26769196982897"><ele>240.0</ele><time>2026-04-08T14:22:41.001Z</time></trkpt><trkpt lat="39.327365553804746" lon="9.267766913391776"><ele>241.8</ele><time>2026-04-08T14:22:42.001Z</time></trkpt><trkpt lat="39.32744679267324" lon="9.26785972524776"><ele>243.6</ele><time>2026-04-08T14:22:43.001Z</time></trkpt><trkpt lat="39.32750228335503" lon="9.267952685747465"><ele>245.39999999999998</ele><time>2026-04-08T14:22:44.001Z</time></trkpt><trkpt lat="39.3275460909301" lon="9.268054859605696"><ele>247.2</ele><time>2026-04-08T14:22:45.001Z</time></trkpt><trkpt lat="39.3276060104343" lon="9.268169935202623"><ele>249.0</ele><time>2026-04-08T14:22:46.001Z</time></trkpt><trkpt lat="39.32765826457682" lon="9.268265018767563"><ele>249.0</ele><time>2026-04-08T14:22:47.001Z</time></trkpt><trkpt lat="39.32772039565526" lon="9.268315575435404"><ele>248.99999999999997</ele><time>2026-04-08T14:22:48.001Z</time></trkpt><trkpt lat="39.32780673375589" lon="9.26830479817137"><ele>248.99999999999997</ele><time>2026-04-08T14:22:49.001Z</time></trkpt><trkpt lat="39.3278891130249" lon="9.268313048136893"><ele>249.0</ele><time>2026-04-08T14:22:50.001Z</time></trkpt><trkpt lat="39.32799819161996" lon="9.2683500101397"><ele>249.0</ele><time>2026-04-08T14:22:51.001Z</time></trkpt><trkpt lat="39.32811903160981" lon="9.268373563325717"><ele>251.0</ele><time>2026-04-08T14:22:52.001Z</time></trkpt><trkpt lat="39.328237687671546" lon="9.268403690578142"><ele>253.0</ele><time>2026-04-08T14:22:53.001Z</time></trkpt><trkpt lat="39.3283654628977" lon="9.268442403264212"><ele>255.0</ele><time>2026-04-08T14:22:54.001Z</time></trkpt><trkpt lat="39.3284863162116" lon="9.268473275706251"><ele>257.0</ele><time>2026-04-08T14:22:55.001Z</time></trkpt><trkpt lat="39.32859625750304" lon="9.26847626609188"><ele>257.0</ele><time>2026-04-08T14:22:56.001Z</time></trkpt><trkpt lat="39.32869199716767" lon="9.268482941893149"><ele>257.0</ele><time>2026-04-08T14:22:57.001Z</time></trkpt><trkpt lat="39.328789202452256" lon="9.268465295818444"><ele>257.0</ele><time>2026-04-08T14:22:58.001Z</time></trkpt><trkpt lat="39.32887916475455" lon="9.268441538966261"><ele>257.0</ele><time>2026-04-08T14:22:59.001Z</time></trkpt><trkpt lat="39.328974014387455" lon="9.268397955724371"><ele>257.0</ele><time>2026-04-08T14:23:00.001Z</time></trkpt><trkpt lat="39.32907284631875" lon="9.268350041558763"><ele>258.8</ele><time>2026-04-08T14:23:01.001Z</time></trkpt><trkpt lat="39.32916930468579" lon="9.268331958193855"><ele>260.6</ele><time>2026-04-08T14:23:02.001Z</time></trkpt><trkpt lat="39.32926587039173" lon="9.268283976351183"><ele>262.40000000000003</ele><time>2026-04-08T14:23:03.001Z</time></trkpt><trkpt lat="39.32936203948275" lon="9.268253880157376"><ele>264.2</ele><time>2026-04-08T14:23:04.001Z</time></trkpt><trkpt lat="39.32949561681888" lon="9.268220018721044"><ele>266.0</ele><time>2026-04-08T14:23:05.001Z</time></trkpt><trkpt lat="39.32962154356869" lon="9.268166876583319"><ele>267.0</ele><time>2026-04-08T14:23:06.001Z</time></trkpt><trkpt lat="39.32973218290155" lon="9.26812562713346"><ele>268.0</ele><time>2026-04-08T14:23:07.001Z</time></trkpt><trkpt lat="39.329839325583784" lon="9.268096864179094"><ele>269.0</ele><time>2026-04-08T14:23:08.001Z</time></trkpt><trkpt lat="39.329945233453444" lon="9.268083610251427"><ele>270.0</ele><time>2026-04-08T14:23:09.001Z</time></trkpt><trkpt lat="39.3300418594628" lon="9.2680810455656"><ele>271.0</ele><time>2026-04-08T14:23:10.001Z</time></trkpt><trkpt lat="39.33014347869146" lon="9.268089847045022"><ele>271.0</ele><time>2026-04-08T14:23:11.001Z</time></trkpt><trkpt lat="39.33024560683736" lon="9.268112467536863"><ele>271.0</ele><time>2026-04-08T14:23:12.001Z</time></trkpt><trkpt lat="39.33036017303986" lon="9.26812608147867"><ele>271.0</ele><time>2026-04-08T14:23:12.999Z</time></trkpt><trkpt lat="39.330490777376205" lon="9.268136969103072"><ele>271.0</ele><time>2026-04-08T14:23:13.999Z</time></trkpt><trkpt lat="39.33063634503975" lon="9.268156754882106"><ele>273.5</ele><time>2026-04-08T14:23:14.999Z</time></trkpt><trkpt lat="39.330784495143206" lon="9.268185857853892"><ele>276.0</ele><time>2026-04-08T14:23:15.999Z</time></trkpt><trkpt lat="39.33092518856403" lon="9.268216301875512"><ele>278.5</ele><time>2026-04-08T14:23:16.999Z</time></trkpt><trkpt lat="39.33104810857877" lon="9.268240196239415"><ele>281.0</ele><time>2026-04-08T14:23:17.999Z</time></trkpt><trkpt lat="39.331137899491395" lon="9.26825790159396"><ele>281.0</ele><time>2026-04-08T14:23:18.999Z</time></trkpt><trkpt lat="39.33120248985947" lon="9.268273657687438"><ele>281.0</ele><time>2026-04-08T14:23:19.999Z</time></trkpt><trkpt lat="39.33132136061787" lon="9.268273385718862"><ele>281.0</ele><time>2026-04-08T14:23:21.999Z</time></trkpt><trkpt lat="39.33138691372168" lon="9.268264464789304"><ele>281.0</ele><time>2026-04-08T14:23:22.999Z</time></trkpt><trkpt lat="39.33148177362223" lon="9.268198890279129"><ele>281.0</ele><time>2026-04-08T14:23:24.999Z</time></trkpt><trkpt lat="39.33153942733727" lon="9.268138222017514"><ele>281.0</ele><time>2026-04-08T14:23:25.999Z</time></trkpt><trkpt lat="39.33159933837803" lon="9.268062260294618"><ele>286.1666666666667</ele><time>2026-04-08T14:23:26.999Z</time></trkpt><trkpt lat="39.33165534882036" lon="9.267997206754165"><ele>291.33333333333337</ele><time>2026-04-08T14:23:27.999Z</time></trkpt><trkpt lat="39.33170859218646" lon="9.267941983668605"><ele>296.5</ele><time>2026-04-08T14:23:28.999Z</time></trkpt><trkpt lat="39.33182050718587" lon="9.267900392259827"><ele>301.6666666666667</ele><time>2026-04-08T14:23:31Z</time></trkpt><trkpt lat="39.33188997856595" lon="9.267948203863972"><ele>306.8333333333333</ele><time>2026-04-08T14:23:32Z</time></trkpt><trkpt lat="39.33198704281713" lon="9.267958980243504"><ele>312.0</ele><time>2026-04-08T14:23:33Z</time></trkpt><trkpt lat="39.332100344807934" lon="9.267970729499243"><ele>312.0</ele><time>2026-04-08T14:23:34Z</time></trkpt><trkpt lat="39.33219666098207" lon="9.26797175561716"><ele>312.0</ele><time>2026-04-08T14:23:35Z</time></trkpt><trkpt lat="39.33227196189154" lon="9.267943952844833"><ele>312.0</ele><time>2026-04-08T14:23:36Z</time></trkpt><trkpt lat="39.332352762662275" lon="9.267923987124012"><ele>312.0</ele><time>2026-04-08T14:23:37Z</time></trkpt><trkpt lat="39.33244439439405" lon="9.267891925372368"><ele>312.0</ele><time>2026-04-08T14:23:38Z</time></trkpt><trkpt lat="39.33254580967696" lon="9.267845693479003"><ele>314.25</ele><time>2026-04-08T14:23:39Z</time></trkpt><trkpt lat="39.332661492071225" lon="9.267813419821495"><ele>316.5</ele><time>2026-04-08T14:23:40Z</time></trkpt><trkpt lat="39.332774154422495" lon="9.26776237162736"><ele>318.75</ele><time>2026-04-08T14:23:41Z</time></trkpt><trkpt lat="39.33289369654762" lon="9.267725844935947"><ele>321.0</ele><time>2026-04-08T14:23:42Z</time></trkpt><trkpt lat="39.33299782978114" lon="9.267700901831661"><ele>323.20000000000005</ele><time>2026-04-08T14:23:43Z</time></trkpt><trkpt lat="39.33309584238885" lon="9.267683540065493"><ele>325.40000000000003</ele><time>2026-04-08T14:23:44Z</time></trkpt><trkpt lat="39.33319020957363" lon="9.267678679599028"><ele>327.6</ele><time>2026-04-08T14:23:45Z</time></trkpt><trkpt lat="39.33328599765354" lon="9.267671845893426"><ele>329.8</ele><time>2026-04-08T14:23:46Z</time></trkpt><trkpt lat="39.333384811738696" lon="9.267667601165723"><ele>332.0</ele><time>2026-04-08T14:23:47Z</time></trkpt><trkpt lat="39.33348578576325" lon="9.267669532618847"><ele>332.0</ele><time>2026-04-08T14:23:48Z</time></trkpt><trkpt lat="39.33358717823309" lon="9.267696665074833"><ele>332.0</ele><time>2026-04-08T14:23:49Z</time></trkpt><trkpt lat="39.333671916198924" lon="9.267695486115537"><ele>332.0</ele><time>2026-04-08T14:23:50Z</time></trkpt><trkpt lat="39.33375217555605" lon="9.26772856367493"><ele>332.0</ele><time>2026-04-08T14:23:51Z</time></trkpt><trkpt lat="39.333799961925" lon="9.267791134650436"><ele>332.0</ele><time>2026-04-08T14:23:52Z</time></trkpt><trkpt lat="39.333869439062205" lon="9.26793162413959"><ele>332.0</ele><time>2026-04-08T14:23:54Z</time></trkpt><trkpt lat="39.33388242253707" lon="9.268019562803156"><ele>332.0</ele><time>2026-04-08T14:23:55Z</time></trkpt><trkpt lat="39.33387532406036" lon="9.268118615710824"><ele>332.0</ele><time>2026-04-08T14:23:56Z</time></trkpt><trkpt lat="39.333872037483204" lon="9.268244541583675"><ele>332.0</ele><time>2026-04-08T14:23:57Z</time></trkpt><trkpt lat="39.33387821894119" lon="9.268374877561591"><ele>332.0</ele><time>2026-04-08T14:23:58Z</time></trkpt><trkpt lat="39.33390312775757" lon="9.268481435135362"><ele>332.0</ele><time>2026-04-08T14:23:59Z</time></trkpt><trkpt lat="39.33394683412337" lon="9.268615696858705"><ele>333.5</ele><time>2026-04-08T14:24:00Z</time></trkpt><trkpt lat="39.33401901012242" lon="9.268773495718321"><ele>335.0</ele><time>2026-04-08T14:24:01Z</time></trkpt><trkpt lat="39.334094344845504" lon="9.268919379231711"><ele>336.5</ele><time>2026-04-08T14:24:02Z</time></trkpt><trkpt lat="39.334182740613166" lon="9.269073828402645"><ele>338.0</ele><time>2026-04-08T14:24:03Z</time></trkpt><trkpt lat="39.33428885902797" lon="9.269244674549071"><ele>338.0</ele><time>2026-04-08T14:24:04Z</time></trkpt><trkpt lat="39.334405763722856" lon="9.269399930454004"><ele>338.0</ele><time>2026-04-08T14:24:05Z</time></trkpt><trkpt lat="39.33452958268986" lon="9.269530300012269"><ele>338.0</ele><time>2026-04-08T14:24:06Z</time></trkpt><trkpt lat="39.334633961220455" lon="9.269637083377063"><ele>338.0</ele><time>2026-04-08T14:24:07Z</time></trkpt><trkpt lat="39.33470655345758" lon="9.269735356139938"><ele>338.0</ele><time>2026-04-08T14:24:08Z</time></trkpt><trkpt lat="39.33476258663349" lon="9.269833995240521"><ele>338.0</ele><time>2026-04-08T14:24:09Z</time></trkpt><trkpt lat="39.334807380388376" lon="9.26994308603467"><ele>338.0</ele><time>2026-04-08T14:24:10Z</time></trkpt><trkpt lat="39.33484663459383" lon="9.270054180125165"><ele>338.0</ele><time>2026-04-08T14:24:11Z</time></trkpt><trkpt lat="39.334885605293124" lon="9.270154045809686"><ele>339.4</ele><time>2026-04-08T14:24:12Z</time></trkpt><trkpt lat="39.33493535550484" lon="9.270265161660559"><ele>340.79999999999995</ele><time>2026-04-08T14:24:13Z</time></trkpt><trkpt lat="39.33499826462006" lon="9.270373534860008"><ele>342.2</ele><time>2026-04-08T14:24:14Z</time></trkpt><trkpt lat="39.33505189794352" lon="9.270451512973272"><ele>343.6</ele><time>2026-04-08T14:24:15Z</time></trkpt><trkpt lat="39.33510725871924" lon="9.270531665694802"><ele>345.0</ele><time>2026-04-08T14:24:16Z</time></trkpt><trkpt lat="39.335164779324835" lon="9.27061494503664"><ele>345.0</ele><time>2026-04-08T14:24:17Z</time></trkpt><trkpt lat="39.33521945481373" lon="9.270697233721773"><ele>345.0</ele><time>2026-04-08T14:24:18Z</time></trkpt><trkpt lat="39.33527264766323" lon="9.270794727439991"><ele>345.0</ele><time>2026-04-08T14:24:19Z</time></trkpt><trkpt lat="39.33530819542778" lon="9.27090600358255"><ele>345.0</ele><time>2026-04-08T14:24:20Z</time></trkpt><trkpt lat="39.335346180953934" lon="9.27104056144508"><ele>345.0</ele><time>2026-04-08T14:24:21.001Z</time></trkpt><trkpt lat="39.33537547195009" lon="9.271157360025489"><ele>345.0</ele><time>2026-04-08T14:24:22.001Z</time></trkpt><trkpt lat="39.33539380714021" lon="9.271263871040455"><ele>345.0</ele><time>2026-04-08T14:24:23.001Z</time></trkpt><trkpt lat="39.335394133380085" lon="9.271365631596739"><ele>345.0</ele><time>2026-04-08T14:24:24.001Z</time></trkpt><trkpt lat="39.33538816824136" lon="9.27147863887612"><ele>345.0</ele><time>2026-04-08T14:24:25.001Z</time></trkpt><trkpt lat="39.33536070986433" lon="9.27158044038482"><ele>345.0</ele><time>2026-04-08T14:24:26.001Z</time></trkpt><trkpt lat="39.33529678398852" lon="9.271674178120987"><ele>345.0</ele><time>2026-04-08T14:24:27.001Z</time></trkpt><trkpt lat="39.335218302153706" lon="9.27179020683161"><ele>345.75</ele><time>2026-04-08T14:24:28.001Z</time></trkpt><trkpt lat="39.33512684381781" lon="9.27191891310985"><ele>346.5</ele><time>2026-04-08T14:24:29.001Z</time></trkpt><trkpt lat="39.335046646356936" lon="9.272018871783464"><ele>347.25</ele><time>2026-04-08T14:24:30.001Z</time></trkpt><trkpt lat="39.334958758614114" lon="9.272114638688835"><ele>348.0</ele><time>2026-04-08T14:24:31.001Z</time></trkpt><trkpt lat="39.33486359732822" lon="9.272202471998941"><ele>348.0</ele><time>2026-04-08T14:24:32.001Z</time></trkpt><trkpt lat="39.33478829572156" lon="9.272261029623436"><ele>348.0</ele><time>2026-04-08T14:24:33.001Z</time></trkpt><trkpt lat="39.334728979486144" lon="9.272301791860368"><ele>348.0</ele><time>2026-04-08T14:24:34.001Z</time></trkpt><trkpt lat="39.334651828625134" lon="9.272336305496081"><ele>348.0</ele><time>2026-04-08T14:24:35.001Z</time></trkpt><trkpt lat="39.334568901303534" lon="9.27233781721296"><ele>348.0</ele><time>2026-04-08T14:24:36.001Z</time></trkpt><trkpt lat="39.334480263578364" lon="9.272311557927758"><ele>348.0</ele><time>2026-04-08T14:24:37.001Z</time></trkpt><trkpt lat="39.334376033024114" lon="9.272246175747574"><ele>345.5</ele><time>2026-04-08T14:24:38.001Z</time></trkpt><trkpt lat="39.334281895567116" lon="9.272231184535837"><ele>343.0</ele><time>2026-04-08T14:24:39.001Z</time></trkpt><trkpt lat="39.33416766178923" lon="9.272255098102168"><ele>340.5</ele><time>2026-04-08T14:24:40.001Z</time></trkpt><trkpt lat="39.3340289893601" lon="9.272295259427047"><ele>338.0</ele><time>2026-04-08T14:24:41.001Z</time></trkpt><trkpt lat="39.33387925970429" lon="9.272341157574756"><ele>338.25</ele><time>2026-04-08T14:24:42.001Z</time></trkpt><trkpt lat="39.33375508969036" lon="9.27235642016344"><ele>338.5</ele><time>2026-04-08T14:24:43.001Z</time></trkpt><trkpt lat="39.33364398212765" lon="9.272351599263136"><ele>338.75</ele><time>2026-04-08T14:24:44.001Z</time></trkpt><trkpt lat="39.333529277872856" lon="9.272323631378443"><ele>339.0</ele><time>2026-04-08T14:24:45.001Z</time></trkpt><trkpt lat="39.33341810881203" lon="9.272271946463606"><ele>339.0</ele><time>2026-04-08T14:24:46.001Z</time></trkpt><trkpt lat="39.33330918763612" lon="9.272245408191772"><ele>339.0</ele><time>2026-04-08T14:24:47.001Z</time></trkpt><trkpt lat="39.333213617228665" lon="9.272257743246307"><ele>339.0</ele><time>2026-04-08T14:24:48.001Z</time></trkpt><trkpt lat="39.333117590777604" lon="9.27227964961733"><ele>339.0</ele><time>2026-04-08T14:24:49.001Z</time></trkpt><trkpt lat="39.33300580948427" lon="9.272329422383628"><ele>339.0</ele><time>2026-04-08T14:24:50.001Z</time></trkpt><trkpt lat="39.33288337589229" lon="9.272367756498541"><ele>345.0</ele><time>2026-04-08T14:24:51.001Z</time></trkpt><trkpt lat="39.33276994994427" lon="9.272410739611022"><ele>351.0</ele><time>2026-04-08T14:24:52.001Z</time></trkpt><trkpt lat="39.33267699517758" lon="9.272448795731641"><ele>357.0</ele><time>2026-04-08T14:24:53.001Z</time></trkpt><trkpt lat="39.33259289387142" lon="9.272486309171555"><ele>363.0</ele><time>2026-04-08T14:24:54.001Z</time></trkpt><trkpt lat="39.332496913212665" lon="9.27248702852846"><ele>369.0</ele><time>2026-04-08T14:24:55.001Z</time></trkpt><trkpt lat="39.332426991998545" lon="9.272529914070788"><ele>369.0</ele><time>2026-04-08T14:24:56.001Z</time></trkpt><trkpt lat="39.332356977628436" lon="9.272554531758386"><ele>369.0</ele><time>2026-04-08T14:24:57.001Z</time></trkpt><trkpt lat="39.33226659447622" lon="9.272681450447154"><ele>369.0</ele><time>2026-04-08T14:24:59.001Z</time></trkpt><trkpt lat="39.332286738859246" lon="9.272805353554466"><ele>369.0</ele><time>2026-04-08T14:25:00.001Z</time></trkpt><trkpt lat="39.332317978428115" lon="9.272915612199638"><ele>369.0</ele><time>2026-04-08T14:25:01.001Z</time></trkpt><trkpt lat="39.33237953962601" lon="9.273015470404287"><ele>369.0</ele><time>2026-04-08T14:25:02.001Z</time></trkpt><trkpt lat="39.3324593832857" lon="9.273083750477454"><ele>369.0</ele><time>2026-04-08T14:25:03.001Z</time></trkpt><trkpt lat="39.33255133030151" lon="9.273114782547054"><ele>369.0</ele><time>2026-04-08T14:25:04.001Z</time></trkpt><trkpt lat="39.332656115422324" lon="9.273099744498948"><ele>369.0</ele><time>2026-04-08T14:25:05.001Z</time></trkpt><trkpt lat="39.33277886181315" lon="9.273073818594716"><ele>369.0</ele><time>2026-04-08T14:25:06.001Z</time></trkpt><trkpt lat="39.33288894436435" lon="9.27302850493958"><ele>369.0</ele><time>2026-04-08T14:25:07.001Z</time></trkpt><trkpt lat="39.332980725950854" lon="9.273056732818302"><ele>369.0</ele><time>2026-04-08T14:25:08.001Z</time></trkpt><trkpt lat="39.333090583348394" lon="9.273079019948504"><ele>369.0</ele><time>2026-04-08T14:25:09.001Z</time></trkpt><trkpt lat="39.33322262445509" lon="9.27308063471189"><ele>369.0</ele><time>2026-04-08T14:25:10.001Z</time></trkpt><trkpt lat="39.33335397823303" lon="9.2730970232708"><ele>369.0</ele><time>2026-04-08T14:25:11.001Z</time></trkpt><trkpt lat="39.33349260330584" lon="9.273100704295434"><ele>369.0</ele><time>2026-04-08T14:25:12.001Z</time></trkpt><trkpt lat="39.33361238519193" lon="9.273096169835888"><ele>369.0</ele><time>2026-04-08T14:25:13.001Z</time></trkpt><trkpt lat="39.33371843645545" lon="9.27309720678936"><ele>369.0</ele><time>2026-04-08T14:25:14.001Z</time></trkpt><trkpt lat="39.33382258745903" lon="9.273105485338148"><ele>371.8333333333333</ele><time>2026-04-08T14:25:15.001Z</time></trkpt><trkpt lat="39.33391078561521" lon="9.273119809790764"><ele>374.66666666666663</ele><time>2026-04-08T14:25:16.001Z</time></trkpt><trkpt lat="39.33398881268662" lon="9.273153465570877"><ele>377.5</ele><time>2026-04-08T14:25:17.001Z</time></trkpt><trkpt lat="39.334060193978445" lon="9.273201681449285"><ele>380.3333333333333</ele><time>2026-04-08T14:25:18.001Z</time></trkpt><trkpt lat="39.33409693824544" lon="9.273306417228438"><ele>383.16666666666663</ele><time>2026-04-08T14:25:18.999Z</time></trkpt><trkpt lat="39.33412921643793" lon="9.273401682833622"><ele>386.0</ele><time>2026-04-08T14:25:19.999Z</time></trkpt><trkpt lat="39.334132041653106" lon="9.273517249109592"><ele>386.0</ele><time>2026-04-08T14:25:21Z</time></trkpt><trkpt lat="39.33414050755313" lon="9.273671445652873"><ele>386.0</ele><time>2026-04-08T14:25:22Z</time></trkpt><trkpt lat="39.334147497070255" lon="9.27383209228048"><ele>386.0</ele><time>2026-04-08T14:25:23Z</time></trkpt><trkpt lat="39.334181329347544" lon="9.27392701651535"><ele>386.0</ele><time>2026-04-08T14:25:24Z</time></trkpt><trkpt lat="39.33423651529005" lon="9.274016958517963"><ele>386.0</ele><time>2026-04-08T14:25:25Z</time></trkpt><trkpt lat="39.33431531587021" lon="9.27408934357959"><ele>384.5</ele><time>2026-04-08T14:25:26Z</time></trkpt><trkpt lat="39.33442966909295" lon="9.274124587720655"><ele>383.0</ele><time>2026-04-08T14:25:27Z</time></trkpt><trkpt lat="39.33455709947092" lon="9.274171970319513"><ele>381.5</ele><time>2026-04-08T14:25:28Z</time></trkpt><trkpt lat="39.33468094015783" lon="9.27421977328702"><ele>380.0</ele><time>2026-04-08T14:25:29Z</time></trkpt><trkpt lat="39.33479379533305" lon="9.274281808827567"><ele>385.4</ele><time>2026-04-08T14:25:30Z</time></trkpt><trkpt lat="39.33488319933557" lon="9.274339378201162"><ele>390.8</ele><time>2026-04-08T14:25:31Z</time></trkpt><trkpt lat="39.334965438393205" lon="9.274416574135758"><ele>396.20000000000005</ele><time>2026-04-08T14:25:32Z</time></trkpt><trkpt lat="39.33507138621853" lon="9.274420939446184"><ele>401.6</ele><time>2026-04-08T14:25:33Z</time></trkpt><trkpt lat="39.33517279175634" lon="9.274435904187731"><ele>407.0</ele><time>2026-04-08T14:25:34Z</time></trkpt><trkpt lat="39.33528480281236" lon="9.274471222788257"><ele>407.0</ele><time>2026-04-08T14:25:35Z</time></trkpt><trkpt lat="39.335395031852805" lon="9.274481204964266"><ele>407.0</ele><time>2026-04-08T14:25:36Z</time></trkpt><trkpt lat="39.33549676982271" lon="9.274480566687771"><ele>407.0</ele><time>2026-04-08T14:25:37Z</time></trkpt><trkpt lat="39.33559799615698" lon="9.274464822933608"><ele>407.0</ele><time>2026-04-08T14:25:38Z</time></trkpt><trkpt lat="39.335690493240214" lon="9.274508216121973"><ele>407.0</ele><time>2026-04-08T14:25:39Z</time></trkpt><trkpt lat="39.335775787776114" lon="9.274555015831634"><ele>406.6</ele><time>2026-04-08T14:25:40Z</time></trkpt><trkpt lat="39.33586439191727" lon="9.274610524632864"><ele>406.20000000000005</ele><time>2026-04-08T14:25:41Z</time></trkpt><trkpt lat="39.33594884383724" lon="9.27467124783479"><ele>405.8</ele><time>2026-04-08T14:25:42Z</time></trkpt><trkpt lat="39.33603057519181" lon="9.2747388309298"><ele>405.4</ele><time>2026-04-08T14:25:43Z</time></trkpt><trkpt lat="39.33611430416446" lon="9.274812092884773"><ele>405.0</ele><time>2026-04-08T14:25:44Z</time></trkpt><trkpt lat="39.3361750825385" lon="9.274893331765943"><ele>405.0</ele><time>2026-04-08T14:25:45Z</time></trkpt><trkpt lat="39.33621997532677" lon="9.274978902928842"><ele>405.0</ele><time>2026-04-08T14:25:46Z</time></trkpt><trkpt lat="39.33624895419655" lon="9.275063796753917"><ele>405.0</ele><time>2026-04-08T14:25:47Z</time></trkpt><trkpt lat="39.33629002285782" lon="9.275172799001576"><ele>405.0</ele><time>2026-04-08T14:25:48Z</time></trkpt><trkpt lat="39.336333038643986" lon="9.275301837012464"><ele>405.0</ele><time>2026-04-08T14:25:49Z</time></trkpt><trkpt lat="39.33637446497444" lon="9.275438901335864"><ele>410.0</ele><time>2026-04-08T14:25:50Z</time></trkpt><trkpt lat="39.336417155057404" lon="9.275580147108101"><ele>415.0</ele><time>2026-04-08T14:25:51Z</time></trkpt><trkpt lat="39.33646276459971" lon="9.27572789263296"><ele>420.0</ele><time>2026-04-08T14:25:52Z</time></trkpt><trkpt lat="39.33652397133998" lon="9.275870606892433"><ele>425.0</ele><time>2026-04-08T14:25:53Z</time></trkpt><trkpt lat="39.33654463151679" lon="9.276030950981697"><ele>425.0</ele><time>2026-04-08T14:25:54Z</time></trkpt><trkpt lat="39.33658700880608" lon="9.27617280384091"><ele>425.0</ele><time>2026-04-08T14:25:55Z</time></trkpt><trkpt lat="39.33660533122563" lon="9.27631878379463"><ele>425.0</ele><time>2026-04-08T14:25:56Z</time></trkpt><trkpt lat="39.33662256352027" lon="9.276466647968626"><ele>425.0</ele><time>2026-04-08T14:25:57Z</time></trkpt><trkpt lat="39.33663867591698" lon="9.276615496729056"><ele>426.0</ele><time>2026-04-08T14:25:58Z</time></trkpt><trkpt lat="39.33664706000004" lon="9.276756546033953"><ele>427.0</ele><time>2026-04-08T14:25:59Z</time></trkpt><trkpt lat="39.3366418842616" lon="9.276885596447233"><ele>428.0</ele><time>2026-04-08T14:26:00Z</time></trkpt><trkpt lat="39.33662718236833" lon="9.277018154386589"><ele>429.0</ele><time>2026-04-08T14:26:01Z</time></trkpt><trkpt lat="39.33660542230142" lon="9.277145560300028"><ele>430.0</ele><time>2026-04-08T14:26:02Z</time></trkpt><trkpt lat="39.33659730081571" lon="9.277273910230072"><ele>430.83333333333337</ele><time>2026-04-08T14:26:03Z</time></trkpt><trkpt lat="39.33658243435262" lon="9.277379426797665"><ele>431.6666666666667</ele><time>2026-04-08T14:26:04Z</time></trkpt><trkpt lat="39.33655118254434" lon="9.27752054386477"><ele>432.5</ele><time>2026-04-08T14:26:06Z</time></trkpt><trkpt lat="39.33655272792901" lon="9.27760781924955"><ele>433.33333333333337</ele><time>2026-04-08T14:26:07Z</time></trkpt><trkpt lat="39.33657230681925" lon="9.277690161178466"><ele>434.1666666666667</ele><time>2026-04-08T14:26:08Z</time></trkpt><trkpt lat="39.336617493651204" lon="9.27776682099427"><ele>435.0</ele><time>2026-04-08T14:26:09Z</time></trkpt><trkpt lat="39.336682342139135" lon="9.277828477976069"><ele>435.0</ele><time>2026-04-08T14:26:10Z</time></trkpt><trkpt lat="39.336768891397064" lon="9.277894957977196"><ele>435.0</ele><time>2026-04-08T14:26:11Z</time></trkpt><trkpt lat="39.33685495154983" lon="9.27796715636675"><ele>435.0</ele><time>2026-04-08T14:26:12Z</time></trkpt><trkpt lat="39.33695510875479" lon="9.278034123421548"><ele>435.0</ele><time>2026-04-08T14:26:13Z</time></trkpt><trkpt lat="39.33706101008422" lon="9.278078860724614"><ele>435.0</ele><time>2026-04-08T14:26:14Z</time></trkpt><trkpt lat="39.33714976127885" lon="9.278145245034635"><ele>437.2</ele><time>2026-04-08T14:26:15.001Z</time></trkpt><trkpt lat="39.33724782704009" lon="9.278166171939414"><ele>439.4</ele><time>2026-04-08T14:26:16.001Z</time></trkpt><trkpt lat="39.337328611666024" lon="9.278211258547337"><ele>441.6</ele><time>2026-04-08T14:26:17.001Z</time></trkpt><trkpt lat="39.33741527508459" lon="9.27822504945469"><ele>443.8</ele><time>2026-04-08T14:26:18.001Z</time></trkpt><trkpt lat="39.33750751538926" lon="9.278235305643085"><ele>446.0</ele><time>2026-04-08T14:26:19.001Z</time></trkpt><trkpt lat="39.33759646076383" lon="9.278252037331216"><ele>446.0</ele><time>2026-04-08T14:26:20.001Z</time></trkpt><trkpt lat="39.33769217643277" lon="9.278286317466163"><ele>446.0</ele><time>2026-04-08T14:26:21.001Z</time></trkpt><trkpt lat="39.33778261455693" lon="9.278341714182185"><ele>446.0</ele><time>2026-04-08T14:26:22.001Z</time></trkpt><trkpt lat="39.337851852121894" lon="9.27843320118277"><ele>446.0</ele><time>2026-04-08T14:26:23.001Z</time></trkpt><trkpt lat="39.337921450054125" lon="9.27851804588405"><ele>446.0</ele><time>2026-04-08T14:26:24.001Z</time></trkpt><trkpt lat="39.3379885388743" lon="9.278604827844784"><ele>448.4</ele><time>2026-04-08T14:26:25.001Z</time></trkpt><trkpt lat="39.3380643152847" lon="9.278673814145929"><ele>450.8</ele><time>2026-04-08T14:26:26.001Z</time></trkpt><trkpt lat="39.33816398374598" lon="9.27871145592039"><ele>453.19999999999993</ele><time>2026-04-08T14:26:27.001Z</time></trkpt><trkpt lat="39.33824583397125" lon="9.278755759148108"><ele>455.59999999999997</ele><time>2026-04-08T14:26:28.001Z</time></trkpt><trkpt lat="39.33829457398035" lon="9.278827938704648"><ele>458.0</ele><time>2026-04-08T14:26:29.001Z</time></trkpt><trkpt lat="39.33833621910254" lon="9.278938636571999"><ele>457.99999999999994</ele><time>2026-04-08T14:26:31.001Z</time></trkpt><trkpt lat="39.33830392345046" lon="9.279059331622138"><ele>458.0</ele><time>2026-04-08T14:26:33.001Z</time></trkpt><trkpt lat="39.33828169066788" lon="9.279137495190357"><ele>458.0</ele><time>2026-04-08T14:26:34.001Z</time></trkpt><trkpt lat="39.33826150913031" lon="9.279230246722351"><ele>458.0</ele><time>2026-04-08T14:26:35.001Z</time></trkpt><trkpt lat="39.33825236128284" lon="9.279347555893894"><ele>457.99999999999994</ele><time>2026-04-08T14:26:36.001Z</time></trkpt><trkpt lat="39.33824820358661" lon="9.279466105526913"><ele>458.0</ele><time>2026-04-08T14:26:37.001Z</time></trkpt><trkpt lat="39.33825033994269" lon="9.279593787755424"><ele>458.0</ele><time>2026-04-08T14:26:38.001Z</time></trkpt><trkpt lat="39.33826584008132" lon="9.279727005512585"><ele>457.99999999999994</ele><time>2026-04-08T14:26:39.001Z</time></trkpt><trkpt lat="39.338297255722395" lon="9.279839644838642"><ele>457.99999999999994</ele><time>2026-04-08T14:26:40.001Z</time></trkpt><trkpt lat="39.338350689724905" lon="9.279934561248664"><ele>458.0</ele><time>2026-04-08T14:26:41.001Z</time></trkpt><trkpt lat="39.33841729467636" lon="9.280007373608546"><ele>458.0</ele><time>2026-04-08T14:26:42.001Z</time></trkpt><trkpt lat="39.33849011122307" lon="9.280050809084809"><ele>460.4</ele><time>2026-04-08T14:26:43.001Z</time></trkpt><trkpt lat="39.3385760038485" lon="9.28005001087662"><ele>462.79999999999995</ele><time>2026-04-08T14:26:44.001Z</time></trkpt><trkpt lat="39.33865985107277" lon="9.280066967421249"><ele>465.2</ele><time>2026-04-08T14:26:45.001Z</time></trkpt><trkpt lat="39.33875062961488" lon="9.280090791688002"><ele>467.6</ele><time>2026-04-08T14:26:46.001Z</time></trkpt><trkpt lat="39.338845372619495" lon="9.280088585131146"><ele>470.0</ele><time>2026-04-08T14:26:47.001Z</time></trkpt><trkpt lat="39.338939446740035" lon="9.280102715710957"><ele>471.3333333333333</ele><time>2026-04-08T14:26:48.001Z</time></trkpt><trkpt lat="39.339024600559206" lon="9.280112464398853"><ele>472.66666666666663</ele><time>2026-04-08T14:26:49.001Z</time></trkpt><trkpt lat="39.339102639444775" lon="9.280126371566244"><ele>474.0</ele><time>2026-04-08T14:26:50.001Z</time></trkpt><trkpt lat="39.33917885617615" lon="9.280140325569135"><ele>475.33333333333337</ele><time>2026-04-08T14:26:51.001Z</time></trkpt><trkpt lat="39.339244596540276" lon="9.280173232863644"><ele>476.6666666666667</ele><time>2026-04-08T14:26:52.001Z</time></trkpt><trkpt lat="39.33933399072904" lon="9.280191608683891"><ele>478.0</ele><time>2026-04-08T14:26:53.001Z</time></trkpt><trkpt lat="39.33940305688015" lon="9.280229550365451"><ele>478.00000000000006</ele><time>2026-04-08T14:26:54.001Z</time></trkpt><trkpt lat="39.33946290506195" lon="9.28027853909162"><ele>478.0</ele><time>2026-04-08T14:26:55.001Z</time></trkpt><trkpt lat="39.33952528318587" lon="9.28033523610146"><ele>478.00000000000006</ele><time>2026-04-08T14:26:56.001Z</time></trkpt><trkpt lat="39.339572544444046" lon="9.280407779800877"><ele>478.00000000000006</ele><time>2026-04-08T14:26:57.001Z</time></trkpt><trkpt lat="39.33959676353077" lon="9.280501747245838"><ele>478.0</ele><time>2026-04-08T14:26:58.001Z</time></trkpt><trkpt lat="39.33963388759426" lon="9.280584200402986"><ele>478.00000000000006</ele><time>2026-04-08T14:26:59.001Z</time></trkpt><trkpt lat="39.33966715240363" lon="9.280664591124395"><ele>478.00000000000006</ele><time>2026-04-08T14:27:00.001Z</time></trkpt><trkpt lat="39.33969209257896" lon="9.280740407083378"><ele>478.79999999999995</ele><time>2026-04-08T14:27:01.001Z</time></trkpt><trkpt lat="39.33971532610724" lon="9.280888927531679"><ele>479.59999999999997</ele><time>2026-04-08T14:27:03.001Z</time></trkpt><trkpt lat="39.33966898439924" lon="9.281019497252386"><ele>480.40000000000003</ele><time>2026-04-08T14:27:05.001Z</time></trkpt><trkpt lat="39.339640967494766" lon="9.281141739501829"><ele>481.20000000000005</ele><time>2026-04-08T14:27:06.001Z</time></trkpt><trkpt lat="39.339611874636425" lon="9.281268676486171"><ele>482.0</ele><time>2026-04-08T14:27:07.001Z</time></trkpt><trkpt lat="39.33959905685285" lon="9.281398457800293"><ele>480.0</ele><time>2026-04-08T14:27:08.001Z</time></trkpt><trkpt lat="39.339575146939296" lon="9.281547571940235"><ele>478.00000000000006</ele><time>2026-04-08T14:27:09.001Z</time></trkpt><trkpt lat="39.33954075742025" lon="9.28168735245292"><ele>476.00000000000006</ele><time>2026-04-08T14:27:10.001Z</time></trkpt><trkpt lat="39.33953713874525" lon="9.281815070188474"><ele>474.0</ele><time>2026-04-08T14:27:11.001Z</time></trkpt><trkpt lat="39.3395255415072" lon="9.281932439987454"><ele>472.0</ele><time>2026-04-08T14:27:12.001Z</time></trkpt><trkpt lat="39.339531500394024" lon="9.282059077691212"><ele>472.0</ele><time>2026-04-08T14:27:13.001Z</time></trkpt><trkpt lat="39.339551716260914" lon="9.28218979368671"><ele>472.00000000000006</ele><time>2026-04-08T14:27:14.001Z</time></trkpt><trkpt lat="39.339573702148165" lon="9.282305921744884"><ele>472.00000000000006</ele><time>2026-04-08T14:27:15.002Z</time></trkpt><trkpt lat="39.3395994449495" lon="9.282419430178924"><ele>472.0</ele><time>2026-04-08T14:27:16.002Z</time></trkpt><trkpt lat="39.33964311222152" lon="9.28253886781511"><ele>472.0</ele><time>2026-04-08T14:27:17.002Z</time></trkpt><trkpt lat="39.339693107626665" lon="9.282659804808942"><ele>471.8</ele><time>2026-04-08T14:27:18.002Z</time></trkpt><trkpt lat="39.33973046767261" lon="9.28278915291966"><ele>471.6</ele><time>2026-04-08T14:27:19.002Z</time></trkpt><trkpt lat="39.33976867807632" lon="9.282904598918767"><ele>471.40000000000003</ele><time>2026-04-08T14:27:20.002Z</time></trkpt><trkpt lat="39.33981038640082" lon="9.283015657905333"><ele>471.20000000000005</ele><time>2026-04-08T14:27:21.002Z</time></trkpt><trkpt lat="39.33988099937752" lon="9.283105247067224"><ele>471.0</ele><time>2026-04-08T14:27:22.002Z</time></trkpt><trkpt lat="39.33994811907985" lon="9.28321425202828"><ele>468.4</ele><time>2026-04-08T14:27:23.002Z</time></trkpt><trkpt lat="39.34002339682859" lon="9.283311505662812"><ele>465.8</ele><time>2026-04-08T14:27:24.002Z</time></trkpt><trkpt lat="39.34008254702775" lon="9.283437766475808"><ele>463.19999999999993</ele><time>2026-04-08T14:27:25Z</time></trkpt><trkpt lat="39.3401202524415" lon="9.283571330949488"><ele>460.59999999999997</ele><time>2026-04-08T14:27:26Z</time></trkpt><trkpt lat="39.340173648909484" lon="9.283705955853735"><ele>458.0</ele><time>2026-04-08T14:27:27Z</time></trkpt><trkpt lat="39.340235255866276" lon="9.283826832707408"><ele>456.4</ele><time>2026-04-08T14:27:28Z</time></trkpt><trkpt lat="39.340290770098996" lon="9.283941792660212"><ele>454.79999999999995</ele><time>2026-04-08T14:27:29Z</time></trkpt><trkpt lat="39.340364261059705" lon="9.284055732458974"><ele>453.2</ele><time>2026-04-08T14:27:30Z</time></trkpt><trkpt lat="39.34044417889188" lon="9.284152226168436"><ele>451.6</ele><time>2026-04-08T14:27:31Z</time></trkpt><trkpt lat="39.34051327290117" lon="9.284232951975396"><ele>450.0</ele><time>2026-04-08T14:27:32Z</time></trkpt><trkpt lat="39.34058140657369" lon="9.284326938566297"><ele>451.6</ele><time>2026-04-08T14:27:33Z</time></trkpt><trkpt lat="39.34062601046014" lon="9.284449931052215"><ele>453.2</ele><time>2026-04-08T14:27:34Z</time></trkpt><trkpt lat="39.34066324901639" lon="9.284572075894433"><ele>454.79999999999995</ele><time>2026-04-08T14:27:35Z</time></trkpt><trkpt lat="39.3407070855979" lon="9.284689862122098"><ele>456.4</ele><time>2026-04-08T14:27:36Z</time></trkpt><trkpt lat="39.34075550847519" lon="9.284810845033645"><ele>458.0</ele><time>2026-04-08T14:27:37Z</time></trkpt><trkpt lat="39.34081664624662" lon="9.284929005418018"><ele>458.0</ele><time>2026-04-08T14:27:38Z</time></trkpt><trkpt lat="39.34088810250051" lon="9.285046493725861"><ele>458.0</ele><time>2026-04-08T14:27:39Z</time></trkpt><trkpt lat="39.34096944137003" lon="9.285164011660735"><ele>458.0</ele><time>2026-04-08T14:27:40Z</time></trkpt><trkpt lat="39.341063404616165" lon="9.285253512134346"><ele>458.0</ele><time>2026-04-08T14:27:41Z</time></trkpt><trkpt lat="39.34114059054858" lon="9.28533670623885"><ele>458.0</ele><time>2026-04-08T14:27:42Z</time></trkpt><trkpt lat="39.341203924663944" lon="9.285414462971572"><ele>457.99999999999994</ele><time>2026-04-08T14:27:43Z</time></trkpt><trkpt lat="39.34125917055273" lon="9.285486503105586"><ele>457.99999999999994</ele><time>2026-04-08T14:27:44Z</time></trkpt><trkpt lat="39.341318261865744" lon="9.285549221868555"><ele>458.0</ele><time>2026-04-08T14:27:45Z</time></trkpt><trkpt lat="39.341430060860915" lon="9.28551465302345"><ele>458.0</ele><time>2026-04-08T14:27:46Z</time></trkpt><trkpt lat="39.341523342768575" lon="9.285495921665046"><ele>461.5</ele><time>2026-04-08T14:27:47Z</time></trkpt><trkpt lat="39.34164593642025" lon="9.285449962289059"><ele>465.0</ele><time>2026-04-08T14:27:48Z</time></trkpt><trkpt lat="39.341765711718814" lon="9.285386999740513"><ele>468.5</ele><time>2026-04-08T14:27:49Z</time></trkpt><trkpt lat="39.34187044410425" lon="9.28532926681656"><ele>472.0</ele><time>2026-04-08T14:27:50Z</time></trkpt><trkpt lat="39.34195607198766" lon="9.285287413951778"><ele>472.0</ele><time>2026-04-08T14:27:51Z</time></trkpt><trkpt lat="39.34206812441251" lon="9.285316626766546"><ele>472.00000000000006</ele><time>2026-04-08T14:27:53Z</time></trkpt><trkpt lat="39.34213655493219" lon="9.285427369181587"><ele>472.00000000000006</ele><time>2026-04-08T14:27:55Z</time></trkpt><trkpt lat="39.34219064414592" lon="9.285479070563378"><ele>472.0</ele><time>2026-04-08T14:27:56Z</time></trkpt><trkpt lat="39.34225117595003" lon="9.285551179027932"><ele>472.0</ele><time>2026-04-08T14:27:57Z</time></trkpt><trkpt lat="39.34233036712977" lon="9.285601725121689"><ele>470.0</ele><time>2026-04-08T14:27:58Z</time></trkpt><trkpt lat="39.34242737037451" lon="9.285634656263062"><ele>468.00000000000006</ele><time>2026-04-08T14:27:59Z</time></trkpt><trkpt lat="39.342528530401964" lon="9.285693965145764"><ele>466.00000000000006</ele><time>2026-04-08T14:28:00Z</time></trkpt><trkpt lat="39.34263695145613" lon="9.28573620494921"><ele>464.0</ele><time>2026-04-08T14:28:01Z</time></trkpt><trkpt lat="39.34272442674626" lon="9.285817789723765"><ele>462.0</ele><time>2026-04-08T14:28:02Z</time></trkpt><trkpt lat="39.34281745270521" lon="9.285867578065423"><ele>462.0</ele><time>2026-04-08T14:28:03Z</time></trkpt><trkpt lat="39.34288948403641" lon="9.28592617286566"><ele>462.00000000000006</ele><time>2026-04-08T14:28:04Z</time></trkpt><trkpt lat="39.34295818670172" lon="9.28597371211699"><ele>462.00000000000006</ele><time>2026-04-08T14:28:05Z</time></trkpt><trkpt lat="39.34303942472684" lon="9.286037729001313"><ele>462.0</ele><time>2026-04-08T14:28:06Z</time></trkpt><trkpt lat="39.343125729546955" lon="9.28610465369036"><ele>462.0</ele><time>2026-04-08T14:28:07Z</time></trkpt><trkpt lat="39.34321029550128" lon="9.286182655716603"><ele>461.6</ele><time>2026-04-08T14:28:08Z</time></trkpt><trkpt lat="39.34328918670041" lon="9.286263537357364"><ele>461.20000000000005</ele><time>2026-04-08T14:28:09Z</time></trkpt><trkpt lat="39.34335704825041" lon="9.286346346523606"><ele>460.8</ele><time>2026-04-08T14:28:10Z</time></trkpt><trkpt lat="39.34343051066959" lon="9.286425498837119"><ele>460.4</ele><time>2026-04-08T14:28:11Z</time></trkpt><trkpt lat="39.343506482661745" lon="9.286484854642335"><ele>460.0</ele><time>2026-04-08T14:28:12Z</time></trkpt><trkpt lat="39.34359096307421" lon="9.286511874802766"><ele>460.00000000000006</ele><time>2026-04-08T14:28:13Z</time></trkpt><trkpt lat="39.343685957541155" lon="9.28651006213319"><ele>460.0</ele><time>2026-04-08T14:28:14Z</time></trkpt><trkpt lat="39.34377958216655" lon="9.286503057506557"><ele>460.0</ele><time>2026-04-08T14:28:15Z</time></trkpt><trkpt lat="39.343871517888154" lon="9.286511522961773"><ele>460.0</ele><time>2026-04-08T14:28:16.001Z</time></trkpt><trkpt lat="39.343955648876225" lon="9.286565188027033"><ele>460.00000000000006</ele><time>2026-04-08T14:28:17.001Z</time></trkpt><trkpt lat="39.34401653325858" lon="9.286594475773374"><ele>460.0</ele><time>2026-04-08T14:28:18.001Z</time></trkpt><trkpt lat="39.34408721238321" lon="9.28663508357313"><ele>461.75</ele><time>2026-04-08T14:28:20.001Z</time></trkpt><trkpt lat="39.3441910124536" lon="9.28671071895132"><ele>463.5</ele><time>2026-04-08T14:28:22.001Z</time></trkpt><trkpt lat="39.34427696216261" lon="9.286757924377058"><ele>465.25</ele><time>2026-04-08T14:28:23.001Z</time></trkpt><trkpt lat="39.34438394483371" lon="9.286836724067948"><ele>467.0</ele><time>2026-04-08T14:28:24.001Z</time></trkpt><trkpt lat="39.34450107487049" lon="9.286893275761878"><ele>467.0</ele><time>2026-04-08T14:28:25.001Z</time></trkpt><trkpt lat="39.344615524497954" lon="9.286925289169305"><ele>467.00000000000006</ele><time>2026-04-08T14:28:26.001Z</time></trkpt><trkpt lat="39.344715956821894" lon="9.28692946142206"><ele>467.00000000000006</ele><time>2026-04-08T14:28:27.001Z</time></trkpt><trkpt lat="39.344805970910855" lon="9.286957415711049"><ele>467.0</ele><time>2026-04-08T14:28:28.001Z</time></trkpt><trkpt lat="39.34491403579452" lon="9.286975399401335"><ele>467.0</ele><time>2026-04-08T14:28:29.001Z</time></trkpt><trkpt lat="39.345017297419986" lon="9.286989142910612"><ele>468.49999999999994</ele><time>2026-04-08T14:28:30.001Z</time></trkpt><trkpt lat="39.34511169900138" lon="9.286997904929118"><ele>470.0</ele><time>2026-04-08T14:28:31.001Z</time></trkpt><trkpt lat="39.345192242136456" lon="9.28700672973239"><ele>471.5</ele><time>2026-04-08T14:28:32.001Z</time></trkpt><trkpt lat="39.34527773824355" lon="9.287033808437402"><ele>473.0</ele><time>2026-04-08T14:28:33.001Z</time></trkpt><trkpt lat="39.345353204492504" lon="9.287090667151071"><ele>474.49999999999994</ele><time>2026-04-08T14:28:34.001Z</time></trkpt><trkpt lat="39.3454007534755" lon="9.287183736454182"><ele>476.0</ele><time>2026-04-08T14:28:35.001Z</time></trkpt><trkpt lat="39.34544788574561" lon="9.287252431588291"><ele>475.20000000000005</ele><time>2026-04-08T14:28:36.001Z</time></trkpt><trkpt lat="39.34552162893044" lon="9.287317181746994"><ele>474.40000000000003</ele><time>2026-04-08T14:28:37.001Z</time></trkpt><trkpt lat="39.34558988988613" lon="9.287401995245492"><ele>473.6</ele><time>2026-04-08T14:28:38.001Z</time></trkpt><trkpt lat="39.34566768211794" lon="9.287463646999022"><ele>472.8</ele><time>2026-04-08T14:28:39.001Z</time></trkpt><trkpt lat="39.34575084896502" lon="9.28751309867834"><ele>472.0</ele><time>2026-04-08T14:28:40.001Z</time></trkpt><trkpt lat="39.34583921676048" lon="9.287563801329402"><ele>472.00000000000006</ele><time>2026-04-08T14:28:41.001Z</time></trkpt><trkpt lat="39.345922575598394" lon="9.2876120760633"><ele>472.0</ele><time>2026-04-08T14:28:42.001Z</time></trkpt><trkpt lat="39.34600943686943" lon="9.287681991736752"><ele>472.0</ele><time>2026-04-08T14:28:43.001Z</time></trkpt><trkpt lat="39.34607363743627" lon="9.287735692137623"><ele>472.0</ele><time>2026-04-08T14:28:44.001Z</time></trkpt><trkpt lat="39.34614616262964" lon="9.287782711648447"><ele>472.00000000000006</ele><time>2026-04-08T14:28:45.001Z</time></trkpt><trkpt lat="39.34623442700021" lon="9.287812278644074"><ele>472.0</ele><time>2026-04-08T14:28:46.001Z</time></trkpt><trkpt lat="39.34633023580221" lon="9.287830316022196"><ele>474.6</ele><time>2026-04-08T14:28:47.001Z</time></trkpt><trkpt lat="39.346424965135185" lon="9.287871873891977"><ele>477.20000000000005</ele><time>2026-04-08T14:28:48.001Z</time></trkpt><trkpt lat="39.346517441239186" lon="9.28788820595223"><ele>479.8</ele><time>2026-04-08T14:28:49.001Z</time></trkpt><trkpt lat="39.34661432379986" lon="9.287891406806642"><ele>482.4</ele><time>2026-04-08T14:28:50.001Z</time></trkpt><trkpt lat="39.346707682409914" lon="9.287864344333537"><ele>485.0</ele><time>2026-04-08T14:28:51.001Z</time></trkpt><trkpt lat="39.3467939070129" lon="9.287852107502937"><ele>484.99999999999994</ele><time>2026-04-08T14:28:52.001Z</time></trkpt><trkpt lat="39.34687419468536" lon="9.28781864344801"><ele>485.0</ele><time>2026-04-08T14:28:53.001Z</time></trkpt><trkpt lat="39.346951838514116" lon="9.287783696206835"><ele>485.0</ele><time>2026-04-08T14:28:54.001Z</time></trkpt><trkpt lat="39.34702137678924" lon="9.287721941223733"><ele>485.0</ele><time>2026-04-08T14:28:55.001Z</time></trkpt><trkpt lat="39.34707104341117" lon="9.287642625093394"><ele>484.99999999999994</ele><time>2026-04-08T14:28:56.001Z</time></trkpt><trkpt lat="39.34713147994809" lon="9.287571441242095"><ele>485.0</ele><time>2026-04-08T14:28:57.001Z</time></trkpt><trkpt lat="39.347190185792144" lon="9.287511847100161"><ele>485.4</ele><time>2026-04-08T14:28:58.001Z</time></trkpt><trkpt lat="39.34725034253985" lon="9.287455635170039"><ele>485.8</ele><time>2026-04-08T14:28:59.001Z</time></trkpt><trkpt lat="39.34731031251179" lon="9.287422226834892"><ele>486.20000000000005</ele><time>2026-04-08T14:29:00.001Z</time></trkpt><trkpt lat="39.34741184962172" lon="9.287432842330551"><ele>486.6</ele><time>2026-04-08T14:29:02.001Z</time></trkpt><trkpt lat="39.347486092325504" lon="9.287575426093783"><ele>487.0</ele><time>2026-04-08T14:29:04.001Z</time></trkpt><trkpt lat="39.347540144082046" lon="9.28766656618436"><ele>487.0</ele><time>2026-04-08T14:29:05.001Z</time></trkpt><trkpt lat="39.34758413961005" lon="9.287751579371474"><ele>487.00000000000006</ele><time>2026-04-08T14:29:06.001Z</time></trkpt><trkpt lat="39.34761722964109" lon="9.287828952324567"><ele>487.00000000000006</ele><time>2026-04-08T14:29:07.001Z</time></trkpt><trkpt lat="39.34764149601744" lon="9.2879474648576"><ele>487.0</ele><time>2026-04-08T14:29:09.001Z</time></trkpt><trkpt lat="39.34764578687382" lon="9.288113577054181"><ele>487.0</ele><time>2026-04-08T14:29:11.001Z</time></trkpt><trkpt lat="39.347640694265124" lon="9.28822600908583"><ele>486.8</ele><time>2026-04-08T14:29:12.001Z</time></trkpt><trkpt lat="39.347629492045925" lon="9.28833587467298"><ele>486.6</ele><time>2026-04-08T14:29:13.002Z</time></trkpt><trkpt lat="39.34760426672436" lon="9.288445044438078"><ele>486.40000000000003</ele><time>2026-04-08T14:29:14.002Z</time></trkpt><trkpt lat="39.347569648608626" lon="9.288538206452719"><ele>486.20000000000005</ele><time>2026-04-08T14:29:15.002Z</time></trkpt><trkpt lat="39.34752466925779" lon="9.288654494605073"><ele>486.0</ele><time>2026-04-08T14:29:16.002Z</time></trkpt><trkpt lat="39.347476168042796" lon="9.28877262898579"><ele>486.0</ele><time>2026-04-08T14:29:17.002Z</time></trkpt><trkpt lat="39.347421476178795" lon="9.288902454365921"><ele>486.0</ele><time>2026-04-08T14:29:18.002Z</time></trkpt><trkpt lat="39.34736898612691" lon="9.289019061480568"><ele>486.0</ele><time>2026-04-08T14:29:19.002Z</time></trkpt><trkpt lat="39.34731672548899" lon="9.289153114609869"><ele>486.0</ele><time>2026-04-08T14:29:20.002Z</time></trkpt><trkpt lat="39.347252700438666" lon="9.289268019152045"><ele>486.0</ele><time>2026-04-08T14:29:21.002Z</time></trkpt><trkpt lat="39.34719859119381" lon="9.289387744845058"><ele>485.6666666666667</ele><time>2026-04-08T14:29:22.002Z</time></trkpt><trkpt lat="39.347154590081246" lon="9.289477674857505"><ele>485.33333333333337</ele><time>2026-04-08T14:29:23.002Z</time></trkpt><trkpt lat="39.34711421019504" lon="9.2895559201421"><ele>485.0</ele><time>2026-04-08T14:29:24.002Z</time></trkpt><trkpt lat="39.34707992645908" lon="9.289624816251177"><ele>484.6666666666667</ele><time>2026-04-08T14:29:25.002Z</time></trkpt><trkpt lat="39.34702576497882" lon="9.289724326739622"><ele>484.33333333333337</ele><time>2026-04-08T14:29:27.002Z</time></trkpt><trkpt lat="39.346951520502756" lon="9.289844372439017"><ele>484.0</ele><time>2026-04-08T14:29:29.002Z</time></trkpt><trkpt lat="39.34688648269808" lon="9.289963472466745"><ele>484.0</ele><time>2026-04-08T14:29:31Z</time></trkpt><trkpt lat="39.34687772292618" lon="9.29004485801138"><ele>484.0</ele><time>2026-04-08T14:29:32Z</time></trkpt><trkpt lat="39.346895710643196" lon="9.290137711208674"><ele>484.0</ele><time>2026-04-08T14:29:33Z</time></trkpt><trkpt lat="39.34694216223071" lon="9.290260606439995"><ele>484.0</ele><time>2026-04-08T14:29:34Z</time></trkpt><trkpt lat="39.34700961103176" lon="9.29039945814257"><ele>484.0</ele><time>2026-04-08T14:29:35Z</time></trkpt><trkpt lat="39.34706147369321" lon="9.290532823157596"><ele>483.2</ele><time>2026-04-08T14:29:36Z</time></trkpt><trkpt lat="39.34709336423217" lon="9.29068496639202"><ele>482.4</ele><time>2026-04-08T14:29:37Z</time></trkpt><trkpt lat="39.347139094414835" lon="9.290812396604517"><ele>481.6</ele><time>2026-04-08T14:29:38Z</time></trkpt><trkpt lat="39.34719814119827" lon="9.290920961084144"><ele>480.8</ele><time>2026-04-08T14:29:39Z</time></trkpt><trkpt lat="39.34722730137644" lon="9.291033350694363"><ele>480.0</ele><time>2026-04-08T14:29:40Z</time></trkpt><trkpt lat="39.347277756416524" lon="9.291123059368239"><ele>482.0</ele><time>2026-04-08T14:29:41Z</time></trkpt><trkpt lat="39.34727646677459" lon="9.291228734752798"><ele>484.0</ele><time>2026-04-08T14:29:42Z</time></trkpt><trkpt lat="39.34724425664593" lon="9.291381637164694"><ele>486.0</ele><time>2026-04-08T14:29:44Z</time></trkpt><trkpt lat="39.347148218263584" lon="9.291468238765436"><ele>488.0</ele><time>2026-04-08T14:29:46Z</time></trkpt><trkpt lat="39.34708419995678" lon="9.29150129200053"><ele>490.0</ele><time>2026-04-08T14:29:47Z</time></trkpt><trkpt lat="39.347015830724665" lon="9.291547216551134"><ele>490.0</ele><time>2026-04-08T14:29:48Z</time></trkpt><trkpt lat="39.34692412426846" lon="9.29160189456931"><ele>490.0</ele><time>2026-04-08T14:29:49Z</time></trkpt><trkpt lat="39.346857463650764" lon="9.291664445911783"><ele>490.0</ele><time>2026-04-08T14:29:50Z</time></trkpt><trkpt lat="39.34677471366962" lon="9.291732608643976"><ele>490.0</ele><time>2026-04-08T14:29:51Z</time></trkpt><trkpt lat="39.34669037955524" lon="9.291794881226505"><ele>490.0</ele><time>2026-04-08T14:29:52Z</time></trkpt><trkpt lat="39.34659185383734" lon="9.29187470774404"><ele>490.0</ele><time>2026-04-08T14:29:53Z</time></trkpt><trkpt lat="39.346501321275525" lon="9.291960604418573"><ele>490.0</ele><time>2026-04-08T14:29:54Z</time></trkpt><trkpt lat="39.34641096628155" lon="9.292039886135276"><ele>490.0</ele><time>2026-04-08T14:29:55Z</time></trkpt><trkpt lat="39.346319253932336" lon="9.292097812241785"><ele>490.0</ele><time>2026-04-08T14:29:56Z</time></trkpt><trkpt lat="39.346217799833546" lon="9.292153392725668"><ele>490.0</ele><time>2026-04-08T14:29:57Z</time></trkpt><trkpt lat="39.3461204488485" lon="9.29220511039249"><ele>487.6</ele><time>2026-04-08T14:29:58Z</time></trkpt><trkpt lat="39.346025200843286" lon="9.29223823006306"><ele>485.2</ele><time>2026-04-08T14:29:59Z</time></trkpt><trkpt lat="39.345944453494994" lon="9.292299603265196"><ele>482.79999999999995</ele><time>2026-04-08T14:30:00Z</time></trkpt><trkpt lat="39.345871584145016" lon="9.292397620418873"><ele>480.4</ele><time>2026-04-08T14:30:01Z</time></trkpt><trkpt lat="39.34579792093689" lon="9.29248602528561"><ele>478.0</ele><time>2026-04-08T14:30:02Z</time></trkpt><trkpt lat="39.34571161809757" lon="9.292536316852322"><ele>482.0</ele><time>2026-04-08T14:30:03Z</time></trkpt><trkpt lat="39.345629292154214" lon="9.292600067038704"><ele>485.99999999999994</ele><time>2026-04-08T14:30:04Z</time></trkpt><trkpt lat="39.34555008794623" lon="9.292678762033788"><ele>489.99999999999994</ele><time>2026-04-08T14:30:05Z</time></trkpt><trkpt lat="39.34548178241307" lon="9.29277017028076"><ele>494.0</ele><time>2026-04-08T14:30:06Z</time></trkpt><trkpt lat="39.34541631711319" lon="9.292864151630503"><ele>498.0</ele><time>2026-04-08T14:30:07Z</time></trkpt><trkpt lat="39.345355132773555" lon="9.292957400204267"><ele>498.0</ele><time>2026-04-08T14:30:08Z</time></trkpt><trkpt lat="39.34527170777123" lon="9.293032299116186"><ele>497.99999999999994</ele><time>2026-04-08T14:30:09.001Z</time></trkpt><trkpt lat="39.34520525481857" lon="9.293121269038863"><ele>497.99999999999994</ele><time>2026-04-08T14:30:10.001Z</time></trkpt><trkpt lat="39.34514244976954" lon="9.293214308200893"><ele>498.0</ele><time>2026-04-08T14:30:11.001Z</time></trkpt><trkpt lat="39.34510997612121" lon="9.293290302421509"><ele>498.0</ele><time>2026-04-08T14:30:12.001Z</time></trkpt><trkpt lat="39.34501048803186" lon="9.29332816165478"><ele>501.8333333333333</ele><time>2026-04-08T14:30:14.001Z</time></trkpt><trkpt lat="39.34495839418288" lon="9.293275659248486"><ele>505.66666666666663</ele><time>2026-04-08T14:30:15.001Z</time></trkpt><trkpt lat="39.34490897351519" lon="9.29317732025699"><ele>509.5</ele><time>2026-04-08T14:30:16.001Z</time></trkpt><trkpt lat="39.34484046169976" lon="9.293148566551325"><ele>513.3333333333333</ele><time>2026-04-08T14:30:17.001Z</time></trkpt><trkpt lat="39.34476050049372" lon="9.293126235470881"><ele>517.1666666666666</ele><time>2026-04-08T14:30:18.001Z</time></trkpt><trkpt lat="39.344691360731574" lon="9.293137555743554"><ele>521.0</ele><time>2026-04-08T14:30:19.001Z</time></trkpt><trkpt lat="39.344600778864745" lon="9.293174275087287"><ele>521.6</ele><time>2026-04-08T14:30:20.001Z</time></trkpt><trkpt lat="39.34448456592691" lon="9.293140664766783"><ele>522.2</ele><time>2026-04-08T14:30:21.001Z</time></trkpt><trkpt lat="39.34438539321582" lon="9.293093095103576"><ele>522.8</ele><time>2026-04-08T14:30:22.001Z</time></trkpt><trkpt lat="39.34428719535066" lon="9.29305715010548"><ele>523.4</ele><time>2026-04-08T14:30:23.001Z</time></trkpt><trkpt lat="39.344188416800584" lon="9.293030241354318"><ele>524.0</ele><time>2026-04-08T14:30:24.001Z</time></trkpt><trkpt lat="39.34410242609266" lon="9.293026640609618"><ele>524.0</ele><time>2026-04-08T14:30:25.001Z</time></trkpt><trkpt lat="39.344025217648536" lon="9.293043993846556"><ele>524.0</ele><time>2026-04-08T14:30:26.001Z</time></trkpt><trkpt lat="39.34394741326504" lon="9.293082311954405"><ele>524.0</ele><time>2026-04-08T14:30:27.001Z</time></trkpt><trkpt lat="39.34388256377783" lon="9.293165530701138"><ele>524.0</ele><time>2026-04-08T14:30:28.001Z</time></trkpt><trkpt lat="39.34384178536548" lon="9.293237932139537"><ele>524.0</ele><time>2026-04-08T14:30:29.001Z</time></trkpt><trkpt lat="39.34382317054524" lon="9.293334974832591"><ele>524.0</ele><time>2026-04-08T14:30:30.001Z</time></trkpt><trkpt lat="39.34377055804133" lon="9.293432396229761"><ele>521.6</ele><time>2026-04-08T14:30:31.001Z</time></trkpt><trkpt lat="39.3437371595953" lon="9.293540771073127"><ele>519.2</ele><time>2026-04-08T14:30:32.001Z</time></trkpt><trkpt lat="39.343682010091364" lon="9.293663733956512"><ele>516.8000000000001</ele><time>2026-04-08T14:30:33.001Z</time></trkpt><trkpt lat="39.343614497403316" lon="9.293772988974919"><ele>514.4</ele><time>2026-04-08T14:30:34.001Z</time></trkpt><trkpt lat="39.34356732995717" lon="9.293873637767208"><ele>512.0</ele><time>2026-04-08T14:30:35.001Z</time></trkpt><trkpt lat="39.34354084788148" lon="9.293960743656632"><ele>511.99999999999994</ele><time>2026-04-08T14:30:36.001Z</time></trkpt><trkpt lat="39.34354410816449" lon="9.294047889907757"><ele>512.0</ele><time>2026-04-08T14:30:37.001Z</time></trkpt><trkpt lat="39.34358343048223" lon="9.29412241015181"><ele>512.0</ele><time>2026-04-08T14:30:38.001Z</time></trkpt><trkpt lat="39.34365119459387" lon="9.29418611581726"><ele>512.0</ele><time>2026-04-08T14:30:39.001Z</time></trkpt><trkpt lat="39.34374498205262" lon="9.29421539801379"><ele>511.99999999999994</ele><time>2026-04-08T14:30:40.001Z</time></trkpt><trkpt lat="39.343824872027625" lon="9.29429717692245"><ele>512.0</ele><time>2026-04-08T14:30:41.001Z</time></trkpt><trkpt lat="39.343905320805085" lon="9.294373108290044"><ele>513.8333333333333</ele><time>2026-04-08T14:30:42.001Z</time></trkpt><trkpt lat="39.34396362824979" lon="9.294450605619534"><ele>515.6666666666666</ele><time>2026-04-08T14:30:43.001Z</time></trkpt><trkpt lat="39.34397726999938" lon="9.294541901725234"><ele>517.5</ele><time>2026-04-08T14:30:44.001Z</time></trkpt><trkpt lat="39.34397579853749" lon="9.294627306762315"><ele>519.3333333333334</ele><time>2026-04-08T14:30:45.001Z</time></trkpt><trkpt lat="39.3439478991914" lon="9.294711462324036"><ele>521.1666666666667</ele><time>2026-04-08T14:30:46.001Z</time></trkpt><trkpt lat="39.34391516192696" lon="9.294791752225901"><ele>523.0</ele><time>2026-04-08T14:30:47.001Z</time></trkpt><trkpt lat="39.343860180746404" lon="9.294931140849165"><ele>523.0</ele><time>2026-04-08T14:30:49.001Z</time></trkpt><trkpt lat="39.343822870616414" lon="9.295063603636393"><ele>523.0</ele><time>2026-04-08T14:30:50.001Z</time></trkpt><trkpt lat="39.34378982951325" lon="9.295206029785426"><ele>523.0</ele><time>2026-04-08T14:30:51.001Z</time></trkpt><trkpt lat="39.343756049623785" lon="9.295350209264258"><ele>523.0</ele><time>2026-04-08T14:30:52.001Z</time></trkpt><trkpt lat="39.34370966161645" lon="9.295479523268986"><ele>525.3333333333334</ele><time>2026-04-08T14:30:53.001Z</time></trkpt><trkpt lat="39.34366120812779" lon="9.29558762213815"><ele>527.6666666666667</ele><time>2026-04-08T14:30:54.001Z</time></trkpt><trkpt lat="39.34361843331044" lon="9.295658772288785"><ele>530.0</ele><time>2026-04-08T14:30:55.001Z</time></trkpt><trkpt lat="39.34353019409751" lon="9.295770156700227"><ele>532.3333333333334</ele><time>2026-04-08T14:30:57.001Z</time></trkpt><trkpt lat="39.34346937446802" lon="9.295823995210617"><ele>534.6666666666666</ele><time>2026-04-08T14:30:58.001Z</time></trkpt><trkpt lat="39.34340570941167" lon="9.295871224529492"><ele>537.0</ele><time>2026-04-08T14:30:59.001Z</time></trkpt><trkpt lat="39.34332807418001" lon="9.29592226643795"><ele>537.0</ele><time>2026-04-08T14:31:00.001Z</time></trkpt><trkpt lat="39.34323378804983" lon="9.295980930608328"><ele>537.0</ele><time>2026-04-08T14:31:01.001Z</time></trkpt><trkpt lat="39.343130282333746" lon="9.29604873130173"><ele>537.0</ele><time>2026-04-08T14:31:02.001Z</time></trkpt><trkpt lat="39.34304792384492" lon="9.296134475473405"><ele>537.0</ele><time>2026-04-08T14:31:03.001Z</time></trkpt><trkpt lat="39.34297806567721" lon="9.296196052945847"><ele>537.0</ele><time>2026-04-08T14:31:04.001Z</time></trkpt><trkpt lat="39.34292019817803" lon="9.296240082510234"><ele>536.8333333333334</ele><time>2026-04-08T14:31:05.001Z</time></trkpt><trkpt lat="39.34287642729392" lon="9.296355702991667"><ele>536.6666666666666</ele><time>2026-04-08T14:31:07.002Z</time></trkpt><trkpt lat="39.34294532620805" lon="9.2964762745746"><ele>536.5</ele><time>2026-04-08T14:31:09.002Z</time></trkpt><trkpt lat="39.34301045665251" lon="9.296505174950077"><ele>536.3333333333333</ele><time>2026-04-08T14:31:10.002Z</time></trkpt><trkpt lat="39.34307037638958" lon="9.296537206103547"><ele>536.1666666666666</ele><time>2026-04-08T14:31:11.002Z</time></trkpt><trkpt lat="39.3431446648186" lon="9.296554396838122"><ele>536.0</ele><time>2026-04-08T14:31:12.002Z</time></trkpt><trkpt lat="39.34322384741373" lon="9.296565395819373"><ele>537.5</ele><time>2026-04-08T14:31:13.002Z</time></trkpt><trkpt lat="39.343346254489184" lon="9.296544220783936"><ele>539.0</ele><time>2026-04-08T14:31:15.002Z</time></trkpt><trkpt lat="39.343418505086895" lon="9.296543931333574"><ele>540.5</ele><time>2026-04-08T14:31:16.002Z</time></trkpt><trkpt lat="39.34348680100131" lon="9.296549377184885"><ele>542.0</ele><time>2026-04-08T14:31:17.002Z</time></trkpt><trkpt lat="39.34355789826785" lon="9.296541119508033"><ele>543.5</ele><time>2026-04-08T14:31:18.002Z</time></trkpt><trkpt lat="39.343623107748556" lon="9.296544041836789"><ele>545.0</ele><time>2026-04-08T14:31:19.002Z</time></trkpt><trkpt lat="39.34369108213975" lon="9.29655826234055"><ele>545.0</ele><time>2026-04-08T14:31:20.002Z</time></trkpt><trkpt lat="39.34376051042917" lon="9.296567890537473"><ele>545.0</ele><time>2026-04-08T14:31:21.002Z</time></trkpt><trkpt lat="39.34383149009148" lon="9.296578053972622"><ele>545.0</ele><time>2026-04-08T14:31:22.002Z</time></trkpt><trkpt lat="39.34390649781943" lon="9.296578061602403"><ele>545.0</ele><time>2026-04-08T14:31:23.002Z</time></trkpt><trkpt lat="39.343984487438604" lon="9.2965763719885"><ele>545.0</ele><time>2026-04-08T14:31:24.002Z</time></trkpt><trkpt lat="39.34406626471398" lon="9.29657945355735"><ele>545.0</ele><time>2026-04-08T14:31:25.002Z</time></trkpt><trkpt lat="39.34415167710325" lon="9.296579548378281"><ele>547.6</ele><time>2026-04-08T14:31:26.002Z</time></trkpt><trkpt lat="39.344241004965674" lon="9.29658036237444"><ele>550.2</ele><time>2026-04-08T14:31:27.002Z</time></trkpt><trkpt lat="39.34436318712025" lon="9.296575249701627"><ele>552.8</ele><time>2026-04-08T14:31:29.002Z</time></trkpt><trkpt lat="39.34448636125175" lon="9.296571198656068"><ele>555.4</ele><time>2026-04-08T14:31:31.002Z</time></trkpt><trkpt lat="39.344555563967965" lon="9.296567423029694"><ele>558.0</ele><time>2026-04-08T14:31:32.002Z</time></trkpt><trkpt lat="39.34462679396173" lon="9.296578597003686"><ele>560.0</ele><time>2026-04-08T14:31:33.002Z</time></trkpt><trkpt lat="39.34476209459448" lon="9.296548989579968"><ele>562.0</ele><time>2026-04-08T14:31:35.002Z</time></trkpt><trkpt lat="39.34482300687477" lon="9.296514191357822"><ele>564.0</ele><time>2026-04-08T14:31:36.002Z</time></trkpt><trkpt lat="39.344905806744876" lon="9.296421578993264"><ele>566.0</ele><time>2026-04-08T14:31:38Z</time></trkpt><trkpt lat="39.34493196524842" lon="9.296331868124842"><ele>568.0</ele><time>2026-04-08T14:31:39Z</time></trkpt><trkpt lat="39.34494745270461" lon="9.296226090813516"><ele>568.0</ele><time>2026-04-08T14:31:40Z</time></trkpt><trkpt lat="39.34495251798047" lon="9.296098501969887"><ele>568.0</ele><time>2026-04-08T14:31:41Z</time></trkpt><trkpt lat="39.34497949700395" lon="9.29598950804151"><ele>568.0</ele><time>2026-04-08T14:31:42Z</time></trkpt><trkpt lat="39.34499412504384" lon="9.295887050452874"><ele>568.0</ele><time>2026-04-08T14:31:43Z</time></trkpt><trkpt lat="39.34501329699572" lon="9.295799528670281"><ele>568.0</ele><time>2026-04-08T14:31:44Z</time></trkpt><trkpt lat="39.345039398128705" lon="9.295716784839094"><ele>568.0</ele><time>2026-04-08T14:31:45Z</time></trkpt><trkpt lat="39.34513691508626" lon="9.295628768370158"><ele>568.0</ele><time>2026-04-08T14:31:47Z</time></trkpt><trkpt lat="39.34520977516702" lon="9.295601856289883"><ele>568.0</ele><time>2026-04-08T14:31:48Z</time></trkpt><trkpt lat="39.34529274917221" lon="9.295577675273297"><ele>568.0</ele><time>2026-04-08T14:31:49Z</time></trkpt><trkpt lat="39.345363547571125" lon="9.295569451514725"><ele>568.0</ele><time>2026-04-08T14:31:50Z</time></trkpt><trkpt lat="39.34543091940069" lon="9.29562310477642"><ele>568.0</ele><time>2026-04-08T14:31:52Z</time></trkpt><trkpt lat="39.34542618881339" lon="9.29570653153182"><ele>568.0</ele><time>2026-04-08T14:31:54Z</time></trkpt><trkpt lat="39.345414538162586" lon="9.295863799921896"><ele>568.0</ele><time>2026-04-08T14:31:56Z</time></trkpt><trkpt lat="39.34543132829737" lon="9.295955387573242"><ele>568.0</ele><time>2026-04-08T14:31:57Z</time></trkpt><trkpt lat="39.345439925579754" lon="9.296055826109265"><ele>568.0</ele><time>2026-04-08T14:31:58Z</time></trkpt><trkpt lat="39.34547073803279" lon="9.296152660379846"><ele>568.0</ele><time>2026-04-08T14:31:59Z</time></trkpt><trkpt lat="39.34548446310564" lon="9.296260582292591"><ele>568.0</ele><time>2026-04-08T14:32:00Z</time></trkpt><trkpt lat="39.345519564951665" lon="9.296370293286188"><ele>568.0</ele><time>2026-04-08T14:32:01Z</time></trkpt><trkpt lat="39.345545411876785" lon="9.296482489075142"><ele>569.1666666666667</ele><time>2026-04-08T14:32:02Z</time></trkpt><trkpt lat="39.345555510046154" lon="9.296574989825336"><ele>570.3333333333334</ele><time>2026-04-08T14:32:03Z</time></trkpt><trkpt lat="39.34553474457978" lon="9.29665481394773"><ele>571.5</ele><time>2026-04-08T14:32:04Z</time></trkpt><trkpt lat="39.345504278641314" lon="9.296742474703613"><ele>572.6666666666666</ele><time>2026-04-08T14:32:05Z</time></trkpt><trkpt lat="39.345469324991925" lon="9.296852929576877"><ele>573.8333333333333</ele><time>2026-04-08T14:32:06Z</time></trkpt><trkpt lat="39.34542971451664" lon="9.296972253457271"><ele>575.0</ele><time>2026-04-08T14:32:07Z</time></trkpt><trkpt lat="39.34539700813092" lon="9.29710619785332"><ele>575.0</ele><time>2026-04-08T14:32:08Z</time></trkpt><trkpt lat="39.345374508778136" lon="9.29722943771753"><ele>575.0</ele><time>2026-04-08T14:32:09Z</time></trkpt><trkpt lat="39.34536573926192" lon="9.297373368928145"><ele>575.0</ele><time>2026-04-08T14:32:10Z</time></trkpt><trkpt lat="39.34537426431054" lon="9.297505526765049"><ele>575.0</ele><time>2026-04-08T14:32:11Z</time></trkpt><trkpt lat="39.34540941056749" lon="9.297616946519463"><ele>575.0</ele><time>2026-04-08T14:32:12Z</time></trkpt><trkpt lat="39.345423053495715" lon="9.29771514107784"><ele>576.1666666666666</ele><time>2026-04-08T14:32:13Z</time></trkpt><trkpt lat="39.34546508829471" lon="9.297788608234598"><ele>577.3333333333333</ele><time>2026-04-08T14:32:14.001Z</time></trkpt><trkpt lat="39.34551237759709" lon="9.297845069568632"><ele>578.5</ele><time>2026-04-08T14:32:15.001Z</time></trkpt><trkpt lat="39.34558555780213" lon="9.297865465899362"><ele>579.6666666666666</ele><time>2026-04-08T14:32:16.001Z</time></trkpt><trkpt lat="39.34569179029974" lon="9.297818554469432"><ele>580.8333333333334</ele><time>2026-04-08T14:32:17.001Z</time></trkpt><trkpt lat="39.345814722334616" lon="9.29778247049116"><ele>582.0</ele><time>2026-04-08T14:32:18.001Z</time></trkpt><trkpt lat="39.34593233919887" lon="9.297750797473876"><ele>584.4</ele><time>2026-04-08T14:32:19.001Z</time></trkpt><trkpt lat="39.346042903888396" lon="9.297734619945132"><ele>586.8000000000001</ele><time>2026-04-08T14:32:20.001Z</time></trkpt><trkpt lat="39.34615492136846" lon="9.297718662705694"><ele>589.2</ele><time>2026-04-08T14:32:21.001Z</time></trkpt><trkpt lat="39.346269467066044" lon="9.297701019975412"><ele>591.6</ele><time>2026-04-08T14:32:22.001Z</time></trkpt><trkpt lat="39.3463778497638" lon="9.297678096016353"><ele>594.0</ele><time>2026-04-08T14:32:23.001Z</time></trkpt><trkpt lat="39.346476272090335" lon="9.297657012840741"><ele>595.4</ele><time>2026-04-08T14:32:24.001Z</time></trkpt><trkpt lat="39.34657182091288" lon="9.297653076246233"><ele>596.8</ele><time>2026-04-08T14:32:25.001Z</time></trkpt><trkpt lat="39.34667045776762" lon="9.29768705058855"><ele>598.2</ele><time>2026-04-08T14:32:26.001Z</time></trkpt><trkpt lat="39.34677157290316" lon="9.297709238427721"><ele>599.6</ele><time>2026-04-08T14:32:27.001Z</time></trkpt><trkpt lat="39.34685781155501" lon="9.29774046882266"><ele>601.0</ele><time>2026-04-08T14:32:28.001Z</time></trkpt><trkpt lat="39.34693269073462" lon="9.297779719339045"><ele>601.0</ele><time>2026-04-08T14:32:29.001Z</time></trkpt><trkpt lat="39.34698613977446" lon="9.297826322849431"><ele>601.0</ele><time>2026-04-08T14:32:30.001Z</time></trkpt><trkpt lat="39.34703889117466" lon="9.297884379523339"><ele>601.0</ele><time>2026-04-08T14:32:31.001Z</time></trkpt><trkpt lat="39.34707755261873" lon="9.29796210913497"><ele>601.0</ele><time>2026-04-08T14:32:32.001Z</time></trkpt><trkpt lat="39.347109045515985" lon="9.298046122406124"><ele>601.0</ele><time>2026-04-08T14:32:33.001Z</time></trkpt><trkpt lat="39.347125256886116" lon="9.298125859188824"><ele>601.0</ele><time>2026-04-08T14:32:34.001Z</time></trkpt><trkpt lat="39.34712838357652" lon="9.298221928731865"><ele>601.0</ele><time>2026-04-08T14:32:35.001Z</time></trkpt><trkpt lat="39.34715583140722" lon="9.29839074024227"><ele>596.5</ele><time>2026-04-08T14:32:37.001Z</time></trkpt><trkpt lat="39.347195959845024" lon="9.298493317840729"><ele>592.0</ele><time>2026-04-08T14:32:38.001Z</time></trkpt><trkpt lat="39.34720207417874" lon="9.298590866595553"><ele>587.5</ele><time>2026-04-08T14:32:39.001Z</time></trkpt><trkpt lat="39.34717212137504" lon="9.29874653995495"><ele>583.0</ele><time>2026-04-08T14:32:41.001Z</time></trkpt><trkpt lat="39.34712930061488" lon="9.29881431110937"><ele>578.5</ele><time>2026-04-08T14:32:42.001Z</time></trkpt><trkpt lat="39.347097706287926" lon="9.298915176443625"><ele>574.0</ele><time>2026-04-08T14:32:43.001Z</time></trkpt><trkpt lat="39.34706511876499" lon="9.299029624045222"><ele>572.8</ele><time>2026-04-08T14:32:44.001Z</time></trkpt><trkpt lat="39.347048902564325" lon="9.299132890272027"><ele>571.5999999999999</ele><time>2026-04-08T14:32:45.001Z</time></trkpt><trkpt lat="39.347084222776886" lon="9.299295118880277"><ele>570.4</ele><time>2026-04-08T14:32:47.001Z</time></trkpt><trkpt lat="39.347165580337844" lon="9.299429759295714"><ele>569.1999999999999</ele><time>2026-04-08T14:32:49.001Z</time></trkpt><trkpt lat="39.34723826789325" lon="9.299485126159237"><ele>568.0</ele><time>2026-04-08T14:32:50.001Z</time></trkpt><trkpt lat="39.34732706640794" lon="9.299537658860652"><ele>570.6666666666667</ele><time>2026-04-08T14:32:51.001Z</time></trkpt><trkpt lat="39.34742109424321" lon="9.29959074360438"><ele>573.3333333333334</ele><time>2026-04-08T14:32:52.001Z</time></trkpt><trkpt lat="39.34750086046488" lon="9.299655983897193"><ele>576.0</ele><time>2026-04-08T14:32:53.001Z</time></trkpt><trkpt lat="39.347558956864724" lon="9.299713735080934"><ele>578.6666666666666</ele><time>2026-04-08T14:32:54.001Z</time></trkpt><trkpt lat="39.347621965323576" lon="9.299775002290305"><ele>581.3333333333333</ele><time>2026-04-08T14:32:55.001Z</time></trkpt><trkpt lat="39.34768347483449" lon="9.29981173181441"><ele>584.0</ele><time>2026-04-08T14:32:56.001Z</time></trkpt><trkpt lat="39.34775334658109" lon="9.29982796532805"><ele>584.0</ele><time>2026-04-08T14:32:57.001Z</time></trkpt><trkpt lat="39.34782234588977" lon="9.299801636699984"><ele>584.0</ele><time>2026-04-08T14:32:58.001Z</time></trkpt><trkpt lat="39.347903335211264" lon="9.299761520552075"><ele>584.0</ele><time>2026-04-08T14:32:59.001Z</time></trkpt><trkpt lat="39.34799110319999" lon="9.299723736632348"><ele>584.0</ele><time>2026-04-08T14:33:00.001Z</time></trkpt><trkpt lat="39.34806700275793" lon="9.299715599542996"><ele>584.0</ele><time>2026-04-08T14:33:01.001Z</time></trkpt><trkpt lat="39.34814156337088" lon="9.299717297276159"><ele>584.0</ele><time>2026-04-08T14:33:02.001Z</time></trkpt><trkpt lat="39.34822419970659" lon="9.299754434361311"><ele>584.5</ele><time>2026-04-08T14:33:03.001Z</time></trkpt><trkpt lat="39.34829683968505" lon="9.299781878302502"><ele>585.0</ele><time>2026-04-08T14:33:04.001Z</time></trkpt><trkpt lat="39.348361902722125" lon="9.299797228214029"><ele>585.5</ele><time>2026-04-08T14:33:05.001Z</time></trkpt><trkpt lat="39.348504004198624" lon="9.299783473161924"><ele>586.0</ele><time>2026-04-08T14:33:07.001Z</time></trkpt><trkpt lat="39.348581538405625" lon="9.29976462490319"><ele>586.5</ele><time>2026-04-08T14:33:08.001Z</time></trkpt><trkpt lat="39.34865046129539" lon="9.299750683913386"><ele>587.0</ele><time>2026-04-08T14:33:09.001Z</time></trkpt><trkpt lat="39.34872634535274" lon="9.29974034914455"><ele>588.8333333333333</ele><time>2026-04-08T14:33:10.001Z</time></trkpt><trkpt lat="39.34880996991794" lon="9.299713213464972"><ele>590.6666666666666</ele><time>2026-04-08T14:33:11.001Z</time></trkpt><trkpt lat="39.34888699367985" lon="9.299719628947035"><ele>592.5</ele><time>2026-04-08T14:33:12.001Z</time></trkpt><trkpt lat="39.34895436899288" lon="9.299716127626771"><ele>594.3333333333334</ele><time>2026-04-08T14:33:13.001Z</time></trkpt><trkpt lat="39.34898326859411" lon="9.299808924393762"><ele>596.1666666666667</ele><time>2026-04-08T14:33:14.001Z</time></trkpt><trkpt lat="39.349048050422866" lon="9.29986745591495"><ele>598.0</ele><time>2026-04-08T14:33:15.002Z</time></trkpt><trkpt lat="39.34912060282281" lon="9.29993788935384"><ele>598.0</ele><time>2026-04-08T14:33:16.002Z</time></trkpt><trkpt lat="39.34919323225853" lon="9.300021914282883"><ele>598.0</ele><time>2026-04-08T14:33:17.002Z</time></trkpt><trkpt lat="39.349267166782035" lon="9.300115154572023"><ele>598.0</ele><time>2026-04-08T14:33:18.002Z</time></trkpt><trkpt lat="39.34932472097165" lon="9.300208963342076"><ele>598.0</ele><time>2026-04-08T14:33:19.002Z</time></trkpt><trkpt lat="39.34938044279374" lon="9.300315119878652"><ele>598.0</ele><time>2026-04-08T14:33:20.002Z</time></trkpt><trkpt lat="39.34942945380873" lon="9.3004249961688"><ele>598.0</ele><time>2026-04-08T14:33:21.002Z</time></trkpt><trkpt lat="39.34946818125109" lon="9.300546973435083"><ele>598.0</ele><time>2026-04-08T14:33:22.002Z</time></trkpt><trkpt lat="39.349509359802205" lon="9.300673638182172"><ele>598.0</ele><time>2026-04-08T14:33:23.002Z</time></trkpt><trkpt lat="39.34956417130058" lon="9.300791094541724"><ele>598.0</ele><time>2026-04-08T14:33:24.002Z</time></trkpt><trkpt lat="39.349630533543525" lon="9.300891974839374"><ele>598.0</ele><time>2026-04-08T14:33:25.002Z</time></trkpt><trkpt lat="39.34969255468103" lon="9.300985552200133"><ele>597.0</ele><time>2026-04-08T14:33:26.002Z</time></trkpt><trkpt lat="39.34974963714572" lon="9.301076273076347"><ele>596.0</ele><time>2026-04-08T14:33:27.002Z</time></trkpt><trkpt lat="39.349784727418154" lon="9.301158192725394"><ele>595.0</ele><time>2026-04-08T14:33:28.002Z</time></trkpt><trkpt lat="39.349821073354505" lon="9.301251258342822"><ele>594.0</ele><time>2026-04-08T14:33:29.002Z</time></trkpt><trkpt lat="39.34985036596929" lon="9.301352578577006"><ele>593.0</ele><time>2026-04-08T14:33:30.002Z</time></trkpt><trkpt lat="39.34990329852411" lon="9.301441887515168"><ele>592.0</ele><time>2026-04-08T14:33:31.002Z</time></trkpt><trkpt lat="39.34994799651596" lon="9.301525858383211"><ele>592.0</ele><time>2026-04-08T14:33:32.002Z</time></trkpt><trkpt lat="39.350001524283186" lon="9.301574568730793"><ele>592.0</ele><time>2026-04-08T14:33:33.002Z</time></trkpt><trkpt lat="39.3500648427521" lon="9.301604647409196"><ele>592.0</ele><time>2026-04-08T14:33:34.002Z</time></trkpt><trkpt lat="39.350117327833814" lon="9.301654630739245"><ele>592.0</ele><time>2026-04-08T14:33:35.002Z</time></trkpt><trkpt lat="39.3501794700903" lon="9.301698710881285"><ele>592.0</ele><time>2026-04-08T14:33:36.002Z</time></trkpt><trkpt lat="39.350241276931065" lon="9.301744866070145"><ele>592.0</ele><time>2026-04-08T14:33:37.002Z</time></trkpt><trkpt lat="39.35030586554062" lon="9.30176852055413"><ele>592.0</ele><time>2026-04-08T14:33:38.002Z</time></trkpt><trkpt lat="39.350369043612645" lon="9.301841754037417"><ele>592.0</ele><time>2026-04-08T14:33:39.002Z</time></trkpt><trkpt lat="39.35043575394928" lon="9.301892865874086"><ele>592.0</ele><time>2026-04-08T14:33:40.002Z</time></trkpt><trkpt lat="39.35050199174167" lon="9.301943615672148"><ele>592.0</ele><time>2026-04-08T14:33:41.002Z</time></trkpt><trkpt lat="39.35062857130547" lon="9.302020464600187"><ele>592.0</ele><time>2026-04-08T14:33:43Z</time></trkpt><trkpt lat="39.350708623184076" lon="9.302029302423925"><ele>592.0</ele><time>2026-04-08T14:33:44Z</time></trkpt><trkpt lat="39.350795803497284" lon="9.302054109467312"><ele>598.0</ele><time>2026-04-08T14:33:45Z</time></trkpt><trkpt lat="39.350875006178626" lon="9.302093092699943"><ele>604.0</ele><time>2026-04-08T14:33:46Z</time></trkpt><trkpt lat="39.35095973515964" lon="9.302118413890183"><ele>610.0</ele><time>2026-04-08T14:33:47Z</time></trkpt><trkpt lat="39.35104619396361" lon="9.302153125011387"><ele>616.0</ele><time>2026-04-08T14:33:48Z</time></trkpt><trkpt lat="39.35113493327187" lon="9.302191779942472"><ele>622.0</ele><time>2026-04-08T14:33:49Z</time></trkpt><trkpt lat="39.35123915676652" lon="9.302227042968882"><ele>623.8000000000001</ele><time>2026-04-08T14:33:50Z</time></trkpt><trkpt lat="39.351344377815415" lon="9.30225820952808"><ele>625.6</ele><time>2026-04-08T14:33:51Z</time></trkpt><trkpt lat="39.351433032818704" lon="9.302282183116194"><ele>627.4000000000001</ele><time>2026-04-08T14:33:52Z</time></trkpt><trkpt lat="39.3515203107334" lon="9.302263316063591"><ele>629.2</ele><time>2026-04-08T14:33:53Z</time></trkpt><trkpt lat="39.3516115734214" lon="9.302238091569869"><ele>631.0</ele><time>2026-04-08T14:33:54Z</time></trkpt><trkpt lat="39.351701360767855" lon="9.302197856029892"><ele>631.0</ele><time>2026-04-08T14:33:55Z</time></trkpt><trkpt lat="39.35177867472271" lon="9.302160382283871"><ele>631.0</ele><time>2026-04-08T14:33:56Z</time></trkpt><trkpt lat="39.351845972463785" lon="9.302131012809747"><ele>631.0</ele><time>2026-04-08T14:33:57Z</time></trkpt><trkpt lat="39.351915533188766" lon="9.302089990323884"><ele>631.0</ele><time>2026-04-08T14:33:58Z</time></trkpt><trkpt lat="39.35198892466538" lon="9.302078695758883"><ele>631.0</ele><time>2026-04-08T14:33:59Z</time></trkpt><trkpt lat="39.35207055892481" lon="9.302087173974318"><ele>631.0</ele><time>2026-04-08T14:34:00Z</time></trkpt><trkpt lat="39.35216850042477" lon="9.302097513080279"><ele>631.0</ele><time>2026-04-08T14:34:01Z</time></trkpt><trkpt lat="39.35226678038015" lon="9.302095406648338"><ele>631.0</ele><time>2026-04-08T14:34:02Z</time></trkpt><trkpt lat="39.35235549724822" lon="9.302074109856461"><ele>631.0</ele><time>2026-04-08T14:34:03Z</time></trkpt><trkpt lat="39.35245363529094" lon="9.302036911544928"><ele>631.0</ele><time>2026-04-08T14:34:04Z</time></trkpt><trkpt lat="39.35255244117649" lon="9.301988739488312"><ele>631.0</ele><time>2026-04-08T14:34:05Z</time></trkpt><trkpt lat="39.352643217164136" lon="9.301941425604722"><ele>631.0</ele><time>2026-04-08T14:34:06Z</time></trkpt><trkpt lat="39.35271540236209" lon="9.301898549398652"><ele>631.0</ele><time>2026-04-08T14:34:07Z</time></trkpt><trkpt lat="39.352773855318425" lon="9.301867671914467"><ele>631.0</ele><time>2026-04-08T14:34:08Z</time></trkpt><trkpt lat="39.3528503146906" lon="9.301884098128799"><ele>631.0</ele><time>2026-04-08T14:34:10Z</time></trkpt><trkpt lat="39.35290071171983" lon="9.3020124935452"><ele>631.0</ele><time>2026-04-08T14:34:12Z</time></trkpt><trkpt lat="39.3528768126635" lon="9.302102768521216"><ele>631.0</ele><time>2026-04-08T14:34:13Z</time></trkpt><trkpt lat="39.352862521922376" lon="9.302191464114944"><ele>627.0</ele><time>2026-04-08T14:34:14Z</time></trkpt><trkpt lat="39.35284815186405" lon="9.302284375984673"><ele>623.0</ele><time>2026-04-08T14:34:15Z</time></trkpt><trkpt lat="39.35282672651491" lon="9.302388252856359"><ele>619.0</ele><time>2026-04-08T14:34:16Z</time></trkpt><trkpt lat="39.352794836982426" lon="9.30250930632383"><ele>615.0</ele><time>2026-04-08T14:34:17Z</time></trkpt><trkpt lat="39.35276123782285" lon="9.302611854636481"><ele>611.0</ele><time>2026-04-08T14:34:18Z</time></trkpt><trkpt lat="39.35271903947652" lon="9.302706031831894"><ele>607.0</ele><time>2026-04-08T14:34:19Z</time></trkpt><trkpt lat="39.352674149419975" lon="9.302791085824529"><ele>607.0</ele><time>2026-04-08T14:34:20Z</time></trkpt><trkpt lat="39.352616548169664" lon="9.302874918357224"><ele>607.0</ele><time>2026-04-08T14:34:21Z</time></trkpt><trkpt lat="39.35254234777446" lon="9.302945741560261"><ele>607.0</ele><time>2026-04-08T14:34:22Z</time></trkpt><trkpt lat="39.35248472070262" lon="9.303021825680158"><ele>607.0</ele><time>2026-04-08T14:34:23Z</time></trkpt><trkpt lat="39.35249510885507" lon="9.303189260751589"><ele>607.0</ele><time>2026-04-08T14:34:25Z</time></trkpt><trkpt lat="39.35247898153016" lon="9.303285712048181"><ele>608.0</ele><time>2026-04-08T14:34:26Z</time></trkpt><trkpt lat="39.35246482469095" lon="9.303377585809393"><ele>609.0</ele><time>2026-04-08T14:34:27Z</time></trkpt><trkpt lat="39.35243221100296" lon="9.303453936643173"><ele>610.0</ele><time>2026-04-08T14:34:28Z</time></trkpt><trkpt lat="39.35238705890944" lon="9.303527926101083"><ele>611.0</ele><time>2026-04-08T14:34:29Z</time></trkpt><trkpt lat="39.35233248373398" lon="9.303631968036974"><ele>612.0</ele><time>2026-04-08T14:34:30Z</time></trkpt><trkpt lat="39.35228016326791" lon="9.303728511344811"><ele>613.0</ele><time>2026-04-08T14:34:31Z</time></trkpt><trkpt lat="39.3522463832584" lon="9.30382759817459"><ele>616.0</ele><time>2026-04-08T14:34:32.001Z</time></trkpt><trkpt lat="39.352207976814604" lon="9.303914141822235"><ele>619.0</ele><time>2026-04-08T14:34:33.001Z</time></trkpt><trkpt lat="39.352147738631295" lon="9.30401165384662"><ele>622.0</ele><time>2026-04-08T14:34:34.001Z</time></trkpt><trkpt lat="39.35210326193124" lon="9.30410383850369"><ele>625.0</ele><time>2026-04-08T14:34:35.001Z</time></trkpt><trkpt lat="39.35204880979935" lon="9.304184820454575"><ele>628.0</ele><time>2026-04-08T14:34:36.001Z</time></trkpt><trkpt lat="39.35201192372477" lon="9.304262612300272"><ele>631.0</ele><time>2026-04-08T14:34:37.001Z</time></trkpt><trkpt lat="39.35199824832477" lon="9.304385542063812"><ele>625.0</ele><time>2026-04-08T14:34:39.001Z</time></trkpt><trkpt lat="39.35201099663023" lon="9.30447226413283"><ele>619.0</ele><time>2026-04-08T14:34:40.001Z</time></trkpt><trkpt lat="39.3520319419253" lon="9.304558170428233"><ele>613.0</ele><time>2026-04-08T14:34:41.001Z</time></trkpt><trkpt lat="39.35206175662564" lon="9.304665326123171"><ele>607.0</ele><time>2026-04-08T14:34:42.001Z</time></trkpt><trkpt lat="39.35207437275657" lon="9.304761728961166"><ele>601.0</ele><time>2026-04-08T14:34:43.001Z</time></trkpt><trkpt lat="39.352063149180786" lon="9.304847971868833"><ele>595.0</ele><time>2026-04-08T14:34:44.001Z</time></trkpt><trkpt lat="39.35201194855898" lon="9.305007082015377"><ele>595.0</ele><time>2026-04-08T14:34:46.001Z</time></trkpt><trkpt lat="39.35198892269832" lon="9.305094579397405"><ele>595.0</ele><time>2026-04-08T14:34:47.001Z</time></trkpt><trkpt lat="39.351957470892856" lon="9.305186231042214"><ele>595.0</ele><time>2026-04-08T14:34:48.001Z</time></trkpt><trkpt lat="39.35191728057274" lon="9.305262126151545"><ele>595.0</ele><time>2026-04-08T14:34:49.001Z</time></trkpt><trkpt lat="39.35187297332163" lon="9.305336966120358"><ele>595.0</ele><time>2026-04-08T14:34:50.001Z</time></trkpt><trkpt lat="39.351822560938565" lon="9.305417521992803"><ele>595.0</ele><time>2026-04-08T14:34:51.001Z</time></trkpt><trkpt lat="39.35178857529902" lon="9.305486855767343"><ele>595.0</ele><time>2026-04-08T14:34:52.001Z</time></trkpt><trkpt lat="39.351783949192196" lon="9.305652316337735"><ele>599.0</ele><time>2026-04-08T14:34:54.001Z</time></trkpt><trkpt lat="39.35179815913353" lon="9.305742303039555"><ele>603.0</ele><time>2026-04-08T14:34:55.001Z</time></trkpt><trkpt lat="39.35183423976568" lon="9.305857371343492"><ele>607.0</ele><time>2026-04-08T14:34:56.001Z</time></trkpt><trkpt lat="39.351868139753535" lon="9.305956304255579"><ele>611.0</ele><time>2026-04-08T14:34:57.001Z</time></trkpt><trkpt lat="39.351890379579196" lon="9.306092566319059"><ele>615.0</ele><time>2026-04-08T14:34:59.001Z</time></trkpt><trkpt lat="39.351867142779334" lon="9.306226401567045"><ele>615.0</ele><time>2026-04-08T14:35:01.001Z</time></trkpt><trkpt lat="39.35178960849734" lon="9.306316110001648"><ele>615.0</ele><time>2026-04-08T14:35:03.001Z</time></trkpt><trkpt lat="39.35169778469654" lon="9.30637835746089"><ele>615.0</ele><time>2026-04-08T14:35:05.001Z</time></trkpt><trkpt lat="39.35163999160609" lon="9.306418627546055"><ele>615.0</ele><time>2026-04-08T14:35:06.001Z</time></trkpt><trkpt lat="39.35153002778265" lon="9.30649793842498"><ele>615.0</ele><time>2026-04-08T14:35:08.001Z</time></trkpt><trkpt lat="39.35146164078492" lon="9.30653171165085"><ele>617.3333333333334</ele><time>2026-04-08T14:35:09.001Z</time></trkpt><trkpt lat="39.35140328839633" lon="9.306585033858049"><ele>619.6666666666666</ele><time>2026-04-08T14:35:10.001Z</time></trkpt><trkpt lat="39.35134731623269" lon="9.306652908375586"><ele>622.0</ele><time>2026-04-08T14:35:11.001Z</time></trkpt><trkpt lat="39.35127515943332" lon="9.306689350461447"><ele>624.3333333333333</ele><time>2026-04-08T14:35:12.001Z</time></trkpt><trkpt lat="39.35119808785146" lon="9.306734941934863"><ele>626.6666666666666</ele><time>2026-04-08T14:35:13.001Z</time></trkpt><trkpt lat="39.35112643557419" lon="9.306777778720475"><ele>629.0</ele><time>2026-04-08T14:35:14.001Z</time></trkpt><trkpt lat="39.35105651741936" lon="9.306865288322163"><ele>629.0</ele><time>2026-04-08T14:35:16.001Z</time></trkpt><trkpt lat="39.35107943583417" lon="9.30701639038668"><ele>629.0</ele><time>2026-04-08T14:35:18.001Z</time></trkpt><trkpt lat="39.35117551011981" lon="9.307093493216362"><ele>629.0</ele><time>2026-04-08T14:35:20.001Z</time></trkpt><trkpt lat="39.35128237486354" lon="9.307068142878009"><ele>629.0</ele><time>2026-04-08T14:35:22.001Z</time></trkpt><trkpt lat="39.351350499157334" lon="9.307081520879208"><ele>629.0</ele><time>2026-04-08T14:35:24.001Z</time></trkpt><trkpt lat="39.351472458681265" lon="9.307057936606345"><ele>631.0</ele><time>2026-04-08T14:35:26.001Z</time></trkpt><trkpt lat="39.35158304293214" lon="9.307035465430333"><ele>633.0</ele><time>2026-04-08T14:35:28.002Z</time></trkpt><trkpt lat="39.35168932796516" lon="9.306992309200975"><ele>635.0</ele><time>2026-04-08T14:35:30.002Z</time></trkpt><trkpt lat="39.351793237830954" lon="9.306946108912026"><ele>637.0</ele><time>2026-04-08T14:35:32.002Z</time></trkpt><trkpt lat="39.35187004317209" lon="9.306957060757362"><ele>639.0</ele><time>2026-04-08T14:35:34.002Z</time></trkpt><trkpt lat="39.35184055505485" lon="9.307046699902202"><ele>639.0</ele><time>2026-04-08T14:35:37.002Z</time></trkpt><trkpt lat="39.35178675318341" lon="9.307156362817576"><ele>639.0</ele><time>2026-04-08T14:35:40.002Z</time></trkpt><trkpt lat="39.35175607999212" lon="9.307255687829045"><ele>639.0</ele><time>2026-04-08T14:35:41.002Z</time></trkpt><trkpt lat="39.35174204171019" lon="9.307347973897889"><ele>639.0</ele><time>2026-04-08T14:35:42.002Z</time></trkpt><trkpt lat="39.35176654377222" lon="9.307500645343522"><ele>639.0</ele><time>2026-04-08T14:35:44.002Z</time></trkpt><trkpt lat="39.35188723661522" lon="9.307511131868921"><ele>639.0</ele><time>2026-04-08T14:35:46.002Z</time></trkpt><trkpt lat="39.35197685823807" lon="9.307438780690143"><ele>639.0</ele><time>2026-04-08T14:35:48.002Z</time></trkpt><trkpt lat="39.35204849529598" lon="9.30733012925143"><ele>639.0</ele><time>2026-04-08T14:35:50Z</time></trkpt><trkpt lat="39.352102189375145" lon="9.307229112885759"><ele>639.0</ele><time>2026-04-08T14:35:52Z</time></trkpt><trkpt lat="39.35218167014761" lon="9.307150630308893"><ele>639.0</ele><time>2026-04-08T14:35:54Z</time></trkpt><trkpt lat="39.35226519046147" lon="9.307063191946384"><ele>644.8</ele><time>2026-04-08T14:35:56Z</time></trkpt><trkpt lat="39.35237216838445" lon="9.306966420158963"><ele>650.5999999999999</ele><time>2026-04-08T14:35:58Z</time></trkpt><trkpt lat="39.35247096946171" lon="9.306885777316309"><ele>656.4</ele><time>2026-04-08T14:36:00Z</time></trkpt><trkpt lat="39.35254649651967" lon="9.306774981341444"><ele>662.1999999999999</ele><time>2026-04-08T14:36:02Z</time></trkpt><trkpt lat="39.35259141117966" lon="9.30670930489155"><ele>668.0</ele><time>2026-04-08T14:36:04Z</time></trkpt><trkpt lat="39.35265729247162" lon="9.30677902709772"><ele>668.0</ele><time>2026-04-08T14:36:07Z</time></trkpt><trkpt lat="39.35262093843709" lon="9.306867497855789"><ele>668.0</ele><time>2026-04-08T14:36:09Z</time></trkpt><trkpt lat="39.3525409795942" lon="9.306963234343778"><ele>668.0</ele><time>2026-04-08T14:36:11Z</time></trkpt><trkpt lat="39.35250116829499" lon="9.307046674900596"><ele>668.0</ele><time>2026-04-08T14:36:12Z</time></trkpt><trkpt lat="39.35249530619256" lon="9.307155501129863"><ele>668.0</ele><time>2026-04-08T14:36:13Z</time></trkpt><trkpt lat="39.352541187819405" lon="9.307269123796656"><ele>668.0</ele><time>2026-04-08T14:36:14Z</time></trkpt><trkpt lat="39.352597666313756" lon="9.307359052587483"><ele>668.75</ele><time>2026-04-08T14:36:15Z</time></trkpt><trkpt lat="39.35269147588752" lon="9.307443971297404"><ele>669.5</ele><time>2026-04-08T14:36:16Z</time></trkpt><trkpt lat="39.352807152474995" lon="9.307534134549662"><ele>670.25</ele><time>2026-04-08T14:36:17Z</time></trkpt><trkpt lat="39.35292203339033" lon="9.3076338701442"><ele>671.0</ele><time>2026-04-08T14:36:18Z</time></trkpt><trkpt lat="39.35300493321716" lon="9.30775534326907"><ele>678.1999999999999</ele><time>2026-04-08T14:36:19Z</time></trkpt><trkpt lat="39.35310164327022" lon="9.307824544698388"><ele>685.4</ele><time>2026-04-08T14:36:20Z</time></trkpt><trkpt lat="39.353186232626506" lon="9.307880429903745"><ele>692.6</ele><time>2026-04-08T14:36:21Z</time></trkpt><trkpt lat="39.35326979061204" lon="9.307891562345333"><ele>699.8</ele><time>2026-04-08T14:36:22Z</time></trkpt><trkpt lat="39.35336005718718" lon="9.307881449958847"><ele>707.0</ele><time>2026-04-08T14:36:23Z</time></trkpt><trkpt lat="39.35343866813184" lon="9.307858865508628"><ele>707.0</ele><time>2026-04-08T14:36:24Z</time></trkpt><trkpt lat="39.353529965100485" lon="9.307839961516246"><ele>707.0</ele><time>2026-04-08T14:36:25Z</time></trkpt><trkpt lat="39.35361287758563" lon="9.307849447982179"><ele>707.0</ele><time>2026-04-08T14:36:26Z</time></trkpt><trkpt lat="39.353700134559645" lon="9.307879194712305"><ele>707.0</ele><time>2026-04-08T14:36:27Z</time></trkpt><trkpt lat="39.35378008671829" lon="9.307911865782787"><ele>707.0</ele><time>2026-04-08T14:36:28Z</time></trkpt><trkpt lat="39.353851247247114" lon="9.307948757690427"><ele>707.0</ele><time>2026-04-08T14:36:29Z</time></trkpt><trkpt lat="39.353916961709125" lon="9.30798990364542"><ele>704.6666666666666</ele><time>2026-04-08T14:36:30Z</time></trkpt><trkpt lat="39.35397536113227" lon="9.308026935943522"><ele>702.3333333333333</ele><time>2026-04-08T14:36:31Z</time></trkpt><trkpt lat="39.35404496959535" lon="9.308063236315467"><ele>700.0</ele><time>2026-04-08T14:36:32Z</time></trkpt><trkpt lat="39.354121435302226" lon="9.30808227577712"><ele>697.6666666666666</ele><time>2026-04-08T14:36:33Z</time></trkpt><trkpt lat="39.35419439236471" lon="9.308078033993816"><ele>695.3333333333334</ele><time>2026-04-08T14:36:34.001Z</time></trkpt><trkpt lat="39.35428652663798" lon="9.308030803663675"><ele>693.0</ele><time>2026-04-08T14:36:36.001Z</time></trkpt><trkpt lat="39.35437045186623" lon="9.307986967547516"><ele>700.4</ele><time>2026-04-08T14:36:38.001Z</time></trkpt><trkpt lat="39.35446229835028" lon="9.307918830561135"><ele>707.8</ele><time>2026-04-08T14:36:40.001Z</time></trkpt><trkpt lat="39.354545454772456" lon="9.30785866528608"><ele>715.2</ele><time>2026-04-08T14:36:42.001Z</time></trkpt><trkpt lat="39.35463363965266" lon="9.30778892883341"><ele>722.6</ele><time>2026-04-08T14:36:44.001Z</time></trkpt><trkpt lat="39.354698183590955" lon="9.307714862666662"><ele>730.0</ele><time>2026-04-08T14:36:46.001Z</time></trkpt><trkpt lat="39.354780787639" lon="9.307641662222297"><ele>731.75</ele><time>2026-04-08T14:36:48.001Z</time></trkpt><trkpt lat="39.35486538822919" lon="9.30756482849439"><ele>733.5</ele><time>2026-04-08T14:36:50.001Z</time></trkpt><trkpt lat="39.354951025739624" lon="9.307488312744892"><ele>735.25</ele><time>2026-04-08T14:36:52.001Z</time></trkpt><trkpt lat="39.355032070849845" lon="9.30743335111791"><ele>737.0</ele><time>2026-04-08T14:36:54.001Z</time></trkpt><trkpt lat="39.355208957933684" lon="9.307381541049287"><ele>737.0</ele><time>2026-04-08T14:44:29Z</time></trkpt><trkpt lat="39.35528407187884" lon="9.307345770813338"><ele>737.0</ele><time>2026-04-08T14:44:31Z</time></trkpt><trkpt lat="39.35536422571702" lon="9.307344462839078"><ele>737.0</ele><time>2026-04-08T14:44:34Z</time></trkpt><trkpt lat="39.35544933971632" lon="9.307345542286807"><ele>737.0</ele><time>2026-04-08T14:44:36Z</time></trkpt><trkpt lat="39.35553709515752" lon="9.307382229940652"><ele>737.0</ele><time>2026-04-08T14:44:38Z</time></trkpt><trkpt lat="39.355589265320994" lon="9.30745965929291"><ele>737.0</ele><time>2026-04-08T14:44:40Z</time></trkpt><trkpt lat="39.35566076776057" lon="9.307527636731896"><ele>737.0000000000001</ele><time>2026-04-08T14:44:42Z</time></trkpt><trkpt lat="39.35572471383746" lon="9.307588095473635"><ele>737.0</ele><time>2026-04-08T14:44:44Z</time></trkpt><trkpt lat="39.35578586041823" lon="9.307654019077898"><ele>737.0</ele><time>2026-04-08T14:44:46Z</time></trkpt><trkpt lat="39.35572934015756" lon="9.307600933904148"><ele>737.0</ele><time>2026-04-08T14:45:04.001Z</time></trkpt><trkpt lat="39.35569090063753" lon="9.307532867712293"><ele>737.0</ele><time>2026-04-08T14:45:13.001Z</time></trkpt><trkpt lat="39.3556245411128" lon="9.307467858380749"><ele>737.0000000000001</ele><time>2026-04-08T14:45:16.001Z</time></trkpt><trkpt lat="39.35556171703104" lon="9.307433935327035"><ele>737.0</ele><time>2026-04-08T14:45:18.001Z</time></trkpt><trkpt lat="39.355509379296336" lon="9.307369801614051"><ele>737.0</ele><time>2026-04-08T14:45:20.001Z</time></trkpt><trkpt lat="39.355429576712964" lon="9.307347190293262"><ele>737.0</ele><time>2026-04-08T14:45:22.001Z</time></trkpt><trkpt lat="39.355320984267216" lon="9.307345184600852"><ele>737.0</ele><time>2026-04-08T14:45:24.001Z</time></trkpt><trkpt lat="39.35524960635284" lon="9.307351780537246"><ele>737.0</ele><time>2026-04-08T14:45:25.001Z</time></trkpt><trkpt lat="39.35514526334689" lon="9.30738098502304"><ele>737.0</ele><time>2026-04-08T14:45:27.001Z</time></trkpt><trkpt lat="39.355076539272844" lon="9.307431350302267"><ele>737.0</ele><time>2026-04-08T14:45:30.001Z</time></trkpt><trkpt lat="39.35500540133683" lon="9.307460794867456"><ele>737.0</ele><time>2026-04-08T14:45:32.001Z</time></trkpt><trkpt lat="39.354915222361946" lon="9.307545701710682"><ele>737.0</ele><time>2026-04-08T14:45:34.001Z</time></trkpt><trkpt lat="39.354860109692034" lon="9.307600276957611"><ele>737.0</ele><time>2026-04-08T14:45:35.001Z</time></trkpt><trkpt lat="39.35480418536056" lon="9.30765628709952"><ele>737.0</ele><time>2026-04-08T14:45:36.001Z</time></trkpt><trkpt lat="39.354742937501356" lon="9.307710317335681"><ele>737.0</ele><time>2026-04-08T14:45:37.001Z</time></trkpt><trkpt lat="39.354673880894275" lon="9.307766320048692"><ele>737.0</ele><time>2026-04-08T14:45:38.001Z</time></trkpt><trkpt lat="39.35460677004785" lon="9.307831074338585"><ele>735.8333333333333</ele><time>2026-04-08T14:45:39.001Z</time></trkpt><trkpt lat="39.354534987151155" lon="9.307886606463057"><ele>734.6666666666666</ele><time>2026-04-08T14:45:40.001Z</time></trkpt><trkpt lat="39.354458386981236" lon="9.307944076369656"><ele>733.5</ele><time>2026-04-08T14:45:41.001Z</time></trkpt><trkpt lat="39.35438249965609" lon="9.30799993073381"><ele>732.3333333333334</ele><time>2026-04-08T14:45:42.001Z</time></trkpt><trkpt lat="39.35430466817838" lon="9.30804531278399"><ele>731.1666666666667</ele><time>2026-04-08T14:45:43.001Z</time></trkpt><trkpt lat="39.35422755671135" lon="9.30807659634141"><ele>730.0</ele><time>2026-04-08T14:45:44.001Z</time></trkpt><trkpt lat="39.354164450553355" lon="9.308133171603615"><ele>730.0</ele><time>2026-04-08T14:45:45.001Z</time></trkpt><trkpt lat="39.35410033014459" lon="9.308166045676648"><ele>730.0</ele><time>2026-04-08T14:45:46.001Z</time></trkpt><trkpt lat="39.35398822604948" lon="9.308052028454666"><ele>730.0</ele><time>2026-04-08T14:45:47.001Z</time></trkpt><trkpt lat="39.35391021819193" lon="9.308001930315823"><ele>730.0</ele><time>2026-04-08T14:45:48.001Z</time></trkpt><trkpt lat="39.353824289740565" lon="9.307949471187124"><ele>730.0</ele><time>2026-04-08T14:45:49.001Z</time></trkpt><trkpt lat="39.35373297421623" lon="9.307911374571983"><ele>725.4</ele><time>2026-04-08T14:45:50.001Z</time></trkpt><trkpt lat="39.353658304827704" lon="9.307833955411223"><ele>720.8</ele><time>2026-04-08T14:45:51.001Z</time></trkpt><trkpt lat="39.35356956790847" lon="9.307805120053587"><ele>716.2</ele><time>2026-04-08T14:45:52.001Z</time></trkpt><trkpt lat="39.35347422677132" lon="9.307794491005188"><ele>711.6</ele><time>2026-04-08T14:45:53.001Z</time></trkpt><trkpt lat="39.353377468260234" lon="9.307817258305484"><ele>707.0</ele><time>2026-04-08T14:45:54.001Z</time></trkpt><trkpt lat="39.35329406367483" lon="9.30783310689398"><ele>707.0</ele><time>2026-04-08T14:45:55.001Z</time></trkpt><trkpt lat="39.35322105921935" lon="9.307834440142596"><ele>707.0</ele><time>2026-04-08T14:45:56.001Z</time></trkpt><trkpt lat="39.35314974636308" lon="9.307823262871787"><ele>707.0</ele><time>2026-04-08T14:45:57.001Z</time></trkpt><trkpt lat="39.353075203261824" lon="9.30777923934547"><ele>707.0</ele><time>2026-04-08T14:45:58.001Z</time></trkpt><trkpt lat="39.35300574323263" lon="9.307702274331806"><ele>707.0</ele><time>2026-04-08T14:45:59.001Z</time></trkpt><trkpt lat="39.35292481851946" lon="9.307604450833143"><ele>707.0</ele><time>2026-04-08T14:46:00.001Z</time></trkpt><trkpt lat="39.352832245761" lon="9.307503343415531"><ele>699.8</ele><time>2026-04-08T14:46:01.001Z</time></trkpt><trkpt lat="39.35274685478597" lon="9.307426924292619"><ele>692.6</ele><time>2026-04-08T14:46:02.001Z</time></trkpt><trkpt lat="39.35266640436861" lon="9.307353555253536"><ele>685.4</ele><time>2026-04-08T14:46:03.001Z</time></trkpt><trkpt lat="39.35260563694426" lon="9.307287883171025"><ele>678.1999999999999</ele><time>2026-04-08T14:46:04.001Z</time></trkpt><trkpt lat="39.35254674664461" lon="9.307166228035015"><ele>671.0</ele><time>2026-04-08T14:46:06.001Z</time></trkpt><trkpt lat="39.352530992003025" lon="9.307016215945543"><ele>670.4</ele><time>2026-04-08T14:46:08.001Z</time></trkpt><trkpt lat="39.35257169806201" lon="9.306951144747273"><ele>669.8</ele><time>2026-04-08T14:46:09.001Z</time></trkpt><trkpt lat="39.3526640444998" lon="9.306834110559885"><ele>669.1999999999999</ele><time>2026-04-08T14:46:11.001Z</time></trkpt><trkpt lat="39.3526425707166" lon="9.306725894162337"><ele>668.5999999999999</ele><time>2026-04-08T14:46:13.001Z</time></trkpt><trkpt lat="39.35257518117862" lon="9.306666406805205"><ele>668.0</ele><time>2026-04-08T14:46:15.002Z</time></trkpt><trkpt lat="39.35249587154765" lon="9.306809868584487"><ele>668.0</ele><time>2026-04-08T14:46:17.002Z</time></trkpt><trkpt lat="39.35244044401709" lon="9.306851390766184"><ele>668.0</ele><time>2026-04-08T14:46:18.002Z</time></trkpt><trkpt lat="39.352388689315056" lon="9.306899243340276"><ele>668.0</ele><time>2026-04-08T14:46:19.001Z</time></trkpt><trkpt lat="39.35230972236193" lon="9.306987679632789"><ele>668.0</ele><time>2026-04-08T14:46:21.001Z</time></trkpt><trkpt lat="39.35222789754685" lon="9.307030608632672"><ele>668.0</ele><time>2026-04-08T14:46:23.001Z</time></trkpt><trkpt lat="39.352157461874484" lon="9.307120837730162"><ele>668.0</ele><time>2026-04-08T14:46:25.001Z</time></trkpt><trkpt lat="39.35208237507181" lon="9.307223440218117"><ele>663.5999999999999</ele><time>2026-04-08T14:46:27.001Z</time></trkpt><trkpt lat="39.35200004290705" lon="9.307318614431976"><ele>659.1999999999999</ele><time>2026-04-08T14:46:29.001Z</time></trkpt><trkpt lat="39.35192274316474" lon="9.30741365310675"><ele>654.8</ele><time>2026-04-08T14:46:31.001Z</time></trkpt><trkpt lat="39.351850465224686" lon="9.307476567612829"><ele>650.4</ele><time>2026-04-08T14:46:33Z</time></trkpt><trkpt lat="39.35176679865677" lon="9.307459666569523"><ele>646.0</ele><time>2026-04-08T14:46:35Z</time></trkpt><trkpt lat="39.35176192023698" lon="9.307356428883597"><ele>644.5999999999999</ele><time>2026-04-08T14:46:37Z</time></trkpt><trkpt lat="39.3517957750014" lon="9.307234342054024"><ele>643.1999999999999</ele><time>2026-04-08T14:46:39Z</time></trkpt><trkpt lat="39.35184783148328" lon="9.30708641525689"><ele>641.8</ele><time>2026-04-08T14:46:41Z</time></trkpt><trkpt lat="39.3518652872811" lon="9.307004848900162"><ele>640.4</ele><time>2026-04-08T14:46:43Z</time></trkpt><trkpt lat="39.35183286793456" lon="9.306905320892481"><ele>639.0</ele><time>2026-04-08T14:46:45Z</time></trkpt><trkpt lat="39.351716397523475" lon="9.306914139239113"><ele>639.0</ele><time>2026-04-08T14:46:47Z</time></trkpt><trkpt lat="39.35166694219687" lon="9.306982364356152"><ele>639.0</ele><time>2026-04-08T14:46:48Z</time></trkpt><trkpt lat="39.35160215759587" lon="9.306987737849038"><ele>639.0</ele><time>2026-04-08T14:46:49Z</time></trkpt><trkpt lat="39.35153979064994" lon="9.307002109160022"><ele>639.0</ele><time>2026-04-08T14:46:50Z</time></trkpt><trkpt lat="39.35144584106634" lon="9.307019681202469"><ele>639.0</ele><time>2026-04-08T14:46:52Z</time></trkpt><trkpt lat="39.35136592986559" lon="9.307033558744402"><ele>639.0</ele><time>2026-04-08T14:46:56Z</time></trkpt><trkpt lat="39.35128274189444" lon="9.307043593703135"><ele>637.0</ele><time>2026-04-08T14:47:03.001Z</time></trkpt><trkpt lat="39.351181196304275" lon="9.307043670717304"><ele>635.0</ele><time>2026-04-08T14:47:05.001Z</time></trkpt><trkpt lat="39.35111220943892" lon="9.306984496704805"><ele>633.0</ele><time>2026-04-08T14:47:07.001Z</time></trkpt><trkpt lat="39.35109472258015" lon="9.306879999522566"><ele>631.0</ele><time>2026-04-08T14:47:22.001Z</time></trkpt><trkpt lat="39.35116076940969" lon="9.306796643483652"><ele>629.0</ele><time>2026-04-08T14:47:25.001Z</time></trkpt><trkpt lat="39.35125538297895" lon="9.306738539448224"><ele>630.6666666666666</ele><time>2026-04-08T14:47:27.001Z</time></trkpt><trkpt lat="39.35137507742285" lon="9.306654105362892"><ele>632.3333333333333</ele><time>2026-04-08T14:47:29.001Z</time></trkpt><trkpt lat="39.351428715649476" lon="9.306603350645721"><ele>634.0</ele><time>2026-04-08T14:47:30.001Z</time></trkpt><trkpt lat="39.351525666122974" lon="9.306542752243908"><ele>635.6666666666666</ele><time>2026-04-08T14:47:32.001Z</time></trkpt><trkpt lat="39.35158231001469" lon="9.306506462160257"><ele>637.3333333333334</ele><time>2026-04-08T14:47:33.001Z</time></trkpt><trkpt lat="39.351649342817645" lon="9.306460811105683"><ele>639.0</ele><time>2026-04-08T14:47:34.001Z</time></trkpt><trkpt lat="39.35170387610589" lon="9.306408180232276"><ele>635.0</ele><time>2026-04-08T14:47:35.001Z</time></trkpt><trkpt lat="39.35179380394509" lon="9.306352594638359"><ele>631.0</ele><time>2026-04-08T14:47:37.001Z</time></trkpt><trkpt lat="39.351866030587615" lon="9.306295514608543"><ele>627.0</ele><time>2026-04-08T14:47:39.001Z</time></trkpt><trkpt lat="39.351916259750574" lon="9.306176984299208"><ele>623.0</ele><time>2026-04-08T14:47:41.001Z</time></trkpt><trkpt lat="39.35191591241019" lon="9.30609022413544"><ele>619.0</ele><time>2026-04-08T14:47:42.001Z</time></trkpt><trkpt lat="39.351911422011305" lon="9.30600071470182"><ele>615.0</ele><time>2026-04-08T14:47:43.001Z</time></trkpt><trkpt lat="39.35188948125956" lon="9.30589972787075"><ele>615.0</ele><time>2026-04-08T14:47:44.001Z</time></trkpt><trkpt lat="39.35185647456393" lon="9.30581271284525"><ele>615.0</ele><time>2026-04-08T14:47:45.001Z</time></trkpt><trkpt lat="39.351823108032136" lon="9.305673430990629"><ele>615.0</ele><time>2026-04-08T14:47:47.001Z</time></trkpt><trkpt lat="39.351823535537925" lon="9.305545951932544"><ele>615.0</ele><time>2026-04-08T14:47:49.001Z</time></trkpt><trkpt lat="39.351851813125414" lon="9.305431703639172"><ele>615.0</ele><time>2026-04-08T14:47:51.001Z</time></trkpt><trkpt lat="39.35189663658303" lon="9.305367443498048"><ele>615.0</ele><time>2026-04-08T14:47:52.001Z</time></trkpt><trkpt lat="39.3519314513297" lon="9.305286196166218"><ele>611.0</ele><time>2026-04-08T14:47:53.001Z</time></trkpt><trkpt lat="39.3519808245756" lon="9.305215420445988"><ele>607.0</ele><time>2026-04-08T14:47:54.001Z</time></trkpt><trkpt lat="39.35204719409705" lon="9.30505389799999"><ele>603.0</ele><time>2026-04-08T14:47:56.001Z</time></trkpt><trkpt lat="39.35205239309424" lon="9.30497211565398"><ele>599.0</ele><time>2026-04-08T14:47:57.001Z</time></trkpt><trkpt lat="39.35208197855788" lon="9.304855169467226"><ele>595.0</ele><time>2026-04-08T14:47:58.001Z</time></trkpt><trkpt lat="39.35210002359485" lon="9.304756901655239"><ele>592.8333333333334</ele><time>2026-04-08T14:47:59.001Z</time></trkpt><trkpt lat="39.35210413853293" lon="9.3046635927131"><ele>590.6666666666667</ele><time>2026-04-08T14:48:00.001Z</time></trkpt><trkpt lat="39.35207557299222" lon="9.30458127278657"><ele>588.5</ele><time>2026-04-08T14:48:01.001Z</time></trkpt><trkpt lat="39.35205146963661" lon="9.30447379072344"><ele>586.3333333333334</ele><time>2026-04-08T14:48:02.001Z</time></trkpt><trkpt lat="39.35202678758883" lon="9.304378521332128"><ele>584.1666666666666</ele><time>2026-04-08T14:48:03.001Z</time></trkpt><trkpt lat="39.352046737381706" lon="9.304250605060187"><ele>582.0</ele><time>2026-04-08T14:48:05.001Z</time></trkpt><trkpt lat="39.352129882287784" lon="9.304129975609733"><ele>582.0</ele><time>2026-04-08T14:48:07.001Z</time></trkpt><trkpt lat="39.35216407629688" lon="9.304038957694893"><ele>582.0</ele><time>2026-04-08T14:48:08.001Z</time></trkpt><trkpt lat="39.35220672994841" lon="9.303943843214324"><ele>582.0</ele><time>2026-04-08T14:48:09.001Z</time></trkpt><trkpt lat="39.35224954426063" lon="9.303839181300003"><ele>582.0</ele><time>2026-04-08T14:48:10.001Z</time></trkpt><trkpt lat="39.35229288051921" lon="9.303745679911568"><ele>582.0</ele><time>2026-04-08T14:48:11.001Z</time></trkpt><trkpt lat="39.35234700540773" lon="9.303655271576122"><ele>582.0</ele><time>2026-04-08T14:48:12.001Z</time></trkpt><trkpt lat="39.35240466440793" lon="9.303568258676977"><ele>586.1666666666666</ele><time>2026-04-08T14:48:13.001Z</time></trkpt><trkpt lat="39.352455457046226" lon="9.303469419108513"><ele>590.3333333333334</ele><time>2026-04-08T14:48:14.001Z</time></trkpt><trkpt lat="39.35248900435202" lon="9.303377934338412"><ele>594.5</ele><time>2026-04-08T14:48:15.001Z</time></trkpt><trkpt lat="39.35251399438635" lon="9.303274986365459"><ele>598.6666666666667</ele><time>2026-04-08T14:48:16.001Z</time></trkpt><trkpt lat="39.352512450055364" lon="9.30317793979691"><ele>602.8333333333334</ele><time>2026-04-08T14:48:17.001Z</time></trkpt><trkpt lat="39.35251144939655" lon="9.303072467104972"><ele>607.0</ele><time>2026-04-08T14:48:18.001Z</time></trkpt><trkpt lat="39.35255771545082" lon="9.302954115653323"><ele>607.0</ele><time>2026-04-08T14:48:20.001Z</time></trkpt><trkpt lat="39.35264360739742" lon="9.302900365786797"><ele>607.0</ele><time>2026-04-08T14:48:21.001Z</time></trkpt><trkpt lat="39.352695172414855" lon="9.302790654736707"><ele>607.0</ele><time>2026-04-08T14:48:22.001Z</time></trkpt><trkpt lat="39.352755535550344" lon="9.302692656510306"><ele>607.0</ele><time>2026-04-08T14:48:23.001Z</time></trkpt><trkpt lat="39.35279629660563" lon="9.302599928403035"><ele>607.0</ele><time>2026-04-08T14:48:24.001Z</time></trkpt><trkpt lat="39.35282400397624" lon="9.302495267844327"><ele>607.0</ele><time>2026-04-08T14:48:25.001Z</time></trkpt><trkpt lat="39.352846600079054" lon="9.302380746247188"><ele>607.0</ele><time>2026-04-08T14:48:26.001Z</time></trkpt><trkpt lat="39.35288295446843" lon="9.302280867578597"><ele>607.0</ele><time>2026-04-08T14:48:27.001Z</time></trkpt><trkpt lat="39.352898060591905" lon="9.302176878191572"><ele>607.0</ele><time>2026-04-08T14:48:28.001Z</time></trkpt><trkpt lat="39.35290643623001" lon="9.302088299412551"><ele>607.0</ele><time>2026-04-08T14:48:29.001Z</time></trkpt><trkpt lat="39.35290335690913" lon="9.301940433569726"><ele>607.0</ele><time>2026-04-08T14:48:31.001Z</time></trkpt><trkpt lat="39.35285237861415" lon="9.301814132991968"><ele>611.0</ele><time>2026-04-08T14:48:33.001Z</time></trkpt><trkpt lat="39.35277994999644" lon="9.301787169099926"><ele>615.0</ele><time>2026-04-08T14:48:34.001Z</time></trkpt><trkpt lat="39.3527122202448" lon="9.301809074973491"><ele>619.0</ele><time>2026-04-08T14:48:35.001Z</time></trkpt><trkpt lat="39.35263762154396" lon="9.30186639089057"><ele>623.0</ele><time>2026-04-08T14:48:36.001Z</time></trkpt><trkpt lat="39.352555348089986" lon="9.301921480596073"><ele>627.0</ele><time>2026-04-08T14:48:37.001Z</time></trkpt><trkpt lat="39.3524734041378" lon="9.301975023101907"><ele>631.0</ele><time>2026-04-08T14:48:38.001Z</time></trkpt><trkpt lat="39.352374800949825" lon="9.30199284413418"><ele>631.0</ele><time>2026-04-08T14:48:39.001Z</time></trkpt><trkpt lat="39.35227781853818" lon="9.30202013520202"><ele>631.0</ele><time>2026-04-08T14:48:40.001Z</time></trkpt><trkpt lat="39.35217680844303" lon="9.302039037195346"><ele>631.0</ele><time>2026-04-08T14:48:41.001Z</time></trkpt><trkpt lat="39.35207320257546" lon="9.302045309738038"><ele>631.0</ele><time>2026-04-08T14:48:42.001Z</time></trkpt><trkpt lat="39.35197196056073" lon="9.302039994081495"><ele>631.0</ele><time>2026-04-08T14:48:43.001Z</time></trkpt><trkpt lat="39.35188187439023" lon="9.302047214792006"><ele>631.0</ele><time>2026-04-08T14:48:44.001Z</time></trkpt><trkpt lat="39.351815655028105" lon="9.302071463468174"><ele>631.0</ele><time>2026-04-08T14:48:45.001Z</time></trkpt><trkpt lat="39.3517498389024" lon="9.302097732574447"><ele>631.0</ele><time>2026-04-08T14:48:46.001Z</time></trkpt><trkpt lat="39.35166504347121" lon="9.302131884343078"><ele>631.0</ele><time>2026-04-08T14:48:47.001Z</time></trkpt><trkpt lat="39.351579031452644" lon="9.302185442624472"><ele>631.0</ele><time>2026-04-08T14:48:48.001Z</time></trkpt><trkpt lat="39.35147878481336" lon="9.302209350935287"><ele>631.0</ele><time>2026-04-08T14:48:49.001Z</time></trkpt><trkpt lat="39.351389984213334" lon="9.30223127463748"><ele>628.75</ele><time>2026-04-08T14:48:50.001Z</time></trkpt><trkpt lat="39.35129712515763" lon="9.302225130548699"><ele>626.5</ele><time>2026-04-08T14:48:51.001Z</time></trkpt><trkpt lat="39.35118689619749" lon="9.302193440399432"><ele>624.25</ele><time>2026-04-08T14:48:52.001Z</time></trkpt><trkpt lat="39.35105956606438" lon="9.302125256307775"><ele>622.0</ele><time>2026-04-08T14:48:53.001Z</time></trkpt><trkpt lat="39.35092684720257" lon="9.302088852627742"><ele>622.0</ele><time>2026-04-08T14:48:54.001Z</time></trkpt><trkpt lat="39.350809933345126" lon="9.302034131065067"><ele>622.0</ele><time>2026-04-08T14:48:55.001Z</time></trkpt><trkpt lat="39.35070433091834" lon="9.301996619010184"><ele>622.0</ele><time>2026-04-08T14:48:56.001Z</time></trkpt><trkpt lat="39.35061753032652" lon="9.301968028511489"><ele>622.0</ele><time>2026-04-08T14:48:57.001Z</time></trkpt><trkpt lat="39.350545567442175" lon="9.301933144948164"><ele>622.0</ele><time>2026-04-08T14:48:58.001Z</time></trkpt><trkpt lat="39.350474048680816" lon="9.301891454377714"><ele>616.0</ele><time>2026-04-08T14:48:59.001Z</time></trkpt><trkpt lat="39.35041018124373" lon="9.301837420181121"><ele>610.0</ele><time>2026-04-08T14:49:00.001Z</time></trkpt><trkpt lat="39.350289559210616" lon="9.3017347539178"><ele>604.0</ele><time>2026-04-08T14:49:02.001Z</time></trkpt><trkpt lat="39.350199896248355" lon="9.301672350323935"><ele>598.0</ele><time>2026-04-08T14:49:03.001Z</time></trkpt><trkpt lat="39.35012514248607" lon="9.30161701876478"><ele>592.0</ele><time>2026-04-08T14:49:04.001Z</time></trkpt><trkpt lat="39.35006410740079" lon="9.30157731520119"><ele>592.0</ele><time>2026-04-08T14:49:05.001Z</time></trkpt><trkpt lat="39.35000903479484" lon="9.301528814814091"><ele>592.0</ele><time>2026-04-08T14:49:06.001Z</time></trkpt><trkpt lat="39.349911400012935" lon="9.301427108829264"><ele>592.0</ele><time>2026-04-08T14:49:08.001Z</time></trkpt><trkpt lat="39.34987916380971" lon="9.301342519255392"><ele>592.0</ele><time>2026-04-08T14:49:09.001Z</time></trkpt><trkpt lat="39.34983842356023" lon="9.301239513643324"><ele>592.0</ele><time>2026-04-08T14:49:10.001Z</time></trkpt><trkpt lat="39.34981285451894" lon="9.301130766965628"><ele>592.0</ele><time>2026-04-08T14:49:11.001Z</time></trkpt><trkpt lat="39.349772830754226" lon="9.301040089353625"><ele>593.2</ele><time>2026-04-08T14:49:12.001Z</time></trkpt><trkpt lat="39.34971251012419" lon="9.300936430440473"><ele>594.4000000000001</ele><time>2026-04-08T14:49:13.001Z</time></trkpt><trkpt lat="39.34963944377557" lon="9.300825017367135"><ele>595.5999999999999</ele><time>2026-04-08T14:49:14.001Z</time></trkpt><trkpt lat="39.349567092277795" lon="9.30073012005578"><ele>596.8</ele><time>2026-04-08T14:49:15.001Z</time></trkpt><trkpt lat="39.3495184334753" lon="9.300626182060105"><ele>598.0</ele><time>2026-04-08T14:49:16.001Z</time></trkpt><trkpt lat="39.349468904001405" lon="9.300483302272719"><ele>598.0</ele><time>2026-04-08T14:49:17.001Z</time></trkpt><trkpt lat="39.34941814442638" lon="9.300334433381103"><ele>598.0</ele><time>2026-04-08T14:49:18.001Z</time></trkpt><trkpt lat="39.34937560570478" lon="9.300216377593866"><ele>598.0</ele><time>2026-04-08T14:49:19.001Z</time></trkpt><trkpt lat="39.34932777011045" lon="9.300127999938274"><ele>598.0</ele><time>2026-04-08T14:49:20.001Z</time></trkpt><trkpt lat="39.34926707609467" lon="9.300053296865979"><ele>598.0</ele><time>2026-04-08T14:49:21.001Z</time></trkpt><trkpt lat="39.34918664663731" lon="9.29996046015723"><ele>598.0</ele><time>2026-04-08T14:49:22.001Z</time></trkpt><trkpt lat="39.34909635846806" lon="9.299864876559031"><ele>598.0</ele><time>2026-04-08T14:49:23.001Z</time></trkpt><trkpt lat="39.349007375989544" lon="9.299775062004883"><ele>598.0</ele><time>2026-04-08T14:49:24.001Z</time></trkpt><trkpt lat="39.34893294981526" lon="9.299712916319411"><ele>598.0</ele><time>2026-04-08T14:49:25.001Z</time></trkpt><trkpt lat="39.34886892110064" lon="9.299686070681032"><ele>598.0</ele><time>2026-04-08T14:49:26.001Z</time></trkpt><trkpt lat="39.34880147865041" lon="9.299688547618755"><ele>595.8</ele><time>2026-04-08T14:49:27.001Z</time></trkpt><trkpt lat="39.34871124119959" lon="9.299718052897779"><ele>593.5999999999999</ele><time>2026-04-08T14:49:28.001Z</time></trkpt><trkpt lat="39.348616736676156" lon="9.299745304205947"><ele>591.4000000000001</ele><time>2026-04-08T14:49:29.001Z</time></trkpt><trkpt lat="39.34853987931885" lon="9.299747508398864"><ele>589.2</ele><time>2026-04-08T14:49:30.001Z</time></trkpt><trkpt lat="39.348467562010406" lon="9.299758944114686"><ele>587.0</ele><time>2026-04-08T14:49:31.001Z</time></trkpt><trkpt lat="39.34834581674738" lon="9.299763585041388"><ele>590.4</ele><time>2026-04-08T14:49:33.001Z</time></trkpt><trkpt lat="39.348217239900556" lon="9.299721176010054"><ele>593.8000000000001</ele><time>2026-04-08T14:49:35.001Z</time></trkpt><trkpt lat="39.34812690412245" lon="9.299689847800366"><ele>597.2</ele><time>2026-04-08T14:49:36.001Z</time></trkpt><trkpt lat="39.348029094919625" lon="9.299670411226275"><ele>600.6</ele><time>2026-04-08T14:49:37.001Z</time></trkpt><trkpt lat="39.34795632797958" lon="9.29967404433078"><ele>604.0</ele><time>2026-04-08T14:49:38.001Z</time></trkpt><trkpt lat="39.34785618665105" lon="9.299719298906313"><ele>604.0</ele><time>2026-04-08T14:49:39.001Z</time></trkpt><trkpt lat="39.347763490808646" lon="9.2997533117014"><ele>604.0</ele><time>2026-04-08T14:49:40.001Z</time></trkpt><trkpt lat="39.34769580251083" lon="9.299761541062242"><ele>604.0</ele><time>2026-04-08T14:49:41.001Z</time></trkpt><trkpt lat="39.34762185963587" lon="9.299756848376738"><ele>604.0</ele><time>2026-04-08T14:49:42.001Z</time></trkpt><trkpt lat="39.347533670445884" lon="9.299689902653952"><ele>604.0</ele><time>2026-04-08T14:49:43.001Z</time></trkpt><trkpt lat="39.34744182756176" lon="9.299601013444503"><ele>604.0</ele><time>2026-04-08T14:49:44.001Z</time></trkpt><trkpt lat="39.34734660630208" lon="9.29951467966398"><ele>604.0</ele><time>2026-04-08T14:49:45.001Z</time></trkpt><trkpt lat="39.34725320701638" lon="9.299435538223715"><ele>604.0</ele><time>2026-04-08T14:49:46.001Z</time></trkpt><trkpt lat="39.347172711750204" lon="9.299378034665413"><ele>604.0</ele><time>2026-04-08T14:49:47.001Z</time></trkpt><trkpt lat="39.34712085130774" lon="9.29932676489036"><ele>604.0</ele><time>2026-04-08T14:49:48.001Z</time></trkpt><trkpt lat="39.34708066397418" lon="9.299171237031851"><ele>604.5</ele><time>2026-04-08T14:49:50.001Z</time></trkpt><trkpt lat="39.34707844914164" lon="9.29907483154543"><ele>605.0</ele><time>2026-04-08T14:49:51.001Z</time></trkpt><trkpt lat="39.3470952022553" lon="9.298989792613046"><ele>605.5</ele><time>2026-04-08T14:49:52.001Z</time></trkpt><trkpt lat="39.34712627977798" lon="9.298883958739948"><ele>606.0</ele><time>2026-04-08T14:49:53.001Z</time></trkpt><trkpt lat="39.34717310034748" lon="9.29878608660104"><ele>606.5</ele><time>2026-04-08T14:49:54.001Z</time></trkpt><trkpt lat="39.34721922601183" lon="9.298707793611568"><ele>607.0</ele><time>2026-04-08T14:49:55.001Z</time></trkpt><trkpt lat="39.34724188040854" lon="9.298560533464286"><ele>607.0</ele><time>2026-04-08T14:49:57.001Z</time></trkpt><trkpt lat="39.34721326571787" lon="9.298453064260878"><ele>607.0</ele><time>2026-04-08T14:49:58.001Z</time></trkpt><trkpt lat="39.34717034258973" lon="9.298334923265422"><ele>607.0</ele><time>2026-04-08T14:49:59.001Z</time></trkpt><trkpt lat="39.347159735612465" lon="9.2982041980245"><ele>607.0</ele><time>2026-04-08T14:50:00.001Z</time></trkpt><trkpt lat="39.347149344419066" lon="9.298099299400011"><ele>607.0</ele><time>2026-04-08T14:50:01.001Z</time></trkpt><trkpt lat="39.34714202324307" lon="9.298012705082177"><ele>607.0</ele><time>2026-04-08T14:50:02.001Z</time></trkpt><trkpt lat="39.34710383287372" lon="9.297933076112223"><ele>606.0</ele><time>2026-04-08T14:50:03.001Z</time></trkpt><trkpt lat="39.34705423371492" lon="9.297844771746714"><ele>605.0</ele><time>2026-04-08T14:50:04.001Z</time></trkpt><trkpt lat="39.34698581087459" lon="9.297784406734841"><ele>604.0</ele><time>2026-04-08T14:50:05.001Z</time></trkpt><trkpt lat="39.34690479105083" lon="9.297727042980924"><ele>603.0</ele><time>2026-04-08T14:50:06.001Z</time></trkpt><trkpt lat="39.346825108968595" lon="9.297687805102917"><ele>602.0</ele><time>2026-04-08T14:50:07.001Z</time></trkpt><trkpt lat="39.346738479421916" lon="9.29766195881098"><ele>601.0</ele><time>2026-04-08T14:50:08.001Z</time></trkpt><trkpt lat="39.34665134994098" lon="9.297651179147273"><ele>601.0</ele><time>2026-04-08T14:50:09.001Z</time></trkpt><trkpt lat="39.34656754727776" lon="9.297646144717483"><ele>601.0</ele><time>2026-04-08T14:50:10.001Z</time></trkpt><trkpt lat="39.34647638105529" lon="9.297644401947409"><ele>601.0</ele><time>2026-04-08T14:50:11.001Z</time></trkpt><trkpt lat="39.34636160148754" lon="9.297635880413408"><ele>601.0</ele><time>2026-04-08T14:50:12.001Z</time></trkpt><trkpt lat="39.346219335877734" lon="9.297661228959779"><ele>601.0</ele><time>2026-04-08T14:50:13.001Z</time></trkpt><trkpt lat="39.34607112722445" lon="9.29769312827037"><ele>599.25</ele><time>2026-04-08T14:50:14.001Z</time></trkpt><trkpt lat="39.34593499140374" lon="9.297713150907777"><ele>597.5</ele><time>2026-04-08T14:50:15.001Z</time></trkpt><trkpt lat="39.34578454591331" lon="9.297733481364867"><ele>595.75</ele><time>2026-04-08T14:50:16.001Z</time></trkpt><trkpt lat="39.345661248603086" lon="9.297783951476701"><ele>594.0</ele><time>2026-04-08T14:50:17.001Z</time></trkpt><trkpt lat="39.34557092864103" lon="9.297797855522171"><ele>591.6</ele><time>2026-04-08T14:50:18.001Z</time></trkpt><trkpt lat="39.34547320271189" lon="9.297762841890883"><ele>589.2</ele><time>2026-04-08T14:50:20.001Z</time></trkpt><trkpt lat="39.345431825695975" lon="9.297619774205911"><ele>586.8000000000001</ele><time>2026-04-08T14:50:22.001Z</time></trkpt><trkpt lat="39.34541036042684" lon="9.297506033207016"><ele>584.4</ele><time>2026-04-08T14:50:23.001Z</time></trkpt><trkpt lat="39.34538289645824" lon="9.297369982478026"><ele>582.0</ele><time>2026-04-08T14:50:24.001Z</time></trkpt><trkpt lat="39.34539489321875" lon="9.297236946209866"><ele>580.6</ele><time>2026-04-08T14:50:25.001Z</time></trkpt><trkpt lat="39.345437980435086" lon="9.297077370894675"><ele>579.2</ele><time>2026-04-08T14:50:26.001Z</time></trkpt><trkpt lat="39.345463451191144" lon="9.296929761951786"><ele>577.8</ele><time>2026-04-08T14:50:27.001Z</time></trkpt><trkpt lat="39.34550743123218" lon="9.296830904191195"><ele>576.4</ele><time>2026-04-08T14:50:28.001Z</time></trkpt><trkpt lat="39.34554087634893" lon="9.296744157824644"><ele>575.0</ele><time>2026-04-08T14:50:29.001Z</time></trkpt><trkpt lat="39.34556502001621" lon="9.296648932831628"><ele>573.8333333333333</ele><time>2026-04-08T14:50:30.001Z</time></trkpt><trkpt lat="39.345567274616705" lon="9.296561489280073"><ele>572.6666666666666</ele><time>2026-04-08T14:50:31.001Z</time></trkpt><trkpt lat="39.34558429899767" lon="9.296467011871055"><ele>571.5</ele><time>2026-04-08T14:50:32.001Z</time></trkpt><trkpt lat="39.34554426430954" lon="9.29635737612113"><ele>570.3333333333334</ele><time>2026-04-08T14:50:33.001Z</time></trkpt><trkpt lat="39.34549706507303" lon="9.29624437771341"><ele>569.1666666666667</ele><time>2026-04-08T14:50:34.001Z</time></trkpt><trkpt lat="39.34548036957763" lon="9.29611740760027"><ele>568.0</ele><time>2026-04-08T14:50:35.001Z</time></trkpt><trkpt lat="39.345460557512645" lon="9.296019804313074"><ele>568.0</ele><time>2026-04-08T14:50:36.001Z</time></trkpt><trkpt lat="39.34544728943159" lon="9.295879978628886"><ele>568.0</ele><time>2026-04-08T14:50:38.001Z</time></trkpt><trkpt lat="39.34544698968812" lon="9.295786187236187"><ele>568.0</ele><time>2026-04-08T14:50:39.001Z</time></trkpt><trkpt lat="39.34542942534795" lon="9.295645859898825"><ele>568.0</ele><time>2026-04-08T14:50:41.001Z</time></trkpt><trkpt lat="39.345432678574696" lon="9.295543147303473"><ele>568.0</ele><time>2026-04-08T14:50:43.001Z</time></trkpt><trkpt lat="39.345371071746406" lon="9.295524243563296"><ele>568.0</ele><time>2026-04-08T14:50:44.001Z</time></trkpt><trkpt lat="39.34525331131831" lon="9.295553570359017"><ele>568.0</ele><time>2026-04-08T14:50:46.001Z</time></trkpt><trkpt lat="39.34516885110917" lon="9.295587463552858"><ele>568.0</ele><time>2026-04-08T14:50:47.001Z</time></trkpt><trkpt lat="39.345094779033694" lon="9.29562968631777"><ele>568.0</ele><time>2026-04-08T14:50:48.001Z</time></trkpt><trkpt lat="39.34502842154751" lon="9.29566619026562"><ele>568.0</ele><time>2026-04-08T14:50:49.001Z</time></trkpt><trkpt lat="39.34499691204214" lon="9.29576695088421"><ele>568.0</ele><time>2026-04-08T14:50:50.001Z</time></trkpt><trkpt lat="39.34497323006287" lon="9.295865953399048"><ele>568.0</ele><time>2026-04-08T14:50:51.001Z</time></trkpt><trkpt lat="39.34495362940357" lon="9.295992229060024"><ele>568.0</ele><time>2026-04-08T14:50:52.001Z</time></trkpt><trkpt lat="39.34494578084672" lon="9.296111373654545"><ele>568.0</ele><time>2026-04-08T14:50:53.001Z</time></trkpt><trkpt lat="39.3449156343229" lon="9.296203550841108"><ele>568.0</ele><time>2026-04-08T14:50:54.001Z</time></trkpt><trkpt lat="39.34489787793556" lon="9.296299739565285"><ele>568.0</ele><time>2026-04-08T14:50:55.001Z</time></trkpt><trkpt lat="39.3448692471772" lon="9.296397877443756"><ele>568.0</ele><time>2026-04-08T14:50:56.001Z</time></trkpt><trkpt lat="39.344836841777" lon="9.296471410904566"><ele>568.0</ele><time>2026-04-08T14:50:57.001Z</time></trkpt><trkpt lat="39.34474908955525" lon="9.29651849222672"><ele>566.3333333333334</ele><time>2026-04-08T14:50:59.001Z</time></trkpt><trkpt lat="39.34468550782218" lon="9.296527864709233"><ele>564.6666666666667</ele><time>2026-04-08T14:51:00Z</time></trkpt><trkpt lat="39.34460815683712" lon="9.296538278378655"><ele>563.0</ele><time>2026-04-08T14:51:01Z</time></trkpt><trkpt lat="39.34454372377643" lon="9.296541883185396"><ele>561.3333333333334</ele><time>2026-04-08T14:51:02Z</time></trkpt><trkpt lat="39.34447725112482" lon="9.296544565934456"><ele>559.6666666666666</ele><time>2026-04-08T14:51:03Z</time></trkpt><trkpt lat="39.34441364882042" lon="9.296546329960636"><ele>558.0</ele><time>2026-04-08T14:51:04Z</time></trkpt><trkpt lat="39.344280725417846" lon="9.296564989921343"><ele>558.0</ele><time>2026-04-08T14:51:06Z</time></trkpt><trkpt lat="39.34418096529335" lon="9.29654218328463"><ele>558.0</ele><time>2026-04-08T14:51:07Z</time></trkpt><trkpt lat="39.344073801165436" lon="9.296544618429493"><ele>558.0</ele><time>2026-04-08T14:51:08Z</time></trkpt><trkpt lat="39.343963972078186" lon="9.296537261918672"><ele>558.0</ele><time>2026-04-08T14:51:09Z</time></trkpt><trkpt lat="39.343863936603164" lon="9.296531816087496"><ele>558.0</ele><time>2026-04-08T14:51:10Z</time></trkpt><trkpt lat="39.343768787137336" lon="9.296526636222593"><ele>555.4</ele><time>2026-04-08T14:51:11.001Z</time></trkpt><trkpt lat="39.34367134498604" lon="9.296521331565955"><ele>552.8</ele><time>2026-04-08T14:51:12.001Z</time></trkpt><trkpt lat="39.34358765431683" lon="9.296529571732869"><ele>550.2</ele><time>2026-04-08T14:51:13.001Z</time></trkpt><trkpt lat="39.34350725247003" lon="9.296515134320538"><ele>547.6</ele><time>2026-04-08T14:51:14.001Z</time></trkpt><trkpt lat="39.343395632619256" lon="9.296509277570957"><ele>545.0</ele><time>2026-04-08T14:51:16.001Z</time></trkpt><trkpt lat="39.343306244057985" lon="9.296527472594628"><ele>545.0</ele><time>2026-04-08T14:51:18.001Z</time></trkpt><trkpt lat="39.343223594575385" lon="9.296518734665948"><ele>545.0</ele><time>2026-04-08T14:51:19.001Z</time></trkpt><trkpt lat="39.34313976834873" lon="9.296518585835475"><ele>545.0</ele><time>2026-04-08T14:51:20.001Z</time></trkpt><trkpt lat="39.343032902701594" lon="9.296472194739993"><ele>545.0</ele><time>2026-04-08T14:51:22.001Z</time></trkpt><trkpt lat="39.34295261885617" lon="9.296407516226028"><ele>545.0</ele><time>2026-04-08T14:51:24.001Z</time></trkpt><trkpt lat="39.34289577174842" lon="9.296328751337663"><ele>544.3333333333333</ele><time>2026-04-08T14:51:26.001Z</time></trkpt><trkpt lat="39.342940534606214" lon="9.296266938046626"><ele>543.6666666666666</ele><time>2026-04-08T14:51:50.001Z</time></trkpt><trkpt lat="39.34302213784802" lon="9.2961873144773"><ele>543.0</ele><time>2026-04-08T14:51:52.001Z</time></trkpt><trkpt lat="39.343077788438094" lon="9.296116849637"><ele>542.3333333333334</ele><time>2026-04-08T14:51:53.001Z</time></trkpt><trkpt lat="39.34314605246726" lon="9.296069688205531"><ele>541.6666666666667</ele><time>2026-04-08T14:51:54.001Z</time></trkpt><trkpt lat="39.34321507098646" lon="9.296021434854023"><ele>541.0</ele><time>2026-04-08T14:51:55.001Z</time></trkpt><trkpt lat="39.34331464697801" lon="9.295978284059533"><ele>540.2</ele><time>2026-04-08T14:51:56.001Z</time></trkpt><trkpt lat="39.34341632523856" lon="9.295900889613511"><ele>539.4000000000001</ele><time>2026-04-08T14:51:57.001Z</time></trkpt><trkpt lat="39.34349489096442" lon="9.295858306029508"><ele>538.6</ele><time>2026-04-08T14:51:58.001Z</time></trkpt><trkpt lat="39.34355326997151" lon="9.295818982230852"><ele>537.8000000000001</ele><time>2026-04-08T14:51:59.001Z</time></trkpt><trkpt lat="39.343632146014606" lon="9.295696396351191"><ele>537.0</ele><time>2026-04-08T14:52:01.001Z</time></trkpt><trkpt lat="39.343680954776794" lon="9.295610517834264"><ele>534.2</ele><time>2026-04-08T14:52:02.001Z</time></trkpt><trkpt lat="39.34372559362777" lon="9.295521013095133"><ele>531.4000000000001</ele><time>2026-04-08T14:52:03.001Z</time></trkpt><trkpt lat="39.34377194412439" lon="9.295415077478447"><ele>528.5999999999999</ele><time>2026-04-08T14:52:04.001Z</time></trkpt><trkpt lat="39.343808465091676" lon="9.295274824135115"><ele>525.8</ele><time>2026-04-08T14:52:05.001Z</time></trkpt><trkpt lat="39.34384025751314" lon="9.295139945021182"><ele>523.0</ele><time>2026-04-08T14:52:06.001Z</time></trkpt><trkpt lat="39.343852501971035" lon="9.295029154654353"><ele>525.0</ele><time>2026-04-08T14:52:07.001Z</time></trkpt><trkpt lat="39.34389194093287" lon="9.29494580611919"><ele>527.0</ele><time>2026-04-08T14:52:08.001Z</time></trkpt><trkpt lat="39.343914312099116" lon="9.294860386021323"><ele>529.0</ele><time>2026-04-08T14:52:09.001Z</time></trkpt><trkpt lat="39.34394777832114" lon="9.294760204173567"><ele>531.0</ele><time>2026-04-08T14:52:11.001Z</time></trkpt><trkpt lat="39.34396673135439" lon="9.294648516410613"><ele>533.0</ele><time>2026-04-08T15:05:01Z</time></trkpt><trkpt lat="39.343981295419844" lon="9.294534390984934"><ele>535.0</ele><time>2026-04-08T15:05:04Z</time></trkpt><trkpt lat="39.343951562535544" lon="9.294423055772096"><ele>535.0</ele><time>2026-04-08T15:05:07Z</time></trkpt><trkpt lat="39.343891214917825" lon="9.294330528745668"><ele>535.0</ele><time>2026-04-08T15:05:10Z</time></trkpt><trkpt lat="39.34380714244977" lon="9.29427958648855"><ele>512.0</ele><time>2026-04-08T15:05:13Z</time></trkpt><trkpt lat="39.34375497523553" lon="9.294224350363871"><ele>512.0</ele><time>2026-04-08T15:05:16Z</time></trkpt></trkseg><trkseg><trkpt lat="39.3436358243643" lon="9.294158187670735"><ele>511.99999999999994</ele><time>2026-04-08T16:29:17Z</time></trkpt><trkpt lat="39.34357803058664" lon="9.29408642761131"><ele>512.0</ele><time>2026-04-08T16:29:19Z</time></trkpt><trkpt lat="39.34358129377104" lon="9.294004756106034"><ele>512.0</ele><time>2026-04-08T16:29:21Z</time></trkpt><trkpt lat="39.343613501562295" lon="9.293907951226249"><ele>512.0</ele><time>2026-04-08T16:29:24Z</time></trkpt><trkpt lat="39.343578025626854" lon="9.2939819657543"><ele>511.99999999999994</ele><time>2026-04-08T16:29:40.999Z</time></trkpt><trkpt lat="39.343600038233376" lon="9.294085565256143"><ele>512.0</ele><time>2026-04-08T16:29:42.999Z</time></trkpt><trkpt lat="39.34365950064261" lon="9.294158616124372"><ele>511.99999999999994</ele><time>2026-04-08T16:29:45.999Z</time></trkpt><trkpt lat="39.34371055983282" lon="9.294213581880925"><ele>512.0</ele><time>2026-04-08T16:29:47.999Z</time></trkpt><trkpt lat="39.343792441028704" lon="9.29424034735454"><ele>512.0</ele><time>2026-04-08T16:29:50.999Z</time></trkpt><trkpt lat="39.343848492259596" lon="9.294282446262013"><ele>512.0</ele><time>2026-04-08T16:29:54.999Z</time></trkpt><trkpt lat="39.34391274844889" lon="9.294360760092516"><ele>511.99999999999994</ele><time>2026-04-08T16:29:57.999Z</time></trkpt><trkpt lat="39.343986954530926" lon="9.29445167458398"><ele>512.0</ele><time>2026-04-08T16:30:00Z</time></trkpt><trkpt lat="39.344007161284225" lon="9.294625419642271"><ele>513.8333333333333</ele><time>2026-04-08T16:30:02Z</time></trkpt><trkpt lat="39.34398337912676" lon="9.294720602533724"><ele>515.6666666666666</ele><time>2026-04-08T16:30:03Z</time></trkpt><trkpt lat="39.343917038094744" lon="9.294786182890395"><ele>517.5</ele><time>2026-04-08T16:30:04Z</time></trkpt><trkpt lat="39.343887509276406" lon="9.29486281971519"><ele>519.3333333333334</ele><time>2026-04-08T16:30:05Z</time></trkpt><trkpt lat="39.3438561237201" lon="9.294941283586706"><ele>521.1666666666667</ele><time>2026-04-08T16:30:06Z</time></trkpt><trkpt lat="39.34382728830781" lon="9.295037028424478"><ele>523.0</ele><time>2026-04-08T16:30:07Z</time></trkpt><trkpt lat="39.34381782163509" lon="9.295148526473827"><ele>523.0</ele><time>2026-04-08T16:30:08Z</time></trkpt><trkpt lat="39.34377860190292" lon="9.295253927312768"><ele>523.0</ele><time>2026-04-08T16:30:09Z</time></trkpt><trkpt lat="39.34375574353877" lon="9.295358995512114"><ele>523.0</ele><time>2026-04-08T16:30:10Z</time></trkpt><trkpt lat="39.343717978088456" lon="9.295461671341048"><ele>523.0</ele><time>2026-04-08T16:30:11Z</time></trkpt><trkpt lat="39.343673267295266" lon="9.295561662310467"><ele>523.0</ele><time>2026-04-08T16:30:12Z</time></trkpt><trkpt lat="39.343621462401124" lon="9.295653710033754"><ele>523.0</ele><time>2026-04-08T16:30:13Z</time></trkpt><trkpt lat="39.34356710391702" lon="9.295729262384068"><ele>525.3333333333334</ele><time>2026-04-08T16:30:14Z</time></trkpt><trkpt lat="39.343512938507885" lon="9.295790301533028"><ele>527.6666666666667</ele><time>2026-04-08T16:30:15Z</time></trkpt><trkpt lat="39.34342500338019" lon="9.295858096208706"><ele>530.0</ele><time>2026-04-08T16:30:17Z</time></trkpt><trkpt lat="39.34336278443018" lon="9.295900671011218"><ele>532.3333333333334</ele><time>2026-04-08T16:30:18Z</time></trkpt><trkpt lat="39.343285268909504" lon="9.295948900397327"><ele>534.6666666666666</ele><time>2026-04-08T16:30:19Z</time></trkpt><trkpt lat="39.3432020073499" lon="9.296001930316002"><ele>537.0</ele><time>2026-04-08T16:30:20Z</time></trkpt><trkpt lat="39.34311178992078" lon="9.296062815890574"><ele>536.8333333333334</ele><time>2026-04-08T16:30:21Z</time></trkpt><trkpt lat="39.34304173790962" lon="9.296139314374802"><ele>536.6666666666666</ele><time>2026-04-08T16:30:22Z</time></trkpt><trkpt lat="39.342967383180024" lon="9.29618394494047"><ele>536.5</ele><time>2026-04-08T16:30:23Z</time></trkpt><trkpt lat="39.342922262025105" lon="9.296254062228805"><ele>536.3333333333333</ele><time>2026-04-08T16:30:24Z</time></trkpt><trkpt lat="39.34286578515197" lon="9.296359937402245"><ele>536.1666666666666</ele><time>2026-04-08T16:30:26Z</time></trkpt><trkpt lat="39.34291047163908" lon="9.296455798604088"><ele>536.0</ele><time>2026-04-08T16:30:28Z</time></trkpt><trkpt lat="39.342976088890616" lon="9.296457658178188"><ele>536.0</ele><time>2026-04-08T16:30:29Z</time></trkpt><trkpt lat="39.343032049221215" lon="9.296495877799682"><ele>536.0</ele><time>2026-04-08T16:30:30Z</time></trkpt><trkpt lat="39.3430958134528" lon="9.296524647482382"><ele>536.0</ele><time>2026-04-08T16:30:31Z</time></trkpt><trkpt lat="39.34321407415902" lon="9.296545571929878"><ele>536.0</ele><time>2026-04-08T16:30:33Z</time></trkpt><trkpt lat="39.34328028312116" lon="9.29653284847293"><ele>536.0</ele><time>2026-04-08T16:30:34Z</time></trkpt><trkpt lat="39.3433454808687" lon="9.296551815276871"><ele>536.0</ele><time>2026-04-08T16:30:35Z</time></trkpt><trkpt lat="39.34340974469282" lon="9.296552303258164"><ele>536.0</ele><time>2026-04-08T16:30:36Z</time></trkpt><trkpt lat="39.34352901869425" lon="9.296556236804404"><ele>537.8</ele><time>2026-04-08T16:30:38Z</time></trkpt><trkpt lat="39.34363907192183" lon="9.29656253073004"><ele>539.6</ele><time>2026-04-08T16:30:40Z</time></trkpt><trkpt lat="39.343769874559975" lon="9.296579163889323"><ele>541.4</ele><time>2026-04-08T16:30:42Z</time></trkpt><trkpt lat="39.343853464957945" lon="9.296584967162035"><ele>543.2</ele><time>2026-04-08T16:30:43Z</time></trkpt><trkpt lat="39.343930079256495" lon="9.296586684026705"><ele>545.0</ele><time>2026-04-08T16:30:44Z</time></trkpt><trkpt lat="39.344010956022984" lon="9.296586484106642"><ele>547.1666666666666</ele><time>2026-04-08T16:30:45Z</time></trkpt><trkpt lat="39.34409164465103" lon="9.296585839631973"><ele>549.3333333333333</ele><time>2026-04-08T16:30:46Z</time></trkpt><trkpt lat="39.34417636378599" lon="9.296578043954977"><ele>551.5</ele><time>2026-04-08T16:30:47Z</time></trkpt><trkpt lat="39.34425663445717" lon="9.296579175454616"><ele>553.6666666666666</ele><time>2026-04-08T16:30:48Z</time></trkpt><trkpt lat="39.344343471794524" lon="9.296577879315443"><ele>555.8333333333334</ele><time>2026-04-08T16:30:49Z</time></trkpt><trkpt lat="39.34442518917777" lon="9.29656994321527"><ele>558.0</ele><time>2026-04-08T16:30:50Z</time></trkpt><trkpt lat="39.3444940050165" lon="9.296568253945074"><ele>558.0</ele><time>2026-04-08T16:30:51Z</time></trkpt><trkpt lat="39.34459659277507" lon="9.296564629730067"><ele>558.0</ele><time>2026-04-08T16:30:53Z</time></trkpt><trkpt lat="39.344718336612516" lon="9.296558401214616"><ele>558.0</ele><time>2026-04-08T16:30:55Z</time></trkpt><trkpt lat="39.34478378849149" lon="9.296535322209985"><ele>558.0</ele><time>2026-04-08T16:30:56Z</time></trkpt><trkpt lat="39.34488398827679" lon="9.296437617483086"><ele>558.0</ele><time>2026-04-08T16:30:58Z</time></trkpt><trkpt lat="39.34491079234301" lon="9.296355306411595"><ele>560.0</ele><time>2026-04-08T16:30:59Z</time></trkpt><trkpt lat="39.344947916690145" lon="9.296214457287073"><ele>562.0</ele><time>2026-04-08T16:31:01Z</time></trkpt><trkpt lat="39.34496139895145" lon="9.29612937172974"><ele>564.0</ele><time>2026-04-08T16:31:02Z</time></trkpt><trkpt lat="39.3449792203915" lon="9.295991888045911"><ele>566.0</ele><time>2026-04-08T16:31:04Z</time></trkpt><trkpt lat="39.34500060528374" lon="9.295852489136399"><ele>568.0</ele><time>2026-04-08T16:31:06Z</time></trkpt><trkpt lat="39.34503876284563" lon="9.295718778557085"><ele>568.0</ele><time>2026-04-08T16:31:08Z</time></trkpt><trkpt lat="39.34509536229475" lon="9.295653409041067"><ele>568.0</ele><time>2026-04-08T16:31:10Z</time></trkpt><trkpt lat="39.345198085884526" lon="9.295606574204914"><ele>568.0</ele><time>2026-04-08T16:31:12Z</time></trkpt><trkpt lat="39.34526053356015" lon="9.295587705728225"><ele>568.0</ele><time>2026-04-08T16:31:13Z</time></trkpt><trkpt lat="39.34536914577403" lon="9.295568748322195"><ele>568.0</ele><time>2026-04-08T16:31:15Z</time></trkpt><trkpt lat="39.34542119085304" lon="9.295666602917468"><ele>568.0</ele><time>2026-04-08T16:31:18Z</time></trkpt><trkpt lat="39.34541340775914" lon="9.295774315167892"><ele>568.0</ele><time>2026-04-08T16:31:20.001Z</time></trkpt><trkpt lat="39.345420396088095" lon="9.295911869750082"><ele>568.0</ele><time>2026-04-08T16:31:22.001Z</time></trkpt><trkpt lat="39.34543736759512" lon="9.296066837011788"><ele>568.0</ele><time>2026-04-08T16:31:24.001Z</time></trkpt><trkpt lat="39.3454674577581" lon="9.296205449679878"><ele>568.0</ele><time>2026-04-08T16:31:26.001Z</time></trkpt><trkpt lat="39.34549345317559" lon="9.296287336127563"><ele>568.0</ele><time>2026-04-08T16:31:27.001Z</time></trkpt><trkpt lat="39.34551861773374" lon="9.296366700349589"><ele>568.0</ele><time>2026-04-08T16:31:28.001Z</time></trkpt><trkpt lat="39.345538380086346" lon="9.296450326567077"><ele>568.0</ele><time>2026-04-08T16:31:29.001Z</time></trkpt><trkpt lat="39.34555694841599" lon="9.296535255517835"><ele>568.0</ele><time>2026-04-08T16:31:30.001Z</time></trkpt><trkpt lat="39.34551971803393" lon="9.296683383385558"><ele>568.0</ele><time>2026-04-08T16:31:32.001Z</time></trkpt><trkpt lat="39.34549455592394" lon="9.296770172140182"><ele>568.0</ele><time>2026-04-08T16:31:33.001Z</time></trkpt><trkpt lat="39.34546813064572" lon="9.296856435962894"><ele>569.1666666666667</ele><time>2026-04-08T16:31:34.001Z</time></trkpt><trkpt lat="39.34545508102739" lon="9.29694166240368"><ele>570.3333333333334</ele><time>2026-04-08T16:31:35.001Z</time></trkpt><trkpt lat="39.34542717270916" lon="9.297024285148446"><ele>571.5</ele><time>2026-04-08T16:31:36.001Z</time></trkpt><trkpt lat="39.345404286651906" lon="9.297108336969707"><ele>572.6666666666666</ele><time>2026-04-08T16:31:37.001Z</time></trkpt><trkpt lat="39.34538570768753" lon="9.297209339313321"><ele>573.8333333333333</ele><time>2026-04-08T16:31:38.001Z</time></trkpt><trkpt lat="39.345377592021656" lon="9.297317722339114"><ele>575.0</ele><time>2026-04-08T16:31:39.001Z</time></trkpt><trkpt lat="39.34537471259602" lon="9.297425751926186"><ele>576.1666666666666</ele><time>2026-04-08T16:31:40.001Z</time></trkpt><trkpt lat="39.34538537754761" lon="9.297525702330802"><ele>577.3333333333333</ele><time>2026-04-08T16:31:41.001Z</time></trkpt><trkpt lat="39.34540411842567" lon="9.29761863648485"><ele>578.5</ele><time>2026-04-08T16:31:42.001Z</time></trkpt><trkpt lat="39.34543501161873" lon="9.297711418678121"><ele>579.6666666666666</ele><time>2026-04-08T16:31:43.001Z</time></trkpt><trkpt lat="39.345479070693756" lon="9.297784289432865"><ele>580.8333333333334</ele><time>2026-04-08T16:31:44.001Z</time></trkpt><trkpt lat="39.34556814982131" lon="9.297854773584312"><ele>582.0</ele><time>2026-04-08T16:31:45.999Z</time></trkpt><trkpt lat="39.34564633480346" lon="9.297826381321162"><ele>584.4</ele><time>2026-04-08T16:31:46.999Z</time></trkpt><trkpt lat="39.345750990809734" lon="9.297792989176132"><ele>586.8000000000001</ele><time>2026-04-08T16:31:47.999Z</time></trkpt><trkpt lat="39.34585037584674" lon="9.297758487386735"><ele>589.2</ele><time>2026-04-08T16:31:48.999Z</time></trkpt><trkpt lat="39.345943694625156" lon="9.297736073736896"><ele>591.6</ele><time>2026-04-08T16:31:49.999Z</time></trkpt><trkpt lat="39.34604796362677" lon="9.297741058862867"><ele>594.0</ele><time>2026-04-08T16:31:50.999Z</time></trkpt><trkpt lat="39.34615341304351" lon="9.297707708306431"><ele>594.0</ele><time>2026-04-08T16:31:51.999Z</time></trkpt><trkpt lat="39.34625414352146" lon="9.297687653769025"><ele>594.0</ele><time>2026-04-08T16:31:52.999Z</time></trkpt><trkpt lat="39.346345174012725" lon="9.297670057601204"><ele>594.0</ele><time>2026-04-08T16:31:53.999Z</time></trkpt><trkpt lat="39.346439247996216" lon="9.297649034433745"><ele>594.0</ele><time>2026-04-08T16:31:54.999Z</time></trkpt><trkpt lat="39.34651924118619" lon="9.29766894599503"><ele>594.0</ele><time>2026-04-08T16:31:55.999Z</time></trkpt><trkpt lat="39.34660150257237" lon="9.297676623253851"><ele>595.1666666666666</ele><time>2026-04-08T16:31:56.999Z</time></trkpt><trkpt lat="39.34669020429615" lon="9.297690514849812"><ele>596.3333333333334</ele><time>2026-04-08T16:31:57.999Z</time></trkpt><trkpt lat="39.346769928870025" lon="9.29770886376771"><ele>597.5</ele><time>2026-04-08T16:31:58.999Z</time></trkpt><trkpt lat="39.346850530762374" lon="9.297737504461576"><ele>598.6666666666667</ele><time>2026-04-08T16:31:59.999Z</time></trkpt><trkpt lat="39.34691720446524" lon="9.297771374133255"><ele>599.8333333333334</ele><time>2026-04-08T16:32:00.999Z</time></trkpt><trkpt lat="39.3469812330216" lon="9.297817728662242"><ele>601.0</ele><time>2026-04-08T16:32:01.999Z</time></trkpt><trkpt lat="39.34703206307982" lon="9.297876858661478"><ele>601.0</ele><time>2026-04-08T16:32:02.999Z</time></trkpt><trkpt lat="39.34707168816757" lon="9.297947656764626"><ele>601.0</ele><time>2026-04-08T16:32:03.999Z</time></trkpt><trkpt lat="39.3471185407192" lon="9.298072402595428"><ele>601.0</ele><time>2026-04-08T16:32:05.999Z</time></trkpt><trkpt lat="39.34712698158715" lon="9.29821210058636"><ele>601.0</ele><time>2026-04-08T16:32:07.999Z</time></trkpt><trkpt lat="39.34713921596272" lon="9.298297865395423"><ele>601.0</ele><time>2026-04-08T16:32:09Z</time></trkpt><trkpt lat="39.34715631291261" lon="9.298393236446202"><ele>601.0</ele><time>2026-04-08T16:32:10Z</time></trkpt><trkpt lat="39.347197125811824" lon="9.2984792334158"><ele>595.6</ele><time>2026-04-08T16:32:11Z</time></trkpt><trkpt lat="39.34721007325868" lon="9.298562313424194"><ele>590.2</ele><time>2026-04-08T16:32:12Z</time></trkpt><trkpt lat="39.34718667410059" lon="9.298707685364855"><ele>584.8</ele><time>2026-04-08T16:32:14Z</time></trkpt><trkpt lat="39.347134482197895" lon="9.298801689902191"><ele>579.4</ele><time>2026-04-08T16:32:16Z</time></trkpt><trkpt lat="39.34709956264885" lon="9.298961994185238"><ele>574.0</ele><time>2026-04-08T16:32:18Z</time></trkpt><trkpt lat="39.347073406014474" lon="9.299045877965535"><ele>573.0</ele><time>2026-04-08T16:32:19Z</time></trkpt><trkpt lat="39.34705872843082" lon="9.29912922657576"><ele>572.0</ele><time>2026-04-08T16:32:20Z</time></trkpt><trkpt lat="39.34706788807754" lon="9.299264081334652"><ele>571.0</ele><time>2026-04-08T16:32:22Z</time></trkpt><trkpt lat="39.347137674199864" lon="9.299394170155528"><ele>570.0</ele><time>2026-04-08T16:32:24Z</time></trkpt><trkpt lat="39.34719202442514" lon="9.299444142811343"><ele>569.0</ele><time>2026-04-08T16:32:25Z</time></trkpt><trkpt lat="39.34726194896066" lon="9.299489078704363"><ele>568.0</ele><time>2026-04-08T16:32:26Z</time></trkpt><trkpt lat="39.347348070803406" lon="9.299538852511608"><ele>570.6666666666667</ele><time>2026-04-08T16:32:27Z</time></trkpt><trkpt lat="39.34743410567058" lon="9.299596244195381"><ele>573.3333333333334</ele><time>2026-04-08T16:32:28Z</time></trkpt><trkpt lat="39.34751107160746" lon="9.29966124083714"><ele>576.0</ele><time>2026-04-08T16:32:29Z</time></trkpt><trkpt lat="39.34757349534934" lon="9.299720331759728"><ele>578.6666666666666</ele><time>2026-04-08T16:32:30Z</time></trkpt><trkpt lat="39.347637213637256" lon="9.299773231665982"><ele>581.3333333333333</ele><time>2026-04-08T16:32:31Z</time></trkpt><trkpt lat="39.3477002333739" lon="9.299799967894865"><ele>584.0</ele><time>2026-04-08T16:32:32Z</time></trkpt><trkpt lat="39.34776968990773" lon="9.2997977087673"><ele>584.0</ele><time>2026-04-08T16:32:33Z</time></trkpt><trkpt lat="39.347834937792676" lon="9.299776804452081"><ele>584.0</ele><time>2026-04-08T16:32:34Z</time></trkpt><trkpt lat="39.347905259688815" lon="9.299732504532631"><ele>584.0</ele><time>2026-04-08T16:32:35Z</time></trkpt><trkpt lat="39.34797427521918" lon="9.299698907699716"><ele>584.0</ele><time>2026-04-08T16:32:36Z</time></trkpt><trkpt lat="39.34804120983841" lon="9.299686688702568"><ele>584.0</ele><time>2026-04-08T16:32:37Z</time></trkpt><trkpt lat="39.34810921445182" lon="9.299725168639242"><ele>584.0</ele><time>2026-04-08T16:32:38Z</time></trkpt><trkpt lat="39.348177547060246" lon="9.299751859679521"><ele>584.0</ele><time>2026-04-08T16:32:39Z</time></trkpt><trkpt lat="39.34825023603676" lon="9.29977706791863"><ele>584.6</ele><time>2026-04-08T16:32:40Z</time></trkpt><trkpt lat="39.34831710513376" lon="9.299799588903962"><ele>585.2</ele><time>2026-04-08T16:32:41Z</time></trkpt><trkpt lat="39.34839702672355" lon="9.299810239687774"><ele>585.8000000000001</ele><time>2026-04-08T16:32:42Z</time></trkpt><trkpt lat="39.34852986130652" lon="9.29979345876084"><ele>586.4</ele><time>2026-04-08T16:32:44Z</time></trkpt><trkpt lat="39.34862957853245" lon="9.299758552059243"><ele>587.0</ele><time>2026-04-08T16:32:45Z</time></trkpt><trkpt lat="39.34871461397923" lon="9.299740488569974"><ele>589.2</ele><time>2026-04-08T16:32:46Z</time></trkpt><trkpt lat="39.34879991303123" lon="9.299715442073984"><ele>591.4000000000001</ele><time>2026-04-08T16:32:47Z</time></trkpt><trkpt lat="39.348872206673185" lon="9.299700989697671"><ele>593.5999999999999</ele><time>2026-04-08T16:32:48Z</time></trkpt><trkpt lat="39.34897373950946" lon="9.299791336266628"><ele>595.8</ele><time>2026-04-08T16:32:50Z</time></trkpt><trkpt lat="39.3490588492046" lon="9.299854168724613"><ele>598.0</ele><time>2026-04-08T16:32:51Z</time></trkpt><trkpt lat="39.349139907110086" lon="9.299952735485464"><ele>598.0</ele><time>2026-04-08T16:32:52Z</time></trkpt><trkpt lat="39.34920730307821" lon="9.300023051854577"><ele>598.0</ele><time>2026-04-08T16:32:53Z</time></trkpt><trkpt lat="39.34928736550213" lon="9.300138208014195"><ele>598.0</ele><time>2026-04-08T16:32:55Z</time></trkpt><trkpt lat="39.34933623232362" lon="9.300203402010128"><ele>598.0</ele><time>2026-04-08T16:32:56Z</time></trkpt><trkpt lat="39.34937686652717" lon="9.30030801663332"><ele>598.0</ele><time>2026-04-08T16:32:57Z</time></trkpt><trkpt lat="39.34943416360444" lon="9.300392677301547"><ele>598.0</ele><time>2026-04-08T16:32:58Z</time></trkpt><trkpt lat="39.349468934038185" lon="9.300488520880403"><ele>598.0</ele><time>2026-04-08T16:32:59Z</time></trkpt><trkpt lat="39.34949415829956" lon="9.300580023799405"><ele>598.0</ele><time>2026-04-08T16:33:00Z</time></trkpt><trkpt lat="39.34954190611577" lon="9.300740325769604"><ele>598.0</ele><time>2026-04-08T16:33:02Z</time></trkpt><trkpt lat="39.34958413467708" lon="9.300820487705954"><ele>598.0</ele><time>2026-04-08T16:33:03Z</time></trkpt><trkpt lat="39.34963904460773" lon="9.300891400259333"><ele>598.0</ele><time>2026-04-08T16:33:04Z</time></trkpt><trkpt lat="39.34969180864492" lon="9.300956176494145"><ele>597.0</ele><time>2026-04-08T16:33:05.001Z</time></trkpt><trkpt lat="39.349729789234026" lon="9.301044229568168"><ele>596.0</ele><time>2026-04-08T16:33:06.001Z</time></trkpt><trkpt lat="39.34976878626051" lon="9.301124445969938"><ele>595.0</ele><time>2026-04-08T16:33:07.001Z</time></trkpt><trkpt lat="39.349805912132375" lon="9.301213331060792"><ele>594.0</ele><time>2026-04-08T16:33:08.001Z</time></trkpt><trkpt lat="39.349838604068104" lon="9.301312289225883"><ele>593.0</ele><time>2026-04-08T16:33:09.001Z</time></trkpt><trkpt lat="39.349876802091075" lon="9.301398233974103"><ele>592.0</ele><time>2026-04-08T16:33:10.001Z</time></trkpt><trkpt lat="39.34994314420709" lon="9.301524460399458"><ele>592.0</ele><time>2026-04-08T16:33:12.001Z</time></trkpt><trkpt lat="39.35000046691835" lon="9.301580071009367"><ele>592.0</ele><time>2026-04-08T16:33:13.001Z</time></trkpt><trkpt lat="39.35006214749024" lon="9.301603454981391"><ele>592.0</ele><time>2026-04-08T16:33:14.001Z</time></trkpt><trkpt lat="39.35012773671698" lon="9.3016620141612"><ele>592.0</ele><time>2026-04-08T16:33:15.001Z</time></trkpt><trkpt lat="39.35020271165989" lon="9.30171595840959"><ele>592.0</ele><time>2026-04-08T16:33:16.001Z</time></trkpt><trkpt lat="39.350265202641076" lon="9.301762800206"><ele>592.0</ele><time>2026-04-08T16:33:17.001Z</time></trkpt><trkpt lat="39.35033571257312" lon="9.301816216569655"><ele>592.0</ele><time>2026-04-08T16:33:18.001Z</time></trkpt><trkpt lat="39.3503939470598" lon="9.301860834412757"><ele>592.0</ele><time>2026-04-08T16:33:19.001Z</time></trkpt><trkpt lat="39.350452041842544" lon="9.301905345208088"><ele>592.0</ele><time>2026-04-08T16:33:20.001Z</time></trkpt><trkpt lat="39.35050625108694" lon="9.301946879038272"><ele>592.0</ele><time>2026-04-08T16:33:21.001Z</time></trkpt><trkpt lat="39.350572653438526" lon="9.301992203439559"><ele>592.0</ele><time>2026-04-08T16:33:22.001Z</time></trkpt><trkpt lat="39.35064602408256" lon="9.302007871396498"><ele>592.0</ele><time>2026-04-08T16:33:23.001Z</time></trkpt><trkpt lat="39.35072500853092" lon="9.302040305012008"><ele>592.0</ele><time>2026-04-08T16:33:24.001Z</time></trkpt><trkpt lat="39.35080302251592" lon="9.30206211481077"><ele>598.0</ele><time>2026-04-08T16:33:25.001Z</time></trkpt><trkpt lat="39.350888499771884" lon="9.302085430037021"><ele>604.0</ele><time>2026-04-08T16:33:26.001Z</time></trkpt><trkpt lat="39.35097158920967" lon="9.302130475460432"><ele>610.0</ele><time>2026-04-08T16:33:27.001Z</time></trkpt><trkpt lat="39.35106673657621" lon="9.302160453810803"><ele>616.0</ele><time>2026-04-08T16:33:28.001Z</time></trkpt><trkpt lat="39.35115626241289" lon="9.302200384505628"><ele>622.0</ele><time>2026-04-08T16:33:29.001Z</time></trkpt><trkpt lat="39.351242881688144" lon="9.302223539963602"><ele>623.5</ele><time>2026-04-08T16:33:30.001Z</time></trkpt><trkpt lat="39.351318510254025" lon="9.302261930243002"><ele>625.0</ele><time>2026-04-08T16:33:31.001Z</time></trkpt><trkpt lat="39.35139182518487" lon="9.302279284655974"><ele>626.5</ele><time>2026-04-08T16:33:32.001Z</time></trkpt><trkpt lat="39.35145774736431" lon="9.30226829396767"><ele>628.0</ele><time>2026-04-08T16:33:33.001Z</time></trkpt><trkpt lat="39.351533067602645" lon="9.30224235586824"><ele>629.5</ele><time>2026-04-08T16:33:34.001Z</time></trkpt><trkpt lat="39.35162020152066" lon="9.30221594182614"><ele>631.0</ele><time>2026-04-08T16:33:35.001Z</time></trkpt><trkpt lat="39.3516918321889" lon="9.302183460127809"><ele>631.0</ele><time>2026-04-08T16:33:36.001Z</time></trkpt><trkpt lat="39.35175503017399" lon="9.302155480529933"><ele>631.0</ele><time>2026-04-08T16:33:37.001Z</time></trkpt><trkpt lat="39.3518158486606" lon="9.302127913118952"><ele>631.0</ele><time>2026-04-08T16:33:38.001Z</time></trkpt><trkpt lat="39.35187651830126" lon="9.302096890005839"><ele>631.0</ele><time>2026-04-08T16:33:39.001Z</time></trkpt><trkpt lat="39.35195553474626" lon="9.302089308825146"><ele>631.0</ele><time>2026-04-08T16:33:40.001Z</time></trkpt><trkpt lat="39.352041999960164" lon="9.302091400545033"><ele>631.0</ele><time>2026-04-08T16:33:41.001Z</time></trkpt><trkpt lat="39.35214367116383" lon="9.30209885228813"><ele>631.0</ele><time>2026-04-08T16:33:42.001Z</time></trkpt><trkpt lat="39.352232878530266" lon="9.30209745978504"><ele>631.0</ele><time>2026-04-08T16:33:43.001Z</time></trkpt><trkpt lat="39.3523142367415" lon="9.302071292917342"><ele>631.0</ele><time>2026-04-08T16:33:44.001Z</time></trkpt><trkpt lat="39.352397086801815" lon="9.302037139478974"><ele>631.0</ele><time>2026-04-08T16:33:45.001Z</time></trkpt><trkpt lat="39.35247369673365" lon="9.301999957219104"><ele>631.0</ele><time>2026-04-08T16:33:46.001Z</time></trkpt><trkpt lat="39.35255955343392" lon="9.301947401896665"><ele>631.0</ele><time>2026-04-08T16:33:47.001Z</time></trkpt><trkpt lat="39.35263984477285" lon="9.301899007450341"><ele>631.0</ele><time>2026-04-08T16:33:48.001Z</time></trkpt><trkpt lat="39.352724402354696" lon="9.301876185533281"><ele>631.0</ele><time>2026-04-08T16:33:49.001Z</time></trkpt><trkpt lat="39.352817145576836" lon="9.30185189416711"><ele>631.0</ele><time>2026-04-08T16:33:50.999Z</time></trkpt><trkpt lat="39.35287083953694" lon="9.30192342418577"><ele>631.0</ele><time>2026-04-08T16:33:52.999Z</time></trkpt><trkpt lat="39.35289223400351" lon="9.3020760415301"><ele>631.0</ele><time>2026-04-08T16:33:55Z</time></trkpt><trkpt lat="39.35286377135288" lon="9.302181327270477"><ele>627.0</ele><time>2026-04-08T16:33:56Z</time></trkpt><trkpt lat="39.35284958527497" lon="9.302318632695066"><ele>623.0</ele><time>2026-04-08T16:33:57Z</time></trkpt><trkpt lat="39.352817242633996" lon="9.30242994067347"><ele>619.0</ele><time>2026-04-08T16:33:58Z</time></trkpt><trkpt lat="39.35279106475265" lon="9.302523320561003"><ele>615.0</ele><time>2026-04-08T16:33:59Z</time></trkpt><trkpt lat="39.3527653203759" lon="9.302599139647635"><ele>611.0</ele><time>2026-04-08T16:34:00Z</time></trkpt><trkpt lat="39.352728606054534" lon="9.302693454817932"><ele>607.0</ele><time>2026-04-08T16:34:01Z</time></trkpt><trkpt lat="39.352644009381905" lon="9.302835781057517"><ele>607.0</ele><time>2026-04-08T16:34:03Z</time></trkpt><trkpt lat="39.35258573990554" lon="9.302901219755682"><ele>607.0</ele><time>2026-04-08T16:34:04Z</time></trkpt><trkpt lat="39.35252125778521" lon="9.302970553371114"><ele>607.0</ele><time>2026-04-08T16:34:05Z</time></trkpt><trkpt lat="39.35247850658961" lon="9.30303054609442"><ele>607.0</ele><time>2026-04-08T16:34:06Z</time></trkpt><trkpt lat="39.35248410304506" lon="9.303132438183427"><ele>607.0</ele><time>2026-04-08T16:34:07Z</time></trkpt><trkpt lat="39.35249700866268" lon="9.303224814434461"><ele>607.0</ele><time>2026-04-08T16:34:08Z</time></trkpt><trkpt lat="39.3524761711808" lon="9.303320574463537"><ele>608.2</ele><time>2026-04-08T16:34:09Z</time></trkpt><trkpt lat="39.35246113030503" lon="9.303401600844499"><ele>609.4000000000001</ele><time>2026-04-08T16:34:10Z</time></trkpt><trkpt lat="39.35238137933195" lon="9.303538941748418"><ele>610.5999999999999</ele><time>2026-04-08T16:34:12Z</time></trkpt><trkpt lat="39.352335610582216" lon="9.303626141126427"><ele>611.8</ele><time>2026-04-08T16:34:13Z</time></trkpt><trkpt lat="39.352287503327496" lon="9.303715041755913"><ele>613.0</ele><time>2026-04-08T16:34:14Z</time></trkpt><trkpt lat="39.35224503148996" lon="9.303819883906254"><ele>606.8</ele><time>2026-04-08T16:34:15Z</time></trkpt><trkpt lat="39.35219175354059" lon="9.303915447560753"><ele>600.5999999999999</ele><time>2026-04-08T16:34:16Z</time></trkpt><trkpt lat="39.35215673340585" lon="9.30401917189421"><ele>594.4000000000001</ele><time>2026-04-08T16:34:17Z</time></trkpt><trkpt lat="39.35211482024082" lon="9.304111118827906"><ele>588.2</ele><time>2026-04-08T16:34:18Z</time></trkpt><trkpt lat="39.35203240546422" lon="9.304241416442428"><ele>582.0</ele><time>2026-04-08T16:34:20Z</time></trkpt><trkpt lat="39.352011949360254" lon="9.304371309565544"><ele>582.0</ele><time>2026-04-08T16:34:22Z</time></trkpt><trkpt lat="39.35202697048109" lon="9.304492249274018"><ele>582.0</ele><time>2026-04-08T16:34:24Z</time></trkpt><trkpt lat="39.352048118948304" lon="9.304588737298628"><ele>582.0</ele><time>2026-04-08T16:34:25Z</time></trkpt><trkpt lat="39.35208030676543" lon="9.304686335884243"><ele>582.0</ele><time>2026-04-08T16:34:26Z</time></trkpt><trkpt lat="39.35206460591493" lon="9.304812716781031"><ele>582.0</ele><time>2026-04-08T16:34:28Z</time></trkpt><trkpt lat="39.35204041461966" lon="9.30489327327183"><ele>582.0</ele><time>2026-04-08T16:34:29Z</time></trkpt><trkpt lat="39.35201787884248" lon="9.304982163644766"><ele>584.1666666666666</ele><time>2026-04-08T16:34:30Z</time></trkpt><trkpt lat="39.352010214848065" lon="9.305076960591338"><ele>586.3333333333334</ele><time>2026-04-08T16:34:31Z</time></trkpt><trkpt lat="39.35196980583982" lon="9.30514946254778"><ele>588.5</ele><time>2026-04-08T16:34:32Z</time></trkpt><trkpt lat="39.351937335758294" lon="9.305226022617392"><ele>590.6666666666667</ele><time>2026-04-08T16:34:33Z</time></trkpt><trkpt lat="39.35189974967426" lon="9.305296102360119"><ele>592.8333333333334</ele><time>2026-04-08T16:34:34Z</time></trkpt><trkpt lat="39.35185839741216" lon="9.305359542947128"><ele>595.0</ele><time>2026-04-08T16:34:35Z</time></trkpt><trkpt lat="39.35179183629421" lon="9.305480202895536"><ele>598.3333333333334</ele><time>2026-04-08T16:34:37Z</time></trkpt><trkpt lat="39.35178704555336" lon="9.305617987934893"><ele>601.6666666666667</ele><time>2026-04-08T16:34:39Z</time></trkpt><trkpt lat="39.351792381889005" lon="9.305700839007851"><ele>605.0</ele><time>2026-04-08T16:34:40Z</time></trkpt><trkpt lat="39.35182287382017" lon="9.30579826517147"><ele>608.3333333333334</ele><time>2026-04-08T16:34:41Z</time></trkpt><trkpt lat="39.35185087942093" lon="9.305901280665156"><ele>611.6666666666666</ele><time>2026-04-08T16:34:42Z</time></trkpt><trkpt lat="39.35188017312186" lon="9.305985121943255"><ele>615.0</ele><time>2026-04-08T16:34:43Z</time></trkpt><trkpt lat="39.351886298577014" lon="9.306102447688444"><ele>615.0</ele><time>2026-04-08T16:34:45Z</time></trkpt><trkpt lat="39.35186717445432" lon="9.306226197050364"><ele>615.0</ele><time>2026-04-08T16:34:47.001Z</time></trkpt><trkpt lat="39.35178216830232" lon="9.306324305549822"><ele>615.0</ele><time>2026-04-08T16:34:49.001Z</time></trkpt><trkpt lat="39.35167922328116" lon="9.306391981828758"><ele>615.0</ele><time>2026-04-08T16:34:51.001Z</time></trkpt><trkpt lat="39.35159599139645" lon="9.30647020002439"><ele>615.0</ele><time>2026-04-08T16:34:53.001Z</time></trkpt><trkpt lat="39.351474421621056" lon="9.306522500526825"><ele>617.8</ele><time>2026-04-08T16:34:55.001Z</time></trkpt><trkpt lat="39.351385096892514" lon="9.306621012630954"><ele>620.6</ele><time>2026-04-08T16:34:57.001Z</time></trkpt><trkpt lat="39.351319251454335" lon="9.30668684022858"><ele>623.4</ele><time>2026-04-08T16:34:58.001Z</time></trkpt><trkpt lat="39.35124286070814" lon="9.306730830730459"><ele>626.2</ele><time>2026-04-08T16:34:59.001Z</time></trkpt><trkpt lat="39.351162407966086" lon="9.306769757169118"><ele>629.0</ele><time>2026-04-08T16:35:00.001Z</time></trkpt><trkpt lat="39.35107799429841" lon="9.306819025870002"><ele>629.0</ele><time>2026-04-08T16:35:02.001Z</time></trkpt><trkpt lat="39.351057649302355" lon="9.306917785133997"><ele>629.0</ele><time>2026-04-08T16:35:04.001Z</time></trkpt><trkpt lat="39.351140024706645" lon="9.307046675022836"><ele>629.0</ele><time>2026-04-08T16:35:07.001Z</time></trkpt><trkpt lat="39.35122786976737" lon="9.307105480989158"><ele>629.0</ele><time>2026-04-08T16:35:09.001Z</time></trkpt><trkpt lat="39.35130899528461" lon="9.307083594881261"><ele>629.0</ele><time>2026-04-08T16:35:11.001Z</time></trkpt><trkpt lat="39.35143604460249" lon="9.307064978093774"><ele>630.6666666666666</ele><time>2026-04-08T16:35:13.001Z</time></trkpt><trkpt lat="39.351503722319144" lon="9.307051891050259"><ele>632.3333333333333</ele><time>2026-04-08T16:35:14.001Z</time></trkpt><trkpt lat="39.35156606462761" lon="9.307039835595758"><ele>634.0</ele><time>2026-04-08T16:35:15.001Z</time></trkpt><trkpt lat="39.351674356986926" lon="9.307003243673908"><ele>635.6666666666666</ele><time>2026-04-08T16:35:17.001Z</time></trkpt><trkpt lat="39.35177837802499" lon="9.306959079740272"><ele>637.3333333333334</ele><time>2026-04-08T16:35:19.001Z</time></trkpt><trkpt lat="39.35186259883728" lon="9.306934197430087"><ele>639.0</ele><time>2026-04-08T16:35:21.001Z</time></trkpt><trkpt lat="39.351860668909865" lon="9.307038141251367"><ele>639.0</ele><time>2026-04-08T16:35:24.001Z</time></trkpt><trkpt lat="39.351798429203455" lon="9.307123050119012"><ele>639.0</ele><time>2026-04-08T16:35:27.001Z</time></trkpt><trkpt lat="39.35175373674801" lon="9.307263846406295"><ele>639.0</ele><time>2026-04-08T16:35:29.001Z</time></trkpt><trkpt lat="39.351754916144245" lon="9.307356821773672"><ele>639.0</ele><time>2026-04-08T16:35:30.001Z</time></trkpt><trkpt lat="39.35178139274549" lon="9.307487596501081"><ele>639.0</ele><time>2026-04-08T16:35:32.001Z</time></trkpt><trkpt lat="39.35187316926108" lon="9.307510298055432"><ele>639.0</ele><time>2026-04-08T16:35:34.001Z</time></trkpt><trkpt lat="39.3519556016096" lon="9.307441033762448"><ele>639.0</ele><time>2026-04-08T16:35:36.001Z</time></trkpt><trkpt lat="39.35199939695477" lon="9.307355666743815"><ele>639.0</ele><time>2026-04-08T16:35:38.001Z</time></trkpt><trkpt lat="39.352082656201084" lon="9.307263112511748"><ele>639.0</ele><time>2026-04-08T16:35:40.001Z</time></trkpt><trkpt lat="39.35214787497965" lon="9.307181329196602"><ele>639.0</ele><time>2026-04-08T16:35:42.001Z</time></trkpt><trkpt lat="39.352216081165935" lon="9.307110311381214"><ele>643.8333333333334</ele><time>2026-04-08T16:35:44.001Z</time></trkpt><trkpt lat="39.35227699128913" lon="9.307050892087283"><ele>648.6666666666666</ele><time>2026-04-08T16:35:46.001Z</time></trkpt><trkpt lat="39.35233552789255" lon="9.306977285661013"><ele>653.5</ele><time>2026-04-08T16:35:48.001Z</time></trkpt><trkpt lat="39.35241817952414" lon="9.306932970595799"><ele>658.3333333333333</ele><time>2026-04-08T16:35:50.001Z</time></trkpt><trkpt lat="39.352471227157665" lon="9.30688266220446"><ele>663.1666666666666</ele><time>2026-04-08T16:35:51.001Z</time></trkpt><trkpt lat="39.35253850791729" lon="9.306775202468483"><ele>668.0</ele><time>2026-04-08T16:35:53.002Z</time></trkpt><trkpt lat="39.35259182406948" lon="9.306718477900688"><ele>668.0</ele><time>2026-04-08T16:35:55.002Z</time></trkpt><trkpt lat="39.35264060481012" lon="9.306785502906202"><ele>668.0</ele><time>2026-04-08T16:35:59Z</time></trkpt><trkpt lat="39.35259503934616" lon="9.30687877725309"><ele>668.0</ele><time>2026-04-08T16:36:01Z</time></trkpt><trkpt lat="39.35253340952969" lon="9.307004307594221"><ele>668.0</ele><time>2026-04-08T16:36:03Z</time></trkpt><trkpt lat="39.35249814791662" lon="9.30707806504704"><ele>668.0</ele><time>2026-04-08T16:36:04Z</time></trkpt><trkpt lat="39.35252289732859" lon="9.307187577942315"><ele>668.0</ele><time>2026-04-08T16:36:05Z</time></trkpt><trkpt lat="39.35255802663438" lon="9.307277689826496"><ele>668.5</ele><time>2026-04-08T16:36:06Z</time></trkpt><trkpt lat="39.35261552345091" lon="9.307351190124953"><ele>669.0</ele><time>2026-04-08T16:36:07Z</time></trkpt><trkpt lat="39.35268785100447" lon="9.307407070391278"><ele>669.5</ele><time>2026-04-08T16:36:08Z</time></trkpt><trkpt lat="39.35275029055198" lon="9.307482263245047"><ele>670.0</ele><time>2026-04-08T16:36:09Z</time></trkpt><trkpt lat="39.3528174482828" lon="9.307542365198028"><ele>670.5</ele><time>2026-04-08T16:36:10Z</time></trkpt><trkpt lat="39.352881571576496" lon="9.307596596441936"><ele>671.0</ele><time>2026-04-08T16:36:11Z</time></trkpt><trkpt lat="39.3529324287602" lon="9.30767210750004"><ele>671.0</ele><time>2026-04-08T16:36:12Z</time></trkpt><trkpt lat="39.352989768553186" lon="9.307739095469222"><ele>671.0</ele><time>2026-04-08T16:36:13Z</time></trkpt><trkpt lat="39.3530562617431" lon="9.307804102054455"><ele>671.0</ele><time>2026-04-08T16:36:14Z</time></trkpt><trkpt lat="39.35313041382552" lon="9.307862674459225"><ele>671.0</ele><time>2026-04-08T16:36:15Z</time></trkpt><trkpt lat="39.353212559381994" lon="9.307870750055901"><ele>671.0</ele><time>2026-04-08T16:36:16Z</time></trkpt><trkpt lat="39.35328917519317" lon="9.307870361439068"><ele>671.0</ele><time>2026-04-08T16:36:17Z</time></trkpt><trkpt lat="39.35337292023073" lon="9.3078454127591"><ele>678.1999999999999</ele><time>2026-04-08T16:36:18Z</time></trkpt><trkpt lat="39.35346835495897" lon="9.307838225545936"><ele>685.4</ele><time>2026-04-08T16:36:19Z</time></trkpt><trkpt lat="39.353561977636744" lon="9.307841514178971"><ele>692.6</ele><time>2026-04-08T16:36:20Z</time></trkpt><trkpt lat="39.3536518699819" lon="9.30787617046043"><ele>699.8</ele><time>2026-04-08T16:36:21Z</time></trkpt><trkpt lat="39.35373857588916" lon="9.307912857539826"><ele>707.0</ele><time>2026-04-08T16:36:22Z</time></trkpt><trkpt lat="39.35382237530417" lon="9.307949799593276"><ele>710.8333333333333</ele><time>2026-04-08T16:36:23Z</time></trkpt><trkpt lat="39.35390561520142" lon="9.30798731352081"><ele>714.6666666666666</ele><time>2026-04-08T16:36:24Z</time></trkpt><trkpt lat="39.35399658414501" lon="9.308023478150114"><ele>718.5</ele><time>2026-04-08T16:36:25Z</time></trkpt><trkpt lat="39.35407992090306" lon="9.308058442333948"><ele>722.3333333333334</ele><time>2026-04-08T16:36:26Z</time></trkpt><trkpt lat="39.354158755096776" lon="9.308060208385722"><ele>726.1666666666667</ele><time>2026-04-08T16:36:27Z</time></trkpt><trkpt lat="39.35424401627898" lon="9.308041181870491"><ele>730.0</ele><time>2026-04-08T16:36:28Z</time></trkpt><trkpt lat="39.354321416110096" lon="9.308002735098288"><ele>730.0</ele><time>2026-04-08T16:36:29Z</time></trkpt><trkpt lat="39.35440229110595" lon="9.30794753360976"><ele>730.0</ele><time>2026-04-08T16:36:30Z</time></trkpt><trkpt lat="39.35449485395188" lon="9.30788989788818"><ele>730.0</ele><time>2026-04-08T16:36:31Z</time></trkpt><trkpt lat="39.35457975312426" lon="9.307812523605127"><ele>730.0</ele><time>2026-04-08T16:36:32Z</time></trkpt><trkpt lat="39.35467465206359" lon="9.307749527215721"><ele>730.0</ele><time>2026-04-08T16:36:33Z</time></trkpt><trkpt lat="39.35475616761128" lon="9.307673352551737"><ele>731.1666666666667</ele><time>2026-04-08T16:36:34Z</time></trkpt><trkpt lat="39.35483507943953" lon="9.307593529816721"><ele>732.3333333333334</ele><time>2026-04-08T16:36:35Z</time></trkpt><trkpt lat="39.35491002365405" lon="9.30752713978042"><ele>733.5</ele><time>2026-04-08T16:36:36Z</time></trkpt><trkpt lat="39.35497531079287" lon="9.307480508580817"><ele>734.6666666666666</ele><time>2026-04-08T16:36:37Z</time></trkpt><trkpt lat="39.35504457402667" lon="9.307433786096318"><ele>735.8333333333333</ele><time>2026-04-08T16:36:38Z</time></trkpt><trkpt lat="39.35511949623911" lon="9.30739602416473"><ele>737.0</ele><time>2026-04-08T16:36:39Z</time></trkpt><trkpt lat="39.3551907464208" lon="9.307377636829665"><ele>737.0</ele><time>2026-04-08T16:36:40Z</time></trkpt><trkpt lat="39.35525976426237" lon="9.307370587754482"><ele>737.0</ele><time>2026-04-08T16:36:41.001Z</time></trkpt><trkpt lat="39.355327610548876" lon="9.307359854515305"><ele>737.0</ele><time>2026-04-08T16:36:42.001Z</time></trkpt><trkpt lat="39.35539784044599" lon="9.307346650348235"><ele>737.0</ele><time>2026-04-08T16:36:43.001Z</time></trkpt><trkpt lat="39.35551555478758" lon="9.307371372984282"><ele>737.0</ele><time>2026-04-08T16:36:45.001Z</time></trkpt><trkpt lat="39.35557168477415" lon="9.307414699331044"><ele>737.0</ele><time>2026-04-08T16:36:46.001Z</time></trkpt><trkpt lat="39.35563187911633" lon="9.307476127018793"><ele>739.8333333333333</ele><time>2026-04-08T16:36:47.001Z</time></trkpt><trkpt lat="39.355694788336876" lon="9.307542319326728"><ele>742.6666666666666</ele><time>2026-04-08T16:36:48.001Z</time></trkpt><trkpt lat="39.35575384700277" lon="9.307609739714845"><ele>745.5</ele><time>2026-04-08T16:36:49.001Z</time></trkpt><trkpt lat="39.3558215229509" lon="9.30767183736114"><ele>748.3333333333334</ele><time>2026-04-08T16:36:50.001Z</time></trkpt><trkpt lat="39.35589010676791" lon="9.30775394080595"><ele>751.1666666666667</ele><time>2026-04-08T16:36:51.001Z</time></trkpt><trkpt lat="39.35596204461266" lon="9.30781594694411"><ele>754.0</ele><time>2026-04-08T16:36:52.001Z</time></trkpt><trkpt lat="39.356025620029776" lon="9.307939006759252"><ele>750.2</ele><time>2026-04-08T16:36:54.001Z</time></trkpt><trkpt lat="39.35602381187401" lon="9.308091332820654"><ele>746.4000000000001</ele><time>2026-04-08T16:36:56.001Z</time></trkpt><trkpt lat="39.35602904215124" lon="9.308172978408603"><ele>742.6</ele><time>2026-04-08T16:36:57.001Z</time></trkpt><trkpt lat="39.35604064242168" lon="9.308338773040324"><ele>738.8</ele><time>2026-04-08T16:36:59.001Z</time></trkpt><trkpt lat="39.35604869425782" lon="9.308448025175181"><ele>735.0</ele><time>2026-04-08T16:37:00.001Z</time></trkpt><trkpt lat="39.35606393574122" lon="9.308563579234407"><ele>735.0</ele><time>2026-04-08T16:37:01.001Z</time></trkpt><trkpt lat="39.35608296103072" lon="9.30865249978909"><ele>735.0</ele><time>2026-04-08T16:37:02.001Z</time></trkpt><trkpt lat="39.35609676249433" lon="9.308735856387385"><ele>735.0</ele><time>2026-04-08T16:37:03.001Z</time></trkpt><trkpt lat="39.35614069901024" lon="9.30886857766605"><ele>735.0</ele><time>2026-04-08T16:37:05.001Z</time></trkpt><trkpt lat="39.3561811912554" lon="9.309024781254996"><ele>735.0</ele><time>2026-04-08T16:37:07.001Z</time></trkpt><trkpt lat="39.35620950424091" lon="9.309109001090619"><ele>735.0</ele><time>2026-04-08T16:37:08.001Z</time></trkpt><trkpt lat="39.35624684060085" lon="9.309200463102162"><ele>735.0</ele><time>2026-04-08T16:37:09.001Z</time></trkpt><trkpt lat="39.35629803518911" lon="9.309298243284186"><ele>735.0</ele><time>2026-04-08T16:37:10.001Z</time></trkpt><trkpt lat="39.35635028328128" lon="9.309389816965165"><ele>735.0</ele><time>2026-04-08T16:37:11.001Z</time></trkpt><trkpt lat="39.356417844511526" lon="9.309475987725351"><ele>735.0</ele><time>2026-04-08T16:37:12.001Z</time></trkpt><trkpt lat="39.35648151952241" lon="9.309551213101383"><ele>735.0</ele><time>2026-04-08T16:37:13.001Z</time></trkpt><trkpt lat="39.356542454376125" lon="9.30962663685407"><ele>735.0</ele><time>2026-04-08T16:37:14.001Z</time></trkpt><trkpt lat="39.35661103910396" lon="9.309726498572678"><ele>740.1666666666666</ele><time>2026-04-08T16:37:15.001Z</time></trkpt><trkpt lat="39.356665018951695" lon="9.30981995119082"><ele>745.3333333333334</ele><time>2026-04-08T16:37:16.001Z</time></trkpt><trkpt lat="39.3567202072391" lon="9.309890850841947"><ele>750.5</ele><time>2026-04-08T16:37:17.001Z</time></trkpt><trkpt lat="39.356780190986896" lon="9.309954551975904"><ele>755.6666666666667</ele><time>2026-04-08T16:37:18.001Z</time></trkpt><trkpt lat="39.35683896012868" lon="9.310010041634415"><ele>760.8333333333334</ele><time>2026-04-08T16:37:19.001Z</time></trkpt><trkpt lat="39.35690230100855" lon="9.310068658016327"><ele>766.0</ele><time>2026-04-08T16:37:20.001Z</time></trkpt><trkpt lat="39.35695229881014" lon="9.310153075841075"><ele>766.0</ele><time>2026-04-08T16:37:21.001Z</time></trkpt><trkpt lat="39.3570187689941" lon="9.31027165631169"><ele>766.0</ele><time>2026-04-08T16:37:23.001Z</time></trkpt><trkpt lat="39.3570785561704" lon="9.310339492583525"><ele>766.0</ele><time>2026-04-08T16:37:24.001Z</time></trkpt><trkpt lat="39.357126096090354" lon="9.310410677392872"><ele>766.0</ele><time>2026-04-08T16:37:25.001Z</time></trkpt><trkpt lat="39.35719292257931" lon="9.31047254479844"><ele>766.0</ele><time>2026-04-08T16:37:26.001Z</time></trkpt><trkpt lat="39.357267459884945" lon="9.310551301049655"><ele>766.0</ele><time>2026-04-08T16:37:27.001Z</time></trkpt><trkpt lat="39.35733927210742" lon="9.310638596134327"><ele>769.8333333333334</ele><time>2026-04-08T16:37:28.001Z</time></trkpt><trkpt lat="39.35738027072848" lon="9.310744687926595"><ele>773.6666666666667</ele><time>2026-04-08T16:37:29.001Z</time></trkpt><trkpt lat="39.35742077783125" lon="9.310847877928575"><ele>777.5</ele><time>2026-04-08T16:37:30.001Z</time></trkpt><trkpt lat="39.35744611200371" lon="9.310961651971315"><ele>781.3333333333334</ele><time>2026-04-08T16:37:31.001Z</time></trkpt><trkpt lat="39.3574605445139" lon="9.311073762624321"><ele>785.1666666666666</ele><time>2026-04-08T16:37:32.001Z</time></trkpt><trkpt lat="39.35746316528823" lon="9.311180793464501"><ele>789.0</ele><time>2026-04-08T16:37:33.001Z</time></trkpt><trkpt lat="39.35746290598863" lon="9.311279108402323"><ele>789.0</ele><time>2026-04-08T16:37:34.001Z</time></trkpt><trkpt lat="39.35745891990462" lon="9.311385212641209"><ele>789.0</ele><time>2026-04-08T16:37:35.001Z</time></trkpt><trkpt lat="39.3574624034994" lon="9.311505412029604"><ele>789.0</ele><time>2026-04-08T16:37:36.001Z</time></trkpt><trkpt lat="39.357450257618765" lon="9.311614781709782"><ele>789.0</ele><time>2026-04-08T16:37:37.001Z</time></trkpt><trkpt lat="39.35744634208184" lon="9.311700906768301"><ele>789.0</ele><time>2026-04-08T16:37:38.001Z</time></trkpt><trkpt lat="39.35748898987327" lon="9.311824218000154"><ele>789.0</ele><time>2026-04-08T16:37:40.001Z</time></trkpt><trkpt lat="39.35756582064469" lon="9.311851227076355"><ele>788.4000000000001</ele><time>2026-04-08T16:37:41.001Z</time></trkpt><trkpt lat="39.357647108209626" lon="9.311877284305506"><ele>787.8</ele><time>2026-04-08T16:37:42.001Z</time></trkpt><trkpt lat="39.35774750363342" lon="9.311900395591675"><ele>787.2</ele><time>2026-04-08T16:37:43.001Z</time></trkpt><trkpt lat="39.35783684538388" lon="9.311949635246142"><ele>786.5999999999999</ele><time>2026-04-08T16:37:44.001Z</time></trkpt><trkpt lat="39.35791701404742" lon="9.311990127050967"><ele>786.0</ele><time>2026-04-08T16:37:45.001Z</time></trkpt><trkpt lat="39.3580054017681" lon="9.312031550654707"><ele>786.4</ele><time>2026-04-08T16:37:46.001Z</time></trkpt><trkpt lat="39.35808436040566" lon="9.312110825291157"><ele>786.8</ele><time>2026-04-08T16:37:47.001Z</time></trkpt><trkpt lat="39.35815596986277" lon="9.312214925924941"><ele>787.1999999999999</ele><time>2026-04-08T16:37:48.001Z</time></trkpt><trkpt lat="39.35822947896078" lon="9.3122876827054"><ele>787.5999999999999</ele><time>2026-04-08T16:37:49.001Z</time></trkpt><trkpt lat="39.35829851332856" lon="9.312370601093548"><ele>788.0</ele><time>2026-04-08T16:37:50.001Z</time></trkpt><trkpt lat="39.35837266845818" lon="9.312466460738372"><ele>788.0</ele><time>2026-04-08T16:37:51.001Z</time></trkpt><trkpt lat="39.35844520596736" lon="9.312560692567516"><ele>788.0</ele><time>2026-04-08T16:37:52.001Z</time></trkpt><trkpt lat="39.35851056432375" lon="9.312663645896205"><ele>788.0</ele><time>2026-04-08T16:37:53.001Z</time></trkpt><trkpt lat="39.358562307550244" lon="9.31276268221966"><ele>788.0</ele><time>2026-04-08T16:37:54.001Z</time></trkpt><trkpt lat="39.35859799079909" lon="9.312840223143636"><ele>788.0</ele><time>2026-04-08T16:37:55.002Z</time></trkpt><trkpt lat="39.35869886505601" lon="9.312946073141454"><ele>788.0000000000001</ele><time>2026-04-08T16:37:57.002Z</time></trkpt><trkpt lat="39.35877299148718" lon="9.312972333802335"><ele>788.0</ele><time>2026-04-08T16:37:58.002Z</time></trkpt><trkpt lat="39.35886138604652" lon="9.312990318406401"><ele>788.0</ele><time>2026-04-08T16:37:59.002Z</time></trkpt><trkpt lat="39.358947442544554" lon="9.312999192034988"><ele>788.0</ele><time>2026-04-08T16:38:00.002Z</time></trkpt><trkpt lat="39.35903329336473" lon="9.313020376699573"><ele>788.0000000000001</ele><time>2026-04-08T16:38:01.002Z</time></trkpt><trkpt lat="39.3591177962463" lon="9.313054139786367"><ele>788.0</ele><time>2026-04-08T16:38:02.002Z</time></trkpt><trkpt lat="39.35919772485495" lon="9.313086856284384"><ele>787.0000000000001</ele><time>2026-04-08T16:38:03Z</time></trkpt><trkpt lat="39.359268265666444" lon="9.313117086453245"><ele>786.0</ele><time>2026-04-08T16:38:04Z</time></trkpt><trkpt lat="39.359339987642834" lon="9.313146522343866"><ele>785.0</ele><time>2026-04-08T16:38:05Z</time></trkpt><trkpt lat="39.359406280000194" lon="9.313193290902717"><ele>784.0</ele><time>2026-04-08T16:38:06Z</time></trkpt><trkpt lat="39.35946066338186" lon="9.313237558674421"><ele>783.0000000000001</ele><time>2026-04-08T16:38:07Z</time></trkpt><trkpt lat="39.35955364154942" lon="9.313274059331476"><ele>782.0</ele><time>2026-04-08T16:38:09Z</time></trkpt><trkpt lat="39.359608589848996" lon="9.313326450958861"><ele>782.0000000000001</ele><time>2026-04-08T16:38:13Z</time></trkpt><trkpt lat="39.35965457975288" lon="9.31319513760584"><ele>782.0</ele><time>2026-04-08T16:38:15Z</time></trkpt><trkpt lat="39.35962728130899" lon="9.313101306103208"><ele>782.0</ele><time>2026-04-08T16:38:17Z</time></trkpt><trkpt lat="39.359583605047014" lon="9.313024194046633"><ele>782.0</ele><time>2026-04-08T16:38:19Z</time></trkpt><trkpt lat="39.35954216951894" lon="9.31295754125869"><ele>782.0000000000001</ele><time>2026-04-08T16:43:00.001Z</time></trkpt><trkpt lat="39.35953334558823" lon="9.312874129513089"><ele>782.0</ele><time>2026-04-08T16:43:01.001Z</time></trkpt><trkpt lat="39.35950768543964" lon="9.312793232503191"><ele>785.6</ele><time>2026-04-08T16:43:02.001Z</time></trkpt><trkpt lat="39.359456594598534" lon="9.312690138808433"><ele>789.2</ele><time>2026-04-08T16:43:03.001Z</time></trkpt><trkpt lat="39.35941809063838" lon="9.312596232963106"><ele>792.8</ele><time>2026-04-08T16:43:04.001Z</time></trkpt><trkpt lat="39.35936681546118" lon="9.312492448663246"><ele>796.4</ele><time>2026-04-08T16:43:05.001Z</time></trkpt><trkpt lat="39.35930799951249" lon="9.312404966247692"><ele>800.0</ele><time>2026-04-08T16:43:06.001Z</time></trkpt><trkpt lat="39.359269971773635" lon="9.31229310928418"><ele>801.6</ele><time>2026-04-08T16:43:07.001Z</time></trkpt><trkpt lat="39.35920350110709" lon="9.312201482923129"><ele>803.2</ele><time>2026-04-08T16:43:08.001Z</time></trkpt><trkpt lat="39.35915832374083" lon="9.31207685801902"><ele>804.8</ele><time>2026-04-08T16:43:09.001Z</time></trkpt><trkpt lat="39.35911838544912" lon="9.311977737687009"><ele>806.4</ele><time>2026-04-08T16:43:10.001Z</time></trkpt><trkpt lat="39.35908250098197" lon="9.31188128223671"><ele>808.0</ele><time>2026-04-08T16:43:11.001Z</time></trkpt><trkpt lat="39.35907971369038" lon="9.311767311456867"><ele>807.9999999999999</ele><time>2026-04-08T16:43:12.001Z</time></trkpt><trkpt lat="39.3590678446157" lon="9.311641444047904"><ele>808.0</ele><time>2026-04-08T16:43:13.001Z</time></trkpt><trkpt lat="39.35905794867953" lon="9.311536501061667"><ele>808.0</ele><time>2026-04-08T16:43:14.001Z</time></trkpt><trkpt lat="39.35904783043018" lon="9.311453188983672"><ele>808.0</ele><time>2026-04-08T16:43:15.001Z</time></trkpt><trkpt lat="39.35902905418731" lon="9.311356954270366"><ele>807.9999999999999</ele><time>2026-04-08T16:43:17.001Z</time></trkpt><trkpt lat="39.35899536135402" lon="9.311257588276543"><ele>808.0</ele><time>2026-04-08T16:43:20.001Z</time></trkpt><trkpt lat="39.358970611450374" lon="9.311135899050306"><ele>809.4</ele><time>2026-04-08T16:43:22.001Z</time></trkpt><trkpt lat="39.358975572854085" lon="9.31097757719402"><ele>810.8</ele><time>2026-04-08T16:43:24.001Z</time></trkpt><trkpt lat="39.3589631864385" lon="9.310892925766407"><ele>812.2</ele><time>2026-04-08T16:43:25.001Z</time></trkpt><trkpt lat="39.35895434023972" lon="9.310730898488305"><ele>813.6</ele><time>2026-04-08T16:43:27.001Z</time></trkpt><trkpt lat="39.358938310386215" lon="9.310640186027715"><ele>815.0</ele><time>2026-04-08T16:43:28.001Z</time></trkpt><trkpt lat="39.358907655184325" lon="9.310552227467957"><ele>815.6666666666667</ele><time>2026-04-08T16:43:29.001Z</time></trkpt><trkpt lat="39.358872846548806" lon="9.310461298800618"><ele>816.3333333333334</ele><time>2026-04-08T16:43:30.001Z</time></trkpt><trkpt lat="39.358837974752866" lon="9.310374169021484"><ele>817.0</ele><time>2026-04-08T16:43:31.001Z</time></trkpt><trkpt lat="39.35878447347439" lon="9.3102785477912"><ele>817.6666666666667</ele><time>2026-04-08T16:43:32.001Z</time></trkpt><trkpt lat="39.35874588995504" lon="9.310167281537916"><ele>818.3333333333334</ele><time>2026-04-08T16:43:33.001Z</time></trkpt><trkpt lat="39.358696917218055" lon="9.310044991421297"><ele>819.0</ele><time>2026-04-08T16:43:34.001Z</time></trkpt><trkpt lat="39.35865508975" lon="9.309937951424976"><ele>819.8000000000001</ele><time>2026-04-08T16:43:35.001Z</time></trkpt><trkpt lat="39.35861247496949" lon="9.309837998676082"><ele>820.6</ele><time>2026-04-08T16:43:36.001Z</time></trkpt><trkpt lat="39.35857945891636" lon="9.309748984355275"><ele>821.4</ele><time>2026-04-08T16:43:37.001Z</time></trkpt><trkpt lat="39.3585384558848" lon="9.309657631652236"><ele>822.2</ele><time>2026-04-08T16:43:38.001Z</time></trkpt><trkpt lat="39.358458730354954" lon="9.3095347930328"><ele>823.0</ele><time>2026-04-08T16:43:40.001Z</time></trkpt><trkpt lat="39.358391548545185" lon="9.309471353113569"><ele>824.2</ele><time>2026-04-08T16:43:41.001Z</time></trkpt><trkpt lat="39.35832260306896" lon="9.30938731423955"><ele>825.4</ele><time>2026-04-08T16:43:42.001Z</time></trkpt><trkpt lat="39.35825672973451" lon="9.309284425291228"><ele>826.6</ele><time>2026-04-08T16:43:43.001Z</time></trkpt><trkpt lat="39.35819563888214" lon="9.309164337730156"><ele>827.8000000000001</ele><time>2026-04-08T16:43:44.001Z</time></trkpt><trkpt lat="39.35815532513073" lon="9.309062072228517"><ele>829.0</ele><time>2026-04-08T16:43:45.001Z</time></trkpt><trkpt lat="39.358101407257266" lon="9.308966526287527"><ele>828.6</ele><time>2026-04-08T16:43:46.001Z</time></trkpt><trkpt lat="39.35805990981702" lon="9.308857050603558"><ele>828.2</ele><time>2026-04-08T16:43:47.001Z</time></trkpt><trkpt lat="39.35799717311006" lon="9.308779589492808"><ele>827.8000000000001</ele><time>2026-04-08T16:43:48.001Z</time></trkpt><trkpt lat="39.35794753435574" lon="9.308676635072828"><ele>827.4000000000001</ele><time>2026-04-08T16:43:49.001Z</time></trkpt><trkpt lat="39.35790892034154" lon="9.308572033564637"><ele>827.0</ele><time>2026-04-08T16:43:50.001Z</time></trkpt><trkpt lat="39.357880810279404" lon="9.3084647037854"><ele>826.1666666666667</ele><time>2026-04-08T16:43:51.001Z</time></trkpt><trkpt lat="39.357865759948965" lon="9.308374875369275"><ele>825.3333333333334</ele><time>2026-04-08T16:43:52.001Z</time></trkpt><trkpt lat="39.357847198537044" lon="9.308287861662993"><ele>824.5</ele><time>2026-04-08T16:43:53.001Z</time></trkpt><trkpt lat="39.357817953327164" lon="9.308184286557257"><ele>823.6666666666667</ele><time>2026-04-08T16:43:54.001Z</time></trkpt><trkpt lat="39.35779273018201" lon="9.308074595081418"><ele>822.8333333333334</ele><time>2026-04-08T16:43:55.001Z</time></trkpt><trkpt lat="39.35777724251078" lon="9.307977249410477"><ele>822.0</ele><time>2026-04-08T16:43:56.001Z</time></trkpt><trkpt lat="39.35776279114577" lon="9.307853057234647"><ele>822.0</ele><time>2026-04-08T16:43:57.001Z</time></trkpt><trkpt lat="39.35775303395013" lon="9.307745292376703"><ele>822.0</ele><time>2026-04-08T16:43:58.001Z</time></trkpt><trkpt lat="39.35773937852028" lon="9.307619823670532"><ele>822.0</ele><time>2026-04-08T16:43:59.001Z</time></trkpt><trkpt lat="39.35774582180288" lon="9.307498960381993"><ele>822.0</ele><time>2026-04-08T16:44:00.001Z</time></trkpt><trkpt lat="39.35772182925761" lon="9.307378941445513"><ele>822.0</ele><time>2026-04-08T16:44:01.001Z</time></trkpt><trkpt lat="39.35768459694048" lon="9.307257522210014"><ele>823.2</ele><time>2026-04-08T16:44:02.001Z</time></trkpt><trkpt lat="39.3576426594174" lon="9.307132022562644"><ele>824.4000000000001</ele><time>2026-04-08T16:44:03.001Z</time></trkpt><trkpt lat="39.357593888878775" lon="9.307018327553937"><ele>825.5999999999999</ele><time>2026-04-08T16:44:04.001Z</time></trkpt><trkpt lat="39.357573214001796" lon="9.306902941316467"><ele>826.8</ele><time>2026-04-08T16:44:05.001Z</time></trkpt><trkpt lat="39.35756107288623" lon="9.306798846089556"><ele>828.0</ele><time>2026-04-08T16:44:06.001Z</time></trkpt><trkpt lat="39.35757715498602" lon="9.306685838859922"><ele>828.0</ele><time>2026-04-08T16:44:07.001Z</time></trkpt><trkpt lat="39.357571902086626" lon="9.306601792998743"><ele>828.0</ele><time>2026-04-08T16:44:08.001Z</time></trkpt><trkpt lat="39.357551346401934" lon="9.306522772016372"><ele>828.0</ele><time>2026-04-08T16:44:09.001Z</time></trkpt><trkpt lat="39.35754389422727" lon="9.306405951820242"><ele>828.0</ele><time>2026-04-08T16:44:10.001Z</time></trkpt><trkpt lat="39.35754325876054" lon="9.306291757858826"><ele>828.0</ele><time>2026-04-08T16:44:11.001Z</time></trkpt><trkpt lat="39.357577057765724" lon="9.306201197730001"><ele>828.0</ele><time>2026-04-08T16:44:12.001Z</time></trkpt><trkpt lat="39.35758507524967" lon="9.306077585822134"><ele>830.0</ele><time>2026-04-08T16:44:13.001Z</time></trkpt><trkpt lat="39.357609057197486" lon="9.305973336843895"><ele>832.0</ele><time>2026-04-08T16:44:14.001Z</time></trkpt><trkpt lat="39.357637324634005" lon="9.305858290991555"><ele>834.0</ele><time>2026-04-08T16:44:15.001Z</time></trkpt><trkpt lat="39.357653789612115" lon="9.305739324333175"><ele>836.0</ele><time>2026-04-08T16:44:16.001Z</time></trkpt><trkpt lat="39.35766902617449" lon="9.305636035750634"><ele>838.0</ele><time>2026-04-08T16:44:17.001Z</time></trkpt><trkpt lat="39.35767251400747" lon="9.305529173607828"><ele>840.0</ele><time>2026-04-08T16:44:18.001Z</time></trkpt><trkpt lat="39.35766936359923" lon="9.305430507426776"><ele>842.1666666666666</ele><time>2026-04-08T16:44:19.001Z</time></trkpt><trkpt lat="39.35767969676294" lon="9.305318924074708"><ele>844.3333333333333</ele><time>2026-04-08T16:44:20.001Z</time></trkpt><trkpt lat="39.35768198720801" lon="9.305211446745012"><ele>846.5</ele><time>2026-04-08T16:44:21.001Z</time></trkpt><trkpt lat="39.35766693948691" lon="9.30508787753747"><ele>848.6666666666666</ele><time>2026-04-08T16:44:22.001Z</time></trkpt><trkpt lat="39.35767014866324" lon="9.304975182510068"><ele>850.8333333333333</ele><time>2026-04-08T16:44:23.001Z</time></trkpt><trkpt lat="39.35767084113848" lon="9.304877918855622"><ele>853.0</ele><time>2026-04-08T16:44:24.001Z</time></trkpt><trkpt lat="39.35768126156537" lon="9.304788778885763"><ele>855.6666666666666</ele><time>2026-04-08T16:44:25.001Z</time></trkpt><trkpt lat="39.357670906832986" lon="9.304691169138756"><ele>858.3333333333333</ele><time>2026-04-08T16:44:26.001Z</time></trkpt><trkpt lat="39.35766832422639" lon="9.30460504335656"><ele>861.0</ele><time>2026-04-08T16:44:27.001Z</time></trkpt><trkpt lat="39.357666932171526" lon="9.304511404847439"><ele>863.6666666666667</ele><time>2026-04-08T16:44:28.001Z</time></trkpt><trkpt lat="39.35767737120953" lon="9.304415895558595"><ele>866.3333333333334</ele><time>2026-04-08T16:44:29.001Z</time></trkpt><trkpt lat="39.357683868635" lon="9.304305730954916"><ele>869.0</ele><time>2026-04-08T16:44:30.001Z</time></trkpt><trkpt lat="39.357681387375195" lon="9.304201305747927"><ele>869.0</ele><time>2026-04-08T16:44:31.001Z</time></trkpt><trkpt lat="39.357675379529134" lon="9.30410999035976"><ele>869.0</ele><time>2026-04-08T16:44:32.001Z</time></trkpt><trkpt lat="39.35768705767641" lon="9.303997386294192"><ele>869.0</ele><time>2026-04-08T16:44:33.001Z</time></trkpt><trkpt lat="39.357690359579145" lon="9.303908042795454"><ele>869.0</ele><time>2026-04-08T16:44:34.001Z</time></trkpt><trkpt lat="39.357693425066344" lon="9.303810607227007"><ele>869.0</ele><time>2026-04-08T16:44:35.001Z</time></trkpt><trkpt lat="39.357706218404424" lon="9.30371405947348"><ele>869.0</ele><time>2026-04-08T16:44:36.001Z</time></trkpt><trkpt lat="39.35772372773656" lon="9.303629410411173"><ele>869.0</ele><time>2026-04-08T16:44:37Z</time></trkpt><trkpt lat="39.35773742411622" lon="9.303547811911274"><ele>870.5000000000001</ele><time>2026-04-08T16:44:38Z</time></trkpt><trkpt lat="39.357746501983115" lon="9.303443469707416"><ele>872.0</ele><time>2026-04-08T16:44:39Z</time></trkpt><trkpt lat="39.35777351854825" lon="9.303353091009054"><ele>873.5</ele><time>2026-04-08T16:44:40Z</time></trkpt><trkpt lat="39.35777956049922" lon="9.303249626566501"><ele>875.0</ele><time>2026-04-08T16:44:41Z</time></trkpt><trkpt lat="39.35777772232561" lon="9.303160855972406"><ele>876.5000000000001</ele><time>2026-04-08T16:44:42Z</time></trkpt><trkpt lat="39.357794740360774" lon="9.303054763309378"><ele>878.0</ele><time>2026-04-08T16:44:43Z</time></trkpt><trkpt lat="39.35779616324017" lon="9.302951344641034"><ele>878.5999999999999</ele><time>2026-04-08T16:44:44Z</time></trkpt><trkpt lat="39.35778059392232" lon="9.302855823732626"><ele>879.1999999999999</ele><time>2026-04-08T16:44:45Z</time></trkpt><trkpt lat="39.357797324872436" lon="9.302729821541078"><ele>879.8</ele><time>2026-04-08T16:44:46Z</time></trkpt><trkpt lat="39.35780068746305" lon="9.302599939509262"><ele>880.4</ele><time>2026-04-08T16:44:47Z</time></trkpt><trkpt lat="39.35779977425655" lon="9.302488109569174"><ele>881.0</ele><time>2026-04-08T16:44:48Z</time></trkpt><trkpt lat="39.3578008166995" lon="9.302357708539175"><ele>882.1999999999999</ele><time>2026-04-08T16:44:49Z</time></trkpt><trkpt lat="39.35780931123161" lon="9.302212462805858"><ele>883.3999999999999</ele><time>2026-04-08T16:44:50Z</time></trkpt><trkpt lat="39.35782092824884" lon="9.302069456103363"><ele>884.6</ele><time>2026-04-08T16:44:51Z</time></trkpt><trkpt lat="39.35784538521996" lon="9.301944138405181"><ele>885.8</ele><time>2026-04-08T16:44:52Z</time></trkpt><trkpt lat="39.35789958893645" lon="9.30183920809138"><ele>887.0</ele><time>2026-04-08T16:44:53Z</time></trkpt><trkpt lat="39.35794245292653" lon="9.30169838527852"><ele>887.0</ele><time>2026-04-08T16:44:54Z</time></trkpt><trkpt lat="39.35798776335269" lon="9.301563701650718"><ele>887.0</ele><time>2026-04-08T16:44:55Z</time></trkpt><trkpt lat="39.358033565057056" lon="9.301419953464091"><ele>887.0</ele><time>2026-04-08T16:44:56Z</time></trkpt><trkpt lat="39.35808077729357" lon="9.301276738276062"><ele>887.0</ele><time>2026-04-08T16:44:57Z</time></trkpt><trkpt lat="39.35813012374364" lon="9.301131890842816"><ele>888.0</ele><time>2026-04-08T16:44:58Z</time></trkpt><trkpt lat="39.358176676516806" lon="9.300982907002055"><ele>889.0</ele><time>2026-04-08T16:44:59Z</time></trkpt><trkpt lat="39.35822271368716" lon="9.300840440601583"><ele>890.0</ele><time>2026-04-08T16:45:00Z</time></trkpt><trkpt lat="39.35826100181066" lon="9.30072961649321"><ele>891.0</ele><time>2026-04-08T16:45:01Z</time></trkpt><trkpt lat="39.35828822046184" lon="9.300645605233976"><ele>892.0</ele><time>2026-04-08T16:45:02Z</time></trkpt><trkpt lat="39.358319024442494" lon="9.300555346586995"><ele>892.6666666666666</ele><time>2026-04-08T16:45:03Z</time></trkpt><trkpt lat="39.35833201056599" lon="9.30043000246885"><ele>893.3333333333333</ele><time>2026-04-08T16:45:05Z</time></trkpt><trkpt lat="39.358281811808574" lon="9.300320547105766"><ele>894.0</ele><time>2026-04-08T16:45:07Z</time></trkpt><trkpt lat="39.3582346552518" lon="9.30025289855188"><ele>894.6666666666667</ele><time>2026-04-08T16:45:08Z</time></trkpt><trkpt lat="39.358182077033284" lon="9.300186753953836"><ele>895.3333333333334</ele><time>2026-04-08T16:45:09Z</time></trkpt><trkpt lat="39.358112433146076" lon="9.30009450702685"><ele>896.0</ele><time>2026-04-08T16:45:11Z</time></trkpt><trkpt lat="39.35805035346698" lon="9.300004643108412"><ele>896.0</ele><time>2026-04-08T16:45:13Z</time></trkpt><trkpt lat="39.35803151825228" lon="9.299901339558293"><ele>895.9999999999999</ele><time>2026-04-08T16:45:15Z</time></trkpt><trkpt lat="39.35800999583083" lon="9.299791306666172"><ele>895.9999999999999</ele><time>2026-04-08T16:45:17Z</time></trkpt><trkpt lat="39.358031524215725" lon="9.299648530942255"><ele>896.0</ele><time>2026-04-08T16:45:19Z</time></trkpt><trkpt lat="39.358058556196205" lon="9.299556480984073"><ele>896.0</ele><time>2026-04-08T16:45:20Z</time></trkpt><trkpt lat="39.35809032616017" lon="9.299425562082476"><ele>896.0</ele><time>2026-04-08T16:45:21Z</time></trkpt><trkpt lat="39.358116826731184" lon="9.299271563186142"><ele>896.0</ele><time>2026-04-08T16:45:22Z</time></trkpt><trkpt lat="39.358141978449915" lon="9.299118875794107"><ele>896.0</ele><time>2026-04-08T16:45:23Z</time></trkpt><trkpt lat="39.358161617904294" lon="9.298979493898855"><ele>896.0</ele><time>2026-04-08T16:45:24Z</time></trkpt><trkpt lat="39.35817490651969" lon="9.298829946119351"><ele>895.1999999999999</ele><time>2026-04-08T16:45:25Z</time></trkpt><trkpt lat="39.35817460849947" lon="9.298679629068877"><ele>894.3999999999999</ele><time>2026-04-08T16:45:26Z</time></trkpt><trkpt lat="39.35818307432175" lon="9.29854529284588"><ele>893.6</ele><time>2026-04-08T16:45:27Z</time></trkpt><trkpt lat="39.358203162031224" lon="9.298429961977073"><ele>892.8</ele><time>2026-04-08T16:45:28Z</time></trkpt><trkpt lat="39.358235958559966" lon="9.298303299157709"><ele>892.0</ele><time>2026-04-08T16:45:29Z</time></trkpt><trkpt lat="39.358260634393694" lon="9.298175857325914"><ele>890.25</ele><time>2026-04-08T16:45:30Z</time></trkpt><trkpt lat="39.3582876206714" lon="9.298014612232361"><ele>888.5</ele><time>2026-04-08T16:45:31Z</time></trkpt><trkpt lat="39.35832166193138" lon="9.297840183688368"><ele>886.75</ele><time>2026-04-08T16:45:32Z</time></trkpt><trkpt lat="39.358355487476764" lon="9.29767703339148"><ele>885.0</ele><time>2026-04-08T16:45:33Z</time></trkpt><trkpt lat="39.35838282311863" lon="9.297532769061275"><ele>885.0</ele><time>2026-04-08T16:45:34Z</time></trkpt><trkpt lat="39.358404955245746" lon="9.2974062867499"><ele>885.0</ele><time>2026-04-08T16:45:35Z</time></trkpt><trkpt lat="39.35843007474898" lon="9.297302062920236"><ele>885.0</ele><time>2026-04-08T16:45:36Z</time></trkpt><trkpt lat="39.35846654056341" lon="9.297209699815404"><ele>885.0</ele><time>2026-04-08T16:45:37Z</time></trkpt><trkpt lat="39.35854174875041" lon="9.297051927402938"><ele>885.0</ele><time>2026-04-08T16:45:39.001Z</time></trkpt><trkpt lat="39.358554966749445" lon="9.296935636136563"><ele>887.2</ele><time>2026-04-08T16:45:40.001Z</time></trkpt><trkpt lat="39.358579011379014" lon="9.296807241316447"><ele>889.4</ele><time>2026-04-08T16:45:41.001Z</time></trkpt><trkpt lat="39.3586019448684" lon="9.296692061786914"><ele>891.5999999999999</ele><time>2026-04-08T16:45:42.001Z</time></trkpt><trkpt lat="39.35857413141276" lon="9.296565762122164"><ele>893.8</ele><time>2026-04-08T16:45:43.001Z</time></trkpt><trkpt lat="39.3585656028232" lon="9.296444758089281"><ele>896.0</ele><time>2026-04-08T16:45:44.001Z</time></trkpt><trkpt lat="39.358521709371765" lon="9.296330298559875"><ele>898.5999999999999</ele><time>2026-04-08T16:45:45.001Z</time></trkpt><trkpt lat="39.35845088891124" lon="9.29621106641318"><ele>901.1999999999999</ele><time>2026-04-08T16:45:46.001Z</time></trkpt><trkpt lat="39.35836255927248" lon="9.296094203611704"><ele>903.8000000000001</ele><time>2026-04-08T16:45:47.001Z</time></trkpt><trkpt lat="39.35832408472754" lon="9.295971885283908"><ele>906.4000000000001</ele><time>2026-04-08T16:45:48.001Z</time></trkpt><trkpt lat="39.35830951185019" lon="9.295884766700516"><ele>909.0</ele><time>2026-04-08T16:45:49.001Z</time></trkpt><trkpt lat="39.35829873839325" lon="9.295804147041144"><ele>909.0</ele><time>2026-04-08T16:45:50.001Z</time></trkpt><trkpt lat="39.358293674985966" lon="9.295721907926133"><ele>909.0000000000001</ele><time>2026-04-08T16:45:51.001Z</time></trkpt><trkpt lat="39.358290628061134" lon="9.295591259277208"><ele>909.0000000000001</ele><time>2026-04-08T16:45:52.001Z</time></trkpt><trkpt lat="39.35829016826108" lon="9.295443846613313"><ele>909.0</ele><time>2026-04-08T16:45:53.001Z</time></trkpt><trkpt lat="39.358284323472155" lon="9.295293523673365"><ele>909.0</ele><time>2026-04-08T16:45:54.001Z</time></trkpt><trkpt lat="39.35826712560072" lon="9.295187669582047"><ele>906.6666666666666</ele><time>2026-04-08T16:45:55.001Z</time></trkpt><trkpt lat="39.35822227947669" lon="9.29509068851495"><ele>904.3333333333333</ele><time>2026-04-08T16:45:56.001Z</time></trkpt><trkpt lat="39.358155928293996" lon="9.295024825428962"><ele>902.0</ele><time>2026-04-08T16:45:57.001Z</time></trkpt><trkpt lat="39.35811232202675" lon="9.294952295684645"><ele>899.6666666666666</ele><time>2026-04-08T16:45:58.001Z</time></trkpt><trkpt lat="39.358073828745226" lon="9.294870742849278"><ele>897.3333333333333</ele><time>2026-04-08T16:45:59.001Z</time></trkpt><trkpt lat="39.35804590832782" lon="9.294797369261326"><ele>895.0</ele><time>2026-04-08T16:46:00.001Z</time></trkpt><trkpt lat="39.358009850515295" lon="9.294636115730688"><ele>894.9999999999999</ele><time>2026-04-08T16:46:02.001Z</time></trkpt><trkpt lat="39.35800200528919" lon="9.29455314209709"><ele>895.0</ele><time>2026-04-08T16:46:03.001Z</time></trkpt><trkpt lat="39.35800757927964" lon="9.294454496602821"><ele>895.0</ele><time>2026-04-08T16:46:04.001Z</time></trkpt><trkpt lat="39.35802219465022" lon="9.294353887778346"><ele>895.0</ele><time>2026-04-08T16:46:05.001Z</time></trkpt><trkpt lat="39.35804361015588" lon="9.29422971664342"><ele>894.9999999999999</ele><time>2026-04-08T16:46:06.001Z</time></trkpt><trkpt lat="39.3580943951323" lon="9.294095055968738"><ele>895.0</ele><time>2026-04-08T16:46:07.001Z</time></trkpt><trkpt lat="39.35814196049496" lon="9.293953633701518"><ele>903.25</ele><time>2026-04-08T16:46:08.001Z</time></trkpt><trkpt lat="39.35819260689384" lon="9.29381161726025"><ele>911.5</ele><time>2026-04-08T16:46:09.001Z</time></trkpt><trkpt lat="39.358241174279264" lon="9.29368155730323"><ele>919.75</ele><time>2026-04-08T16:46:10.001Z</time></trkpt><trkpt lat="39.358296755014685" lon="9.293553384777956"><ele>928.0</ele><time>2026-04-08T16:46:11.001Z</time></trkpt><trkpt lat="39.35836319785563" lon="9.293428653616447"><ele>927.9999999999999</ele><time>2026-04-08T16:46:12.001Z</time></trkpt><trkpt lat="39.3584283303284" lon="9.293334656337487"><ele>928.0</ele><time>2026-04-08T16:46:13.001Z</time></trkpt><trkpt lat="39.358501424440206" lon="9.293242316476558"><ele>928.0</ele><time>2026-04-08T16:46:14.001Z</time></trkpt><trkpt lat="39.35856744341304" lon="9.293167227005037"><ele>928.0</ele><time>2026-04-08T16:46:15.001Z</time></trkpt><trkpt lat="39.35862232925537" lon="9.293117004291089"><ele>927.9999999999999</ele><time>2026-04-08T16:46:17.001Z</time></trkpt><trkpt lat="39.35868073286402" lon="9.29315664489985"><ele>928.0</ele><time>2026-04-08T16:46:24.001Z</time></trkpt><trkpt lat="39.358714603022" lon="9.293251901797833"><ele>928.0</ele><time>2026-04-08T16:46:26.001Z</time></trkpt><trkpt lat="39.35877901748748" lon="9.293335142596082"><ele>928.0</ele><time>2026-04-08T16:46:27Z</time></trkpt><trkpt lat="39.35884620799515" lon="9.293440261377365"><ele>928.0</ele><time>2026-04-08T16:46:28Z</time></trkpt><trkpt lat="39.3589243655546" lon="9.293560556270137"><ele>928.0</ele><time>2026-04-08T16:46:29Z</time></trkpt><trkpt lat="39.359009325515956" lon="9.293690257005487"><ele>928.0</ele><time>2026-04-08T16:46:30Z</time></trkpt><trkpt lat="39.35907569608281" lon="9.293781636678238"><ele>930.6666666666666</ele><time>2026-04-08T16:46:31Z</time></trkpt><trkpt lat="39.35914972154967" lon="9.293817310438081"><ele>933.3333333333333</ele><time>2026-04-08T16:46:32Z</time></trkpt><trkpt lat="39.359222478860836" lon="9.293830684710242"><ele>936.0</ele><time>2026-04-08T16:46:33Z</time></trkpt><trkpt lat="39.35931509401903" lon="9.293857418355707"><ele>938.6666666666667</ele><time>2026-04-08T16:46:34Z</time></trkpt><trkpt lat="39.359401328886676" lon="9.29389218846689"><ele>941.3333333333334</ele><time>2026-04-08T16:46:35Z</time></trkpt><trkpt lat="39.35950446776467" lon="9.293939021196877"><ele>944.0</ele><time>2026-04-08T16:46:36Z</time></trkpt><trkpt lat="39.35957716125373" lon="9.29396998594601"><ele>945.8000000000001</ele><time>2026-04-08T16:46:37Z</time></trkpt><trkpt lat="39.359704903743115" lon="9.29398966116756"><ele>947.6000000000001</ele><time>2026-04-08T16:46:39Z</time></trkpt><trkpt lat="39.359782686790986" lon="9.293929801576772"><ele>949.4</ele><time>2026-04-08T16:46:40Z</time></trkpt><trkpt lat="39.35986852282279" lon="9.293879518208817"><ele>951.2</ele><time>2026-04-08T16:46:41Z</time></trkpt><trkpt lat="39.359958530136254" lon="9.293812875722855"><ele>953.0</ele><time>2026-04-08T16:46:42Z</time></trkpt><trkpt lat="39.36006109015544" lon="9.293751046133801"><ele>953.0</ele><time>2026-04-08T16:46:43Z</time></trkpt><trkpt lat="39.360157416806985" lon="9.293739143099707"><ele>953.0</ele><time>2026-04-08T16:46:44Z</time></trkpt><trkpt lat="39.36022964151818" lon="9.293724088677287"><ele>953.0</ele><time>2026-04-08T16:46:45Z</time></trkpt><trkpt lat="39.360313572486" lon="9.293726396763068"><ele>953.0</ele><time>2026-04-08T16:46:47Z</time></trkpt><trkpt lat="39.36039572427059" lon="9.293758391307431"><ele>953.0</ele><time>2026-04-08T16:48:09Z</time></trkpt><trkpt lat="39.36051966390573" lon="9.293794722368506"><ele>954.5</ele><time>2026-04-08T16:48:11Z</time></trkpt><trkpt lat="39.360597440515754" lon="9.293813248334194"><ele>956.0</ele><time>2026-04-08T16:48:12Z</time></trkpt><trkpt lat="39.360681276599614" lon="9.293925372327028"><ele>957.5</ele><time>2026-04-08T16:48:13Z</time></trkpt><trkpt lat="39.36080016273971" lon="9.293954831893569"><ele>959.0</ele><time>2026-04-08T16:48:14Z</time></trkpt><trkpt lat="39.360942800748106" lon="9.293984268495917"><ele>964.6666666666667</ele><time>2026-04-08T16:48:15Z</time></trkpt><trkpt lat="39.36109340357586" lon="9.294002516576882"><ele>970.3333333333333</ele><time>2026-04-08T16:48:16Z</time></trkpt><trkpt lat="39.36125128207464" lon="9.293997407166632"><ele>976.0</ele><time>2026-04-08T16:48:17Z</time></trkpt><trkpt lat="39.36141231816017" lon="9.293963059909222"><ele>972.0</ele><time>2026-04-08T16:48:18Z</time></trkpt><trkpt lat="39.36155518074733" lon="9.293906850467408"><ele>968.0</ele><time>2026-04-08T16:48:19Z</time></trkpt><trkpt lat="39.3616718987659" lon="9.293892540519053"><ele>964.0</ele><time>2026-04-08T16:48:20Z</time></trkpt><trkpt lat="39.36178354662502" lon="9.293895231044244"><ele>960.0</ele><time>2026-04-08T16:48:21Z</time></trkpt><trkpt lat="39.3618791219417" lon="9.293916067567112"><ele>964.1666666666666</ele><time>2026-04-08T16:48:22Z</time></trkpt><trkpt lat="39.36195144481164" lon="9.29396343599817"><ele>968.3333333333333</ele><time>2026-04-08T16:48:23Z</time></trkpt><trkpt lat="39.362008958128975" lon="9.294039096238185"><ele>972.5</ele><time>2026-04-08T16:48:24Z</time></trkpt><trkpt lat="39.36207376486187" lon="9.294107502073283"><ele>976.6666666666666</ele><time>2026-04-08T16:48:25Z</time></trkpt><trkpt lat="39.3621485398393" lon="9.294162534529223"><ele>980.8333333333333</ele><time>2026-04-08T16:48:26Z</time></trkpt><trkpt lat="39.36221193383666" lon="9.294237136150466"><ele>985.0</ele><time>2026-04-08T16:48:27Z</time></trkpt><trkpt lat="39.36227153576608" lon="9.294333899954077"><ele>985.0</ele><time>2026-04-08T16:48:28Z</time></trkpt><trkpt lat="39.362355534276766" lon="9.294434868591257"><ele>985.0</ele><time>2026-04-08T16:48:29Z</time></trkpt><trkpt lat="39.3624492798182" lon="9.294554007967461"><ele>985.0</ele><time>2026-04-08T16:48:30Z</time></trkpt><trkpt lat="39.36254710905699" lon="9.294666149083948"><ele>985.0</ele><time>2026-04-08T16:48:31Z</time></trkpt><trkpt lat="39.36259329848624" lon="9.294833330985533"><ele>988.0</ele><time>2026-04-08T16:48:32Z</time></trkpt><trkpt lat="39.362655349216965" lon="9.294984854375164"><ele>991.0</ele><time>2026-04-08T16:48:33Z</time></trkpt><trkpt lat="39.36272558811598" lon="9.295086339059319"><ele>994.0</ele><time>2026-04-08T16:48:34Z</time></trkpt><trkpt lat="39.36277285055668" lon="9.295179157884155"><ele>997.0</ele><time>2026-04-08T16:48:35Z</time></trkpt><trkpt lat="39.36287298809118" lon="9.295210125466213"><ele>1000.0</ele><time>2026-04-08T16:48:36Z</time></trkpt><trkpt lat="39.36299360666862" lon="9.295245395681109"><ele>998.0</ele><time>2026-04-08T16:48:37Z</time></trkpt><trkpt lat="39.36312712459636" lon="9.29528340114634"><ele>996.0</ele><time>2026-04-08T16:48:38Z</time></trkpt><trkpt lat="39.36324818344628" lon="9.295408475004022"><ele>994.0</ele><time>2026-04-08T16:48:39Z</time></trkpt><trkpt lat="39.36338629791219" lon="9.295540307162964"><ele>999.0</ele><time>2026-04-08T16:48:40Z</time></trkpt><trkpt lat="39.363525106477965" lon="9.295664397946146"><ele>1004.0</ele><time>2026-04-08T16:48:41Z</time></trkpt><trkpt lat="39.36365439017068" lon="9.295793219501538"><ele>1009.0</ele><time>2026-04-08T16:48:42Z</time></trkpt><trkpt lat="39.36379091148408" lon="9.2958985217652"><ele>1011.6666666666666</ele><time>2026-04-08T16:48:43Z</time></trkpt><trkpt lat="39.36394020069535" lon="9.295984966278832"><ele>1014.3333333333333</ele><time>2026-04-08T16:48:44Z</time></trkpt><trkpt lat="39.36410781807997" lon="9.296058571910498"><ele>1017.0</ele><time>2026-04-08T16:48:45Z</time></trkpt><trkpt lat="39.3642742793752" lon="9.29612267512436"><ele>1017.0</ele><time>2026-04-08T16:48:46Z</time></trkpt><trkpt lat="39.36444346116566" lon="9.296177264516077"><ele>1017.0</ele><time>2026-04-08T16:48:47Z</time></trkpt><trkpt lat="39.36463110817598" lon="9.296221262602042"><ele>1017.0</ele><time>2026-04-08T16:48:48Z</time></trkpt><trkpt lat="39.36483567429708" lon="9.296256708391063"><ele>1019.6666666666667</ele><time>2026-04-08T16:48:49Z</time></trkpt><trkpt lat="39.36504674170259" lon="9.296294017254192"><ele>1022.3333333333334</ele><time>2026-04-08T16:48:50Z</time></trkpt><trkpt lat="39.36525236237834" lon="9.296327328191868"><ele>1025.0</ele><time>2026-04-08T16:48:51Z</time></trkpt><trkpt lat="39.365455961921974" lon="9.296366536936493"><ele>1026.3333333333335</ele><time>2026-04-08T16:48:52Z</time></trkpt><trkpt lat="39.36563021480243" lon="9.296408523733923"><ele>1027.6666666666667</ele><time>2026-04-08T16:48:53Z</time></trkpt><trkpt lat="39.365781268358674" lon="9.296446570837249"><ele>1029.0</ele><time>2026-04-08T16:48:54Z</time></trkpt><trkpt lat="39.365902595709784" lon="9.296500270778223"><ele>1032.8333333333333</ele><time>2026-04-08T16:48:55Z</time></trkpt><trkpt lat="39.36600670237191" lon="9.296526221984744"><ele>1036.6666666666667</ele><time>2026-04-08T16:48:56Z</time></trkpt><trkpt lat="39.366093494870334" lon="9.296526596463364"><ele>1040.5</ele><time>2026-04-08T16:48:57Z</time></trkpt><trkpt lat="39.36615685512594" lon="9.296553049049285"><ele>1044.3333333333335</ele><time>2026-04-08T16:48:58Z</time></trkpt><trkpt lat="39.366234264338225" lon="9.296636550835515"><ele>1048.1666666666667</ele><time>2026-04-08T16:49:00Z</time></trkpt><trkpt lat="39.36620110845695" lon="9.296732644378881"><ele>1052.0</ele><time>2026-04-08T16:49:01Z</time></trkpt><trkpt lat="39.36622145202767" lon="9.296831393580202"><ele>1052.0</ele><time>2026-04-08T16:49:04Z</time></trkpt><trkpt lat="39.366115119625505" lon="9.296828238313456"><ele>1052.0</ele><time>2026-04-08T16:49:07Z</time></trkpt><trkpt lat="39.36609795549781" lon="9.29674058955849"><ele>1052.0</ele><time>2026-04-08T16:49:10Z</time></trkpt><trkpt lat="39.36619598231478" lon="9.296756799475185"><ele>1052.0</ele><time>2026-04-08T17:01:31Z</time></trkpt><trkpt lat="39.36625865287965" lon="9.296705472475528"><ele>1052.0</ele><time>2026-04-08T17:01:37Z</time></trkpt><trkpt lat="39.36623456014257" lon="9.296606093735598"><ele>1052.0</ele><time>2026-04-08T17:01:39Z</time></trkpt><trkpt lat="39.36615600545737" lon="9.296521112049248"><ele>1052.0</ele><time>2026-04-08T17:01:41Z</time></trkpt><trkpt lat="39.366047157497505" lon="9.296491834153942"><ele>1052.0</ele><time>2026-04-08T17:01:43Z</time></trkpt><trkpt lat="39.365977023397114" lon="9.29647588373666"><ele>1052.0</ele><time>2026-04-08T17:01:44Z</time></trkpt><trkpt lat="39.36590725904971" lon="9.296457646648687"><ele>1052.0</ele><time>2026-04-08T17:01:45Z</time></trkpt><trkpt lat="39.36583883747377" lon="9.296438404678433"><ele>1052.0</ele><time>2026-04-08T17:01:46Z</time></trkpt><trkpt lat="39.3657704604977" lon="9.296419723613559"><ele>1052.0</ele><time>2026-04-08T17:01:47Z</time></trkpt><trkpt lat="39.365698797448545" lon="9.296400398764957"><ele>1048.7142857142858</ele><time>2026-04-08T17:01:48Z</time></trkpt><trkpt lat="39.365630020746124" lon="9.29638220708252"><ele>1045.4285714285713</ele><time>2026-04-08T17:01:49Z</time></trkpt><trkpt lat="39.3655602388795" lon="9.296364722467553"><ele>1042.142857142857</ele><time>2026-04-08T17:01:50Z</time></trkpt><trkpt lat="39.36549214917697" lon="9.296349080233835"><ele>1038.857142857143</ele><time>2026-04-08T17:01:51Z</time></trkpt><trkpt lat="39.36542237452519" lon="9.29635647901149"><ele>1035.5714285714284</ele><time>2026-04-08T17:01:52Z</time></trkpt><trkpt lat="39.3653563511985" lon="9.296342650442458"><ele>1032.2857142857142</ele><time>2026-04-08T17:01:53Z</time></trkpt><trkpt lat="39.36529094425501" lon="9.296330524136673"><ele>1029.0</ele><time>2026-04-08T17:01:54Z</time></trkpt><trkpt lat="39.36522335915362" lon="9.296317047347939"><ele>1028.3333333333333</ele><time>2026-04-08T17:01:55Z</time></trkpt><trkpt lat="39.36515700823438" lon="9.29630338997678"><ele>1027.6666666666667</ele><time>2026-04-08T17:01:56Z</time></trkpt><trkpt lat="39.365090637059446" lon="9.296293002594577"><ele>1027.0</ele><time>2026-04-08T17:01:57Z</time></trkpt><trkpt lat="39.36502109627894" lon="9.296281461224796"><ele>1026.3333333333335</ele><time>2026-04-08T17:01:58Z</time></trkpt><trkpt lat="39.36493719631631" lon="9.296268096068154"><ele>1025.6666666666667</ele><time>2026-04-08T17:01:59Z</time></trkpt><trkpt lat="39.364844190229256" lon="9.296228514029517"><ele>1025.0</ele><time>2026-04-08T17:02:00Z</time></trkpt><trkpt lat="39.364748273386084" lon="9.296230739675115"><ele>1023.6666666666667</ele><time>2026-04-08T17:02:01Z</time></trkpt><trkpt lat="39.36465778334866" lon="9.296208350920422"><ele>1022.3333333333334</ele><time>2026-04-08T17:02:02Z</time></trkpt><trkpt lat="39.36456723993039" lon="9.296187111999801"><ele>1021.0</ele><time>2026-04-08T17:02:03Z</time></trkpt><trkpt lat="39.36448736857685" lon="9.296170246995635"><ele>1019.6666666666667</ele><time>2026-04-08T17:02:04Z</time></trkpt><trkpt lat="39.36440907712842" lon="9.296152287504352"><ele>1018.3333333333334</ele><time>2026-04-08T17:02:05Z</time></trkpt><trkpt lat="39.36434106732112" lon="9.296138245938707"><ele>1017.0</ele><time>2026-04-08T17:02:06Z</time></trkpt><trkpt lat="39.36427616383357" lon="9.296099071924008"><ele>1017.0</ele><time>2026-04-08T17:02:07Z</time></trkpt><trkpt lat="39.36419611173579" lon="9.296061583953815"><ele>1017.0</ele><time>2026-04-08T17:02:08Z</time></trkpt><trkpt lat="39.36409632704123" lon="9.296013287170265"><ele>1017.0</ele><time>2026-04-08T17:02:09Z</time></trkpt><trkpt lat="39.363985042806235" lon="9.295957544521897"><ele>1017.0</ele><time>2026-04-08T17:02:10Z</time></trkpt><trkpt lat="39.36387196175082" lon="9.29592511819815"><ele>1017.0</ele><time>2026-04-08T17:02:11Z</time></trkpt><trkpt lat="39.36376568067389" lon="9.295870768752097"><ele>1015.0</ele><time>2026-04-08T17:02:12Z</time></trkpt><trkpt lat="39.36367173860333" lon="9.29577969357918"><ele>1013.0</ele><time>2026-04-08T17:02:13Z</time></trkpt><trkpt lat="39.363582806918615" lon="9.295691616923698"><ele>1011.0</ele><time>2026-04-08T17:02:14Z</time></trkpt><trkpt lat="39.363494830579604" lon="9.295599684838777"><ele>1009.0</ele><time>2026-04-08T17:02:15Z</time></trkpt><trkpt lat="39.36340690370379" lon="9.295506561246999"><ele>1006.75</ele><time>2026-04-08T17:02:16Z</time></trkpt><trkpt lat="39.363309284997" lon="9.295431771249596"><ele>1004.5</ele><time>2026-04-08T17:02:17Z</time></trkpt><trkpt lat="39.36321838931906" lon="9.29534649065621"><ele>1002.25</ele><time>2026-04-08T17:02:18Z</time></trkpt><trkpt lat="39.36312606835085" lon="9.29525964406492"><ele>1000.0</ele><time>2026-04-08T17:02:19Z</time></trkpt><trkpt lat="39.36302245129817" lon="9.29519740633556"><ele>1000.0</ele><time>2026-04-08T17:02:20Z</time></trkpt><trkpt lat="39.36291374539258" lon="9.295182890250427"><ele>1000.0</ele><time>2026-04-08T17:02:21Z</time></trkpt><trkpt lat="39.36281415435535" lon="9.295151752527463"><ele>1000.0</ele><time>2026-04-08T17:02:22Z</time></trkpt><trkpt lat="39.362728115306425" lon="9.295097319646178"><ele>1000.0</ele><time>2026-04-08T17:02:23Z</time></trkpt><trkpt lat="39.362682271589144" lon="9.294993136139816"><ele>1000.0</ele><time>2026-04-08T17:02:24Z</time></trkpt><trkpt lat="39.36265563079698" lon="9.29489492272492"><ele>1000.0</ele><time>2026-04-08T17:02:25Z</time></trkpt><trkpt lat="39.36261824599481" lon="9.294801351585123"><ele>1000.0</ele><time>2026-04-08T17:02:26Z</time></trkpt><trkpt lat="39.36257853885005" lon="9.294696855577364"><ele>1000.0</ele><time>2026-04-08T17:02:27Z</time></trkpt><trkpt lat="39.362529157212826" lon="9.294590467916366"><ele>1000.0</ele><time>2026-04-08T17:02:28Z</time></trkpt><trkpt lat="39.3624471578465" lon="9.29451571934061"><ele>1000.0</ele><time>2026-04-08T17:02:29Z</time></trkpt><trkpt lat="39.3623782145385" lon="9.294425450337656"><ele>997.4</ele><time>2026-04-08T17:02:30Z</time></trkpt><trkpt lat="39.362308104748784" lon="9.294335831102199"><ele>994.8</ele><time>2026-04-08T17:02:31Z</time></trkpt><trkpt lat="39.36223755861647" lon="9.294254003688673"><ele>992.2</ele><time>2026-04-08T17:02:32Z</time></trkpt><trkpt lat="39.36216820857079" lon="9.294178716846845"><ele>989.6</ele><time>2026-04-08T17:02:33Z</time></trkpt><trkpt lat="39.36210246089887" lon="9.29410983629214"><ele>987.0</ele><time>2026-04-08T17:02:34Z</time></trkpt><trkpt lat="39.36203859163381" lon="9.294034920546217"><ele>987.0</ele><time>2026-04-08T17:02:35Z</time></trkpt><trkpt lat="39.361968353911365" lon="9.29396534362839"><ele>987.0</ele><time>2026-04-08T17:02:36Z</time></trkpt><trkpt lat="39.36189969605145" lon="9.29389311312465"><ele>987.0</ele><time>2026-04-08T17:02:37Z</time></trkpt><trkpt lat="39.36181453256999" lon="9.293852006756202"><ele>987.0</ele><time>2026-04-08T17:02:38Z</time></trkpt><trkpt lat="39.36171707235919" lon="9.293848891627578"><ele>987.0</ele><time>2026-04-08T17:02:39Z</time></trkpt><trkpt lat="39.36160936376019" lon="9.293854195304222"><ele>984.25</ele><time>2026-04-08T17:02:40Z</time></trkpt><trkpt lat="39.36148938422408" lon="9.293881174917725"><ele>981.5</ele><time>2026-04-08T17:02:41Z</time></trkpt><trkpt lat="39.36135374631184" lon="9.29393132558181"><ele>978.75</ele><time>2026-04-08T17:02:42Z</time></trkpt><trkpt lat="39.36120456516405" lon="9.293971673226016"><ele>976.0</ele><time>2026-04-08T17:02:43Z</time></trkpt><trkpt lat="39.36107268610381" lon="9.293969547996479"><ele>976.0</ele><time>2026-04-08T17:02:44Z</time></trkpt><trkpt lat="39.36094184540725" lon="9.293953361830445"><ele>976.0</ele><time>2026-04-08T17:02:45Z</time></trkpt><trkpt lat="39.360820944258236" lon="9.293930059911775"><ele>976.0</ele><time>2026-04-08T17:02:46Z</time></trkpt><trkpt lat="39.3607063184499" lon="9.293894627534266"><ele>976.0</ele><time>2026-04-08T17:02:47Z</time></trkpt><trkpt lat="39.36059330292001" lon="9.293855196645636"><ele>971.4</ele><time>2026-04-08T17:02:48Z</time></trkpt><trkpt lat="39.360488261463324" lon="9.293813578695405"><ele>966.8</ele><time>2026-04-08T17:02:49Z</time></trkpt><trkpt lat="39.360389605418156" lon="9.293766184735421"><ele>962.1999999999999</ele><time>2026-04-08T17:02:50Z</time></trkpt><trkpt lat="39.36030162706664" lon="9.293713229131138"><ele>957.5999999999999</ele><time>2026-04-08T17:02:51Z</time></trkpt><trkpt lat="39.36023057979482" lon="9.293668666030124"><ele>953.0</ele><time>2026-04-08T17:02:52Z</time></trkpt><trkpt lat="39.360138461909564" lon="9.293688289024162"><ele>953.0000000000001</ele><time>2026-04-08T17:02:53Z</time></trkpt><trkpt lat="39.36006128592468" lon="9.293727894566983"><ele>953.0</ele><time>2026-04-08T17:02:54Z</time></trkpt><trkpt lat="39.35998053380693" lon="9.293765481619035"><ele>953.0</ele><time>2026-04-08T17:02:55Z</time></trkpt><trkpt lat="39.359886577850325" lon="9.293818757765978"><ele>953.0</ele><time>2026-04-08T17:02:56Z</time></trkpt><trkpt lat="39.359804119960465" lon="9.293868171747572"><ele>953.0000000000001</ele><time>2026-04-08T17:02:57Z</time></trkpt><trkpt lat="39.359736474742895" lon="9.293908461322033"><ele>953.0</ele><time>2026-04-08T17:02:58Z</time></trkpt><trkpt lat="39.35962672611029" lon="9.293950936645691"><ele>951.5000000000001</ele><time>2026-04-08T17:03:00Z</time></trkpt><trkpt lat="39.359521055345766" lon="9.293908641712925"><ele>950.0</ele><time>2026-04-08T17:03:02Z</time></trkpt><trkpt lat="39.35946018995502" lon="9.293873072778494"><ele>948.5</ele><time>2026-04-08T17:03:03Z</time></trkpt><trkpt lat="39.35936829138452" lon="9.293830169971864"><ele>947.0</ele><time>2026-04-08T17:03:04Z</time></trkpt><trkpt lat="39.35929715436868" lon="9.293803620964303"><ele>945.5000000000001</ele><time>2026-04-08T17:03:05Z</time></trkpt><trkpt lat="39.35922404447435" lon="9.293779398470612"><ele>944.0</ele><time>2026-04-08T17:03:06Z</time></trkpt><trkpt lat="39.3591415823703" lon="9.293756547542712"><ele>944.0</ele><time>2026-04-08T17:03:07Z</time></trkpt><trkpt lat="39.35907351965747" lon="9.293728930237783"><ele>944.0000000000001</ele><time>2026-04-08T17:03:08Z</time></trkpt><trkpt lat="39.35897400383065" lon="9.293597550514711"><ele>944.0000000000001</ele><time>2026-04-08T17:03:10Z</time></trkpt><trkpt lat="39.35890871207218" lon="9.293494064359091"><ele>944.0</ele><time>2026-04-08T17:03:11Z</time></trkpt><trkpt lat="39.35885240354177" lon="9.293404816420745"><ele>944.0</ele><time>2026-04-08T17:03:12Z</time></trkpt><trkpt lat="39.35879384615898" lon="9.293343754268685"><ele>941.3333333333334</ele><time>2026-04-08T17:03:13Z</time></trkpt><trkpt lat="39.358750631336804" lon="9.293272442482753"><ele>938.6666666666667</ele><time>2026-04-08T17:03:14Z</time></trkpt><trkpt lat="39.35872674234272" lon="9.293195021423365"><ele>936.0</ele><time>2026-04-08T17:03:15Z</time></trkpt><trkpt lat="39.35865532050079" lon="9.29311362136842"><ele>933.3333333333333</ele><time>2026-04-08T17:03:17Z</time></trkpt><trkpt lat="39.35853894885353" lon="9.293135131124759"><ele>930.6666666666666</ele><time>2026-04-08T17:03:19Z</time></trkpt><trkpt lat="39.35848306225602" lon="9.293203413201478"><ele>928.0</ele><time>2026-04-08T17:03:20Z</time></trkpt><trkpt lat="39.3584079125137" lon="9.29330287602854"><ele>927.9999999999999</ele><time>2026-04-08T17:03:21Z</time></trkpt><trkpt lat="39.35833002609765" lon="9.293415537493512"><ele>928.0</ele><time>2026-04-08T17:03:22Z</time></trkpt><trkpt lat="39.35827559371055" lon="9.293525104970943"><ele>928.0</ele><time>2026-04-08T17:03:23Z</time></trkpt><trkpt lat="39.358237985439736" lon="9.293609168015086"><ele>928.0</ele><time>2026-04-08T17:03:24Z</time></trkpt><trkpt lat="39.358204715355406" lon="9.293690318609508"><ele>927.9999999999999</ele><time>2026-04-08T17:03:25Z</time></trkpt><trkpt lat="39.358171590705176" lon="9.293779631972397"><ele>928.0</ele><time>2026-04-08T17:03:26Z</time></trkpt><trkpt lat="39.35814071085424" lon="9.293870690304761"><ele>929.7142857142858</ele><time>2026-04-08T17:03:27Z</time></trkpt><trkpt lat="39.35811020721812" lon="9.293960397191395"><ele>931.4285714285714</ele><time>2026-04-08T17:03:28Z</time></trkpt><trkpt lat="39.358079970772124" lon="9.294048472705073"><ele>933.1428571428571</ele><time>2026-04-08T17:03:29Z</time></trkpt><trkpt lat="39.358053334658386" lon="9.2941260606808"><ele>934.8571428571429</ele><time>2026-04-08T17:03:30Z</time></trkpt><trkpt lat="39.358025786848444" lon="9.29420797150831"><ele>936.5714285714284</ele><time>2026-04-08T17:03:31Z</time></trkpt><trkpt lat="39.35800058900834" lon="9.294297924696618"><ele>938.2857142857142</ele><time>2026-04-08T17:03:32Z</time></trkpt><trkpt lat="39.357980710805286" lon="9.29439958004344"><ele>940.0</ele><time>2026-04-08T17:03:33Z</time></trkpt><trkpt lat="39.35797172759108" lon="9.294492635161015"><ele>937.8571428571428</ele><time>2026-04-08T17:03:34Z</time></trkpt><trkpt lat="39.35797143913356" lon="9.294579776919294"><ele>935.7142857142856</ele><time>2026-04-08T17:03:35Z</time></trkpt><trkpt lat="39.357978011369816" lon="9.294664429227765"><ele>933.5714285714286</ele><time>2026-04-08T17:03:36Z</time></trkpt><trkpt lat="39.35799771665178" lon="9.294762988926808"><ele>931.4285714285713</ele><time>2026-04-08T17:03:37Z</time></trkpt><trkpt lat="39.35804376380745" lon="9.294852405691799"><ele>929.2857142857142</ele><time>2026-04-08T17:03:38Z</time></trkpt><trkpt lat="39.35807960664686" lon="9.294937320215105"><ele>927.1428571428571</ele><time>2026-04-08T17:03:39Z</time></trkpt><trkpt lat="39.35811426679767" lon="9.295008770035366"><ele>925.0</ele><time>2026-04-08T17:03:40Z</time></trkpt><trkpt lat="39.358159555068" lon="9.295077760226402"><ele>925.0</ele><time>2026-04-08T17:03:41Z</time></trkpt><trkpt lat="39.35821649246048" lon="9.295155536299536"><ele>925.0</ele><time>2026-04-08T17:03:42Z</time></trkpt><trkpt lat="39.358254525245414" lon="9.29523828508814"><ele>925.0</ele><time>2026-04-08T17:03:43Z</time></trkpt><trkpt lat="39.358279193200836" lon="9.295342450540046"><ele>925.0</ele><time>2026-04-08T17:03:44Z</time></trkpt><trkpt lat="39.35825694758101" lon="9.295463961582943"><ele>925.0</ele><time>2026-04-08T17:03:45Z</time></trkpt><trkpt lat="39.35825843235602" lon="9.295621793052726"><ele>921.8</ele><time>2026-04-08T17:03:46Z</time></trkpt><trkpt lat="39.35826646831987" lon="9.295793940345241"><ele>918.6</ele><time>2026-04-08T17:03:47Z</time></trkpt><trkpt lat="39.35828210793608" lon="9.295924126339468"><ele>915.4000000000001</ele><time>2026-04-08T17:03:48Z</time></trkpt><trkpt lat="39.3583058502557" lon="9.296022970786755"><ele>912.2</ele><time>2026-04-08T17:03:49Z</time></trkpt><trkpt lat="39.35835709539862" lon="9.296121762128331"><ele>909.0</ele><time>2026-04-08T17:03:50Z</time></trkpt><trkpt lat="39.35841840297893" lon="9.29624269678406"><ele>909.0</ele><time>2026-04-08T17:03:51Z</time></trkpt><trkpt lat="39.358493255858534" lon="9.2963823479379"><ele>909.0000000000001</ele><time>2026-04-08T17:03:52Z</time></trkpt><trkpt lat="39.35854953394642" lon="9.296496900522895"><ele>909.0000000000001</ele><time>2026-04-08T17:03:53Z</time></trkpt><trkpt lat="39.35856144860524" lon="9.296614405572566"><ele>909.0</ele><time>2026-04-08T17:03:54Z</time></trkpt><trkpt lat="39.35857055153692" lon="9.296729534052119"><ele>909.0</ele><time>2026-04-08T17:03:55Z</time></trkpt><trkpt lat="39.358556621795884" lon="9.2968333815514"><ele>906.4000000000001</ele><time>2026-04-08T17:03:56Z</time></trkpt><trkpt lat="39.35853849014865" lon="9.296932928557412"><ele>903.8000000000001</ele><time>2026-04-08T17:03:57Z</time></trkpt><trkpt lat="39.358507472028734" lon="9.29704868794162"><ele>901.1999999999999</ele><time>2026-04-08T17:03:58Z</time></trkpt><trkpt lat="39.35845958807849" lon="9.297187945468073"><ele>898.5999999999999</ele><time>2026-04-08T17:03:59Z</time></trkpt><trkpt lat="39.3584013841765" lon="9.297322600817509"><ele>896.0</ele><time>2026-04-08T17:04:00Z</time></trkpt><trkpt lat="39.3583683761067" lon="9.297452188248881"><ele>893.25</ele><time>2026-04-08T17:04:01Z</time></trkpt><trkpt lat="39.35835170475366" lon="9.297589275887844"><ele>890.5</ele><time>2026-04-08T17:04:02Z</time></trkpt><trkpt lat="39.358314238618924" lon="9.297737278390429"><ele>887.75</ele><time>2026-04-08T17:04:03Z</time></trkpt><trkpt lat="39.35829358395829" lon="9.297900885385195"><ele>885.0</ele><time>2026-04-08T17:04:04Z</time></trkpt><trkpt lat="39.35824484315412" lon="9.298078128346685"><ele>886.1666666666666</ele><time>2026-04-08T17:04:05Z</time></trkpt><trkpt lat="39.35821245769256" lon="9.298236180558087"><ele>887.3333333333333</ele><time>2026-04-08T17:04:06Z</time></trkpt><trkpt lat="39.358187164261714" lon="9.298359622184968"><ele>888.5</ele><time>2026-04-08T17:04:07Z</time></trkpt><trkpt lat="39.35816282852708" lon="9.298453671581917"><ele>889.6666666666666</ele><time>2026-04-08T17:04:08Z</time></trkpt><trkpt lat="39.358143068606644" lon="9.298545034112461"><ele>890.8333333333333</ele><time>2026-04-08T17:04:09Z</time></trkpt><trkpt lat="39.35813044563984" lon="9.298639386727114"><ele>892.0</ele><time>2026-04-08T17:04:10Z</time></trkpt><trkpt lat="39.35815097841358" lon="9.298763249210102"><ele>892.0</ele><time>2026-04-08T17:04:11Z</time></trkpt><trkpt lat="39.35814975980898" lon="9.298895166760433"><ele>892.0</ele><time>2026-04-08T17:04:12Z</time></trkpt><trkpt lat="39.358126610324014" lon="9.299024573065747"><ele>892.0</ele><time>2026-04-08T17:04:13Z</time></trkpt><trkpt lat="39.358104563746764" lon="9.299142501486141"><ele>892.0</ele><time>2026-04-08T17:04:14Z</time></trkpt><trkpt lat="39.358084034998704" lon="9.299257721604567"><ele>892.0</ele><time>2026-04-08T17:04:15Z</time></trkpt><trkpt lat="39.35806005593837" lon="9.299379322521443"><ele>892.6666666666666</ele><time>2026-04-08T17:04:16Z</time></trkpt><trkpt lat="39.35804007235807" lon="9.299480600978658"><ele>893.3333333333333</ele><time>2026-04-08T17:04:17Z</time></trkpt><trkpt lat="39.35801627622106" lon="9.299590991805164"><ele>894.0</ele><time>2026-04-08T17:04:18Z</time></trkpt><trkpt lat="39.35799517249338" lon="9.299695622434077"><ele>894.6666666666667</ele><time>2026-04-08T17:04:19Z</time></trkpt><trkpt lat="39.35798969039379" lon="9.299786783011433"><ele>895.3333333333334</ele><time>2026-04-08T17:04:20Z</time></trkpt><trkpt lat="39.358012460952615" lon="9.2999410833001"><ele>896.0</ele><time>2026-04-08T17:04:22Z</time></trkpt><trkpt lat="39.358062989638285" lon="9.300074289802886"><ele>896.0</ele><time>2026-04-08T17:04:24Z</time></trkpt><trkpt lat="39.358155183536205" lon="9.300195447726663"><ele>895.9999999999999</ele><time>2026-04-08T17:04:26Z</time></trkpt><trkpt lat="39.358238140932706" lon="9.300320328417937"><ele>895.9999999999999</ele><time>2026-04-08T17:04:28Z</time></trkpt><trkpt lat="39.35828239325407" lon="9.300388932677608"><ele>896.0</ele><time>2026-04-08T17:04:29Z</time></trkpt><trkpt lat="39.358323225456246" lon="9.300531833359418"><ele>896.0</ele><time>2026-04-08T17:04:31Z</time></trkpt><trkpt lat="39.35825792396564" lon="9.30067430840541"><ele>895.1999999999999</ele><time>2026-04-08T17:04:33Z</time></trkpt><trkpt lat="39.35822245296576" lon="9.30076986904164"><ele>894.3999999999999</ele><time>2026-04-08T17:04:34Z</time></trkpt><trkpt lat="39.35818205651631" lon="9.300890211022635"><ele>893.6</ele><time>2026-04-08T17:04:35Z</time></trkpt><trkpt lat="39.35815781555435" lon="9.30100779554498"><ele>892.8</ele><time>2026-04-08T17:04:36Z</time></trkpt><trkpt lat="39.35811589012058" lon="9.30112316013487"><ele>892.0</ele><time>2026-04-08T17:04:37Z</time></trkpt><trkpt lat="39.358078235175064" lon="9.301246525972248"><ele>892.0</ele><time>2026-04-08T17:04:38Z</time></trkpt><trkpt lat="39.358039091310054" lon="9.301363870332722"><ele>892.0</ele><time>2026-04-08T17:04:39Z</time></trkpt><trkpt lat="39.358006395266216" lon="9.301468958663634"><ele>892.0</ele><time>2026-04-08T17:04:40Z</time></trkpt><trkpt lat="39.35796741437871" lon="9.30158980095508"><ele>892.0</ele><time>2026-04-08T17:04:41Z</time></trkpt><trkpt lat="39.3579290076213" lon="9.301681362183094"><ele>892.0</ele><time>2026-04-08T17:04:42Z</time></trkpt><trkpt lat="39.35789299398347" lon="9.301783487038723"><ele>891.0</ele><time>2026-04-08T17:04:43Z</time></trkpt><trkpt lat="39.35785108183312" lon="9.301872648853568"><ele>890.0</ele><time>2026-04-08T17:04:44Z</time></trkpt><trkpt lat="39.35781910809987" lon="9.301970853211165"><ele>889.0</ele><time>2026-04-08T17:04:45Z</time></trkpt><trkpt lat="39.35779192811783" lon="9.302079503920114"><ele>888.0</ele><time>2026-04-08T17:04:46Z</time></trkpt><trkpt lat="39.35779439222423" lon="9.302214825139066"><ele>887.0</ele><time>2026-04-08T17:04:47Z</time></trkpt><trkpt lat="39.357788349361066" lon="9.302354378576931"><ele>885.8</ele><time>2026-04-08T17:04:48Z</time></trkpt><trkpt lat="39.357785122839026" lon="9.302477498414323"><ele>884.6</ele><time>2026-04-08T17:04:49Z</time></trkpt><trkpt lat="39.35778351809558" lon="9.302599366016466"><ele>883.3999999999999</ele><time>2026-04-08T17:04:50Z</time></trkpt><trkpt lat="39.35777812667753" lon="9.302714814597456"><ele>882.1999999999999</ele><time>2026-04-08T17:04:51Z</time></trkpt><trkpt lat="39.357764135312706" lon="9.302830692635588"><ele>881.0</ele><time>2026-04-08T17:04:52Z</time></trkpt><trkpt lat="39.357765873494635" lon="9.302944631335457"><ele>881.0</ele><time>2026-04-08T17:04:53Z</time></trkpt><trkpt lat="39.35776349654897" lon="9.303054145356707"><ele>880.9999999999999</ele><time>2026-04-08T17:04:54Z</time></trkpt><trkpt lat="39.357767083594275" lon="9.303175633919267"><ele>880.9999999999999</ele><time>2026-04-08T17:04:55Z</time></trkpt><trkpt lat="39.357759871716645" lon="9.303298558518653"><ele>881.0</ele><time>2026-04-08T17:04:56Z</time></trkpt><trkpt lat="39.35774159370269" lon="9.3034134641093"><ele>881.0</ele><time>2026-04-08T17:04:57Z</time></trkpt><trkpt lat="39.357723151782935" lon="9.303535370327753"><ele>880.5000000000001</ele><time>2026-04-08T17:04:58Z</time></trkpt><trkpt lat="39.35770236694785" lon="9.303631852841317"><ele>880.0</ele><time>2026-04-08T17:04:59Z</time></trkpt><trkpt lat="39.35768909566399" lon="9.303749110013955"><ele>879.5</ele><time>2026-04-08T17:05:00Z</time></trkpt><trkpt lat="39.35766419130796" lon="9.303843864353457"><ele>879.0</ele><time>2026-04-08T17:05:01Z</time></trkpt><trkpt lat="39.35765866278614" lon="9.303938525851178"><ele>878.5000000000001</ele><time>2026-04-08T17:05:02Z</time></trkpt><trkpt lat="39.357663367287216" lon="9.30403310982851"><ele>878.0</ele><time>2026-04-08T17:05:03Z</time></trkpt><trkpt lat="39.357662330296556" lon="9.304140577460137"><ele>876.5000000000001</ele><time>2026-04-08T17:05:04Z</time></trkpt><trkpt lat="39.35766475906493" lon="9.304252079719369"><ele>875.0</ele><time>2026-04-08T17:05:05Z</time></trkpt><trkpt lat="39.357652441868254" lon="9.30436882391349"><ele>873.5</ele><time>2026-04-08T17:05:06Z</time></trkpt><trkpt lat="39.35765279976378" lon="9.304482048762244"><ele>872.0</ele><time>2026-04-08T17:05:07Z</time></trkpt><trkpt lat="39.35764421528731" lon="9.304592052416266"><ele>870.5000000000001</ele><time>2026-04-08T17:05:08Z</time></trkpt><trkpt lat="39.35763966070905" lon="9.304710642871184"><ele>869.0</ele><time>2026-04-08T17:05:09Z</time></trkpt><trkpt lat="39.357639529456485" lon="9.30483825677444"><ele>865.8000000000001</ele><time>2026-04-08T17:05:10Z</time></trkpt><trkpt lat="39.357640456797036" lon="9.304958940329138"><ele>862.6000000000001</ele><time>2026-04-08T17:05:11Z</time></trkpt><trkpt lat="39.357642853296326" lon="9.305085652739695"><ele>859.4</ele><time>2026-04-08T17:05:12Z</time></trkpt><trkpt lat="39.35764777438888" lon="9.305197854641701"><ele>856.2</ele><time>2026-04-08T17:05:13Z</time></trkpt><trkpt lat="39.35764913348659" lon="9.305307972870308"><ele>853.0</ele><time>2026-04-08T17:05:14Z</time></trkpt><trkpt lat="39.35764684067561" lon="9.305423024301403"><ele>853.0</ele><time>2026-04-08T17:05:15Z</time></trkpt><trkpt lat="39.35764692737288" lon="9.305559574483864"><ele>853.0</ele><time>2026-04-08T17:05:16Z</time></trkpt><trkpt lat="39.35763917693504" lon="9.305683975346852"><ele>853.0</ele><time>2026-04-08T17:05:17Z</time></trkpt><trkpt lat="39.35761235628586" lon="9.30580444528354"><ele>853.0</ele><time>2026-04-08T17:05:18Z</time></trkpt><trkpt lat="39.357594032516715" lon="9.305917265928679"><ele>853.0</ele><time>2026-04-08T17:05:19Z</time></trkpt><trkpt lat="39.35757646795007" lon="9.30601640242016"><ele>850.8333333333333</ele><time>2026-04-08T17:05:20Z</time></trkpt><trkpt lat="39.35755841308893" lon="9.30611559494428"><ele>848.6666666666666</ele><time>2026-04-08T17:05:20.999Z</time></trkpt><trkpt lat="39.357523730408474" lon="9.306259697755882"><ele>846.5</ele><time>2026-04-08T17:05:22.999Z</time></trkpt><trkpt lat="39.35750535765345" lon="9.306371376570448"><ele>844.3333333333333</ele><time>2026-04-08T17:05:24.999Z</time></trkpt><trkpt lat="39.35751430540251" lon="9.30646750991774"><ele>842.1666666666666</ele><time>2026-04-08T17:05:28Z</time></trkpt><trkpt lat="39.357527962738104" lon="9.306558047550146"><ele>840.0</ele><time>2026-04-08T17:09:24Z</time></trkpt><trkpt lat="39.35755056268035" lon="9.306664627786553"><ele>838.0</ele><time>2026-04-08T17:09:27Z</time></trkpt><trkpt lat="39.35756005374585" lon="9.306822245445638"><ele>836.0</ele><time>2026-04-08T17:09:29Z</time></trkpt><trkpt lat="39.3575661930061" lon="9.306909391264261"><ele>834.0</ele><time>2026-04-08T17:09:30Z</time></trkpt><trkpt lat="39.357584883095704" lon="9.307012690923955"><ele>832.0</ele><time>2026-04-08T17:09:31Z</time></trkpt><trkpt lat="39.35760452424886" lon="9.30710935305895"><ele>830.0</ele><time>2026-04-08T17:09:32Z</time></trkpt><trkpt lat="39.35762966287435" lon="9.307207558279625"><ele>828.0</ele><time>2026-04-08T17:09:33Z</time></trkpt><trkpt lat="39.35766550631477" lon="9.307299666522862"><ele>827.0</ele><time>2026-04-08T17:09:34Z</time></trkpt><trkpt lat="39.357693175741666" lon="9.307385742330453"><ele>826.0</ele><time>2026-04-08T17:09:35Z</time></trkpt><trkpt lat="39.35772171889735" lon="9.307468965182494"><ele>825.0</ele><time>2026-04-08T17:09:36Z</time></trkpt><trkpt lat="39.35771857173127" lon="9.307568822353092"><ele>824.0</ele><time>2026-04-08T17:09:37Z</time></trkpt><trkpt lat="39.357715868759115" lon="9.307660200741012"><ele>823.0</ele><time>2026-04-08T17:09:38Z</time></trkpt><trkpt lat="39.357715874084924" lon="9.307772619802005"><ele>822.0</ele><time>2026-04-08T17:09:39Z</time></trkpt><trkpt lat="39.3577243521098" lon="9.307866866404467"><ele>822.0</ele><time>2026-04-08T17:09:40Z</time></trkpt><trkpt lat="39.35775234764184" lon="9.307950569290218"><ele>822.0</ele><time>2026-04-08T17:09:41Z</time></trkpt><trkpt lat="39.357768585857904" lon="9.308032061240528"><ele>822.0</ele><time>2026-04-08T17:09:42Z</time></trkpt><trkpt lat="39.35778358405955" lon="9.308113780628858"><ele>822.0</ele><time>2026-04-08T17:09:43Z</time></trkpt><trkpt lat="39.357807662694505" lon="9.308225815935419"><ele>822.0</ele><time>2026-04-08T17:09:44Z</time></trkpt><trkpt lat="39.35784533241072" lon="9.308372002439702"><ele>822.0</ele><time>2026-04-08T17:09:45Z</time></trkpt><trkpt lat="39.35786611186992" lon="9.308503675554496"><ele>821.8</ele><time>2026-04-08T17:09:46Z</time></trkpt><trkpt lat="39.357911999683196" lon="9.30860816813464"><ele>821.6</ele><time>2026-04-08T17:09:47Z</time></trkpt><trkpt lat="39.35793899176389" lon="9.308698304951895"><ele>821.4</ele><time>2026-04-08T17:09:48Z</time></trkpt><trkpt lat="39.35797633225452" lon="9.308770119306054"><ele>821.1999999999999</ele><time>2026-04-08T17:09:49Z</time></trkpt><trkpt lat="39.35804922352356" lon="9.308900066044052"><ele>821.0</ele><time>2026-04-08T17:09:51Z</time></trkpt><trkpt lat="39.35811363860364" lon="9.309036595667333"><ele>822.5999999999999</ele><time>2026-04-08T17:09:53Z</time></trkpt><trkpt lat="39.358150114148515" lon="9.309111318812505"><ele>824.2</ele><time>2026-04-08T17:09:54Z</time></trkpt><trkpt lat="39.358186267476896" lon="9.309187370674469"><ele>825.8</ele><time>2026-04-08T17:09:55Z</time></trkpt><trkpt lat="39.35823378704665" lon="9.309308839672495"><ele>827.4000000000001</ele><time>2026-04-08T17:09:57Z</time></trkpt><trkpt lat="39.35830384479761" lon="9.309417476539167"><ele>829.0</ele><time>2026-04-08T17:09:59Z</time></trkpt><trkpt lat="39.35839114415448" lon="9.309509380163945"><ele>828.9999999999999</ele><time>2026-04-08T17:10:01Z</time></trkpt><trkpt lat="39.35849825621862" lon="9.309608375335932"><ele>829.0</ele><time>2026-04-08T17:10:03Z</time></trkpt><trkpt lat="39.35854190433153" lon="9.309685414952328"><ele>829.0</ele><time>2026-04-08T17:10:04Z</time></trkpt><trkpt lat="39.35855949060939" lon="9.309764170612345"><ele>829.0</ele><time>2026-04-08T17:10:05Z</time></trkpt><trkpt lat="39.3585874672534" lon="9.309854257405789"><ele>828.9999999999999</ele><time>2026-04-08T17:10:06Z</time></trkpt><trkpt lat="39.35862624690045" lon="9.309956529386762"><ele>829.0</ele><time>2026-04-08T17:10:07Z</time></trkpt><trkpt lat="39.3586665948057" lon="9.31005403760145"><ele>827.5</ele><time>2026-04-08T17:10:08Z</time></trkpt><trkpt lat="39.358730471638346" lon="9.310205876951976"><ele>826.0</ele><time>2026-04-08T17:10:09Z</time></trkpt><trkpt lat="39.358793762456756" lon="9.310358404159981"><ele>824.5</ele><time>2026-04-08T17:10:10Z</time></trkpt><trkpt lat="39.35884517166698" lon="9.310481131922552"><ele>823.0</ele><time>2026-04-08T17:10:11Z</time></trkpt><trkpt lat="39.35888492286098" lon="9.310591446312378"><ele>821.4</ele><time>2026-04-08T17:10:12Z</time></trkpt><trkpt lat="39.35892013106059" lon="9.310687258363197"><ele>819.8</ele><time>2026-04-08T17:10:13Z</time></trkpt><trkpt lat="39.358947776980514" lon="9.31078259215744"><ele>818.2</ele><time>2026-04-08T17:10:14Z</time></trkpt><trkpt lat="39.35896206183103" lon="9.310893909605507"><ele>816.6</ele><time>2026-04-08T17:10:15Z</time></trkpt><trkpt lat="39.358937938835886" lon="9.311054897624523"><ele>815.0</ele><time>2026-04-08T17:10:16Z</time></trkpt><trkpt lat="39.358943202794116" lon="9.311198717077751"><ele>815.0</ele><time>2026-04-08T17:10:17Z</time></trkpt><trkpt lat="39.35897957285263" lon="9.3112978295187"><ele>815.0</ele><time>2026-04-08T17:10:18Z</time></trkpt><trkpt lat="39.359005646991754" lon="9.31138432768257"><ele>815.0</ele><time>2026-04-08T17:10:19Z</time></trkpt><trkpt lat="39.359020237377386" lon="9.311498762162103"><ele>815.0</ele><time>2026-04-08T17:10:20Z</time></trkpt><trkpt lat="39.35903147735538" lon="9.311611751723534"><ele>815.0</ele><time>2026-04-08T17:10:21Z</time></trkpt><trkpt lat="39.359048153600845" lon="9.31178859783968"><ele>813.6</ele><time>2026-04-08T17:10:23Z</time></trkpt><trkpt lat="39.35907272715955" lon="9.311945304359266"><ele>812.2</ele><time>2026-04-08T17:10:24Z</time></trkpt><trkpt lat="39.359121001974934" lon="9.31208188999315"><ele>810.8</ele><time>2026-04-08T17:10:25Z</time></trkpt><trkpt lat="39.359168368472226" lon="9.312195565627992"><ele>809.4</ele><time>2026-04-08T17:10:26Z</time></trkpt><trkpt lat="39.359217462631996" lon="9.312275328035"><ele>808.0</ele><time>2026-04-08T17:10:27Z</time></trkpt><trkpt lat="39.359281959159865" lon="9.312403457960366"><ele>806.6666666666666</ele><time>2026-04-08T17:10:29Z</time></trkpt><trkpt lat="39.35932712061575" lon="9.312485669215897"><ele>805.3333333333333</ele><time>2026-04-08T17:10:30Z</time></trkpt><trkpt lat="39.35937938561982" lon="9.312577543836229"><ele>804.0</ele><time>2026-04-08T17:10:31Z</time></trkpt><trkpt lat="39.35943983490806" lon="9.312708887162803"><ele>802.6666666666667</ele><time>2026-04-08T17:10:33Z</time></trkpt><trkpt lat="39.35947450645779" lon="9.312800675772413"><ele>801.3333333333334</ele><time>2026-04-08T17:10:34Z</time></trkpt><trkpt lat="39.35950356293768" lon="9.312893720568022"><ele>800.0</ele><time>2026-04-08T17:10:35Z</time></trkpt><trkpt lat="39.35953695538407" lon="9.312997807433904"><ele>800.0000000000001</ele><time>2026-04-08T17:10:36Z</time></trkpt><trkpt lat="39.35958328609252" lon="9.313065552938616"><ele>800.0</ele><time>2026-04-08T17:10:37Z</time></trkpt><trkpt lat="39.359609796537455" lon="9.31315067634775"><ele>800.0</ele><time>2026-04-08T17:10:38Z</time></trkpt><trkpt lat="39.35963995534834" lon="9.313224706164783"><ele>800.0</ele><time>2026-04-08T17:10:39Z</time></trkpt><trkpt lat="39.35966097834109" lon="9.31334016294901"><ele>800.0000000000001</ele><time>2026-04-08T17:10:40Z</time></trkpt><trkpt lat="39.359629489899476" lon="9.31350363867137"><ele>800.0</ele><time>2026-04-08T17:10:41Z</time></trkpt><trkpt lat="39.359616035114826" lon="9.313702671215596"><ele>796.4</ele><time>2026-04-08T17:10:42Z</time></trkpt><trkpt lat="39.35960008573629" lon="9.313867268901916"><ele>792.8</ele><time>2026-04-08T17:10:43Z</time></trkpt><trkpt lat="39.35958566241748" lon="9.313982565113632"><ele>789.2</ele><time>2026-04-08T17:10:44Z</time></trkpt><trkpt lat="39.359557823401104" lon="9.314120165023578"><ele>785.6</ele><time>2026-04-08T17:10:45Z</time></trkpt><trkpt lat="39.35952516973676" lon="9.31426280180177"><ele>782.0</ele><time>2026-04-08T17:10:46Z</time></trkpt><trkpt lat="39.35948083559736" lon="9.31442024385724"><ele>782.0</ele><time>2026-04-08T17:10:47Z</time></trkpt><trkpt lat="39.359441426779604" lon="9.314572960947919"><ele>782.0</ele><time>2026-04-08T17:10:48Z</time></trkpt><trkpt lat="39.35943231477297" lon="9.314720043160062"><ele>782.0</ele><time>2026-04-08T17:10:49Z</time></trkpt><trkpt lat="39.35941287271248" lon="9.314851580758367"><ele>782.0</ele><time>2026-04-08T17:10:50Z</time></trkpt><trkpt lat="39.359406613040754" lon="9.31496826651236"><ele>782.0</ele><time>2026-04-08T17:10:51Z</time></trkpt><trkpt lat="39.35942312114882" lon="9.315077112756567"><ele>782.0000000000001</ele><time>2026-04-08T17:10:52Z</time></trkpt><trkpt lat="39.359435133410265" lon="9.315181908961256"><ele>782.0</ele><time>2026-04-08T17:10:53Z</time></trkpt><trkpt lat="39.35951849608546" lon="9.315248294711145"><ele>782.0</ele><time>2026-04-08T17:10:55Z</time></trkpt><trkpt lat="39.359594660081456" lon="9.31528631490603"><ele>782.0</ele><time>2026-04-08T17:10:56Z</time></trkpt><trkpt lat="39.35967369740381" lon="9.315317918327597"><ele>782.0000000000001</ele><time>2026-04-08T17:10:57Z</time></trkpt><trkpt lat="39.35971504678395" lon="9.315425058720143"><ele>782.0</ele><time>2026-04-08T17:10:59Z</time></trkpt><trkpt lat="39.35966532739658" lon="9.315584013004388"><ele>784.5</ele><time>2026-04-08T17:11:01Z</time></trkpt><trkpt lat="39.35961702746741" lon="9.31570318484639"><ele>787.0</ele><time>2026-04-08T17:11:02Z</time></trkpt><trkpt lat="39.35958053354941" lon="9.315849089493097"><ele>789.5</ele><time>2026-04-08T17:11:03Z</time></trkpt><trkpt lat="39.35952727203581" lon="9.316000811398219"><ele>792.0</ele><time>2026-04-08T17:11:04Z</time></trkpt><trkpt lat="39.359479219445056" lon="9.316161588851138"><ele>792.0</ele><time>2026-04-08T17:11:05Z</time></trkpt><trkpt lat="39.35942125179306" lon="9.316360598201607"><ele>792.0</ele><time>2026-04-08T17:11:06Z</time></trkpt><trkpt lat="39.359394840208665" lon="9.316505132035738"><ele>792.0</ele><time>2026-04-08T17:11:07Z</time></trkpt><trkpt lat="39.35937578643631" lon="9.31663357852011"><ele>792.0</ele><time>2026-04-08T17:11:08Z</time></trkpt><trkpt lat="39.35936178963555" lon="9.316774098157671"><ele>792.75</ele><time>2026-04-08T17:11:09Z</time></trkpt><trkpt lat="39.35935723939945" lon="9.316931184410265"><ele>793.5</ele><time>2026-04-08T17:11:10Z</time></trkpt><trkpt lat="39.359369907478964" lon="9.317104050257797"><ele>794.25</ele><time>2026-04-08T17:11:11Z</time></trkpt><trkpt lat="39.35937136027156" lon="9.317294079760346"><ele>795.0</ele><time>2026-04-08T17:11:12Z</time></trkpt><trkpt lat="39.359379008867926" lon="9.317486682749985"><ele>792.0</ele><time>2026-04-08T17:11:13Z</time></trkpt><trkpt lat="39.35938070047573" lon="9.317657348016002"><ele>789.0</ele><time>2026-04-08T17:11:14Z</time></trkpt><trkpt lat="39.35938275192237" lon="9.317823545130036"><ele>786.0</ele><time>2026-04-08T17:11:15Z</time></trkpt><trkpt lat="39.3593867362663" lon="9.317979321228123"><ele>783.0</ele><time>2026-04-08T17:11:16Z</time></trkpt><trkpt lat="39.35940014817083" lon="9.318119604553639"><ele>780.75</ele><time>2026-04-08T17:11:17Z</time></trkpt><trkpt lat="39.3594166984244" lon="9.318289097294533"><ele>778.5</ele><time>2026-04-08T17:11:18Z</time></trkpt><trkpt lat="39.35943612056496" lon="9.318449767403159"><ele>776.25</ele><time>2026-04-08T17:11:19Z</time></trkpt><trkpt lat="39.35946048151231" lon="9.318590112955123"><ele>774.0</ele><time>2026-04-08T17:11:20Z</time></trkpt><trkpt lat="39.35950290651196" lon="9.318726469034424"><ele>774.0</ele><time>2026-04-08T17:11:21Z</time></trkpt><trkpt lat="39.35954574090796" lon="9.318849494671388"><ele>774.0</ele><time>2026-04-08T17:11:22Z</time></trkpt><trkpt lat="39.35959253881977" lon="9.318962078356066"><ele>774.0</ele><time>2026-04-08T17:11:23Z</time></trkpt><trkpt lat="39.35965233296642" lon="9.319063631808296"><ele>774.0</ele><time>2026-04-08T17:11:24Z</time></trkpt><trkpt lat="39.359732998900235" lon="9.319190048962161"><ele>774.0</ele><time>2026-04-08T17:11:25Z</time></trkpt><trkpt lat="39.359807990421594" lon="9.319302837307024"><ele>771.75</ele><time>2026-04-08T17:11:26Z</time></trkpt><trkpt lat="39.359876336089535" lon="9.319411036691598"><ele>769.5</ele><time>2026-04-08T17:11:27Z</time></trkpt><trkpt lat="39.35994935437167" lon="9.31952792595008"><ele>767.25</ele><time>2026-04-08T17:11:28Z</time></trkpt><trkpt lat="39.360020500854155" lon="9.319667140906732"><ele>765.0</ele><time>2026-04-08T17:11:29Z</time></trkpt><trkpt lat="39.36008870329938" lon="9.319794399488744"><ele>765.0</ele><time>2026-04-08T17:11:30Z</time></trkpt><trkpt lat="39.360149701420035" lon="9.319920132054845"><ele>765.0</ele><time>2026-04-08T17:11:31Z</time></trkpt><trkpt lat="39.36020343094955" lon="9.320055044789806"><ele>765.0</ele><time>2026-04-08T17:11:32Z</time></trkpt><trkpt lat="39.36024879089953" lon="9.320196879767098"><ele>765.0</ele><time>2026-04-08T17:11:33Z</time></trkpt><trkpt lat="39.36028602429162" lon="9.320339440992667"><ele>765.0</ele><time>2026-04-08T17:11:34Z</time></trkpt><trkpt lat="39.360316088274374" lon="9.32048813624909"><ele>765.0</ele><time>2026-04-08T17:11:35Z</time></trkpt><trkpt lat="39.36033246887644" lon="9.320627134426939"><ele>765.0</ele><time>2026-04-08T17:11:36Z</time></trkpt><trkpt lat="39.36033337881306" lon="9.320752821630496"><ele>765.0</ele><time>2026-04-08T17:11:37Z</time></trkpt><trkpt lat="39.36031250104313" lon="9.320865430412576"><ele>765.0</ele><time>2026-04-08T17:11:38Z</time></trkpt><trkpt lat="39.36029805394145" lon="9.320980522368837"><ele>765.6</ele><time>2026-04-08T17:11:39Z</time></trkpt><trkpt lat="39.36027767050329" lon="9.32108420113384"><ele>766.2</ele><time>2026-04-08T17:11:40Z</time></trkpt><trkpt lat="39.36025768952347" lon="9.321185922355797"><ele>766.8</ele><time>2026-04-08T17:11:41Z</time></trkpt><trkpt lat="39.360231418838644" lon="9.321298077210818"><ele>767.4</ele><time>2026-04-08T17:11:42Z</time></trkpt><trkpt lat="39.360200777034756" lon="9.321426660086416"><ele>768.0</ele><time>2026-04-08T17:11:43Z</time></trkpt><trkpt lat="39.360171495304996" lon="9.321555649946053"><ele>766.5999999999999</ele><time>2026-04-08T17:11:44Z</time></trkpt><trkpt lat="39.36014272015129" lon="9.321683720816267"><ele>765.1999999999999</ele><time>2026-04-08T17:11:45Z</time></trkpt><trkpt lat="39.36013349676186" lon="9.32180139028154"><ele>763.8</ele><time>2026-04-08T17:11:46Z</time></trkpt><trkpt lat="39.360161731747546" lon="9.321927339095392"><ele>762.4</ele><time>2026-04-08T17:11:47Z</time></trkpt><trkpt lat="39.36018700108371" lon="9.32203702563002"><ele>761.0</ele><time>2026-04-08T17:11:48Z</time></trkpt><trkpt lat="39.36023627503666" lon="9.322151581783777"><ele>760.5999999999999</ele><time>2026-04-08T17:11:49Z</time></trkpt><trkpt lat="39.36028980822909" lon="9.322273368712555"><ele>760.2</ele><time>2026-04-08T17:11:50Z</time></trkpt><trkpt lat="39.36031798132662" lon="9.322401112536598"><ele>759.8</ele><time>2026-04-08T17:11:51Z</time></trkpt><trkpt lat="39.360333025245744" lon="9.322502722303149"><ele>759.4000000000001</ele><time>2026-04-08T17:11:52Z</time></trkpt><trkpt lat="39.360337786885495" lon="9.32260929279609"><ele>759.0</ele><time>2026-04-08T17:11:53Z</time></trkpt><trkpt lat="39.36032959880446" lon="9.322746987082308"><ele>759.0</ele><time>2026-04-08T17:11:54Z</time></trkpt><trkpt lat="39.360301994017384" lon="9.322892943068071"><ele>759.0</ele><time>2026-04-08T17:11:55Z</time></trkpt><trkpt lat="39.360259839668885" lon="9.323037838884366"><ele>759.0</ele><time>2026-04-08T17:11:56Z</time></trkpt><trkpt lat="39.36021281363191" lon="9.323153562202213"><ele>759.0</ele><time>2026-04-08T17:11:57Z</time></trkpt><trkpt lat="39.360155452295714" lon="9.32325541724423"><ele>759.0</ele><time>2026-04-08T17:11:58Z</time></trkpt><trkpt lat="39.360094042985466" lon="9.323351073536967"><ele>758.6</ele><time>2026-04-08T17:11:59Z</time></trkpt><trkpt lat="39.36002551002475" lon="9.323439430001233"><ele>758.2</ele><time>2026-04-08T17:12:00Z</time></trkpt><trkpt lat="39.35994919924642" lon="9.323538142068818"><ele>757.8000000000001</ele><time>2026-04-08T17:12:01Z</time></trkpt><trkpt lat="39.35987749313145" lon="9.323629793762711"><ele>757.4000000000001</ele><time>2026-04-08T17:12:02Z</time></trkpt><trkpt lat="39.35980339654486" lon="9.323712170906107"><ele>757.0</ele><time>2026-04-08T17:12:03Z</time></trkpt><trkpt lat="39.359726360173404" lon="9.323775159633604"><ele>758.4000000000001</ele><time>2026-04-08T17:12:04Z</time></trkpt><trkpt lat="39.35965604776912" lon="9.323839918936486"><ele>759.8000000000001</ele><time>2026-04-08T17:12:05Z</time></trkpt><trkpt lat="39.35958860236502" lon="9.323922685538095"><ele>761.2</ele><time>2026-04-08T17:12:06Z</time></trkpt><trkpt lat="39.35955944998339" lon="9.324049364635565"><ele>762.6</ele><time>2026-04-08T17:12:07Z</time></trkpt><trkpt lat="39.35952460241246" lon="9.32421382993263"><ele>764.0</ele><time>2026-04-08T17:12:08Z</time></trkpt><trkpt lat="39.35949572464637" lon="9.324363155421656"><ele>764.0</ele><time>2026-04-08T17:12:09Z</time></trkpt><trkpt lat="39.35945148976693" lon="9.324503343162197"><ele>764.0</ele><time>2026-04-08T17:12:10Z</time></trkpt><trkpt lat="39.35937140413107" lon="9.324636819801052"><ele>764.0</ele><time>2026-04-08T17:12:11Z</time></trkpt><trkpt lat="39.35930610883332" lon="9.324788211349263"><ele>764.0</ele><time>2026-04-08T17:12:12Z</time></trkpt><trkpt lat="39.35920566726066" lon="9.324873837538894"><ele>762.4000000000001</ele><time>2026-04-08T17:12:13Z</time></trkpt><trkpt lat="39.359138440564685" lon="9.324969095240041"><ele>760.8</ele><time>2026-04-08T17:12:14Z</time></trkpt><trkpt lat="39.359098301704776" lon="9.325060336609198"><ele>759.2</ele><time>2026-04-08T17:12:15Z</time></trkpt><trkpt lat="39.359091819665025" lon="9.325170715393313"><ele>757.5999999999999</ele><time>2026-04-08T17:12:16Z</time></trkpt><trkpt lat="39.35912284176839" lon="9.325293562368397"><ele>756.0</ele><time>2026-04-08T17:12:17Z</time></trkpt><trkpt lat="39.35914950484795" lon="9.325405595869562"><ele>756.0</ele><time>2026-04-08T17:12:18Z</time></trkpt><trkpt lat="39.35918197554604" lon="9.32553978959528"><ele>756.0</ele><time>2026-04-08T17:12:19Z</time></trkpt><trkpt lat="39.35920174782829" lon="9.325671583174799"><ele>756.0</ele><time>2026-04-08T17:12:20Z</time></trkpt><trkpt lat="39.359175649498425" lon="9.325788932350221"><ele>756.0</ele><time>2026-04-08T17:12:21Z</time></trkpt><trkpt lat="39.35915142800469" lon="9.325933638001281"><ele>756.0</ele><time>2026-04-08T17:12:22Z</time></trkpt><trkpt lat="39.359132772616086" lon="9.326086002343851"><ele>756.0</ele><time>2026-04-08T17:12:23Z</time></trkpt><trkpt lat="39.359095873254184" lon="9.326226895504815"><ele>756.0</ele><time>2026-04-08T17:12:24Z</time></trkpt><trkpt lat="39.35907536923095" lon="9.326359821284324"><ele>756.0</ele><time>2026-04-08T17:12:25Z</time></trkpt><trkpt lat="39.35904976469681" lon="9.326486135180104"><ele>756.0</ele><time>2026-04-08T17:12:26Z</time></trkpt><trkpt lat="39.359022411146974" lon="9.326600328121884"><ele>756.0</ele><time>2026-04-08T17:12:27Z</time></trkpt><trkpt lat="39.358989639864596" lon="9.326707917218963"><ele>755.0</ele><time>2026-04-08T17:12:28Z</time></trkpt><trkpt lat="39.35896373925527" lon="9.326802621431233"><ele>754.0</ele><time>2026-04-08T17:12:29Z</time></trkpt><trkpt lat="39.3589120982925" lon="9.326869265404785"><ele>753.0</ele><time>2026-04-08T17:12:30Z</time></trkpt><trkpt lat="39.35880940930474" lon="9.326982549204248"><ele>752.0</ele><time>2026-04-08T17:12:32Z</time></trkpt><trkpt lat="39.35875611542989" lon="9.327063163260968"><ele>751.0</ele><time>2026-04-08T17:12:33Z</time></trkpt><trkpt lat="39.3587174095877" lon="9.32714888644084"><ele>750.0</ele><time>2026-04-08T17:12:34Z</time></trkpt><trkpt lat="39.35869735723619" lon="9.327247666712065"><ele>747.5</ele><time>2026-04-08T17:12:35Z</time></trkpt><trkpt lat="39.35868333235991" lon="9.327345341835734"><ele>745.0</ele><time>2026-04-08T17:12:36Z</time></trkpt><trkpt lat="39.35867695814168" lon="9.32745388860925"><ele>742.5</ele><time>2026-04-08T17:12:37Z</time></trkpt><trkpt lat="39.35867168781271" lon="9.327575249909051"><ele>740.0</ele><time>2026-04-08T17:12:38Z</time></trkpt><trkpt lat="39.35867442794764" lon="9.327672387846368"><ele>737.5</ele><time>2026-04-08T17:12:39Z</time></trkpt><trkpt lat="39.35869040142448" lon="9.327754436123367"><ele>735.0</ele><time>2026-04-08T17:12:40Z</time></trkpt><trkpt lat="39.358741653322355" lon="9.32780366496051"><ele>735.0</ele><time>2026-04-08T17:12:41Z</time></trkpt><trkpt lat="39.35878938508859" lon="9.327888680042793"><ele>735.0</ele><time>2026-04-08T17:12:43Z</time></trkpt><trkpt lat="39.35877246416281" lon="9.327975484818719"><ele>735.0</ele><time>2026-04-08T17:12:46Z</time></trkpt><trkpt lat="39.35870778766833" lon="9.327966654335482"><ele>735.0</ele><time>2026-04-08T17:12:48Z</time></trkpt><trkpt lat="39.358629690525596" lon="9.32786247616258"><ele>735.0</ele><time>2026-04-08T17:12:50Z</time></trkpt><trkpt lat="39.35857770863731" lon="9.327782342754158"><ele>735.0</ele><time>2026-04-08T17:12:51Z</time></trkpt><trkpt lat="39.35852287848021" lon="9.327685499878621"><ele>735.0</ele><time>2026-04-08T17:12:52Z</time></trkpt><trkpt lat="39.358468647177894" lon="9.327626394093906"><ele>735.0</ele><time>2026-04-08T17:12:53Z</time></trkpt><trkpt lat="39.35840590179173" lon="9.327505258375428"><ele>735.0</ele><time>2026-04-08T17:12:55Z</time></trkpt><trkpt lat="39.35832743445845" lon="9.327462713553688"><ele>735.0</ele><time>2026-04-08T17:12:57Z</time></trkpt><trkpt lat="39.35822974489753" lon="9.327552542620252"><ele>735.0</ele><time>2026-04-08T17:12:59Z</time></trkpt><trkpt lat="39.35823063006991" lon="9.327660668517607"><ele>735.0</ele><time>2026-04-08T17:13:00Z</time></trkpt><trkpt lat="39.358251587186984" lon="9.327773072112029"><ele>735.0</ele><time>2026-04-08T17:13:01Z</time></trkpt><trkpt lat="39.35823293390915" lon="9.327880905730812"><ele>735.0</ele><time>2026-04-08T17:13:02Z</time></trkpt><trkpt lat="39.358222453738215" lon="9.327997645008006"><ele>735.0</ele><time>2026-04-08T17:13:03Z</time></trkpt><trkpt lat="39.358206270396906" lon="9.328101848748732"><ele>735.0</ele><time>2026-04-08T17:13:04Z</time></trkpt><trkpt lat="39.35815664269885" lon="9.3282428422261"><ele>734.6</ele><time>2026-04-08T17:13:06Z</time></trkpt><trkpt lat="39.35812512558821" lon="9.328327381164668"><ele>734.2</ele><time>2026-04-08T17:13:07Z</time></trkpt><trkpt lat="39.35808619486604" lon="9.328432401294531"><ele>733.8</ele><time>2026-04-08T17:13:08Z</time></trkpt><trkpt lat="39.35803629536201" lon="9.32855098396912"><ele>733.4</ele><time>2026-04-08T17:13:09Z</time></trkpt><trkpt lat="39.35798904082007" lon="9.32867513948177"><ele>733.0</ele><time>2026-04-08T17:13:10Z</time></trkpt><trkpt lat="39.35794210809091" lon="9.328769848557583"><ele>733.0</ele><time>2026-04-08T17:13:11Z</time></trkpt><trkpt lat="39.35789818089613" lon="9.328849380268306"><ele>733.0</ele><time>2026-04-08T17:13:12Z</time></trkpt><trkpt lat="39.35784227049904" lon="9.328931757317088"><ele>733.0</ele><time>2026-04-08T17:13:13Z</time></trkpt><trkpt lat="39.357752001735506" lon="9.329008564945932"><ele>733.0</ele><time>2026-04-08T17:13:14Z</time></trkpt><trkpt lat="39.357673987532046" lon="9.329072403197674"><ele>733.0</ele><time>2026-04-08T17:13:15Z</time></trkpt><trkpt lat="39.3575842362798" lon="9.329123229464253"><ele>729.8333333333334</ele><time>2026-04-08T17:13:16Z</time></trkpt><trkpt lat="39.3574937632387" lon="9.329189751057301"><ele>726.6666666666667</ele><time>2026-04-08T17:13:17Z</time></trkpt><trkpt lat="39.357440201051325" lon="9.329249179128796"><ele>723.5</ele><time>2026-04-08T17:13:18Z</time></trkpt><trkpt lat="39.35742192268812" lon="9.329355775248867"><ele>720.3333333333334</ele><time>2026-04-08T17:13:19Z</time></trkpt><trkpt lat="39.35740524580943" lon="9.329444974932745"><ele>717.1666666666666</ele><time>2026-04-08T17:13:20Z</time></trkpt><trkpt lat="39.3573486017622" lon="9.329539775466218"><ele>714.0</ele><time>2026-04-08T17:13:21Z</time></trkpt><trkpt lat="39.35727457728861" lon="9.329637557584196"><ele>712.8333333333334</ele><time>2026-04-08T17:13:22Z</time></trkpt><trkpt lat="39.35720041117803" lon="9.329727527698461"><ele>711.6666666666666</ele><time>2026-04-08T17:13:23Z</time></trkpt><trkpt lat="39.35713376533032" lon="9.329812515847689"><ele>710.5</ele><time>2026-04-08T17:13:24Z</time></trkpt><trkpt lat="39.35709554138081" lon="9.329900290760568"><ele>709.3333333333333</ele><time>2026-04-08T17:13:25Z</time></trkpt><trkpt lat="39.35704036583219" lon="9.329968378136886"><ele>708.1666666666666</ele><time>2026-04-08T17:13:26Z</time></trkpt><trkpt lat="39.35698771013747" lon="9.33002527656335"><ele>707.0</ele><time>2026-04-08T17:13:27Z</time></trkpt><trkpt lat="39.356939566100216" lon="9.330080977554548"><ele>707.0</ele><time>2026-04-08T17:13:28Z</time></trkpt><trkpt lat="39.356839543267085" lon="9.330102545532306"><ele>707.0</ele><time>2026-04-08T17:13:30Z</time></trkpt><trkpt lat="39.35676623111167" lon="9.330051111040106"><ele>707.0</ele><time>2026-04-08T17:13:31Z</time></trkpt><trkpt lat="39.35667754770074" lon="9.330024523983331"><ele>707.0</ele><time>2026-04-08T17:13:32Z</time></trkpt><trkpt lat="39.356596976579986" lon="9.330051285564075"><ele>707.0</ele><time>2026-04-08T17:13:33Z</time></trkpt><trkpt lat="39.35653193350327" lon="9.330084331998739"><ele>707.0</ele><time>2026-04-08T17:13:34Z</time></trkpt><trkpt lat="39.356482929251854" lon="9.330153474255406"><ele>707.0</ele><time>2026-04-08T17:13:35Z</time></trkpt><trkpt lat="39.35643336101417" lon="9.330263246035537"><ele>707.0</ele><time>2026-04-08T17:13:36Z</time></trkpt><trkpt lat="39.35637954763723" lon="9.33037858790403"><ele>707.0</ele><time>2026-04-08T17:13:37Z</time></trkpt><trkpt lat="39.35632870934085" lon="9.330472730782004"><ele>707.0</ele><time>2026-04-08T17:13:38Z</time></trkpt><trkpt lat="39.35627343709734" lon="9.330552330035513"><ele>707.0</ele><time>2026-04-08T17:13:39Z</time></trkpt><trkpt lat="39.35620828235201" lon="9.330630270987562"><ele>704.0</ele><time>2026-04-08T17:13:40Z</time></trkpt><trkpt lat="39.356149621971525" lon="9.330693717435036"><ele>701.0</ele><time>2026-04-08T17:13:41Z</time></trkpt><trkpt lat="39.35608243880038" lon="9.330726242877814"><ele>698.0</ele><time>2026-04-08T17:13:42Z</time></trkpt><trkpt lat="39.35601729101996" lon="9.330774730206137"><ele>695.0</ele><time>2026-04-08T17:13:43Z</time></trkpt><trkpt lat="39.35596420256981" lon="9.330844909198687"><ele>692.0</ele><time>2026-04-08T17:13:44Z</time></trkpt><trkpt lat="39.3558949134497" lon="9.33091826836113"><ele>689.0</ele><time>2026-04-08T17:13:45Z</time></trkpt><trkpt lat="39.355837734515916" lon="9.331012013301752"><ele>689.0</ele><time>2026-04-08T17:13:46Z</time></trkpt><trkpt lat="39.35579174466892" lon="9.331105001432578"><ele>689.0</ele><time>2026-04-08T17:13:47Z</time></trkpt><trkpt lat="39.355751353270215" lon="9.331197313802901"><ele>689.0</ele><time>2026-04-08T17:13:48Z</time></trkpt><trkpt lat="39.355713510520715" lon="9.331299381228593"><ele>689.0</ele><time>2026-04-08T17:13:49Z</time></trkpt><trkpt lat="39.355671388459754" lon="9.331411535414414"><ele>689.0</ele><time>2026-04-08T17:13:50Z</time></trkpt><trkpt lat="39.355642419757736" lon="9.331518515401164"><ele>689.0</ele><time>2026-04-08T17:13:51Z</time></trkpt><trkpt lat="39.35561592047325" lon="9.331621487367947"><ele>686.2857142857142</ele><time>2026-04-08T17:13:52Z</time></trkpt><trkpt lat="39.355594648703956" lon="9.33172168355935"><ele>683.5714285714286</ele><time>2026-04-08T17:13:53Z</time></trkpt><trkpt lat="39.355576357313375" lon="9.331806646605562"><ele>680.8571428571429</ele><time>2026-04-08T17:13:54Z</time></trkpt><trkpt lat="39.35554579084531" lon="9.33188405167073"><ele>678.1428571428571</ele><time>2026-04-08T17:13:55Z</time></trkpt><trkpt lat="39.355530415883464" lon="9.331963390327374"><ele>675.4285714285714</ele><time>2026-04-08T17:13:56Z</time></trkpt><trkpt lat="39.355518909354814" lon="9.332055925869728"><ele>672.7142857142857</ele><time>2026-04-08T17:13:57Z</time></trkpt><trkpt lat="39.355515538454526" lon="9.332149123515451"><ele>670.0</ele><time>2026-04-08T17:13:58Z</time></trkpt><trkpt lat="39.35553161057339" lon="9.332232637233423"><ele>669.5</ele><time>2026-04-08T17:13:59Z</time></trkpt><trkpt lat="39.355485558064075" lon="9.332343317605751"><ele>669.0</ele><time>2026-04-08T17:14:01Z</time></trkpt><trkpt lat="39.355422868809136" lon="9.332372761349376"><ele>668.5</ele><time>2026-04-08T17:14:03Z</time></trkpt><trkpt lat="39.355357199705196" lon="9.332250578858085"><ele>668.0</ele><time>2026-04-08T17:14:05Z</time></trkpt><trkpt lat="39.355312759834256" lon="9.332174791570873"><ele>667.5</ele><time>2026-04-08T17:14:06Z</time></trkpt><trkpt lat="39.35526268310187" lon="9.332070109687846"><ele>667.0</ele><time>2026-04-08T17:14:07Z</time></trkpt><trkpt lat="39.35521742183012" lon="9.331946280985381"><ele>667.0</ele><time>2026-04-08T17:14:08Z</time></trkpt><trkpt lat="39.35517666909586" lon="9.331826822073849"><ele>667.0</ele><time>2026-04-08T17:14:09Z</time></trkpt><trkpt lat="39.355141209217145" lon="9.331718452314643"><ele>667.0</ele><time>2026-04-08T17:14:10Z</time></trkpt><trkpt lat="39.355104708222825" lon="9.331611636331235"><ele>667.0</ele><time>2026-04-08T17:14:11Z</time></trkpt><trkpt lat="39.355063480014394" lon="9.331523663201953"><ele>667.0</ele><time>2026-04-08T17:14:12Z</time></trkpt><trkpt lat="39.35499106729236" lon="9.331429274109306"><ele>667.0</ele><time>2026-04-08T17:14:14Z</time></trkpt><trkpt lat="39.35487144167726" lon="9.331467199442883"><ele>667.0</ele><time>2026-04-08T17:14:16Z</time></trkpt><trkpt lat="39.35483739251637" lon="9.331560275701229"><ele>667.0</ele><time>2026-04-08T17:14:17Z</time></trkpt><trkpt lat="39.354852329421625" lon="9.331703648534736"><ele>667.0</ele><time>2026-04-08T17:14:18Z</time></trkpt><trkpt lat="39.35484591642214" lon="9.331852048018538"><ele>667.0</ele><time>2026-04-08T17:14:19Z</time></trkpt><trkpt lat="39.35479915576194" lon="9.331991369884037"><ele>667.0</ele><time>2026-04-08T17:14:20Z</time></trkpt><trkpt lat="39.354765981437254" lon="9.332118351888141"><ele>667.0</ele><time>2026-04-08T17:14:21Z</time></trkpt><trkpt lat="39.354733747656105" lon="9.332243000064508"><ele>667.0</ele><time>2026-04-08T17:14:22Z</time></trkpt><trkpt lat="39.354704173390964" lon="9.332357363821895"><ele>667.0</ele><time>2026-04-08T17:14:23Z</time></trkpt><trkpt lat="39.354690439459176" lon="9.332484005039648"><ele>667.0</ele><time>2026-04-08T17:14:24Z</time></trkpt><trkpt lat="39.35465890408554" lon="9.332592175630344"><ele>664.6666666666667</ele><time>2026-04-08T17:14:25Z</time></trkpt><trkpt lat="39.354601985577744" lon="9.332693068352228"><ele>662.3333333333334</ele><time>2026-04-08T17:14:26Z</time></trkpt><trkpt lat="39.35455661099384" lon="9.332772361359217"><ele>660.0</ele><time>2026-04-08T17:14:27Z</time></trkpt><trkpt lat="39.35450090840401" lon="9.332861767537388"><ele>657.6666666666666</ele><time>2026-04-08T17:14:28Z</time></trkpt><trkpt lat="39.35444689745418" lon="9.332935826412596"><ele>655.3333333333333</ele><time>2026-04-08T17:14:29Z</time></trkpt><trkpt lat="39.354386735487275" lon="9.33299599335783"><ele>653.0</ele><time>2026-04-08T17:14:30Z</time></trkpt><trkpt lat="39.354267003176865" lon="9.333035429627792"><ele>653.0</ele><time>2026-04-08T17:14:32Z</time></trkpt><trkpt lat="39.35418766280402" lon="9.33303393776983"><ele>653.0</ele><time>2026-04-08T17:14:33Z</time></trkpt><trkpt lat="39.354106581794134" lon="9.332998760225836"><ele>653.0</ele><time>2026-04-08T17:14:34Z</time></trkpt><trkpt lat="39.354024749823" lon="9.332957786308649"><ele>653.0</ele><time>2026-04-08T17:14:35Z</time></trkpt><trkpt lat="39.35395423174508" lon="9.33291268037488"><ele>653.0</ele><time>2026-04-08T17:14:36Z</time></trkpt><trkpt lat="39.35389158602473" lon="9.332871332179991"><ele>653.0</ele><time>2026-04-08T17:14:37Z</time></trkpt><trkpt lat="39.35379675546202" lon="9.332806605410866"><ele>655.0</ele><time>2026-04-08T17:14:39Z</time></trkpt><trkpt lat="39.35369617274282" lon="9.332822408675773"><ele>657.0</ele><time>2026-04-08T17:14:41Z</time></trkpt><trkpt lat="39.353647890871876" lon="9.332882585169703"><ele>659.0</ele><time>2026-04-08T17:14:42Z</time></trkpt><trkpt lat="39.35362560860846" lon="9.332975428894533"><ele>661.0</ele><time>2026-04-08T17:14:43Z</time></trkpt><trkpt lat="39.353676455465425" lon="9.333109506689999"><ele>663.0</ele><time>2026-04-08T17:14:44Z</time></trkpt><trkpt lat="39.35368909389174" lon="9.333239172560337"><ele>659.1666666666666</ele><time>2026-04-08T17:14:45Z</time></trkpt><trkpt lat="39.35370120037925" lon="9.333368855889482"><ele>655.3333333333334</ele><time>2026-04-08T17:14:46Z</time></trkpt><trkpt lat="39.35367474829113" lon="9.333470996523957"><ele>651.5</ele><time>2026-04-08T17:14:47Z</time></trkpt><trkpt lat="39.35363476337712" lon="9.333556887296092"><ele>647.6666666666667</ele><time>2026-04-08T17:14:48Z</time></trkpt><trkpt lat="39.35358191937972" lon="9.333631160013734"><ele>643.8333333333334</ele><time>2026-04-08T17:14:49Z</time></trkpt><trkpt lat="39.35351728512256" lon="9.333729830696061"><ele>640.0</ele><time>2026-04-08T17:14:50Z</time></trkpt><trkpt lat="39.35344524182268" lon="9.333841567513701"><ele>636.6</ele><time>2026-04-08T17:14:51Z</time></trkpt><trkpt lat="39.353372173925635" lon="9.333956024256597"><ele>633.2</ele><time>2026-04-08T17:14:52Z</time></trkpt><trkpt lat="39.353308070393204" lon="9.334057712124743"><ele>629.8</ele><time>2026-04-08T17:14:53Z</time></trkpt><trkpt lat="39.35324919483716" lon="9.33415414557645"><ele>626.4</ele><time>2026-04-08T17:14:54Z</time></trkpt><trkpt lat="39.35320004615161" lon="9.334234647286898"><ele>623.0</ele><time>2026-04-08T17:14:55Z</time></trkpt><trkpt lat="39.353144354939396" lon="9.334325865174177"><ele>623.0</ele><time>2026-04-08T17:14:56Z</time></trkpt><trkpt lat="39.35307701280812" lon="9.334430069520998"><ele>623.0</ele><time>2026-04-08T17:14:57Z</time></trkpt><trkpt lat="39.353005762662896" lon="9.33453479846132"><ele>623.0</ele><time>2026-04-08T17:14:58Z</time></trkpt><trkpt lat="39.352933534948235" lon="9.33463239917216"><ele>623.0</ele><time>2026-04-08T17:14:59Z</time></trkpt><trkpt lat="39.35288657959836" lon="9.334731582297758"><ele>623.0</ele><time>2026-04-08T17:15:00Z</time></trkpt><trkpt lat="39.35284548648047" lon="9.334805001334914"><ele>623.8</ele><time>2026-04-08T17:15:01Z</time></trkpt><trkpt lat="39.35280960586525" lon="9.334911585470195"><ele>624.5999999999999</ele><time>2026-04-08T17:15:02Z</time></trkpt><trkpt lat="39.352761128006456" lon="9.335041829324462"><ele>625.4000000000001</ele><time>2026-04-08T17:15:03Z</time></trkpt><trkpt lat="39.35271473224571" lon="9.335164519787693"><ele>626.2</ele><time>2026-04-08T17:15:04Z</time></trkpt><trkpt lat="39.352668711196216" lon="9.335278309302344"><ele>627.0</ele><time>2026-04-08T17:15:05Z</time></trkpt><trkpt lat="39.35260649148557" lon="9.335366553203102"><ele>627.0</ele><time>2026-04-08T17:15:06Z</time></trkpt><trkpt lat="39.352548678747326" lon="9.335477988772466"><ele>627.0</ele><time>2026-04-08T17:15:07Z</time></trkpt><trkpt lat="39.35248425599268" lon="9.335593458395449"><ele>627.0</ele><time>2026-04-08T17:15:08Z</time></trkpt><trkpt lat="39.352422341096656" lon="9.335712900194906"><ele>627.0</ele><time>2026-04-08T17:15:09Z</time></trkpt><trkpt lat="39.35237744817649" lon="9.335840542850526"><ele>627.0</ele><time>2026-04-08T17:15:10Z</time></trkpt><trkpt lat="39.352314681486284" lon="9.335946550796152"><ele>626.3333333333334</ele><time>2026-04-08T17:15:11Z</time></trkpt><trkpt lat="39.352269837188636" lon="9.336042258432665"><ele>625.6666666666666</ele><time>2026-04-08T17:15:12Z</time></trkpt><trkpt lat="39.35221258566296" lon="9.336117635024268"><ele>625.0</ele><time>2026-04-08T17:15:13Z</time></trkpt><trkpt lat="39.35217886439396" lon="9.336223036206697"><ele>624.3333333333333</ele><time>2026-04-08T17:15:14Z</time></trkpt><trkpt lat="39.352135336836824" lon="9.336296182608361"><ele>623.6666666666666</ele><time>2026-04-08T17:15:15Z</time></trkpt><trkpt lat="39.352075440912174" lon="9.3363368524961"><ele>623.0</ele><time>2026-04-08T17:15:16Z</time></trkpt><trkpt lat="39.35201061907376" lon="9.336370884774345"><ele>623.0</ele><time>2026-04-08T17:15:17Z</time></trkpt><trkpt lat="39.35194547755914" lon="9.336361983661677"><ele>623.0</ele><time>2026-04-08T17:15:18Z</time></trkpt><trkpt lat="39.35184487485475" lon="9.336366905505265"><ele>623.0</ele><time>2026-04-08T17:15:20Z</time></trkpt><trkpt lat="39.35177740009972" lon="9.33637253618081"><ele>623.0</ele><time>2026-04-08T17:15:22Z</time></trkpt><trkpt lat="39.351685602348816" lon="9.336419758227864"><ele>623.0</ele><time>2026-04-08T17:15:24Z</time></trkpt><trkpt lat="39.35162014463868" lon="9.336458142799358"><ele>623.0</ele><time>2026-04-08T17:15:25Z</time></trkpt><trkpt lat="39.35155159061012" lon="9.336528617347982"><ele>620.8</ele><time>2026-04-08T17:15:26Z</time></trkpt><trkpt lat="39.351472140665976" lon="9.336600772650575"><ele>618.5999999999999</ele><time>2026-04-08T17:15:27Z</time></trkpt><trkpt lat="39.35140710979728" lon="9.33669670133819"><ele>616.4000000000001</ele><time>2026-04-08T17:15:28Z</time></trkpt><trkpt lat="39.35137341180075" lon="9.336830448086987"><ele>614.2</ele><time>2026-04-08T17:15:29Z</time></trkpt><trkpt lat="39.35134350235136" lon="9.336970115650745"><ele>612.0</ele><time>2026-04-08T17:15:30Z</time></trkpt><trkpt lat="39.351322538361686" lon="9.33714500830404"><ele>609.25</ele><time>2026-04-08T17:15:31Z</time></trkpt><trkpt lat="39.35130307636357" lon="9.337316689163925"><ele>606.5</ele><time>2026-04-08T17:15:32Z</time></trkpt><trkpt lat="39.35128460489913" lon="9.337478905160028"><ele>603.75</ele><time>2026-04-08T17:15:33Z</time></trkpt><trkpt lat="39.35128836826172" lon="9.3376250475589"><ele>601.0</ele><time>2026-04-08T17:15:34Z</time></trkpt><trkpt lat="39.351276856096106" lon="9.337740631877443"><ele>601.0</ele><time>2026-04-08T17:15:35Z</time></trkpt><trkpt lat="39.35125539370005" lon="9.337850050993936"><ele>601.0</ele><time>2026-04-08T17:15:36Z</time></trkpt><trkpt lat="39.35119638947818" lon="9.3379600901274"><ele>601.0</ele><time>2026-04-08T17:15:37Z</time></trkpt><trkpt lat="39.351137419815394" lon="9.338068066219156"><ele>601.0</ele><time>2026-04-08T17:15:38Z</time></trkpt><trkpt lat="39.351081038130516" lon="9.338159908891024"><ele>601.0</ele><time>2026-04-08T17:15:39Z</time></trkpt><trkpt lat="39.35101392973426" lon="9.338240444522054"><ele>599.8333333333334</ele><time>2026-04-08T17:15:40Z</time></trkpt><trkpt lat="39.35095403267292" lon="9.338316879290462"><ele>598.6666666666667</ele><time>2026-04-08T17:15:41Z</time></trkpt><trkpt lat="39.35089833840028" lon="9.338393187017731"><ele>597.5</ele><time>2026-04-08T17:15:42Z</time></trkpt><trkpt lat="39.350850998136785" lon="9.338461752237869"><ele>596.3333333333334</ele><time>2026-04-08T17:15:43Z</time></trkpt><trkpt lat="39.350813228880675" lon="9.338559264189186"><ele>595.1666666666666</ele><time>2026-04-08T17:15:44Z</time></trkpt><trkpt lat="39.350780749577986" lon="9.33866770763343"><ele>594.0</ele><time>2026-04-08T17:15:45Z</time></trkpt><trkpt lat="39.350744625859875" lon="9.338783476582911"><ele>592.6666666666666</ele><time>2026-04-08T17:15:46Z</time></trkpt><trkpt lat="39.35070780071839" lon="9.338901493484158"><ele>591.3333333333334</ele><time>2026-04-08T17:15:47Z</time></trkpt><trkpt lat="39.350675619637265" lon="9.339004627061465"><ele>590.0</ele><time>2026-04-08T17:15:48Z</time></trkpt><trkpt lat="39.350643239750845" lon="9.33910449463677"><ele>588.6666666666667</ele><time>2026-04-08T17:15:49Z</time></trkpt><trkpt lat="39.350606724070964" lon="9.339193637319612"><ele>587.3333333333334</ele><time>2026-04-08T17:15:50Z</time></trkpt><trkpt lat="39.350563407611496" lon="9.339284304233516"><ele>586.0</ele><time>2026-04-08T17:15:50.999Z</time></trkpt><trkpt lat="39.350518839679665" lon="9.33937462277251"><ele>585.2</ele><time>2026-04-08T17:15:51.999Z</time></trkpt><trkpt lat="39.35046525222469" lon="9.339481114420538"><ele>584.4000000000001</ele><time>2026-04-08T17:15:52.999Z</time></trkpt><trkpt lat="39.35041252298392" lon="9.339585159250458"><ele>583.6</ele><time>2026-04-08T17:15:53.999Z</time></trkpt><trkpt lat="39.35036141423705" lon="9.339682642057026"><ele>582.8000000000001</ele><time>2026-04-08T17:15:55Z</time></trkpt><trkpt lat="39.3503057037773" lon="9.339786244580912"><ele>582.0</ele><time>2026-04-08T17:15:56Z</time></trkpt><trkpt lat="39.35025025846358" lon="9.339888066629118"><ele>581.8333333333334</ele><time>2026-04-08T17:15:57Z</time></trkpt><trkpt lat="39.3501978596035" lon="9.339984294045319"><ele>581.6666666666666</ele><time>2026-04-08T17:15:58Z</time></trkpt><trkpt lat="39.3501468636952" lon="9.340079369068398"><ele>581.5</ele><time>2026-04-08T17:15:59Z</time></trkpt><trkpt lat="39.350111063383956" lon="9.340189667398567"><ele>581.3333333333333</ele><time>2026-04-08T17:16:00Z</time></trkpt><trkpt lat="39.35005792120004" lon="9.340267263789588"><ele>581.1666666666666</ele><time>2026-04-08T17:16:01Z</time></trkpt><trkpt lat="39.35002264384295" lon="9.340348859872154"><ele>581.0</ele><time>2026-04-08T17:16:02Z</time></trkpt><trkpt lat="39.349980626981825" lon="9.340414031110548"><ele>581.0</ele><time>2026-04-08T17:16:03Z</time></trkpt><trkpt lat="39.34988792442058" lon="9.340494086688299"><ele>581.0</ele><time>2026-04-08T17:16:05Z</time></trkpt><trkpt lat="39.349831312378484" lon="9.340456233536392"><ele>581.0</ele><time>2026-04-08T17:16:06Z</time></trkpt><trkpt lat="39.349737838056626" lon="9.340442614104445"><ele>581.0</ele><time>2026-04-08T17:16:08Z</time></trkpt><trkpt lat="39.34967052148529" lon="9.340496096538182"><ele>581.0</ele><time>2026-04-08T17:16:10Z</time></trkpt><trkpt lat="39.34966082235721" lon="9.340619824384483"><ele>581.0</ele><time>2026-04-08T17:16:12Z</time></trkpt><trkpt lat="39.349709986673744" lon="9.340675127027103"><ele>578.6</ele><time>2026-04-08T17:16:13Z</time></trkpt><trkpt lat="39.349770094794515" lon="9.340733808704265"><ele>576.2</ele><time>2026-04-08T17:16:14Z</time></trkpt><trkpt lat="39.34982841796679" lon="9.340792253405729"><ele>573.8</ele><time>2026-04-08T17:16:15Z</time></trkpt><trkpt lat="39.34984701275699" lon="9.340948969743803"><ele>571.4</ele><time>2026-04-08T17:16:17Z</time></trkpt><trkpt lat="39.34986034239692" lon="9.341064546016181"><ele>569.0</ele><time>2026-04-08T17:16:18Z</time></trkpt><trkpt lat="39.34986972413468" lon="9.341181032859142"><ele>569.0</ele><time>2026-04-08T17:16:19Z</time></trkpt><trkpt lat="39.34987774320005" lon="9.341282124658859"><ele>569.0</ele><time>2026-04-08T17:16:20Z</time></trkpt><trkpt lat="39.34989002731006" lon="9.341379537945624"><ele>569.0</ele><time>2026-04-08T17:16:21Z</time></trkpt><trkpt lat="39.34991204536767" lon="9.341509016280272"><ele>569.0</ele><time>2026-04-08T17:16:22Z</time></trkpt><trkpt lat="39.349927867491594" lon="9.341627119999703"><ele>569.0</ele><time>2026-04-08T17:16:23Z</time></trkpt><trkpt lat="39.349929735848576" lon="9.341736730865657"><ele>569.0</ele><time>2026-04-08T17:16:24Z</time></trkpt><trkpt lat="39.349903982687024" lon="9.341859422116391"><ele>568.0</ele><time>2026-04-08T17:16:25Z</time></trkpt><trkpt lat="39.349874318882044" lon="9.341999013692437"><ele>567.0</ele><time>2026-04-08T17:16:26Z</time></trkpt><trkpt lat="39.34984337593312" lon="9.342153510399564"><ele>566.0</ele><time>2026-04-08T17:16:27Z</time></trkpt><trkpt lat="39.3498125847918" lon="9.342305793309135"><ele>565.0</ele><time>2026-04-08T17:16:28Z</time></trkpt><trkpt lat="39.349762612723396" lon="9.342443292224985"><ele>564.0</ele><time>2026-04-08T17:16:29Z</time></trkpt><trkpt lat="39.349692754524426" lon="9.342562370989262"><ele>563.0</ele><time>2026-04-08T17:16:30Z</time></trkpt><trkpt lat="39.349619830923864" lon="9.342649836225727"><ele>562.0</ele><time>2026-04-08T17:16:31Z</time></trkpt><trkpt lat="39.349533551054535" lon="9.342702415320863"><ele>561.0</ele><time>2026-04-08T17:16:32Z</time></trkpt><trkpt lat="39.34943077909628" lon="9.342724714262156"><ele>560.0</ele><time>2026-04-08T17:16:33Z</time></trkpt><trkpt lat="39.349315079766974" lon="9.342745169912126"><ele>560.0</ele><time>2026-04-08T17:16:34Z</time></trkpt><trkpt lat="39.34921754237323" lon="9.342812270660493"><ele>560.0</ele><time>2026-04-08T17:16:35Z</time></trkpt><trkpt lat="39.34912221553419" lon="9.34287007220375"><ele>560.0</ele><time>2026-04-08T17:16:36Z</time></trkpt><trkpt lat="39.34901199291955" lon="9.34292768488989"><ele>560.0</ele><time>2026-04-08T17:16:37Z</time></trkpt><trkpt lat="39.348893535192666" lon="9.343015211050785"><ele>562.5</ele><time>2026-04-08T17:16:38Z</time></trkpt><trkpt lat="39.348774571692864" lon="9.343103110899477"><ele>565.0</ele><time>2026-04-08T17:16:39Z</time></trkpt><trkpt lat="39.34866477823688" lon="9.34320702226352"><ele>567.5</ele><time>2026-04-08T17:16:40Z</time></trkpt><trkpt lat="39.348552945849775" lon="9.343284088704676"><ele>570.0</ele><time>2026-04-08T17:16:41Z</time></trkpt><trkpt lat="39.34843535571011" lon="9.343340847155082"><ele>570.0</ele><time>2026-04-08T17:16:42Z</time></trkpt><trkpt lat="39.34832442270813" lon="9.34339987303022"><ele>570.0</ele><time>2026-04-08T17:16:43Z</time></trkpt><trkpt lat="39.34822470482304" lon="9.343455597482837"><ele>570.0</ele><time>2026-04-08T17:16:44Z</time></trkpt><trkpt lat="39.348133464052" lon="9.343495884771766"><ele>570.0</ele><time>2026-04-08T17:16:45Z</time></trkpt><trkpt lat="39.34802732361144" lon="9.343520190581673"><ele>570.0</ele><time>2026-04-08T17:16:46Z</time></trkpt><trkpt lat="39.34792230301306" lon="9.343516289557671"><ele>569.0</ele><time>2026-04-08T17:16:47Z</time></trkpt><trkpt lat="39.3478436479928" lon="9.343540530139231"><ele>568.0</ele><time>2026-04-08T17:16:48Z</time></trkpt><trkpt lat="39.34778952597691" lon="9.34367551802877"><ele>567.0</ele><time>2026-04-08T17:16:50Z</time></trkpt><trkpt lat="39.34785838281821" lon="9.343788037469142"><ele>566.0</ele><time>2026-04-08T17:16:51Z</time></trkpt><trkpt lat="39.34793000557969" lon="9.34388084496837"><ele>565.0</ele><time>2026-04-08T17:16:52Z</time></trkpt><trkpt lat="39.34798424214887" lon="9.343957410973957"><ele>565.0</ele><time>2026-04-08T17:16:53Z</time></trkpt><trkpt lat="39.34803712421801" lon="9.344065468008818"><ele>565.0</ele><time>2026-04-08T17:16:55Z</time></trkpt><trkpt lat="39.34807170253475" lon="9.344140621776056"><ele>565.0</ele><time>2026-04-08T17:16:57Z</time></trkpt><trkpt lat="39.348111792070526" lon="9.344238284979186"><ele>565.0</ele><time>2026-04-08T17:17:00Z</time></trkpt><trkpt lat="39.34814451842026" lon="9.344324736481886"><ele>565.0</ele><time>2026-04-08T17:17:03Z</time></trkpt><trkpt lat="39.348170834211906" lon="9.344408468362754"><ele>565.0</ele><time>2026-04-08T17:17:07Z</time></trkpt><trkpt lat="39.348188760374754" lon="9.34448844988109"><ele>567.3333333333334</ele><time>2026-04-08T17:17:09Z</time></trkpt><trkpt lat="39.34821739703489" lon="9.344566158502213"><ele>569.6666666666667</ele><time>2026-04-08T17:17:12Z</time></trkpt><trkpt lat="39.348264652401745" lon="9.344644762188963"><ele>572.0</ele><time>2026-04-08T17:17:14Z</time></trkpt><trkpt lat="39.348355157669886" lon="9.344630025983964"><ele>574.3333333333334</ele><time>2026-04-08T17:17:17Z</time></trkpt><trkpt lat="39.34836907211933" lon="9.344489389633248"><ele>576.6666666666666</ele><time>2026-04-08T17:17:19Z</time></trkpt><trkpt lat="39.34840150000149" lon="9.34438396917023"><ele>579.0</ele><time>2026-04-08T17:17:21Z</time></trkpt><trkpt lat="39.34844631431325" lon="9.344300748522645"><ele>579.0</ele><time>2026-04-08T17:17:24Z</time></trkpt><trkpt lat="39.34850136427735" lon="9.34421909905477"><ele>579.0</ele><time>2026-04-08T17:17:27Z</time></trkpt><trkpt lat="39.34858114954576" lon="9.344146062246852"><ele>579.0</ele><time>2026-04-08T17:17:30Z</time></trkpt><trkpt lat="39.34865386068987" lon="9.344057156550754"><ele>579.0</ele><time>2026-04-08T17:17:32Z</time></trkpt><trkpt lat="39.34874394808547" lon="9.34398580372842"><ele>579.0</ele><time>2026-04-08T17:17:34Z</time></trkpt><trkpt lat="39.348809583961255" lon="9.343950021868306"><ele>577.8</ele><time>2026-04-08T17:17:36Z</time></trkpt><trkpt lat="39.348878301616786" lon="9.343949478000285"><ele>576.5999999999999</ele><time>2026-04-08T17:17:38Z</time></trkpt><trkpt lat="39.348977526631195" lon="9.343921881789756"><ele>575.4</ele><time>2026-04-08T17:17:41Z</time></trkpt><trkpt lat="39.34909194303193" lon="9.34388453028862"><ele>574.1999999999999</ele><time>2026-04-08T17:17:43Z</time></trkpt><trkpt lat="39.3491948034259" lon="9.343819511886574"><ele>573.0</ele><time>2026-04-08T17:17:45Z</time></trkpt><trkpt lat="39.34928468032813" lon="9.343785572124832"><ele>573.0</ele><time>2026-04-08T17:17:47Z</time></trkpt><trkpt lat="39.349374305673564" lon="9.343755223052767"><ele>573.0</ele><time>2026-04-08T17:17:49Z</time></trkpt><trkpt lat="39.349435109588974" lon="9.343778859658112"><ele>573.0</ele><time>2026-04-08T17:17:51Z</time></trkpt><trkpt lat="39.34946481619477" lon="9.343864477497451"><ele>573.0</ele><time>2026-04-08T17:19:26Z</time></trkpt><trkpt lat="39.349519002601276" lon="9.343953600700699"><ele>573.0</ele><time>2026-04-08T17:19:27Z</time></trkpt><trkpt lat="39.349587494072686" lon="9.344054874387014"><ele>573.0</ele><time>2026-04-08T17:19:28Z</time></trkpt><trkpt lat="39.34968932643861" lon="9.344136140639737"><ele>575.4</ele><time>2026-04-08T17:19:29Z</time></trkpt><trkpt lat="39.34976639730139" lon="9.344233763509386"><ele>577.8</ele><time>2026-04-08T17:19:30Z</time></trkpt><trkpt lat="39.34979978280831" lon="9.344341796353076"><ele>580.2</ele><time>2026-04-08T17:19:31Z</time></trkpt><trkpt lat="39.34981185655277" lon="9.344455014443172"><ele>582.6</ele><time>2026-04-08T17:19:32Z</time></trkpt><trkpt lat="39.34982679255318" lon="9.344597338107672"><ele>585.0</ele><time>2026-04-08T17:19:33Z</time></trkpt><trkpt lat="39.34984064765693" lon="9.34475708908093"><ele>587.0</ele><time>2026-04-08T17:19:34Z</time></trkpt><trkpt lat="39.34985306782299" lon="9.344928249958981"><ele>589.0</ele><time>2026-04-08T17:19:35Z</time></trkpt><trkpt lat="39.34986993249506" lon="9.34512354519061"><ele>591.0</ele><time>2026-04-08T17:19:36Z</time></trkpt><trkpt lat="39.34988729621558" lon="9.345294025590091"><ele>593.0</ele><time>2026-04-08T17:19:37Z</time></trkpt><trkpt lat="39.349931486120894" lon="9.345415902059125"><ele>593.0</ele><time>2026-04-08T17:19:38Z</time></trkpt><trkpt lat="39.349990261763814" lon="9.345518011558374"><ele>593.0</ele><time>2026-04-08T17:19:39Z</time></trkpt><trkpt lat="39.350091191025136" lon="9.345598831251241"><ele>593.0</ele><time>2026-04-08T17:19:40Z</time></trkpt><trkpt lat="39.35022008378753" lon="9.345666213703279"><ele>593.0</ele><time>2026-04-08T17:19:41Z</time></trkpt><trkpt lat="39.35033206694369" lon="9.345770833497834"><ele>594.8</ele><time>2026-04-08T17:19:42Z</time></trkpt><trkpt lat="39.35042859602359" lon="9.345911649049995"><ele>596.5999999999999</ele><time>2026-04-08T17:19:43Z</time></trkpt><trkpt lat="39.35052614055299" lon="9.346010463848353"><ele>598.4000000000001</ele><time>2026-04-08T17:19:44Z</time></trkpt><trkpt lat="39.350597207144574" lon="9.34604191715092"><ele>600.2</ele><time>2026-04-08T17:19:45Z</time></trkpt><trkpt lat="39.35066977672977" lon="9.34605407336644"><ele>602.0</ele><time>2026-04-08T17:19:46Z</time></trkpt><trkpt lat="39.350766614732116" lon="9.346055355859527"><ele>602.2</ele><time>2026-04-08T17:19:47Z</time></trkpt><trkpt lat="39.35083596654587" lon="9.346097021211046"><ele>602.4000000000001</ele><time>2026-04-08T17:19:48Z</time></trkpt><trkpt lat="39.350863437062756" lon="9.346172145516578"><ele>602.5999999999999</ele><time>2026-04-08T17:19:50Z</time></trkpt><trkpt lat="39.35073775640069" lon="9.34622241329406"><ele>602.8</ele><time>2026-04-08T17:19:52Z</time></trkpt><trkpt lat="39.350691668298374" lon="9.346131399336295"><ele>603.0</ele><time>2026-04-08T17:19:53Z</time></trkpt><trkpt lat="39.35058328758399" lon="9.346109617200016"><ele>602.75</ele><time>2026-04-08T17:19:54Z</time></trkpt><trkpt lat="39.35046281814152" lon="9.346081981854198"><ele>602.5</ele><time>2026-04-08T17:19:55Z</time></trkpt><trkpt lat="39.35035036426261" lon="9.346073486418165"><ele>602.25</ele><time>2026-04-08T17:19:56Z</time></trkpt><trkpt lat="39.35022653002563" lon="9.346075568939721"><ele>602.0</ele><time>2026-04-08T17:19:57Z</time></trkpt><trkpt lat="39.35012208235153" lon="9.346107566586115"><ele>602.0</ele><time>2026-04-08T17:19:58Z</time></trkpt><trkpt lat="39.350027979621466" lon="9.346177088333977"><ele>602.0</ele><time>2026-04-08T17:19:59Z</time></trkpt><trkpt lat="39.349959099804366" lon="9.346285815783446"><ele>602.0</ele><time>2026-04-08T17:20:00Z</time></trkpt><trkpt lat="39.349919846553135" lon="9.346437698354679"><ele>602.0</ele><time>2026-04-08T17:20:01Z</time></trkpt><trkpt lat="39.34989737300199" lon="9.346634186841374"><ele>607.0</ele><time>2026-04-08T17:20:02Z</time></trkpt><trkpt lat="39.349881326654966" lon="9.34683979189666"><ele>612.0</ele><time>2026-04-08T17:20:03Z</time></trkpt><trkpt lat="39.34986645664339" lon="9.347060627237793"><ele>617.0</ele><time>2026-04-08T17:20:04Z</time></trkpt><trkpt lat="39.34984558811842" lon="9.347255253897618"><ele>613.3333333333333</ele><time>2026-04-08T17:20:05Z</time></trkpt><trkpt lat="39.349797882226525" lon="9.3474205188896"><ele>609.6666666666666</ele><time>2026-04-08T17:20:06Z</time></trkpt><trkpt lat="39.3497186867491" lon="9.34760880620925"><ele>606.0</ele><time>2026-04-08T17:20:07Z</time></trkpt><trkpt lat="39.349634783117516" lon="9.347799010540097"><ele>606.0</ele><time>2026-04-08T17:20:08Z</time></trkpt><trkpt lat="39.34956684263275" lon="9.347980031570142"><ele>606.0</ele><time>2026-04-08T17:20:09Z</time></trkpt><trkpt lat="39.34950679575436" lon="9.348151730610443"><ele>606.0</ele><time>2026-04-08T17:20:10Z</time></trkpt><trkpt lat="39.34945202244946" lon="9.348326466006935"><ele>606.0</ele><time>2026-04-08T17:20:11Z</time></trkpt><trkpt lat="39.34941031247337" lon="9.348499792356888"><ele>609.5</ele><time>2026-04-08T17:20:12Z</time></trkpt><trkpt lat="39.34938199353256" lon="9.348667852804075"><ele>613.0</ele><time>2026-04-08T17:20:13Z</time></trkpt><trkpt lat="39.34936652027581" lon="9.348849809801408"><ele>616.5</ele><time>2026-04-08T17:20:14Z</time></trkpt><trkpt lat="39.349363742726254" lon="9.349054953466407"><ele>620.0</ele><time>2026-04-08T17:20:15Z</time></trkpt><trkpt lat="39.34937807732133" lon="9.349284400840864"><ele>622.0</ele><time>2026-04-08T17:20:16Z</time></trkpt><trkpt lat="39.3493981035767" lon="9.349512499094391"><ele>624.0</ele><time>2026-04-08T17:20:17Z</time></trkpt><trkpt lat="39.34942742843945" lon="9.349704255331568"><ele>626.0</ele><time>2026-04-08T17:20:18Z</time></trkpt><trkpt lat="39.349425629932334" lon="9.34987406268977"><ele>626.0</ele><time>2026-04-08T17:20:19Z</time></trkpt><trkpt lat="39.3494075227923" lon="9.350029077073243"><ele>626.0</ele><time>2026-04-08T17:20:20Z</time></trkpt><trkpt lat="39.34937346611428" lon="9.350197541253774"><ele>626.0</ele><time>2026-04-08T17:20:21Z</time></trkpt><trkpt lat="39.34934659556443" lon="9.350378858449211"><ele>626.0</ele><time>2026-04-08T17:20:22Z</time></trkpt><trkpt lat="39.349302961633576" lon="9.350551871540066"><ele>629.5</ele><time>2026-04-08T17:20:23Z</time></trkpt><trkpt lat="39.34928310531459" lon="9.350735838470063"><ele>633.0</ele><time>2026-04-08T17:20:24Z</time></trkpt><trkpt lat="39.349280982453216" lon="9.350915152230328"><ele>636.5</ele><time>2026-04-08T17:20:25Z</time></trkpt><trkpt lat="39.349294313838094" lon="9.351074641226312"><ele>640.0</ele><time>2026-04-08T17:20:26Z</time></trkpt><trkpt lat="39.34930246071403" lon="9.351213366490361"><ele>640.0</ele><time>2026-04-08T17:20:27Z</time></trkpt><trkpt lat="39.34925938042404" lon="9.351331458948959"><ele>640.0</ele><time>2026-04-08T17:20:28Z</time></trkpt><trkpt lat="39.3491957026029" lon="9.351439320762958"><ele>640.0</ele><time>2026-04-08T17:20:29Z</time></trkpt><trkpt lat="39.349121228056774" lon="9.351519213332947"><ele>640.0</ele><time>2026-04-08T17:20:30Z</time></trkpt><trkpt lat="39.34902981015972" lon="9.351562501833873"><ele>640.0</ele><time>2026-04-08T17:20:31Z</time></trkpt><trkpt lat="39.34894054287781" lon="9.35154743958517"><ele>637.5</ele><time>2026-04-08T17:20:32Z</time></trkpt><trkpt lat="39.34886031232807" lon="9.351462775066267"><ele>635.0</ele><time>2026-04-08T17:20:33Z</time></trkpt><trkpt lat="39.348763373047" lon="9.351345088728863"><ele>632.5</ele><time>2026-04-08T17:20:34Z</time></trkpt><trkpt lat="39.34864133885588" lon="9.351258310628651"><ele>630.0</ele><time>2026-04-08T17:20:35Z</time></trkpt><trkpt lat="39.34850739012941" lon="9.351214555623253"><ele>630.0</ele><time>2026-04-08T17:20:36Z</time></trkpt><trkpt lat="39.348375489050404" lon="9.351175150258138"><ele>630.0</ele><time>2026-04-08T17:20:37Z</time></trkpt><trkpt lat="39.348234569682084" lon="9.351153822265136"><ele>630.0</ele><time>2026-04-08T17:20:38Z</time></trkpt><trkpt lat="39.348087297421465" lon="9.351165679104849"><ele>630.0</ele><time>2026-04-08T17:20:39Z</time></trkpt><trkpt lat="39.34792339585399" lon="9.351167599317774"><ele>628.25</ele><time>2026-04-08T17:20:40Z</time></trkpt><trkpt lat="39.34777818163732" lon="9.351209456184966"><ele>626.5</ele><time>2026-04-08T17:20:41Z</time></trkpt><trkpt lat="39.34766950562629" lon="9.351282697737311"><ele>624.75</ele><time>2026-04-08T17:20:42Z</time></trkpt><trkpt lat="39.347577388442645" lon="9.351345076000989"><ele>623.0</ele><time>2026-04-08T17:20:43Z</time></trkpt><trkpt lat="39.34748952116628" lon="9.351448296964323"><ele>627.0</ele><time>2026-04-08T17:20:44Z</time></trkpt><trkpt lat="39.34738974081553" lon="9.351619114021117"><ele>631.0</ele><time>2026-04-08T17:20:45Z</time></trkpt><trkpt lat="39.3472813681068" lon="9.351820393353101"><ele>635.0</ele><time>2026-04-08T17:20:46Z</time></trkpt><trkpt lat="39.347173450905366" lon="9.351968068987702"><ele>635.0</ele><time>2026-04-08T17:20:47Z</time></trkpt><trkpt lat="39.34706751346397" lon="9.352090615776165"><ele>635.0</ele><time>2026-04-08T17:20:48Z</time></trkpt><trkpt lat="39.346942921868816" lon="9.352207896067265"><ele>635.0</ele><time>2026-04-08T17:20:49Z</time></trkpt><trkpt lat="39.34681838847769" lon="9.352261132072904"><ele>635.0</ele><time>2026-04-08T17:20:50Z</time></trkpt><trkpt lat="39.34669778348075" lon="9.352257092503132"><ele>641.75</ele><time>2026-04-08T17:20:51Z</time></trkpt><trkpt lat="39.34655719328222" lon="9.352238827142253"><ele>648.5</ele><time>2026-04-08T17:20:52Z</time></trkpt><trkpt lat="39.346431104406065" lon="9.352265823538334"><ele>655.25</ele><time>2026-04-08T17:20:53Z</time></trkpt><trkpt lat="39.34633517806834" lon="9.35229141452061"><ele>662.0</ele><time>2026-04-08T17:20:54Z</time></trkpt><trkpt lat="39.34626539096483" lon="9.352350200270099"><ele>662.0</ele><time>2026-04-08T17:20:55Z</time></trkpt><trkpt lat="39.34621655892588" lon="9.352423884222382"><ele>662.0</ele><time>2026-04-08T17:20:56Z</time></trkpt><trkpt lat="39.34618305314942" lon="9.352502524842663"><ele>662.0</ele><time>2026-04-08T17:20:57Z</time></trkpt><trkpt lat="39.34615645522627" lon="9.352588158215353"><ele>662.0</ele><time>2026-04-08T17:20:58Z</time></trkpt><trkpt lat="39.34612645671053" lon="9.352685875311282"><ele>662.0</ele><time>2026-04-08T17:20:59Z</time></trkpt><trkpt lat="39.346105221509326" lon="9.352807866573329"><ele>662.0</ele><time>2026-04-08T17:21:00Z</time></trkpt><trkpt lat="39.346099530706255" lon="9.35298151826928"><ele>661.0</ele><time>2026-04-08T17:21:01Z</time></trkpt><trkpt lat="39.34611551103734" lon="9.353167143426404"><ele>660.0</ele><time>2026-04-08T17:21:02Z</time></trkpt><trkpt lat="39.34614577819972" lon="9.35333043625922"><ele>659.0</ele><time>2026-04-08T17:21:03Z</time></trkpt><trkpt lat="39.34619088575703" lon="9.353466871103015"><ele>658.0</ele><time>2026-04-08T17:21:04Z</time></trkpt><trkpt lat="39.34626687493764" lon="9.353605985805741"><ele>658.0</ele><time>2026-04-08T17:21:05Z</time></trkpt><trkpt lat="39.34634217035022" lon="9.353768372640335"><ele>658.0</ele><time>2026-04-08T17:21:06Z</time></trkpt><trkpt lat="39.34639115060528" lon="9.353892209496308"><ele>658.0</ele><time>2026-04-08T17:21:07Z</time></trkpt><trkpt lat="39.34640820185899" lon="9.353973378005398"><ele>658.0</ele><time>2026-04-08T17:21:08Z</time></trkpt><trkpt lat="39.346309465630746" lon="9.353977617794103"><ele>658.0</ele><time>2026-04-08T17:21:12Z</time></trkpt><trkpt lat="39.346242365791376" lon="9.353946488974383"><ele>658.0</ele><time>2026-04-08T17:21:13Z</time></trkpt><trkpt lat="39.34616157019408" lon="9.353927873304533"><ele>658.0</ele><time>2026-04-08T17:21:14Z</time></trkpt><trkpt lat="39.346091706884586" lon="9.353878246268069"><ele>658.0</ele><time>2026-04-08T17:21:15Z</time></trkpt><trkpt lat="39.34601631242655" lon="9.353851466495726"><ele>658.0</ele><time>2026-04-08T17:21:16Z</time></trkpt><trkpt lat="39.345944202879735" lon="9.35386527256906"><ele>658.0</ele><time>2026-04-08T17:21:17Z</time></trkpt><trkpt lat="39.34585564311362" lon="9.353937067160658"><ele>658.0</ele><time>2026-04-08T17:21:18Z</time></trkpt><trkpt lat="39.34576950336552" lon="9.354004237530795"><ele>659.5999999999999</ele><time>2026-04-08T17:21:19Z</time></trkpt><trkpt lat="39.345674266886384" lon="9.354071599958756"><ele>661.1999999999999</ele><time>2026-04-08T17:21:20Z</time></trkpt><trkpt lat="39.34558803784913" lon="9.354132591002527"><ele>662.8</ele><time>2026-04-08T17:21:21Z</time></trkpt><trkpt lat="39.34551107322613" lon="9.354195750460251"><ele>664.4</ele><time>2026-04-08T17:21:22Z</time></trkpt><trkpt lat="39.34545655770444" lon="9.354286301255238"><ele>666.0</ele><time>2026-04-08T17:21:23Z</time></trkpt><trkpt lat="39.34542810691571" lon="9.354404678930276"><ele>662.0</ele><time>2026-04-08T17:21:24Z</time></trkpt><trkpt lat="39.34542934533373" lon="9.354569323000014"><ele>658.0</ele><time>2026-04-08T17:21:25Z</time></trkpt><trkpt lat="39.34537395226494" lon="9.35471952221778"><ele>654.0</ele><time>2026-04-08T17:21:26Z</time></trkpt><trkpt lat="39.345292970441314" lon="9.354826203524043"><ele>650.0</ele><time>2026-04-08T17:21:27Z</time></trkpt><trkpt lat="39.34521613936895" lon="9.354946669229234"><ele>650.0</ele><time>2026-04-08T17:21:28Z</time></trkpt><trkpt lat="39.34515953214499" lon="9.355069520596023"><ele>650.0</ele><time>2026-04-08T17:21:29Z</time></trkpt><trkpt lat="39.34512666172294" lon="9.355225228400073"><ele>650.0</ele><time>2026-04-08T17:21:30Z</time></trkpt><trkpt lat="39.34511382787693" lon="9.355424905405089"><ele>650.0</ele><time>2026-04-08T17:21:31Z</time></trkpt><trkpt lat="39.3450965035116" lon="9.35559629633145"><ele>651.6</ele><time>2026-04-08T17:21:32Z</time></trkpt><trkpt lat="39.34506225342814" lon="9.355733178332002"><ele>653.2</ele><time>2026-04-08T17:21:33Z</time></trkpt><trkpt lat="39.34498906839228" lon="9.355825759632962"><ele>654.8</ele><time>2026-04-08T17:21:34Z</time></trkpt><trkpt lat="39.34490170868356" lon="9.355888369081672"><ele>656.4</ele><time>2026-04-08T17:21:35Z</time></trkpt><trkpt lat="39.3448058443443" lon="9.355873853630534"><ele>658.0</ele><time>2026-04-08T17:21:36Z</time></trkpt><trkpt lat="39.344682874063395" lon="9.355882714198051"><ele>658.0</ele><time>2026-04-08T17:21:37Z</time></trkpt><trkpt lat="39.344586355976304" lon="9.355872265825063"><ele>658.0</ele><time>2026-04-08T17:21:38Z</time></trkpt><trkpt lat="39.34449623795139" lon="9.355814712020837"><ele>658.0</ele><time>2026-04-08T17:21:39Z</time></trkpt><trkpt lat="39.344420800252756" lon="9.355717888091394"><ele>658.0</ele><time>2026-04-08T17:21:40Z</time></trkpt><trkpt lat="39.344324854833715" lon="9.35558223235601"><ele>658.0</ele><time>2026-04-08T17:21:41Z</time></trkpt><trkpt lat="39.344239329584944" lon="9.355459079866764"><ele>655.2</ele><time>2026-04-08T17:21:42Z</time></trkpt><trkpt lat="39.344162211929515" lon="9.355351203971132"><ele>652.4</ele><time>2026-04-08T17:21:43Z</time></trkpt><trkpt lat="39.344083339287934" lon="9.355265633930259"><ele>649.6</ele><time>2026-04-08T17:21:44Z</time></trkpt><trkpt lat="39.3440008437962" lon="9.355218436093635"><ele>646.8000000000001</ele><time>2026-04-08T17:21:45Z</time></trkpt><trkpt lat="39.34392273895571" lon="9.355214955597306"><ele>644.0</ele><time>2026-04-08T17:21:46Z</time></trkpt><trkpt lat="39.34384964288025" lon="9.355253573086674"><ele>643.4000000000001</ele><time>2026-04-08T17:21:47Z</time></trkpt><trkpt lat="39.34379875399257" lon="9.355399876984874"><ele>642.8</ele><time>2026-04-08T17:21:48Z</time></trkpt><trkpt lat="39.34373554985474" lon="9.35551898224729"><ele>642.2</ele><time>2026-04-08T17:21:49Z</time></trkpt><trkpt lat="39.34367768105474" lon="9.355617229118968"><ele>641.5999999999999</ele><time>2026-04-08T17:21:50Z</time></trkpt><trkpt lat="39.34362020261007" lon="9.355678094411767"><ele>641.0</ele><time>2026-04-08T17:21:51Z</time></trkpt><trkpt lat="39.34348976973724" lon="9.355653256064162"><ele>641.0</ele><time>2026-04-08T17:21:53Z</time></trkpt><trkpt lat="39.34339382178324" lon="9.355595911610022"><ele>641.0</ele><time>2026-04-08T17:21:54Z</time></trkpt><trkpt lat="39.343322826064394" lon="9.355552010139426"><ele>641.0</ele><time>2026-04-08T17:21:55Z</time></trkpt><trkpt lat="39.34325814930484" lon="9.35551646906223"><ele>641.0</ele><time>2026-04-08T17:21:56Z</time></trkpt><trkpt lat="39.34318427967353" lon="9.355508575438835"><ele>641.0</ele><time>2026-04-08T17:21:57Z</time></trkpt><trkpt lat="39.34309931204486" lon="9.35554639348423"><ele>641.0</ele><time>2026-04-08T17:21:58Z</time></trkpt><trkpt lat="39.34302066003942" lon="9.35557583429556"><ele>641.0</ele><time>2026-04-08T17:21:59Z</time></trkpt><trkpt lat="39.34294659027735" lon="9.355673386968112"><ele>641.0</ele><time>2026-04-08T17:22:00Z</time></trkpt><trkpt lat="39.342890251114284" lon="9.355786831881716"><ele>641.0</ele><time>2026-04-08T17:22:01Z</time></trkpt><trkpt lat="39.342870440636965" lon="9.355946214573528"><ele>641.0</ele><time>2026-04-08T17:22:02Z</time></trkpt><trkpt lat="39.34284120938346" lon="9.356088113979478"><ele>641.0</ele><time>2026-04-08T17:22:03Z</time></trkpt><trkpt lat="39.34280914380673" lon="9.356228066929182"><ele>641.0</ele><time>2026-04-08T17:22:04Z</time></trkpt><trkpt lat="39.34278248113102" lon="9.356361653112492"><ele>641.0</ele><time>2026-04-08T17:22:05Z</time></trkpt><trkpt lat="39.342760676658656" lon="9.356489717873396"><ele>641.0</ele><time>2026-04-08T17:22:06Z</time></trkpt><trkpt lat="39.342754973012646" lon="9.35660537512325"><ele>641.0</ele><time>2026-04-08T17:22:07Z</time></trkpt><trkpt lat="39.342744374991454" lon="9.35672274151048"><ele>641.0</ele><time>2026-04-08T17:22:09Z</time></trkpt><trkpt lat="39.34271944294205" lon="9.356828630472085"><ele>641.0</ele><time>2026-04-08T17:22:28Z</time></trkpt><trkpt lat="39.342725751865714" lon="9.356998364763479"><ele>641.0</ele><time>2026-04-08T17:22:30Z</time></trkpt><trkpt lat="39.34272464391511" lon="9.35709487922635"><ele>641.0</ele><time>2026-04-08T17:22:31Z</time></trkpt><trkpt lat="39.34273577871641" lon="9.357192914852368"><ele>641.0</ele><time>2026-04-08T17:22:32Z</time></trkpt><trkpt lat="39.342752358868445" lon="9.357277506095883"><ele>641.0</ele><time>2026-04-08T17:22:33Z</time></trkpt><trkpt lat="39.342769964594474" lon="9.357366316581384"><ele>641.0</ele><time>2026-04-08T17:22:34Z</time></trkpt><trkpt lat="39.34278465635337" lon="9.357508091018616"><ele>641.6666666666666</ele><time>2026-04-08T17:22:36Z</time></trkpt><trkpt lat="39.34283784867087" lon="9.357641022898184"><ele>642.3333333333333</ele><time>2026-04-08T17:22:38Z</time></trkpt><trkpt lat="39.34289723094693" lon="9.357742769569876"><ele>643.0</ele><time>2026-04-08T17:22:40Z</time></trkpt><trkpt lat="39.342968664333355" lon="9.357826912151495"><ele>643.6666666666666</ele><time>2026-04-08T17:22:42Z</time></trkpt><trkpt lat="39.343015096576465" lon="9.357895187995556"><ele>644.3333333333334</ele><time>2026-04-08T17:22:43Z</time></trkpt><trkpt lat="39.343069286945955" lon="9.357941498356215"><ele>645.0</ele><time>2026-04-08T17:22:44Z</time></trkpt><trkpt lat="39.343150512329096" lon="9.35803235823847"><ele>644.75</ele><time>2026-04-08T17:22:46Z</time></trkpt><trkpt lat="39.34322158721876" lon="9.358123279445698"><ele>644.5</ele><time>2026-04-08T17:22:48Z</time></trkpt><trkpt lat="39.343280716823" lon="9.358202352471935"><ele>644.25</ele><time>2026-04-08T17:22:50Z</time></trkpt><trkpt lat="39.3432804495861" lon="9.358306050631477"><ele>644.0</ele><time>2026-04-08T17:22:52Z</time></trkpt><trkpt lat="39.343097179437876" lon="9.35823330249977"><ele>643.4000000000001</ele><time>2026-04-08T17:22:55Z</time></trkpt><trkpt lat="39.3430030661917" lon="9.35819658526503"><ele>642.8</ele><time>2026-04-08T17:22:56Z</time></trkpt><trkpt lat="39.34291088350172" lon="9.358170558560424"><ele>642.2</ele><time>2026-04-08T17:22:57Z</time></trkpt><trkpt lat="39.34282576416328" lon="9.358154885527828"><ele>641.5999999999999</ele><time>2026-04-08T17:22:58Z</time></trkpt><trkpt lat="39.34272647188561" lon="9.358145141075376"><ele>641.0</ele><time>2026-04-08T17:22:59Z</time></trkpt><trkpt lat="39.342622111219235" lon="9.358155224767428"><ele>641.0</ele><time>2026-04-08T17:23:00Z</time></trkpt><trkpt lat="39.342528030539654" lon="9.35817014480595"><ele>641.0</ele><time>2026-04-08T17:23:01Z</time></trkpt><trkpt lat="39.34244228084132" lon="9.35818538309944"><ele>641.0</ele><time>2026-04-08T17:23:02Z</time></trkpt><trkpt lat="39.34237110940974" lon="9.358198030750916"><ele>641.0</ele><time>2026-04-08T17:23:03Z</time></trkpt><trkpt lat="39.34229389565094" lon="9.35821257711292"><ele>641.0</ele><time>2026-04-08T17:23:04Z</time></trkpt><trkpt lat="39.34219936898691" lon="9.358230761837163"><ele>641.0</ele><time>2026-04-08T17:23:05Z</time></trkpt><trkpt lat="39.34210474985102" lon="9.358248964361085"><ele>640.3333333333333</ele><time>2026-04-08T17:23:06Z</time></trkpt><trkpt lat="39.34201574793944" lon="9.358266086252502"><ele>639.6666666666666</ele><time>2026-04-08T17:23:07Z</time></trkpt><trkpt lat="39.34193961124859" lon="9.358301741179547"><ele>639.0</ele><time>2026-04-08T17:23:08Z</time></trkpt><trkpt lat="39.34186680795257" lon="9.35831034627263"><ele>638.3333333333334</ele><time>2026-04-08T17:23:09Z</time></trkpt><trkpt lat="39.34179854406682" lon="9.358319640017402"><ele>637.6666666666667</ele><time>2026-04-08T17:23:10Z</time></trkpt><trkpt lat="39.341700191902994" lon="9.358315433807526"><ele>637.0</ele><time>2026-04-08T17:23:12Z</time></trkpt><trkpt lat="39.34166908000299" lon="9.35851304291555"><ele>637.0</ele><time>2026-04-08T17:23:14Z</time></trkpt><trkpt lat="39.341660308882645" lon="9.358677231287992"><ele>637.0</ele><time>2026-04-08T17:23:15Z</time></trkpt><trkpt lat="39.34163811531656" lon="9.358859333427286"><ele>637.0</ele><time>2026-04-08T17:23:16Z</time></trkpt><trkpt lat="39.341616368616364" lon="9.359042831592905"><ele>637.0</ele><time>2026-04-08T17:23:17Z</time></trkpt><trkpt lat="39.34159909608235" lon="9.359201913364224"><ele>636.6</ele><time>2026-04-08T17:23:18Z</time></trkpt><trkpt lat="39.341582924335746" lon="9.359349753747727"><ele>636.2</ele><time>2026-04-08T17:23:19Z</time></trkpt><trkpt lat="39.341566008429965" lon="9.359492860264444"><ele>635.8</ele><time>2026-04-08T17:23:20Z</time></trkpt><trkpt lat="39.34154945472913" lon="9.35962472287478"><ele>635.4</ele><time>2026-04-08T17:23:21Z</time></trkpt><trkpt lat="39.34153671366198" lon="9.359738255687823"><ele>635.0</ele><time>2026-04-08T17:23:22Z</time></trkpt><trkpt lat="39.34152272239678" lon="9.359869976993314"><ele>634.8</ele><time>2026-04-08T17:23:24Z</time></trkpt><trkpt lat="39.341507285705084" lon="9.359964192677692"><ele>634.6</ele><time>2026-04-08T17:23:26Z</time></trkpt><trkpt lat="39.34161684342797" lon="9.36002445519254"><ele>634.4</ele><time>2026-04-08T17:23:27Z</time></trkpt><trkpt lat="39.34171464023782" lon="9.360072011280398"><ele>634.2</ele><time>2026-04-08T17:23:28Z</time></trkpt><trkpt lat="39.341797065013836" lon="9.360120819936574"><ele>634.0</ele><time>2026-04-08T17:23:29Z</time></trkpt><trkpt lat="39.34185584497517" lon="9.360179943195513"><ele>634.0</ele><time>2026-04-08T17:23:30Z</time></trkpt><trkpt lat="39.341912714411926" lon="9.360278089428228"><ele>634.0</ele><time>2026-04-08T17:23:32Z</time></trkpt><trkpt lat="39.341932682884" lon="9.36035549930634"><ele>634.0</ele><time>2026-04-08T17:23:35Z</time></trkpt><trkpt lat="39.34196437666468" lon="9.36044404328008"><ele>634.0</ele><time>2026-04-08T17:23:43Z</time></trkpt><trkpt lat="39.34192999469865" lon="9.360531035685714"><ele>634.0</ele><time>2026-04-08T17:23:46Z</time></trkpt><trkpt lat="39.34184628805573" lon="9.360556201095541"><ele>634.0</ele><time>2026-04-08T17:23:47Z</time></trkpt><trkpt lat="39.34174834695097" lon="9.36057774321868"><ele>634.1666666666667</ele><time>2026-04-08T17:23:48Z</time></trkpt><trkpt lat="39.341656664102835" lon="9.360615049639534"><ele>634.3333333333334</ele><time>2026-04-08T17:23:49Z</time></trkpt><trkpt lat="39.34156880594792" lon="9.360647308122942"><ele>634.5</ele><time>2026-04-08T17:23:50Z</time></trkpt><trkpt lat="39.34149989783021" lon="9.360673095124554"><ele>634.6666666666666</ele><time>2026-04-08T17:23:51Z</time></trkpt><trkpt lat="39.341426269363815" lon="9.360699952271396"><ele>634.8333333333333</ele><time>2026-04-08T17:23:52Z</time></trkpt><trkpt lat="39.34135233511655" lon="9.360736868929372"><ele>635.0</ele><time>2026-04-08T17:23:53Z</time></trkpt><trkpt lat="39.34127352092123" lon="9.360763951695574"><ele>635.0</ele><time>2026-04-08T17:23:54Z</time></trkpt><trkpt lat="39.34117893671296" lon="9.360798243126641"><ele>635.0</ele><time>2026-04-08T17:23:55Z</time></trkpt><trkpt lat="39.3410849770876" lon="9.360830905558606"><ele>635.0</ele><time>2026-04-08T17:23:56Z</time></trkpt><trkpt lat="39.34098917552668" lon="9.360864290335853"><ele>635.0</ele><time>2026-04-08T17:23:57Z</time></trkpt><trkpt lat="39.340888741553414" lon="9.360899252353894"><ele>635.0</ele><time>2026-04-08T17:23:58Z</time></trkpt><trkpt lat="39.340777538689714" lon="9.360940150418907"><ele>635.0</ele><time>2026-04-08T17:23:59Z</time></trkpt><trkpt lat="39.34067152385524" lon="9.360980228140154"><ele>635.0</ele><time>2026-04-08T17:24:00Z</time></trkpt><trkpt lat="39.34057430683483" lon="9.36101557715798"><ele>635.0</ele><time>2026-04-08T17:24:01Z</time></trkpt><trkpt lat="39.34048442185807" lon="9.361045954714902"><ele>635.0</ele><time>2026-04-08T17:24:02Z</time></trkpt><trkpt lat="39.34039736693837" lon="9.361076470486038"><ele>635.0</ele><time>2026-04-08T17:24:03Z</time></trkpt><trkpt lat="39.34031390805007" lon="9.361105509501154"><ele>635.1666666666666</ele><time>2026-04-08T17:24:04Z</time></trkpt><trkpt lat="39.34023733479217" lon="9.361130373240293"><ele>635.3333333333333</ele><time>2026-04-08T17:24:05Z</time></trkpt><trkpt lat="39.3401543266907" lon="9.361162974870268"><ele>635.5</ele><time>2026-04-08T17:24:06Z</time></trkpt><trkpt lat="39.34007892122816" lon="9.361188802367408"><ele>635.6666666666666</ele><time>2026-04-08T17:24:07Z</time></trkpt><trkpt lat="39.339993321294564" lon="9.361220051987578"><ele>635.8333333333334</ele><time>2026-04-08T17:24:08Z</time></trkpt><trkpt lat="39.33990245859325" lon="9.361256021708094"><ele>636.0</ele><time>2026-04-08T17:24:09Z</time></trkpt><trkpt lat="39.33980924199372" lon="9.361287197487655"><ele>636.0</ele><time>2026-04-08T17:24:10Z</time></trkpt><trkpt lat="39.339728587590436" lon="9.361318871147025"><ele>636.0</ele><time>2026-04-08T17:24:11Z</time></trkpt><trkpt lat="39.3396523451503" lon="9.361343680092284"><ele>636.0</ele><time>2026-04-08T17:24:12Z</time></trkpt><trkpt lat="39.3395826406248" lon="9.36136972849015"><ele>636.0</ele><time>2026-04-08T17:24:13Z</time></trkpt><trkpt lat="39.33951392068867" lon="9.36139581937504"><ele>636.0</ele><time>2026-04-08T17:24:14Z</time></trkpt><trkpt lat="39.33944660961508" lon="9.361419669545974"><ele>636.0</ele><time>2026-04-08T17:24:15Z</time></trkpt><trkpt lat="39.33938419186932" lon="9.361442590574004"><ele>636.0</ele><time>2026-04-08T17:24:16Z</time></trkpt><trkpt lat="39.339273635279575" lon="9.361487135104968"><ele>636.0</ele><time>2026-04-08T17:24:18Z</time></trkpt><trkpt lat="39.339167158031586" lon="9.361526078365827"><ele>636.0</ele><time>2026-04-08T17:24:20Z</time></trkpt><trkpt lat="39.33907950254904" lon="9.361557288274069"><ele>636.0</ele><time>2026-04-08T17:24:22Z</time></trkpt><trkpt lat="39.33895228073081" lon="9.361601423323426"><ele>636.0</ele><time>2026-04-08T17:24:24Z</time></trkpt><trkpt lat="39.33887942463596" lon="9.361629354650228"><ele>636.0</ele><time>2026-04-08T17:24:25Z</time></trkpt><trkpt lat="39.338803260661" lon="9.361659204416407"><ele>636.0</ele><time>2026-04-08T17:24:26Z</time></trkpt><trkpt lat="39.338728411110004" lon="9.361685771466089"><ele>636.0</ele><time>2026-04-08T17:24:27Z</time></trkpt><trkpt lat="39.33865026225167" lon="9.361717898688408"><ele>636.0</ele><time>2026-04-08T17:24:28Z</time></trkpt><trkpt lat="39.338560841286835" lon="9.361752786261098"><ele>636.0</ele><time>2026-04-08T17:24:29Z</time></trkpt><trkpt lat="39.33845851472033" lon="9.36179067270871"><ele>636.0</ele><time>2026-04-08T17:24:30Z</time></trkpt><trkpt lat="39.33834720370689" lon="9.361829477893169"><ele>636.0</ele><time>2026-04-08T17:24:31Z</time></trkpt><trkpt lat="39.338238439068924" lon="9.361870638276045"><ele>636.0</ele><time>2026-04-08T17:24:32Z</time></trkpt><trkpt lat="39.33811708054761" lon="9.361915553787032"><ele>636.0</ele><time>2026-04-08T17:24:33Z</time></trkpt><trkpt lat="39.33798209425615" lon="9.361969297307844"><ele>636.0</ele><time>2026-04-08T17:24:34Z</time></trkpt><trkpt lat="39.33784337074788" lon="9.362016045678155"><ele>636.0</ele><time>2026-04-08T17:24:35Z</time></trkpt><trkpt lat="39.33769996492991" lon="9.36208301298283"><ele>636.0</ele><time>2026-04-08T17:24:36Z</time></trkpt><trkpt lat="39.33754741775705" lon="9.362136976074543"><ele>636.0</ele><time>2026-04-08T17:24:37Z</time></trkpt><trkpt lat="39.337396338790235" lon="9.362181098403886"><ele>635.75</ele><time>2026-04-08T17:24:38Z</time></trkpt><trkpt lat="39.33725501922563" lon="9.362213688013318"><ele>635.5</ele><time>2026-04-08T17:24:39Z</time></trkpt><trkpt lat="39.337124173045254" lon="9.36226063590721"><ele>635.25</ele><time>2026-04-08T17:24:40Z</time></trkpt><trkpt lat="39.336994004663616" lon="9.362314931322118"><ele>635.0</ele><time>2026-04-08T17:24:41Z</time></trkpt><trkpt lat="39.3368587816438" lon="9.36236819125437"><ele>635.0</ele><time>2026-04-08T17:24:42Z</time></trkpt><trkpt lat="39.336718729295995" lon="9.36242019363447"><ele>635.0</ele><time>2026-04-08T17:24:43Z</time></trkpt><trkpt lat="39.33658221751467" lon="9.362468151817202"><ele>635.0</ele><time>2026-04-08T17:24:44Z</time></trkpt><trkpt lat="39.33646385825947" lon="9.362511376785202"><ele>635.0</ele><time>2026-04-08T17:24:45Z</time></trkpt><trkpt lat="39.336352836280355" lon="9.362549684657342"><ele>636.0</ele><time>2026-04-08T17:24:46Z</time></trkpt><trkpt lat="39.3362456207218" lon="9.362590032107468"><ele>637.0</ele><time>2026-04-08T17:24:47Z</time></trkpt><trkpt lat="39.336145749787256" lon="9.362625381263188"><ele>638.0</ele><time>2026-04-08T17:24:48Z</time></trkpt><trkpt lat="39.336039063115436" lon="9.362666934664132"><ele>639.0</ele><time>2026-04-08T17:24:49Z</time></trkpt><trkpt lat="39.3359220477385" lon="9.36271598815338"><ele>639.0</ele><time>2026-04-08T17:24:50Z</time></trkpt><trkpt lat="39.335797583347684" lon="9.36276589041547"><ele>639.0</ele><time>2026-04-08T17:24:51Z</time></trkpt><trkpt lat="39.335677478434015" lon="9.362812872177855"><ele>639.0</ele><time>2026-04-08T17:24:52Z</time></trkpt><trkpt lat="39.33556520091343" lon="9.362853661451215"><ele>639.0</ele><time>2026-04-08T17:24:53Z</time></trkpt><trkpt lat="39.33546689637608" lon="9.362891401655336"><ele>639.2</ele><time>2026-04-08T17:24:54Z</time></trkpt><trkpt lat="39.335371502939545" lon="9.362923259825138"><ele>639.4</ele><time>2026-04-08T17:24:55Z</time></trkpt><trkpt lat="39.335296188604666" lon="9.362945910682514"><ele>639.6</ele><time>2026-04-08T17:24:56Z</time></trkpt><trkpt lat="39.33521031982578" lon="9.362973771620844"><ele>639.8</ele><time>2026-04-08T17:24:58Z</time></trkpt><trkpt lat="39.33510897090339" lon="9.363022064297445"><ele>640.0</ele><time>2026-04-08T17:25:00Z</time></trkpt><trkpt lat="39.33500188618872" lon="9.363069925767858"><ele>639.3333333333334</ele><time>2026-04-08T17:25:01Z</time></trkpt><trkpt lat="39.33488416545963" lon="9.363093830035037"><ele>638.6666666666666</ele><time>2026-04-08T17:25:02Z</time></trkpt><trkpt lat="39.33473127706041" lon="9.363150320295778"><ele>638.0</ele><time>2026-04-08T17:25:03Z</time></trkpt><trkpt lat="39.334523155988386" lon="9.363227118802307"><ele>637.5</ele><time>2026-04-08T17:25:04Z</time></trkpt><trkpt lat="39.33428090306244" lon="9.363315367246921"><ele>637.0</ele><time>2026-04-08T17:25:05Z</time></trkpt><trkpt lat="39.33401776820231" lon="9.363412897911195"><ele>639.0</ele><time>2026-04-08T17:25:06Z</time></trkpt><trkpt lat="39.333760472341254" lon="9.363523284742293"><ele>641.0</ele><time>2026-04-08T17:25:07Z</time></trkpt><trkpt lat="39.33353236970029" lon="9.363603709850466"><ele>641.0</ele><time>2026-04-08T17:25:08Z</time></trkpt><trkpt lat="39.333327062606266" lon="9.36367837369969"><ele>641.0</ele><time>2026-04-08T17:25:09Z</time></trkpt><trkpt lat="39.333128433518254" lon="9.363748924541165"><ele>641.0</ele><time>2026-04-08T17:25:10Z</time></trkpt><trkpt lat="39.33291896785693" lon="9.363829414889494"><ele>642.0</ele><time>2026-04-08T17:25:11Z</time></trkpt><trkpt lat="39.33270877702141" lon="9.36390925987666"><ele>643.0</ele><time>2026-04-08T17:25:12Z</time></trkpt><trkpt lat="39.33250637747933" lon="9.363981571339728"><ele>644.0</ele><time>2026-04-08T17:25:13Z</time></trkpt><trkpt lat="39.33231697182329" lon="9.36405128811511"><ele>646.0</ele><time>2026-04-08T17:25:14Z</time></trkpt><trkpt lat="39.33214129973066" lon="9.36411192350766"><ele>648.0</ele><time>2026-04-08T17:25:15Z</time></trkpt><trkpt lat="39.331975099428966" lon="9.36417084622375"><ele>650.0</ele><time>2026-04-08T17:25:16Z</time></trkpt><trkpt lat="39.33181582684419" lon="9.364250061591028"><ele>650.0</ele><time>2026-04-08T17:25:17Z</time></trkpt><trkpt lat="39.33166014016628" lon="9.364354850930567"><ele>650.0</ele><time>2026-04-08T17:25:18Z</time></trkpt><trkpt lat="39.33150935143655" lon="9.364503416539069"><ele>650.0</ele><time>2026-04-08T17:25:19Z</time></trkpt><trkpt lat="39.331363772583856" lon="9.364668490395779"><ele>650.6666666666666</ele><time>2026-04-08T17:25:20Z</time></trkpt><trkpt lat="39.331244773949585" lon="9.364813516513038"><ele>651.3333333333334</ele><time>2026-04-08T17:25:21Z</time></trkpt><trkpt lat="39.33113115113402" lon="9.36494298204276"><ele>652.0</ele><time>2026-04-08T17:25:22Z</time></trkpt><trkpt lat="39.33100952309435" lon="9.365046928266072"><ele>652.0</ele><time>2026-04-08T17:25:23Z</time></trkpt><trkpt lat="39.33089528110382" lon="9.365161146954465"><ele>652.0</ele><time>2026-04-08T17:25:24Z</time></trkpt><trkpt lat="39.33078403459359" lon="9.365269766439548"><ele>652.0</ele><time>2026-04-08T17:25:25Z</time></trkpt><trkpt lat="39.330687398427344" lon="9.36537383798464"><ele>652.0</ele><time>2026-04-08T17:25:26Z</time></trkpt><trkpt lat="39.33057734775733" lon="9.365429043776222"><ele>651.0</ele><time>2026-04-08T17:25:27Z</time></trkpt><trkpt lat="39.33045560170142" lon="9.365458051307233"><ele>650.0</ele><time>2026-04-08T17:25:28Z</time></trkpt><trkpt lat="39.33033728685983" lon="9.36541544478248"><ele>649.0</ele><time>2026-04-08T17:25:29Z</time></trkpt><trkpt lat="39.33024238459269" lon="9.365325747149162"><ele>648.0</ele><time>2026-04-08T17:25:30Z</time></trkpt><trkpt lat="39.33016640625008" lon="9.36520462798044"><ele>648.0</ele><time>2026-04-08T17:25:31Z</time></trkpt><trkpt lat="39.33006581506006" lon="9.365132115409816"><ele>648.0</ele><time>2026-04-08T17:25:32Z</time></trkpt><trkpt lat="39.329939699752195" lon="9.36510448321739"><ele>648.0</ele><time>2026-04-08T17:25:33Z</time></trkpt><trkpt lat="39.329808883602844" lon="9.365124061954981"><ele>648.0</ele><time>2026-04-08T17:25:34Z</time></trkpt><trkpt lat="39.32967827374401" lon="9.36517071602982"><ele>647.0</ele><time>2026-04-08T17:25:35Z</time></trkpt><trkpt lat="39.32958162168651" lon="9.365299335011773"><ele>646.0</ele><time>2026-04-08T17:25:36Z</time></trkpt><trkpt lat="39.32953879846986" lon="9.365474724951902"><ele>645.0</ele><time>2026-04-08T17:25:37Z</time></trkpt><trkpt lat="39.32947720924068" lon="9.365651256385835"><ele>644.0</ele><time>2026-04-08T17:25:38Z</time></trkpt><trkpt lat="39.329432844610245" lon="9.365815032743251"><ele>644.0</ele><time>2026-04-08T17:25:39Z</time></trkpt><trkpt lat="39.32937729886328" lon="9.36595402514176"><ele>644.0</ele><time>2026-04-08T17:25:40Z</time></trkpt><trkpt lat="39.329294049886045" lon="9.36606871113429"><ele>644.0</ele><time>2026-04-08T17:25:41Z</time></trkpt><trkpt lat="39.329186770740726" lon="9.366164697646274"><ele>644.0</ele><time>2026-04-08T17:25:42Z</time></trkpt><trkpt lat="39.32908393911524" lon="9.366279449303626"><ele>644.5</ele><time>2026-04-08T17:25:43Z</time></trkpt><trkpt lat="39.32899257889208" lon="9.36640000319568"><ele>645.0</ele><time>2026-04-08T17:25:44Z</time></trkpt><trkpt lat="39.32892147562843" lon="9.366549559030437"><ele>645.5</ele><time>2026-04-08T17:25:45Z</time></trkpt><trkpt lat="39.32883445845614" lon="9.366670592310424"><ele>646.0</ele><time>2026-04-08T17:25:46Z</time></trkpt><trkpt lat="39.328743779730516" lon="9.366753231986307"><ele>646.0</ele><time>2026-04-08T17:25:47Z</time></trkpt><trkpt lat="39.32863700151962" lon="9.366814281589146"><ele>646.0</ele><time>2026-04-08T17:25:48Z</time></trkpt><trkpt lat="39.32849988649869" lon="9.366803821210604"><ele>646.0</ele><time>2026-04-08T17:25:49Z</time></trkpt><trkpt lat="39.328363490084335" lon="9.366753814686671"><ele>646.0</ele><time>2026-04-08T17:25:50Z</time></trkpt><trkpt lat="39.32823409312038" lon="9.366712298926178"><ele>646.0</ele><time>2026-04-08T17:25:51Z</time></trkpt><trkpt lat="39.32811230368484" lon="9.366706850250722"><ele>646.0</ele><time>2026-04-08T17:25:52Z</time></trkpt><trkpt lat="39.32798888451385" lon="9.366753061375777"><ele>646.0</ele><time>2026-04-08T17:25:53Z</time></trkpt><trkpt lat="39.32785321216306" lon="9.366838368394033"><ele>646.0</ele><time>2026-04-08T17:25:54Z</time></trkpt><trkpt lat="39.32770915449482" lon="9.366948795574656"><ele>645.6666666666667</ele><time>2026-04-08T17:25:55Z</time></trkpt><trkpt lat="39.32755142555214" lon="9.367041532083645"><ele>645.3333333333334</ele><time>2026-04-08T17:25:56Z</time></trkpt><trkpt lat="39.327416403698905" lon="9.367168924629226"><ele>645.0</ele><time>2026-04-08T17:25:57Z</time></trkpt><trkpt lat="39.32727998921558" lon="9.367259559079129"><ele>643.0</ele><time>2026-04-08T17:25:58Z</time></trkpt><trkpt lat="39.32715750439144" lon="9.367318501133282"><ele>641.0</ele><time>2026-04-08T17:25:59Z</time></trkpt><trkpt lat="39.32703994947238" lon="9.36732365167874"><ele>639.0</ele><time>2026-04-08T17:26:00Z</time></trkpt><trkpt lat="39.32691952054057" lon="9.367278513518082"><ele>637.0</ele><time>2026-04-08T17:26:01Z</time></trkpt><trkpt lat="39.32678974040467" lon="9.367206449723504"><ele>638.5</ele><time>2026-04-08T17:26:02Z</time></trkpt><trkpt lat="39.32666094067413" lon="9.367143400495598"><ele>640.0</ele><time>2026-04-08T17:26:03Z</time></trkpt><trkpt lat="39.326536728168534" lon="9.367116211223399"><ele>641.5</ele><time>2026-04-08T17:26:04Z</time></trkpt><trkpt lat="39.326405327559485" lon="9.367139002130099"><ele>643.0</ele><time>2026-04-08T17:26:05Z</time></trkpt><trkpt lat="39.32625551416767" lon="9.36720226765402"><ele>643.0</ele><time>2026-04-08T17:26:06Z</time></trkpt><trkpt lat="39.326103785449064" lon="9.367284746464861"><ele>643.0</ele><time>2026-04-08T17:26:07Z</time></trkpt><trkpt lat="39.32595762222561" lon="9.367364987173142"><ele>643.0</ele><time>2026-04-08T17:26:08Z</time></trkpt><trkpt lat="39.32581187153247" lon="9.367411461805457"><ele>643.0</ele><time>2026-04-08T17:26:09Z</time></trkpt><trkpt lat="39.325682014386935" lon="9.367471164854118"><ele>643.0</ele><time>2026-04-08T17:26:10Z</time></trkpt><trkpt lat="39.32555999308478" lon="9.367537311743304"><ele>643.0</ele><time>2026-04-08T17:26:11Z</time></trkpt><trkpt lat="39.32543612142168" lon="9.367529481409834"><ele>643.0</ele><time>2026-04-08T17:26:12Z</time></trkpt><trkpt lat="39.32531655062941" lon="9.367517559048327"><ele>640.6666666666667</ele><time>2026-04-08T17:26:13Z</time></trkpt><trkpt lat="39.32518460056341" lon="9.3674373515892"><ele>638.3333333333334</ele><time>2026-04-08T17:26:14Z</time></trkpt><trkpt lat="39.32503796343317" lon="9.367314926894498"><ele>636.0</ele><time>2026-04-08T17:26:15Z</time></trkpt><trkpt lat="39.32490552317803" lon="9.367230153031944"><ele>634.75</ele><time>2026-04-08T17:26:16Z</time></trkpt><trkpt lat="39.324786172884366" lon="9.367141009432139"><ele>633.5</ele><time>2026-04-08T17:26:17Z</time></trkpt><trkpt lat="39.32468199271896" lon="9.367020807170098"><ele>632.25</ele><time>2026-04-08T17:26:18Z</time></trkpt><trkpt lat="39.32459818286637" lon="9.366850468672828"><ele>631.0</ele><time>2026-04-08T17:26:19Z</time></trkpt><trkpt lat="39.3245292745561" lon="9.366650738535277"><ele>631.0</ele><time>2026-04-08T17:26:20Z</time></trkpt><trkpt lat="39.32446660735635" lon="9.366471189495527"><ele>631.0</ele><time>2026-04-08T17:26:21Z</time></trkpt><trkpt lat="39.32440346782137" lon="9.366311496454335"><ele>631.0</ele><time>2026-04-08T17:26:22Z</time></trkpt><trkpt lat="39.32433146403588" lon="9.366169042382031"><ele>631.0</ele><time>2026-04-08T17:26:23Z</time></trkpt><trkpt lat="39.32423885604932" lon="9.36605468094884"><ele>633.0</ele><time>2026-04-08T17:26:24Z</time></trkpt><trkpt lat="39.32411418806047" lon="9.365978253193772"><ele>635.0</ele><time>2026-04-08T17:26:25Z</time></trkpt><trkpt lat="39.32396957768429" lon="9.365933569031831"><ele>637.0</ele><time>2026-04-08T17:26:26Z</time></trkpt><trkpt lat="39.32382151994456" lon="9.365899485454872"><ele>639.0</ele><time>2026-04-08T17:26:27Z</time></trkpt><trkpt lat="39.32367031339005" lon="9.36586593433265"><ele>639.0</ele><time>2026-04-08T17:26:28Z</time></trkpt><trkpt lat="39.323518574753514" lon="9.365811380608443"><ele>639.0</ele><time>2026-04-08T17:26:29Z</time></trkpt><trkpt lat="39.323350311129396" lon="9.365816875356417"><ele>639.0</ele><time>2026-04-08T17:26:30Z</time></trkpt><trkpt lat="39.323183881770966" lon="9.36582692929333"><ele>637.6666666666666</ele><time>2026-04-08T17:26:31Z</time></trkpt><trkpt lat="39.323012160823595" lon="9.365847764028043"><ele>636.3333333333333</ele><time>2026-04-08T17:26:32Z</time></trkpt><trkpt lat="39.32284967613585" lon="9.365840420198763"><ele>635.0</ele><time>2026-04-08T17:26:33Z</time></trkpt><trkpt lat="39.32269914756355" lon="9.365853297052714"><ele>635.0</ele><time>2026-04-08T17:26:34Z</time></trkpt><trkpt lat="39.32255992764269" lon="9.365876018165693"><ele>635.0</ele><time>2026-04-08T17:26:35Z</time></trkpt><trkpt lat="39.32243598799771" lon="9.365852506029638"><ele>635.0</ele><time>2026-04-08T17:26:36Z</time></trkpt><trkpt lat="39.32232343254026" lon="9.365789657088987"><ele>635.0</ele><time>2026-04-08T17:26:37Z</time></trkpt><trkpt lat="39.32223192395986" lon="9.36567819969874"><ele>634.75</ele><time>2026-04-08T17:26:38Z</time></trkpt><trkpt lat="39.322169346640905" lon="9.365522017971399"><ele>634.5</ele><time>2026-04-08T17:26:39Z</time></trkpt><trkpt lat="39.32214267009029" lon="9.365343994847539"><ele>634.25</ele><time>2026-04-08T17:26:40Z</time></trkpt><trkpt lat="39.32215788180978" lon="9.365168601749838"><ele>634.0</ele><time>2026-04-08T17:26:41Z</time></trkpt><trkpt lat="39.32217634082835" lon="9.365023321443429"><ele>634.0</ele><time>2026-04-08T17:26:42Z</time></trkpt><trkpt lat="39.32216073577622" lon="9.364907992527023"><ele>634.0</ele><time>2026-04-08T17:26:43Z</time></trkpt><trkpt lat="39.322115860303406" lon="9.364792487117237"><ele>634.0</ele><time>2026-04-08T17:26:44Z</time></trkpt><trkpt lat="39.3220393343017" lon="9.364664275769934"><ele>634.0</ele><time>2026-04-08T17:26:45Z</time></trkpt><trkpt lat="39.321927600186605" lon="9.364566816197197"><ele>634.0</ele><time>2026-04-08T17:26:46Z</time></trkpt><trkpt lat="39.32180901641818" lon="9.36449989103672"><ele>634.0</ele><time>2026-04-08T17:26:47Z</time></trkpt><trkpt lat="39.32167312664616" lon="9.364518588366302"><ele>634.0</ele><time>2026-04-08T17:26:48Z</time></trkpt><trkpt lat="39.32155865476663" lon="9.364607218401998"><ele>634.0</ele><time>2026-04-08T17:26:49Z</time></trkpt><trkpt lat="39.32144875142138" lon="9.364729399187963"><ele>637.6666666666667</ele><time>2026-04-08T17:26:50Z</time></trkpt><trkpt lat="39.32135650653875" lon="9.364910561899032"><ele>641.3333333333334</ele><time>2026-04-08T17:26:51Z</time></trkpt><trkpt lat="39.32129305609171" lon="9.365130342978869"><ele>645.0</ele><time>2026-04-08T17:26:52Z</time></trkpt><trkpt lat="39.3212518303064" lon="9.365363431113746"><ele>643.6666666666666</ele><time>2026-04-08T17:26:53Z</time></trkpt><trkpt lat="39.32119126082274" lon="9.365572499019763"><ele>642.3333333333333</ele><time>2026-04-08T17:26:54Z</time></trkpt><trkpt lat="39.321145885373134" lon="9.365771699905343"><ele>641.0</ele><time>2026-04-08T17:26:55Z</time></trkpt><trkpt lat="39.32110401198639" lon="9.36594732076114"><ele>641.0</ele><time>2026-04-08T17:26:56Z</time></trkpt><trkpt lat="39.32104992324532" lon="9.366082655311075"><ele>641.0</ele><time>2026-04-08T17:26:57Z</time></trkpt><trkpt lat="39.320968762890764" lon="9.36618569988286"><ele>641.0</ele><time>2026-04-08T17:26:58Z</time></trkpt><trkpt lat="39.32085852449844" lon="9.366245625215294"><ele>641.0</ele><time>2026-04-08T17:26:59Z</time></trkpt><trkpt lat="39.320726287538704" lon="9.366246182987783"><ele>641.0</ele><time>2026-04-08T17:27:00Z</time></trkpt><trkpt lat="39.320575972769255" lon="9.366242370813694"><ele>641.0</ele><time>2026-04-08T17:27:01Z</time></trkpt><trkpt lat="39.320437162797425" lon="9.366276157823341"><ele>641.0</ele><time>2026-04-08T17:27:02Z</time></trkpt><trkpt lat="39.320298701776075" lon="9.366343064903694"><ele>641.0</ele><time>2026-04-08T17:27:03Z</time></trkpt><trkpt lat="39.320151973275486" lon="9.366371389889801"><ele>634.75</ele><time>2026-04-08T17:27:04Z</time></trkpt><trkpt lat="39.32002059231328" lon="9.366436838510309"><ele>628.5</ele><time>2026-04-08T17:27:05Z</time></trkpt><trkpt lat="39.31988575472702" lon="9.366471688072696"><ele>622.25</ele><time>2026-04-08T17:27:06Z</time></trkpt><trkpt lat="39.31974089933165" lon="9.366480529753503"><ele>616.0</ele><time>2026-04-08T17:27:07Z</time></trkpt><trkpt lat="39.31958639007933" lon="9.36642848051631"><ele>613.75</ele><time>2026-04-08T17:27:08Z</time></trkpt><trkpt lat="39.319437857101335" lon="9.366391868485355"><ele>611.5</ele><time>2026-04-08T17:27:09Z</time></trkpt><trkpt lat="39.31931039276749" lon="9.366315308099553"><ele>609.25</ele><time>2026-04-08T17:27:10Z</time></trkpt><trkpt lat="39.3192006073202" lon="9.366228811338486"><ele>607.0</ele><time>2026-04-08T17:27:11Z</time></trkpt><trkpt lat="39.31909192612721" lon="9.366172264464199"><ele>612.75</ele><time>2026-04-08T17:27:12Z</time></trkpt><trkpt lat="39.31897568649697" lon="9.366153848443393"><ele>618.5</ele><time>2026-04-08T17:27:13Z</time></trkpt><trkpt lat="39.31884488743791" lon="9.366232245988739"><ele>624.25</ele><time>2026-04-08T17:27:14Z</time></trkpt><trkpt lat="39.318708093866" lon="9.366286625748229"><ele>630.0</ele><time>2026-04-08T17:27:15Z</time></trkpt><trkpt lat="39.31856202139401" lon="9.366262358388207"><ele>630.0</ele><time>2026-04-08T17:27:16Z</time></trkpt><trkpt lat="39.318431675009066" lon="9.366249609858707"><ele>630.0</ele><time>2026-04-08T17:27:17Z</time></trkpt><trkpt lat="39.318313684932065" lon="9.366170277421924"><ele>630.0</ele><time>2026-04-08T17:27:18Z</time></trkpt><trkpt lat="39.31819793083544" lon="9.36605984983301"><ele>630.0</ele><time>2026-04-08T17:27:19Z</time></trkpt><trkpt lat="39.31808956372184" lon="9.365921211990077"><ele>626.0</ele><time>2026-04-08T17:27:20Z</time></trkpt><trkpt lat="39.3179915417974" lon="9.365794751687904"><ele>622.0</ele><time>2026-04-08T17:27:21Z</time></trkpt><trkpt lat="39.31788851413968" lon="9.365689728568503"><ele>618.0</ele><time>2026-04-08T17:27:22Z</time></trkpt><trkpt lat="39.31777745310703" lon="9.365610255611257"><ele>614.0</ele><time>2026-04-08T17:27:23Z</time></trkpt><trkpt lat="39.31766358066342" lon="9.365545526626503"><ele>614.25</ele><time>2026-04-08T17:27:24Z</time></trkpt><trkpt lat="39.317546900252" lon="9.365485248132373"><ele>614.5</ele><time>2026-04-08T17:27:25Z</time></trkpt><trkpt lat="39.31743188411506" lon="9.36545536116052"><ele>614.75</ele><time>2026-04-08T17:27:26Z</time></trkpt><trkpt lat="39.31731449435114" lon="9.36548885369524"><ele>615.0</ele><time>2026-04-08T17:27:27Z</time></trkpt><trkpt lat="39.3172209623781" lon="9.365563690194843"><ele>618.5</ele><time>2026-04-08T17:27:28Z</time></trkpt><trkpt lat="39.31714407895825" lon="9.365663798479686"><ele>622.0</ele><time>2026-04-08T17:27:29Z</time></trkpt><trkpt lat="39.31708634100432" lon="9.365796030804436"><ele>625.5</ele><time>2026-04-08T17:27:30Z</time></trkpt><trkpt lat="39.31706255089277" lon="9.365951403194174"><ele>629.0</ele><time>2026-04-08T17:27:31Z</time></trkpt><trkpt lat="39.31706788622838" lon="9.366136199876486"><ele>629.0</ele><time>2026-04-08T17:27:32Z</time></trkpt><trkpt lat="39.317091968364274" lon="9.366319971864447"><ele>629.0</ele><time>2026-04-08T17:27:33Z</time></trkpt><trkpt lat="39.31711040814467" lon="9.366502807181249"><ele>629.0</ele><time>2026-04-08T17:27:34Z</time></trkpt><trkpt lat="39.31710671218655" lon="9.366677598757821"><ele>629.0</ele><time>2026-04-08T17:27:35Z</time></trkpt><trkpt lat="39.31707697021663" lon="9.366857503190314"><ele>629.0</ele><time>2026-04-08T17:27:36Z</time></trkpt><trkpt lat="39.31703232849494" lon="9.367019419074628"><ele>629.0</ele><time>2026-04-08T17:27:37Z</time></trkpt><trkpt lat="39.316990352041024" lon="9.367166212531508"><ele>629.0</ele><time>2026-04-08T17:27:38Z</time></trkpt><trkpt lat="39.31694391562976" lon="9.367300282111664"><ele>629.0</ele><time>2026-04-08T17:27:39Z</time></trkpt><trkpt lat="39.316881780012224" lon="9.367410832313027"><ele>626.0</ele><time>2026-04-08T17:27:40Z</time></trkpt><trkpt lat="39.316793427558046" lon="9.367491994083327"><ele>623.0</ele><time>2026-04-08T17:27:41Z</time></trkpt><trkpt lat="39.316676363043776" lon="9.36752938761211"><ele>620.0</ele><time>2026-04-08T17:27:42Z</time></trkpt><trkpt lat="39.31655295713467" lon="9.36754443027805"><ele>617.0</ele><time>2026-04-08T17:27:43Z</time></trkpt><trkpt lat="39.31643850875238" lon="9.36758289989573"><ele>618.75</ele><time>2026-04-08T17:27:44Z</time></trkpt><trkpt lat="39.31633421581788" lon="9.367722682446537"><ele>620.5</ele><time>2026-04-08T17:27:45Z</time></trkpt><trkpt lat="39.31623796915312" lon="9.36787675474464"><ele>622.25</ele><time>2026-04-08T17:27:46Z</time></trkpt><trkpt lat="39.316157642449525" lon="9.368010326736233"><ele>624.0</ele><time>2026-04-08T17:27:47Z</time></trkpt><trkpt lat="39.31608118799443" lon="9.36813035245667"><ele>624.0</ele><time>2026-04-08T17:27:48Z</time></trkpt><trkpt lat="39.31601480248973" lon="9.368241155926212"><ele>624.0</ele><time>2026-04-08T17:27:49Z</time></trkpt><trkpt lat="39.31597388400262" lon="9.368378445294864"><ele>624.0</ele><time>2026-04-08T17:27:50Z</time></trkpt><trkpt lat="39.3159679686337" lon="9.368549282017698"><ele>624.0</ele><time>2026-04-08T17:27:51Z</time></trkpt><trkpt lat="39.3160030214614" lon="9.368731029123452"><ele>623.0</ele><time>2026-04-08T17:27:52Z</time></trkpt><trkpt lat="39.316050722576314" lon="9.36890380639025"><ele>622.0</ele><time>2026-04-08T17:27:53Z</time></trkpt><trkpt lat="39.31606355705191" lon="9.369064315801454"><ele>621.0</ele><time>2026-04-08T17:27:54Z</time></trkpt><trkpt lat="39.31603195419046" lon="9.36922452763242"><ele>620.0</ele><time>2026-04-08T17:27:55Z</time></trkpt><trkpt lat="39.31596593660499" lon="9.369375667836328"><ele>620.0</ele><time>2026-04-08T17:27:56Z</time></trkpt><trkpt lat="39.31590783317734" lon="9.369503866207868"><ele>620.0</ele><time>2026-04-08T17:27:57Z</time></trkpt><trkpt lat="39.31587581249525" lon="9.369659041479073"><ele>620.0</ele><time>2026-04-08T17:27:58Z</time></trkpt><trkpt lat="39.31586914943733" lon="9.36982591083271"><ele>620.0</ele><time>2026-04-08T17:27:59Z</time></trkpt><trkpt lat="39.315880834446155" lon="9.369998463258254"><ele>619.75</ele><time>2026-04-08T17:28:00Z</time></trkpt><trkpt lat="39.31590072388302" lon="9.370159355703477"><ele>619.5</ele><time>2026-04-08T17:28:01Z</time></trkpt><trkpt lat="39.31595241221021" lon="9.370301664588348"><ele>619.25</ele><time>2026-04-08T17:28:02Z</time></trkpt><trkpt lat="39.316038264772" lon="9.370427240880366"><ele>619.0</ele><time>2026-04-08T17:28:03Z</time></trkpt><trkpt lat="39.316140604676455" lon="9.370523557447628"><ele>620.75</ele><time>2026-04-08T17:28:04Z</time></trkpt><trkpt lat="39.3162186756832" lon="9.3706216370222"><ele>622.5</ele><time>2026-04-08T17:28:05Z</time></trkpt><trkpt lat="39.31626269310507" lon="9.370739247713198"><ele>624.25</ele><time>2026-04-08T17:28:06Z</time></trkpt><trkpt lat="39.316281813947214" lon="9.3708968237904"><ele>626.0</ele><time>2026-04-08T17:28:07Z</time></trkpt><trkpt lat="39.316288293606924" lon="9.371086060400026"><ele>626.0</ele><time>2026-04-08T17:28:08Z</time></trkpt><trkpt lat="39.31628640074263" lon="9.371270749137604"><ele>626.0</ele><time>2026-04-08T17:28:09Z</time></trkpt><trkpt lat="39.31627287365835" lon="9.371451632689196"><ele>626.0</ele><time>2026-04-08T17:28:10Z</time></trkpt><trkpt lat="39.316242863502694" lon="9.371624332781858"><ele>626.0</ele><time>2026-04-08T17:28:11Z</time></trkpt><trkpt lat="39.31618877823658" lon="9.371775177294671"><ele>625.0</ele><time>2026-04-08T17:28:12Z</time></trkpt><trkpt lat="39.316087527054584" lon="9.371890665338162"><ele>624.0</ele><time>2026-04-08T17:28:13Z</time></trkpt><trkpt lat="39.315964302266295" lon="9.372012104589116"><ele>623.0</ele><time>2026-04-08T17:28:14Z</time></trkpt><trkpt lat="39.31582155650179" lon="9.372119139698452"><ele>621.0</ele><time>2026-04-08T17:28:15Z</time></trkpt><trkpt lat="39.315675062126076" lon="9.372255579307119"><ele>619.0</ele><time>2026-04-08T17:28:16Z</time></trkpt><trkpt lat="39.31553188150195" lon="9.372364969541064"><ele>617.0</ele><time>2026-04-08T17:28:17Z</time></trkpt><trkpt lat="39.31539415277095" lon="9.37247017029949"><ele>617.0</ele><time>2026-04-08T17:28:18Z</time></trkpt><trkpt lat="39.31526773836432" lon="9.372567125677243"><ele>617.0</ele><time>2026-04-08T17:28:19Z</time></trkpt><trkpt lat="39.315150216255496" lon="9.372655176046253"><ele>617.0</ele><time>2026-04-08T17:28:20Z</time></trkpt><trkpt lat="39.31504977126553" lon="9.372739557800998"><ele>617.0</ele><time>2026-04-08T17:28:21Z</time></trkpt><trkpt lat="39.31496702543049" lon="9.372844695651645"><ele>617.0</ele><time>2026-04-08T17:28:22Z</time></trkpt><trkpt lat="39.314917874043815" lon="9.372973662609086"><ele>617.0</ele><time>2026-04-08T17:28:23Z</time></trkpt><trkpt lat="39.314892335526906" lon="9.373120099176772"><ele>617.0</ele><time>2026-04-08T17:28:24Z</time></trkpt><trkpt lat="39.31486737455926" lon="9.373268834929133"><ele>617.0</ele><time>2026-04-08T17:28:25Z</time></trkpt><trkpt lat="39.31481816164314" lon="9.373408266625386"><ele>616.75</ele><time>2026-04-08T17:28:26Z</time></trkpt><trkpt lat="39.31473985657736" lon="9.373529294721298"><ele>616.5</ele><time>2026-04-08T17:28:27Z</time></trkpt><trkpt lat="39.31461979382021" lon="9.373586121412783"><ele>616.25</ele><time>2026-04-08T17:28:28Z</time></trkpt><trkpt lat="39.31449158944411" lon="9.373623655440367"><ele>616.0</ele><time>2026-04-08T17:28:29Z</time></trkpt><trkpt lat="39.31435304700297" lon="9.373683495072601"><ele>616.0</ele><time>2026-04-08T17:28:30Z</time></trkpt><trkpt lat="39.31420558916878" lon="9.37372178522025"><ele>616.0</ele><time>2026-04-08T17:28:31Z</time></trkpt><trkpt lat="39.31404661490439" lon="9.373762215477827"><ele>616.0</ele><time>2026-04-08T17:28:32Z</time></trkpt><trkpt lat="39.31389747949038" lon="9.373800133542018"><ele>615.0</ele><time>2026-04-08T17:28:33Z</time></trkpt><trkpt lat="39.31374507502307" lon="9.373830739279287"><ele>614.0</ele><time>2026-04-08T17:28:34Z</time></trkpt><trkpt lat="39.31358260237928" lon="9.373835030623594"><ele>613.0</ele><time>2026-04-08T17:28:35Z</time></trkpt><trkpt lat="39.31342731120187" lon="9.373836716602606"><ele>613.0</ele><time>2026-04-08T17:28:36Z</time></trkpt><trkpt lat="39.31328659289576" lon="9.373851781843358"><ele>613.0</ele><time>2026-04-08T17:28:37Z</time></trkpt><trkpt lat="39.31315370119114" lon="9.373908481398471"><ele>613.0</ele><time>2026-04-08T17:28:38Z</time></trkpt><trkpt lat="39.31303628253997" lon="9.374022865625886"><ele>613.0</ele><time>2026-04-08T17:28:39Z</time></trkpt><trkpt lat="39.31293680172258" lon="9.374181143664892"><ele>611.0</ele><time>2026-04-08T17:28:40Z</time></trkpt><trkpt lat="39.31287261642055" lon="9.374367746459779"><ele>609.0</ele><time>2026-04-08T17:28:41Z</time></trkpt><trkpt lat="39.31284573526093" lon="9.374551034572752"><ele>607.0</ele><time>2026-04-08T17:28:42Z</time></trkpt><trkpt lat="39.31285547419984" lon="9.374724195063328"><ele>605.0</ele><time>2026-04-08T17:28:43Z</time></trkpt><trkpt lat="39.31290873475575" lon="9.374890952562495"><ele>605.0</ele><time>2026-04-08T17:28:44Z</time></trkpt><trkpt lat="39.3130006372551" lon="9.37503988473072"><ele>605.0</ele><time>2026-04-08T17:28:45Z</time></trkpt><trkpt lat="39.313114822978946" lon="9.375174619478777"><ele>605.0</ele><time>2026-04-08T17:28:46Z</time></trkpt><trkpt lat="39.31322471249044" lon="9.375300840396832"><ele>605.0</ele><time>2026-04-08T17:28:47Z</time></trkpt><trkpt lat="39.31331146770119" lon="9.375440571056464"><ele>604.25</ele><time>2026-04-08T17:28:48Z</time></trkpt><trkpt lat="39.313376432312516" lon="9.37560605872611"><ele>603.5</ele><time>2026-04-08T17:28:49Z</time></trkpt><trkpt lat="39.31342334362385" lon="9.375784944601591"><ele>602.75</ele><time>2026-04-08T17:28:50Z</time></trkpt><trkpt lat="39.313479629181124" lon="9.375940175593875"><ele>602.0</ele><time>2026-04-08T17:28:51Z</time></trkpt><trkpt lat="39.313567264929134" lon="9.376058851755731"><ele>602.0</ele><time>2026-04-08T17:28:52Z</time></trkpt><trkpt lat="39.313669516493405" lon="9.376144003880809"><ele>602.0</ele><time>2026-04-08T17:28:53Z</time></trkpt><trkpt lat="39.31378011898091" lon="9.376217491461544"><ele>602.0</ele><time>2026-04-08T17:28:54Z</time></trkpt><trkpt lat="39.31387182149131" lon="9.376313632027262"><ele>602.0</ele><time>2026-04-08T17:28:55Z</time></trkpt><trkpt lat="39.31392399330628" lon="9.37644819711509"><ele>598.5</ele><time>2026-04-08T17:28:56Z</time></trkpt><trkpt lat="39.31395281333023" lon="9.376646127314752"><ele>595.0</ele><time>2026-04-08T17:28:57Z</time></trkpt><trkpt lat="39.313960896880594" lon="9.376819484768312"><ele>591.5</ele><time>2026-04-08T17:28:58Z</time></trkpt><trkpt lat="39.313981197665896" lon="9.37697614776464"><ele>588.0</ele><time>2026-04-08T17:28:59Z</time></trkpt><trkpt lat="39.314024534323806" lon="9.377139633906198"><ele>588.0</ele><time>2026-04-08T17:29:00Z</time></trkpt><trkpt lat="39.3140691829791" lon="9.377293462550185"><ele>588.0</ele><time>2026-04-08T17:29:01Z</time></trkpt><trkpt lat="39.31408918600486" lon="9.3774445087261"><ele>588.0</ele><time>2026-04-08T17:29:02Z</time></trkpt><trkpt lat="39.31406489722191" lon="9.377594124978025"><ele>588.0</ele><time>2026-04-08T17:29:03Z</time></trkpt><trkpt lat="39.313999124909394" lon="9.377733986220269"><ele>588.0</ele><time>2026-04-08T17:29:04Z</time></trkpt><trkpt lat="39.313925714653884" lon="9.377867616314981"><ele>588.0</ele><time>2026-04-08T17:29:05Z</time></trkpt><trkpt lat="39.313880614692486" lon="9.378008257604547"><ele>588.0</ele><time>2026-04-08T17:29:06Z</time></trkpt><trkpt lat="39.313870248720086" lon="9.37815414692034"><ele>588.0</ele><time>2026-04-08T17:29:07Z</time></trkpt><trkpt lat="39.31386931977798" lon="9.378298275989557"><ele>591.5</ele><time>2026-04-08T17:29:08Z</time></trkpt><trkpt lat="39.31383339504235" lon="9.378422951141445"><ele>595.0</ele><time>2026-04-08T17:29:09Z</time></trkpt><trkpt lat="39.313753570990805" lon="9.378537783056982"><ele>598.5</ele><time>2026-04-08T17:29:10Z</time></trkpt><trkpt lat="39.31365261959318" lon="9.378634597101218"><ele>602.0</ele><time>2026-04-08T17:29:11Z</time></trkpt><trkpt lat="39.313531302301854" lon="9.378663401165813"><ele>602.0</ele><time>2026-04-08T17:29:12Z</time></trkpt><trkpt lat="39.31339423675592" lon="9.378704413976852"><ele>602.0</ele><time>2026-04-08T17:29:13Z</time></trkpt><trkpt lat="39.31323919432013" lon="9.37872992452434"><ele>602.0</ele><time>2026-04-08T17:29:14Z</time></trkpt><trkpt lat="39.31307828687745" lon="9.37877272083381"><ele>602.3333333333333</ele><time>2026-04-08T17:29:15Z</time></trkpt><trkpt lat="39.31291488113995" lon="9.37882369200015"><ele>602.6666666666666</ele><time>2026-04-08T17:29:16Z</time></trkpt><trkpt lat="39.31274599388603" lon="9.37889196485019"><ele>603.0</ele><time>2026-04-08T17:29:17Z</time></trkpt><trkpt lat="39.31258132040746" lon="9.378959664652507"><ele>598.0</ele><time>2026-04-08T17:29:18Z</time></trkpt><trkpt lat="39.31243208552382" lon="9.379056850244636"><ele>593.0</ele><time>2026-04-08T17:29:19Z</time></trkpt><trkpt lat="39.31228845978992" lon="9.379150991058598"><ele>588.0</ele><time>2026-04-08T17:29:20Z</time></trkpt><trkpt lat="39.312155957371964" lon="9.379263058780234"><ele>585.75</ele><time>2026-04-08T17:29:21Z</time></trkpt><trkpt lat="39.312013786854074" lon="9.379345237613949"><ele>583.5</ele><time>2026-04-08T17:29:22Z</time></trkpt><trkpt lat="39.3118726247629" lon="9.379365192426564"><ele>581.25</ele><time>2026-04-08T17:29:23Z</time></trkpt><trkpt lat="39.31174191894913" lon="9.379342928525219"><ele>579.0</ele><time>2026-04-08T17:29:24Z</time></trkpt><trkpt lat="39.311607762488926" lon="9.379315269006707"><ele>579.0</ele><time>2026-04-08T17:29:25Z</time></trkpt><trkpt lat="39.311489857533815" lon="9.379266592954034"><ele>579.0</ele><time>2026-04-08T17:29:26Z</time></trkpt><trkpt lat="39.31140162798702" lon="9.37917533129426"><ele>579.0</ele><time>2026-04-08T17:29:27Z</time></trkpt><trkpt lat="39.3113508835276" lon="9.379040200112692"><ele>579.0</ele><time>2026-04-08T17:29:28Z</time></trkpt><trkpt lat="39.311336642902624" lon="9.378891936873408"><ele>578.0</ele><time>2026-04-08T17:29:29Z</time></trkpt><trkpt lat="39.31131110236458" lon="9.378757600849251"><ele>577.0</ele><time>2026-04-08T17:29:30Z</time></trkpt><trkpt lat="39.31124977980463" lon="9.3786342171592"><ele>576.0</ele><time>2026-04-08T17:29:31Z</time></trkpt><trkpt lat="39.311146124712266" lon="9.378545660640812"><ele>575.0</ele><time>2026-04-08T17:29:32Z</time></trkpt><trkpt lat="39.31099903036884" lon="9.378491918154845"><ele>575.0</ele><time>2026-04-08T17:29:33Z</time></trkpt><trkpt lat="39.31082886673366" lon="9.378458493357154"><ele>575.0</ele><time>2026-04-08T17:29:34Z</time></trkpt><trkpt lat="39.310677600942626" lon="9.378424490694124"><ele>575.0</ele><time>2026-04-08T17:29:35Z</time></trkpt><trkpt lat="39.31054249964806" lon="9.37839153750033"><ele>573.25</ele><time>2026-04-08T17:29:36Z</time></trkpt><trkpt lat="39.310425900256554" lon="9.378344586823617"><ele>571.5</ele><time>2026-04-08T17:29:37Z</time></trkpt><trkpt lat="39.310313628278095" lon="9.378349883282644"><ele>569.75</ele><time>2026-04-08T17:29:38Z</time></trkpt><trkpt lat="39.310204318327244" lon="9.378397662653596"><ele>568.0</ele><time>2026-04-08T17:29:39Z</time></trkpt><trkpt lat="39.31011451634856" lon="9.378519014872571"><ele>568.0</ele><time>2026-04-08T17:29:40Z</time></trkpt><trkpt lat="39.31007247253613" lon="9.37867438035949"><ele>568.0</ele><time>2026-04-08T17:29:41Z</time></trkpt><trkpt lat="39.31004046988483" lon="9.378851592590827"><ele>568.0</ele><time>2026-04-08T17:29:42Z</time></trkpt><trkpt lat="39.31002058429251" lon="9.379026046668473"><ele>568.0</ele><time>2026-04-08T17:29:43Z</time></trkpt><trkpt lat="39.309984124878795" lon="9.379184114825634"><ele>567.0</ele><time>2026-04-08T17:29:44Z</time></trkpt><trkpt lat="39.30996174640904" lon="9.379328331835747"><ele>566.0</ele><time>2026-04-08T17:29:45Z</time></trkpt><trkpt lat="39.309927935063286" lon="9.379459546557545"><ele>565.0</ele><time>2026-04-08T17:29:46Z</time></trkpt><trkpt lat="39.30986757184793" lon="9.379569425039923"><ele>564.0</ele><time>2026-04-08T17:29:47Z</time></trkpt><trkpt lat="39.30978141164157" lon="9.37966573173805"><ele>563.0</ele><time>2026-04-08T17:29:48Z</time></trkpt><trkpt lat="39.309651145486825" lon="9.37966495682957"><ele>561.5</ele><time>2026-04-08T17:29:49Z</time></trkpt><trkpt lat="39.3095316615197" lon="9.379682440549523"><ele>560.0</ele><time>2026-04-08T17:29:50Z</time></trkpt><trkpt lat="39.30942286903351" lon="9.379745714753824"><ele>558.5</ele><time>2026-04-08T17:29:51Z</time></trkpt><trkpt lat="39.30934433737007" lon="9.379894681045085"><ele>557.0</ele><time>2026-04-08T17:29:52Z</time></trkpt><trkpt lat="39.309279430055064" lon="9.380058267042184"><ele>557.0</ele><time>2026-04-08T17:29:53Z</time></trkpt><trkpt lat="39.30919593774266" lon="9.380188079553145"><ele>557.0</ele><time>2026-04-08T17:29:54Z</time></trkpt><trkpt lat="39.3090989643927" lon="9.380275668594686"><ele>557.0</ele><time>2026-04-08T17:29:55Z</time></trkpt><trkpt lat="39.308989297754735" lon="9.380324795043187"><ele>557.0</ele><time>2026-04-08T17:29:56Z</time></trkpt><trkpt lat="39.30887982954672" lon="9.380380452505866"><ele>556.75</ele><time>2026-04-08T17:29:57Z</time></trkpt><trkpt lat="39.30879229048201" lon="9.380489438262268"><ele>556.5</ele><time>2026-04-08T17:29:58Z</time></trkpt><trkpt lat="39.30875460225844" lon="9.380671228569572"><ele>556.25</ele><time>2026-04-08T17:29:59Z</time></trkpt><trkpt lat="39.3087293451559" lon="9.380871418713271"><ele>556.0</ele><time>2026-04-08T17:30:00Z</time></trkpt><trkpt lat="39.308670083507224" lon="9.381062574552834"><ele>556.0</ele><time>2026-04-08T17:30:01Z</time></trkpt><trkpt lat="39.308615398040025" lon="9.381242673571968"><ele>556.0</ele><time>2026-04-08T17:30:02Z</time></trkpt><trkpt lat="39.30856350743412" lon="9.381413568108284"><ele>556.0</ele><time>2026-04-08T17:30:03Z</time></trkpt><trkpt lat="39.30851532645333" lon="9.381570640317868"><ele>556.0</ele><time>2026-04-08T17:30:04Z</time></trkpt><trkpt lat="39.308478330073356" lon="9.38171854955159"><ele>552.25</ele><time>2026-04-08T17:30:05Z</time></trkpt><trkpt lat="39.30840343558776" lon="9.38182836701244"><ele>548.5</ele><time>2026-04-08T17:30:06Z</time></trkpt><trkpt lat="39.308292032565" lon="9.38187940468161"><ele>544.75</ele><time>2026-04-08T17:30:07Z</time></trkpt><trkpt lat="39.30818145292346" lon="9.381912230293608"><ele>541.0</ele><time>2026-04-08T17:30:08Z</time></trkpt><trkpt lat="39.30804963502948" lon="9.38186895925782"><ele>540.4</ele><time>2026-04-08T17:30:09Z</time></trkpt><trkpt lat="39.30793504028661" lon="9.3818107682246"><ele>539.8</ele><time>2026-04-08T17:30:10Z</time></trkpt><trkpt lat="39.30782752923004" lon="9.38179677062428"><ele>539.1999999999999</ele><time>2026-04-08T17:30:11Z</time></trkpt><trkpt lat="39.30773287406035" lon="9.381852725786828"><ele>538.6</ele><time>2026-04-08T17:30:12Z</time></trkpt><trkpt lat="39.30766491558609" lon="9.381948111047192"><ele>538.0</ele><time>2026-04-08T17:30:13Z</time></trkpt><trkpt lat="39.30766587074314" lon="9.382118449103094"><ele>536.3333333333334</ele><time>2026-04-08T17:30:14Z</time></trkpt><trkpt lat="39.30769211384024" lon="9.382317548037538"><ele>534.6666666666666</ele><time>2026-04-08T17:30:15Z</time></trkpt><trkpt lat="39.30773129415437" lon="9.382513193052015"><ele>533.0</ele><time>2026-04-08T17:30:16Z</time></trkpt><trkpt lat="39.307748279278" lon="9.382691116769333"><ele>533.0</ele><time>2026-04-08T17:30:17Z</time></trkpt><trkpt lat="39.30776787383931" lon="9.382849894347256"><ele>533.0</ele><time>2026-04-08T17:30:18Z</time></trkpt><trkpt lat="39.30777763807146" lon="9.383004997142052"><ele>533.0</ele><time>2026-04-08T17:30:19Z</time></trkpt><trkpt lat="39.307709013171085" lon="9.38314429996718"><ele>533.0</ele><time>2026-04-08T17:30:20Z</time></trkpt><trkpt lat="39.30769417201038" lon="9.383291929838444"><ele>530.25</ele><time>2026-04-08T17:30:21Z</time></trkpt><trkpt lat="39.30771639527357" lon="9.383451676557582"><ele>527.5</ele><time>2026-04-08T17:30:22Z</time></trkpt><trkpt lat="39.30777886507763" lon="9.383612226517888"><ele>524.75</ele><time>2026-04-08T17:30:23Z</time></trkpt><trkpt lat="39.30781683319027" lon="9.3837787846163"><ele>522.0</ele><time>2026-04-08T17:30:24Z</time></trkpt><trkpt lat="39.30781967265633" lon="9.383955736828792"><ele>519.5</ele><time>2026-04-08T17:30:25Z</time></trkpt><trkpt lat="39.30782226434966" lon="9.384140635576532"><ele>517.0</ele><time>2026-04-08T17:30:26Z</time></trkpt><trkpt lat="39.30783721900095" lon="9.384313896519565"><ele>514.5</ele><time>2026-04-08T17:30:27Z</time></trkpt><trkpt lat="39.30790626039778" lon="9.38449441287319"><ele>512.0</ele><time>2026-04-08T17:30:28Z</time></trkpt><trkpt lat="39.307957993066964" lon="9.384671310034978"><ele>510.75</ele><time>2026-04-08T17:30:29Z</time></trkpt><trkpt lat="39.3080061631487" lon="9.384837344310833"><ele>509.5</ele><time>2026-04-08T17:30:30Z</time></trkpt><trkpt lat="39.308046201682664" lon="9.384988011905627"><ele>508.25</ele><time>2026-04-08T17:30:31Z</time></trkpt><trkpt lat="39.30805960239521" lon="9.385133244003574"><ele>507.0</ele><time>2026-04-08T17:30:32Z</time></trkpt><trkpt lat="39.3080424034389" lon="9.385277993347573"><ele>507.0</ele><time>2026-04-08T17:30:33Z</time></trkpt><trkpt lat="39.30797670401493" lon="9.385414670777836"><ele>507.0</ele><time>2026-04-08T17:30:34Z</time></trkpt><trkpt lat="39.30790138369855" lon="9.385554057312616"><ele>507.0</ele><time>2026-04-08T17:30:35Z</time></trkpt><trkpt lat="39.30784359199448" lon="9.385687022879237"><ele>507.0</ele><time>2026-04-08T17:30:36Z</time></trkpt><trkpt lat="39.3077928796113" lon="9.385804554906315"><ele>503.5</ele><time>2026-04-08T17:30:37Z</time></trkpt><trkpt lat="39.30774411322641" lon="9.385921963480829"><ele>500.0</ele><time>2026-04-08T17:30:38Z</time></trkpt><trkpt lat="39.30774637521717" lon="9.386062716598996"><ele>496.5</ele><time>2026-04-08T17:30:39Z</time></trkpt><trkpt lat="39.30781790839462" lon="9.386197820249308"><ele>493.0</ele><time>2026-04-08T17:30:40Z</time></trkpt><trkpt lat="39.30790343673129" lon="9.386334915057352"><ele>494.25</ele><time>2026-04-08T17:30:41Z</time></trkpt><trkpt lat="39.30798335954708" lon="9.386454970423543"><ele>495.5</ele><time>2026-04-08T17:30:42Z</time></trkpt><trkpt lat="39.30802096850803" lon="9.386592605107406"><ele>496.75</ele><time>2026-04-08T17:30:43Z</time></trkpt><trkpt lat="39.30806473599462" lon="9.386731621633654"><ele>498.0</ele><time>2026-04-08T17:30:44Z</time></trkpt><trkpt lat="39.3080640233997" lon="9.386906199841091"><ele>498.0</ele><time>2026-04-08T17:30:45Z</time></trkpt><trkpt lat="39.30804248756653" lon="9.38706935263916"><ele>498.0</ele><time>2026-04-08T17:30:46Z</time></trkpt><trkpt lat="39.30802846881509" lon="9.38722213817599"><ele>498.0</ele><time>2026-04-08T17:30:47Z</time></trkpt><trkpt lat="39.3080532573961" lon="9.387374059715476"><ele>498.0</ele><time>2026-04-08T17:30:48Z</time></trkpt><trkpt lat="39.30810908752739" lon="9.387510114253464"><ele>495.59999999999997</ele><time>2026-04-08T17:30:49Z</time></trkpt><trkpt lat="39.30818608104279" lon="9.38761383617328"><ele>493.19999999999993</ele><time>2026-04-08T17:30:50Z</time></trkpt><trkpt lat="39.308268453451824" lon="9.387703692770472"><ele>490.8</ele><time>2026-04-08T17:30:51Z</time></trkpt><trkpt lat="39.30830926968412" lon="9.387806241245237"><ele>488.4</ele><time>2026-04-08T17:30:52Z</time></trkpt><trkpt lat="39.30829952697488" lon="9.387929794384702"><ele>486.0</ele><time>2026-04-08T17:30:53Z</time></trkpt><trkpt lat="39.308249125843936" lon="9.388035693701259"><ele>484.25</ele><time>2026-04-08T17:30:54Z</time></trkpt><trkpt lat="39.30816078196525" lon="9.388128483087648"><ele>482.5</ele><time>2026-04-08T17:30:55Z</time></trkpt><trkpt lat="39.308052806970494" lon="9.388215713826193"><ele>480.75</ele><time>2026-04-08T17:30:56Z</time></trkpt><trkpt lat="39.3079583605226" lon="9.388302287963826"><ele>479.0</ele><time>2026-04-08T17:30:57Z</time></trkpt><trkpt lat="39.30787849503849" lon="9.388398823593413"><ele>483.5</ele><time>2026-04-08T17:30:58Z</time></trkpt><trkpt lat="39.30783821976027" lon="9.388517378587473"><ele>488.0</ele><time>2026-04-08T17:30:59Z</time></trkpt><trkpt lat="39.30783904942469" lon="9.388646562530303"><ele>492.5</ele><time>2026-04-08T17:31:00Z</time></trkpt><trkpt lat="39.307875421482294" lon="9.388785763720803"><ele>497.0</ele><time>2026-04-08T17:31:01Z</time></trkpt><trkpt lat="39.307990649537366" lon="9.388881565007127"><ele>492.0</ele><time>2026-04-08T17:31:02Z</time></trkpt><trkpt lat="39.308118705370404" lon="9.388949875755602"><ele>487.0</ele><time>2026-04-08T17:31:03Z</time></trkpt><trkpt lat="39.308238271968" lon="9.389013701294223"><ele>482.0</ele><time>2026-04-08T17:31:04Z</time></trkpt><trkpt lat="39.30833128824858" lon="9.3891195943069"><ele>477.0</ele><time>2026-04-08T17:31:05Z</time></trkpt><trkpt lat="39.30843291587041" lon="9.389199695054804"><ele>477.0</ele><time>2026-04-08T17:31:06Z</time></trkpt><trkpt lat="39.30851649687497" lon="9.389296771006808"><ele>477.00000000000006</ele><time>2026-04-08T17:31:07Z</time></trkpt><trkpt lat="39.30858457293398" lon="9.389398829346106"><ele>477.00000000000006</ele><time>2026-04-08T17:31:08Z</time></trkpt><trkpt lat="39.308624328543665" lon="9.389530990956377"><ele>477.0</ele><time>2026-04-08T17:31:09Z</time></trkpt><trkpt lat="39.30863083680252" lon="9.38967683726248"><ele>477.0</ele><time>2026-04-08T17:31:10Z</time></trkpt><trkpt lat="39.308600625336055" lon="9.389810687427712"><ele>476.75</ele><time>2026-04-08T17:31:11Z</time></trkpt><trkpt lat="39.30853244179019" lon="9.389944402931008"><ele>476.5</ele><time>2026-04-08T17:31:12Z</time></trkpt><trkpt lat="39.3084318113338" lon="9.39006278744843"><ele>476.25</ele><time>2026-04-08T17:31:13Z</time></trkpt><trkpt lat="39.30832793665971" lon="9.390159143281117"><ele>476.0</ele><time>2026-04-08T17:31:14Z</time></trkpt><trkpt lat="39.308245529563784" lon="9.390271350130098"><ele>476.0</ele><time>2026-04-08T17:31:15Z</time></trkpt><trkpt lat="39.308200165085566" lon="9.390425282764431"><ele>476.0</ele><time>2026-04-08T17:31:16Z</time></trkpt><trkpt lat="39.30819181786487" lon="9.390601032506309"><ele>476.0</ele><time>2026-04-08T17:31:17Z</time></trkpt><trkpt lat="39.30821721128522" lon="9.390781734839146"><ele>476.0</ele><time>2026-04-08T17:31:18Z</time></trkpt><trkpt lat="39.30825109330153" lon="9.390966444383164"><ele>471.5</ele><time>2026-04-08T17:31:19Z</time></trkpt><trkpt lat="39.308281312079984" lon="9.391140464102794"><ele>467.0</ele><time>2026-04-08T17:31:20Z</time></trkpt><trkpt lat="39.308313606853226" lon="9.391308929408195"><ele>462.5</ele><time>2026-04-08T17:31:21Z</time></trkpt><trkpt lat="39.308358435010476" lon="9.391461693373309"><ele>458.0</ele><time>2026-04-08T17:31:22Z</time></trkpt><trkpt lat="39.30840088492365" lon="9.391603934591876"><ele>457.25</ele><time>2026-04-08T17:31:23Z</time></trkpt><trkpt lat="39.3084124447702" lon="9.391747054352233"><ele>456.5</ele><time>2026-04-08T17:31:24Z</time></trkpt><trkpt lat="39.30837759922342" lon="9.391892048036793"><ele>455.75</ele><time>2026-04-08T17:31:25Z</time></trkpt><trkpt lat="39.30830155342105" lon="9.392031965320257"><ele>455.0</ele><time>2026-04-08T17:31:26Z</time></trkpt><trkpt lat="39.30818464679566" lon="9.392125608816585"><ele>455.25</ele><time>2026-04-08T17:31:27Z</time></trkpt><trkpt lat="39.308048928463776" lon="9.392168668988512"><ele>455.5</ele><time>2026-04-08T17:31:28Z</time></trkpt><trkpt lat="39.30792689809553" lon="9.392223141153229"><ele>455.75</ele><time>2026-04-08T17:31:29Z</time></trkpt><trkpt lat="39.30782976061153" lon="9.392328024383424"><ele>456.0</ele><time>2026-04-08T17:31:30Z</time></trkpt><trkpt lat="39.307759747267966" lon="9.392476052724342"><ele>453.8</ele><time>2026-04-08T17:31:31Z</time></trkpt><trkpt lat="39.30772659767669" lon="9.392634305751983"><ele>451.6</ele><time>2026-04-08T17:31:32Z</time></trkpt><trkpt lat="39.30768541043055" lon="9.392769242422899"><ele>449.4</ele><time>2026-04-08T17:31:33Z</time></trkpt><trkpt lat="39.30762524178389" lon="9.392868540397865"><ele>447.2</ele><time>2026-04-08T17:31:34Z</time></trkpt><trkpt lat="39.30754356130083" lon="9.392927881060182"><ele>445.0</ele><time>2026-04-08T17:31:35Z</time></trkpt><trkpt lat="39.307447839720304" lon="9.392931175039559"><ele>445.0</ele><time>2026-04-08T17:31:36Z</time></trkpt><trkpt lat="39.30735075118397" lon="9.392871401811945"><ele>445.0</ele><time>2026-04-08T17:31:37Z</time></trkpt><trkpt lat="39.307290159600775" lon="9.39275771432147"><ele>445.0</ele><time>2026-04-08T17:31:38Z</time></trkpt><trkpt lat="39.30727958529583" lon="9.392615202679393"><ele>445.0</ele><time>2026-04-08T17:31:39Z</time></trkpt><trkpt lat="39.307290650310684" lon="9.392440020822434"><ele>445.0</ele><time>2026-04-08T17:31:40Z</time></trkpt><trkpt lat="39.30729937551297" lon="9.392263610841749"><ele>445.0</ele><time>2026-04-08T17:31:41Z</time></trkpt><trkpt lat="39.307294418015026" lon="9.392100702283608"><ele>445.0</ele><time>2026-04-08T17:31:42Z</time></trkpt><trkpt lat="39.307268023308275" lon="9.391948431936266"><ele>445.0</ele><time>2026-04-08T17:31:43Z</time></trkpt><trkpt lat="39.307204368062756" lon="9.391804333962536"><ele>442.0</ele><time>2026-04-08T17:31:44Z</time></trkpt><trkpt lat="39.30711017705871" lon="9.391681882277314"><ele>439.0</ele><time>2026-04-08T17:31:45Z</time></trkpt><trkpt lat="39.30699244891864" lon="9.391566085025524"><ele>436.0</ele><time>2026-04-08T17:31:46Z</time></trkpt><trkpt lat="39.30686614681701" lon="9.391470412511966"><ele>433.0</ele><time>2026-04-08T17:31:47Z</time></trkpt><trkpt lat="39.30673453176564" lon="9.391406327986884"><ele>433.0</ele><time>2026-04-08T17:31:48Z</time></trkpt><trkpt lat="39.30660454615942" lon="9.391369632252578"><ele>433.0</ele><time>2026-04-08T17:31:49Z</time></trkpt><trkpt lat="39.306485502361475" lon="9.391345942358276"><ele>433.0</ele><time>2026-04-08T17:31:50Z</time></trkpt><trkpt lat="39.30637877179871" lon="9.39132010845265"><ele>433.0</ele><time>2026-04-08T17:31:51Z</time></trkpt><trkpt lat="39.30627848464179" lon="9.391289455180715"><ele>434.59999999999997</ele><time>2026-04-08T17:31:52Z</time></trkpt><trkpt lat="39.30618081090516" lon="9.391260714275697"><ele>436.19999999999993</ele><time>2026-04-08T17:31:53Z</time></trkpt><trkpt lat="39.306094055317175" lon="9.391236828872465"><ele>437.8</ele><time>2026-04-08T17:31:54Z</time></trkpt><trkpt lat="39.306016681678436" lon="9.391215403719748"><ele>439.4</ele><time>2026-04-08T17:31:55Z</time></trkpt><trkpt lat="39.305946143447706" lon="9.39119937668198"><ele>441.0</ele><time>2026-04-08T17:31:56Z</time></trkpt><trkpt lat="39.30583371716397" lon="9.391220363520112"><ele>441.0</ele><time>2026-04-08T17:31:58Z</time></trkpt><trkpt lat="39.305750246667984" lon="9.391227573621137"><ele>441.0</ele><time>2026-04-08T17:32:00Z</time></trkpt><trkpt lat="39.3056642566162" lon="9.391068484096925"><ele>441.0</ele><time>2026-04-08T17:32:03Z</time></trkpt><trkpt lat="39.305587024243344" lon="9.39095486123055"><ele>441.0</ele><time>2026-04-08T17:32:05Z</time></trkpt><trkpt lat="39.305536933192656" lon="9.39088694604044"><ele>441.0</ele><time>2026-04-08T17:32:07Z</time></trkpt><trkpt lat="39.30550243965397" lon="9.390741708938224"><ele>434.66666666666663</ele><time>2026-04-08T17:32:10Z</time></trkpt><trkpt lat="39.3053588123664" lon="9.391177538912016"><ele>428.3333333333333</ele><time>2026-04-08T17:32:11Z</time></trkpt><trkpt lat="39.30536071431578" lon="9.391282686552032"><ele>422.0</ele><time>2026-04-08T17:32:12Z</time></trkpt><trkpt lat="39.305382404083375" lon="9.391406436698299"><ele>422.0</ele><time>2026-04-08T17:32:13Z</time></trkpt><trkpt lat="39.30541147392693" lon="9.391551611299265"><ele>422.0</ele><time>2026-04-08T17:32:14Z</time></trkpt><trkpt lat="39.305436093841486" lon="9.391702693713212"><ele>422.0</ele><time>2026-04-08T17:32:15Z</time></trkpt><trkpt lat="39.305450440806524" lon="9.39186911040832"><ele>422.0</ele><time>2026-04-08T17:32:16Z</time></trkpt><trkpt lat="39.30546047082924" lon="9.392036436601103"><ele>424.8</ele><time>2026-04-08T17:32:17Z</time></trkpt><trkpt lat="39.30546394167223" lon="9.392202860100584"><ele>427.6</ele><time>2026-04-08T17:32:18Z</time></trkpt><trkpt lat="39.305468285658115" lon="9.392357736798136"><ele>430.40000000000003</ele><time>2026-04-08T17:32:19Z</time></trkpt><trkpt lat="39.305490348725215" lon="9.39248310785683"><ele>433.20000000000005</ele><time>2026-04-08T17:32:20Z</time></trkpt><trkpt lat="39.30553629033736" lon="9.392599310157877"><ele>436.0</ele><time>2026-04-08T17:32:21Z</time></trkpt><trkpt lat="39.30557830185676" lon="9.392719444592279"><ele>436.0</ele><time>2026-04-08T17:32:22Z</time></trkpt><trkpt lat="39.30561154540874" lon="9.392852937653576"><ele>436.0</ele><time>2026-04-08T17:32:23Z</time></trkpt><trkpt lat="39.30562502663087" lon="9.39299639421245"><ele>436.0</ele><time>2026-04-08T17:32:24Z</time></trkpt><trkpt lat="39.30562193467595" lon="9.39312070231602"><ele>436.0</ele><time>2026-04-08T17:32:25Z</time></trkpt><trkpt lat="39.30559275312802" lon="9.393234300209015"><ele>436.0</ele><time>2026-04-08T17:32:26Z</time></trkpt><trkpt lat="39.30554598811119" lon="9.393350470661773"><ele>436.0</ele><time>2026-04-08T17:32:27Z</time></trkpt><trkpt lat="39.30548068064936" lon="9.393459018187988"><ele>436.0</ele><time>2026-04-08T17:32:28Z</time></trkpt><trkpt lat="39.30541572960822" lon="9.393574926324169"><ele>436.0</ele><time>2026-04-08T17:32:29Z</time></trkpt><trkpt lat="39.30536690182334" lon="9.393704117332089"><ele>436.0</ele><time>2026-04-08T17:32:30Z</time></trkpt><trkpt lat="39.305338962633336" lon="9.39384365262312"><ele>436.0</ele><time>2026-04-08T17:32:31Z</time></trkpt><trkpt lat="39.30531053923194" lon="9.393961299095938"><ele>437.20000000000005</ele><time>2026-04-08T17:32:32Z</time></trkpt><trkpt lat="39.30527569359971" lon="9.394066247074464"><ele>438.40000000000003</ele><time>2026-04-08T17:32:33Z</time></trkpt><trkpt lat="39.30522442060816" lon="9.394164888091536"><ele>439.6</ele><time>2026-04-08T17:32:34Z</time></trkpt><trkpt lat="39.30515996750721" lon="9.394255156589846"><ele>440.8</ele><time>2026-04-08T17:32:35Z</time></trkpt><trkpt lat="39.305078029218976" lon="9.394309251136955"><ele>442.0</ele><time>2026-04-08T17:32:36Z</time></trkpt><trkpt lat="39.30497353101948" lon="9.394373255555148"><ele>442.0</ele><time>2026-04-08T17:32:37Z</time></trkpt><trkpt lat="39.30486696256837" lon="9.394451486523518"><ele>442.0</ele><time>2026-04-08T17:32:38Z</time></trkpt><trkpt lat="39.304747501730326" lon="9.394520800550646"><ele>442.0</ele><time>2026-04-08T17:32:39Z</time></trkpt><trkpt lat="39.30462760900903" lon="9.39458731715201"><ele>442.0</ele><time>2026-04-08T17:32:40Z</time></trkpt><trkpt lat="39.30451426299016" lon="9.394649627995166"><ele>443.20000000000005</ele><time>2026-04-08T17:32:41Z</time></trkpt><trkpt lat="39.3044141677498" lon="9.394714814536263"><ele>444.40000000000003</ele><time>2026-04-08T17:32:42Z</time></trkpt><trkpt lat="39.3043352332158" lon="9.394797962843274"><ele>445.59999999999997</ele><time>2026-04-08T17:32:43Z</time></trkpt><trkpt lat="39.30426445303998" lon="9.394907057727378"><ele>446.79999999999995</ele><time>2026-04-08T17:32:44Z</time></trkpt><trkpt lat="39.30419578278583" lon="9.39503019407225"><ele>448.0</ele><time>2026-04-08T17:32:45Z</time></trkpt><trkpt lat="39.30414923543829" lon="9.395158260020656"><ele>448.0</ele><time>2026-04-08T17:32:46Z</time></trkpt><trkpt lat="39.30409284392141" lon="9.395251003498789"><ele>447.99999999999994</ele><time>2026-04-08T17:32:47Z</time></trkpt><trkpt lat="39.30400840438552" lon="9.395301988079838"><ele>447.99999999999994</ele><time>2026-04-08T17:32:48Z</time></trkpt><trkpt lat="39.30389483205466" lon="9.395315852272715"><ele>448.0</ele><time>2026-04-08T17:32:49Z</time></trkpt><trkpt lat="39.30377411237413" lon="9.395329264317429"><ele>448.0</ele><time>2026-04-08T17:32:50Z</time></trkpt><trkpt lat="39.303667543899586" lon="9.395342022099099"><ele>449.79999999999995</ele><time>2026-04-08T17:32:51Z</time></trkpt><trkpt lat="39.30357396464997" lon="9.39532762271855"><ele>451.59999999999997</ele><time>2026-04-08T17:32:52Z</time></trkpt><trkpt lat="39.30348902231793" lon="9.39527682596592"><ele>453.40000000000003</ele><time>2026-04-08T17:32:53Z</time></trkpt><trkpt lat="39.30343818130927" lon="9.395155137719511"><ele>455.20000000000005</ele><time>2026-04-08T17:32:54Z</time></trkpt><trkpt lat="39.30338780566772" lon="9.395009507598619"><ele>457.0</ele><time>2026-04-08T17:32:55Z</time></trkpt><trkpt lat="39.30331137765756" lon="9.394863645677772"><ele>457.0</ele><time>2026-04-08T17:32:56Z</time></trkpt><trkpt lat="39.303232353837984" lon="9.394733617199243"><ele>457.0</ele><time>2026-04-08T17:32:57Z</time></trkpt><trkpt lat="39.30314208741492" lon="9.394608158851305"><ele>457.0</ele><time>2026-04-08T17:32:58Z</time></trkpt><trkpt lat="39.303033081616626" lon="9.394499445745259"><ele>457.0</ele><time>2026-04-08T17:32:59Z</time></trkpt><trkpt lat="39.30294985016444" lon="9.394359412824183"><ele>459.6</ele><time>2026-04-08T17:33:00Z</time></trkpt><trkpt lat="39.30287802248878" lon="9.394238013562441"><ele>462.20000000000005</ele><time>2026-04-08T17:33:01Z</time></trkpt><trkpt lat="39.302838665820786" lon="9.394115749754658"><ele>464.8</ele><time>2026-04-08T17:33:02Z</time></trkpt><trkpt lat="39.302816995250325" lon="9.394005991970568"><ele>467.4</ele><time>2026-04-08T17:33:03Z</time></trkpt><trkpt lat="39.302792723010526" lon="9.39390234830644"><ele>470.0</ele><time>2026-04-08T17:33:04Z</time></trkpt><trkpt lat="39.30274922344615" lon="9.393839031714277"><ele>466.5</ele><time>2026-04-08T17:33:05Z</time></trkpt><trkpt lat="39.30269246807636" lon="9.393773765420054"><ele>463.0</ele><time>2026-04-08T17:33:06Z</time></trkpt><trkpt lat="39.302601183100634" lon="9.39374519635702"><ele>459.5</ele><time>2026-04-08T17:33:07Z</time></trkpt><trkpt lat="39.30245726891669" lon="9.393759012230475"><ele>456.0</ele><time>2026-04-08T17:33:08Z</time></trkpt><trkpt lat="39.302322497072346" lon="9.393697425800838"><ele>464.0</ele><time>2026-04-08T17:33:09Z</time></trkpt><trkpt lat="39.302236933913726" lon="9.393615495942534"><ele>472.0</ele><time>2026-04-08T17:33:10Z</time></trkpt><trkpt lat="39.30216766083194" lon="9.393527048917731"><ele>480.0</ele><time>2026-04-08T17:33:11Z</time></trkpt><trkpt lat="39.302104958150345" lon="9.393449336678891"><ele>488.0</ele><time>2026-04-08T17:33:12Z</time></trkpt><trkpt lat="39.30208358358111" lon="9.393327805860258"><ele>496.0</ele><time>2026-04-08T17:33:13Z</time></trkpt><trkpt lat="39.3021176622532" lon="9.39316967401169"><ele>492.8</ele><time>2026-04-08T17:33:14Z</time></trkpt><trkpt lat="39.30210093233641" lon="9.393000716844568"><ele>489.6</ele><time>2026-04-08T17:33:15Z</time></trkpt><trkpt lat="39.302091996243355" lon="9.392854542316586"><ele>486.4</ele><time>2026-04-08T17:33:16Z</time></trkpt><trkpt lat="39.30210173578312" lon="9.392735320901513"><ele>483.2</ele><time>2026-04-08T17:33:17Z</time></trkpt><trkpt lat="39.30212249306699" lon="9.392643145904096"><ele>480.0</ele><time>2026-04-08T17:33:18Z</time></trkpt><trkpt lat="39.30212502185085" lon="9.392553684859049"><ele>480.0</ele><time>2026-04-08T17:33:19Z</time></trkpt><trkpt lat="39.30208010156872" lon="9.392450873993777"><ele>480.0</ele><time>2026-04-08T17:33:20Z</time></trkpt><trkpt lat="39.30200504600604" lon="9.392341265307339"><ele>480.0</ele><time>2026-04-08T17:33:21Z</time></trkpt><trkpt lat="39.30193361054815" lon="9.392231976885286"><ele>480.0</ele><time>2026-04-08T17:33:22Z</time></trkpt><trkpt lat="39.30185063454249" lon="9.392145436824794"><ele>480.0</ele><time>2026-04-08T17:33:23Z</time></trkpt><trkpt lat="39.30177395934881" lon="9.392084470756387"><ele>480.0</ele><time>2026-04-08T17:33:24Z</time></trkpt><trkpt lat="39.301674986638666" lon="9.39206495456054"><ele>480.0</ele><time>2026-04-08T17:33:25Z</time></trkpt><trkpt lat="39.301560211577815" lon="9.392095175031272"><ele>480.0</ele><time>2026-04-08T17:33:26Z</time></trkpt><trkpt lat="39.301432871793715" lon="9.392183764359583"><ele>480.0</ele><time>2026-04-08T17:33:27Z</time></trkpt><trkpt lat="39.30130427604719" lon="9.392256195625338"><ele>481.25</ele><time>2026-04-08T17:33:28Z</time></trkpt><trkpt lat="39.3011874007008" lon="9.39231375266269"><ele>482.5</ele><time>2026-04-08T17:33:29Z</time></trkpt><trkpt lat="39.3010735273687" lon="9.392348002756892"><ele>483.75</ele><time>2026-04-08T17:33:30Z</time></trkpt><trkpt lat="39.300971781759074" lon="9.392333180115049"><ele>485.0</ele><time>2026-04-08T17:33:31Z</time></trkpt><trkpt lat="39.300853154036595" lon="9.392318053995007"><ele>485.0</ele><time>2026-04-08T17:33:32Z</time></trkpt><trkpt lat="39.30073369339129" lon="9.392321874519348"><ele>485.0</ele><time>2026-04-08T17:33:33Z</time></trkpt><trkpt lat="39.30061146639112" lon="9.392326054000009"><ele>485.0</ele><time>2026-04-08T17:33:34Z</time></trkpt><trkpt lat="39.300508857233694" lon="9.39230138951235"><ele>485.0</ele><time>2026-04-08T17:33:35Z</time></trkpt><trkpt lat="39.30044575411235" lon="9.39221427991314"><ele>485.0</ele><time>2026-04-08T17:33:36Z</time></trkpt><trkpt lat="39.300333940501" lon="9.392119497103463"><ele>480.25</ele><time>2026-04-08T17:33:37Z</time></trkpt><trkpt lat="39.30021676106313" lon="9.392034682796247"><ele>475.5</ele><time>2026-04-08T17:33:38Z</time></trkpt><trkpt lat="39.30007338097517" lon="9.392005072513047"><ele>470.75</ele><time>2026-04-08T17:33:39Z</time></trkpt><trkpt lat="39.299963526295464" lon="9.39195766041902"><ele>466.0</ele><time>2026-04-08T17:33:40Z</time></trkpt><trkpt lat="39.29986658847776" lon="9.391924117814948"><ele>466.0</ele><time>2026-04-08T17:33:41Z</time></trkpt><trkpt lat="39.29978109312298" lon="9.391907379047726"><ele>466.0</ele><time>2026-04-08T17:33:42Z</time></trkpt><trkpt lat="39.29968397985279" lon="9.391912255793143"><ele>466.0</ele><time>2026-04-08T17:33:43Z</time></trkpt><trkpt lat="39.29956793496765" lon="9.391992161798761"><ele>466.0</ele><time>2026-04-08T17:33:44Z</time></trkpt><trkpt lat="39.29942672402488" lon="9.39201985549226"><ele>468.25</ele><time>2026-04-08T17:33:45Z</time></trkpt><trkpt lat="39.299289858060725" lon="9.392044615016722"><ele>470.5</ele><time>2026-04-08T17:33:46Z</time></trkpt><trkpt lat="39.29914747374547" lon="9.392072415171459"><ele>472.75</ele><time>2026-04-08T17:33:47Z</time></trkpt><trkpt lat="39.29899812072246" lon="9.392101575946237"><ele>475.0</ele><time>2026-04-08T17:33:48Z</time></trkpt><trkpt lat="39.29885601925175" lon="9.392129000397757"><ele>477.33333333333337</ele><time>2026-04-08T17:33:49Z</time></trkpt><trkpt lat="39.29871383090695" lon="9.392152606212457"><ele>479.66666666666663</ele><time>2026-04-08T17:33:50Z</time></trkpt><trkpt lat="39.298558116614664" lon="9.392189165301732"><ele>482.0</ele><time>2026-04-08T17:33:51Z</time></trkpt><trkpt lat="39.29840597444828" lon="9.392270234692349"><ele>487.25</ele><time>2026-04-08T17:33:52Z</time></trkpt><trkpt lat="39.298262962553274" lon="9.392345819141072"><ele>492.5</ele><time>2026-04-08T17:33:53Z</time></trkpt><trkpt lat="39.29812707763209" lon="9.392410202575517"><ele>497.75</ele><time>2026-04-08T17:33:54Z</time></trkpt><trkpt lat="39.29801489960253" lon="9.39245854059506"><ele>503.0</ele><time>2026-04-08T17:33:55Z</time></trkpt><trkpt lat="39.297920203700755" lon="9.392480779793265"><ele>505.0</ele><time>2026-04-08T17:33:56Z</time></trkpt><trkpt lat="39.29783121537494" lon="9.392470300957877"><ele>506.99999999999994</ele><time>2026-04-08T17:33:57Z</time></trkpt><trkpt lat="39.297762819161775" lon="9.392395622719588"><ele>508.99999999999994</ele><time>2026-04-08T17:33:58Z</time></trkpt><trkpt lat="39.29767123061539" lon="9.39232951935478"><ele>511.0</ele><time>2026-04-08T17:33:59Z</time></trkpt><trkpt lat="39.29756654756896" lon="9.392277438444617"><ele>513.0</ele><time>2026-04-08T17:34:00Z</time></trkpt><trkpt lat="39.297447730739144" lon="9.392269933471104"><ele>513.0</ele><time>2026-04-08T17:34:01Z</time></trkpt><trkpt lat="39.29732033190244" lon="9.39233527077493"><ele>513.0</ele><time>2026-04-08T17:34:02Z</time></trkpt><trkpt lat="39.297189494720016" lon="9.392339131474962"><ele>513.0</ele><time>2026-04-08T17:34:03Z</time></trkpt><trkpt lat="39.297095939832495" lon="9.392328454061984"><ele>513.0</ele><time>2026-04-08T17:34:04Z</time></trkpt><trkpt lat="39.29702818201076" lon="9.3922324177935"><ele>515.0</ele><time>2026-04-08T17:34:05Z</time></trkpt><trkpt lat="39.29693135412453" lon="9.392125038193978"><ele>517.0</ele><time>2026-04-08T17:34:06Z</time></trkpt><trkpt lat="39.29682746309903" lon="9.391985440164422"><ele>519.0</ele><time>2026-04-08T17:34:07Z</time></trkpt><trkpt lat="39.2967217047254" lon="9.391831909747077"><ele>521.0</ele><time>2026-04-08T17:34:08Z</time></trkpt><trkpt lat="39.296618109994064" lon="9.391717018425906"><ele>521.0</ele><time>2026-04-08T17:34:09Z</time></trkpt><trkpt lat="39.29653561117505" lon="9.39158653700767"><ele>521.0</ele><time>2026-04-08T17:34:10Z</time></trkpt><trkpt lat="39.29644167020731" lon="9.391479914867967"><ele>521.0</ele><time>2026-04-08T17:34:11Z</time></trkpt><trkpt lat="39.29635505064619" lon="9.391409923101483"><ele>521.0</ele><time>2026-04-08T17:34:12Z</time></trkpt><trkpt lat="39.29628462111999" lon="9.391324775597557"><ele>519.2</ele><time>2026-04-08T17:34:13Z</time></trkpt><trkpt lat="39.29620829614574" lon="9.391245816046258"><ele>517.4000000000001</ele><time>2026-04-08T17:34:14Z</time></trkpt><trkpt lat="39.296142299664595" lon="9.39116164839339"><ele>515.6</ele><time>2026-04-08T17:34:15Z</time></trkpt><trkpt lat="39.296058851392615" lon="9.39112573212533"><ele>513.8000000000001</ele><time>2026-04-08T17:34:16Z</time></trkpt><trkpt lat="39.29597294099611" lon="9.391127555059382"><ele>512.0</ele><time>2026-04-08T17:34:17Z</time></trkpt><trkpt lat="39.29587936954199" lon="9.391168958088338"><ele>512.0</ele><time>2026-04-08T17:34:18Z</time></trkpt><trkpt lat="39.295837141967034" lon="9.391306249577868"><ele>512.0</ele><time>2026-04-08T17:34:19Z</time></trkpt><trkpt lat="39.295857488334654" lon="9.391413491247226"><ele>512.0</ele><time>2026-04-08T17:34:20Z</time></trkpt><trkpt lat="39.295912069690175" lon="9.39151334252642"><ele>512.0</ele><time>2026-04-08T17:34:21Z</time></trkpt><trkpt lat="39.296009293235976" lon="9.391595767499682"><ele>512.0</ele><time>2026-04-08T17:34:22Z</time></trkpt><trkpt lat="39.29613019580253" lon="9.391655283317439"><ele>513.8000000000001</ele><time>2026-04-08T17:34:23Z</time></trkpt><trkpt lat="39.29624442646576" lon="9.391730258058002"><ele>515.6</ele><time>2026-04-08T17:34:24Z</time></trkpt><trkpt lat="39.29633406055408" lon="9.391821583620478"><ele>517.4000000000001</ele><time>2026-04-08T17:34:25Z</time></trkpt><trkpt lat="39.29639951047948" lon="9.391926757917366"><ele>519.2</ele><time>2026-04-08T17:34:26Z</time></trkpt><trkpt lat="39.29642441144393" lon="9.392030672792494"><ele>521.0</ele><time>2026-04-08T17:34:27Z</time></trkpt><trkpt lat="39.29638813789956" lon="9.392110559533197"><ele>524.2</ele><time>2026-04-08T17:34:28Z</time></trkpt><trkpt lat="39.29626390309302" lon="9.392173498214515"><ele>527.4000000000001</ele><time>2026-04-08T17:34:30Z</time></trkpt><trkpt lat="39.29618757558555" lon="9.392181846289292"><ele>530.6</ele><time>2026-04-08T17:34:31Z</time></trkpt><trkpt lat="39.29612995010706" lon="9.39207060396731"><ele>533.8000000000001</ele><time>2026-04-08T17:34:32Z</time></trkpt><trkpt lat="39.29606197223291" lon="9.391971584851282"><ele>537.0</ele><time>2026-04-08T17:34:33Z</time></trkpt><trkpt lat="39.29596935732689" lon="9.391879826899352"><ele>537.0</ele><time>2026-04-08T17:34:34Z</time></trkpt><trkpt lat="39.295877986975796" lon="9.391808941848288"><ele>537.0</ele><time>2026-04-08T17:34:35Z</time></trkpt><trkpt lat="39.295761805269656" lon="9.391744572165324"><ele>537.0</ele><time>2026-04-08T17:34:36Z</time></trkpt><trkpt lat="39.295609827002124" lon="9.391761529208168"><ele>537.0</ele><time>2026-04-08T17:34:37Z</time></trkpt><trkpt lat="39.29545703525668" lon="9.391728312779275"><ele>541.6666666666666</ele><time>2026-04-08T17:34:38Z</time></trkpt><trkpt lat="39.29530756847601" lon="9.391683031972002"><ele>546.3333333333333</ele><time>2026-04-08T17:34:39Z</time></trkpt><trkpt lat="39.29514080883954" lon="9.391626022708781"><ele>551.0</ele><time>2026-04-08T17:34:40Z</time></trkpt><trkpt lat="39.29496654252435" lon="9.39156976752459"><ele>551.0</ele><time>2026-04-08T17:34:41Z</time></trkpt><trkpt lat="39.29480731544948" lon="9.391514570319822"><ele>551.0</ele><time>2026-04-08T17:34:42Z</time></trkpt><trkpt lat="39.29465288744274" lon="9.391449407765275"><ele>551.0</ele><time>2026-04-08T17:34:43Z</time></trkpt><trkpt lat="39.294503945439246" lon="9.391374684104164"><ele>546.6666666666666</ele><time>2026-04-08T17:34:44Z</time></trkpt><trkpt lat="39.29435473108302" lon="9.39131742550708"><ele>542.3333333333334</ele><time>2026-04-08T17:34:45Z</time></trkpt><trkpt lat="39.29420457004152" lon="9.391288780705828"><ele>538.0</ele><time>2026-04-08T17:34:46Z</time></trkpt><trkpt lat="39.29405946360537" lon="9.391281361806998"><ele>538.0</ele><time>2026-04-08T17:34:47Z</time></trkpt><trkpt lat="39.29392849866998" lon="9.391236227309474"><ele>538.0</ele><time>2026-04-08T17:34:48Z</time></trkpt><trkpt lat="39.29379557729808" lon="9.391176105350942"><ele>538.0</ele><time>2026-04-08T17:34:49Z</time></trkpt><trkpt lat="39.293669390164716" lon="9.391114846207216"><ele>538.0</ele><time>2026-04-08T17:34:50Z</time></trkpt><trkpt lat="39.293548319985334" lon="9.391028819838821"><ele>543.75</ele><time>2026-04-08T17:34:51Z</time></trkpt><trkpt lat="39.293433812071655" lon="9.390918056403148"><ele>549.5</ele><time>2026-04-08T17:34:52Z</time></trkpt><trkpt lat="39.2933038214989" lon="9.390858576342703"><ele>555.25</ele><time>2026-04-08T17:34:53Z</time></trkpt><trkpt lat="39.29316454076971" lon="9.390787334944815"><ele>561.0</ele><time>2026-04-08T17:34:54Z</time></trkpt><trkpt lat="39.29302121774845" lon="9.3907215569742"><ele>563.25</ele><time>2026-04-08T17:34:55Z</time></trkpt><trkpt lat="39.29287672560227" lon="9.3906714501494"><ele>565.5</ele><time>2026-04-08T17:34:56Z</time></trkpt><trkpt lat="39.29274574647628" lon="9.390600783251749"><ele>567.75</ele><time>2026-04-08T17:34:57Z</time></trkpt><trkpt lat="39.29261385109123" lon="9.390518402762295"><ele>570.0</ele><time>2026-04-08T17:34:58Z</time></trkpt><trkpt lat="39.292488550992886" lon="9.390449171360856"><ele>570.0</ele><time>2026-04-08T17:34:59Z</time></trkpt><trkpt lat="39.29237524928059" lon="9.390380850843561"><ele>570.0</ele><time>2026-04-08T17:35:00Z</time></trkpt><trkpt lat="39.29227912050682" lon="9.390295422684897"><ele>570.0</ele><time>2026-04-08T17:35:01Z</time></trkpt><trkpt lat="39.29219541427115" lon="9.390184634348525"><ele>570.0</ele><time>2026-04-08T17:35:02Z</time></trkpt><trkpt lat="39.29214088612218" lon="9.390056650500771"><ele>575.8</ele><time>2026-04-08T17:35:03Z</time></trkpt><trkpt lat="39.29212252025408" lon="9.389926459150576"><ele>581.6</ele><time>2026-04-08T17:35:04Z</time></trkpt><trkpt lat="39.29210153403898" lon="9.389770695066437"><ele>587.4</ele><time>2026-04-08T17:35:05Z</time></trkpt><trkpt lat="39.29212096872936" lon="9.38962304201432"><ele>593.2</ele><time>2026-04-08T17:35:06Z</time></trkpt><trkpt lat="39.2921430035526" lon="9.389492916129493"><ele>599.0</ele><time>2026-04-08T17:35:07Z</time></trkpt><trkpt lat="39.29213934528033" lon="9.389368390641474"><ele>599.0</ele><time>2026-04-08T17:35:08Z</time></trkpt><trkpt lat="39.292094811956375" lon="9.389235750612556"><ele>599.0</ele><time>2026-04-08T17:35:09Z</time></trkpt><trkpt lat="39.29202356352939" lon="9.389104910255652"><ele>599.0</ele><time>2026-04-08T17:35:10Z</time></trkpt><trkpt lat="39.29195030580774" lon="9.38894790271525"><ele>599.0</ele><time>2026-04-08T17:35:11Z</time></trkpt><trkpt lat="39.291873500927124" lon="9.38879732128602"><ele>598.25</ele><time>2026-04-08T17:35:12Z</time></trkpt><trkpt lat="39.29181513206414" lon="9.388650376164438"><ele>597.5</ele><time>2026-04-08T17:35:13Z</time></trkpt><trkpt lat="39.291773437253084" lon="9.388509843766059"><ele>596.75</ele><time>2026-04-08T17:35:14Z</time></trkpt><trkpt lat="39.291736167604064" lon="9.388383909396682"><ele>596.0</ele><time>2026-04-08T17:35:15Z</time></trkpt><trkpt lat="39.29171017031475" lon="9.388256427712827"><ele>596.0</ele><time>2026-04-08T17:35:16Z</time></trkpt><trkpt lat="39.29169543268232" lon="9.388131697275107"><ele>596.0</ele><time>2026-04-08T17:35:17Z</time></trkpt><trkpt lat="39.29169504654851" lon="9.388004481142778"><ele>596.0</ele><time>2026-04-08T17:35:18Z</time></trkpt><trkpt lat="39.291722318311145" lon="9.3878704367332"><ele>596.0</ele><time>2026-04-08T17:35:19Z</time></trkpt><trkpt lat="39.291771986765596" lon="9.387742030563656"><ele>596.0</ele><time>2026-04-08T17:35:20Z</time></trkpt><trkpt lat="39.29183616639374" lon="9.387625536863537"><ele>596.2</ele><time>2026-04-08T17:35:21Z</time></trkpt><trkpt lat="39.291925754499374" lon="9.387530741736175"><ele>596.4000000000001</ele><time>2026-04-08T17:35:22Z</time></trkpt><trkpt lat="39.29201560746744" lon="9.387478386209361"><ele>596.6</ele><time>2026-04-08T17:35:23Z</time></trkpt><trkpt lat="39.29209628059633" lon="9.387464607508582"><ele>596.8000000000001</ele><time>2026-04-08T17:35:24Z</time></trkpt><trkpt lat="39.29217773218901" lon="9.387452843137128"><ele>597.0</ele><time>2026-04-08T17:35:25Z</time></trkpt><trkpt lat="39.29225715526392" lon="9.387402400929437"><ele>597.0</ele><time>2026-04-08T17:35:26Z</time></trkpt><trkpt lat="39.292316846412525" lon="9.387311688984617"><ele>597.0</ele><time>2026-04-08T17:35:27Z</time></trkpt><trkpt lat="39.29232580002715" lon="9.387201998251621"><ele>597.0</ele><time>2026-04-08T17:35:28Z</time></trkpt><trkpt lat="39.292299302483116" lon="9.387096667656715"><ele>597.0</ele><time>2026-04-08T17:35:29Z</time></trkpt><trkpt lat="39.29225052756387" lon="9.387003607061713"><ele>597.0</ele><time>2026-04-08T17:35:30Z</time></trkpt><trkpt lat="39.29214309102473" lon="9.386963994780995"><ele>598.5</ele><time>2026-04-08T17:35:31Z</time></trkpt><trkpt lat="39.292020238088504" lon="9.38702212638301"><ele>600.0</ele><time>2026-04-08T17:35:32Z</time></trkpt><trkpt lat="39.29189633819909" lon="9.387076059319261"><ele>601.5</ele><time>2026-04-08T17:35:33Z</time></trkpt><trkpt lat="39.29177566217195" lon="9.38716557270033"><ele>603.0</ele><time>2026-04-08T17:35:34Z</time></trkpt><trkpt lat="39.29164978464174" lon="9.387248540740618"><ele>603.0</ele><time>2026-04-08T17:35:35Z</time></trkpt><trkpt lat="39.291520490176694" lon="9.387333264492334"><ele>603.0</ele><time>2026-04-08T17:35:36Z</time></trkpt><trkpt lat="39.29138026026002" lon="9.387414948470845"><ele>603.0</ele><time>2026-04-08T17:35:37Z</time></trkpt><trkpt lat="39.29123695124368" lon="9.387503739610686"><ele>607.6666666666666</ele><time>2026-04-08T17:35:38Z</time></trkpt><trkpt lat="39.29111069918936" lon="9.387632863105656"><ele>612.3333333333333</ele><time>2026-04-08T17:35:39Z</time></trkpt><trkpt lat="39.29098301475461" lon="9.387757198150187"><ele>617.0</ele><time>2026-04-08T17:35:40Z</time></trkpt><trkpt lat="39.29086326456827" lon="9.387883890551525"><ele>616.0</ele><time>2026-04-08T17:35:41Z</time></trkpt><trkpt lat="39.29076096800548" lon="9.388010407295356"><ele>615.0</ele><time>2026-04-08T17:35:42Z</time></trkpt><trkpt lat="39.290664052661754" lon="9.388102599226615"><ele>614.0</ele><time>2026-04-08T17:35:43Z</time></trkpt><trkpt lat="39.29056445492383" lon="9.388113255958796"><ele>613.0</ele><time>2026-04-08T17:35:44Z</time></trkpt><trkpt lat="39.29045982242602" lon="9.388101382035625"><ele>612.6</ele><time>2026-04-08T17:35:45Z</time></trkpt><trkpt lat="39.29034329846991" lon="9.388085117693551"><ele>612.1999999999999</ele><time>2026-04-08T17:35:46Z</time></trkpt><trkpt lat="39.29024489281655" lon="9.388059329226778"><ele>611.8</ele><time>2026-04-08T17:35:47Z</time></trkpt><trkpt lat="39.29016117925466" lon="9.3880188779958"><ele>611.4</ele><time>2026-04-08T17:35:48Z</time></trkpt><trkpt lat="39.290093615157375" lon="9.387928882114736"><ele>611.0</ele><time>2026-04-08T17:35:49Z</time></trkpt><trkpt lat="39.290012404964656" lon="9.387815419638075"><ele>610.0</ele><time>2026-04-08T17:35:50Z</time></trkpt><trkpt lat="39.289932325728266" lon="9.387670217853467"><ele>609.0</ele><time>2026-04-08T17:35:51Z</time></trkpt><trkpt lat="39.28986551741762" lon="9.387513907587323"><ele>608.0</ele><time>2026-04-08T17:35:52Z</time></trkpt><trkpt lat="39.28979828331363" lon="9.38734615707691"><ele>607.0</ele><time>2026-04-08T17:35:53Z</time></trkpt><trkpt lat="39.289702274483425" lon="9.387200080590842"><ele>608.25</ele><time>2026-04-08T17:35:54Z</time></trkpt><trkpt lat="39.28960621655787" lon="9.387077856957788"><ele>609.5</ele><time>2026-04-08T17:35:55Z</time></trkpt><trkpt lat="39.289502983717306" lon="9.386996640816896"><ele>610.75</ele><time>2026-04-08T17:35:56Z</time></trkpt><trkpt lat="39.289426977054916" lon="9.386891639251647"><ele>612.0</ele><time>2026-04-08T17:35:57Z</time></trkpt><trkpt lat="39.28937665673474" lon="9.386790296152476"><ele>612.0</ele><time>2026-04-08T17:35:58Z</time></trkpt><trkpt lat="39.289347130444575" lon="9.386686231834036"><ele>612.0</ele><time>2026-04-08T17:35:59Z</time></trkpt><trkpt lat="39.289333718767296" lon="9.386550525928135"><ele>612.0</ele><time>2026-04-08T17:36:00Z</time></trkpt><trkpt lat="39.289307805645144" lon="9.38639494304259"><ele>612.0</ele><time>2026-04-08T17:36:01Z</time></trkpt><trkpt lat="39.28927761328504" lon="9.386249232842841"><ele>612.0</ele><time>2026-04-08T17:36:02Z</time></trkpt><trkpt lat="39.28921419892645" lon="9.386119414196873"><ele>612.5</ele><time>2026-04-08T17:36:03Z</time></trkpt><trkpt lat="39.28911695495039" lon="9.386003968035597"><ele>613.0</ele><time>2026-04-08T17:36:04Z</time></trkpt><trkpt lat="39.28899862260484" lon="9.385897204095523"><ele>613.5</ele><time>2026-04-08T17:36:05Z</time></trkpt><trkpt lat="39.28887785000097" lon="9.38576675187374"><ele>614.0</ele><time>2026-04-08T17:36:06Z</time></trkpt><trkpt lat="39.28874998406358" lon="9.385644136144062"><ele>614.0</ele><time>2026-04-08T17:36:07Z</time></trkpt><trkpt lat="39.2886269126701" lon="9.385527124137372"><ele>614.0</ele><time>2026-04-08T17:36:08Z</time></trkpt><trkpt lat="39.28850263660728" lon="9.385420662726638"><ele>614.0</ele><time>2026-04-08T17:36:09Z</time></trkpt><trkpt lat="39.288399430197344" lon="9.385282795895023"><ele>615.5</ele><time>2026-04-08T17:36:10Z</time></trkpt><trkpt lat="39.2882819405954" lon="9.385167119178124"><ele>617.0</ele><time>2026-04-08T17:36:11Z</time></trkpt><trkpt lat="39.28816199898882" lon="9.385048204911962"><ele>618.5</ele><time>2026-04-08T17:36:12Z</time></trkpt><trkpt lat="39.28804738561673" lon="9.384932159996628"><ele>620.0</ele><time>2026-04-08T17:36:13Z</time></trkpt><trkpt lat="39.28793232970997" lon="9.384821415893963"><ele>620.2</ele><time>2026-04-08T17:36:14Z</time></trkpt><trkpt lat="39.28781558964785" lon="9.384769164606173"><ele>620.4</ele><time>2026-04-08T17:36:15Z</time></trkpt><trkpt lat="39.287717312496554" lon="9.384740103381954"><ele>620.6</ele><time>2026-04-08T17:36:16Z</time></trkpt><trkpt lat="39.287619571962836" lon="9.384723758832783"><ele>620.8</ele><time>2026-04-08T17:36:17Z</time></trkpt><trkpt lat="39.287540071692895" lon="9.384812571192331"><ele>621.0</ele><time>2026-04-08T17:36:18Z</time></trkpt><trkpt lat="39.287494371954466" lon="9.38495672657163"><ele>621.0</ele><time>2026-04-08T17:36:19Z</time></trkpt><trkpt lat="39.28740338094161" lon="9.385080247596948"><ele>621.0</ele><time>2026-04-08T17:36:20Z</time></trkpt><trkpt lat="39.28728575824113" lon="9.385183648493788"><ele>621.0</ele><time>2026-04-08T17:36:21Z</time></trkpt><trkpt lat="39.28715692753595" lon="9.385255485236563"><ele>621.0</ele><time>2026-04-08T17:36:22Z</time></trkpt><trkpt lat="39.2870039836693" lon="9.385328958150298"><ele>625.3333333333334</ele><time>2026-04-08T17:36:23Z</time></trkpt><trkpt lat="39.28684083889879" lon="9.3853760183276"><ele>629.6666666666667</ele><time>2026-04-08T17:36:24Z</time></trkpt><trkpt lat="39.28668985121772" lon="9.38542102829265"><ele>634.0</ele><time>2026-04-08T17:36:25Z</time></trkpt><trkpt lat="39.28656033343526" lon="9.385466357784994"><ele>634.6666666666667</ele><time>2026-04-08T17:36:26Z</time></trkpt><trkpt lat="39.286456864620746" lon="9.38552810473822"><ele>635.3333333333334</ele><time>2026-04-08T17:36:27Z</time></trkpt><trkpt lat="39.286371751528286" lon="9.385540582653876"><ele>636.0</ele><time>2026-04-08T17:36:28Z</time></trkpt><trkpt lat="39.2863134679482" lon="9.385600492405716"><ele>636.6666666666666</ele><time>2026-04-08T17:36:29Z</time></trkpt><trkpt lat="39.28624633473083" lon="9.385640491933554"><ele>637.3333333333333</ele><time>2026-04-08T17:36:30Z</time></trkpt><trkpt lat="39.28619273936191" lon="9.385731628488578"><ele>638.0</ele><time>2026-04-08T17:36:31Z</time></trkpt><trkpt lat="39.286183674743675" lon="9.385888656105196"><ele>638.0</ele><time>2026-04-08T17:36:32Z</time></trkpt><trkpt lat="39.286184776176036" lon="9.386050577874288"><ele>638.0</ele><time>2026-04-08T17:36:33Z</time></trkpt><trkpt lat="39.286198884310316" lon="9.38623255968377"><ele>638.0</ele><time>2026-04-08T17:36:34Z</time></trkpt><trkpt lat="39.28618447585574" lon="9.386408961316667"><ele>638.0</ele><time>2026-04-08T17:36:35Z</time></trkpt><trkpt lat="39.28617041427216" lon="9.386583124606597"><ele>637.0</ele><time>2026-04-08T17:36:36Z</time></trkpt><trkpt lat="39.28615216555966" lon="9.386744374699193"><ele>636.0</ele><time>2026-04-08T17:36:37Z</time></trkpt><trkpt lat="39.28612267094111" lon="9.386884614083826"><ele>635.0</ele><time>2026-04-08T17:36:38Z</time></trkpt><trkpt lat="39.286066523240066" lon="9.386982893441706"><ele>634.0</ele><time>2026-04-08T17:36:39Z</time></trkpt><trkpt lat="39.28597392363285" lon="9.38706789975196"><ele>633.0</ele><time>2026-04-08T17:36:40Z</time></trkpt><trkpt lat="39.28585688753494" lon="9.387162460331409"><ele>631.5</ele><time>2026-04-08T17:36:41Z</time></trkpt><trkpt lat="39.285729252827444" lon="9.387253489678358"><ele>630.0</ele><time>2026-04-08T17:36:42Z</time></trkpt><trkpt lat="39.2856005157524" lon="9.387315799163837"><ele>628.5</ele><time>2026-04-08T17:36:43Z</time></trkpt><trkpt lat="39.28546206748957" lon="9.387362866290804"><ele>627.0</ele><time>2026-04-08T17:36:44Z</time></trkpt><trkpt lat="39.28531695715711" lon="9.387398896048545"><ele>626.25</ele><time>2026-04-08T17:36:45Z</time></trkpt><trkpt lat="39.28516901891822" lon="9.387393435314339"><ele>625.5</ele><time>2026-04-08T17:36:46Z</time></trkpt><trkpt lat="39.28502207888744" lon="9.38737360621147"><ele>624.75</ele><time>2026-04-08T17:36:47Z</time></trkpt><trkpt lat="39.284880172315965" lon="9.387351142564578"><ele>624.0</ele><time>2026-04-08T17:36:48Z</time></trkpt><trkpt lat="39.28474317801481" lon="9.387330099581105"><ele>622.75</ele><time>2026-04-08T17:36:49Z</time></trkpt><trkpt lat="39.284613030554596" lon="9.387324305479735"><ele>621.5</ele><time>2026-04-08T17:36:50Z</time></trkpt><trkpt lat="39.284489506335305" lon="9.387345310557006"><ele>620.25</ele><time>2026-04-08T17:36:51Z</time></trkpt><trkpt lat="39.2843739901961" lon="9.387362950435074"><ele>619.0</ele><time>2026-04-08T17:36:52Z</time></trkpt><trkpt lat="39.28426371468812" lon="9.387355522473266"><ele>619.0</ele><time>2026-04-08T17:36:53Z</time></trkpt><trkpt lat="39.284153276528926" lon="9.387314708781885"><ele>619.0</ele><time>2026-04-08T17:36:54Z</time></trkpt><trkpt lat="39.28406757482585" lon="9.387181623441862"><ele>619.0</ele><time>2026-04-08T17:36:55Z</time></trkpt><trkpt lat="39.28395353684093" lon="9.38710843553274"><ele>619.0</ele><time>2026-04-08T17:36:56Z</time></trkpt><trkpt lat="39.2838442697218" lon="9.387070383814976"><ele>620.5</ele><time>2026-04-08T17:36:57Z</time></trkpt><trkpt lat="39.28374065463938" lon="9.387009493387948"><ele>622.0</ele><time>2026-04-08T17:36:58Z</time></trkpt><trkpt lat="39.28362219424708" lon="9.387008060658147"><ele>623.5</ele><time>2026-04-08T17:36:59Z</time></trkpt><trkpt lat="39.28349016499205" lon="9.387045535002295"><ele>625.0</ele><time>2026-04-08T17:37:00Z</time></trkpt><trkpt lat="39.28336487474046" lon="9.387129184697205"><ele>624.25</ele><time>2026-04-08T17:37:01Z</time></trkpt><trkpt lat="39.283239667788436" lon="9.3871989451838"><ele>623.5</ele><time>2026-04-08T17:37:02Z</time></trkpt><trkpt lat="39.28310580820461" lon="9.387271263368012"><ele>622.75</ele><time>2026-04-08T17:37:03Z</time></trkpt><trkpt lat="39.2829755519052" lon="9.387345786804714"><ele>622.0</ele><time>2026-04-08T17:37:04Z</time></trkpt><trkpt lat="39.28284330867064" lon="9.387422216257965"><ele>622.0</ele><time>2026-04-08T17:37:05Z</time></trkpt><trkpt lat="39.28270905083009" lon="9.38749813199606"><ele>622.0</ele><time>2026-04-08T17:37:06Z</time></trkpt><trkpt lat="39.282565923393435" lon="9.38757692512839"><ele>622.0</ele><time>2026-04-08T17:37:07Z</time></trkpt><trkpt lat="39.282410100235914" lon="9.387667339771582"><ele>624.0</ele><time>2026-04-08T17:37:08Z</time></trkpt><trkpt lat="39.282250216052596" lon="9.387757836812685"><ele>626.0</ele><time>2026-04-08T17:37:09Z</time></trkpt><trkpt lat="39.28209237458458" lon="9.387851407707167"><ele>628.0</ele><time>2026-04-08T17:37:10Z</time></trkpt><trkpt lat="39.2819475572885" lon="9.387959642134136"><ele>626.3333333333334</ele><time>2026-04-08T17:37:11Z</time></trkpt><trkpt lat="39.28180436845794" lon="9.388099080358135"><ele>624.6666666666666</ele><time>2026-04-08T17:37:12Z</time></trkpt><trkpt lat="39.281656929693725" lon="9.388269311790463"><ele>623.0</ele><time>2026-04-08T17:37:13Z</time></trkpt><trkpt lat="39.28150218919818" lon="9.388431465548376"><ele>625.0</ele><time>2026-04-08T17:37:14Z</time></trkpt><trkpt lat="39.28136029122064" lon="9.388591881492156"><ele>627.0</ele><time>2026-04-08T17:37:15Z</time></trkpt><trkpt lat="39.2812333494305" lon="9.388760299659026"><ele>629.0</ele><time>2026-04-08T17:37:16Z</time></trkpt><trkpt lat="39.281097084360006" lon="9.388904611601372"><ele>629.0</ele><time>2026-04-08T17:37:17Z</time></trkpt><trkpt lat="39.280960172095895" lon="9.38905678886062"><ele>629.0</ele><time>2026-04-08T17:37:18Z</time></trkpt><trkpt lat="39.28080807027029" lon="9.389205262421852"><ele>629.0</ele><time>2026-04-08T17:37:19Z</time></trkpt><trkpt lat="39.28064122150403" lon="9.38939114393901"><ele>631.3333333333333</ele><time>2026-04-08T17:37:20Z</time></trkpt><trkpt lat="39.280471905553945" lon="9.389604098929691"><ele>633.6666666666666</ele><time>2026-04-08T17:37:21Z</time></trkpt><trkpt lat="39.28030186274565" lon="9.389757451323332"><ele>636.0</ele><time>2026-04-08T17:37:22Z</time></trkpt><trkpt lat="39.280159707637374" lon="9.389908709945189"><ele>636.0</ele><time>2026-04-08T17:37:23Z</time></trkpt><trkpt lat="39.280023576000474" lon="9.390053468336186"><ele>636.0</ele><time>2026-04-08T17:37:24Z</time></trkpt><trkpt lat="39.27988159194176" lon="9.390204715276283"><ele>636.0</ele><time>2026-04-08T17:37:25Z</time></trkpt><trkpt lat="39.279730950182504" lon="9.39036977933834"><ele>638.0</ele><time>2026-04-08T17:37:26Z</time></trkpt><trkpt lat="39.279586960832155" lon="9.390560310617822"><ele>640.0</ele><time>2026-04-08T17:37:27Z</time></trkpt><trkpt lat="39.27942992986927" lon="9.39074606286047"><ele>642.0</ele><time>2026-04-08T17:37:28Z</time></trkpt><trkpt lat="39.27928739178133" lon="9.39094212155824"><ele>642.0</ele><time>2026-04-08T17:37:29Z</time></trkpt><trkpt lat="39.27914456360891" lon="9.391134747196814"><ele>642.0</ele><time>2026-04-08T17:37:30Z</time></trkpt><trkpt lat="39.27900345197299" lon="9.391328241072971"><ele>642.0</ele><time>2026-04-08T17:37:31Z</time></trkpt><trkpt lat="39.27886577059426" lon="9.391500534257831"><ele>645.0</ele><time>2026-04-08T17:37:32Z</time></trkpt><trkpt lat="39.278738040134485" lon="9.391664721860263"><ele>648.0</ele><time>2026-04-08T17:37:33Z</time></trkpt><trkpt lat="39.27862259970244" lon="9.39181046377234"><ele>651.0</ele><time>2026-04-08T17:37:34Z</time></trkpt><trkpt lat="39.27851677860139" lon="9.391953390380365"><ele>651.0</ele><time>2026-04-08T17:37:35Z</time></trkpt><trkpt lat="39.278419340097294" lon="9.392084372549135"><ele>651.0</ele><time>2026-04-08T17:37:36Z</time></trkpt><trkpt lat="39.27830780722022" lon="9.392182080344757"><ele>651.0</ele><time>2026-04-08T17:37:37Z</time></trkpt><trkpt lat="39.2781892497311" lon="9.39228732812017"><ele>651.0</ele><time>2026-04-08T17:37:38Z</time></trkpt><trkpt lat="39.278063334355195" lon="9.392378894374263"><ele>649.3333333333334</ele><time>2026-04-08T17:37:39Z</time></trkpt><trkpt lat="39.27791542389777" lon="9.392451409021332"><ele>647.6666666666667</ele><time>2026-04-08T17:37:40Z</time></trkpt><trkpt lat="39.27775223460356" lon="9.392522307753756"><ele>646.0</ele><time>2026-04-08T17:37:41Z</time></trkpt><trkpt lat="39.2775793076344" lon="9.39258924689161"><ele>646.0</ele><time>2026-04-08T17:37:42Z</time></trkpt><trkpt lat="39.27740529202145" lon="9.392668954754624"><ele>646.0</ele><time>2026-04-08T17:37:43Z</time></trkpt><trkpt lat="39.277229058180176" lon="9.392757215740637"><ele>646.0</ele><time>2026-04-08T17:37:44Z</time></trkpt><trkpt lat="39.27705042484511" lon="9.392844294681197"><ele>645.0</ele><time>2026-04-08T17:37:45Z</time></trkpt><trkpt lat="39.27686740378169" lon="9.392928082037244"><ele>644.0</ele><time>2026-04-08T17:37:46Z</time></trkpt><trkpt lat="39.27668352407661" lon="9.393011634037466"><ele>643.0</ele><time>2026-04-08T17:37:47Z</time></trkpt><trkpt lat="39.27650809567145" lon="9.39309328616438"><ele>645.0</ele><time>2026-04-08T17:37:48Z</time></trkpt><trkpt lat="39.27633545881201" lon="9.39317697993927"><ele>647.0</ele><time>2026-04-08T17:37:49Z</time></trkpt><trkpt lat="39.276162490601976" lon="9.393260834362964"><ele>649.0</ele><time>2026-04-08T17:37:50Z</time></trkpt><trkpt lat="39.27599230106439" lon="9.393343652548124"><ele>649.0</ele><time>2026-04-08T17:37:51Z</time></trkpt><trkpt lat="39.27583564661829" lon="9.39342004432076"><ele>649.0</ele><time>2026-04-08T17:37:52Z</time></trkpt><trkpt lat="39.27569543184802" lon="9.393489448890733"><ele>649.0</ele><time>2026-04-08T17:37:53Z</time></trkpt><trkpt lat="39.27557569110459" lon="9.393550128785012"><ele>649.0</ele><time>2026-04-08T17:37:54Z</time></trkpt><trkpt lat="39.27546735131246" lon="9.393611565224445"><ele>651.0</ele><time>2026-04-08T17:37:55Z</time></trkpt><trkpt lat="39.27539231060333" lon="9.393724332418177"><ele>653.0</ele><time>2026-04-08T17:37:56Z</time></trkpt><trkpt lat="39.275317475117305" lon="9.393836181160866"><ele>655.0</ele><time>2026-04-08T17:37:57Z</time></trkpt><trkpt lat="39.275257971921526" lon="9.393979881057557"><ele>657.0</ele><time>2026-04-08T17:37:58Z</time></trkpt><trkpt lat="39.27521378755854" lon="9.394137979108333"><ele>657.0</ele><time>2026-04-08T17:37:59Z</time></trkpt><trkpt lat="39.275195095388284" lon="9.394299700875386"><ele>657.0</ele><time>2026-04-08T17:38:00Z</time></trkpt><trkpt lat="39.27520166183906" lon="9.39446694284188"><ele>657.0</ele><time>2026-04-08T17:38:01Z</time></trkpt><trkpt lat="39.2752302797728" lon="9.394662988221738"><ele>657.0</ele><time>2026-04-08T17:38:02Z</time></trkpt><trkpt lat="39.27523503271777" lon="9.394861535618487"><ele>657.6</ele><time>2026-04-08T17:38:03Z</time></trkpt><trkpt lat="39.27524955169993" lon="9.395016654555008"><ele>658.2</ele><time>2026-04-08T17:38:04Z</time></trkpt><trkpt lat="39.27526048775332" lon="9.395145128081726"><ele>658.8</ele><time>2026-04-08T17:38:05Z</time></trkpt><trkpt lat="39.27526615502867" lon="9.395255325928535"><ele>659.4</ele><time>2026-04-08T17:38:06Z</time></trkpt><trkpt lat="39.275265784819254" lon="9.395356891981441"><ele>660.0</ele><time>2026-04-08T17:38:07Z</time></trkpt><trkpt lat="39.27525744298041" lon="9.39545036449718"><ele>660.0</ele><time>2026-04-08T17:38:08Z</time></trkpt><trkpt lat="39.27523560702708" lon="9.395530362344124"><ele>660.0</ele><time>2026-04-08T17:38:09Z</time></trkpt><trkpt lat="39.27521372428403" lon="9.395622377689179"><ele>660.0</ele><time>2026-04-08T17:38:10Z</time></trkpt><trkpt lat="39.27517695084711" lon="9.395710104162296"><ele>660.0</ele><time>2026-04-08T17:38:11Z</time></trkpt><trkpt lat="39.275121428107376" lon="9.395818399340122"><ele>660.0</ele><time>2026-04-08T17:38:12Z</time></trkpt><trkpt lat="39.275057130427065" lon="9.395931992000465"><ele>660.0</ele><time>2026-04-08T17:38:13Z</time></trkpt><trkpt lat="39.27498632562414" lon="9.396060111155402"><ele>660.0</ele><time>2026-04-08T17:38:14Z</time></trkpt><trkpt lat="39.27491437090563" lon="9.396176200451404"><ele>660.0</ele><time>2026-04-08T17:38:15Z</time></trkpt><trkpt lat="39.27484363856994" lon="9.396273042231146"><ele>660.0</ele><time>2026-04-08T17:38:16Z</time></trkpt><trkpt lat="39.274754523889435" lon="9.396337800817125"><ele>660.0</ele><time>2026-04-08T17:38:17Z</time></trkpt><trkpt lat="39.274643384161706" lon="9.396362514262101"><ele>660.0</ele><time>2026-04-08T17:38:18Z</time></trkpt><trkpt lat="39.2745162666647" lon="9.396394421697424"><ele>658.6666666666666</ele><time>2026-04-08T17:38:19Z</time></trkpt><trkpt lat="39.274378644755295" lon="9.396449238931872"><ele>657.3333333333333</ele><time>2026-04-08T17:38:20Z</time></trkpt><trkpt lat="39.274223439082384" lon="9.39646583054124"><ele>656.0</ele><time>2026-04-08T17:38:21Z</time></trkpt><trkpt lat="39.2740737799179" lon="9.396509926588964"><ele>656.3333333333333</ele><time>2026-04-08T17:38:22Z</time></trkpt><trkpt lat="39.273919149135764" lon="9.396547226351899"><ele>656.6666666666666</ele><time>2026-04-08T17:38:23Z</time></trkpt><trkpt lat="39.27377285023182" lon="9.396582447172012"><ele>657.0</ele><time>2026-04-08T17:38:24Z</time></trkpt><trkpt lat="39.2736259205005" lon="9.39662125054389"><ele>657.0</ele><time>2026-04-08T17:38:25Z</time></trkpt><trkpt lat="39.273478511078636" lon="9.39666222027018"><ele>657.0</ele><time>2026-04-08T17:38:26Z</time></trkpt><trkpt lat="39.27332611422047" lon="9.396700612423581"><ele>657.0</ele><time>2026-04-08T17:38:27Z</time></trkpt><trkpt lat="39.27319388395871" lon="9.396770357926043"><ele>657.0</ele><time>2026-04-08T17:38:28Z</time></trkpt><trkpt lat="39.273069047566125" lon="9.39683240204424"><ele>658.5</ele><time>2026-04-08T17:38:29Z</time></trkpt><trkpt lat="39.27294149030998" lon="9.396888676867919"><ele>660.0</ele><time>2026-04-08T17:38:30Z</time></trkpt><trkpt lat="39.27280472737037" lon="9.39695419192492"><ele>661.5</ele><time>2026-04-08T17:38:31Z</time></trkpt><trkpt lat="39.27266751628634" lon="9.39701973023295"><ele>663.0</ele><time>2026-04-08T17:38:32Z</time></trkpt><trkpt lat="39.272542446291986" lon="9.397079169908633"><ele>663.0</ele><time>2026-04-08T17:38:33Z</time></trkpt><trkpt lat="39.27242607647268" lon="9.397122047948713"><ele>663.0</ele><time>2026-04-08T17:38:34Z</time></trkpt><trkpt lat="39.272328383750235" lon="9.397130130842786"><ele>663.0</ele><time>2026-04-08T17:38:35Z</time></trkpt><trkpt lat="39.27224594373945" lon="9.397144606671471"><ele>663.0</ele><time>2026-04-08T17:38:36Z</time></trkpt><trkpt lat="39.27216293539242" lon="9.39715453023746"><ele>663.0</ele><time>2026-04-08T17:38:37Z</time></trkpt><trkpt lat="39.27207689417774" lon="9.39708046380909"><ele>661.75</ele><time>2026-04-08T17:38:38Z</time></trkpt><trkpt lat="39.271985506236874" lon="9.396989418846953"><ele>660.5</ele><time>2026-04-08T17:38:39Z</time></trkpt><trkpt lat="39.27187724058931" lon="9.396874529595713"><ele>659.25</ele><time>2026-04-08T17:38:40Z</time></trkpt><trkpt lat="39.27174923249642" lon="9.396752978095124"><ele>658.0</ele><time>2026-04-08T17:38:41Z</time></trkpt><trkpt lat="39.271639656002456" lon="9.396618364643327"><ele>658.0</ele><time>2026-04-08T17:38:42Z</time></trkpt><trkpt lat="39.271542692395066" lon="9.396508088708115"><ele>658.0</ele><time>2026-04-08T17:38:43Z</time></trkpt><trkpt lat="39.27146022272379" lon="9.396420095045936"><ele>658.0</ele><time>2026-04-08T17:38:44Z</time></trkpt><trkpt lat="39.27137960879962" lon="9.396359287089561"><ele>658.0</ele><time>2026-04-08T17:38:45Z</time></trkpt><trkpt lat="39.2712973175385" lon="9.396317927270767"><ele>658.0</ele><time>2026-04-08T17:38:46Z</time></trkpt><trkpt lat="39.27120649065077" lon="9.39636984041351"><ele>659.8</ele><time>2026-04-08T17:38:47Z</time></trkpt><trkpt lat="39.27111858537019" lon="9.396426711754284"><ele>661.5999999999999</ele><time>2026-04-08T17:38:48Z</time></trkpt><trkpt lat="39.271015953969474" lon="9.396503449094624"><ele>663.4000000000001</ele><time>2026-04-08T17:38:49Z</time></trkpt><trkpt lat="39.27094757352729" lon="9.396599851843012"><ele>665.2</ele><time>2026-04-08T17:38:50Z</time></trkpt><trkpt lat="39.27091760549206" lon="9.396734908612626"><ele>667.0</ele><time>2026-04-08T17:38:51Z</time></trkpt><trkpt lat="39.270919016342724" lon="9.396909012854493"><ele>667.0</ele><time>2026-04-08T17:38:52Z</time></trkpt><trkpt lat="39.27090415272198" lon="9.39709098857489"><ele>667.0</ele><time>2026-04-08T17:38:53Z</time></trkpt><trkpt lat="39.2708833674867" lon="9.397281553507733"><ele>667.0</ele><time>2026-04-08T17:38:54Z</time></trkpt><trkpt lat="39.270842131964784" lon="9.39745511819213"><ele>667.0</ele><time>2026-04-08T17:38:55Z</time></trkpt><trkpt lat="39.27079181824415" lon="9.397624453826753"><ele>666.0</ele><time>2026-04-08T17:38:56Z</time></trkpt><trkpt lat="39.27074099435516" lon="9.397777016023165"><ele>665.0</ele><time>2026-04-08T17:38:57Z</time></trkpt><trkpt lat="39.2706911140263" lon="9.397901181068192"><ele>664.0</ele><time>2026-04-08T17:38:58Z</time></trkpt><trkpt lat="39.27064079767895" lon="9.39800414776624"><ele>663.0</ele><time>2026-04-08T17:38:59Z</time></trkpt><trkpt lat="39.27058292471686" lon="9.398078200878503"><ele>662.0</ele><time>2026-04-08T17:39:00Z</time></trkpt><trkpt lat="39.27050742585508" lon="9.398135140536224"><ele>662.0</ele><time>2026-04-08T17:39:01Z</time></trkpt><trkpt lat="39.270406324099774" lon="9.398182842988032"><ele>662.0</ele><time>2026-04-08T17:39:02Z</time></trkpt><trkpt lat="39.270299398300246" lon="9.398226435080309"><ele>662.0</ele><time>2026-04-08T17:39:03Z</time></trkpt><trkpt lat="39.27018310616423" lon="9.398256548604206"><ele>662.0</ele><time>2026-04-08T17:39:04Z</time></trkpt><trkpt lat="39.27006334340849" lon="9.398212611679895"><ele>662.0</ele><time>2026-04-08T17:39:05Z</time></trkpt><trkpt lat="39.26994280464473" lon="9.398148728737713"><ele>662.0</ele><time>2026-04-08T17:39:06Z</time></trkpt><trkpt lat="39.269813534875716" lon="9.398097093968284"><ele>662.0</ele><time>2026-04-08T17:39:07Z</time></trkpt><trkpt lat="39.269693804218086" lon="9.398099479773535"><ele>662.0</ele><time>2026-04-08T17:39:08Z</time></trkpt><trkpt lat="39.26958963792323" lon="9.398167544904656"><ele>663.0</ele><time>2026-04-08T17:39:09Z</time></trkpt><trkpt lat="39.26947590734122" lon="9.39820318493823"><ele>664.0</ele><time>2026-04-08T17:39:10Z</time></trkpt><trkpt lat="39.269370693017095" lon="9.398225252520716"><ele>665.0</ele><time>2026-04-08T17:39:11Z</time></trkpt><trkpt lat="39.26927665482044" lon="9.39819296835259"><ele>666.0</ele><time>2026-04-08T17:39:12Z</time></trkpt><trkpt lat="39.26917669701072" lon="9.398179270254445"><ele>667.0</ele><time>2026-04-08T17:39:13Z</time></trkpt><trkpt lat="39.26906874343665" lon="9.398174822163533"><ele>667.0</ele><time>2026-04-08T17:39:14Z</time></trkpt><trkpt lat="39.26894622775261" lon="9.39822052103743"><ele>667.0</ele><time>2026-04-08T17:39:15Z</time></trkpt><trkpt lat="39.26882684517244" lon="9.398276211398592"><ele>667.0</ele><time>2026-04-08T17:39:16Z</time></trkpt><trkpt lat="39.26870368961335" lon="9.39833342268892"><ele>667.0</ele><time>2026-04-08T17:39:17Z</time></trkpt><trkpt lat="39.26858061693277" lon="9.39838474131256"><ele>669.2</ele><time>2026-04-08T17:39:18Z</time></trkpt><trkpt lat="39.26846363334479" lon="9.398420736460457"><ele>671.4000000000001</ele><time>2026-04-08T17:39:19Z</time></trkpt><trkpt lat="39.26836277563346" lon="9.398430103998637"><ele>673.5999999999999</ele><time>2026-04-08T17:39:20Z</time></trkpt><trkpt lat="39.26825839235512" lon="9.398437901733017"><ele>675.8</ele><time>2026-04-08T17:39:21Z</time></trkpt><trkpt lat="39.26814739757135" lon="9.398446193368336"><ele>678.0</ele><time>2026-04-08T17:39:22Z</time></trkpt><trkpt lat="39.2680186153018" lon="9.398455813773747"><ele>680.6666666666666</ele><time>2026-04-08T17:39:23Z</time></trkpt><trkpt lat="39.26787599661553" lon="9.398466467804747"><ele>683.3333333333333</ele><time>2026-04-08T17:39:24Z</time></trkpt><trkpt lat="39.26772439638435" lon="9.39847779278194"><ele>686.0</ele><time>2026-04-08T17:39:25Z</time></trkpt><trkpt lat="39.26756439681048" lon="9.398510289987467"><ele>686.0</ele><time>2026-04-08T17:39:26Z</time></trkpt><trkpt lat="39.26742113768349" lon="9.398500447084025"><ele>686.0</ele><time>2026-04-08T17:39:27Z</time></trkpt><trkpt lat="39.267279158298024" lon="9.398509805917035"><ele>686.0</ele><time>2026-04-08T17:39:28Z</time></trkpt><trkpt lat="39.26713857675256" lon="9.398517302117742"><ele>686.0</ele><time>2026-04-08T17:39:29Z</time></trkpt><trkpt lat="39.267001411994244" lon="9.39851720195225"><ele>686.0</ele><time>2026-04-08T17:39:30Z</time></trkpt><trkpt lat="39.26686750312007" lon="9.39849462822533"><ele>686.0</ele><time>2026-04-08T17:39:31Z</time></trkpt><trkpt lat="39.26673398735631" lon="9.398466587008947"><ele>686.0</ele><time>2026-04-08T17:39:32Z</time></trkpt><trkpt lat="39.26661645033046" lon="9.398442572191925"><ele>686.0</ele><time>2026-04-08T17:39:33Z</time></trkpt><trkpt lat="39.2665091026988" lon="9.398423691377195"><ele>688.0</ele><time>2026-04-08T17:39:34Z</time></trkpt><trkpt lat="39.266395066158196" lon="9.398449720350857"><ele>690.0</ele><time>2026-04-08T17:39:35Z</time></trkpt><trkpt lat="39.26627081263287" lon="9.398472733537304"><ele>692.0</ele><time>2026-04-08T17:39:36Z</time></trkpt><trkpt lat="39.26613334837659" lon="9.39852620890636"><ele>694.0</ele><time>2026-04-08T17:39:37Z</time></trkpt><trkpt lat="39.26597739292582" lon="9.398573705180343"><ele>694.0</ele><time>2026-04-08T17:39:38Z</time></trkpt><trkpt lat="39.26583287492617" lon="9.398641534459026"><ele>694.0</ele><time>2026-04-08T17:39:39Z</time></trkpt><trkpt lat="39.2656975431351" lon="9.398692719961515"><ele>694.0</ele><time>2026-04-08T17:39:40Z</time></trkpt><trkpt lat="39.26556618675617" lon="9.398723814169221"><ele>694.0</ele><time>2026-04-08T17:39:41Z</time></trkpt><trkpt lat="39.265435504605456" lon="9.398750950019888"><ele>695.0</ele><time>2026-04-08T17:39:42Z</time></trkpt><trkpt lat="39.26531625080512" lon="9.398778205245394"><ele>696.0</ele><time>2026-04-08T17:39:43Z</time></trkpt><trkpt lat="39.265212551224415" lon="9.398797008518438"><ele>697.0</ele><time>2026-04-08T17:39:44Z</time></trkpt><trkpt lat="39.2651064199239" lon="9.398804419754619"><ele>698.0</ele><time>2026-04-08T17:39:45Z</time></trkpt><trkpt lat="39.26499428457874" lon="9.39880038246329"><ele>699.0</ele><time>2026-04-08T17:39:46Z</time></trkpt><trkpt lat="39.26488837499202" lon="9.398754519698791"><ele>699.0</ele><time>2026-04-08T17:39:47Z</time></trkpt><trkpt lat="39.26478391088048" lon="9.39867260239927"><ele>699.0</ele><time>2026-04-08T17:39:48Z</time></trkpt><trkpt lat="39.26466546080195" lon="9.398626532648658"><ele>699.0</ele><time>2026-04-08T17:39:49Z</time></trkpt><trkpt lat="39.26453450570724" lon="9.398610775981767"><ele>699.0</ele><time>2026-04-08T17:39:50Z</time></trkpt><trkpt lat="39.2644015375308" lon="9.398624065390996"><ele>698.8000000000001</ele><time>2026-04-08T17:39:51Z</time></trkpt><trkpt lat="39.26429072754868" lon="9.398640745006876"><ele>698.6</ele><time>2026-04-08T17:39:52Z</time></trkpt><trkpt lat="39.26421133657999" lon="9.398618826918721"><ele>698.4</ele><time>2026-04-08T17:39:53Z</time></trkpt><trkpt lat="39.264145784821054" lon="9.398573254549776"><ele>698.2</ele><time>2026-04-08T17:39:54Z</time></trkpt><trkpt lat="39.26406121092845" lon="9.39850209949571"><ele>698.0</ele><time>2026-04-08T17:39:55Z</time></trkpt><trkpt lat="39.26395741034363" lon="9.398414848781567"><ele>697.75</ele><time>2026-04-08T17:39:56Z</time></trkpt><trkpt lat="39.26384226964294" lon="9.398361597031233"><ele>697.5</ele><time>2026-04-08T17:39:57Z</time></trkpt><trkpt lat="39.26370546945818" lon="9.398389728207526"><ele>697.25</ele><time>2026-04-08T17:39:58Z</time></trkpt><trkpt lat="39.26355064560011" lon="9.398398332594471"><ele>697.0</ele><time>2026-04-08T17:39:59Z</time></trkpt><trkpt lat="39.263399635955274" lon="9.398406329307855"><ele>697.0</ele><time>2026-04-08T17:40:00Z</time></trkpt><trkpt lat="39.26325507298336" lon="9.39838148382436"><ele>697.0</ele><time>2026-04-08T17:40:01Z</time></trkpt><trkpt lat="39.26310569091998" lon="9.398340269363871"><ele>697.0</ele><time>2026-04-08T17:40:02Z</time></trkpt><trkpt lat="39.262974516707814" lon="9.398301061747654"><ele>697.0</ele><time>2026-04-08T17:40:03Z</time></trkpt><trkpt lat="39.26285397506734" lon="9.39827068982504"><ele>697.0</ele><time>2026-04-08T17:40:04Z</time></trkpt><trkpt lat="39.26272188989861" lon="9.398264461696723"><ele>697.0</ele><time>2026-04-08T17:40:05Z</time></trkpt><trkpt lat="39.2625778111078" lon="9.39829194678373"><ele>697.0</ele><time>2026-04-08T17:40:06Z</time></trkpt><trkpt lat="39.262433485625365" lon="9.398318924780293"><ele>697.0</ele><time>2026-04-08T17:40:07Z</time></trkpt><trkpt lat="39.26228648992535" lon="9.398346403432699"><ele>697.5</ele><time>2026-04-08T17:40:08Z</time></trkpt><trkpt lat="39.2621460250763" lon="9.39836108112625"><ele>698.0</ele><time>2026-04-08T17:40:09Z</time></trkpt><trkpt lat="39.26202258074072" lon="9.398349561767022"><ele>698.5</ele><time>2026-04-08T17:40:10Z</time></trkpt><trkpt lat="39.26190090784203" lon="9.398322787054177"><ele>699.0</ele><time>2026-04-08T17:40:11Z</time></trkpt><trkpt lat="39.26177381163278" lon="9.398291679474784"><ele>699.0</ele><time>2026-04-08T17:40:12Z</time></trkpt><trkpt lat="39.261653168179855" lon="9.398262996037117"><ele>699.0</ele><time>2026-04-08T17:40:13Z</time></trkpt><trkpt lat="39.261523858608314" lon="9.398242751376511"><ele>699.0</ele><time>2026-04-08T17:40:14Z</time></trkpt><trkpt lat="39.26137813225908" lon="9.398275823539121"><ele>699.0</ele><time>2026-04-08T17:40:15Z</time></trkpt><trkpt lat="39.26120278548072" lon="9.398310900578272"><ele>701.3333333333334</ele><time>2026-04-08T17:40:16Z</time></trkpt><trkpt lat="39.26098795475139" lon="9.398353876151104"><ele>703.6666666666667</ele><time>2026-04-08T17:40:17Z</time></trkpt><trkpt lat="39.260800094969696" lon="9.398385640385253"><ele>706.0</ele><time>2026-04-08T17:40:18Z</time></trkpt><trkpt lat="39.260645780666906" lon="9.398404422979842"><ele>707.75</ele><time>2026-04-08T17:40:19Z</time></trkpt><trkpt lat="39.26051588015383" lon="9.398396946369568"><ele>709.5</ele><time>2026-04-08T17:40:20Z</time></trkpt><trkpt lat="39.260373779074676" lon="9.398384921405137"><ele>711.25</ele><time>2026-04-08T17:40:21Z</time></trkpt><trkpt lat="39.26022464171781" lon="9.398372078342947"><ele>713.0</ele><time>2026-04-08T17:40:22Z</time></trkpt><trkpt lat="39.26007931837084" lon="9.398352247061451"><ele>713.0</ele><time>2026-04-08T17:40:23Z</time></trkpt><trkpt lat="39.25995507588785" lon="9.398308559350369"><ele>713.0</ele><time>2026-04-08T17:40:24Z</time></trkpt><trkpt lat="39.25982530872076" lon="9.398262797926114"><ele>713.0</ele><time>2026-04-08T17:40:25Z</time></trkpt><trkpt lat="39.25969660662352" lon="9.398217730151782"><ele>713.0</ele><time>2026-04-08T17:40:26Z</time></trkpt><trkpt lat="39.25957109164605" lon="9.398191552619348"><ele>715.5</ele><time>2026-04-08T17:40:27Z</time></trkpt><trkpt lat="39.25944124665571" lon="9.398205622560813"><ele>718.0</ele><time>2026-04-08T17:40:28Z</time></trkpt><trkpt lat="39.25930281233346" lon="9.398266978578024"><ele>720.5</ele><time>2026-04-08T17:40:29Z</time></trkpt><trkpt lat="39.259161589209675" lon="9.398335770965234"><ele>723.0</ele><time>2026-04-08T17:40:30Z</time></trkpt><trkpt lat="39.259022445948844" lon="9.39840470743767"><ele>728.6666666666666</ele><time>2026-04-08T17:40:31Z</time></trkpt><trkpt lat="39.25888350488023" lon="9.398469792788635"><ele>734.3333333333333</ele><time>2026-04-08T17:40:32Z</time></trkpt><trkpt lat="39.25873683107363" lon="9.398537972055623"><ele>740.0</ele><time>2026-04-08T17:40:33Z</time></trkpt><trkpt lat="39.258585597764956" lon="9.398608271380722"><ele>740.0</ele><time>2026-04-08T17:40:34Z</time></trkpt><trkpt lat="39.258433051972666" lon="9.398679180815094"><ele>740.0</ele><time>2026-04-08T17:40:35Z</time></trkpt><trkpt lat="39.2582990218042" lon="9.398785561617931"><ele>740.0</ele><time>2026-04-08T17:40:36Z</time></trkpt><trkpt lat="39.25816570298758" lon="9.398845028061654"><ele>738.25</ele><time>2026-04-08T17:40:37Z</time></trkpt><trkpt lat="39.2580366132705" lon="9.398901270450605"><ele>736.5</ele><time>2026-04-08T17:40:38Z</time></trkpt><trkpt lat="39.25790846442205" lon="9.398957164108442"><ele>734.75</ele><time>2026-04-08T17:40:39Z</time></trkpt><trkpt lat="39.2577798178883" lon="9.39900876818451"><ele>733.0</ele><time>2026-04-08T17:40:40Z</time></trkpt><trkpt lat="39.2576445783892" lon="9.39905707292465"><ele>733.0</ele><time>2026-04-08T17:40:41Z</time></trkpt><trkpt lat="39.25750948115995" lon="9.399105794842967"><ele>733.0</ele><time>2026-04-08T17:40:42Z</time></trkpt><trkpt lat="39.25737384903053" lon="9.399158606711463"><ele>733.0</ele><time>2026-04-08T17:40:43Z</time></trkpt><trkpt lat="39.25724912479955" lon="9.399206594404223"><ele>733.0</ele><time>2026-04-08T17:40:44Z</time></trkpt><trkpt lat="39.257136742897764" lon="9.399247027368945"><ele>735.0</ele><time>2026-04-08T17:40:45Z</time></trkpt><trkpt lat="39.25702912304425" lon="9.39927313798467"><ele>737.0</ele><time>2026-04-08T17:40:46Z</time></trkpt><trkpt lat="39.256916947190035" lon="9.399274748171317"><ele>739.0</ele><time>2026-04-08T17:40:47Z</time></trkpt><trkpt lat="39.25677894339822" lon="9.399242600115702"><ele>741.0</ele><time>2026-04-08T17:40:48Z</time></trkpt><trkpt lat="39.25664455411149" lon="9.399219767517232"><ele>741.0</ele><time>2026-04-08T17:40:49Z</time></trkpt><trkpt lat="39.25650717181049" lon="9.399219562747202"><ele>741.0</ele><time>2026-04-08T17:40:50Z</time></trkpt><trkpt lat="39.25636847220817" lon="9.399238592684643"><ele>741.0</ele><time>2026-04-08T17:40:51Z</time></trkpt><trkpt lat="39.25621722190847" lon="9.399267937303042"><ele>741.0</ele><time>2026-04-08T17:40:52Z</time></trkpt><trkpt lat="39.256067072948966" lon="9.399313853526047"><ele>743.25</ele><time>2026-04-08T17:40:53Z</time></trkpt><trkpt lat="39.25591988633904" lon="9.399373317951495"><ele>745.5</ele><time>2026-04-08T17:40:54Z</time></trkpt><trkpt lat="39.25578031388825" lon="9.399441435185446"><ele>747.75</ele><time>2026-04-08T17:40:55Z</time></trkpt><trkpt lat="39.25564765221274" lon="9.399477328636952"><ele>750.0</ele><time>2026-04-08T17:40:56Z</time></trkpt><trkpt lat="39.25553905348428" lon="9.399522727547744"><ele>750.1666666666666</ele><time>2026-04-08T17:40:57Z</time></trkpt><trkpt lat="39.255445816146384" lon="9.399562662054208"><ele>750.3333333333334</ele><time>2026-04-08T17:40:58Z</time></trkpt><trkpt lat="39.255365187765385" lon="9.39959284113243"><ele>750.5</ele><time>2026-04-08T17:40:59Z</time></trkpt><trkpt lat="39.255302364112154" lon="9.39962151585675"><ele>750.6666666666667</ele><time>2026-04-08T17:41:00Z</time></trkpt><trkpt lat="39.25519772511803" lon="9.39966554082285"><ele>750.8333333333334</ele><time>2026-04-08T17:41:02Z</time></trkpt><trkpt lat="39.2551209942361" lon="9.399654984591526"><ele>751.0</ele><time>2026-04-08T17:41:03Z</time></trkpt><trkpt lat="39.25505617371833" lon="9.399681928578325"><ele>750.1999999999999</ele><time>2026-04-08T17:41:04Z</time></trkpt><trkpt lat="39.25498477672726" lon="9.399708272708809"><ele>749.4</ele><time>2026-04-08T17:41:06Z</time></trkpt><trkpt lat="39.254910851777865" lon="9.399913712603638"><ele>748.6</ele><time>2026-04-08T17:41:08Z</time></trkpt><trkpt lat="39.25487819625491" lon="9.400005646726536"><ele>747.8</ele><time>2026-04-08T17:41:09Z</time></trkpt><trkpt lat="39.25482874287603" lon="9.400091719423514"><ele>747.0</ele><time>2026-04-08T17:41:10Z</time></trkpt><trkpt lat="39.25475696537809" lon="9.400183728168997"><ele>746.5</ele><time>2026-04-08T17:41:12Z</time></trkpt><trkpt lat="39.25469562527982" lon="9.40029804668048"><ele>746.0</ele><time>2026-04-08T17:41:14Z</time></trkpt><trkpt lat="39.25469516361432" lon="9.400396245905458"><ele>745.5</ele><time>2026-04-08T17:41:15Z</time></trkpt><trkpt lat="39.25475113698159" lon="9.400466897720646"><ele>745.0</ele><time>2026-04-08T17:41:16Z</time></trkpt><trkpt lat="39.25474764222435" lon="9.400567900417817"><ele>744.5</ele><time>2026-04-08T17:41:19Z</time></trkpt><trkpt lat="39.25476466095266" lon="9.400697768037425"><ele>744.0</ele><time>2026-04-08T17:41:25Z</time></trkpt><trkpt lat="39.25482399018915" lon="9.400845723089175"><ele>745.2</ele><time>2026-04-08T17:41:27Z</time></trkpt><trkpt lat="39.254805997534525" lon="9.40104414474512"><ele>746.4000000000001</ele><time>2026-04-08T17:41:30Z</time></trkpt><trkpt lat="39.25481265749053" lon="9.401138343634402"><ele>747.6</ele><time>2026-04-08T17:41:32Z</time></trkpt><trkpt lat="39.25481926662568" lon="9.40123627834805"><ele>748.8</ele><time>2026-04-08T17:41:33Z</time></trkpt><trkpt lat="39.25486983261798" lon="9.401326383658361"><ele>750.0</ele><time>2026-04-08T17:41:34Z</time></trkpt><trkpt lat="39.25491368445917" lon="9.401385814457024"><ele>750.0</ele><time>2026-04-08T17:41:35Z</time></trkpt><trkpt lat="39.25499134077895" lon="9.401407093209285"><ele>750.0</ele><time>2026-04-08T17:41:37Z</time></trkpt><trkpt lat="39.25507188265063" lon="9.401389529566426"><ele>750.0</ele><time>2026-04-08T17:41:39Z</time></trkpt><trkpt lat="39.255157992592615" lon="9.401461994824068"><ele>750.0</ele><time>2026-04-08T17:41:42Z</time></trkpt><trkpt lat="39.25516460811811" lon="9.401551368216506"><ele>750.0</ele><time>2026-04-08T17:41:44Z</time></trkpt><trkpt lat="39.25519195053547" lon="9.401654923104791"><ele>750.0</ele><time>2026-04-08T17:41:46Z</time></trkpt><trkpt lat="39.255223674173315" lon="9.401767374555114"><ele>750.0</ele><time>2026-04-08T17:41:48Z</time></trkpt><trkpt lat="39.25526081288555" lon="9.40183950687285"><ele>750.0</ele><time>2026-04-08T17:41:50Z</time></trkpt><trkpt lat="39.255062929830544" lon="9.401871435856402"><ele>750.0</ele><time>2026-04-08T17:43:54Z</time></trkpt><trkpt lat="39.25500935332658" lon="9.40180970812057"><ele>750.0</ele><time>2026-04-08T17:43:55Z</time></trkpt><trkpt lat="39.25503709123959" lon="9.401998477920257"><ele>750.0</ele><time>2026-04-08T17:43:56Z</time></trkpt><trkpt lat="39.25505498262113" lon="9.401908355339328"><ele>750.0</ele><time>2026-04-08T17:44:05Z</time></trkpt><trkpt lat="39.25504995288419" lon="9.401993345949826"><ele>750.0</ele><time>2026-04-08T17:45:44Z</time></trkpt><trkpt lat="39.255115892436066" lon="9.40198082528518"><ele>750.0</ele><time>2026-04-08T17:45:52Z</time></trkpt><trkpt lat="39.25517772291115" lon="9.40195580442073"><ele>750.0</ele><time>2026-04-08T17:45:59Z</time></trkpt><trkpt lat="39.25522834060857" lon="9.401904899048883"><ele>750.0</ele><time>2026-04-08T17:46:16Z</time></trkpt><trkpt lat="39.25527411850047" lon="9.401966576425549"><ele>750.0</ele><time>2026-04-08T17:49:32Z</time></trkpt><trkpt lat="39.25530437323437" lon="9.40187899093622"><ele>750.0</ele><time>2026-04-08T17:49:35Z</time></trkpt><trkpt lat="39.25524558041924" lon="9.401794615205725"><ele>750.0</ele><time>2026-04-08T17:49:37Z</time></trkpt><trkpt lat="39.25521038894991" lon="9.401708847205027"><ele>750.0</ele><time>2026-04-08T17:49:38Z</time></trkpt><trkpt lat="39.255207267298665" lon="9.401576376915893"><ele>750.0</ele><time>2026-04-08T17:49:40Z</time></trkpt><trkpt lat="39.2551769088338" lon="9.401471430900893"><ele>750.0</ele><time>2026-04-08T17:49:43Z</time></trkpt><trkpt lat="39.255123413390606" lon="9.401379869359424"><ele>750.0</ele><time>2026-04-08T17:49:46Z</time></trkpt><trkpt lat="39.2550538583571" lon="9.401344009942084"><ele>750.0</ele><time>2026-04-08T17:49:48Z</time></trkpt><trkpt lat="39.25497842358267" lon="9.401351593933686"><ele>750.0</ele><time>2026-04-08T17:49:50Z</time></trkpt><trkpt lat="39.25491059881122" lon="9.401339913297193"><ele>750.0</ele><time>2026-04-08T17:49:52Z</time></trkpt><trkpt lat="39.25487493232283" lon="9.40126251012352"><ele>750.0</ele><time>2026-04-08T17:49:54Z</time></trkpt><trkpt lat="39.254829308858085" lon="9.401120936596879"><ele>750.0</ele><time>2026-04-08T17:49:56Z</time></trkpt><trkpt lat="39.25483169258737" lon="9.401024461046548"><ele>750.0</ele><time>2026-04-08T17:49:57Z</time></trkpt><trkpt lat="39.25485409960562" lon="9.400937149610638"><ele>750.0</ele><time>2026-04-08T17:49:58Z</time></trkpt><trkpt lat="39.25485057498764" lon="9.400810693050312"><ele>750.0</ele><time>2026-04-08T17:50:00Z</time></trkpt><trkpt lat="39.25479672061848" lon="9.40070724473043"><ele>750.0</ele><time>2026-04-08T17:50:02Z</time></trkpt><trkpt lat="39.25477613001436" lon="9.40060831389879"><ele>750.0</ele><time>2026-04-08T17:50:04Z</time></trkpt><trkpt lat="39.254770970008636" lon="9.400478973764953"><ele>750.0</ele><time>2026-04-08T17:50:06Z</time></trkpt><trkpt lat="39.25475845659682" lon="9.400392085897474"><ele>750.0</ele><time>2026-04-08T17:50:07Z</time></trkpt><trkpt lat="39.25473071193319" lon="9.400309461253"><ele>749.5</ele><time>2026-04-08T17:50:08Z</time></trkpt><trkpt lat="39.25477647686737" lon="9.400179852176173"><ele>749.0</ele><time>2026-04-08T17:50:10Z</time></trkpt><trkpt lat="39.25483456789658" lon="9.400139974475508"><ele>748.5</ele><time>2026-04-08T17:50:11Z</time></trkpt><trkpt lat="39.25490523267693" lon="9.400028942867094"><ele>748.0</ele><time>2026-04-08T17:50:13Z</time></trkpt><trkpt lat="39.254924875333" lon="9.399925305687503"><ele>747.5</ele><time>2026-04-08T17:50:15Z</time></trkpt><trkpt lat="39.25490613099942" lon="9.399828587271323"><ele>747.0</ele><time>2026-04-08T17:50:17Z</time></trkpt><trkpt lat="39.2548304814387" lon="9.399803347237377"><ele>746.5</ele><time>2026-04-08T17:50:19Z</time></trkpt><trkpt lat="39.25475181114889" lon="9.399817152506987"><ele>746.0</ele><time>2026-04-08T17:50:21Z</time></trkpt><trkpt lat="39.254675017865466" lon="9.399814335027441"><ele>745.5</ele><time>2026-04-08T17:50:25Z</time></trkpt><trkpt lat="39.2546066595678" lon="9.399725371025797"><ele>745.0</ele><time>2026-04-08T17:51:07Z</time></trkpt><trkpt lat="39.25459644393337" lon="9.399631669496044"><ele>744.5</ele><time>2026-04-08T17:51:08Z</time></trkpt><trkpt lat="39.25450460162788" lon="9.39955484282287"><ele>744.0</ele><time>2026-04-08T17:51:10Z</time></trkpt><trkpt lat="39.25446104960966" lon="9.399410130007821"><ele>743.6</ele><time>2026-04-08T17:51:12Z</time></trkpt><trkpt lat="39.254439365076024" lon="9.399314141071747"><ele>743.2</ele><time>2026-04-08T17:51:13Z</time></trkpt><trkpt lat="39.25443045476514" lon="9.399204725711957"><ele>742.8000000000001</ele><time>2026-04-08T17:51:14Z</time></trkpt><trkpt lat="39.25443324819417" lon="9.399068017592711"><ele>742.4000000000001</ele><time>2026-04-08T17:51:15Z</time></trkpt><trkpt lat="39.25443568651609" lon="9.398896116219596"><ele>742.0</ele><time>2026-04-08T17:51:16Z</time></trkpt><trkpt lat="39.254439541676014" lon="9.398692848997545"><ele>741.25</ele><time>2026-04-08T17:51:17Z</time></trkpt><trkpt lat="39.25443063728881" lon="9.398500009159916"><ele>740.5</ele><time>2026-04-08T17:51:18Z</time></trkpt><trkpt lat="39.25443946267131" lon="9.39833102905973"><ele>739.75</ele><time>2026-04-08T17:51:19Z</time></trkpt><trkpt lat="39.25443427338338" lon="9.398186225550583"><ele>739.0</ele><time>2026-04-08T17:51:20Z</time></trkpt><trkpt lat="39.254424934956454" lon="9.398061266058733"><ele>739.5</ele><time>2026-04-08T17:51:21Z</time></trkpt><trkpt lat="39.254384731349056" lon="9.397946392932045"><ele>740.0</ele><time>2026-04-08T17:51:22Z</time></trkpt><trkpt lat="39.254275467089116" lon="9.397881134156146"><ele>740.5</ele><time>2026-04-08T17:51:23Z</time></trkpt><trkpt lat="39.25415652530469" lon="9.39782104661653"><ele>741.0</ele><time>2026-04-08T17:51:24Z</time></trkpt><trkpt lat="39.25405248608363" lon="9.39774157324998"><ele>741.0</ele><time>2026-04-08T17:51:25Z</time></trkpt><trkpt lat="39.25396174613648" lon="9.397693168498401"><ele>741.0</ele><time>2026-04-08T17:51:26Z</time></trkpt><trkpt lat="39.2539072476381" lon="9.397586294160467"><ele>741.0</ele><time>2026-04-08T17:51:27Z</time></trkpt><trkpt lat="39.25389253079293" lon="9.397468359166378"><ele>741.0</ele><time>2026-04-08T17:51:28Z</time></trkpt><trkpt lat="39.25391116146368" lon="9.397328112622299"><ele>741.0</ele><time>2026-04-08T17:51:29Z</time></trkpt><trkpt lat="39.25393900741346" lon="9.397178609076587"><ele>739.5999999999999</ele><time>2026-04-08T17:51:30Z</time></trkpt><trkpt lat="39.25395930253839" lon="9.397030764424642"><ele>738.2</ele><time>2026-04-08T17:51:31Z</time></trkpt><trkpt lat="39.253975694465154" lon="9.396893920231175"><ele>736.8</ele><time>2026-04-08T17:51:32Z</time></trkpt><trkpt lat="39.25397683813291" lon="9.39676765454363"><ele>735.4000000000001</ele><time>2026-04-08T17:51:33Z</time></trkpt><trkpt lat="39.25397279007201" lon="9.396641302974745"><ele>734.0</ele><time>2026-04-08T17:51:34Z</time></trkpt><trkpt lat="39.253917809495924" lon="9.39652646997103"><ele>732.25</ele><time>2026-04-08T17:51:35Z</time></trkpt><trkpt lat="39.25382444253072" lon="9.396426681812986"><ele>730.5</ele><time>2026-04-08T17:51:36Z</time></trkpt><trkpt lat="39.25372013545192" lon="9.396334860235111"><ele>728.75</ele><time>2026-04-08T17:51:37Z</time></trkpt><trkpt lat="39.253612276060686" lon="9.396251442243564"><ele>727.0</ele><time>2026-04-08T17:51:38Z</time></trkpt><trkpt lat="39.25350588289078" lon="9.396189119661027"><ele>726.75</ele><time>2026-04-08T17:51:39Z</time></trkpt><trkpt lat="39.253385914993096" lon="9.396164931062852"><ele>726.5</ele><time>2026-04-08T17:51:40Z</time></trkpt><trkpt lat="39.25327524171909" lon="9.396163469194402"><ele>726.25</ele><time>2026-04-08T17:51:41Z</time></trkpt><trkpt lat="39.25316215536577" lon="9.396215722806108"><ele>726.0</ele><time>2026-04-08T17:51:42Z</time></trkpt><trkpt lat="39.253056735059154" lon="9.396301711142119"><ele>723.75</ele><time>2026-04-08T17:51:43Z</time></trkpt><trkpt lat="39.25295240719968" lon="9.39640589129828"><ele>721.5</ele><time>2026-04-08T17:51:44Z</time></trkpt><trkpt lat="39.252855893548755" lon="9.396501664618452"><ele>719.25</ele><time>2026-04-08T17:51:45Z</time></trkpt><trkpt lat="39.252761452307574" lon="9.39658081288543"><ele>717.0</ele><time>2026-04-08T17:51:46Z</time></trkpt><trkpt lat="39.25266870229757" lon="9.396623200430128"><ele>717.0</ele><time>2026-04-08T17:51:47Z</time></trkpt><trkpt lat="39.2525776864735" lon="9.396628254854907"><ele>717.0</ele><time>2026-04-08T17:51:48Z</time></trkpt><trkpt lat="39.25248485130609" lon="9.396573834199941"><ele>717.0</ele><time>2026-04-08T17:51:49Z</time></trkpt><trkpt lat="39.2523742282133" lon="9.396529038873197"><ele>717.0</ele><time>2026-04-08T17:51:50Z</time></trkpt><trkpt lat="39.25227429711686" lon="9.396486497251217"><ele>717.0</ele><time>2026-04-08T17:51:51Z</time></trkpt><trkpt lat="39.25218102899137" lon="9.396445431705608"><ele>717.4000000000001</ele><time>2026-04-08T17:51:52Z</time></trkpt><trkpt lat="39.252100631596754" lon="9.396408980855302"><ele>717.8000000000001</ele><time>2026-04-08T17:51:53Z</time></trkpt><trkpt lat="39.25203604365058" lon="9.396399104123732"><ele>718.2</ele><time>2026-04-08T17:51:54Z</time></trkpt><trkpt lat="39.25206417728714" lon="9.396213886814834"><ele>718.6</ele><time>2026-04-08T17:51:57Z</time></trkpt><trkpt lat="39.25211346171131" lon="9.396097776181282"><ele>719.0</ele><time>2026-04-08T17:51:58Z</time></trkpt><trkpt lat="39.25218518469376" lon="9.39597349178545"><ele>718.75</ele><time>2026-04-08T17:51:59Z</time></trkpt><trkpt lat="39.25225848618669" lon="9.39583899703477"><ele>718.5</ele><time>2026-04-08T17:52:00Z</time></trkpt><trkpt lat="39.252334055875345" lon="9.395702677298518"><ele>718.25</ele><time>2026-04-08T17:52:01Z</time></trkpt><trkpt lat="39.25241623788696" lon="9.395565851729847"><ele>718.0</ele><time>2026-04-08T17:52:02Z</time></trkpt><trkpt lat="39.252500862275284" lon="9.395426166763672"><ele>717.25</ele><time>2026-04-08T17:52:03Z</time></trkpt><trkpt lat="39.25259026462529" lon="9.395285992991683"><ele>716.5</ele><time>2026-04-08T17:52:04Z</time></trkpt><trkpt lat="39.252680354813705" lon="9.395142511949487"><ele>715.75</ele><time>2026-04-08T17:52:05Z</time></trkpt><trkpt lat="39.25276968049591" lon="9.395000125787337"><ele>715.0</ele><time>2026-04-08T17:52:06Z</time></trkpt><trkpt lat="39.252858067058185" lon="9.394869217257115"><ele>715.0</ele><time>2026-04-08T17:52:07Z</time></trkpt><trkpt lat="39.25295425208782" lon="9.39473431317776"><ele>715.0</ele><time>2026-04-08T17:52:08Z</time></trkpt><trkpt lat="39.2530566448272" lon="9.394573606528326"><ele>715.0</ele><time>2026-04-08T17:52:09Z</time></trkpt><trkpt lat="39.2531660956689" lon="9.394406768157799"><ele>715.3333333333334</ele><time>2026-04-08T17:52:10Z</time></trkpt><trkpt lat="39.25326934392171" lon="9.394244943860928"><ele>715.6666666666666</ele><time>2026-04-08T17:52:11Z</time></trkpt><trkpt lat="39.25337599773617" lon="9.39406967191933"><ele>716.0</ele><time>2026-04-08T17:52:12Z</time></trkpt><trkpt lat="39.25348287752202" lon="9.393891939329523"><ele>715.0</ele><time>2026-04-08T17:52:13Z</time></trkpt><trkpt lat="39.253585183934746" lon="9.39372115969862"><ele>714.0</ele><time>2026-04-08T17:52:14Z</time></trkpt><trkpt lat="39.25368447608289" lon="9.393553338574552"><ele>713.0</ele><time>2026-04-08T17:52:15Z</time></trkpt><trkpt lat="39.25378574379277" lon="9.393385239343313"><ele>713.0</ele><time>2026-04-08T17:52:16Z</time></trkpt><trkpt lat="39.25388777138018" lon="9.393218192284529"><ele>713.0</ele><time>2026-04-08T17:52:17Z</time></trkpt><trkpt lat="39.25399016330142" lon="9.393058007905383"><ele>713.0</ele><time>2026-04-08T17:52:18Z</time></trkpt><trkpt lat="39.254095040580324" lon="9.39290131161649"><ele>713.3333333333333</ele><time>2026-04-08T17:52:19Z</time></trkpt><trkpt lat="39.25420095760397" lon="9.392748055727314"><ele>713.6666666666666</ele><time>2026-04-08T17:52:20Z</time></trkpt><trkpt lat="39.25430144596724" lon="9.392597205471395"><ele>714.0</ele><time>2026-04-08T17:52:21Z</time></trkpt><trkpt lat="39.25439359826174" lon="9.392455847721772"><ele>714.0</ele><time>2026-04-08T17:52:22Z</time></trkpt><trkpt lat="39.254477119164314" lon="9.392318385093892"><ele>714.0</ele><time>2026-04-08T17:52:23Z</time></trkpt><trkpt lat="39.25453159944407" lon="9.392204932974622"><ele>714.0</ele><time>2026-04-08T17:52:24Z</time></trkpt><trkpt lat="39.25456938462932" lon="9.392086164863146"><ele>714.0</ele><time>2026-04-08T17:52:25Z</time></trkpt><trkpt lat="39.254591217719046" lon="9.391968954513425"><ele>714.0</ele><time>2026-04-08T17:52:26Z</time></trkpt><trkpt lat="39.254612928548624" lon="9.391839844985435"><ele>714.5</ele><time>2026-04-08T17:52:27Z</time></trkpt><trkpt lat="39.25463840089259" lon="9.391703714122649"><ele>715.0</ele><time>2026-04-08T17:52:28Z</time></trkpt><trkpt lat="39.254670919690014" lon="9.391564763277062"><ele>715.5</ele><time>2026-04-08T17:52:29Z</time></trkpt><trkpt lat="39.25471694215662" lon="9.391403378947007"><ele>716.0</ele><time>2026-04-08T17:52:30Z</time></trkpt><trkpt lat="39.25477042157624" lon="9.391223893763277"><ele>716.25</ele><time>2026-04-08T17:52:31Z</time></trkpt><trkpt lat="39.25482285655542" lon="9.391045139211283"><ele>716.5</ele><time>2026-04-08T17:52:32Z</time></trkpt><trkpt lat="39.25487326610038" lon="9.39089575155868"><ele>716.75</ele><time>2026-04-08T17:52:33Z</time></trkpt><trkpt lat="39.25492032059316" lon="9.390783358203233"><ele>717.0</ele><time>2026-04-08T17:52:34Z</time></trkpt><trkpt lat="39.25497164344403" lon="9.390694729116277"><ele>717.0</ele><time>2026-04-08T17:52:35Z</time></trkpt><trkpt lat="39.255033550265196" lon="9.390598527173047"><ele>717.0</ele><time>2026-04-08T17:52:36Z</time></trkpt><trkpt lat="39.25510790165858" lon="9.39047569152308"><ele>717.0</ele><time>2026-04-08T17:52:37Z</time></trkpt><trkpt lat="39.25518421784614" lon="9.390326079919518"><ele>717.0</ele><time>2026-04-08T17:52:38Z</time></trkpt><trkpt lat="39.25525382803526" lon="9.390163945678825"><ele>719.0</ele><time>2026-04-08T17:52:39Z</time></trkpt><trkpt lat="39.25532562681541" lon="9.389991129367832"><ele>721.0</ele><time>2026-04-08T17:52:40Z</time></trkpt><trkpt lat="39.255390604034424" lon="9.389838458112244"><ele>723.0</ele><time>2026-04-08T17:52:41Z</time></trkpt><trkpt lat="39.25544545369563" lon="9.389716218303446"><ele>725.0</ele><time>2026-04-08T17:52:42Z</time></trkpt><trkpt lat="39.2554963809752" lon="9.389613857859388"><ele>726.0</ele><time>2026-04-08T17:52:43Z</time></trkpt><trkpt lat="39.25554594394354" lon="9.3895349185621"><ele>727.0</ele><time>2026-04-08T17:52:44Z</time></trkpt><trkpt lat="39.25561731290373" lon="9.389491188482685"><ele>728.0</ele><time>2026-04-08T17:52:45Z</time></trkpt><trkpt lat="39.255688264827604" lon="9.389425810511725"><ele>729.0</ele><time>2026-04-08T17:52:46Z</time></trkpt><trkpt lat="39.25579512506898" lon="9.389416488313127"><ele>730.0</ele><time>2026-04-08T17:52:47Z</time></trkpt><trkpt lat="39.255902082796865" lon="9.389360511943812"><ele>730.0</ele><time>2026-04-08T17:52:48Z</time></trkpt><trkpt lat="39.25601109957661" lon="9.389324548281737"><ele>730.0</ele><time>2026-04-08T17:52:49Z</time></trkpt><trkpt lat="39.25611629043132" lon="9.389274814264748"><ele>730.0</ele><time>2026-04-08T17:52:50Z</time></trkpt><trkpt lat="39.256213904925126" lon="9.389210349248312"><ele>730.0</ele><time>2026-04-08T17:52:51Z</time></trkpt><trkpt lat="39.25630024924533" lon="9.389139351875086"><ele>730.0</ele><time>2026-04-08T17:52:52Z</time></trkpt><trkpt lat="39.25637714417437" lon="9.389069273126484"><ele>730.0</ele><time>2026-04-08T17:52:53Z</time></trkpt><trkpt lat="39.25644924018491" lon="9.388994205156553"><ele>730.0</ele><time>2026-04-08T17:52:54Z</time></trkpt><trkpt lat="39.256514303169354" lon="9.388912528008944"><ele>730.0</ele><time>2026-04-08T17:52:55Z</time></trkpt><trkpt lat="39.25656610123473" lon="9.388821973141697"><ele>730.0</ele><time>2026-04-08T17:52:56Z</time></trkpt><trkpt lat="39.25659906498" lon="9.388712807864493"><ele>730.0</ele><time>2026-04-08T17:52:57Z</time></trkpt><trkpt lat="39.25661648771467" lon="9.388582201452483"><ele>728.4</ele><time>2026-04-08T17:52:58Z</time></trkpt><trkpt lat="39.25662290726857" lon="9.388454283962554"><ele>726.8</ele><time>2026-04-08T17:52:59Z</time></trkpt><trkpt lat="39.25663108265559" lon="9.388365283969966"><ele>725.2</ele><time>2026-04-08T17:53:00Z</time></trkpt><trkpt lat="39.25670690997243" lon="9.388363142504696"><ele>723.6</ele><time>2026-04-08T17:53:03Z</time></trkpt><trkpt lat="39.25670905553505" lon="9.388530456410075"><ele>722.0</ele><time>2026-04-08T17:53:05Z</time></trkpt><trkpt lat="39.256745444810356" lon="9.388645622946141"><ele>722.0</ele><time>2026-04-08T17:53:06Z</time></trkpt><trkpt lat="39.256788842484674" lon="9.38873274889995"><ele>722.0</ele><time>2026-04-08T17:53:08Z</time></trkpt><trkpt lat="39.25686079633914" lon="9.38868263092127"><ele>722.0</ele><time>2026-04-08T17:53:10Z</time></trkpt><trkpt lat="39.25689445137764" lon="9.388601608681384"><ele>722.0</ele><time>2026-04-08T17:53:12Z</time></trkpt><trkpt lat="39.25686087477407" lon="9.388501510817337"><ele>722.0</ele><time>2026-04-08T17:53:13Z</time></trkpt><trkpt lat="39.25684545722434" lon="9.38839058747229"><ele>722.0</ele><time>2026-04-08T17:53:14Z</time></trkpt><trkpt lat="39.256852927036995" lon="9.388284816979965"><ele>722.0</ele><time>2026-04-08T17:53:15Z</time></trkpt><trkpt lat="39.25690790963486" lon="9.388204589238454"><ele>722.0</ele><time>2026-04-08T17:53:16Z</time></trkpt><trkpt lat="39.25694308746979" lon="9.388085774181215"><ele>722.0</ele><time>2026-04-08T17:53:17Z</time></trkpt><trkpt lat="39.25698817833239" lon="9.387970743259043"><ele>722.0</ele><time>2026-04-08T17:53:18Z</time></trkpt><trkpt lat="39.25701137476236" lon="9.387856398784603"><ele>722.0</ele><time>2026-04-08T17:53:19Z</time></trkpt><trkpt lat="39.25700562241641" lon="9.387752884150165"><ele>722.4000000000001</ele><time>2026-04-08T17:53:20Z</time></trkpt><trkpt lat="39.25697086951087" lon="9.387639741149195"><ele>722.8000000000001</ele><time>2026-04-08T17:53:21Z</time></trkpt><trkpt lat="39.25691886184812" lon="9.387511365617788"><ele>723.2</ele><time>2026-04-08T17:53:22Z</time></trkpt><trkpt lat="39.25689579239141" lon="9.38736117356208"><ele>723.6</ele><time>2026-04-08T17:53:23Z</time></trkpt><trkpt lat="39.25689436174131" lon="9.387224754765475"><ele>724.0</ele><time>2026-04-08T17:53:24Z</time></trkpt><trkpt lat="39.25690013853801" lon="9.38710026758373"><ele>725.2</ele><time>2026-04-08T17:53:25Z</time></trkpt><trkpt lat="39.25690179928275" lon="9.386996045504835"><ele>726.4000000000001</ele><time>2026-04-08T17:53:26Z</time></trkpt><trkpt lat="39.25694007176967" lon="9.386911105332926"><ele>727.6</ele><time>2026-04-08T17:53:27Z</time></trkpt><trkpt lat="39.257005370416465" lon="9.386813972691442"><ele>728.8</ele><time>2026-04-08T17:53:28Z</time></trkpt><trkpt lat="39.25708766356668" lon="9.386719087975214"><ele>730.0</ele><time>2026-04-08T17:53:29Z</time></trkpt><trkpt lat="39.257185568280484" lon="9.386666414799228"><ele>730.0</ele><time>2026-04-08T17:53:30Z</time></trkpt><trkpt lat="39.25725359008649" lon="9.38658880216177"><ele>730.0</ele><time>2026-04-08T17:53:31Z</time></trkpt><trkpt lat="39.25731156095749" lon="9.386506397546334"><ele>730.0</ele><time>2026-04-08T17:53:32Z</time></trkpt><trkpt lat="39.25736083341119" lon="9.386388337389516"><ele>730.0</ele><time>2026-04-08T17:53:33Z</time></trkpt><trkpt lat="39.257413923474644" lon="9.386262806758463"><ele>730.0</ele><time>2026-04-08T17:53:34Z</time></trkpt><trkpt lat="39.2574713362893" lon="9.386143271457703"><ele>724.4</ele><time>2026-04-08T17:53:35Z</time></trkpt><trkpt lat="39.2575323972689" lon="9.386034137538067"><ele>718.8</ele><time>2026-04-08T17:53:36Z</time></trkpt><trkpt lat="39.25759798687577" lon="9.385933246696577"><ele>713.2</ele><time>2026-04-08T17:53:37Z</time></trkpt><trkpt lat="39.25765875787448" lon="9.38583891255116"><ele>707.6</ele><time>2026-04-08T17:53:38Z</time></trkpt><trkpt lat="39.25771592708364" lon="9.385761247487105"><ele>702.0</ele><time>2026-04-08T17:53:39Z</time></trkpt><trkpt lat="39.257709351997946" lon="9.385655764262589"><ele>702.0</ele><time>2026-04-08T17:53:40Z</time></trkpt><trkpt lat="39.2577146928509" lon="9.385550809413273"><ele>702.0</ele><time>2026-04-08T17:53:41Z</time></trkpt><trkpt lat="39.25766404343799" lon="9.385442541211212"><ele>702.0</ele><time>2026-04-08T17:53:42Z</time></trkpt><trkpt lat="39.25762582387303" lon="9.385314559297516"><ele>702.0</ele><time>2026-04-08T17:53:43Z</time></trkpt><trkpt lat="39.25756331203377" lon="9.385211888203983"><ele>702.0</ele><time>2026-04-08T17:53:44Z</time></trkpt><trkpt lat="39.257474396949156" lon="9.38515288031706"><ele>704.0</ele><time>2026-04-08T17:53:45Z</time></trkpt><trkpt lat="39.2573780308496" lon="9.385094958610596"><ele>706.0</ele><time>2026-04-08T17:53:46Z</time></trkpt><trkpt lat="39.25727044009528" lon="9.385018883444395"><ele>708.0</ele><time>2026-04-08T17:53:47Z</time></trkpt><trkpt lat="39.25716971322569" lon="9.384942485950702"><ele>710.0</ele><time>2026-04-08T17:53:48Z</time></trkpt><trkpt lat="39.257076797833996" lon="9.384875444367431"><ele>710.0</ele><time>2026-04-08T17:53:49Z</time></trkpt><trkpt lat="39.25699526805236" lon="9.384796922555077"><ele>710.0</ele><time>2026-04-08T17:53:50Z</time></trkpt><trkpt lat="39.256919365055545" lon="9.384718128079143"><ele>710.0</ele><time>2026-04-08T17:53:51Z</time></trkpt><trkpt lat="39.25685774528146" lon="9.384652432454601"><ele>710.0</ele><time>2026-04-08T17:53:52Z</time></trkpt><trkpt lat="39.256815438483564" lon="9.38458639996397"><ele>710.0</ele><time>2026-04-08T17:53:54Z</time></trkpt><trkpt lat="39.25686820454734" lon="9.384518368073829"><ele>710.0</ele><time>2026-04-08T17:53:57Z</time></trkpt><trkpt lat="39.25697672502093" lon="9.384644065815849"><ele>710.0</ele><time>2026-04-08T17:53:59Z</time></trkpt><trkpt lat="39.25709072317691" lon="9.38469182622295"><ele>710.0</ele><time>2026-04-08T17:54:00Z</time></trkpt><trkpt lat="39.257203770812154" lon="9.384736298883354"><ele>710.0</ele><time>2026-04-08T17:54:01Z</time></trkpt><trkpt lat="39.257315503677916" lon="9.384761603050219"><ele>710.0</ele><time>2026-04-08T17:54:02Z</time></trkpt><trkpt lat="39.2574284286452" lon="9.384783884489627"><ele>704.8</ele><time>2026-04-08T17:54:03Z</time></trkpt><trkpt lat="39.25754307839396" lon="9.384793538806417"><ele>699.6</ele><time>2026-04-08T17:54:04Z</time></trkpt><trkpt lat="39.25766255813465" lon="9.384801953547438"><ele>694.4000000000001</ele><time>2026-04-08T17:54:05Z</time></trkpt><trkpt lat="39.25777228226881" lon="9.38481770557919"><ele>689.2</ele><time>2026-04-08T17:54:06Z</time></trkpt><trkpt lat="39.25786271715555" lon="9.384847842820449"><ele>684.0</ele><time>2026-04-08T17:54:07Z</time></trkpt><trkpt lat="39.25793123230528" lon="9.384927613293751"><ele>684.0</ele><time>2026-04-08T17:54:08Z</time></trkpt><trkpt lat="39.258004249651535" lon="9.385011425337746"><ele>684.0</ele><time>2026-04-08T17:54:09Z</time></trkpt><trkpt lat="39.258081649933196" lon="9.385121820965047"><ele>684.0</ele><time>2026-04-08T17:54:10Z</time></trkpt><trkpt lat="39.25816273872476" lon="9.385236588054228"><ele>684.0</ele><time>2026-04-08T17:54:11Z</time></trkpt><trkpt lat="39.258250791171896" lon="9.385352143023475"><ele>680.75</ele><time>2026-04-08T17:54:12Z</time></trkpt><trkpt lat="39.25834420599122" lon="9.385476240374956"><ele>677.5</ele><time>2026-04-08T17:54:13Z</time></trkpt><trkpt lat="39.258430366941816" lon="9.385605819585397"><ele>674.25</ele><time>2026-04-08T17:54:14Z</time></trkpt><trkpt lat="39.25850456041233" lon="9.385724779206093"><ele>671.0</ele><time>2026-04-08T17:54:15Z</time></trkpt><trkpt lat="39.258561000120416" lon="9.385823996022609"><ele>671.0</ele><time>2026-04-08T17:54:16Z</time></trkpt><trkpt lat="39.2586035435231" lon="9.385920679825688"><ele>671.0</ele><time>2026-04-08T17:54:17Z</time></trkpt><trkpt lat="39.258614209208126" lon="9.386023167063719"><ele>671.0</ele><time>2026-04-08T17:54:18Z</time></trkpt><trkpt lat="39.2586482912529" lon="9.38609433136389"><ele>671.0</ele><time>2026-04-08T17:54:19Z</time></trkpt><trkpt lat="39.25869962694977" lon="9.386155780674253"><ele>671.0</ele><time>2026-04-08T17:54:21Z</time></trkpt><trkpt lat="39.25874232776998" lon="9.386025913670622"><ele>671.0</ele><time>2026-04-08T17:54:24Z</time></trkpt><trkpt lat="39.258733958201624" lon="9.385931090723279"><ele>671.0</ele><time>2026-04-08T17:54:25Z</time></trkpt><trkpt lat="39.25870509949308" lon="9.385824005728479"><ele>671.0</ele><time>2026-04-08T17:54:26Z</time></trkpt><trkpt lat="39.258657735737145" lon="9.385704136529306"><ele>671.0</ele><time>2026-04-08T17:54:27Z</time></trkpt><trkpt lat="39.25860556706813" lon="9.38557156997182"><ele>671.0</ele><time>2026-04-08T17:54:28Z</time></trkpt><trkpt lat="39.25855009247743" lon="9.385429071169561"><ele>671.0</ele><time>2026-04-08T17:54:29Z</time></trkpt><trkpt lat="39.2584982849898" lon="9.385265760445058"><ele>666.5</ele><time>2026-04-08T17:54:30Z</time></trkpt><trkpt lat="39.258438591274235" lon="9.385104074888748"><ele>662.0</ele><time>2026-04-08T17:54:31Z</time></trkpt><trkpt lat="39.25836680110838" lon="9.384956547791912"><ele>657.5</ele><time>2026-04-08T17:54:32Z</time></trkpt><trkpt lat="39.25831278509906" lon="9.38480323025551"><ele>653.0</ele><time>2026-04-08T17:54:33Z</time></trkpt><trkpt lat="39.25825215628445" lon="9.384657117738724"><ele>653.5999999999999</ele><time>2026-04-08T17:54:34Z</time></trkpt><trkpt lat="39.25819994599303" lon="9.384516361003385"><ele>654.1999999999999</ele><time>2026-04-08T17:54:35Z</time></trkpt><trkpt lat="39.258136934469306" lon="9.384405518022128"><ele>654.8</ele><time>2026-04-08T17:54:36Z</time></trkpt><trkpt lat="39.25806833194702" lon="9.384311651296178"><ele>655.4</ele><time>2026-04-08T17:54:37Z</time></trkpt><trkpt lat="39.25797945581026" lon="9.384243963548835"><ele>656.0</ele><time>2026-04-08T17:54:38Z</time></trkpt><trkpt lat="39.25786755553419" lon="9.384177408294011"><ele>656.0</ele><time>2026-04-08T17:54:39Z</time></trkpt><trkpt lat="39.25775819790795" lon="9.384105408498545"><ele>656.0</ele><time>2026-04-08T17:54:40Z</time></trkpt><trkpt lat="39.25767115019769" lon="9.38402904352988"><ele>656.0</ele><time>2026-04-08T17:54:41Z</time></trkpt><trkpt lat="39.25761162756284" lon="9.38395204575885"><ele>656.0</ele><time>2026-04-08T17:54:42Z</time></trkpt><trkpt lat="39.25760141132696" lon="9.383859848383581"><ele>656.0</ele><time>2026-04-08T17:54:43Z</time></trkpt><trkpt lat="39.257574254010564" lon="9.383784061237066"><ele>656.0</ele><time>2026-04-08T17:54:44Z</time></trkpt><trkpt lat="39.25757314196168" lon="9.383695022664881"><ele>655.1666666666666</ele><time>2026-04-08T17:54:45Z</time></trkpt><trkpt lat="39.25757794431706" lon="9.383606117832228"><ele>654.3333333333333</ele><time>2026-04-08T17:54:46Z</time></trkpt><trkpt lat="39.257596454384974" lon="9.383512605610232"><ele>653.5</ele><time>2026-04-08T17:54:47Z</time></trkpt><trkpt lat="39.25763449543572" lon="9.383405707866304"><ele>652.6666666666666</ele><time>2026-04-08T17:54:48Z</time></trkpt><trkpt lat="39.257686344762284" lon="9.38329460820125"><ele>651.8333333333334</ele><time>2026-04-08T17:54:49Z</time></trkpt><trkpt lat="39.25773415486579" lon="9.383189604368074"><ele>651.0</ele><time>2026-04-08T17:54:50Z</time></trkpt><trkpt lat="39.25776941042943" lon="9.383121231303397"><ele>651.0</ele><time>2026-04-08T17:54:51Z</time></trkpt><trkpt lat="39.257838497925334" lon="9.38305647620858"><ele>651.0</ele><time>2026-04-08T17:54:53Z</time></trkpt><trkpt lat="39.25789090309725" lon="9.383106956770789"><ele>651.0</ele><time>2026-04-08T17:54:55Z</time></trkpt><trkpt lat="39.257810036385436" lon="9.383244747659482"><ele>651.0</ele><time>2026-04-08T17:54:57Z</time></trkpt><trkpt lat="39.257795617298406" lon="9.38334474978407"><ele>651.0</ele><time>2026-04-08T17:54:58Z</time></trkpt><trkpt lat="39.25780436588673" lon="9.38345987196626"><ele>651.0</ele><time>2026-04-08T17:54:59Z</time></trkpt><trkpt lat="39.25783381001694" lon="9.383564759379572"><ele>651.0</ele><time>2026-04-08T17:55:00Z</time></trkpt><trkpt lat="39.257900150425705" lon="9.383632051179069"><ele>651.0</ele><time>2026-04-08T17:55:01Z</time></trkpt><trkpt lat="39.25796790886887" lon="9.383692497238794"><ele>651.0</ele><time>2026-04-08T17:55:02Z</time></trkpt><trkpt lat="39.25804094453928" lon="9.38377913074281"><ele>651.0</ele><time>2026-04-08T17:55:03Z</time></trkpt><trkpt lat="39.25813495757" lon="9.383843063604857"><ele>646.8</ele><time>2026-04-08T17:55:04Z</time></trkpt><trkpt lat="39.258236976529126" lon="9.383883555673812"><ele>642.5999999999999</ele><time>2026-04-08T17:55:05Z</time></trkpt><trkpt lat="39.25833431015038" lon="9.383953147568636"><ele>638.4</ele><time>2026-04-08T17:55:06Z</time></trkpt><trkpt lat="39.258421091647605" lon="9.384039539347144"><ele>634.2</ele><time>2026-04-08T17:55:07Z</time></trkpt><trkpt lat="39.25849405816638" lon="9.38413410532376"><ele>630.0</ele><time>2026-04-08T17:55:08Z</time></trkpt><trkpt lat="39.25856543670084" lon="9.384228938069771"><ele>630.0</ele><time>2026-04-08T17:55:09Z</time></trkpt><trkpt lat="39.25864259723428" lon="9.384324003057898"><ele>630.0</ele><time>2026-04-08T17:55:10Z</time></trkpt><trkpt lat="39.258724934464524" lon="9.384414885811461"><ele>630.0</ele><time>2026-04-08T17:55:11Z</time></trkpt><trkpt lat="39.25881036713907" lon="9.384504413487559"><ele>630.0</ele><time>2026-04-08T17:55:12Z</time></trkpt><trkpt lat="39.25888820190401" lon="9.384594611632036"><ele>630.0</ele><time>2026-04-08T17:55:13Z</time></trkpt><trkpt lat="39.258959303222206" lon="9.384686613453946"><ele>627.0</ele><time>2026-04-08T17:55:14Z</time></trkpt><trkpt lat="39.259026415819534" lon="9.384780215815823"><ele>624.0</ele><time>2026-04-08T17:55:15Z</time></trkpt><trkpt lat="39.25909678658176" lon="9.384866290165068"><ele>621.0</ele><time>2026-04-08T17:55:16Z</time></trkpt><trkpt lat="39.25917356333126" lon="9.384938618347682"><ele>618.0</ele><time>2026-04-08T17:55:17Z</time></trkpt><trkpt lat="39.259263025348766" lon="9.384992104313934"><ele>615.0</ele><time>2026-04-08T17:55:18Z</time></trkpt><trkpt lat="39.25936133827489" lon="9.3850083545461"><ele>615.0</ele><time>2026-04-08T17:55:19Z</time></trkpt><trkpt lat="39.25945800412691" lon="9.384995358029174"><ele>615.0</ele><time>2026-04-08T17:55:20Z</time></trkpt><trkpt lat="39.2595594835465" lon="9.384986199550914"><ele>615.0</ele><time>2026-04-08T17:55:21Z</time></trkpt><trkpt lat="39.25967516608432" lon="9.384982129715281"><ele>615.0</ele><time>2026-04-08T17:55:22Z</time></trkpt><trkpt lat="39.25979531203046" lon="9.384985469348823"><ele>615.0</ele><time>2026-04-08T17:55:23Z</time></trkpt><trkpt lat="39.259915357759695" lon="9.38499388438842"><ele>610.6</ele><time>2026-04-08T17:55:24Z</time></trkpt><trkpt lat="39.260029344481474" lon="9.385007523188204"><ele>606.2</ele><time>2026-04-08T17:55:25Z</time></trkpt><trkpt lat="39.26012147146746" lon="9.385023110544147"><ele>601.8</ele><time>2026-04-08T17:55:26Z</time></trkpt><trkpt lat="39.26018797699383" lon="9.385038525455172"><ele>597.4</ele><time>2026-04-08T17:55:27Z</time></trkpt><trkpt lat="39.26025764769066" lon="9.385115335881908"><ele>593.0</ele><time>2026-04-08T17:55:29Z</time></trkpt><trkpt lat="39.2602226457716" lon="9.385254820034618"><ele>593.0</ele><time>2026-04-08T17:55:31Z</time></trkpt><trkpt lat="39.26017394047249" lon="9.38531981200716"><ele>593.0</ele><time>2026-04-08T17:55:32Z</time></trkpt><trkpt lat="39.26013129574128" lon="9.385415651623301"><ele>593.0</ele><time>2026-04-08T17:55:33Z</time></trkpt><trkpt lat="39.26007813964886" lon="9.385530911655092"><ele>593.0</ele><time>2026-04-08T17:55:34Z</time></trkpt><trkpt lat="39.26001923107861" lon="9.385654562929023"><ele>593.0</ele><time>2026-04-08T17:55:35Z</time></trkpt><trkpt lat="39.25996857098473" lon="9.385768489179988"><ele>594.1999999999999</ele><time>2026-04-08T17:55:36Z</time></trkpt><trkpt lat="39.25994697874518" lon="9.38587805520837"><ele>595.4</ele><time>2026-04-08T17:55:37Z</time></trkpt><trkpt lat="39.25994181172182" lon="9.385979233295057"><ele>596.5999999999999</ele><time>2026-04-08T17:55:38Z</time></trkpt><trkpt lat="39.259947587453375" lon="9.386081927784476"><ele>597.8</ele><time>2026-04-08T17:55:39Z</time></trkpt><trkpt lat="39.26000748848983" lon="9.386201472964858"><ele>599.0</ele><time>2026-04-08T17:55:40Z</time></trkpt><trkpt lat="39.26004812435416" lon="9.386326661062304"><ele>597.6666666666666</ele><time>2026-04-08T17:55:41Z</time></trkpt><trkpt lat="39.2600618473606" lon="9.386443284458975"><ele>596.3333333333333</ele><time>2026-04-08T17:55:42Z</time></trkpt><trkpt lat="39.26008145550347" lon="9.386547438887971"><ele>595.0</ele><time>2026-04-08T17:55:43Z</time></trkpt><trkpt lat="39.26007843793432" lon="9.386647196280693"><ele>593.6666666666666</ele><time>2026-04-08T17:55:44Z</time></trkpt><trkpt lat="39.26004585856529" lon="9.38674606713807"><ele>592.3333333333334</ele><time>2026-04-08T17:55:45Z</time></trkpt><trkpt lat="39.260011450507726" lon="9.386878026314616"><ele>591.0</ele><time>2026-04-08T17:55:46Z</time></trkpt><trkpt lat="39.25998095839481" lon="9.387005622836199"><ele>591.0</ele><time>2026-04-08T17:55:47Z</time></trkpt><trkpt lat="39.259956461178035" lon="9.387123806796597"><ele>591.0</ele><time>2026-04-08T17:55:48Z</time></trkpt><trkpt lat="39.25992359966669" lon="9.38723177230393"><ele>591.0</ele><time>2026-04-08T17:55:49Z</time></trkpt><trkpt lat="39.25988430071262" lon="9.387324149869178"><ele>591.0</ele><time>2026-04-08T17:55:50Z</time></trkpt><trkpt lat="39.259817081909866" lon="9.387373832014253"><ele>591.0</ele><time>2026-04-08T17:55:51Z</time></trkpt><trkpt lat="39.25974504337044" lon="9.387451236511385"><ele>591.0</ele><time>2026-04-08T17:55:52Z</time></trkpt><trkpt lat="39.25968069212279" lon="9.387518262504766"><ele>588.8</ele><time>2026-04-08T17:55:53Z</time></trkpt><trkpt lat="39.259635208081455" lon="9.387616423050204"><ele>586.6</ele><time>2026-04-08T17:55:55Z</time></trkpt><trkpt lat="39.259723116104645" lon="9.387702285119394"><ele>584.4</ele><time>2026-04-08T17:55:57Z</time></trkpt><trkpt lat="39.25978132441612" lon="9.387670302252621"><ele>582.2</ele><time>2026-04-08T17:55:58Z</time></trkpt><trkpt lat="39.2598432421456" lon="9.387586548865281"><ele>580.0</ele><time>2026-04-08T17:55:59Z</time></trkpt><trkpt lat="39.25993236067794" lon="9.387496764737012"><ele>580.0</ele><time>2026-04-08T17:56:00Z</time></trkpt><trkpt lat="39.26001486229087" lon="9.387424513183955"><ele>580.0</ele><time>2026-04-08T17:56:01Z</time></trkpt><trkpt lat="39.26009251144464" lon="9.38734797950724"><ele>580.0</ele><time>2026-04-08T17:56:02Z</time></trkpt><trkpt lat="39.26016235362641" lon="9.387259765098984"><ele>580.0</ele><time>2026-04-08T17:56:03Z</time></trkpt><trkpt lat="39.26022064845458" lon="9.387154590977449"><ele>580.0</ele><time>2026-04-08T17:56:04Z</time></trkpt><trkpt lat="39.260282098123724" lon="9.387031599533625"><ele>582.75</ele><time>2026-04-08T17:56:05Z</time></trkpt><trkpt lat="39.26034795768387" lon="9.386910082665452"><ele>585.5</ele><time>2026-04-08T17:56:06Z</time></trkpt><trkpt lat="39.260430590090124" lon="9.386787830680529"><ele>588.25</ele><time>2026-04-08T17:56:07Z</time></trkpt><trkpt lat="39.26050318130642" lon="9.386666882393046"><ele>591.0</ele><time>2026-04-08T17:56:08Z</time></trkpt><trkpt lat="39.26056108790812" lon="9.386535949173561"><ele>591.0</ele><time>2026-04-08T17:56:09Z</time></trkpt><trkpt lat="39.26060042952947" lon="9.386402151481574"><ele>591.0</ele><time>2026-04-08T17:56:10Z</time></trkpt><trkpt lat="39.26062626722213" lon="9.386264461404378"><ele>591.0</ele><time>2026-04-08T17:56:11Z</time></trkpt><trkpt lat="39.26064025557671" lon="9.38614442477243"><ele>591.0</ele><time>2026-04-08T17:56:12Z</time></trkpt><trkpt lat="39.26064017271962" lon="9.386046870653084"><ele>591.0</ele><time>2026-04-08T17:56:13Z</time></trkpt><trkpt lat="39.26066298633567" lon="9.385923100029258"><ele>585.6</ele><time>2026-04-08T17:56:15Z</time></trkpt><trkpt lat="39.26074535283641" lon="9.38589287461068"><ele>580.2</ele><time>2026-04-08T17:56:17Z</time></trkpt><trkpt lat="39.26078617788147" lon="9.38600593473339"><ele>574.8</ele><time>2026-04-08T17:56:19Z</time></trkpt><trkpt lat="39.26073588568126" lon="9.38610445172529"><ele>569.4</ele><time>2026-04-08T17:56:20Z</time></trkpt><trkpt lat="39.260739745591934" lon="9.386237567935764"><ele>564.0</ele><time>2026-04-08T17:56:21Z</time></trkpt><trkpt lat="39.2607301265593" lon="9.386357659527954"><ele>564.0</ele><time>2026-04-08T17:56:22Z</time></trkpt><trkpt lat="39.26071687506984" lon="9.386443850082006"><ele>564.0</ele><time>2026-04-08T17:56:23Z</time></trkpt><trkpt lat="39.260790023357856" lon="9.386511954702696"><ele>564.0</ele><time>2026-04-08T17:56:25Z</time></trkpt><trkpt lat="39.26086961188693" lon="9.386412231617745"><ele>564.0</ele><time>2026-04-08T17:56:27Z</time></trkpt><trkpt lat="39.260894684073556" lon="9.386278112592315"><ele>564.0</ele><time>2026-04-08T17:56:28Z</time></trkpt><trkpt lat="39.260937166498834" lon="9.386153208613477"><ele>564.0</ele><time>2026-04-08T17:56:29Z</time></trkpt><trkpt lat="39.26099140380903" lon="9.386046850766215"><ele>564.0</ele><time>2026-04-08T17:56:30Z</time></trkpt><trkpt lat="39.26105495907535" lon="9.385957086894164"><ele>564.0</ele><time>2026-04-08T17:56:31Z</time></trkpt><trkpt lat="39.26111947433225" lon="9.385864256717623"><ele>564.0</ele><time>2026-04-08T17:56:32Z</time></trkpt><trkpt lat="39.26118415629896" lon="9.385773238520315"><ele>564.0</ele><time>2026-04-08T17:56:33Z</time></trkpt><trkpt lat="39.26125176962321" lon="9.385672461750374"><ele>564.0</ele><time>2026-04-08T17:56:34Z</time></trkpt><trkpt lat="39.261317204273396" lon="9.385574464896544"><ele>564.0</ele><time>2026-04-08T17:56:35Z</time></trkpt><trkpt lat="39.26138237033209" lon="9.385481725969647"><ele>564.0</ele><time>2026-04-08T17:56:36Z</time></trkpt><trkpt lat="39.26144936662865" lon="9.385390539719435"><ele>564.0</ele><time>2026-04-08T17:56:37Z</time></trkpt><trkpt lat="39.26151470501514" lon="9.38530408164134"><ele>564.0</ele><time>2026-04-08T17:56:38Z</time></trkpt><trkpt lat="39.26156847007045" lon="9.38522544341539"><ele>558.0</ele><time>2026-04-08T17:56:39Z</time></trkpt><trkpt lat="39.261598234160125" lon="9.38513334242128"><ele>552.0</ele><time>2026-04-08T17:56:40Z</time></trkpt><trkpt lat="39.26160777322566" lon="9.385026841040554"><ele>546.0</ele><time>2026-04-08T17:56:41Z</time></trkpt><trkpt lat="39.261631311820274" lon="9.384904212862212"><ele>540.0</ele><time>2026-04-08T17:56:42Z</time></trkpt><trkpt lat="39.261623885667895" lon="9.384769503002998"><ele>534.0</ele><time>2026-04-08T17:56:43Z</time></trkpt><trkpt lat="39.26164975691116" lon="9.384645264322563"><ele>532.2</ele><time>2026-04-08T17:56:44Z</time></trkpt><trkpt lat="39.261661413826275" lon="9.384523353022363"><ele>530.4</ele><time>2026-04-08T17:56:45Z</time></trkpt><trkpt lat="39.261675971682" lon="9.384405025463307"><ele>528.6</ele><time>2026-04-08T17:56:46Z</time></trkpt><trkpt lat="39.261675394862785" lon="9.3842963621738"><ele>526.8</ele><time>2026-04-08T17:56:47Z</time></trkpt><trkpt lat="39.26165202826491" lon="9.384185295794877"><ele>525.0</ele><time>2026-04-08T17:56:48Z</time></trkpt><trkpt lat="39.26160958670136" lon="9.384080230222036"><ele>525.0</ele><time>2026-04-08T17:56:49Z</time></trkpt><trkpt lat="39.261549536870156" lon="9.383992454978173"><ele>525.0</ele><time>2026-04-08T17:56:50Z</time></trkpt><trkpt lat="39.26148519717261" lon="9.383915499425935"><ele>525.0</ele><time>2026-04-08T17:56:51Z</time></trkpt><trkpt lat="39.261427060165936" lon="9.383830846441429"><ele>525.0</ele><time>2026-04-08T17:56:52Z</time></trkpt><trkpt lat="39.261389321421525" lon="9.38373900390959"><ele>525.0</ele><time>2026-04-08T17:56:53Z</time></trkpt><trkpt lat="39.2613584159133" lon="9.383637960157179"><ele>525.0</ele><time>2026-04-08T17:56:54Z</time></trkpt><trkpt lat="39.2613398221236" lon="9.383515292464276"><ele>525.5</ele><time>2026-04-08T17:56:55Z</time></trkpt><trkpt lat="39.26133164209882" lon="9.383375004332668"><ele>526.0</ele><time>2026-04-08T17:56:56Z</time></trkpt><trkpt lat="39.26129269824746" lon="9.383235333370777"><ele>526.5</ele><time>2026-04-08T17:56:57Z</time></trkpt><trkpt lat="39.2612640030054" lon="9.383081518825557"><ele>527.0</ele><time>2026-04-08T17:56:58Z</time></trkpt><trkpt lat="39.26123638634509" lon="9.382929554247141"><ele>527.0</ele><time>2026-04-08T17:56:59Z</time></trkpt><trkpt lat="39.261210967597954" lon="9.382787597865143"><ele>527.0</ele><time>2026-04-08T17:57:00Z</time></trkpt><trkpt lat="39.261194176557176" lon="9.38266958474107"><ele>527.0</ele><time>2026-04-08T17:57:01Z</time></trkpt><trkpt lat="39.2611805314923" lon="9.382550867754754"><ele>527.0</ele><time>2026-04-08T17:57:02Z</time></trkpt><trkpt lat="39.26115655171255" lon="9.38243131817233"><ele>527.0</ele><time>2026-04-08T17:57:03Z</time></trkpt><trkpt lat="39.26115488929423" lon="9.382340882401582"><ele>527.0</ele><time>2026-04-08T17:57:04Z</time></trkpt><trkpt lat="39.26112551462684" lon="9.382194672433245"><ele>527.0</ele><time>2026-04-08T17:57:06Z</time></trkpt><trkpt lat="39.26107956469036" lon="9.382127196743955"><ele>527.0</ele><time>2026-04-08T17:57:07Z</time></trkpt><trkpt lat="39.26103081758521" lon="9.382027415911885"><ele>527.0</ele><time>2026-04-08T17:57:08Z</time></trkpt><trkpt lat="39.2609799223601" lon="9.38194368452053"><ele>527.0</ele><time>2026-04-08T17:57:09Z</time></trkpt><trkpt lat="39.26093203433638" lon="9.381860509675711"><ele>527.0</ele><time>2026-04-08T17:57:10Z</time></trkpt><trkpt lat="39.26088938496047" lon="9.381779699763106"><ele>524.1666666666666</ele><time>2026-04-08T17:57:11Z</time></trkpt><trkpt lat="39.26084918128468" lon="9.381693896349196"><ele>521.3333333333333</ele><time>2026-04-08T17:57:12Z</time></trkpt><trkpt lat="39.260818731398835" lon="9.381620163924337"><ele>518.5</ele><time>2026-04-08T17:57:13Z</time></trkpt><trkpt lat="39.260799704817074" lon="9.381540701271332"><ele>515.6666666666666</ele><time>2026-04-08T17:57:14Z</time></trkpt><trkpt lat="39.26078096529928" lon="9.38143857933388"><ele>512.8333333333334</ele><time>2026-04-08T17:57:15Z</time></trkpt><trkpt lat="39.260788028456865" lon="9.381328544364168"><ele>510.0</ele><time>2026-04-08T17:57:16Z</time></trkpt><trkpt lat="39.26081725329279" lon="9.38121263821746"><ele>507.2</ele><time>2026-04-08T17:57:17Z</time></trkpt><trkpt lat="39.26081378382263" lon="9.381092331752969"><ele>504.4</ele><time>2026-04-08T17:57:18Z</time></trkpt><trkpt lat="39.26076753101131" lon="9.380967950138357"><ele>501.6</ele><time>2026-04-08T17:57:19Z</time></trkpt><trkpt lat="39.26071071943836" lon="9.38084548619367"><ele>498.8</ele><time>2026-04-08T17:57:20Z</time></trkpt><trkpt lat="39.26066366677097" lon="9.380715262090199"><ele>496.0</ele><time>2026-04-08T17:57:21Z</time></trkpt><trkpt lat="39.26062943819827" lon="9.38059014137322"><ele>497.0</ele><time>2026-04-08T17:57:22Z</time></trkpt><trkpt lat="39.260604367225085" lon="9.380458199776621"><ele>498.0</ele><time>2026-04-08T17:57:23Z</time></trkpt><trkpt lat="39.260567978921465" lon="9.380330368507163"><ele>499.0</ele><time>2026-04-08T17:57:24Z</time></trkpt><trkpt lat="39.26052201731318" lon="9.380206709924005"><ele>500.0</ele><time>2026-04-08T17:57:25Z</time></trkpt><trkpt lat="39.260465143982785" lon="9.380078357924145"><ele>501.0</ele><time>2026-04-08T17:57:26Z</time></trkpt><trkpt lat="39.260394952902985" lon="9.379932747872287"><ele>501.0</ele><time>2026-04-08T17:57:27Z</time></trkpt><trkpt lat="39.26031684840212" lon="9.379787158904968"><ele>501.0</ele><time>2026-04-08T17:57:28Z</time></trkpt><trkpt lat="39.26022246916146" lon="9.379652877747482"><ele>501.0</ele><time>2026-04-08T17:57:29Z</time></trkpt><trkpt lat="39.26015304291961" lon="9.379508810066662"><ele>501.0</ele><time>2026-04-08T17:57:30Z</time></trkpt><trkpt lat="39.260079513746376" lon="9.379385015402947"><ele>495.75</ele><time>2026-04-08T17:57:31Z</time></trkpt><trkpt lat="39.26001831763684" lon="9.379256021003423"><ele>490.5</ele><time>2026-04-08T17:57:32Z</time></trkpt><trkpt lat="39.26000427594838" lon="9.379108102879082"><ele>485.25</ele><time>2026-04-08T17:57:33Z</time></trkpt><trkpt lat="39.259958361683594" lon="9.378974839327105"><ele>480.0</ele><time>2026-04-08T17:57:34Z</time></trkpt><trkpt lat="39.25991705399273" lon="9.378829794808643"><ele>481.75</ele><time>2026-04-08T17:57:35Z</time></trkpt><trkpt lat="39.25986609389594" lon="9.378671281621408"><ele>483.5</ele><time>2026-04-08T17:57:36Z</time></trkpt><trkpt lat="39.259834226900125" lon="9.378495480752132"><ele>485.25</ele><time>2026-04-08T17:57:37Z</time></trkpt><trkpt lat="39.25978658514585" lon="9.378327437089416"><ele>487.0</ele><time>2026-04-08T17:57:38Z</time></trkpt><trkpt lat="39.259742329588384" lon="9.378159983042849"><ele>482.0</ele><time>2026-04-08T17:57:39Z</time></trkpt><trkpt lat="39.25968507457004" lon="9.378006309166123"><ele>477.0</ele><time>2026-04-08T17:57:40Z</time></trkpt><trkpt lat="39.2596353720079" lon="9.377846597470723"><ele>472.0</ele><time>2026-04-08T17:57:41Z</time></trkpt><trkpt lat="39.25958817949817" lon="9.377691624683518"><ele>467.0</ele><time>2026-04-08T17:57:42Z</time></trkpt><trkpt lat="39.259547640880406" lon="9.377529541074226"><ele>467.0</ele><time>2026-04-08T17:57:43Z</time></trkpt><trkpt lat="39.25950500677731" lon="9.377374477153035"><ele>467.0</ele><time>2026-04-08T17:57:44Z</time></trkpt><trkpt lat="39.25946383327059" lon="9.377219794794978"><ele>467.0</ele><time>2026-04-08T17:57:45Z</time></trkpt><trkpt lat="39.25941985635343" lon="9.377070071471735"><ele>467.0</ele><time>2026-04-08T17:57:46Z</time></trkpt><trkpt lat="39.25938281829417" lon="9.376922097175342"><ele>463.5</ele><time>2026-04-08T17:57:47Z</time></trkpt><trkpt lat="39.259355353505065" lon="9.376768399318065"><ele>460.0</ele><time>2026-04-08T17:57:48Z</time></trkpt><trkpt lat="39.25933808011921" lon="9.376616320086459"><ele>456.5</ele><time>2026-04-08T17:57:49Z</time></trkpt><trkpt lat="39.25931827856986" lon="9.376468554934494"><ele>453.0</ele><time>2026-04-08T17:57:50Z</time></trkpt><trkpt lat="39.25929112587469" lon="9.376325624539293"><ele>450.2</ele><time>2026-04-08T17:57:51Z</time></trkpt><trkpt lat="39.25926182981354" lon="9.37618239582126"><ele>447.4</ele><time>2026-04-08T17:57:52Z</time></trkpt><trkpt lat="39.259219377827826" lon="9.376048951972669"><ele>444.59999999999997</ele><time>2026-04-08T17:57:53Z</time></trkpt><trkpt lat="39.259157880037954" lon="9.375942795617696"><ele>441.79999999999995</ele><time>2026-04-08T17:57:54Z</time></trkpt><trkpt lat="39.25909858365367" lon="9.375855137813037"><ele>439.0</ele><time>2026-04-08T17:57:55Z</time></trkpt><trkpt lat="39.25902697589203" lon="9.375802786008988"><ele>439.00000000000006</ele><time>2026-04-08T17:57:56Z</time></trkpt><trkpt lat="39.25897640280527" lon="9.375737307410867"><ele>439.0</ele><time>2026-04-08T17:57:57Z</time></trkpt><trkpt lat="39.25896074107281" lon="9.37565257726921"><ele>439.0</ele><time>2026-04-08T17:57:58Z</time></trkpt><trkpt lat="39.25894200473592" lon="9.375552604280504"><ele>439.0</ele><time>2026-04-08T17:57:59Z</time></trkpt><trkpt lat="39.25890452518627" lon="9.375468232519296"><ele>439.00000000000006</ele><time>2026-04-08T17:58:00Z</time></trkpt><trkpt lat="39.2588883269982" lon="9.375356807925712"><ele>439.0</ele><time>2026-04-08T17:58:02Z</time></trkpt><trkpt lat="39.258982109333445" lon="9.375298402647534"><ele>439.0</ele><time>2026-04-08T17:58:04Z</time></trkpt><trkpt lat="39.25904811100737" lon="9.37534543449482"><ele>439.0</ele><time>2026-04-08T17:58:05Z</time></trkpt><trkpt lat="39.25911040672119" lon="9.375445521809683"><ele>439.0</ele><time>2026-04-08T17:58:06Z</time></trkpt><trkpt lat="39.25920977086011" lon="9.375507788645637"><ele>439.0</ele><time>2026-04-08T17:58:07Z</time></trkpt><trkpt lat="39.259309360925215" lon="9.375596873592672"><ele>439.0</ele><time>2026-04-08T17:58:08Z</time></trkpt><trkpt lat="39.25942099978657" lon="9.37567586992343"><ele>439.0</ele><time>2026-04-08T17:58:09Z</time></trkpt><trkpt lat="39.25953568223816" lon="9.375759133960642"><ele>439.0</ele><time>2026-04-08T17:58:10Z</time></trkpt><trkpt lat="39.25963391197567" lon="9.375820513979127"><ele>439.0</ele><time>2026-04-08T17:58:11Z</time></trkpt><trkpt lat="39.25970675644989" lon="9.375875152625907"><ele>439.0</ele><time>2026-04-08T17:58:12Z</time></trkpt><trkpt lat="39.25974778186353" lon="9.375961243378088"><ele>439.0</ele><time>2026-04-08T17:58:13Z</time></trkpt><trkpt lat="39.259787830647916" lon="9.37604149071749"><ele>439.33333333333337</ele><time>2026-04-08T17:58:14Z</time></trkpt><trkpt lat="39.2598227255216" lon="9.376137745392406"><ele>439.6666666666667</ele><time>2026-04-08T17:58:15Z</time></trkpt><trkpt lat="39.259867622060476" lon="9.376231155337516"><ele>440.0</ele><time>2026-04-08T17:58:16Z</time></trkpt><trkpt lat="39.259899030866784" lon="9.376307198077189"><ele>440.33333333333337</ele><time>2026-04-08T17:58:17Z</time></trkpt><trkpt lat="39.260012160160876" lon="9.376373801709441"><ele>440.6666666666667</ele><time>2026-04-08T17:58:19Z</time></trkpt><trkpt lat="39.26008427784011" lon="9.376357795737375"><ele>441.0</ele><time>2026-04-08T17:58:20Z</time></trkpt><trkpt lat="39.26013713187528" lon="9.376303296793674"><ele>439.8</ele><time>2026-04-08T17:58:21Z</time></trkpt><trkpt lat="39.260164302856424" lon="9.376218604657504"><ele>438.6</ele><time>2026-04-08T17:58:22Z</time></trkpt><trkpt lat="39.26017615868287" lon="9.376097117395414"><ele>437.4</ele><time>2026-04-08T17:58:23Z</time></trkpt><trkpt lat="39.260177681947404" lon="9.375956397582046"><ele>436.2</ele><time>2026-04-08T17:58:24Z</time></trkpt><trkpt lat="39.26016279408873" lon="9.375808253431456"><ele>435.0</ele><time>2026-04-08T17:58:25Z</time></trkpt><trkpt lat="39.260145836470244" lon="9.37568089073045"><ele>435.0</ele><time>2026-04-08T17:58:26Z</time></trkpt><trkpt lat="39.260123502786854" lon="9.375564935077307"><ele>435.0</ele><time>2026-04-08T17:58:27Z</time></trkpt><trkpt lat="39.26010440762023" lon="9.375448957112438"><ele>435.0</ele><time>2026-04-08T17:58:28Z</time></trkpt><trkpt lat="39.26007877282223" lon="9.375330451854234"><ele>435.0</ele><time>2026-04-08T17:58:29Z</time></trkpt><trkpt lat="39.26002851598642" lon="9.375194907270757"><ele>435.0</ele><time>2026-04-08T17:58:30Z</time></trkpt><trkpt lat="39.25995521910296" lon="9.375055577872235"><ele>435.0</ele><time>2026-04-08T17:58:31Z</time></trkpt><trkpt lat="39.25987506315335" lon="9.374912737737477"><ele>435.0</ele><time>2026-04-08T17:58:32Z</time></trkpt><trkpt lat="39.25981005662123" lon="9.374781747397147"><ele>435.0</ele><time>2026-04-08T17:58:33Z</time></trkpt><trkpt lat="39.2597571634826" lon="9.374655094657555"><ele>435.0</ele><time>2026-04-08T17:58:34Z</time></trkpt><trkpt lat="39.259723819024074" lon="9.374546067193785"><ele>431.25</ele><time>2026-04-08T17:58:35Z</time></trkpt><trkpt lat="39.25970954431836" lon="9.374437563379129"><ele>427.5</ele><time>2026-04-08T17:58:36Z</time></trkpt><trkpt lat="39.259711328536106" lon="9.374286200562139"><ele>423.75</ele><time>2026-04-08T17:58:37Z</time></trkpt><trkpt lat="39.259718604751654" lon="9.374103575094495"><ele>420.0</ele><time>2026-04-08T17:58:38Z</time></trkpt><trkpt lat="39.25971254051332" lon="9.373920812729974"><ele>418.5</ele><time>2026-04-08T17:58:39Z</time></trkpt><trkpt lat="39.2597266916886" lon="9.373750130877326"><ele>417.0</ele><time>2026-04-08T17:58:40Z</time></trkpt><trkpt lat="39.25973080896389" lon="9.373600950272774"><ele>415.5</ele><time>2026-04-08T17:58:41Z</time></trkpt><trkpt lat="39.25973343022692" lon="9.373457957480836"><ele>414.0</ele><time>2026-04-08T17:58:42Z</time></trkpt><trkpt lat="39.25974480369897" lon="9.373288430193636"><ele>414.0</ele><time>2026-04-08T17:58:43Z</time></trkpt><trkpt lat="39.25974948653506" lon="9.373139005359986"><ele>414.0</ele><time>2026-04-08T17:58:44Z</time></trkpt><trkpt lat="39.259758685825794" lon="9.37300770207781"><ele>414.0</ele><time>2026-04-08T17:58:45Z</time></trkpt><trkpt lat="39.259760751251946" lon="9.372895738910557"><ele>414.0</ele><time>2026-04-08T17:58:46Z</time></trkpt><trkpt lat="39.25975719724559" lon="9.372796501514346"><ele>414.0</ele><time>2026-04-08T17:58:47Z</time></trkpt><trkpt lat="39.259755255667216" lon="9.372699714639445"><ele>412.79999999999995</ele><time>2026-04-08T17:58:48Z</time></trkpt><trkpt lat="39.25975025279353" lon="9.372602368587495"><ele>411.59999999999997</ele><time>2026-04-08T17:58:49Z</time></trkpt><trkpt lat="39.259697376529516" lon="9.372469005782134"><ele>410.4</ele><time>2026-04-08T17:58:50Z</time></trkpt><trkpt lat="39.25963265117208" lon="9.372330265770135"><ele>409.2</ele><time>2026-04-08T17:58:51Z</time></trkpt><trkpt lat="39.259568494509004" lon="9.37218622715623"><ele>408.0</ele><time>2026-04-08T17:58:52Z</time></trkpt><trkpt lat="39.25949500377272" lon="9.372048667745956"><ele>406.75</ele><time>2026-04-08T17:58:53Z</time></trkpt><trkpt lat="39.25940683882882" lon="9.371939574744513"><ele>405.5</ele><time>2026-04-08T17:58:54Z</time></trkpt><trkpt lat="39.259362406731995" lon="9.371800385516398"><ele>404.25</ele><time>2026-04-08T17:58:55Z</time></trkpt><trkpt lat="39.259305605624014" lon="9.371666444292204"><ele>403.0</ele><time>2026-04-08T17:58:56Z</time></trkpt><trkpt lat="39.25925183169208" lon="9.37153693620084"><ele>403.0</ele><time>2026-04-08T17:58:57Z</time></trkpt><trkpt lat="39.259195451785104" lon="9.371404400456651"><ele>403.0</ele><time>2026-04-08T17:58:58Z</time></trkpt><trkpt lat="39.25915020570305" lon="9.371260962945417"><ele>403.0</ele><time>2026-04-08T17:58:59Z</time></trkpt><trkpt lat="39.25911799992726" lon="9.371115392764821"><ele>403.0</ele><time>2026-04-08T17:59:00Z</time></trkpt><trkpt lat="39.25909382830297" lon="9.370957739958568"><ele>401.75</ele><time>2026-04-08T17:59:01Z</time></trkpt><trkpt lat="39.25907001836472" lon="9.370783701116542"><ele>400.5</ele><time>2026-04-08T17:59:02Z</time></trkpt><trkpt lat="39.25904944310637" lon="9.37060454120559"><ele>399.25</ele><time>2026-04-08T17:59:03Z</time></trkpt><trkpt lat="39.25904489772057" lon="9.370419007399688"><ele>398.0</ele><time>2026-04-08T17:59:04Z</time></trkpt><trkpt lat="39.25904969440142" lon="9.370244391592824"><ele>397.0</ele><time>2026-04-08T17:59:05Z</time></trkpt><trkpt lat="39.25906284073134" lon="9.37008886924604"><ele>396.0</ele><time>2026-04-08T17:59:06Z</time></trkpt><trkpt lat="39.25908565359151" lon="9.369953502590576"><ele>395.0</ele><time>2026-04-08T17:59:07Z</time></trkpt><trkpt lat="39.25910327185594" lon="9.369838643074461"><ele>394.0</ele><time>2026-04-08T17:59:08Z</time></trkpt><trkpt lat="39.25910428768716" lon="9.369732829378366"><ele>393.0</ele><time>2026-04-08T17:59:09Z</time></trkpt><trkpt lat="39.25907689268072" lon="9.369634722216158"><ele>393.0</ele><time>2026-04-08T17:59:10Z</time></trkpt><trkpt lat="39.2589956820608" lon="9.369497082202527"><ele>393.0</ele><time>2026-04-08T17:59:11Z</time></trkpt><trkpt lat="39.25891943272476" lon="9.36934588304552"><ele>393.0</ele><time>2026-04-08T17:59:12Z</time></trkpt><trkpt lat="39.2588513860168" lon="9.36918730489945"><ele>393.0</ele><time>2026-04-08T17:59:13Z</time></trkpt><trkpt lat="39.25879085951957" lon="9.369046733580829"><ele>390.59999999999997</ele><time>2026-04-08T17:59:14Z</time></trkpt><trkpt lat="39.258732633952086" lon="9.368915227830913"><ele>388.2</ele><time>2026-04-08T17:59:15Z</time></trkpt><trkpt lat="39.25868147582901" lon="9.368796782820727"><ele>385.8</ele><time>2026-04-08T17:59:16Z</time></trkpt><trkpt lat="39.25864133660388" lon="9.368681057127388"><ele>383.4</ele><time>2026-04-08T17:59:17Z</time></trkpt><trkpt lat="39.258624872982914" lon="9.36855568485535"><ele>381.0</ele><time>2026-04-08T17:59:18Z</time></trkpt><trkpt lat="39.258641526903475" lon="9.368415873238138"><ele>380.6</ele><time>2026-04-08T17:59:19Z</time></trkpt><trkpt lat="39.2586727211407" lon="9.368282377804086"><ele>380.20000000000005</ele><time>2026-04-08T17:59:20Z</time></trkpt><trkpt lat="39.25869367175563" lon="9.368166543616105"><ele>379.79999999999995</ele><time>2026-04-08T17:59:21Z</time></trkpt><trkpt lat="39.25868703037427" lon="9.368074834547855"><ele>379.4</ele><time>2026-04-08T17:59:22Z</time></trkpt><trkpt lat="39.25858867478018" lon="9.368003880199367"><ele>379.0</ele><time>2026-04-08T17:59:24Z</time></trkpt><trkpt lat="39.25851442100657" lon="9.368030198827153"><ele>379.0</ele><time>2026-04-08T17:59:25Z</time></trkpt><trkpt lat="39.25840845151695" lon="9.368085304303955"><ele>379.0</ele><time>2026-04-08T17:59:26Z</time></trkpt><trkpt lat="39.25830182956319" lon="9.368121285798837"><ele>379.0</ele><time>2026-04-08T17:59:27Z</time></trkpt><trkpt lat="39.258212778770066" lon="9.368138383625098"><ele>379.0</ele><time>2026-04-08T17:59:28Z</time></trkpt><trkpt lat="39.25814298100687" lon="9.368132294566209"><ele>379.0</ele><time>2026-04-08T17:59:29Z</time></trkpt><trkpt lat="39.25807073504453" lon="9.36809056911569"><ele>378.0</ele><time>2026-04-08T17:59:30Z</time></trkpt><trkpt lat="39.257993995000405" lon="9.368008614648138"><ele>377.0</ele><time>2026-04-08T17:59:31Z</time></trkpt><trkpt lat="39.25792952933672" lon="9.367889542100858"><ele>376.0</ele><time>2026-04-08T17:59:32Z</time></trkpt><trkpt lat="39.25787406886915" lon="9.367766248795265"><ele>375.0</ele><time>2026-04-08T17:59:33Z</time></trkpt><trkpt lat="39.2578104979158" lon="9.367631223377769"><ele>374.0</ele><time>2026-04-08T17:59:34Z</time></trkpt><trkpt lat="39.257749531003725" lon="9.367495363761126"><ele>374.0</ele><time>2026-04-08T17:59:35Z</time></trkpt><trkpt lat="39.25767308292592" lon="9.367389405194618"><ele>374.0</ele><time>2026-04-08T17:59:36Z</time></trkpt><trkpt lat="39.25758418573725" lon="9.367329982597447"><ele>374.0</ele><time>2026-04-08T17:59:37Z</time></trkpt><trkpt lat="39.25748786514021" lon="9.36731708064226"><ele>374.0</ele><time>2026-04-08T17:59:38Z</time></trkpt><trkpt lat="39.25738544222576" lon="9.367313893193218"><ele>374.0</ele><time>2026-04-08T17:59:39Z</time></trkpt><trkpt lat="39.257254838564684" lon="9.36732086662132"><ele>372.79999999999995</ele><time>2026-04-08T17:59:40Z</time></trkpt><trkpt lat="39.25713846833401" lon="9.3673157524882"><ele>371.59999999999997</ele><time>2026-04-08T17:59:41Z</time></trkpt><trkpt lat="39.25703804532916" lon="9.367289058680454"><ele>370.4</ele><time>2026-04-08T17:59:42Z</time></trkpt><trkpt lat="39.25696564722217" lon="9.367225790217766"><ele>369.2</ele><time>2026-04-08T17:59:43Z</time></trkpt><trkpt lat="39.25689994543449" lon="9.367126813729376"><ele>368.0</ele><time>2026-04-08T17:59:44Z</time></trkpt><trkpt lat="39.256866255988264" lon="9.367022437141204"><ele>367.75</ele><time>2026-04-08T17:59:45Z</time></trkpt><trkpt lat="39.25683927184182" lon="9.366904714884155"><ele>367.5</ele><time>2026-04-08T17:59:46Z</time></trkpt><trkpt lat="39.256804661207504" lon="9.366767760689017"><ele>367.25</ele><time>2026-04-08T17:59:47Z</time></trkpt><trkpt lat="39.25677320699943" lon="9.36660477940956"><ele>367.0</ele><time>2026-04-08T17:59:48Z</time></trkpt><trkpt lat="39.25674002368714" lon="9.366441013605112"><ele>366.8</ele><time>2026-04-08T17:59:49Z</time></trkpt><trkpt lat="39.25671293656447" lon="9.366309763173414"><ele>366.6</ele><time>2026-04-08T17:59:50Z</time></trkpt><trkpt lat="39.25670265777367" lon="9.366182935103009"><ele>366.40000000000003</ele><time>2026-04-08T17:59:51Z</time></trkpt><trkpt lat="39.2567067131186" lon="9.366043167968387"><ele>366.20000000000005</ele><time>2026-04-08T17:59:52Z</time></trkpt><trkpt lat="39.256738231167574" lon="9.365911685143285"><ele>366.0</ele><time>2026-04-08T17:59:53Z</time></trkpt><trkpt lat="39.256776270974896" lon="9.365780200006336"><ele>366.0</ele><time>2026-04-08T17:59:54Z</time></trkpt><trkpt lat="39.2568145727142" lon="9.365643169256632"><ele>366.0</ele><time>2026-04-08T17:59:55Z</time></trkpt><trkpt lat="39.25685618318108" lon="9.365512250475136"><ele>366.0</ele><time>2026-04-08T17:59:56Z</time></trkpt><trkpt lat="39.256907193745626" lon="9.365377320290436"><ele>366.0</ele><time>2026-04-08T17:59:57Z</time></trkpt><trkpt lat="39.25695133318729" lon="9.365250129210255"><ele>366.0</ele><time>2026-04-08T17:59:58Z</time></trkpt><trkpt lat="39.25698279809524" lon="9.365131573761733"><ele>366.5</ele><time>2026-04-08T17:59:59Z</time></trkpt><trkpt lat="39.25698397016098" lon="9.365017372207488"><ele>367.0</ele><time>2026-04-08T18:00:00Z</time></trkpt><trkpt lat="39.25695238460255" lon="9.364879143756376"><ele>367.5</ele><time>2026-04-08T18:00:01Z</time></trkpt><trkpt lat="39.25688982330694" lon="9.364729708407639"><ele>368.0</ele><time>2026-04-08T18:00:02Z</time></trkpt><trkpt lat="39.25683728543798" lon="9.364586003115283"><ele>368.25</ele><time>2026-04-08T18:00:03Z</time></trkpt><trkpt lat="39.25681386097345" lon="9.364449144078845"><ele>368.5</ele><time>2026-04-08T18:00:04Z</time></trkpt><trkpt lat="39.256800946650934" lon="9.364303779617345"><ele>368.75</ele><time>2026-04-08T18:00:05Z</time></trkpt><trkpt lat="39.25679220782797" lon="9.364151242327571"><ele>369.0</ele><time>2026-04-08T18:00:06Z</time></trkpt><trkpt lat="39.25679792810915" lon="9.364006183787929"><ele>369.0</ele><time>2026-04-08T18:00:07Z</time></trkpt><trkpt lat="39.25679788762825" lon="9.363871046024123"><ele>369.0</ele><time>2026-04-08T18:00:08Z</time></trkpt><trkpt lat="39.25680016830207" lon="9.363731211293123"><ele>369.0</ele><time>2026-04-08T18:00:09Z</time></trkpt><trkpt lat="39.25681236746611" lon="9.363583400657685"><ele>369.0</ele><time>2026-04-08T18:00:10Z</time></trkpt><trkpt lat="39.25684008786595" lon="9.363429605726406"><ele>366.0</ele><time>2026-04-08T18:00:11Z</time></trkpt><trkpt lat="39.25688475465328" lon="9.363285152273432"><ele>363.0</ele><time>2026-04-08T18:00:12Z</time></trkpt><trkpt lat="39.256935217113025" lon="9.363155824427878"><ele>360.0</ele><time>2026-04-08T18:00:13Z</time></trkpt><trkpt lat="39.25699579461397" lon="9.3630322359159"><ele>357.0</ele><time>2026-04-08T18:00:14Z</time></trkpt><trkpt lat="39.25706329435278" lon="9.362920966582951"><ele>356.0</ele><time>2026-04-08T18:00:15Z</time></trkpt><trkpt lat="39.25714294907599" lon="9.362823045785913"><ele>355.0</ele><time>2026-04-08T18:00:16Z</time></trkpt><trkpt lat="39.25722385289936" lon="9.36272502780772"><ele>354.0</ele><time>2026-04-08T18:00:17Z</time></trkpt><trkpt lat="39.25730169666166" lon="9.362634836189532"><ele>353.0</ele><time>2026-04-08T18:00:18Z</time></trkpt><trkpt lat="39.25738253681831" lon="9.362554397639707"><ele>352.0</ele><time>2026-04-08T18:00:19Z</time></trkpt><trkpt lat="39.25746712457203" lon="9.36250140713636"><ele>352.0</ele><time>2026-04-08T18:00:20Z</time></trkpt><trkpt lat="39.257566981988454" lon="9.362481009585295"><ele>352.0</ele><time>2026-04-08T18:00:21Z</time></trkpt><trkpt lat="39.257679010728054" lon="9.3624943001939"><ele>352.0</ele><time>2026-04-08T18:00:22Z</time></trkpt><trkpt lat="39.257784303980436" lon="9.362513425697237"><ele>352.0</ele><time>2026-04-08T18:00:23Z</time></trkpt><trkpt lat="39.257870588801815" lon="9.36252904638697"><ele>352.0</ele><time>2026-04-08T18:00:24Z</time></trkpt><trkpt lat="39.25796734631094" lon="9.36246007913648"><ele>352.0</ele><time>2026-04-08T18:00:26Z</time></trkpt><trkpt lat="39.257966744311524" lon="9.362374265330201"><ele>352.0</ele><time>2026-04-08T18:00:27Z</time></trkpt><trkpt lat="39.257928469449844" lon="9.362286226041215"><ele>352.0</ele><time>2026-04-08T18:00:28Z</time></trkpt><trkpt lat="39.25784397446871" lon="9.36219940713439"><ele>352.0</ele><time>2026-04-08T18:00:29Z</time></trkpt><trkpt lat="39.25771911559861" lon="9.362101207486747"><ele>352.0</ele><time>2026-04-08T18:00:30Z</time></trkpt><trkpt lat="39.25759224400268" lon="9.36201360722831"><ele>351.25</ele><time>2026-04-08T18:00:31Z</time></trkpt><trkpt lat="39.257474748038106" lon="9.361927562551022"><ele>350.5</ele><time>2026-04-08T18:00:32Z</time></trkpt><trkpt lat="39.25737070694821" lon="9.361839182100372"><ele>349.75</ele><time>2026-04-08T18:00:33Z</time></trkpt><trkpt lat="39.25727982496875" lon="9.361754133253053"><ele>349.0</ele><time>2026-04-08T18:00:34Z</time></trkpt><trkpt lat="39.25719784302487" lon="9.361670922701252"><ele>347.79999999999995</ele><time>2026-04-08T18:00:35Z</time></trkpt><trkpt lat="39.257139816779905" lon="9.361586889048768"><ele>346.59999999999997</ele><time>2026-04-08T18:00:36Z</time></trkpt><trkpt lat="39.257112040535816" lon="9.361484416281673"><ele>345.4</ele><time>2026-04-08T18:00:37Z</time></trkpt><trkpt lat="39.25711908846159" lon="9.361352333585769"><ele>344.2</ele><time>2026-04-08T18:00:38Z</time></trkpt><trkpt lat="39.25719392138509" lon="9.361186830191187"><ele>343.0</ele><time>2026-04-08T18:00:39Z</time></trkpt><trkpt lat="39.257279174506145" lon="9.3610149319464"><ele>343.0</ele><time>2026-04-08T18:00:40Z</time></trkpt><trkpt lat="39.257384689008234" lon="9.360830691116313"><ele>343.0</ele><time>2026-04-08T18:00:41Z</time></trkpt><trkpt lat="39.257486184894695" lon="9.360659245800678"><ele>343.0</ele><time>2026-04-08T18:00:42Z</time></trkpt><trkpt lat="39.25757173162042" lon="9.360505573144941"><ele>342.25</ele><time>2026-04-08T18:00:43Z</time></trkpt><trkpt lat="39.25764420413495" lon="9.360357853502947"><ele>341.5</ele><time>2026-04-08T18:00:44Z</time></trkpt><trkpt lat="39.257706481652" lon="9.36021655970471"><ele>340.75</ele><time>2026-04-08T18:00:45Z</time></trkpt><trkpt lat="39.25775562044206" lon="9.360073992800794"><ele>340.0</ele><time>2026-04-08T18:00:46Z</time></trkpt><trkpt lat="39.25777856673714" lon="9.359919066394214"><ele>340.0</ele><time>2026-04-08T18:00:47Z</time></trkpt><trkpt lat="39.257773608454364" lon="9.359789496329"><ele>340.0</ele><time>2026-04-08T18:00:48Z</time></trkpt><trkpt lat="39.257762705463705" lon="9.359707351113233"><ele>340.0</ele><time>2026-04-08T18:00:49Z</time></trkpt><trkpt lat="39.25773122133085" lon="9.359594714685027"><ele>340.0</ele><time>2026-04-08T18:00:51Z</time></trkpt><trkpt lat="39.25772631566841" lon="9.359513542874938"><ele>340.0</ele><time>2026-04-08T18:00:52Z</time></trkpt><trkpt lat="39.25775785475132" lon="9.359388489887403"><ele>340.0</ele><time>2026-04-08T18:00:54Z</time></trkpt><trkpt lat="39.257755243573065" lon="9.359295690296493"><ele>339.4</ele><time>2026-04-08T18:04:02Z</time></trkpt><trkpt lat="39.25775450711991" lon="9.359157000337161"><ele>338.8</ele><time>2026-04-08T18:04:04Z</time></trkpt><trkpt lat="39.25777989678679" lon="9.35906377084723"><ele>338.20000000000005</ele><time>2026-04-08T18:04:05Z</time></trkpt><trkpt lat="39.2578112006331" lon="9.358960678113382"><ele>337.6</ele><time>2026-04-08T18:04:06Z</time></trkpt><trkpt lat="39.257843125930464" lon="9.358847038831954"><ele>337.0</ele><time>2026-04-08T18:04:07Z</time></trkpt><trkpt lat="39.25785651452042" lon="9.358710144998708"><ele>335.0</ele><time>2026-04-08T18:04:08Z</time></trkpt><trkpt lat="39.257880634953885" lon="9.358570567984067"><ele>333.0</ele><time>2026-04-08T18:04:09Z</time></trkpt><trkpt lat="39.2578853655795" lon="9.358415718499796"><ele>331.0</ele><time>2026-04-08T18:04:10Z</time></trkpt><trkpt lat="39.25788235587949" lon="9.358251642342903"><ele>329.0</ele><time>2026-04-08T18:04:11Z</time></trkpt><trkpt lat="39.257893781495" lon="9.358100158597916"><ele>327.0</ele><time>2026-04-08T18:04:12Z</time></trkpt><trkpt lat="39.257940849354796" lon="9.35797365744572"><ele>325.0</ele><time>2026-04-08T18:04:13Z</time></trkpt><trkpt lat="39.257984652253526" lon="9.357846069280612"><ele>323.0</ele><time>2026-04-08T18:04:14Z</time></trkpt><trkpt lat="39.258024085233544" lon="9.357689984669747"><ele>321.0</ele><time>2026-04-08T18:04:15Z</time></trkpt><trkpt lat="39.25809303304882" lon="9.357530347633036"><ele>322.75</ele><time>2026-04-08T18:04:16Z</time></trkpt><trkpt lat="39.25816043220537" lon="9.35737229242589"><ele>324.5</ele><time>2026-04-08T18:04:17Z</time></trkpt><trkpt lat="39.25822168485672" lon="9.357223494089896"><ele>326.25</ele><time>2026-04-08T18:04:18Z</time></trkpt><trkpt lat="39.258274209029665" lon="9.357074503414541"><ele>328.0</ele><time>2026-04-08T18:04:19Z</time></trkpt><trkpt lat="39.25831658984327" lon="9.356922543226274"><ele>328.0</ele><time>2026-04-08T18:04:20Z</time></trkpt><trkpt lat="39.25834990231093" lon="9.356768190738753"><ele>328.0</ele><time>2026-04-08T18:04:21Z</time></trkpt><trkpt lat="39.25837043572651" lon="9.356619883963985"><ele>328.0</ele><time>2026-04-08T18:04:22Z</time></trkpt><trkpt lat="39.25837427533989" lon="9.356489002878734"><ele>328.0</ele><time>2026-04-08T18:04:23Z</time></trkpt><trkpt lat="39.25837524501926" lon="9.356381373175811"><ele>328.0</ele><time>2026-04-08T18:04:24Z</time></trkpt><trkpt lat="39.258324820280905" lon="9.356276965459342"><ele>329.0</ele><time>2026-04-08T18:04:25Z</time></trkpt><trkpt lat="39.258205434103296" lon="9.356241606658521"><ele>330.0</ele><time>2026-04-08T18:04:26Z</time></trkpt><trkpt lat="39.25809087988537" lon="9.356159515032845"><ele>331.0</ele><time>2026-04-08T18:04:27Z</time></trkpt><trkpt lat="39.257951866553704" lon="9.356084166163816"><ele>332.0</ele><time>2026-04-08T18:04:28Z</time></trkpt><trkpt lat="39.25782403312004" lon="9.356023192442015"><ele>327.0</ele><time>2026-04-08T18:04:29Z</time></trkpt><trkpt lat="39.25769384700369" lon="9.35599056409535"><ele>322.0</ele><time>2026-04-08T18:04:30Z</time></trkpt><trkpt lat="39.25756441243523" lon="9.35600185419171"><ele>317.0</ele><time>2026-04-08T18:04:31Z</time></trkpt><trkpt lat="39.257433686888746" lon="9.356041943107035"><ele>312.0</ele><time>2026-04-08T18:04:32Z</time></trkpt><trkpt lat="39.257298089786744" lon="9.356087524354939"><ele>309.25</ele><time>2026-04-08T18:04:33Z</time></trkpt><trkpt lat="39.257156573644544" lon="9.356133776752284"><ele>306.5</ele><time>2026-04-08T18:04:34Z</time></trkpt><trkpt lat="39.257033594011375" lon="9.35620399691363"><ele>303.75</ele><time>2026-04-08T18:04:35Z</time></trkpt><trkpt lat="39.25692449774037" lon="9.356267449708689"><ele>301.0</ele><time>2026-04-08T18:04:36Z</time></trkpt><trkpt lat="39.25682342983759" lon="9.356289465735603"><ele>301.0</ele><time>2026-04-08T18:04:37Z</time></trkpt><trkpt lat="39.25672401304129" lon="9.356288867269042"><ele>301.0</ele><time>2026-04-08T18:04:38Z</time></trkpt><trkpt lat="39.25665101895814" lon="9.356263647488177"><ele>301.0</ele><time>2026-04-08T18:04:39Z</time></trkpt><trkpt lat="39.25659705603599" lon="9.356216874257491"><ele>301.0</ele><time>2026-04-08T18:04:40Z</time></trkpt><trkpt lat="39.25657061242917" lon="9.35605663096942"><ele>301.0</ele><time>2026-04-08T18:04:42Z</time></trkpt><trkpt lat="39.25661463544399" lon="9.355935656585892"><ele>301.0</ele><time>2026-04-08T18:04:43Z</time></trkpt><trkpt lat="39.2567156550539" lon="9.355828608191175"><ele>301.0</ele><time>2026-04-08T18:04:44Z</time></trkpt><trkpt lat="39.256853371314676" lon="9.355718050280288"><ele>301.0</ele><time>2026-04-08T18:04:45Z</time></trkpt><trkpt lat="39.256999512151395" lon="9.355585349430557"><ele>300.75</ele><time>2026-04-08T18:04:46Z</time></trkpt><trkpt lat="39.25712546277482" lon="9.355471371145628"><ele>300.5</ele><time>2026-04-08T18:04:47Z</time></trkpt><trkpt lat="39.257230648790085" lon="9.355341758580352"><ele>300.25</ele><time>2026-04-08T18:04:48Z</time></trkpt><trkpt lat="39.2573128227146" lon="9.355199338924317"><ele>300.0</ele><time>2026-04-08T18:04:49Z</time></trkpt><trkpt lat="39.257381720663204" lon="9.355049307345952"><ele>299.75</ele><time>2026-04-08T18:04:50Z</time></trkpt><trkpt lat="39.257443448876856" lon="9.354900730770808"><ele>299.5</ele><time>2026-04-08T18:04:51Z</time></trkpt><trkpt lat="39.25750420969735" lon="9.354759311969536"><ele>299.25</ele><time>2026-04-08T18:04:52Z</time></trkpt><trkpt lat="39.25757476786058" lon="9.354630885816913"><ele>299.0</ele><time>2026-04-08T18:04:53Z</time></trkpt><trkpt lat="39.257643294544486" lon="9.354511179127165"><ele>298.0</ele><time>2026-04-08T18:04:54Z</time></trkpt><trkpt lat="39.25768552172881" lon="9.354400808674674"><ele>297.0</ele><time>2026-04-08T18:04:55Z</time></trkpt><trkpt lat="39.257677637438746" lon="9.354317376560983"><ele>296.0</ele><time>2026-04-08T18:04:56Z</time></trkpt><trkpt lat="39.25763292474642" lon="9.35425903729174"><ele>295.0</ele><time>2026-04-08T18:04:57Z</time></trkpt><trkpt lat="39.257558797468064" lon="9.35419486307588"><ele>294.0</ele><time>2026-04-08T18:04:58Z</time></trkpt><trkpt lat="39.257496710996755" lon="9.354105075009992"><ele>293.0</ele><time>2026-04-08T18:04:59Z</time></trkpt><trkpt lat="39.257482390868006" lon="9.353977020499265"><ele>293.0</ele><time>2026-04-08T18:05:00Z</time></trkpt><trkpt lat="39.257520429902016" lon="9.353789943722724"><ele>293.0</ele><time>2026-04-08T18:05:01Z</time></trkpt><trkpt lat="39.257535220719234" lon="9.353537327751063"><ele>293.0</ele><time>2026-04-08T18:05:02Z</time></trkpt><trkpt lat="39.25756064661427" lon="9.353252711129777"><ele>296.33333333333337</ele><time>2026-04-08T18:05:03Z</time></trkpt><trkpt lat="39.25760658250749" lon="9.35297380222027"><ele>299.6666666666667</ele><time>2026-04-08T18:05:04Z</time></trkpt><trkpt lat="39.25762659027794" lon="9.352720863777655"><ele>303.0</ele><time>2026-04-08T18:05:05Z</time></trkpt><trkpt lat="39.25766197182678" lon="9.352497731309562"><ele>303.0</ele><time>2026-04-08T18:05:06Z</time></trkpt><trkpt lat="39.2577110367321" lon="9.352303233528668"><ele>303.0</ele><time>2026-04-08T18:05:07Z</time></trkpt><trkpt lat="39.25780232480914" lon="9.352117541027177"><ele>303.0</ele><time>2026-04-08T18:05:08Z</time></trkpt><trkpt lat="39.257886224459476" lon="9.351890083846333"><ele>303.5</ele><time>2026-04-08T18:05:09Z</time></trkpt><trkpt lat="39.257975791188706" lon="9.351694944321975"><ele>304.0</ele><time>2026-04-08T18:05:10Z</time></trkpt><trkpt lat="39.25804158444332" lon="9.351536569202128"><ele>304.5</ele><time>2026-04-08T18:05:11Z</time></trkpt><trkpt lat="39.25809526032707" lon="9.35139314606062"><ele>305.0</ele><time>2026-04-08T18:05:12Z</time></trkpt><trkpt lat="39.25814884113464" lon="9.3512449308711"><ele>300.8</ele><time>2026-04-08T18:05:13Z</time></trkpt><trkpt lat="39.25818091221389" lon="9.351103208943236"><ele>296.6</ele><time>2026-04-08T18:05:14Z</time></trkpt><trkpt lat="39.25819128500501" lon="9.350974809595765"><ele>292.4</ele><time>2026-04-08T18:05:15Z</time></trkpt><trkpt lat="39.25816864866825" lon="9.35086203163929"><ele>288.2</ele><time>2026-04-08T18:05:16Z</time></trkpt><trkpt lat="39.25811250621916" lon="9.350775221085671"><ele>284.0</ele><time>2026-04-08T18:05:17Z</time></trkpt><trkpt lat="39.25802988874739" lon="9.35073206567593"><ele>284.0</ele><time>2026-04-08T18:05:18Z</time></trkpt><trkpt lat="39.25792629266985" lon="9.350723113750021"><ele>284.0</ele><time>2026-04-08T18:05:19Z</time></trkpt><trkpt lat="39.25781459224054" lon="9.35077549182102"><ele>284.0</ele><time>2026-04-08T18:05:20Z</time></trkpt><trkpt lat="39.25770088261589" lon="9.350814755620783"><ele>284.0</ele><time>2026-04-08T18:05:21Z</time></trkpt><trkpt lat="39.25759600711141" lon="9.350798284518882"><ele>284.0</ele><time>2026-04-08T18:05:22Z</time></trkpt><trkpt lat="39.25746946473892" lon="9.35076687604596"><ele>284.0</ele><time>2026-04-08T18:05:23Z</time></trkpt><trkpt lat="39.257346202568726" lon="9.350749475453098"><ele>284.0</ele><time>2026-04-08T18:05:24Z</time></trkpt><trkpt lat="39.25722532233744" lon="9.350694494611025"><ele>284.0</ele><time>2026-04-08T18:05:25Z</time></trkpt><trkpt lat="39.257102638027845" lon="9.350653291240215"><ele>284.0</ele><time>2026-04-08T18:05:26Z</time></trkpt><trkpt lat="39.25698730626503" lon="9.350607823395633"><ele>285.8</ele><time>2026-04-08T18:05:27Z</time></trkpt><trkpt lat="39.25687870360609" lon="9.350566073700625"><ele>287.59999999999997</ele><time>2026-04-08T18:05:28Z</time></trkpt><trkpt lat="39.2567808645773" lon="9.35051237855672"><ele>289.4</ele><time>2026-04-08T18:05:29Z</time></trkpt><trkpt lat="39.25672488601001" lon="9.350406557979852"><ele>291.2</ele><time>2026-04-08T18:05:30Z</time></trkpt><trkpt lat="39.25665776209983" lon="9.350305812706"><ele>293.0</ele><time>2026-04-08T18:05:31Z</time></trkpt><trkpt lat="39.2565720610372" lon="9.350202341469597"><ele>292.6</ele><time>2026-04-08T18:05:32Z</time></trkpt><trkpt lat="39.25650836582169" lon="9.350082804547707"><ele>292.20000000000005</ele><time>2026-04-08T18:05:33Z</time></trkpt><trkpt lat="39.25645167433183" lon="9.349970717832537"><ele>291.8</ele><time>2026-04-08T18:05:34Z</time></trkpt><trkpt lat="39.256403197973626" lon="9.349858407352288"><ele>291.40000000000003</ele><time>2026-04-08T18:05:35Z</time></trkpt><trkpt lat="39.256368206353706" lon="9.349732198465334"><ele>291.0</ele><time>2026-04-08T18:05:36Z</time></trkpt><trkpt lat="39.256315904638534" lon="9.349618494380326"><ele>286.40000000000003</ele><time>2026-04-08T18:05:37Z</time></trkpt><trkpt lat="39.256268274339675" lon="9.349518294861966"><ele>281.8</ele><time>2026-04-08T18:05:38Z</time></trkpt><trkpt lat="39.25630157801829" lon="9.349353441724825"><ele>277.20000000000005</ele><time>2026-04-08T18:05:39Z</time></trkpt><trkpt lat="39.25627104822679" lon="9.3492422828022"><ele>272.6</ele><time>2026-04-08T18:05:40Z</time></trkpt><trkpt lat="39.25622702962361" lon="9.349153196739197"><ele>268.0</ele><time>2026-04-08T18:05:41Z</time></trkpt><trkpt lat="39.25620516969318" lon="9.349018512152764"><ele>268.0</ele><time>2026-04-08T18:05:43Z</time></trkpt><trkpt lat="39.256308893045045" lon="9.34894557575431"><ele>268.0</ele><time>2026-04-08T18:05:45Z</time></trkpt><trkpt lat="39.256384131229794" lon="9.348986893110634"><ele>268.0</ele><time>2026-04-08T18:05:46Z</time></trkpt><trkpt lat="39.25644835013753" lon="9.34907518382782"><ele>268.0</ele><time>2026-04-08T18:05:47Z</time></trkpt><trkpt lat="39.25650380654275" lon="9.349210638085957"><ele>268.0</ele><time>2026-04-08T18:05:48Z</time></trkpt><trkpt lat="39.256572187517676" lon="9.34935341725062"><ele>268.6</ele><time>2026-04-08T18:05:49Z</time></trkpt><trkpt lat="39.256653873307435" lon="9.349496656892718"><ele>269.20000000000005</ele><time>2026-04-08T18:05:50Z</time></trkpt><trkpt lat="39.25673370956617" lon="9.349614572278155"><ele>269.8</ele><time>2026-04-08T18:05:51Z</time></trkpt><trkpt lat="39.25680239747317" lon="9.349708274130904"><ele>270.40000000000003</ele><time>2026-04-08T18:05:52Z</time></trkpt><trkpt lat="39.25686433642211" lon="9.34978218764"><ele>271.0</ele><time>2026-04-08T18:05:53Z</time></trkpt><trkpt lat="39.25691895619322" lon="9.349830797934699"><ele>271.0</ele><time>2026-04-08T18:05:54Z</time></trkpt><trkpt lat="39.25701321112144" lon="9.349804640883622"><ele>271.0</ele><time>2026-04-08T18:05:56Z</time></trkpt><trkpt lat="39.257028421164215" lon="9.34971840831372"><ele>271.0</ele><time>2026-04-08T18:05:57Z</time></trkpt><trkpt lat="39.25702433840116" lon="9.349592486054902"><ele>271.0</ele><time>2026-04-08T18:05:58Z</time></trkpt><trkpt lat="39.25700371902615" lon="9.349412137559478"><ele>271.0</ele><time>2026-04-08T18:05:59Z</time></trkpt><trkpt lat="39.2569842898869" lon="9.349183101644373"><ele>267.0</ele><time>2026-04-08T18:06:00Z</time></trkpt><trkpt lat="39.2569716183073" lon="9.348960099993084"><ele>263.0</ele><time>2026-04-08T18:06:01Z</time></trkpt><trkpt lat="39.256961009312484" lon="9.348757684722573"><ele>259.0</ele><time>2026-04-08T18:06:02Z</time></trkpt><trkpt lat="39.25694829172184" lon="9.348568809882451"><ele>258.0</ele><time>2026-04-08T18:06:03Z</time></trkpt><trkpt lat="39.25693835549492" lon="9.348382962688937"><ele>257.0</ele><time>2026-04-08T18:06:04Z</time></trkpt><trkpt lat="39.25692986384309" lon="9.348199239927055"><ele>256.0</ele><time>2026-04-08T18:06:05Z</time></trkpt><trkpt lat="39.25692287961039" lon="9.348029854944956"><ele>255.0</ele><time>2026-04-08T18:06:06Z</time></trkpt><trkpt lat="39.256917405771105" lon="9.347899108198805"><ele>255.0</ele><time>2026-04-08T18:06:07Z</time></trkpt><trkpt lat="39.25688919067457" lon="9.347754059093342"><ele>255.0</ele><time>2026-04-08T18:06:09Z</time></trkpt><trkpt lat="39.2568335787487" lon="9.347689099517234"><ele>255.0</ele><time>2026-04-08T18:06:10Z</time></trkpt><trkpt lat="39.256736355550835" lon="9.34763873221209"><ele>255.0</ele><time>2026-04-08T18:06:11Z</time></trkpt><trkpt lat="39.25659765163306" lon="9.347614468054282"><ele>255.0</ele><time>2026-04-08T18:06:12Z</time></trkpt><trkpt lat="39.25645970185587" lon="9.347636465364586"><ele>255.5</ele><time>2026-04-08T18:06:13Z</time></trkpt><trkpt lat="39.25633191549298" lon="9.347700032404317"><ele>256.0</ele><time>2026-04-08T18:06:14Z</time></trkpt><trkpt lat="39.25621348218372" lon="9.347778862735659"><ele>256.5</ele><time>2026-04-08T18:06:15Z</time></trkpt><trkpt lat="39.256089116560624" lon="9.347861143559841"><ele>257.0</ele><time>2026-04-08T18:06:16Z</time></trkpt><trkpt lat="39.25595977303826" lon="9.347930453600066"><ele>257.0</ele><time>2026-04-08T18:06:17Z</time></trkpt><trkpt lat="39.25583004060853" lon="9.347987814320872"><ele>257.0</ele><time>2026-04-08T18:06:18Z</time></trkpt><trkpt lat="39.255711317833985" lon="9.348032748489139"><ele>257.0</ele><time>2026-04-08T18:06:19Z</time></trkpt><trkpt lat="39.255615286019655" lon="9.348047198341874"><ele>257.0</ele><time>2026-04-08T18:06:20Z</time></trkpt><trkpt lat="39.25552926157015" lon="9.348028036999484"><ele>257.0</ele><time>2026-04-08T18:06:21Z</time></trkpt><trkpt lat="39.25545869771783" lon="9.347987353379178"><ele>254.2</ele><time>2026-04-08T18:06:22Z</time></trkpt><trkpt lat="39.25539015507259" lon="9.347918132710145"><ele>251.39999999999998</ele><time>2026-04-08T18:06:23Z</time></trkpt><trkpt lat="39.25533394276125" lon="9.347814715953376"><ele>248.60000000000002</ele><time>2026-04-08T18:06:24Z</time></trkpt><trkpt lat="39.25527896032887" lon="9.347695880246583"><ele>245.8</ele><time>2026-04-08T18:06:25Z</time></trkpt><trkpt lat="39.255223757197285" lon="9.347560506051662"><ele>243.0</ele><time>2026-04-08T18:06:26Z</time></trkpt><trkpt lat="39.255181465390365" lon="9.347394683595624"><ele>243.0</ele><time>2026-04-08T18:06:27Z</time></trkpt><trkpt lat="39.25515840996364" lon="9.347217511591815"><ele>243.0</ele><time>2026-04-08T18:06:28Z</time></trkpt><trkpt lat="39.25514199897023" lon="9.347066760293838"><ele>243.0</ele><time>2026-04-08T18:06:29Z</time></trkpt><trkpt lat="39.25512897690667" lon="9.346944022294116"><ele>243.0</ele><time>2026-04-08T18:06:30Z</time></trkpt><trkpt lat="39.25512903930713" lon="9.346829596140092"><ele>243.0</ele><time>2026-04-08T18:06:31Z</time></trkpt><trkpt lat="39.25514699913255" lon="9.346722921339264"><ele>243.0</ele><time>2026-04-08T18:06:32Z</time></trkpt><trkpt lat="39.25518004244953" lon="9.34663864214959"><ele>243.0</ele><time>2026-04-08T18:06:33Z</time></trkpt><trkpt lat="39.255237411811514" lon="9.346556140822088"><ele>243.0</ele><time>2026-04-08T18:06:34Z</time></trkpt><trkpt lat="39.25532315196529" lon="9.346477491485274"><ele>243.0</ele><time>2026-04-08T18:06:35Z</time></trkpt><trkpt lat="39.25542081260777" lon="9.34641536111545"><ele>243.0</ele><time>2026-04-08T18:06:36Z</time></trkpt><trkpt lat="39.255521875027085" lon="9.34636040728409"><ele>247.0</ele><time>2026-04-08T18:06:37Z</time></trkpt><trkpt lat="39.25562373369298" lon="9.346289748352078"><ele>251.0</ele><time>2026-04-08T18:06:38Z</time></trkpt><trkpt lat="39.25573969807681" lon="9.346204391475473"><ele>255.0</ele><time>2026-04-08T18:06:39Z</time></trkpt><trkpt lat="39.255860979914296" lon="9.346131340116022"><ele>259.0</ele><time>2026-04-08T18:06:40Z</time></trkpt><trkpt lat="39.255970749473605" lon="9.346089029108953"><ele>259.0</ele><time>2026-04-08T18:06:41Z</time></trkpt><trkpt lat="39.256070359342864" lon="9.34604994364831"><ele>259.0</ele><time>2026-04-08T18:06:42Z</time></trkpt><trkpt lat="39.25615718288868" lon="9.345997017038002"><ele>259.0</ele><time>2026-04-08T18:06:43Z</time></trkpt><trkpt lat="39.256215066783795" lon="9.345923032028864"><ele>259.0</ele><time>2026-04-08T18:06:44Z</time></trkpt><trkpt lat="39.25623390461141" lon="9.3458191630486"><ele>259.0</ele><time>2026-04-08T18:06:45Z</time></trkpt><trkpt lat="39.25620238029591" lon="9.345696457641836"><ele>261.5</ele><time>2026-04-08T18:06:46Z</time></trkpt><trkpt lat="39.25616183979085" lon="9.345532248927693"><ele>264.0</ele><time>2026-04-08T18:06:47Z</time></trkpt><trkpt lat="39.2561258341468" lon="9.345376716115391"><ele>266.5</ele><time>2026-04-08T18:06:48Z</time></trkpt><trkpt lat="39.256075305335884" lon="9.345262912755722"><ele>269.0</ele><time>2026-04-08T18:06:49Z</time></trkpt><trkpt lat="39.25599067036137" lon="9.345191059380536"><ele>269.0</ele><time>2026-04-08T18:06:50Z</time></trkpt><trkpt lat="39.25585625624427" lon="9.345146428486808"><ele>269.0</ele><time>2026-04-08T18:06:51Z</time></trkpt><trkpt lat="39.25567493966317" lon="9.345095881884331"><ele>269.0</ele><time>2026-04-08T18:06:52Z</time></trkpt><trkpt lat="39.25549102480798" lon="9.345021221063478"><ele>268.59999999999997</ele><time>2026-04-08T18:06:53Z</time></trkpt><trkpt lat="39.25535501184444" lon="9.34493732864095"><ele>268.2</ele><time>2026-04-08T18:06:54Z</time></trkpt><trkpt lat="39.25526178974066" lon="9.344863527406096"><ele>267.79999999999995</ele><time>2026-04-08T18:06:55Z</time></trkpt><trkpt lat="39.255204807293254" lon="9.344786782644153"><ele>267.4</ele><time>2026-04-08T18:06:56Z</time></trkpt><trkpt lat="39.25517666253742" lon="9.344678829941477"><ele>267.0</ele><time>2026-04-08T18:06:57Z</time></trkpt><trkpt lat="39.25517637635396" lon="9.344500892270057"><ele>267.0</ele><time>2026-04-08T18:06:58Z</time></trkpt><trkpt lat="39.255194548581585" lon="9.34428360470837"><ele>267.0</ele><time>2026-04-08T18:06:59Z</time></trkpt><trkpt lat="39.25517341498187" lon="9.344083631136794"><ele>267.0</ele><time>2026-04-08T18:07:00Z</time></trkpt><trkpt lat="39.25509520608665" lon="9.343932348407696"><ele>268.25</ele><time>2026-04-08T18:07:01Z</time></trkpt><trkpt lat="39.25497626630401" lon="9.34382854095226"><ele>269.5</ele><time>2026-04-08T18:07:02Z</time></trkpt><trkpt lat="39.254857707429075" lon="9.343719900915465"><ele>270.75</ele><time>2026-04-08T18:07:03Z</time></trkpt><trkpt lat="39.254800388899774" lon="9.343603026829594"><ele>272.0</ele><time>2026-04-08T18:07:04Z</time></trkpt><trkpt lat="39.25480362257877" lon="9.34348738720365"><ele>272.0</ele><time>2026-04-08T18:07:05Z</time></trkpt><trkpt lat="39.254860034570584" lon="9.34335704201597"><ele>272.0</ele><time>2026-04-08T18:07:06Z</time></trkpt><trkpt lat="39.25495991031914" lon="9.34318125660895"><ele>272.0</ele><time>2026-04-08T18:07:07Z</time></trkpt><trkpt lat="39.25507226970242" lon="9.342998948012072"><ele>272.0</ele><time>2026-04-08T18:07:08Z</time></trkpt><trkpt lat="39.255150155311675" lon="9.342849465024495"><ele>272.0</ele><time>2026-04-08T18:07:09Z</time></trkpt><trkpt lat="39.25517563217233" lon="9.342712368147343"><ele>272.0</ele><time>2026-04-08T18:07:10Z</time></trkpt><trkpt lat="39.25514656975706" lon="9.342563852781945"><ele>272.0</ele><time>2026-04-08T18:07:11Z</time></trkpt><trkpt lat="39.25507291964483" lon="9.342392675742895"><ele>272.0</ele><time>2026-04-08T18:07:12Z</time></trkpt><trkpt lat="39.25498994491812" lon="9.342217904630965"><ele>272.0</ele><time>2026-04-08T18:07:13Z</time></trkpt><trkpt lat="39.25494377584028" lon="9.342075339428654"><ele>272.0</ele><time>2026-04-08T18:07:14Z</time></trkpt><trkpt lat="39.254936747587955" lon="9.341932456139995"><ele>272.0</ele><time>2026-04-08T18:07:15Z</time></trkpt><trkpt lat="39.25495561334907" lon="9.341767343514269"><ele>273.5</ele><time>2026-04-08T18:07:16Z</time></trkpt><trkpt lat="39.25498692661218" lon="9.341587177009401"><ele>275.0</ele><time>2026-04-08T18:07:17Z</time></trkpt><trkpt lat="39.25502254996165" lon="9.341400176617892"><ele>276.5</ele><time>2026-04-08T18:07:18Z</time></trkpt><trkpt lat="39.255044337919706" lon="9.341222042608656"><ele>278.0</ele><time>2026-04-08T18:07:19Z</time></trkpt><trkpt lat="39.25503819547131" lon="9.34106675767822"><ele>280.5</ele><time>2026-04-08T18:07:20Z</time></trkpt><trkpt lat="39.254997847133225" lon="9.340930997085872"><ele>283.0</ele><time>2026-04-08T18:07:21Z</time></trkpt><trkpt lat="39.25492517726889" lon="9.340801665691313"><ele>285.5</ele><time>2026-04-08T18:07:22Z</time></trkpt><trkpt lat="39.25483437841103" lon="9.340671620736888"><ele>288.0</ele><time>2026-04-08T18:07:23Z</time></trkpt><trkpt lat="39.25472555345484" lon="9.340561288139318"><ele>287.5</ele><time>2026-04-08T18:07:24Z</time></trkpt><trkpt lat="39.25460760478138" lon="9.34045574772439"><ele>287.0</ele><time>2026-04-08T18:07:25Z</time></trkpt><trkpt lat="39.254501482584615" lon="9.340346715940512"><ele>286.5</ele><time>2026-04-08T18:07:26Z</time></trkpt><trkpt lat="39.25441425060998" lon="9.340224809933298"><ele>286.0</ele><time>2026-04-08T18:07:27Z</time></trkpt><trkpt lat="39.25434636312162" lon="9.34008697365316"><ele>286.0</ele><time>2026-04-08T18:07:28Z</time></trkpt><trkpt lat="39.25429255736622" lon="9.339930225573763"><ele>286.0</ele><time>2026-04-08T18:07:29Z</time></trkpt><trkpt lat="39.25425095167556" lon="9.339748617965515"><ele>286.0</ele><time>2026-04-08T18:07:30Z</time></trkpt><trkpt lat="39.25423591328848" lon="9.339590097950726"><ele>286.0</ele><time>2026-04-08T18:07:31Z</time></trkpt><trkpt lat="39.25425067120189" lon="9.33945384831239"><ele>288.40000000000003</ele><time>2026-04-08T18:07:32Z</time></trkpt><trkpt lat="39.25428274468087" lon="9.339310388830842"><ele>290.8</ele><time>2026-04-08T18:07:33Z</time></trkpt><trkpt lat="39.25432995934764" lon="9.339192670215475"><ele>293.20000000000005</ele><time>2026-04-08T18:07:34Z</time></trkpt><trkpt lat="39.25438879641251" lon="9.339107714660122"><ele>295.6</ele><time>2026-04-08T18:07:35Z</time></trkpt><trkpt lat="39.25446255700613" lon="9.339052860623148"><ele>298.0</ele><time>2026-04-08T18:07:36Z</time></trkpt><trkpt lat="39.25455693387929" lon="9.339017595676307"><ele>298.0</ele><time>2026-04-08T18:07:37Z</time></trkpt><trkpt lat="39.25467164710229" lon="9.338996668824706"><ele>298.0</ele><time>2026-04-08T18:07:38Z</time></trkpt><trkpt lat="39.25480851792089" lon="9.338971587768158"><ele>298.0</ele><time>2026-04-08T18:07:39Z</time></trkpt><trkpt lat="39.25496426621496" lon="9.338936133196889"><ele>298.0</ele><time>2026-04-08T18:07:40Z</time></trkpt><trkpt lat="39.25510588459623" lon="9.338894071429669"><ele>293.75</ele><time>2026-04-08T18:07:41Z</time></trkpt><trkpt lat="39.25523793558715" lon="9.338854471070052"><ele>289.5</ele><time>2026-04-08T18:07:42Z</time></trkpt><trkpt lat="39.25536176430329" lon="9.338809924487036"><ele>285.25</ele><time>2026-04-08T18:07:43Z</time></trkpt><trkpt lat="39.2554665923201" lon="9.338755752058585"><ele>281.0</ele><time>2026-04-08T18:07:44Z</time></trkpt><trkpt lat="39.25555030069775" lon="9.338675929499312"><ele>281.0</ele><time>2026-04-08T18:07:45Z</time></trkpt><trkpt lat="39.25560879588913" lon="9.33856030032084"><ele>281.0</ele><time>2026-04-08T18:07:46Z</time></trkpt><trkpt lat="39.25564654415902" lon="9.338405360086364"><ele>281.0</ele><time>2026-04-08T18:07:47Z</time></trkpt><trkpt lat="39.25565924276938" lon="9.338223974305373"><ele>281.0</ele><time>2026-04-08T18:07:48Z</time></trkpt><trkpt lat="39.25566018021591" lon="9.33804176377092"><ele>281.40000000000003</ele><time>2026-04-08T18:07:49Z</time></trkpt><trkpt lat="39.25567840136217" lon="9.337881766466813"><ele>281.8</ele><time>2026-04-08T18:07:50Z</time></trkpt><trkpt lat="39.255718181878066" lon="9.337740228037722"><ele>282.20000000000005</ele><time>2026-04-08T18:07:51Z</time></trkpt><trkpt lat="39.25577051566031" lon="9.337617484837143"><ele>282.6</ele><time>2026-04-08T18:07:52Z</time></trkpt><trkpt lat="39.255815339442286" lon="9.337514226298596"><ele>283.0</ele><time>2026-04-08T18:07:53Z</time></trkpt><trkpt lat="39.25584769031478" lon="9.337426408134803"><ele>283.0</ele><time>2026-04-08T18:07:54Z</time></trkpt><trkpt lat="39.25586836923751" lon="9.337336769721766"><ele>283.0</ele><time>2026-04-08T18:07:55Z</time></trkpt><trkpt lat="39.255865075218146" lon="9.337246313354786"><ele>283.0</ele><time>2026-04-08T18:07:56Z</time></trkpt><trkpt lat="39.25583739007643" lon="9.337152097399978"><ele>283.0</ele><time>2026-04-08T18:07:57Z</time></trkpt><trkpt lat="39.25578293989844" lon="9.337071240875412"><ele>283.0</ele><time>2026-04-08T18:07:58Z</time></trkpt><trkpt lat="39.2557014964272" lon="9.33699237500825"><ele>283.0</ele><time>2026-04-08T18:07:59Z</time></trkpt><trkpt lat="39.255593096547365" lon="9.336911355531484"><ele>279.5</ele><time>2026-04-08T18:08:00Z</time></trkpt><trkpt lat="39.255476612417844" lon="9.336824537274037"><ele>276.0</ele><time>2026-04-08T18:08:01Z</time></trkpt><trkpt lat="39.25536210014442" lon="9.33673519428087"><ele>272.5</ele><time>2026-04-08T18:08:02Z</time></trkpt><trkpt lat="39.25526025901622" lon="9.336648926883399"><ele>269.0</ele><time>2026-04-08T18:08:03Z</time></trkpt><trkpt lat="39.255175215418696" lon="9.336566941667389"><ele>269.0</ele><time>2026-04-08T18:08:04Z</time></trkpt><trkpt lat="39.25510693435441" lon="9.336475361836886"><ele>269.0</ele><time>2026-04-08T18:08:05Z</time></trkpt><trkpt lat="39.25506112611656" lon="9.336358127173641"><ele>269.0</ele><time>2026-04-08T18:08:06Z</time></trkpt><trkpt lat="39.25501963648638" lon="9.336212308921747"><ele>269.0</ele><time>2026-04-08T18:08:07Z</time></trkpt><trkpt lat="39.25496922460221" lon="9.336048693135615"><ele>267.75</ele><time>2026-04-08T18:08:08Z</time></trkpt><trkpt lat="39.2549103801447" lon="9.33587463532043"><ele>266.5</ele><time>2026-04-08T18:08:09Z</time></trkpt><trkpt lat="39.25485434562233" lon="9.335697096753645"><ele>265.25</ele><time>2026-04-08T18:08:10Z</time></trkpt><trkpt lat="39.254803863349046" lon="9.335522889873454"><ele>264.0</ele><time>2026-04-08T18:08:11Z</time></trkpt><trkpt lat="39.254761995944065" lon="9.335363432579685"><ele>263.5</ele><time>2026-04-08T18:08:12Z</time></trkpt><trkpt lat="39.254714661476164" lon="9.335224856895056"><ele>263.0</ele><time>2026-04-08T18:08:13Z</time></trkpt><trkpt lat="39.25462940491194" lon="9.3351179516516"><ele>262.5</ele><time>2026-04-08T18:08:14Z</time></trkpt><trkpt lat="39.25451168598537" lon="9.334999905019751"><ele>262.0</ele><time>2026-04-08T18:08:15Z</time></trkpt><trkpt lat="39.254400119370075" lon="9.334864032550387"><ele>261.66666666666663</ele><time>2026-04-08T18:08:16Z</time></trkpt><trkpt lat="39.2543065395449" lon="9.334707838064954"><ele>261.3333333333333</ele><time>2026-04-08T18:08:17Z</time></trkpt><trkpt lat="39.25421215607027" lon="9.334530468254828"><ele>261.0</ele><time>2026-04-08T18:08:18Z</time></trkpt><trkpt lat="39.25411915369509" lon="9.334371559945916"><ele>261.0</ele><time>2026-04-08T18:08:19Z</time></trkpt><trkpt lat="39.25403246033738" lon="9.334221857877402"><ele>261.0</ele><time>2026-04-08T18:08:20Z</time></trkpt><trkpt lat="39.2539686288649" lon="9.334055145811416"><ele>261.0</ele><time>2026-04-08T18:08:21Z</time></trkpt><trkpt lat="39.253933252607496" lon="9.333851396888052"><ele>267.3333333333333</ele><time>2026-04-08T18:08:22Z</time></trkpt><trkpt lat="39.25390750046235" lon="9.333633857455624"><ele>273.66666666666663</ele><time>2026-04-08T18:08:23Z</time></trkpt><trkpt lat="39.253893626283464" lon="9.333373440038848"><ele>280.0</ele><time>2026-04-08T18:08:24Z</time></trkpt><trkpt lat="39.25384779981541" lon="9.33307136917735"><ele>276.66666666666663</ele><time>2026-04-08T18:08:25Z</time></trkpt><trkpt lat="39.25378485295149" lon="9.332781071466746"><ele>273.3333333333333</ele><time>2026-04-08T18:08:26Z</time></trkpt><trkpt lat="39.25374647707107" lon="9.332559838491862"><ele>270.0</ele><time>2026-04-08T18:08:27Z</time></trkpt><trkpt lat="39.25370307311436" lon="9.332361352823009"><ele>267.0</ele><time>2026-04-08T18:08:28Z</time></trkpt><trkpt lat="39.25364422844349" lon="9.332151870096318"><ele>264.0</ele><time>2026-04-08T18:08:29Z</time></trkpt><trkpt lat="39.253562926365866" lon="9.331924435184366"><ele>261.0</ele><time>2026-04-08T18:08:30Z</time></trkpt><trkpt lat="39.253475780633565" lon="9.331692241799155"><ele>261.0</ele><time>2026-04-08T18:08:31Z</time></trkpt><trkpt lat="39.25339223495354" lon="9.331482220677422"><ele>261.0</ele><time>2026-04-08T18:08:32Z</time></trkpt><trkpt lat="39.253330108787225" lon="9.331289107092358"><ele>261.0</ele><time>2026-04-08T18:08:33Z</time></trkpt><trkpt lat="39.25326041898972" lon="9.331124221959733"><ele>263.25</ele><time>2026-04-08T18:08:34Z</time></trkpt><trkpt lat="39.25318572824596" lon="9.330980087369547"><ele>265.5</ele><time>2026-04-08T18:08:35Z</time></trkpt><trkpt lat="39.25316449868983" lon="9.330817916316589"><ele>267.75</ele><time>2026-04-08T18:08:36Z</time></trkpt><trkpt lat="39.253133237843734" lon="9.330650566961951"><ele>270.0</ele><time>2026-04-08T18:08:37Z</time></trkpt><trkpt lat="39.25308536840192" lon="9.330496550551095"><ele>263.75</ele><time>2026-04-08T18:08:38Z</time></trkpt><trkpt lat="39.253058636336384" lon="9.33034452314375"><ele>257.5</ele><time>2026-04-08T18:08:39Z</time></trkpt><trkpt lat="39.25301926336494" lon="9.330204217919075"><ele>251.25</ele><time>2026-04-08T18:08:40Z</time></trkpt><trkpt lat="39.25298273644091" lon="9.33005400317144"><ele>245.0</ele><time>2026-04-08T18:08:41Z</time></trkpt><trkpt lat="39.25294740762169" lon="9.329884679346087"><ele>245.75</ele><time>2026-04-08T18:08:42Z</time></trkpt><trkpt lat="39.25290879327223" lon="9.32970518210036"><ele>246.5</ele><time>2026-04-08T18:08:43Z</time></trkpt><trkpt lat="39.25286777424905" lon="9.329534856651343"><ele>247.25</ele><time>2026-04-08T18:08:44Z</time></trkpt><trkpt lat="39.25282972988631" lon="9.329370987928806"><ele>248.0</ele><time>2026-04-08T18:08:45Z</time></trkpt><trkpt lat="39.252791289985694" lon="9.329217841273898"><ele>248.0</ele><time>2026-04-08T18:08:46Z</time></trkpt><trkpt lat="39.252750880520885" lon="9.329070573296914"><ele>248.0</ele><time>2026-04-08T18:08:47Z</time></trkpt><trkpt lat="39.25271773027576" lon="9.328924158011679"><ele>248.0</ele><time>2026-04-08T18:08:48Z</time></trkpt><trkpt lat="39.2526716877497" lon="9.328789888025142"><ele>248.0</ele><time>2026-04-08T18:08:49Z</time></trkpt><trkpt lat="39.252641328822556" lon="9.32865787639793"><ele>247.60000000000002</ele><time>2026-04-08T18:08:50Z</time></trkpt><trkpt lat="39.25263947192341" lon="9.328524163279706"><ele>247.20000000000002</ele><time>2026-04-08T18:08:51Z</time></trkpt><trkpt lat="39.252666382031535" lon="9.32840164236047"><ele>246.8</ele><time>2026-04-08T18:08:52Z</time></trkpt><trkpt lat="39.25270805872056" lon="9.32828003412475"><ele>246.4</ele><time>2026-04-08T18:08:53Z</time></trkpt><trkpt lat="39.252759763585054" lon="9.32814820562626"><ele>246.0</ele><time>2026-04-08T18:08:54Z</time></trkpt><trkpt lat="39.252807960829095" lon="9.328009702418143"><ele>243.4</ele><time>2026-04-08T18:08:55Z</time></trkpt><trkpt lat="39.25284952644521" lon="9.327883267731918"><ele>240.8</ele><time>2026-04-08T18:08:56Z</time></trkpt><trkpt lat="39.25288921871259" lon="9.327757854391441"><ele>238.20000000000002</ele><time>2026-04-08T18:08:57Z</time></trkpt><trkpt lat="39.252928504602565" lon="9.32763804795457"><ele>235.60000000000002</ele><time>2026-04-08T18:08:58Z</time></trkpt><trkpt lat="39.25297275380952" lon="9.327529191111486"><ele>233.0</ele><time>2026-04-08T18:08:59Z</time></trkpt><trkpt lat="39.25303342597637" lon="9.327444156108308"><ele>233.0</ele><time>2026-04-08T18:09:00Z</time></trkpt><trkpt lat="39.25310741458114" lon="9.3273852402407"><ele>233.0</ele><time>2026-04-08T18:09:01Z</time></trkpt><trkpt lat="39.253201749087694" lon="9.327368946451658"><ele>233.0</ele><time>2026-04-08T18:09:02Z</time></trkpt><trkpt lat="39.253318325408" lon="9.32738872546575"><ele>233.0</ele><time>2026-04-08T18:09:03Z</time></trkpt><trkpt lat="39.2534508812416" lon="9.32745095950868"><ele>233.0</ele><time>2026-04-08T18:09:04Z</time></trkpt><trkpt lat="39.25358188299972" lon="9.327532757267077"><ele>235.2</ele><time>2026-04-08T18:09:05Z</time></trkpt><trkpt lat="39.2536891406275" lon="9.327611038194432"><ele>237.4</ele><time>2026-04-08T18:09:06Z</time></trkpt><trkpt lat="39.25375761737693" lon="9.327688223428916"><ele>239.59999999999997</ele><time>2026-04-08T18:09:07Z</time></trkpt><trkpt lat="39.25378712910742" lon="9.327794239393107"><ele>241.79999999999998</ele><time>2026-04-08T18:09:08Z</time></trkpt><trkpt lat="39.25379584171823" lon="9.327913892657698"><ele>244.0</ele><time>2026-04-08T18:09:09Z</time></trkpt><trkpt lat="39.253789689865854" lon="9.328073931903257"><ele>240.5</ele><time>2026-04-08T18:09:10Z</time></trkpt><trkpt lat="39.25379346232951" lon="9.328260776615435"><ele>237.0</ele><time>2026-04-08T18:09:11Z</time></trkpt><trkpt lat="39.25382314305316" lon="9.328422111594833"><ele>233.5</ele><time>2026-04-08T18:09:12Z</time></trkpt><trkpt lat="39.2539010754116" lon="9.328548134751228"><ele>230.0</ele><time>2026-04-08T18:09:13Z</time></trkpt><trkpt lat="39.25398014812489" lon="9.328671739070368"><ele>230.0</ele><time>2026-04-08T18:09:14Z</time></trkpt><trkpt lat="39.254063783073924" lon="9.328790107956465"><ele>230.0</ele><time>2026-04-08T18:09:15Z</time></trkpt><trkpt lat="39.25412051099558" lon="9.328917931851992"><ele>230.0</ele><time>2026-04-08T18:09:16Z</time></trkpt><trkpt lat="39.25420141385716" lon="9.329007353539946"><ele>230.0</ele><time>2026-04-08T18:09:17Z</time></trkpt><trkpt lat="39.25428232069545" lon="9.32909592994334"><ele>229.5</ele><time>2026-04-08T18:09:18Z</time></trkpt><trkpt lat="39.25439093022695" lon="9.329176004509165"><ele>229.0</ele><time>2026-04-08T18:09:19Z</time></trkpt><trkpt lat="39.25452195945598" lon="9.329234513380024"><ele>228.5</ele><time>2026-04-08T18:09:20Z</time></trkpt><trkpt lat="39.25466374943169" lon="9.32927092677873"><ele>228.0</ele><time>2026-04-08T18:09:21Z</time></trkpt><trkpt lat="39.254804705515056" lon="9.329283989664896"><ele>228.0</ele><time>2026-04-08T18:09:22Z</time></trkpt><trkpt lat="39.25493636873588" lon="9.329275866243757"><ele>228.0</ele><time>2026-04-08T18:09:23Z</time></trkpt><trkpt lat="39.25506503790434" lon="9.329252077699246"><ele>228.0</ele><time>2026-04-08T18:09:24Z</time></trkpt><trkpt lat="39.255187720148086" lon="9.329225689331563"><ele>228.0</ele><time>2026-04-08T18:09:25Z</time></trkpt><trkpt lat="39.255314337611345" lon="9.329207471041457"><ele>228.0</ele><time>2026-04-08T18:09:26Z</time></trkpt><trkpt lat="39.2554363442585" lon="9.329231239297117"><ele>228.0</ele><time>2026-04-08T18:09:27Z</time></trkpt><trkpt lat="39.255556427599736" lon="9.329202721462387"><ele>228.0</ele><time>2026-04-08T18:09:28Z</time></trkpt><trkpt lat="39.2556886972639" lon="9.329160840209846"><ele>228.0</ele><time>2026-04-08T18:09:29Z</time></trkpt><trkpt lat="39.25581737590579" lon="9.329083342299938"><ele>225.75</ele><time>2026-04-08T18:09:30Z</time></trkpt><trkpt lat="39.255944297510375" lon="9.328991081006414"><ele>223.5</ele><time>2026-04-08T18:09:31Z</time></trkpt><trkpt lat="39.25606822186684" lon="9.328897526608907"><ele>221.25</ele><time>2026-04-08T18:09:32Z</time></trkpt><trkpt lat="39.25618674591722" lon="9.328808202510682"><ele>219.0</ele><time>2026-04-08T18:09:33Z</time></trkpt><trkpt lat="39.25629259091606" lon="9.32871500969981"><ele>214.0</ele><time>2026-04-08T18:09:34Z</time></trkpt><trkpt lat="39.25638339605374" lon="9.328601853609209"><ele>209.0</ele><time>2026-04-08T18:09:35Z</time></trkpt><trkpt lat="39.25644648428533" lon="9.328461845495285"><ele>204.0</ele><time>2026-04-08T18:09:36Z</time></trkpt><trkpt lat="39.25648292996598" lon="9.32830714574162"><ele>199.0</ele><time>2026-04-08T18:09:37Z</time></trkpt><trkpt lat="39.25649083122706" lon="9.32814933101308"><ele>197.39999999999998</ele><time>2026-04-08T18:09:38Z</time></trkpt><trkpt lat="39.25649714604304" lon="9.327997995316172"><ele>195.8</ele><time>2026-04-08T18:09:39Z</time></trkpt><trkpt lat="39.25652505293201" lon="9.327869736123501"><ele>194.2</ele><time>2026-04-08T18:09:40Z</time></trkpt><trkpt lat="39.256596641574845" lon="9.327778061347988"><ele>192.60000000000002</ele><time>2026-04-08T18:09:41Z</time></trkpt><trkpt lat="39.256664343349065" lon="9.327655783712148"><ele>191.0</ele><time>2026-04-08T18:09:42Z</time></trkpt><trkpt lat="39.25674266085793" lon="9.327541152948708"><ele>191.0</ele><time>2026-04-08T18:09:43Z</time></trkpt><trkpt lat="39.25681346323972" lon="9.32742767105252"><ele>191.0</ele><time>2026-04-08T18:09:44Z</time></trkpt><trkpt lat="39.25687760840498" lon="9.32731479276375"><ele>191.0</ele><time>2026-04-08T18:09:45Z</time></trkpt><trkpt lat="39.256926742071514" lon="9.327224213714919"><ele>191.0</ele><time>2026-04-08T18:09:46Z</time></trkpt><trkpt lat="39.25696843534474" lon="9.327135556736685"><ele>191.0</ele><time>2026-04-08T18:09:47Z</time></trkpt><trkpt lat="39.25700946610046" lon="9.327053789935286"><ele>189.16666666666666</ele><time>2026-04-08T18:09:48Z</time></trkpt><trkpt lat="39.257049670956796" lon="9.326976973870327"><ele>187.33333333333331</ele><time>2026-04-08T18:09:49Z</time></trkpt><trkpt lat="39.25708312572212" lon="9.32690213792708"><ele>185.5</ele><time>2026-04-08T18:09:50Z</time></trkpt><trkpt lat="39.25713378275331" lon="9.326787916246243"><ele>183.66666666666666</ele><time>2026-04-08T18:09:52Z</time></trkpt><trkpt lat="39.25717970381202" lon="9.326680276931704"><ele>181.83333333333334</ele><time>2026-04-08T18:09:54Z</time></trkpt><trkpt lat="39.25722046373719" lon="9.326588949748087"><ele>180.0</ele><time>2026-04-08T18:09:56Z</time></trkpt><trkpt lat="39.25724659421652" lon="9.326493994045403"><ele>180.0</ele><time>2026-04-08T18:09:59Z</time></trkpt><trkpt lat="39.25728360101191" lon="9.326422879303028"><ele>180.0</ele><time>2026-04-08T18:10:00Z</time></trkpt><trkpt lat="39.25731346833707" lon="9.326347633817363"><ele>180.0</ele><time>2026-04-08T18:10:01Z</time></trkpt><trkpt lat="39.25735240571765" lon="9.326266542817818"><ele>180.0</ele><time>2026-04-08T18:10:02Z</time></trkpt><trkpt lat="39.25742611196358" lon="9.326169372563346"><ele>180.0</ele><time>2026-04-08T18:10:04Z</time></trkpt><trkpt lat="39.257305892605096" lon="9.326344089322017"><ele>180.0</ele><time>2026-04-08T18:10:15Z</time></trkpt><trkpt lat="39.257263977068874" lon="9.326430432480036"><ele>180.0</ele><time>2026-04-08T18:10:16Z</time></trkpt><trkpt lat="39.257193156473626" lon="9.32654088778731"><ele>180.0</ele><time>2026-04-08T18:10:18Z</time></trkpt><trkpt lat="39.25711141424457" lon="9.326645963997183"><ele>180.0</ele><time>2026-04-08T18:10:20Z</time></trkpt><trkpt lat="39.25706054737226" lon="9.326737378815835"><ele>180.0</ele><time>2026-04-08T18:10:21Z</time></trkpt><trkpt lat="39.2570077015301" lon="9.32683741425376"><ele>180.0</ele><time>2026-04-08T18:10:22Z</time></trkpt><trkpt lat="39.2569520466648" lon="9.326935984089058"><ele>180.0</ele><time>2026-04-08T18:10:23Z</time></trkpt><trkpt lat="39.25690880609901" lon="9.327041558404412"><ele>180.0</ele><time>2026-04-08T18:10:24Z</time></trkpt><trkpt lat="39.25687038923268" lon="9.32714053337801"><ele>180.0</ele><time>2026-04-08T18:10:25Z</time></trkpt><trkpt lat="39.256789970245606" lon="9.327256707819009"><ele>180.0</ele><time>2026-04-08T18:10:27Z</time></trkpt><trkpt lat="39.25671731641061" lon="9.327291887802081"><ele>180.33333333333334</ele><time>2026-04-08T18:10:28Z</time></trkpt><trkpt lat="39.25663647096538" lon="9.327325555140282"><ele>180.66666666666666</ele><time>2026-04-08T18:10:29Z</time></trkpt><trkpt lat="39.256575803094336" lon="9.327371704937178"><ele>181.0</ele><time>2026-04-08T18:10:30Z</time></trkpt><trkpt lat="39.25652083425467" lon="9.32741165778855"><ele>181.33333333333331</ele><time>2026-04-08T18:10:31Z</time></trkpt><trkpt lat="39.25640982168808" lon="9.3274379638218"><ele>181.66666666666666</ele><time>2026-04-08T18:10:33Z</time></trkpt><trkpt lat="39.25630590127701" lon="9.327479733146685"><ele>182.0</ele><time>2026-04-08T18:10:35Z</time></trkpt><trkpt lat="39.25623053996866" lon="9.327508899693473"><ele>182.0</ele><time>2026-04-08T18:10:36Z</time></trkpt><trkpt lat="39.25616150152965" lon="9.327534345700142"><ele>182.0</ele><time>2026-04-08T18:10:37Z</time></trkpt><trkpt lat="39.25604566464211" lon="9.327586012995488"><ele>182.0</ele><time>2026-04-08T18:10:39Z</time></trkpt><trkpt lat="39.25596538926541" lon="9.327611110500289"><ele>182.0</ele><time>2026-04-08T18:10:40Z</time></trkpt><trkpt lat="39.255898307987046" lon="9.327628786463908"><ele>182.0</ele><time>2026-04-08T18:10:41Z</time></trkpt><trkpt lat="39.25580001524497" lon="9.327655411070632"><ele>182.0</ele><time>2026-04-08T18:10:43Z</time></trkpt><trkpt lat="39.25568608324778" lon="9.327704041881065"><ele>182.0</ele><time>2026-04-08T18:10:45Z</time></trkpt><trkpt lat="39.25562820721484" lon="9.327736870463088"><ele>182.0</ele><time>2026-04-08T18:10:46Z</time></trkpt><trkpt lat="39.25555657992701" lon="9.327804715323476"><ele>182.0</ele><time>2026-04-08T18:10:48Z</time></trkpt><trkpt lat="39.255490813865904" lon="9.327804237496293"><ele>182.0</ele><time>2026-04-08T18:10:50Z</time></trkpt><trkpt lat="39.25539868774497" lon="9.327752292695031"><ele>182.0</ele><time>2026-04-08T18:10:52Z</time></trkpt><trkpt lat="39.255293302294646" lon="9.327727289177695"><ele>182.0</ele><time>2026-04-08T18:10:54Z</time></trkpt><trkpt lat="39.2552048239929" lon="9.327644879187249"><ele>181.5</ele><time>2026-04-08T18:10:56Z</time></trkpt><trkpt lat="39.25515541693756" lon="9.327593722578243"><ele>181.0</ele><time>2026-04-08T18:10:58Z</time></trkpt><trkpt lat="39.25511128293793" lon="9.327524501625632"><ele>180.5</ele><time>2026-04-08T18:11:02Z</time></trkpt><trkpt lat="39.25506579241741" lon="9.327465586005516"><ele>180.0</ele><time>2026-04-08T18:11:05Z</time></trkpt><trkpt lat="39.25501219076909" lon="9.327387216001854"><ele>179.5</ele><time>2026-04-08T18:11:07Z</time></trkpt><trkpt lat="39.25493788425287" lon="9.32729628726273"><ele>179.0</ele><time>2026-04-08T18:11:09Z</time></trkpt><trkpt lat="39.2548621985371" lon="9.327194432021674"><ele>184.2</ele><time>2026-04-08T18:11:11Z</time></trkpt><trkpt lat="39.25478494602916" lon="9.327082341314378"><ele>189.39999999999998</ele><time>2026-04-08T18:11:13Z</time></trkpt><trkpt lat="39.254733289018894" lon="9.326968391785801"><ele>194.6</ele><time>2026-04-08T18:11:15Z</time></trkpt><trkpt lat="39.25466634554582" lon="9.32689024621006"><ele>199.8</ele><time>2026-04-08T18:11:17Z</time></trkpt><trkpt lat="39.25460566573175" lon="9.32682908295179"><ele>205.0</ele><time>2026-04-08T18:11:19Z</time></trkpt><trkpt lat="39.25455432748791" lon="9.326750102068148"><ele>205.0</ele><time>2026-04-08T18:11:20Z</time></trkpt><trkpt lat="39.25449290198709" lon="9.326620525856487"><ele>205.0</ele><time>2026-04-08T18:11:22Z</time></trkpt><trkpt lat="39.254476136013565" lon="9.326469542202585"><ele>205.0</ele><time>2026-04-08T18:11:24Z</time></trkpt><trkpt lat="39.25446187915976" lon="9.326316621929607"><ele>205.0</ele><time>2026-04-08T18:11:26Z</time></trkpt><trkpt lat="39.254433352817294" lon="9.326182786435712"><ele>204.0</ele><time>2026-04-08T18:11:28Z</time></trkpt><trkpt lat="39.25442315707693" lon="9.326067278106844"><ele>203.0</ele><time>2026-04-08T18:11:30Z</time></trkpt><trkpt lat="39.254411578832524" lon="9.325968795321115"><ele>202.0</ele><time>2026-04-08T18:11:32Z</time></trkpt><trkpt lat="39.25437447662783" lon="9.325843651220062"><ele>201.0</ele><time>2026-04-08T18:11:35Z</time></trkpt><trkpt lat="39.254298040338405" lon="9.32577421622872"><ele>200.0</ele><time>2026-04-08T18:11:37Z</time></trkpt><trkpt lat="39.25422313999321" lon="9.325697057443687"><ele>200.0</ele><time>2026-04-08T18:11:39Z</time></trkpt><trkpt lat="39.254157464290294" lon="9.325613268114571"><ele>200.0</ele><time>2026-04-08T18:11:41Z</time></trkpt><trkpt lat="39.25411218802666" lon="9.325547126800965"><ele>200.0</ele><time>2026-04-08T18:11:57Z</time></trkpt><trkpt lat="39.254037526856585" lon="9.325441899338138"><ele>200.0</ele><time>2026-04-08T18:11:59Z</time></trkpt><trkpt lat="39.25397361847418" lon="9.325347427398707"><ele>200.0</ele><time>2026-04-08T18:12:01Z</time></trkpt><trkpt lat="39.25393784057403" lon="9.32523313188916"><ele>200.4</ele><time>2026-04-08T18:12:03Z</time></trkpt><trkpt lat="39.253904826016495" lon="9.325118837220703"><ele>200.8</ele><time>2026-04-08T18:12:05Z</time></trkpt><trkpt lat="39.25390090451565" lon="9.32499386828307"><ele>201.2</ele><time>2026-04-08T18:12:07Z</time></trkpt><trkpt lat="39.25389961711196" lon="9.32487945456511"><ele>201.6</ele><time>2026-04-08T18:12:09Z</time></trkpt><trkpt lat="39.253890605987145" lon="9.324776751462283"><ele>202.0</ele><time>2026-04-08T18:12:11Z</time></trkpt><trkpt lat="39.25384332716146" lon="9.324631265257707"><ele>201.99999999999997</ele><time>2026-04-08T18:12:13Z</time></trkpt><trkpt lat="39.253772587218215" lon="9.324520016672912"><ele>202.0</ele><time>2026-04-08T18:12:15Z</time></trkpt><trkpt lat="39.25372707405914" lon="9.324458894382813"><ele>202.0</ele><time>2026-04-08T18:12:16Z</time></trkpt><trkpt lat="39.25367390884993" lon="9.324356917711128"><ele>202.0</ele><time>2026-04-08T18:12:18Z</time></trkpt><trkpt lat="39.25366843587451" lon="9.32424939995526"><ele>201.99999999999997</ele><time>2026-04-08T18:15:14Z</time></trkpt><trkpt lat="39.253670132766665" lon="9.324164120376684"><ele>202.0</ele><time>2026-04-08T18:15:15Z</time></trkpt><trkpt lat="39.25368359537418" lon="9.324035428553554"><ele>201.99999999999997</ele><time>2026-04-08T18:15:17Z</time></trkpt><trkpt lat="39.25369516796027" lon="9.323925698717828"><ele>202.0</ele><time>2026-04-08T18:15:20Z</time></trkpt><trkpt lat="39.25373077814991" lon="9.323835566336806"><ele>202.0</ele><time>2026-04-08T18:15:23Z</time></trkpt><trkpt lat="39.253694287787944" lon="9.323920686936319"><ele>202.0</ele><time>2026-04-08T18:15:56Z</time></trkpt><trkpt lat="39.25367602068531" lon="9.324018937523222"><ele>201.99999999999997</ele><time>2026-04-08T18:16:00Z</time></trkpt><trkpt lat="39.253669798980475" lon="9.32411896673824"><ele>202.0</ele><time>2026-04-08T18:16:03Z</time></trkpt><trkpt lat="39.25366883167957" lon="9.324226967927661"><ele>201.99999999999997</ele><time>2026-04-08T18:16:06Z</time></trkpt><trkpt lat="39.25368150422122" lon="9.324317233355183"><ele>202.0</ele><time>2026-04-08T18:16:09Z</time></trkpt><trkpt lat="39.25365298115407" lon="9.324389859682096"><ele>202.0</ele><time>2026-04-08T18:16:26Z</time></trkpt><trkpt lat="39.253703975050385" lon="9.324452381839768"><ele>202.0</ele><time>2026-04-08T18:16:46Z</time></trkpt><trkpt lat="39.253604427455485" lon="9.324414479316152"><ele>201.99999999999997</ele><time>2026-04-08T18:17:01Z</time></trkpt><trkpt lat="39.253534233161155" lon="9.32437350225059"><ele>202.0</ele><time>2026-04-08T18:17:03Z</time></trkpt><trkpt lat="39.25347004781431" lon="9.32430639371216"><ele>202.0</ele><time>2026-04-08T18:17:05Z</time></trkpt><trkpt lat="39.25341422559209" lon="9.324207125024746"><ele>202.0</ele><time>2026-04-08T18:17:07Z</time></trkpt><trkpt lat="39.25334739850347" lon="9.324090362637078"><ele>202.0</ele><time>2026-04-08T18:17:09Z</time></trkpt><trkpt lat="39.253278654169975" lon="9.323974047506086"><ele>202.0</ele><time>2026-04-08T18:17:11Z</time></trkpt><trkpt lat="39.25319833840063" lon="9.323845867652661"><ele>202.0</ele><time>2026-04-08T18:17:13Z</time></trkpt><trkpt lat="39.25313018741479" lon="9.323742062188535"><ele>202.33333333333331</ele><time>2026-04-08T18:17:15Z</time></trkpt><trkpt lat="39.25308377599447" lon="9.323684347847284"><ele>202.66666666666666</ele><time>2026-04-08T18:17:16Z</time></trkpt><trkpt lat="39.2530033866505" lon="9.323641101589157"><ele>203.0</ele><time>2026-04-08T18:17:18Z</time></trkpt><trkpt lat="39.25294234461506" lon="9.323613079804934"><ele>203.33333333333331</ele><time>2026-04-08T18:17:19Z</time></trkpt><trkpt lat="39.25288079409673" lon="9.323592967324927"><ele>203.66666666666666</ele><time>2026-04-08T18:17:20Z</time></trkpt><trkpt lat="39.252799987125876" lon="9.323578220141119"><ele>204.0</ele><time>2026-04-08T18:17:21Z</time></trkpt><trkpt lat="39.25271701713067" lon="9.323538564142893"><ele>204.0</ele><time>2026-04-08T18:17:22Z</time></trkpt><trkpt lat="39.252655786651594" lon="9.323507632340124"><ele>204.0</ele><time>2026-04-08T18:17:23Z</time></trkpt><trkpt lat="39.252591652001875" lon="9.323502050302263"><ele>204.0</ele><time>2026-04-08T18:17:24Z</time></trkpt><trkpt lat="39.25251454218955" lon="9.323500379818892"><ele>204.0</ele><time>2026-04-08T18:17:25Z</time></trkpt><trkpt lat="39.25244056457553" lon="9.323498683497986"><ele>204.0</ele><time>2026-04-08T18:17:26Z</time></trkpt><trkpt lat="39.25235828176614" lon="9.32349830356969"><ele>204.0</ele><time>2026-04-08T18:17:27Z</time></trkpt><trkpt lat="39.25227076942816" lon="9.323491294928216"><ele>203.66666666666666</ele><time>2026-04-08T18:17:28Z</time></trkpt><trkpt lat="39.252175181397725" lon="9.32348779516963"><ele>203.33333333333331</ele><time>2026-04-08T18:17:29Z</time></trkpt><trkpt lat="39.25208560932283" lon="9.323485944178449"><ele>203.0</ele><time>2026-04-08T18:17:30Z</time></trkpt><trkpt lat="39.25199629961464" lon="9.323482797016771"><ele>202.66666666666666</ele><time>2026-04-08T18:17:31Z</time></trkpt><trkpt lat="39.25191623273284" lon="9.323477321825193"><ele>202.33333333333331</ele><time>2026-04-08T18:17:32Z</time></trkpt><trkpt lat="39.2518532030246" lon="9.323479392003563"><ele>202.0</ele><time>2026-04-08T18:17:33Z</time></trkpt><trkpt lat="39.251762239026704" lon="9.323521073231385"><ele>202.0</ele><time>2026-04-08T18:17:35Z</time></trkpt><trkpt lat="39.25161568098273" lon="9.323539457750861"><ele>202.0</ele><time>2026-04-08T18:17:37Z</time></trkpt><trkpt lat="39.25152497063545" lon="9.32357107512278"><ele>202.0</ele><time>2026-04-08T18:17:38Z</time></trkpt><trkpt lat="39.25144802143903" lon="9.323587871861466"><ele>202.0</ele><time>2026-04-08T18:17:39Z</time></trkpt><trkpt lat="39.251384460216386" lon="9.323602036564811"><ele>202.0</ele><time>2026-04-08T18:17:40Z</time></trkpt><trkpt lat="39.251305603260484" lon="9.323608444613205"><ele>201.66666666666666</ele><time>2026-04-08T18:17:41Z</time></trkpt><trkpt lat="39.251231299791485" lon="9.323619083013671"><ele>201.33333333333331</ele><time>2026-04-08T18:17:42Z</time></trkpt><trkpt lat="39.25114282114693" lon="9.323638121689376"><ele>201.0</ele><time>2026-04-08T18:17:43Z</time></trkpt><trkpt lat="39.25106758074941" lon="9.323650765142826"><ele>200.66666666666669</ele><time>2026-04-08T18:17:44Z</time></trkpt><trkpt lat="39.25098337902943" lon="9.323660065764425"><ele>200.33333333333334</ele><time>2026-04-08T18:17:45Z</time></trkpt><trkpt lat="39.25091358624355" lon="9.323660280956622"><ele>200.0</ele><time>2026-04-08T18:17:46Z</time></trkpt><trkpt lat="39.25083376669562" lon="9.32364851424051"><ele>200.00000000000003</ele><time>2026-04-08T18:17:47Z</time></trkpt><trkpt lat="39.25074617984095" lon="9.323639324594692"><ele>200.0</ele><time>2026-04-08T18:17:48Z</time></trkpt><trkpt lat="39.25066556733978" lon="9.323635679178441"><ele>200.0</ele><time>2026-04-08T18:17:49Z</time></trkpt><trkpt lat="39.25058959211439" lon="9.32362246496062"><ele>200.0</ele><time>2026-04-08T18:17:50Z</time></trkpt><trkpt lat="39.250520209625634" lon="9.32362119527902"><ele>200.00000000000003</ele><time>2026-04-08T18:17:51Z</time></trkpt><trkpt lat="39.25039940934679" lon="9.323624163698408"><ele>200.0</ele><time>2026-04-08T18:17:53Z</time></trkpt><trkpt lat="39.2503189491628" lon="9.323598634783977"><ele>198.33333333333334</ele><time>2026-04-08T18:17:54Z</time></trkpt><trkpt lat="39.250229514269186" lon="9.323574644245507"><ele>196.66666666666669</ele><time>2026-04-08T18:17:55Z</time></trkpt><trkpt lat="39.25014551405281" lon="9.323554643007562"><ele>195.0</ele><time>2026-04-08T18:17:56Z</time></trkpt><trkpt lat="39.250066891424616" lon="9.323526548313696"><ele>193.33333333333334</ele><time>2026-04-08T18:17:57Z</time></trkpt><trkpt lat="39.25000431420355" lon="9.323511397219626"><ele>191.66666666666669</ele><time>2026-04-08T18:17:58Z</time></trkpt><trkpt lat="39.249928493622626" lon="9.32349625536213"><ele>190.0</ele><time>2026-04-08T18:17:59Z</time></trkpt><trkpt lat="39.24984934178447" lon="9.323471383778678"><ele>189.4</ele><time>2026-04-08T18:18:00Z</time></trkpt><trkpt lat="39.24977778954632" lon="9.323434897035984"><ele>188.8</ele><time>2026-04-08T18:18:01Z</time></trkpt><trkpt lat="39.24968676448744" lon="9.32338225218629"><ele>188.2</ele><time>2026-04-08T18:18:02Z</time></trkpt><trkpt lat="39.24958189578794" lon="9.323352412433307"><ele>187.6</ele><time>2026-04-08T18:18:03Z</time></trkpt><trkpt lat="39.249475200654125" lon="9.323342892040262"><ele>187.0</ele><time>2026-04-08T18:18:04Z</time></trkpt><trkpt lat="39.24937949191045" lon="9.323320838647906"><ele>187.0</ele><time>2026-04-08T18:18:05Z</time></trkpt><trkpt lat="39.249271409713174" lon="9.323293556839758"><ele>187.0</ele><time>2026-04-08T18:18:06Z</time></trkpt><trkpt lat="39.24915769304708" lon="9.323281348753811"><ele>187.0</ele><time>2026-04-08T18:18:07Z</time></trkpt><trkpt lat="39.24904508981213" lon="9.323275892908937"><ele>187.0</ele><time>2026-04-08T18:18:08Z</time></trkpt><trkpt lat="39.2489576125363" lon="9.323253868911127"><ele>187.0</ele><time>2026-04-08T18:18:09Z</time></trkpt><trkpt lat="39.248893110536" lon="9.32324458753521"><ele>186.5</ele><time>2026-04-08T18:18:10Z</time></trkpt><trkpt lat="39.24882239093879" lon="9.323239491391892"><ele>186.0</ele><time>2026-04-08T18:18:11Z</time></trkpt><trkpt lat="39.248755894719814" lon="9.323223806634799"><ele>185.5</ele><time>2026-04-08T18:18:12Z</time></trkpt><trkpt lat="39.24868240442834" lon="9.323203004726413"><ele>185.0</ele><time>2026-04-08T18:18:13Z</time></trkpt><trkpt lat="39.24860125465834" lon="9.323196280717424"><ele>184.5</ele><time>2026-04-08T18:18:14Z</time></trkpt><trkpt lat="39.24852900212336" lon="9.323208345649983"><ele>184.0</ele><time>2026-04-08T18:18:15Z</time></trkpt><trkpt lat="39.24843212787181" lon="9.323219817123157"><ele>184.0</ele><time>2026-04-08T18:18:17Z</time></trkpt><trkpt lat="39.24838824058295" lon="9.3231566039267"><ele>184.0</ele><time>2026-04-08T18:18:19Z</time></trkpt><trkpt lat="39.24839280948231" lon="9.323062376568744"><ele>184.0</ele><time>2026-04-08T18:18:21Z</time></trkpt><trkpt lat="39.248408003620185" lon="9.32297413764681"><ele>184.0</ele><time>2026-04-08T18:18:22Z</time></trkpt><trkpt lat="39.24840711975183" lon="9.322876772618184"><ele>184.0</ele><time>2026-04-08T18:18:23Z</time></trkpt><trkpt lat="39.24841984362264" lon="9.322766342618161"><ele>184.0</ele><time>2026-04-08T18:18:24Z</time></trkpt><trkpt lat="39.2484313276697" lon="9.322668502464104"><ele>184.0</ele><time>2026-04-08T18:18:25Z</time></trkpt><trkpt lat="39.24842646610516" lon="9.32258323439989"><ele>183.2</ele><time>2026-04-08T18:18:26Z</time></trkpt><trkpt lat="39.24841549015548" lon="9.32249812788324"><ele>182.39999999999998</ele><time>2026-04-08T18:18:27Z</time></trkpt><trkpt lat="39.24839200319313" lon="9.32242131092918"><ele>181.6</ele><time>2026-04-08T18:18:28Z</time></trkpt><trkpt lat="39.2483230725765" lon="9.322304368225383"><ele>180.8</ele><time>2026-04-08T18:18:30Z</time></trkpt><trkpt lat="39.24820701536154" lon="9.322198166106206"><ele>180.0</ele><time>2026-04-08T18:18:32Z</time></trkpt><trkpt lat="39.248157345675075" lon="9.32211672472021"><ele>179.16666666666666</ele><time>2026-04-08T18:18:33Z</time></trkpt><trkpt lat="39.248132192765155" lon="9.322032553124618"><ele>178.33333333333334</ele><time>2026-04-08T18:18:34Z</time></trkpt><trkpt lat="39.24810121339267" lon="9.321940354763862"><ele>177.5</ele><time>2026-04-08T18:18:35Z</time></trkpt><trkpt lat="39.247994835347995" lon="9.321815669808238"><ele>176.66666666666669</ele><time>2026-04-08T18:18:37Z</time></trkpt><trkpt lat="39.247953132062506" lon="9.321744121446745"><ele>175.83333333333334</ele><time>2026-04-08T18:18:38Z</time></trkpt><trkpt lat="39.247928746513814" lon="9.321658020262676"><ele>175.0</ele><time>2026-04-08T18:18:39Z</time></trkpt><trkpt lat="39.24790104647844" lon="9.321564333144384"><ele>173.2</ele><time>2026-04-08T18:18:40Z</time></trkpt><trkpt lat="39.24782117780808" lon="9.321452605598713"><ele>171.4</ele><time>2026-04-08T18:18:42Z</time></trkpt><trkpt lat="39.24772726824645" lon="9.321352406762125"><ele>169.60000000000002</ele><time>2026-04-08T18:18:44Z</time></trkpt><trkpt lat="39.247648957823294" lon="9.321317923081141"><ele>167.8</ele><time>2026-04-08T18:18:45Z</time></trkpt><trkpt lat="39.247545137473715" lon="9.321274137676236"><ele>166.0</ele><time>2026-04-08T18:18:46Z</time></trkpt><trkpt lat="39.2474369201341" lon="9.32123278104867"><ele>165.0</ele><time>2026-04-08T18:18:47Z</time></trkpt><trkpt lat="39.24733579953546" lon="9.321194334130436"><ele>164.0</ele><time>2026-04-08T18:18:48Z</time></trkpt><trkpt lat="39.24724552709959" lon="9.321158994100921"><ele>163.0</ele><time>2026-04-08T18:18:49Z</time></trkpt><trkpt lat="39.24714937946521" lon="9.3211221878317"><ele>162.0</ele><time>2026-04-08T18:18:50Z</time></trkpt><trkpt lat="39.2470592283781" lon="9.321097564743814"><ele>161.0</ele><time>2026-04-08T18:18:51Z</time></trkpt><trkpt lat="39.24696713071204" lon="9.321070036388056"><ele>159.60000000000002</ele><time>2026-04-08T18:18:52Z</time></trkpt><trkpt lat="39.246871570165716" lon="9.321014005652602"><ele>158.20000000000002</ele><time>2026-04-08T18:18:53Z</time></trkpt><trkpt lat="39.2467726601918" lon="9.32096892423135"><ele>156.8</ele><time>2026-04-08T18:18:54Z</time></trkpt><trkpt lat="39.24668248178488" lon="9.320953602830576"><ele>155.4</ele><time>2026-04-08T18:18:55Z</time></trkpt><trkpt lat="39.246609967017" lon="9.320913735838825"><ele>154.0</ele><time>2026-04-08T18:18:56Z</time></trkpt><trkpt lat="39.24651374598225" lon="9.320951349231"><ele>152.83333333333334</ele><time>2026-04-08T18:18:57Z</time></trkpt><trkpt lat="39.246425979674164" lon="9.320985467405231"><ele>151.66666666666669</ele><time>2026-04-08T18:18:58Z</time></trkpt><trkpt lat="39.246330937683176" lon="9.321033435825916"><ele>150.5</ele><time>2026-04-08T18:18:59Z</time></trkpt><trkpt lat="39.24625823948325" lon="9.32107879986955"><ele>149.33333333333334</ele><time>2026-04-08T18:19:00Z</time></trkpt><trkpt lat="39.246190277958895" lon="9.321114883192609"><ele>148.16666666666666</ele><time>2026-04-08T18:19:01Z</time></trkpt><trkpt lat="39.246122181509165" lon="9.321139433314693"><ele>147.0</ele><time>2026-04-08T18:19:02Z</time></trkpt><trkpt lat="39.24595417103759" lon="9.321159342367197"><ele>147.0</ele><time>2026-04-08T18:19:04Z</time></trkpt><trkpt lat="39.245844819189" lon="9.321171538279353"><ele>147.0</ele><time>2026-04-08T18:19:05Z</time></trkpt><trkpt lat="39.2457393126444" lon="9.321174791566772"><ele>147.0</ele><time>2026-04-08T18:19:06Z</time></trkpt><trkpt lat="39.24563427543254" lon="9.321191962539734"><ele>147.0</ele><time>2026-04-08T18:19:07Z</time></trkpt><trkpt lat="39.24552862645284" lon="9.321177560550401"><ele>147.0</ele><time>2026-04-08T18:19:08Z</time></trkpt><trkpt lat="39.24541707944758" lon="9.321213365418439"><ele>145.4</ele><time>2026-04-08T18:19:09Z</time></trkpt><trkpt lat="39.24529766450161" lon="9.321217551654"><ele>143.79999999999998</ele><time>2026-04-08T18:19:10Z</time></trkpt><trkpt lat="39.24519143311745" lon="9.321243423581736"><ele>142.2</ele><time>2026-04-08T18:19:11Z</time></trkpt><trkpt lat="39.245089299404896" lon="9.321266125875342"><ele>140.6</ele><time>2026-04-08T18:19:12Z</time></trkpt><trkpt lat="39.24499020531059" lon="9.321286051102758"><ele>139.0</ele><time>2026-04-08T18:19:13Z</time></trkpt><trkpt lat="39.24488918003302" lon="9.32130508277766"><ele>139.6</ele><time>2026-04-08T18:19:14Z</time></trkpt><trkpt lat="39.244776038046595" lon="9.321318790290528"><ele>140.2</ele><time>2026-04-08T18:19:15Z</time></trkpt><trkpt lat="39.24466268442106" lon="9.321322868013775"><ele>140.79999999999998</ele><time>2026-04-08T18:19:16Z</time></trkpt><trkpt lat="39.24455988216617" lon="9.32135907068598"><ele>141.4</ele><time>2026-04-08T18:19:17Z</time></trkpt><trkpt lat="39.24444840192113" lon="9.32135013082085"><ele>142.0</ele><time>2026-04-08T18:19:18Z</time></trkpt><trkpt lat="39.244338971465574" lon="9.321349230666796"><ele>142.0</ele><time>2026-04-08T18:19:19Z</time></trkpt><trkpt lat="39.244229619883036" lon="9.32134603326074"><ele>142.0</ele><time>2026-04-08T18:19:20Z</time></trkpt><trkpt lat="39.24412223873289" lon="9.321331158388205"><ele>142.0</ele><time>2026-04-08T18:19:21Z</time></trkpt><trkpt lat="39.244019745064655" lon="9.321306502997937"><ele>142.0</ele><time>2026-04-08T18:19:22Z</time></trkpt><trkpt lat="39.24393333102678" lon="9.321274752314313"><ele>142.0</ele><time>2026-04-08T18:19:23Z</time></trkpt><trkpt lat="39.243854793371675" lon="9.32123591555815"><ele>144.16666666666669</ele><time>2026-04-08T18:19:24Z</time></trkpt><trkpt lat="39.2437882557543" lon="9.321182193094623"><ele>146.33333333333334</ele><time>2026-04-08T18:19:25Z</time></trkpt><trkpt lat="39.24371009324617" lon="9.321109253187261"><ele>148.5</ele><time>2026-04-08T18:19:26Z</time></trkpt><trkpt lat="39.2436337154061" lon="9.321038875628052"><ele>150.66666666666666</ele><time>2026-04-08T18:19:27Z</time></trkpt><trkpt lat="39.24356398549182" lon="9.320977892274183"><ele>152.83333333333331</ele><time>2026-04-08T18:19:28Z</time></trkpt><trkpt lat="39.243497887579586" lon="9.32093474891216"><ele>155.0</ele><time>2026-04-08T18:19:29Z</time></trkpt><trkpt lat="39.243437378364604" lon="9.320890508557852"><ele>155.0</ele><time>2026-04-08T18:19:30Z</time></trkpt><trkpt lat="39.2433438083553" lon="9.3208282823503"><ele>155.0</ele><time>2026-04-08T18:19:32Z</time></trkpt><trkpt lat="39.243280013703455" lon="9.32081954939837"><ele>155.0</ele><time>2026-04-08T18:19:33Z</time></trkpt><trkpt lat="39.24320005423186" lon="9.32084692841106"><ele>155.0</ele><time>2026-04-08T18:19:35Z</time></trkpt><trkpt lat="39.243130487867596" lon="9.320869269864676"><ele>155.0</ele><time>2026-04-08T18:19:37Z</time></trkpt><trkpt lat="39.24305367980747" lon="9.320820030777353"><ele>155.0</ele><time>2026-04-08T18:19:39Z</time></trkpt><trkpt lat="39.24291838370519" lon="9.320816921823031"><ele>157.5</ele><time>2026-04-08T18:19:41Z</time></trkpt><trkpt lat="39.242849043725364" lon="9.320821028750045"><ele>160.0</ele><time>2026-04-08T18:19:42Z</time></trkpt><trkpt lat="39.24273707795513" lon="9.320760613969016"><ele>162.5</ele><time>2026-04-08T18:19:44Z</time></trkpt><trkpt lat="39.24268436643737" lon="9.32071497790668"><ele>165.0</ele><time>2026-04-08T18:19:45Z</time></trkpt><trkpt lat="39.24259087085061" lon="9.320660844918791"><ele>167.5</ele><time>2026-04-08T18:19:47Z</time></trkpt><trkpt lat="39.242525170284246" lon="9.320675502928017"><ele>170.0</ele><time>2026-04-08T18:19:48Z</time></trkpt><trkpt lat="39.24245155938681" lon="9.320695683188042"><ele>170.0</ele><time>2026-04-08T18:19:49Z</time></trkpt><trkpt lat="39.24237866250777" lon="9.320727421319853"><ele>170.0</ele><time>2026-04-08T18:19:50Z</time></trkpt><trkpt lat="39.242309814380015" lon="9.320705043143304"><ele>170.0</ele><time>2026-04-08T18:19:52Z</time></trkpt><trkpt lat="39.24228839537072" lon="9.320614428110988"><ele>170.0</ele><time>2026-04-08T18:19:54Z</time></trkpt><trkpt lat="39.242303200621194" lon="9.320526031279416"><ele>170.0</ele><time>2026-04-08T18:19:57Z</time></trkpt><trkpt lat="39.24228850757443" lon="9.32044602617421"><ele>170.0</ele><time>2026-04-08T18:22:51Z</time></trkpt><trkpt lat="39.24227835776758" lon="9.32029937679029"><ele>168.8</ele><time>2026-04-08T18:22:53Z</time></trkpt><trkpt lat="39.242249686304525" lon="9.32016582598593"><ele>167.6</ele><time>2026-04-08T18:22:55Z</time></trkpt><trkpt lat="39.242201745925875" lon="9.320079048393557"><ele>166.39999999999998</ele><time>2026-04-08T18:22:57Z</time></trkpt><trkpt lat="39.24216530564378" lon="9.319956780287718"><ele>165.2</ele><time>2026-04-08T18:22:59Z</time></trkpt><trkpt lat="39.24215484984602" lon="9.319824338744166"><ele>164.0</ele><time>2026-04-08T18:23:01Z</time></trkpt><trkpt lat="39.24211246479358" lon="9.31969025376953"><ele>162.39999999999998</ele><time>2026-04-08T18:23:03Z</time></trkpt><trkpt lat="39.242043011339305" lon="9.31959206426156"><ele>160.79999999999998</ele><time>2026-04-08T18:23:05Z</time></trkpt><trkpt lat="39.24195761415212" lon="9.319481351487605"><ele>159.2</ele><time>2026-04-08T18:23:07Z</time></trkpt><trkpt lat="39.24190438209205" lon="9.319352288100381"><ele>157.6</ele><time>2026-04-08T18:23:09Z</time></trkpt><trkpt lat="39.241880237115275" lon="9.319249914995597"><ele>156.0</ele><time>2026-04-08T18:23:11Z</time></trkpt><trkpt lat="39.241820089187065" lon="9.319137933928436"><ele>156.0</ele><time>2026-04-08T18:23:13Z</time></trkpt><trkpt lat="39.2418027403448" lon="9.319043561530124"><ele>156.0</ele><time>2026-04-08T18:23:15Z</time></trkpt><trkpt lat="39.2417799399796" lon="9.318958937818335"><ele>156.0</ele><time>2026-04-08T18:23:17Z</time></trkpt><trkpt lat="39.24169367510781" lon="9.318906315705792"><ele>156.0</ele><time>2026-04-08T18:23:19Z</time></trkpt><trkpt lat="39.24162663997408" lon="9.31892847338237"><ele>156.0</ele><time>2026-04-08T18:23:21Z</time></trkpt><trkpt lat="39.24155562072104" lon="9.319004885631056"><ele>156.0</ele><time>2026-04-08T18:23:24Z</time></trkpt><trkpt lat="39.24151041098151" lon="9.319078464745223"><ele>153.83333333333334</ele><time>2026-04-08T18:23:26Z</time></trkpt><trkpt lat="39.24144790619775" lon="9.31914511486837"><ele>151.66666666666666</ele><time>2026-04-08T18:23:29Z</time></trkpt><trkpt lat="39.241378526687676" lon="9.319114162711374"><ele>149.5</ele><time>2026-04-08T18:23:31Z</time></trkpt><trkpt lat="39.241342472274994" lon="9.319035654251216"><ele>147.33333333333331</ele><time>2026-04-08T18:23:34Z</time></trkpt><trkpt lat="39.24124500451522" lon="9.318980701052235"><ele>145.16666666666666</ele><time>2026-04-08T18:23:37Z</time></trkpt><trkpt lat="39.24116673620242" lon="9.31891147467666"><ele>143.0</ele><time>2026-04-08T18:23:40Z</time></trkpt><trkpt lat="39.24108046121916" lon="9.318857175788786"><ele>143.0</ele><time>2026-04-08T18:23:43Z</time></trkpt><trkpt lat="39.2409857448859" lon="9.318863182027865"><ele>143.0</ele><time>2026-04-08T18:23:45Z</time></trkpt><trkpt lat="39.24090504980344" lon="9.318886403155306"><ele>143.0</ele><time>2026-04-08T18:23:46Z</time></trkpt><trkpt lat="39.240829589429715" lon="9.318901654469041"><ele>143.0</ele><time>2026-04-08T18:23:47Z</time></trkpt><trkpt lat="39.240751191934116" lon="9.318905396760316"><ele>143.0</ele><time>2026-04-08T18:23:48Z</time></trkpt><trkpt lat="39.24068189872884" lon="9.318905021171913"><ele>143.0</ele><time>2026-04-08T18:23:49Z</time></trkpt><trkpt lat="39.240611511420745" lon="9.318903290011635"><ele>143.33333333333331</ele><time>2026-04-08T18:23:50Z</time></trkpt><trkpt lat="39.24053488214392" lon="9.318896710542829"><ele>143.66666666666666</ele><time>2026-04-08T18:23:51Z</time></trkpt><trkpt lat="39.24046011831689" lon="9.318882897247317"><ele>144.0</ele><time>2026-04-08T18:23:52Z</time></trkpt><trkpt lat="39.24039877645057" lon="9.318861242394863"><ele>144.33333333333334</ele><time>2026-04-08T18:23:53Z</time></trkpt><trkpt lat="39.24027038363249" lon="9.318818432103141"><ele>144.66666666666669</ele><time>2026-04-08T18:23:55Z</time></trkpt><trkpt lat="39.24020286385898" lon="9.31880243158948"><ele>145.0</ele><time>2026-04-08T18:23:56Z</time></trkpt><trkpt lat="39.240128204458884" lon="9.318776463885849"><ele>145.0</ele><time>2026-04-08T18:23:57Z</time></trkpt><trkpt lat="39.2400555648215" lon="9.318741269369813"><ele>145.0</ele><time>2026-04-08T18:23:58Z</time></trkpt><trkpt lat="39.23998757082098" lon="9.31869582142889"><ele>145.0</ele><time>2026-04-08T18:23:59Z</time></trkpt><trkpt lat="39.239929814431086" lon="9.318656105331328"><ele>145.0</ele><time>2026-04-08T18:24:00Z</time></trkpt><trkpt lat="39.239865235038714" lon="9.318572615651428"><ele>145.0</ele><time>2026-04-08T18:24:02Z</time></trkpt><trkpt lat="39.23976649921167" lon="9.318501412866256"><ele>145.0</ele><time>2026-04-08T18:24:04Z</time></trkpt><trkpt lat="39.23968282937739" lon="9.318453628060576"><ele>144.33333333333334</ele><time>2026-04-08T18:24:05Z</time></trkpt><trkpt lat="39.23961779086577" lon="9.31839257103078"><ele>143.66666666666669</ele><time>2026-04-08T18:24:06Z</time></trkpt><trkpt lat="39.23955945187003" lon="9.318318968908233"><ele>143.0</ele><time>2026-04-08T18:24:07Z</time></trkpt><trkpt lat="39.23949825171358" lon="9.31824360803654"><ele>142.33333333333334</ele><time>2026-04-08T18:24:08Z</time></trkpt><trkpt lat="39.23943281735354" lon="9.318178854510174"><ele>141.66666666666666</ele><time>2026-04-08T18:24:09Z</time></trkpt><trkpt lat="39.23936250188028" lon="9.318115266049562"><ele>141.0</ele><time>2026-04-08T18:24:10Z</time></trkpt><trkpt lat="39.23929203628924" lon="9.318050854641507"><ele>141.0</ele><time>2026-04-08T18:24:11Z</time></trkpt><trkpt lat="39.23922790968502" lon="9.317986001354601"><ele>141.0</ele><time>2026-04-08T18:24:12Z</time></trkpt><trkpt lat="39.239168077619254" lon="9.317923461322156"><ele>141.0</ele><time>2026-04-08T18:24:13Z</time></trkpt><trkpt lat="39.2391106585777" lon="9.31786072806889"><ele>141.0</ele><time>2026-04-08T18:24:14Z</time></trkpt><trkpt lat="39.239057846777285" lon="9.31780786264772"><ele>141.0</ele><time>2026-04-08T18:24:15Z</time></trkpt><trkpt lat="39.238990374710184" lon="9.317738540547719"><ele>141.0</ele><time>2026-04-08T18:24:17Z</time></trkpt><trkpt lat="39.23891368197928" lon="9.317672769667942"><ele>139.25</ele><time>2026-04-08T18:24:19Z</time></trkpt><trkpt lat="39.23881708620313" lon="9.317569956720435"><ele>137.5</ele><time>2026-04-08T18:24:21Z</time></trkpt><trkpt lat="39.23872930377948" lon="9.317465798816254"><ele>135.75</ele><time>2026-04-08T18:24:23Z</time></trkpt><trkpt lat="39.23864854475194" lon="9.317373522273307"><ele>134.0</ele><time>2026-04-08T18:24:25Z</time></trkpt><trkpt lat="39.238548981784575" lon="9.317282952738188"><ele>133.83333333333331</ele><time>2026-04-08T18:24:27Z</time></trkpt><trkpt lat="39.238499255719724" lon="9.317203920183148"><ele>133.66666666666666</ele><time>2026-04-08T18:24:29Z</time></trkpt><trkpt lat="39.23845245115021" lon="9.317121281352884"><ele>133.5</ele><time>2026-04-08T18:24:31Z</time></trkpt><trkpt lat="39.238393895412344" lon="9.317050516245283"><ele>133.33333333333334</ele><time>2026-04-08T18:24:33Z</time></trkpt><trkpt lat="39.238339625972486" lon="9.316977017122484"><ele>133.16666666666669</ele><time>2026-04-08T18:24:35Z</time></trkpt><trkpt lat="39.238274075110645" lon="9.316894784821905"><ele>133.0</ele><time>2026-04-08T18:24:37Z</time></trkpt><trkpt lat="39.23820961442395" lon="9.31680437087688"><ele>133.0</ele><time>2026-04-08T18:24:39Z</time></trkpt><trkpt lat="39.23815432002488" lon="9.316700204907157"><ele>133.0</ele><time>2026-04-08T18:24:41Z</time></trkpt><trkpt lat="39.23811735072131" lon="9.316590814147366"><ele>133.0</ele><time>2026-04-08T18:24:43Z</time></trkpt><trkpt lat="39.238088399651915" lon="9.316485484459077"><ele>133.0</ele><time>2026-04-08T18:24:45Z</time></trkpt><trkpt lat="39.238024242156236" lon="9.316398627371035"><ele>133.0</ele><time>2026-04-08T18:24:48Z</time></trkpt><trkpt lat="39.23798075860254" lon="9.316319351318429"><ele>133.0</ele><time>2026-04-08T18:24:51Z</time></trkpt><trkpt lat="39.23790855223087" lon="9.316328360570663"><ele>129.8</ele><time>2026-04-08T18:24:54Z</time></trkpt><trkpt lat="39.23783926406647" lon="9.316362583911543"><ele>126.60000000000001</ele><time>2026-04-08T18:24:56Z</time></trkpt><trkpt lat="39.2377661885585" lon="9.316445854540875"><ele>123.39999999999999</ele><time>2026-04-08T18:25:00Z</time></trkpt><trkpt lat="39.237668105095075" lon="9.316522698348223"><ele>120.19999999999999</ele><time>2026-04-08T18:25:02Z</time></trkpt><trkpt lat="39.23757626435635" lon="9.316602244155115"><ele>117.0</ele><time>2026-04-08T18:25:04Z</time></trkpt><trkpt lat="39.2374831111662" lon="9.31668030925891"><ele>117.0</ele><time>2026-04-08T18:25:06Z</time></trkpt><trkpt lat="39.23739482463734" lon="9.316741053751393"><ele>117.0</ele><time>2026-04-08T18:25:08Z</time></trkpt><trkpt lat="39.2373256290469" lon="9.316759200217257"><ele>117.0</ele><time>2026-04-08T18:25:10Z</time></trkpt><trkpt lat="39.23725123883533" lon="9.31676779518209"><ele>117.0</ele><time>2026-04-08T18:25:12Z</time></trkpt><trkpt lat="39.23718017170888" lon="9.316691458480644"><ele>117.0</ele><time>2026-04-08T18:25:15Z</time></trkpt><trkpt lat="39.23713374099457" lon="9.316603270090647"><ele>117.0</ele><time>2026-04-08T18:25:17Z</time></trkpt><trkpt lat="39.2371319396811" lon="9.31649801453771"><ele>115.6</ele><time>2026-04-08T18:25:19Z</time></trkpt><trkpt lat="39.23720215839407" lon="9.31638193701396"><ele>114.19999999999999</ele><time>2026-04-08T18:25:21Z</time></trkpt><trkpt lat="39.23723730528643" lon="9.316257115259763"><ele>112.8</ele><time>2026-04-08T18:25:23Z</time></trkpt><trkpt lat="39.237253472371634" lon="9.316151534515766"><ele>111.4</ele><time>2026-04-08T18:25:25Z</time></trkpt><trkpt lat="39.23728066149381" lon="9.315971343686524"><ele>110.0</ele><time>2026-04-08T18:25:27Z</time></trkpt><trkpt lat="39.23728944597914" lon="9.315851471087399"><ele>110.0</ele><time>2026-04-08T18:25:28Z</time></trkpt><trkpt lat="39.2372966110052" lon="9.315757754157815"><ele>110.0</ele><time>2026-04-08T18:25:29Z</time></trkpt><trkpt lat="39.237309930990456" lon="9.315582983770545"><ele>110.0</ele><time>2026-04-08T18:25:31Z</time></trkpt><trkpt lat="39.237313408957945" lon="9.31548721139719"><ele>110.0</ele><time>2026-04-08T18:25:32Z</time></trkpt><trkpt lat="39.23731837083297" lon="9.31540339107838"><ele>110.0</ele><time>2026-04-08T18:25:33Z</time></trkpt><trkpt lat="39.237321286747004" lon="9.315265960971585"><ele>109.33333333333333</ele><time>2026-04-08T18:25:35Z</time></trkpt><trkpt lat="39.237322874609596" lon="9.315180143397779"><ele>108.66666666666666</ele><time>2026-04-08T18:25:36Z</time></trkpt><trkpt lat="39.23732763159147" lon="9.315097154939092"><ele>108.0</ele><time>2026-04-08T18:25:37Z</time></trkpt><trkpt lat="39.237336249482695" lon="9.31499456021893"><ele>107.33333333333334</ele><time>2026-04-08T18:25:38Z</time></trkpt><trkpt lat="39.23734259442479" lon="9.3149084437395"><ele>106.66666666666667</ele><time>2026-04-08T18:25:39Z</time></trkpt><trkpt lat="39.23736171006129" lon="9.314770518604899"><ele>106.0</ele><time>2026-04-08T18:25:41Z</time></trkpt><trkpt lat="39.237385926194875" lon="9.314615640905052"><ele>105.85714285714286</ele><time>2026-04-08T18:25:43Z</time></trkpt><trkpt lat="39.23740868267958" lon="9.31452776442041"><ele>105.71428571428571</ele><time>2026-04-08T18:25:44Z</time></trkpt><trkpt lat="39.23742164057866" lon="9.314447852099564"><ele>105.57142857142857</ele><time>2026-04-08T18:25:45Z</time></trkpt><trkpt lat="39.23743811892223" lon="9.314366991846509"><ele>105.42857142857143</ele><time>2026-04-08T18:25:46Z</time></trkpt><trkpt lat="39.23745401125551" lon="9.314286381849147"><ele>105.28571428571428</ele><time>2026-04-08T18:25:47Z</time></trkpt><trkpt lat="39.23747203562573" lon="9.31419339349937"><ele>105.14285714285714</ele><time>2026-04-08T18:25:48Z</time></trkpt><trkpt lat="39.237491258960354" lon="9.314115463721441"><ele>105.0</ele><time>2026-04-08T18:25:49Z</time></trkpt><trkpt lat="39.237533155513624" lon="9.313951485155544"><ele>105.0</ele><time>2026-04-08T18:25:51Z</time></trkpt><trkpt lat="39.23755238917044" lon="9.313861757895799"><ele>105.0</ele><time>2026-04-08T18:25:52Z</time></trkpt><trkpt lat="39.237570289708515" lon="9.313776677777858"><ele>105.0</ele><time>2026-04-08T18:25:53Z</time></trkpt><trkpt lat="39.23760640960769" lon="9.313639363080066"><ele>105.0</ele><time>2026-04-08T18:25:55Z</time></trkpt><trkpt lat="39.23763268545239" lon="9.313556963621851"><ele>105.0</ele><time>2026-04-08T18:25:58Z</time></trkpt><trkpt lat="39.237648654731906" lon="9.313413758403737"><ele>105.0</ele><time>2026-04-08T18:28:08Z</time></trkpt><trkpt lat="39.23766515067762" lon="9.313333875546537"><ele>105.0</ele><time>2026-04-08T18:28:09Z</time></trkpt><trkpt lat="39.23768981073968" lon="9.313255839054172"><ele>105.0</ele><time>2026-04-08T18:28:10Z</time></trkpt><trkpt lat="39.23770899728164" lon="9.313172906753245"><ele>105.0</ele><time>2026-04-08T18:28:11Z</time></trkpt><trkpt lat="39.23773056643685" lon="9.313095488376579"><ele>105.0</ele><time>2026-04-08T18:28:12Z</time></trkpt><trkpt lat="39.237749383974084" lon="9.313013504474544"><ele>105.0</ele><time>2026-04-08T18:28:13Z</time></trkpt><trkpt lat="39.23776534806181" lon="9.312917524690432"><ele>105.0</ele><time>2026-04-08T18:28:14Z</time></trkpt><trkpt lat="39.23778626338936" lon="9.312823457267726"><ele>105.0</ele><time>2026-04-08T18:28:15Z</time></trkpt><trkpt lat="39.23776816342806" lon="9.312722367662097"><ele>104.5</ele><time>2026-04-08T18:28:16Z</time></trkpt><trkpt lat="39.23772801326313" lon="9.312632070571524"><ele>104.0</ele><time>2026-04-08T18:28:17Z</time></trkpt><trkpt lat="39.23767523587532" lon="9.312562222356316"><ele>103.5</ele><time>2026-04-08T18:28:18Z</time></trkpt><trkpt lat="39.237612984072626" lon="9.312513514022532"><ele>103.0</ele><time>2026-04-08T18:28:19Z</time></trkpt><trkpt lat="39.237528502123375" lon="9.312482597054663"><ele>102.5</ele><time>2026-04-08T18:28:20Z</time></trkpt><trkpt lat="39.23743368231451" lon="9.312467695262173"><ele>102.0</ele><time>2026-04-08T18:28:21Z</time></trkpt><trkpt lat="39.237337419971794" lon="9.312478968387149"><ele>101.42857142857143</ele><time>2026-04-08T18:28:22Z</time></trkpt><trkpt lat="39.237252114343605" lon="9.31246840818929"><ele>100.85714285714286</ele><time>2026-04-08T18:28:23Z</time></trkpt><trkpt lat="39.23717029230441" lon="9.312460668628475"><ele>100.28571428571428</ele><time>2026-04-08T18:28:24Z</time></trkpt><trkpt lat="39.23709538640015" lon="9.312456695660604"><ele>99.71428571428572</ele><time>2026-04-08T18:28:25Z</time></trkpt><trkpt lat="39.237026415796414" lon="9.312448437439953"><ele>99.14285714285714</ele><time>2026-04-08T18:28:26Z</time></trkpt><trkpt lat="39.23696516921933" lon="9.312426574420089"><ele>98.57142857142857</ele><time>2026-04-08T18:28:27Z</time></trkpt><trkpt lat="39.23691175579158" lon="9.312374246133189"><ele>98.0</ele><time>2026-04-08T18:28:28Z</time></trkpt><trkpt lat="39.2368622250009" lon="9.312295897980661"><ele>98.0</ele><time>2026-04-08T18:28:29Z</time></trkpt><trkpt lat="39.236844415128665" lon="9.312196747354433"><ele>98.0</ele><time>2026-04-08T18:28:30Z</time></trkpt><trkpt lat="39.23682417229037" lon="9.312064331263931"><ele>98.0</ele><time>2026-04-08T18:28:31Z</time></trkpt><trkpt lat="39.236781749106534" lon="9.311911248575491"><ele>98.0</ele><time>2026-04-08T18:28:32Z</time></trkpt><trkpt lat="39.2367504025368" lon="9.311758226363184"><ele>98.0</ele><time>2026-04-08T18:28:33Z</time></trkpt><trkpt lat="39.23670448659084" lon="9.311605943000613"><ele>98.0</ele><time>2026-04-08T18:28:34Z</time></trkpt><trkpt lat="39.23664804829028" lon="9.311468003782023"><ele>98.0</ele><time>2026-04-08T18:28:35Z</time></trkpt><trkpt lat="39.23659696225035" lon="9.311339715240965"><ele>98.0</ele><time>2026-04-08T18:28:36Z</time></trkpt><trkpt lat="39.236553640465985" lon="9.311229057365157"><ele>98.0</ele><time>2026-04-08T18:28:37Z</time></trkpt><trkpt lat="39.2365380455269" lon="9.311129308930184"><ele>98.0</ele><time>2026-04-08T18:28:38Z</time></trkpt><trkpt lat="39.236538541250894" lon="9.311014099291153"><ele>97.80000000000001</ele><time>2026-04-08T18:28:39Z</time></trkpt><trkpt lat="39.236549220170815" lon="9.310880260996553"><ele>97.6</ele><time>2026-04-08T18:28:40Z</time></trkpt><trkpt lat="39.23655641845159" lon="9.31075991760474"><ele>97.4</ele><time>2026-04-08T18:28:41Z</time></trkpt><trkpt lat="39.236561539620304" lon="9.31063854821982"><ele>97.19999999999999</ele><time>2026-04-08T18:28:42Z</time></trkpt><trkpt lat="39.23656272101924" lon="9.310523210435822"><ele>97.0</ele><time>2026-04-08T18:28:43Z</time></trkpt><trkpt lat="39.23654716270379" lon="9.310401705637465"><ele>96.0</ele><time>2026-04-08T18:28:44Z</time></trkpt><trkpt lat="39.236516346951056" lon="9.310280694372992"><ele>95.0</ele><time>2026-04-08T18:28:45Z</time></trkpt><trkpt lat="39.23647002737288" lon="9.310168420276735"><ele>94.0</ele><time>2026-04-08T18:28:46Z</time></trkpt><trkpt lat="39.23640845751487" lon="9.310062912210567"><ele>93.0</ele><time>2026-04-08T18:28:47Z</time></trkpt><trkpt lat="39.23633813665829" lon="9.309941896112914"><ele>92.0</ele><time>2026-04-08T18:28:48Z</time></trkpt><trkpt lat="39.23625618367273" lon="9.309844584811447"><ele>92.0</ele><time>2026-04-08T18:28:49Z</time></trkpt><trkpt lat="39.23616413470951" lon="9.309755661205347"><ele>92.0</ele><time>2026-04-08T18:28:50Z</time></trkpt><trkpt lat="39.236091728006166" lon="9.309645916143616"><ele>92.0</ele><time>2026-04-08T18:28:51Z</time></trkpt><trkpt lat="39.23602911271896" lon="9.30951081154428"><ele>92.0</ele><time>2026-04-08T18:28:52Z</time></trkpt><trkpt lat="39.235997140607815" lon="9.309361658908538"><ele>92.19999999999999</ele><time>2026-04-08T18:28:53Z</time></trkpt><trkpt lat="39.23595156776337" lon="9.30922228295809"><ele>92.4</ele><time>2026-04-08T18:28:54Z</time></trkpt><trkpt lat="39.235924885597406" lon="9.309078025759062"><ele>92.6</ele><time>2026-04-08T18:28:55Z</time></trkpt><trkpt lat="39.23589599639923" lon="9.30894224097108"><ele>92.80000000000001</ele><time>2026-04-08T18:28:56Z</time></trkpt><trkpt lat="39.235869178860035" lon="9.3088229246887"><ele>93.0</ele><time>2026-04-08T18:28:57Z</time></trkpt><trkpt lat="39.235840643784904" lon="9.308721191094671"><ele>93.0</ele><time>2026-04-08T18:28:58Z</time></trkpt><trkpt lat="39.23582441904191" lon="9.308624420059976"><ele>93.0</ele><time>2026-04-08T18:28:59Z</time></trkpt><trkpt lat="39.23577139177298" lon="9.308543621921801"><ele>93.0</ele><time>2026-04-08T18:29:00Z</time></trkpt><trkpt lat="39.23569317843875" lon="9.308476747908013"><ele>93.0</ele><time>2026-04-08T18:29:01Z</time></trkpt><trkpt lat="39.2356049510718" lon="9.308428911268686"><ele>93.0</ele><time>2026-04-08T18:29:02Z</time></trkpt><trkpt lat="39.235532925311844" lon="9.308400954499632"><ele>93.0</ele><time>2026-04-08T18:29:03Z</time></trkpt><trkpt lat="39.235447071257674" lon="9.308387391355463"><ele>93.0</ele><time>2026-04-08T18:29:05Z</time></trkpt><trkpt lat="39.235407020049394" lon="9.308318016381005"><ele>93.0</ele><time>2026-04-08T18:29:09Z</time></trkpt><trkpt lat="39.23549176458396" lon="9.308275261783585"><ele>93.0</ele><time>2026-04-08T18:29:12Z</time></trkpt><trkpt lat="39.23557701071322" lon="9.308249103230827"><ele>93.0</ele><time>2026-04-08T18:29:13Z</time></trkpt><trkpt lat="39.23563980206987" lon="9.30820138713282"><ele>93.0</ele><time>2026-04-08T18:29:14Z</time></trkpt><trkpt lat="39.23570082216186" lon="9.308173958859799"><ele>93.0</ele><time>2026-04-08T18:29:15Z</time></trkpt><trkpt lat="39.23575764473177" lon="9.308024011003104"><ele>91.60000000000001</ele><time>2026-04-08T18:29:17Z</time></trkpt><trkpt lat="39.23576851895746" lon="9.307922690420462"><ele>90.2</ele><time>2026-04-08T18:29:18Z</time></trkpt><trkpt lat="39.23577214867743" lon="9.307786618567429"><ele>88.8</ele><time>2026-04-08T18:29:19Z</time></trkpt><trkpt lat="39.23579117810184" lon="9.307644210748109"><ele>87.4</ele><time>2026-04-08T18:29:20Z</time></trkpt><trkpt lat="39.235803978413585" lon="9.30751164189674"><ele>86.0</ele><time>2026-04-08T18:29:21Z</time></trkpt><trkpt lat="39.23582122694588" lon="9.307385100408487"><ele>86.0</ele><time>2026-04-08T18:29:22Z</time></trkpt><trkpt lat="39.23584694834975" lon="9.307253504601617"><ele>86.0</ele><time>2026-04-08T18:29:23Z</time></trkpt><trkpt lat="39.235864867228784" lon="9.307124479959143"><ele>86.0</ele><time>2026-04-08T18:29:24Z</time></trkpt><trkpt lat="39.23588195720268" lon="9.307003902224437"><ele>86.0</ele><time>2026-04-08T18:29:25Z</time></trkpt><trkpt lat="39.235895556788314" lon="9.306892167140512"><ele>86.0</ele><time>2026-04-08T18:29:26Z</time></trkpt><trkpt lat="39.23590152301405" lon="9.306775488922922"><ele>84.39999999999999</ele><time>2026-04-08T18:29:27Z</time></trkpt><trkpt lat="39.23589561950828" lon="9.306655774466126"><ele>82.8</ele><time>2026-04-08T18:29:28Z</time></trkpt><trkpt lat="39.23587346762017" lon="9.306524739158995"><ele>81.19999999999999</ele><time>2026-04-08T18:29:29Z</time></trkpt><trkpt lat="39.235854420134984" lon="9.306403223868504"><ele>79.6</ele><time>2026-04-08T18:29:30Z</time></trkpt><trkpt lat="39.235840217462055" lon="9.306273144489502"><ele>78.0</ele><time>2026-04-08T18:29:31Z</time></trkpt><trkpt lat="39.23582155701329" lon="9.306121899815533"><ele>76.4</ele><time>2026-04-08T18:29:32Z</time></trkpt><trkpt lat="39.23579861816409" lon="9.305985854706655"><ele>74.8</ele><time>2026-04-08T18:29:33Z</time></trkpt><trkpt lat="39.235765695711976" lon="9.305868109669088"><ele>73.2</ele><time>2026-04-08T18:29:34Z</time></trkpt><trkpt lat="39.23572594782811" lon="9.305757289030655"><ele>71.6</ele><time>2026-04-08T18:29:35Z</time></trkpt><trkpt lat="39.23569027125756" lon="9.305628151623385"><ele>70.0</ele><time>2026-04-08T18:29:36Z</time></trkpt><trkpt lat="39.235639001201825" lon="9.305466797758779"><ele>67.75</ele><time>2026-04-08T18:29:37Z</time></trkpt><trkpt lat="39.23560277430297" lon="9.305294969160075"><ele>65.5</ele><time>2026-04-08T18:29:38Z</time></trkpt><trkpt lat="39.235557289716894" lon="9.30514617677041"><ele>63.25</ele><time>2026-04-08T18:29:39Z</time></trkpt><trkpt lat="39.235506375080504" lon="9.305014442401493"><ele>61.0</ele><time>2026-04-08T18:29:40Z</time></trkpt><trkpt lat="39.23546391497437" lon="9.304886176263683"><ele>61.0</ele><time>2026-04-08T18:29:41Z</time></trkpt><trkpt lat="39.23540800664466" lon="9.304754305034514"><ele>60.99999999999999</ele><time>2026-04-08T18:29:42Z</time></trkpt><trkpt lat="39.235356886945844" lon="9.304618147862438"><ele>60.99999999999999</ele><time>2026-04-08T18:29:43Z</time></trkpt><trkpt lat="39.23530584645754" lon="9.304497755800384"><ele>61.0</ele><time>2026-04-08T18:29:44Z</time></trkpt><trkpt lat="39.235248887431645" lon="9.304379293459645"><ele>61.0</ele><time>2026-04-08T18:29:45Z</time></trkpt><trkpt lat="39.235187639690615" lon="9.304255651720698"><ele>61.0</ele><time>2026-04-08T18:29:46Z</time></trkpt><trkpt lat="39.2351218401814" lon="9.30413837444536"><ele>61.0</ele><time>2026-04-08T18:29:47Z</time></trkpt><trkpt lat="39.23504806131798" lon="9.30401996372851"><ele>61.0</ele><time>2026-04-08T18:29:48Z</time></trkpt><trkpt lat="39.234972447904724" lon="9.303911755000742"><ele>61.0</ele><time>2026-04-08T18:29:49Z</time></trkpt><trkpt lat="39.234891032673616" lon="9.303808416907874"><ele>60.25</ele><time>2026-04-08T18:29:50Z</time></trkpt><trkpt lat="39.234804221857146" lon="9.303704396295831"><ele>59.5</ele><time>2026-04-08T18:29:51Z</time></trkpt><trkpt lat="39.234714242161274" lon="9.303606121495228"><ele>58.75</ele><time>2026-04-08T18:29:52Z</time></trkpt><trkpt lat="39.23461927494819" lon="9.30352185061275"><ele>58.0</ele><time>2026-04-08T18:29:53Z</time></trkpt><trkpt lat="39.23452808845419" lon="9.303443785631574"><ele>58.0</ele><time>2026-04-08T18:29:54Z</time></trkpt><trkpt lat="39.23443617755691" lon="9.30336134308383"><ele>58.0</ele><time>2026-04-08T18:29:55Z</time></trkpt><trkpt lat="39.23435591672653" lon="9.303290205048404"><ele>58.0</ele><time>2026-04-08T18:29:56Z</time></trkpt><trkpt lat="39.23428130667929" lon="9.303222054435292"><ele>58.0</ele><time>2026-04-08T18:29:57Z</time></trkpt><trkpt lat="39.23419941613092" lon="9.303149123853963"><ele>58.0</ele><time>2026-04-08T18:29:58Z</time></trkpt><trkpt lat="39.23410457680533" lon="9.303043791283088"><ele>57.5</ele><time>2026-04-08T18:29:59Z</time></trkpt><trkpt lat="39.234015063117724" lon="9.302942461017803"><ele>57.0</ele><time>2026-04-08T18:30:00Z</time></trkpt><trkpt lat="39.23393064957076" lon="9.302831141934828"><ele>56.5</ele><time>2026-04-08T18:30:01Z</time></trkpt><trkpt lat="39.233845652992024" lon="9.302714502650138"><ele>56.0</ele><time>2026-04-08T18:30:02Z</time></trkpt><trkpt lat="39.2337682130737" lon="9.30261385084622"><ele>55.199999999999996</ele><time>2026-04-08T18:30:03Z</time></trkpt><trkpt lat="39.23369936753981" lon="9.302525409733084"><ele>54.39999999999999</ele><time>2026-04-08T18:30:04Z</time></trkpt><trkpt lat="39.23363776895951" lon="9.302435274347854"><ele>53.6</ele><time>2026-04-08T18:30:05Z</time></trkpt><trkpt lat="39.233588688277315" lon="9.302334314206067"><ele>52.8</ele><time>2026-04-08T18:30:06Z</time></trkpt><trkpt lat="39.233561877733656" lon="9.302189417701332"><ele>52.0</ele><time>2026-04-08T18:30:07Z</time></trkpt><trkpt lat="39.23350161377455" lon="9.302029279099177"><ele>50.75</ele><time>2026-04-08T18:30:08Z</time></trkpt><trkpt lat="39.23345875828842" lon="9.30185832846423"><ele>49.5</ele><time>2026-04-08T18:30:09Z</time></trkpt><trkpt lat="39.23342113983722" lon="9.301708139684445"><ele>48.25</ele><time>2026-04-08T18:30:10Z</time></trkpt><trkpt lat="39.233383731813994" lon="9.301560755197483"><ele>47.0</ele><time>2026-04-08T18:30:11Z</time></trkpt><trkpt lat="39.23334669245898" lon="9.301421639509783"><ele>46.6</ele><time>2026-04-08T18:30:12Z</time></trkpt><trkpt lat="39.23331103090366" lon="9.301286963227078"><ele>46.2</ele><time>2026-04-08T18:30:13Z</time></trkpt><trkpt lat="39.23327406885806" lon="9.301157884210706"><ele>45.8</ele><time>2026-04-08T18:30:14Z</time></trkpt><trkpt lat="39.23324618897172" lon="9.301032559700438"><ele>45.4</ele><time>2026-04-08T18:30:15Z</time></trkpt><trkpt lat="39.23321996989577" lon="9.300940241422502"><ele>45.0</ele><time>2026-04-08T18:30:16Z</time></trkpt><trkpt lat="39.23319910642182" lon="9.300860882100913"><ele>45.0</ele><time>2026-04-08T18:30:17Z</time></trkpt><trkpt lat="39.23317603236072" lon="9.300774882943767"><ele>45.0</ele><time>2026-04-08T18:30:18Z</time></trkpt><trkpt lat="39.233144456168155" lon="9.300649565665077"><ele>45.0</ele><time>2026-04-08T18:30:19Z</time></trkpt><trkpt lat="39.2331233318079" lon="9.30048802221251"><ele>45.0</ele><time>2026-04-08T18:30:20Z</time></trkpt><trkpt lat="39.233086569820344" lon="9.300327507958295"><ele>45.0</ele><time>2026-04-08T18:30:21Z</time></trkpt><trkpt lat="39.23305272092868" lon="9.300179713172085"><ele>42.8</ele><time>2026-04-08T18:30:22Z</time></trkpt><trkpt lat="39.23301331128118" lon="9.300035727189874"><ele>40.6</ele><time>2026-04-08T18:30:23Z</time></trkpt><trkpt lat="39.23297298184285" lon="9.299905112641163"><ele>38.4</ele><time>2026-04-08T18:30:24Z</time></trkpt><trkpt lat="39.232930685334566" lon="9.2998052512231"><ele>36.2</ele><time>2026-04-08T18:30:25Z</time></trkpt><trkpt lat="39.232883376557595" lon="9.299716566457093"><ele>34.0</ele><time>2026-04-08T18:30:26Z</time></trkpt><trkpt lat="39.23285310800728" lon="9.299613285372716"><ele>32.833333333333336</ele><time>2026-04-08T18:30:27Z</time></trkpt><trkpt lat="39.23280915626691" lon="9.2995195736925"><ele>31.666666666666668</ele><time>2026-04-08T18:30:28Z</time></trkpt><trkpt lat="39.23277042611854" lon="9.299429250832446"><ele>30.5</ele><time>2026-04-08T18:30:29Z</time></trkpt><trkpt lat="39.23272192147121" lon="9.29934691720837"><ele>29.333333333333336</ele><time>2026-04-08T18:30:30Z</time></trkpt><trkpt lat="39.232716564601944" lon="9.299256724644833"><ele>28.166666666666668</ele><time>2026-04-08T18:30:31Z</time></trkpt><trkpt lat="39.23270082133991" lon="9.29915819596011"><ele>27.0</ele><time>2026-04-08T18:30:32Z</time></trkpt><trkpt lat="39.232694584347435" lon="9.299009613276326"><ele>26.0</ele><time>2026-04-08T18:30:33Z</time></trkpt><trkpt lat="39.23267887170828" lon="9.29885125453454"><ele>25.000000000000004</ele><time>2026-04-08T18:30:34Z</time></trkpt><trkpt lat="39.23266990304656" lon="9.298701887541869"><ele>24.0</ele><time>2026-04-08T18:30:35Z</time></trkpt><trkpt lat="39.23265554669447" lon="9.298562563298944"><ele>23.0</ele><time>2026-04-08T18:30:36Z</time></trkpt><trkpt lat="39.23264154849284" lon="9.298434774956657"><ele>22.0</ele><time>2026-04-08T18:30:37Z</time></trkpt><trkpt lat="39.23263214854221" lon="9.29831538041032"><ele>22.0</ele><time>2026-04-08T18:30:38Z</time></trkpt><trkpt lat="39.232623317501094" lon="9.298211137874642"><ele>22.0</ele><time>2026-04-08T18:30:39Z</time></trkpt><trkpt lat="39.232625823002856" lon="9.298100451912406"><ele>22.0</ele><time>2026-04-08T18:30:40Z</time></trkpt><trkpt lat="39.23263110971762" lon="9.2979648270189"><ele>22.0</ele><time>2026-04-08T18:30:41Z</time></trkpt><trkpt lat="39.232633463405115" lon="9.297826449935231"><ele>22.0</ele><time>2026-04-08T18:30:42Z</time></trkpt><trkpt lat="39.232644887749935" lon="9.297691587202339"><ele>21.400000000000002</ele><time>2026-04-08T18:30:43Z</time></trkpt><trkpt lat="39.232666034704344" lon="9.297572038404267"><ele>20.8</ele><time>2026-04-08T18:30:44Z</time></trkpt><trkpt lat="39.23269113915225" lon="9.297461925031051"><ele>20.2</ele><time>2026-04-08T18:30:45Z</time></trkpt><trkpt lat="39.23272392128971" lon="9.297344695843087"><ele>19.6</ele><time>2026-04-08T18:30:46Z</time></trkpt><trkpt lat="39.23279058335655" lon="9.29723470140948"><ele>19.0</ele><time>2026-04-08T18:30:47Z</time></trkpt><trkpt lat="39.23286313091065" lon="9.297115956418603"><ele>18.75</ele><time>2026-04-08T18:30:48Z</time></trkpt><trkpt lat="39.23294038871955" lon="9.296996787187656"><ele>18.5</ele><time>2026-04-08T18:30:49Z</time></trkpt><trkpt lat="39.233004251411394" lon="9.296865082581382"><ele>18.25</ele><time>2026-04-08T18:30:50Z</time></trkpt><trkpt lat="39.23307472060805" lon="9.29675353854701"><ele>18.0</ele><time>2026-04-08T18:30:51Z</time></trkpt><trkpt lat="39.23313801505166" lon="9.296636738649966"><ele>18.0</ele><time>2026-04-08T18:30:52Z</time></trkpt><trkpt lat="39.23319881935578" lon="9.296532841616628"><ele>18.0</ele><time>2026-04-08T18:30:53Z</time></trkpt><trkpt lat="39.23324603478948" lon="9.296437141819752"><ele>18.0</ele><time>2026-04-08T18:30:54Z</time></trkpt><trkpt lat="39.233283616034804" lon="9.296349223581343"><ele>18.0</ele><time>2026-04-08T18:30:55Z</time></trkpt><trkpt lat="39.23331512576594" lon="9.296255219091922"><ele>18.0</ele><time>2026-04-08T18:30:56Z</time></trkpt><trkpt lat="39.23333200620041" lon="9.296157833168317"><ele>18.0</ele><time>2026-04-08T18:30:57Z</time></trkpt><trkpt lat="39.2333339665106" lon="9.296043058501573"><ele>17.833333333333332</ele><time>2026-04-08T18:30:58Z</time></trkpt><trkpt lat="39.23332066277226" lon="9.295912348385167"><ele>17.666666666666668</ele><time>2026-04-08T18:30:59Z</time></trkpt><trkpt lat="39.233300520188415" lon="9.295801038565369"><ele>17.5</ele><time>2026-04-08T18:31:00Z</time></trkpt><trkpt lat="39.233285530278806" lon="9.295694870383144"><ele>17.333333333333336</ele><time>2026-04-08T18:31:01Z</time></trkpt><trkpt lat="39.233282630952004" lon="9.295600188509411"><ele>17.166666666666668</ele><time>2026-04-08T18:31:02Z</time></trkpt><trkpt lat="39.23325098453941" lon="9.295494900997362"><ele>17.0</ele><time>2026-04-08T18:31:03Z</time></trkpt><trkpt lat="39.23322229886685" lon="9.295382830300408"><ele>16.5</ele><time>2026-04-08T18:31:04Z</time></trkpt><trkpt lat="39.2331777044353" lon="9.295237017445462"><ele>16.0</ele><time>2026-04-08T18:31:05Z</time></trkpt><trkpt lat="39.233108556528656" lon="9.295072344571905"><ele>15.5</ele><time>2026-04-08T18:31:06Z</time></trkpt><trkpt lat="39.2330320135996" lon="9.294919319459472"><ele>15.0</ele><time>2026-04-08T18:31:07Z</time></trkpt><trkpt lat="39.23297197022881" lon="9.2947800318208"><ele>14.8</ele><time>2026-04-08T18:31:08Z</time></trkpt><trkpt lat="39.23292716395491" lon="9.294649115076483"><ele>14.6</ele><time>2026-04-08T18:31:09Z</time></trkpt><trkpt lat="39.23292317421305" lon="9.294519591544327"><ele>14.399999999999999</ele><time>2026-04-08T18:31:10Z</time></trkpt><trkpt lat="39.23293306780299" lon="9.294393179150621"><ele>14.2</ele><time>2026-04-08T18:31:11Z</time></trkpt><trkpt lat="39.232966653504135" lon="9.29426536100012"><ele>14.0</ele><time>2026-04-08T18:31:12Z</time></trkpt><trkpt lat="39.2329869663317" lon="9.294137690382676"><ele>14.0</ele><time>2026-04-08T18:31:13Z</time></trkpt><trkpt lat="39.233024110666356" lon="9.294000282340768"><ele>14.0</ele><time>2026-04-08T18:31:14Z</time></trkpt><trkpt lat="39.23306592873624" lon="9.293848018026992"><ele>14.0</ele><time>2026-04-08T18:31:15Z</time></trkpt><trkpt lat="39.23308691792919" lon="9.293671442403122"><ele>14.0</ele><time>2026-04-08T18:31:16Z</time></trkpt><trkpt lat="39.2330977207413" lon="9.293491262425873"><ele>14.333333333333334</ele><time>2026-04-08T18:31:17Z</time></trkpt><trkpt lat="39.2331206184276" lon="9.293339616387437"><ele>14.666666666666668</ele><time>2026-04-08T18:31:18Z</time></trkpt><trkpt lat="39.23313624529068" lon="9.293223172662241"><ele>15.0</ele><time>2026-04-08T18:31:19Z</time></trkpt><trkpt lat="39.23314966763518" lon="9.29312820492084"><ele>15.333333333333332</ele><time>2026-04-08T18:31:20Z</time></trkpt><trkpt lat="39.233157517957125" lon="9.293026784857974"><ele>15.666666666666666</ele><time>2026-04-08T18:31:21Z</time></trkpt><trkpt lat="39.233160059043385" lon="9.292922163599217"><ele>16.0</ele><time>2026-04-08T18:31:22Z</time></trkpt><trkpt lat="39.233170266840716" lon="9.292802652643559"><ele>16.0</ele><time>2026-04-08T18:31:23Z</time></trkpt><trkpt lat="39.233160066838295" lon="9.29265242172531"><ele>16.0</ele><time>2026-04-08T18:31:24Z</time></trkpt><trkpt lat="39.23312781808248" lon="9.292498015267464"><ele>16.0</ele><time>2026-04-08T18:31:25Z</time></trkpt><trkpt lat="39.23311462275446" lon="9.292329471477677"><ele>16.0</ele><time>2026-04-08T18:31:26Z</time></trkpt><trkpt lat="39.233101038130066" lon="9.29216287719094"><ele>16.0</ele><time>2026-04-08T18:31:27Z</time></trkpt><trkpt lat="39.233080966524994" lon="9.29201598950409"><ele>16.0</ele><time>2026-04-08T18:31:28Z</time></trkpt><trkpt lat="39.23305870948647" lon="9.291888573784682"><ele>16.0</ele><time>2026-04-08T18:31:29Z</time></trkpt><trkpt lat="39.23301465941386" lon="9.291779649353385"><ele>16.0</ele><time>2026-04-08T18:31:30Z</time></trkpt><trkpt lat="39.23296797395503" lon="9.29165745445042"><ele>16.0</ele><time>2026-04-08T18:31:31Z</time></trkpt><trkpt lat="39.23292215546761" lon="9.291516888399602"><ele>16.5</ele><time>2026-04-08T18:31:32Z</time></trkpt><trkpt lat="39.23285452343092" lon="9.291382287482023"><ele>17.0</ele><time>2026-04-08T18:31:33Z</time></trkpt><trkpt lat="39.23278024570466" lon="9.291244197385591"><ele>17.5</ele><time>2026-04-08T18:31:34Z</time></trkpt><trkpt lat="39.232709592033956" lon="9.291115225574089"><ele>18.0</ele><time>2026-04-08T18:31:35Z</time></trkpt><trkpt lat="39.23264925518149" lon="9.29100453776757"><ele>18.0</ele><time>2026-04-08T18:31:36Z</time></trkpt><trkpt lat="39.23259901617121" lon="9.290903018215886"><ele>18.0</ele><time>2026-04-08T18:31:37Z</time></trkpt><trkpt lat="39.23254879096471" lon="9.290787663850129"><ele>18.0</ele><time>2026-04-08T18:31:38Z</time></trkpt><trkpt lat="39.232504890502376" lon="9.290659783812886"><ele>18.0</ele><time>2026-04-08T18:31:39Z</time></trkpt><trkpt lat="39.23247303624481" lon="9.290524162205807"><ele>18.0</ele><time>2026-04-08T18:31:40Z</time></trkpt><trkpt lat="39.232458906907105" lon="9.290393872268746"><ele>18.0</ele><time>2026-04-08T18:31:41Z</time></trkpt><trkpt lat="39.23243478327201" lon="9.290281615602979"><ele>18.0</ele><time>2026-04-08T18:31:42Z</time></trkpt><trkpt lat="39.23243514412286" lon="9.290180019697749"><ele>18.0</ele><time>2026-04-08T18:31:43Z</time></trkpt><trkpt lat="39.23243576467859" lon="9.290074378109141"><ele>18.0</ele><time>2026-04-08T18:31:44Z</time></trkpt><trkpt lat="39.23243671270192" lon="9.289947246492336"><ele>18.0</ele><time>2026-04-08T18:31:45Z</time></trkpt><trkpt lat="39.23243786397806" lon="9.289807415692012"><ele>18.2</ele><time>2026-04-08T18:31:46Z</time></trkpt><trkpt lat="39.232445683323725" lon="9.289665046165714"><ele>18.4</ele><time>2026-04-08T18:31:47Z</time></trkpt><trkpt lat="39.23245002235252" lon="9.289537631095408"><ele>18.599999999999998</ele><time>2026-04-08T18:31:48Z</time></trkpt><trkpt lat="39.23245173236424" lon="9.289406369730008"><ele>18.8</ele><time>2026-04-08T18:31:49Z</time></trkpt><trkpt lat="39.232450016759636" lon="9.289260358317565"><ele>19.0</ele><time>2026-04-08T18:31:50Z</time></trkpt><trkpt lat="39.232450677109995" lon="9.289092745460955"><ele>19.0</ele><time>2026-04-08T18:31:51Z</time></trkpt><trkpt lat="39.23246075229599" lon="9.288949700032775"><ele>19.0</ele><time>2026-04-08T18:31:52Z</time></trkpt><trkpt lat="39.232454156730185" lon="9.288824427587844"><ele>19.0</ele><time>2026-04-08T18:31:53Z</time></trkpt><trkpt lat="39.23244462199706" lon="9.288692232515883"><ele>19.0</ele><time>2026-04-08T18:31:54Z</time></trkpt><trkpt lat="39.232421567109554" lon="9.288541683163588"><ele>19.0</ele><time>2026-04-08T18:31:55Z</time></trkpt><trkpt lat="39.23238892628428" lon="9.288383270825555"><ele>18.8</ele><time>2026-04-08T18:31:56Z</time></trkpt><trkpt lat="39.232354645910604" lon="9.288241811220505"><ele>18.599999999999998</ele><time>2026-04-08T18:31:57Z</time></trkpt><trkpt lat="39.23231850032572" lon="9.288122838132947"><ele>18.4</ele><time>2026-04-08T18:31:58Z</time></trkpt><trkpt lat="39.232276036157955" lon="9.28801068414667"><ele>18.2</ele><time>2026-04-08T18:31:59Z</time></trkpt><trkpt lat="39.23222348062743" lon="9.287899694047182"><ele>18.0</ele><time>2026-04-08T18:32:00Z</time></trkpt><trkpt lat="39.23215676581637" lon="9.287779700929885"><ele>18.0</ele><time>2026-04-08T18:32:01Z</time></trkpt><trkpt lat="39.23209300556791" lon="9.287671881499596"><ele>18.0</ele><time>2026-04-08T18:32:02Z</time></trkpt><trkpt lat="39.232038912017074" lon="9.287573541604683"><ele>18.0</ele><time>2026-04-08T18:32:03Z</time></trkpt><trkpt lat="39.23198882831336" lon="9.287458953424721"><ele>18.0</ele><time>2026-04-08T18:32:04Z</time></trkpt><trkpt lat="39.231949074926185" lon="9.287330391963817"><ele>18.0</ele><time>2026-04-08T18:32:05Z</time></trkpt><trkpt lat="39.231937049720486" lon="9.287201295119596"><ele>17.5</ele><time>2026-04-08T18:32:06Z</time></trkpt><trkpt lat="39.231942403222064" lon="9.28704787655637"><ele>17.0</ele><time>2026-04-08T18:32:07Z</time></trkpt><trkpt lat="39.231965693205595" lon="9.286868519721835"><ele>16.5</ele><time>2026-04-08T18:32:08Z</time></trkpt><trkpt lat="39.23199072911057" lon="9.286675827687967"><ele>16.0</ele><time>2026-04-08T18:32:09Z</time></trkpt><trkpt lat="39.232005814937025" lon="9.286510696299667"><ele>15.5</ele><time>2026-04-08T18:32:10Z</time></trkpt><trkpt lat="39.23203511466936" lon="9.286364585968963"><ele>15.0</ele><time>2026-04-08T18:32:11Z</time></trkpt><trkpt lat="39.2320480380324" lon="9.286214076583041"><ele>14.5</ele><time>2026-04-08T18:32:12Z</time></trkpt><trkpt lat="39.23205376302216" lon="9.286068236510099"><ele>14.0</ele><time>2026-04-08T18:32:13Z</time></trkpt><trkpt lat="39.23204975345986" lon="9.285924774906432"><ele>14.0</ele><time>2026-04-08T18:32:14Z</time></trkpt><trkpt lat="39.232045621997145" lon="9.285772279193086"><ele>13.999999999999998</ele><time>2026-04-08T18:32:15Z</time></trkpt><trkpt lat="39.232047269917366" lon="9.285624531927825"><ele>13.999999999999998</ele><time>2026-04-08T18:32:16Z</time></trkpt><trkpt lat="39.23204976030526" lon="9.285485787178262"><ele>14.0</ele><time>2026-04-08T18:32:17Z</time></trkpt><trkpt lat="39.232051254728745" lon="9.285346904701468"><ele>14.0</ele><time>2026-04-08T18:32:18Z</time></trkpt><trkpt lat="39.23205910421748" lon="9.28519587032882"><ele>14.5</ele><time>2026-04-08T18:32:19Z</time></trkpt><trkpt lat="39.23209147348582" lon="9.285031242935595"><ele>15.0</ele><time>2026-04-08T18:32:20Z</time></trkpt><trkpt lat="39.232148540145666" lon="9.284867627970455"><ele>15.5</ele><time>2026-04-08T18:32:21Z</time></trkpt><trkpt lat="39.232214331802446" lon="9.284726295234808"><ele>16.0</ele><time>2026-04-08T18:32:22Z</time></trkpt><trkpt lat="39.232265749338424" lon="9.284598571249717"><ele>16.75</ele><time>2026-04-08T18:32:23Z</time></trkpt><trkpt lat="39.232288351513894" lon="9.28447665003717"><ele>17.5</ele><time>2026-04-08T18:32:24Z</time></trkpt><trkpt lat="39.23229172400928" lon="9.284345431144466"><ele>18.25</ele><time>2026-04-08T18:32:25Z</time></trkpt><trkpt lat="39.23225491053621" lon="9.284202841996139"><ele>19.0</ele><time>2026-04-08T18:32:26Z</time></trkpt><trkpt lat="39.23218042416089" lon="9.284032270684133"><ele>19.75</ele><time>2026-04-08T18:32:27Z</time></trkpt><trkpt lat="39.23209983831758" lon="9.283839855024308"><ele>20.5</ele><time>2026-04-08T18:32:28Z</time></trkpt><trkpt lat="39.23203312321602" lon="9.283690320658266"><ele>21.25</ele><time>2026-04-08T18:32:29Z</time></trkpt><trkpt lat="39.23198209605588" lon="9.283560238389372"><ele>22.0</ele><time>2026-04-08T18:32:30Z</time></trkpt><trkpt lat="39.23193374049292" lon="9.283438556321345"><ele>22.0</ele><time>2026-04-08T18:32:31Z</time></trkpt><trkpt lat="39.23188084712127" lon="9.283311957089653"><ele>22.0</ele><time>2026-04-08T18:32:32Z</time></trkpt><trkpt lat="39.23182263366763" lon="9.283171142494746"><ele>22.0</ele><time>2026-04-08T18:32:33Z</time></trkpt><trkpt lat="39.23176804992679" lon="9.283014037349126"><ele>22.0</ele><time>2026-04-08T18:32:34Z</time></trkpt><trkpt lat="39.2317033155921" lon="9.282858897174783"><ele>21.75</ele><time>2026-04-08T18:32:35Z</time></trkpt><trkpt lat="39.231644320102056" lon="9.28271073335058"><ele>21.5</ele><time>2026-04-08T18:32:36Z</time></trkpt><trkpt lat="39.23158702635139" lon="9.28256463458715"><ele>21.25</ele><time>2026-04-08T18:32:37Z</time></trkpt><trkpt lat="39.231532560334074" lon="9.282421769827742"><ele>21.0</ele><time>2026-04-08T18:32:38Z</time></trkpt><trkpt lat="39.23147539044919" lon="9.2822765743638"><ele>20.5</ele><time>2026-04-08T18:32:39Z</time></trkpt><trkpt lat="39.23141692676291" lon="9.282132266571976"><ele>20.0</ele><time>2026-04-08T18:32:40Z</time></trkpt><trkpt lat="39.2313578749932" lon="9.281991958827103"><ele>19.5</ele><time>2026-04-08T18:32:41Z</time></trkpt><trkpt lat="39.2313028787007" lon="9.281845837510158"><ele>19.0</ele><time>2026-04-08T18:32:42Z</time></trkpt><trkpt lat="39.231250208847236" lon="9.281700437571319"><ele>19.0</ele><time>2026-04-08T18:32:43Z</time></trkpt><trkpt lat="39.23119790514253" lon="9.281558992385735"><ele>19.0</ele><time>2026-04-08T18:32:44Z</time></trkpt><trkpt lat="39.2311435572497" lon="9.281420434573741"><ele>19.0</ele><time>2026-04-08T18:32:45Z</time></trkpt><trkpt lat="39.231094212658704" lon="9.281298492458214"><ele>19.0</ele><time>2026-04-08T18:32:46Z</time></trkpt><trkpt lat="39.23104748849345" lon="9.281191887882578"><ele>19.0</ele><time>2026-04-08T18:32:47Z</time></trkpt><trkpt lat="39.231005462435306" lon="9.281096826429772"><ele>19.166666666666664</ele><time>2026-04-08T18:32:48Z</time></trkpt><trkpt lat="39.230966240201376" lon="9.281007160182106"><ele>19.333333333333332</ele><time>2026-04-08T18:32:49Z</time></trkpt><trkpt lat="39.230937826819336" lon="9.280923518989969"><ele>19.5</ele><time>2026-04-08T18:32:50Z</time></trkpt><trkpt lat="39.23090602792166" lon="9.280851055668924"><ele>19.666666666666668</ele><time>2026-04-08T18:32:51Z</time></trkpt><trkpt lat="39.230872619583266" lon="9.280705293077755"><ele>19.833333333333336</ele><time>2026-04-08T18:32:53Z</time></trkpt><trkpt lat="39.23087788883005" lon="9.280620993013681"><ele>20.0</ele><time>2026-04-08T18:32:56Z</time></trkpt><trkpt lat="39.23089865103633" lon="9.280491484027587"><ele>20.166666666666668</ele><time>2026-04-08T18:33:02Z</time></trkpt><trkpt lat="39.23092860579873" lon="9.280389934249515"><ele>20.333333333333336</ele><time>2026-04-08T18:33:04Z</time></trkpt><trkpt lat="39.23085953996751" lon="9.280292693285292"><ele>20.5</ele><time>2026-04-08T18:33:05Z</time></trkpt><trkpt lat="39.23079811700887" lon="9.28026946073819"><ele>20.666666666666668</ele><time>2026-04-08T18:33:06Z</time></trkpt><trkpt lat="39.23076013799649" lon="9.280174979893664"><ele>20.833333333333332</ele><time>2026-04-08T18:33:07Z</time></trkpt><trkpt lat="39.23068830221547" lon="9.280108989892918"><ele>21.0</ele><time>2026-04-08T18:33:08Z</time></trkpt><trkpt lat="39.230650929138804" lon="9.279991670850958"><ele>20.5</ele><time>2026-04-08T18:33:09Z</time></trkpt><trkpt lat="39.230615511429576" lon="9.279846001363614"><ele>20.0</ele><time>2026-04-08T18:33:10Z</time></trkpt><trkpt lat="39.23058230962208" lon="9.279689454118849"><ele>19.5</ele><time>2026-04-08T18:33:11Z</time></trkpt><trkpt lat="39.23054643865841" lon="9.279532174656435"><ele>19.0</ele><time>2026-04-08T18:33:12Z</time></trkpt><trkpt lat="39.23050873419125" lon="9.279372378716253"><ele>19.0</ele><time>2026-04-08T18:33:13Z</time></trkpt><trkpt lat="39.230473874302504" lon="9.279221996447076"><ele>19.0</ele><time>2026-04-08T18:33:14Z</time></trkpt><trkpt lat="39.230443593586585" lon="9.279085283791328"><ele>19.0</ele><time>2026-04-08T18:33:15Z</time></trkpt><trkpt lat="39.23041635656925" lon="9.27895856314607"><ele>19.0</ele><time>2026-04-08T18:33:16Z</time></trkpt><trkpt lat="39.230385428808255" lon="9.278835393013054"><ele>19.0</ele><time>2026-04-08T18:33:17Z</time></trkpt><trkpt lat="39.23034846447952" lon="9.278699440231772"><ele>19.0</ele><time>2026-04-08T18:33:18Z</time></trkpt><trkpt lat="39.230305634193314" lon="9.278550998211482"><ele>19.0</ele><time>2026-04-08T18:33:19Z</time></trkpt><trkpt lat="39.230261009147576" lon="9.278398513215862"><ele>19.0</ele><time>2026-04-08T18:33:20Z</time></trkpt><trkpt lat="39.23021035624879" lon="9.278249793639882"><ele>19.0</ele><time>2026-04-08T18:33:21Z</time></trkpt><trkpt lat="39.2301623871733" lon="9.278116580344365"><ele>19.2</ele><time>2026-04-08T18:33:22Z</time></trkpt><trkpt lat="39.23011816943236" lon="9.277994742642639"><ele>19.4</ele><time>2026-04-08T18:33:23Z</time></trkpt><trkpt lat="39.230077030926864" lon="9.277880940832318"><ele>19.6</ele><time>2026-04-08T18:33:24Z</time></trkpt><trkpt lat="39.23003590520318" lon="9.277764960242527"><ele>19.8</ele><time>2026-04-08T18:33:25Z</time></trkpt><trkpt lat="39.229993665344956" lon="9.277651605207264"><ele>20.0</ele><time>2026-04-08T18:33:26Z</time></trkpt><trkpt lat="39.22994339546829" lon="9.277539098606015"><ele>20.0</ele><time>2026-04-08T18:33:27Z</time></trkpt><trkpt lat="39.229878286923" lon="9.277418898022422"><ele>20.0</ele><time>2026-04-08T18:33:28Z</time></trkpt><trkpt lat="39.229802845789244" lon="9.2772871550357"><ele>20.0</ele><time>2026-04-08T18:33:29Z</time></trkpt><trkpt lat="39.22972939197134" lon="9.277144908073867"><ele>20.0</ele><time>2026-04-08T18:33:30Z</time></trkpt><trkpt lat="39.22965670442372" lon="9.276996853759629"><ele>19.5</ele><time>2026-04-08T18:33:31Z</time></trkpt><trkpt lat="39.229588747841575" lon="9.276852866086708"><ele>19.0</ele><time>2026-04-08T18:33:32Z</time></trkpt><trkpt lat="39.22951696763982" lon="9.276703776315694"><ele>18.5</ele><time>2026-04-08T18:33:33Z</time></trkpt><trkpt lat="39.22943383778032" lon="9.276533556380782"><ele>18.0</ele><time>2026-04-08T18:33:34Z</time></trkpt><trkpt lat="39.2293599282318" lon="9.276387108178193"><ele>18.0</ele><time>2026-04-08T18:33:35Z</time></trkpt><trkpt lat="39.22928025362725" lon="9.276235073978581"><ele>18.0</ele><time>2026-04-08T18:33:36Z</time></trkpt><trkpt lat="39.22918722088319" lon="9.276061118654814"><ele>18.0</ele><time>2026-04-08T18:33:37Z</time></trkpt><trkpt lat="39.22910875242835" lon="9.275909590550622"><ele>18.0</ele><time>2026-04-08T18:33:38Z</time></trkpt><trkpt lat="39.229035425286504" lon="9.275766257200722"><ele>18.0</ele><time>2026-04-08T18:33:39Z</time></trkpt><trkpt lat="39.22896755350374" lon="9.275635201131099"><ele>18.0</ele><time>2026-04-08T18:33:40Z</time></trkpt><trkpt lat="39.228899472436325" lon="9.275509913634993"><ele>18.0</ele><time>2026-04-08T18:33:41Z</time></trkpt><trkpt lat="39.228832260659495" lon="9.275381535945456"><ele>18.0</ele><time>2026-04-08T18:33:42Z</time></trkpt><trkpt lat="39.228758353123865" lon="9.275244355836227"><ele>18.0</ele><time>2026-04-08T18:33:43Z</time></trkpt><trkpt lat="39.22868249483209" lon="9.275106052319643"><ele>18.0</ele><time>2026-04-08T18:33:44Z</time></trkpt><trkpt lat="39.22861097726613" lon="9.274977441883285"><ele>18.0</ele><time>2026-04-08T18:33:45Z</time></trkpt><trkpt lat="39.228544864253855" lon="9.27484961623744"><ele>18.0</ele><time>2026-04-08T18:33:46Z</time></trkpt><trkpt lat="39.22847593107536" lon="9.274695023359639"><ele>17.75</ele><time>2026-04-08T18:33:47Z</time></trkpt><trkpt lat="39.228419642626925" lon="9.274545831493986"><ele>17.5</ele><time>2026-04-08T18:33:48Z</time></trkpt><trkpt lat="39.228369082126534" lon="9.274397658812115"><ele>17.25</ele><time>2026-04-08T18:33:49Z</time></trkpt><trkpt lat="39.22831995397231" lon="9.274240929023799"><ele>17.0</ele><time>2026-04-08T18:33:50Z</time></trkpt><trkpt lat="39.22826963604831" lon="9.274074135483863"><ele>16.75</ele><time>2026-04-08T18:33:51Z</time></trkpt><trkpt lat="39.228223324083594" lon="9.273906676129537"><ele>16.5</ele><time>2026-04-08T18:33:52Z</time></trkpt><trkpt lat="39.22817993800705" lon="9.273737885603792"><ele>16.25</ele><time>2026-04-08T18:33:53Z</time></trkpt><trkpt lat="39.22814071948826" lon="9.273570997088303"><ele>16.0</ele><time>2026-04-08T18:33:54Z</time></trkpt><trkpt lat="39.22810129472462" lon="9.273404030031205"><ele>16.0</ele><time>2026-04-08T18:33:55Z</time></trkpt><trkpt lat="39.228063659719545" lon="9.273232047856919"><ele>16.0</ele><time>2026-04-08T18:33:56Z</time></trkpt><trkpt lat="39.228027554111726" lon="9.273050987998657"><ele>16.0</ele><time>2026-04-08T18:33:57Z</time></trkpt><trkpt lat="39.22799463399288" lon="9.27286512884166"><ele>16.0</ele><time>2026-04-08T18:33:58Z</time></trkpt><trkpt lat="39.22796744474936" lon="9.272676932842602"><ele>16.0</ele><time>2026-04-08T18:33:59Z</time></trkpt><trkpt lat="39.2279483461722" lon="9.27248484172785"><ele>16.0</ele><time>2026-04-08T18:34:00Z</time></trkpt><trkpt lat="39.22793128067974" lon="9.27229295217769"><ele>16.0</ele><time>2026-04-08T18:34:01Z</time></trkpt><trkpt lat="39.22791484391315" lon="9.272102678406611"><ele>16.0</ele><time>2026-04-08T18:34:02Z</time></trkpt><trkpt lat="39.22789654318409" lon="9.271909458638186"><ele>16.666666666666664</ele><time>2026-04-08T18:34:03Z</time></trkpt><trkpt lat="39.227878986525596" lon="9.271716225660258"><ele>17.333333333333332</ele><time>2026-04-08T18:34:04Z</time></trkpt><trkpt lat="39.2278632038807" lon="9.271523773551493"><ele>18.0</ele><time>2026-04-08T18:34:05Z</time></trkpt><trkpt lat="39.2278482147077" lon="9.271331057688531"><ele>18.5</ele><time>2026-04-08T18:34:06Z</time></trkpt><trkpt lat="39.22783350998061" lon="9.271139872860793"><ele>19.0</ele><time>2026-04-08T18:34:07Z</time></trkpt><trkpt lat="39.227816283986975" lon="9.270948443680826"><ele>19.5</ele><time>2026-04-08T18:34:08Z</time></trkpt><trkpt lat="39.22780008600368" lon="9.270757039385698"><ele>20.0</ele><time>2026-04-08T18:34:09Z</time></trkpt><trkpt lat="39.227784734961205" lon="9.270566606205914"><ele>20.25</ele><time>2026-04-08T18:34:10Z</time></trkpt><trkpt lat="39.22776891771921" lon="9.270378030186276"><ele>20.5</ele><time>2026-04-08T18:34:11Z</time></trkpt><trkpt lat="39.22775357034729" lon="9.270189886084637"><ele>20.75</ele><time>2026-04-08T18:34:12Z</time></trkpt><trkpt lat="39.22773977613211" lon="9.269993090513502"><ele>21.0</ele><time>2026-04-08T18:34:13Z</time></trkpt><trkpt lat="39.22772510289918" lon="9.269795707216026"><ele>21.333333333333332</ele><time>2026-04-08T18:34:14Z</time></trkpt><trkpt lat="39.22770908284107" lon="9.269597105916082"><ele>21.666666666666664</ele><time>2026-04-08T18:34:15Z</time></trkpt><trkpt lat="39.227692186174814" lon="9.269400263344297"><ele>22.0</ele><time>2026-04-08T18:34:16Z</time></trkpt><trkpt lat="39.22767673922032" lon="9.269209075422456"><ele>22.0</ele><time>2026-04-08T18:34:17Z</time></trkpt><trkpt lat="39.2276695026922" lon="9.26902178530068"><ele>22.0</ele><time>2026-04-08T18:34:18Z</time></trkpt><trkpt lat="39.22765940908704" lon="9.26883763971179"><ele>22.0</ele><time>2026-04-08T18:34:19Z</time></trkpt><trkpt lat="39.227649809011304" lon="9.26865292375873"><ele>22.0</ele><time>2026-04-08T18:34:20Z</time></trkpt><trkpt lat="39.227637934550245" lon="9.268459675061761"><ele>21.75</ele><time>2026-04-08T18:34:21Z</time></trkpt><trkpt lat="39.22762118114283" lon="9.26828509519591"><ele>21.5</ele><time>2026-04-08T18:34:22Z</time></trkpt><trkpt lat="39.227599257016955" lon="9.268103253965752"><ele>21.25</ele><time>2026-04-08T18:34:23Z</time></trkpt><trkpt lat="39.22758641164064" lon="9.26789242392866"><ele>21.0</ele><time>2026-04-08T18:34:24Z</time></trkpt><trkpt lat="39.22755187392499" lon="9.267676464448478"><ele>21.666666666666668</ele><time>2026-04-08T18:34:25Z</time></trkpt><trkpt lat="39.227512408773755" lon="9.267458667220264"><ele>22.333333333333336</ele><time>2026-04-08T18:34:26Z</time></trkpt><trkpt lat="39.227456299945835" lon="9.267260619736073"><ele>23.0</ele><time>2026-04-08T18:34:27Z</time></trkpt><trkpt lat="39.22740863075356" lon="9.267054298976737"><ele>23.0</ele><time>2026-04-08T18:34:28Z</time></trkpt><trkpt lat="39.22736648605934" lon="9.266862056986295"><ele>23.0</ele><time>2026-04-08T18:34:29Z</time></trkpt><trkpt lat="39.22732933160402" lon="9.266686763645145"><ele>23.0</ele><time>2026-04-08T18:34:30Z</time></trkpt><trkpt lat="39.22729367228014" lon="9.26651338871351"><ele>23.0</ele><time>2026-04-08T18:34:31Z</time></trkpt><trkpt lat="39.227256669827554" lon="9.266337117652357"><ele>23.25</ele><time>2026-04-08T18:34:32Z</time></trkpt><trkpt lat="39.227219594794526" lon="9.266159402241883"><ele>23.5</ele><time>2026-04-08T18:34:33Z</time></trkpt><trkpt lat="39.22718086726227" lon="9.265979949662247"><ele>23.75</ele><time>2026-04-08T18:34:34Z</time></trkpt><trkpt lat="39.2271403858293" lon="9.265795992337333"><ele>24.0</ele><time>2026-04-08T18:34:35Z</time></trkpt><trkpt lat="39.22710097401064" lon="9.265598639475268"><ele>24.5</ele><time>2026-04-08T18:34:36Z</time></trkpt><trkpt lat="39.22706450994223" lon="9.26540980504106"><ele>25.0</ele><time>2026-04-08T18:34:37Z</time></trkpt><trkpt lat="39.22702575101901" lon="9.265221872164727"><ele>25.5</ele><time>2026-04-08T18:34:38Z</time></trkpt><trkpt lat="39.226989143621715" lon="9.265051412646919"><ele>26.0</ele><time>2026-04-08T18:34:39Z</time></trkpt><trkpt lat="39.22695510053333" lon="9.264896207473747"><ele>26.25</ele><time>2026-04-08T18:34:40Z</time></trkpt><trkpt lat="39.22692345276499" lon="9.264741880262932"><ele>26.5</ele><time>2026-04-08T18:34:41Z</time></trkpt><trkpt lat="39.22688264921975" lon="9.264575018808797"><ele>26.75</ele><time>2026-04-08T18:34:42Z</time></trkpt><trkpt lat="39.22684154162317" lon="9.264401564077698"><ele>27.0</ele><time>2026-04-08T18:34:43Z</time></trkpt><trkpt lat="39.226798867541866" lon="9.264215435301153"><ele>27.0</ele><time>2026-04-08T18:34:44Z</time></trkpt><trkpt lat="39.22676001836418" lon="9.26403219502352"><ele>27.0</ele><time>2026-04-08T18:34:45Z</time></trkpt><trkpt lat="39.22672195157376" lon="9.26385485177132"><ele>27.0</ele><time>2026-04-08T18:34:46Z</time></trkpt><trkpt lat="39.22668463682448" lon="9.26367754225309"><ele>27.0</ele><time>2026-04-08T18:34:47Z</time></trkpt><trkpt lat="39.22664576728267" lon="9.263492234316878"><ele>26.333333333333336</ele><time>2026-04-08T18:34:48Z</time></trkpt><trkpt lat="39.22660741240652" lon="9.263305836522171"><ele>25.666666666666668</ele><time>2026-04-08T18:34:49Z</time></trkpt><trkpt lat="39.2265693355311" lon="9.263116430849735"><ele>25.0</ele><time>2026-04-08T18:34:50Z</time></trkpt><trkpt lat="39.226530659228544" lon="9.262924918604652"><ele>25.0</ele><time>2026-04-08T18:34:51Z</time></trkpt><trkpt lat="39.22649052391066" lon="9.262734803447335"><ele>25.0</ele><time>2026-04-08T18:34:52Z</time></trkpt><trkpt lat="39.226450133562935" lon="9.26254579216151"><ele>25.0</ele><time>2026-04-08T18:34:53Z</time></trkpt><trkpt lat="39.22640908809616" lon="9.262361734186012"><ele>25.0</ele><time>2026-04-08T18:34:54Z</time></trkpt><trkpt lat="39.22636999756409" lon="9.262185557246866"><ele>25.0</ele><time>2026-04-08T18:34:55Z</time></trkpt><trkpt lat="39.22633381653843" lon="9.26201649381308"><ele>25.0</ele><time>2026-04-08T18:34:56Z</time></trkpt><trkpt lat="39.2262970327909" lon="9.261849228573562"><ele>25.0</ele><time>2026-04-08T18:34:57Z</time></trkpt><trkpt lat="39.22626303552698" lon="9.261686121311715"><ele>25.0</ele><time>2026-04-08T18:34:58Z</time></trkpt><trkpt lat="39.22622885781122" lon="9.261528470492646"><ele>25.0</ele><time>2026-04-08T18:34:59Z</time></trkpt><trkpt lat="39.22619631312097" lon="9.261363590731891"><ele>25.0</ele><time>2026-04-08T18:35:00Z</time></trkpt><trkpt lat="39.22616501299107" lon="9.261194462436086"><ele>25.0</ele><time>2026-04-08T18:35:01Z</time></trkpt><trkpt lat="39.22613492030304" lon="9.261023305328978"><ele>25.0</ele><time>2026-04-08T18:35:02Z</time></trkpt><trkpt lat="39.22610667757398" lon="9.26085979631993"><ele>25.0</ele><time>2026-04-08T18:35:03Z</time></trkpt><trkpt lat="39.22608382415623" lon="9.260708985851425"><ele>25.0</ele><time>2026-04-08T18:35:04Z</time></trkpt><trkpt lat="39.22607266903104" lon="9.2605618503186"><ele>25.0</ele><time>2026-04-08T18:35:05Z</time></trkpt><trkpt lat="39.22606885404744" lon="9.260408704104728"><ele>25.0</ele><time>2026-04-08T18:35:06Z</time></trkpt><trkpt lat="39.22607458133499" lon="9.260245396940403"><ele>25.0</ele><time>2026-04-08T18:35:07Z</time></trkpt><trkpt lat="39.226089111137206" lon="9.260059632326117"><ele>25.0</ele><time>2026-04-08T18:35:08Z</time></trkpt><trkpt lat="39.22610427010397" lon="9.259880192028794"><ele>25.0</ele><time>2026-04-08T18:35:09Z</time></trkpt><trkpt lat="39.226127924926026" lon="9.259697694821389"><ele>25.0</ele><time>2026-04-08T18:35:10Z</time></trkpt><trkpt lat="39.22615445708828" lon="9.259515757161902"><ele>25.0</ele><time>2026-04-08T18:35:11Z</time></trkpt><trkpt lat="39.22618584943121" lon="9.259330675490574"><ele>25.0</ele><time>2026-04-08T18:35:12Z</time></trkpt><trkpt lat="39.226228442427065" lon="9.259144135932011"><ele>25.0</ele><time>2026-04-08T18:35:13Z</time></trkpt><trkpt lat="39.22627796473078" lon="9.258967880579611"><ele>25.0</ele><time>2026-04-08T18:35:14Z</time></trkpt><trkpt lat="39.22632457268808" lon="9.25880840837988"><ele>25.0</ele><time>2026-04-08T18:35:15Z</time></trkpt><trkpt lat="39.2263692556104" lon="9.258660790620361"><ele>25.0</ele><time>2026-04-08T18:35:16Z</time></trkpt><trkpt lat="39.22640801678732" lon="9.258528755728086"><ele>25.0</ele><time>2026-04-08T18:35:17Z</time></trkpt><trkpt lat="39.22644187415543" lon="9.258401786414733"><ele>25.0</ele><time>2026-04-08T18:35:18Z</time></trkpt><trkpt lat="39.22647449133144" lon="9.258276375283462"><ele>25.0</ele><time>2026-04-08T18:35:19Z</time></trkpt><trkpt lat="39.22650496121691" lon="9.258144397190424"><ele>25.0</ele><time>2026-04-08T18:35:20Z</time></trkpt><trkpt lat="39.22653725372702" lon="9.258009949244304"><ele>25.0</ele><time>2026-04-08T18:35:21Z</time></trkpt><trkpt lat="39.22656470381703" lon="9.257886814483143"><ele>25.0</ele><time>2026-04-08T18:35:22Z</time></trkpt><trkpt lat="39.22659081527256" lon="9.257773528841389"><ele>25.5</ele><time>2026-04-08T18:35:23Z</time></trkpt><trkpt lat="39.22662118870699" lon="9.257651626037688"><ele>26.0</ele><time>2026-04-08T18:35:24Z</time></trkpt><trkpt lat="39.22665814508169" lon="9.257503219450287"><ele>26.5</ele><time>2026-04-08T18:35:25Z</time></trkpt><trkpt lat="39.22669543735262" lon="9.257352860493771"><ele>27.0</ele><time>2026-04-08T18:35:26Z</time></trkpt><trkpt lat="39.22673129473896" lon="9.257211628312497"><ele>27.0</ele><time>2026-04-08T18:35:27Z</time></trkpt><trkpt lat="39.22676591220741" lon="9.257074479697973"><ele>27.0</ele><time>2026-04-08T18:35:28Z</time></trkpt><trkpt lat="39.22680343265211" lon="9.256917584551374"><ele>27.0</ele><time>2026-04-08T18:35:29Z</time></trkpt><trkpt lat="39.22684690510501" lon="9.25673938984684"><ele>27.0</ele><time>2026-04-08T18:35:30Z</time></trkpt><trkpt lat="39.226894146305746" lon="9.256557605629293"><ele>27.333333333333336</ele><time>2026-04-08T18:35:31Z</time></trkpt><trkpt lat="39.22694178687099" lon="9.256371791988888"><ele>27.666666666666668</ele><time>2026-04-08T18:35:32Z</time></trkpt><trkpt lat="39.2269893622526" lon="9.256181768779573"><ele>28.0</ele><time>2026-04-08T18:35:33Z</time></trkpt><trkpt lat="39.22703294962593" lon="9.25599037424469"><ele>28.0</ele><time>2026-04-08T18:35:34Z</time></trkpt><trkpt lat="39.22708150851904" lon="9.255797145701042"><ele>28.0</ele><time>2026-04-08T18:35:35Z</time></trkpt><trkpt lat="39.2271315430565" lon="9.255609703643913"><ele>28.0</ele><time>2026-04-08T18:35:36Z</time></trkpt><trkpt lat="39.22717979475072" lon="9.255403503675538"><ele>28.0</ele><time>2026-04-08T18:35:37Z</time></trkpt><trkpt lat="39.22722797499536" lon="9.255195525553482"><ele>28.0</ele><time>2026-04-08T18:35:38Z</time></trkpt><trkpt lat="39.22727414152901" lon="9.254989305664239"><ele>28.0</ele><time>2026-04-08T18:35:39Z</time></trkpt><trkpt lat="39.22731405396552" lon="9.25478899510123"><ele>28.666666666666668</ele><time>2026-04-08T18:35:40Z</time></trkpt><trkpt lat="39.227360013785294" lon="9.25458920107894"><ele>29.333333333333336</ele><time>2026-04-08T18:35:41Z</time></trkpt><trkpt lat="39.22738114067301" lon="9.254385658097712"><ele>30.0</ele><time>2026-04-08T18:35:42Z</time></trkpt><trkpt lat="39.227387663616206" lon="9.254181240913402"><ele>30.0</ele><time>2026-04-08T18:35:43Z</time></trkpt><trkpt lat="39.22738395847921" lon="9.253980890249247"><ele>30.0</ele><time>2026-04-08T18:35:44Z</time></trkpt><trkpt lat="39.22737167875548" lon="9.253769415640093"><ele>30.0</ele><time>2026-04-08T18:35:45Z</time></trkpt><trkpt lat="39.22734455295713" lon="9.253551456738284"><ele>29.0</ele><time>2026-04-08T18:35:46Z</time></trkpt><trkpt lat="39.22728178552803" lon="9.253344840051632"><ele>28.0</ele><time>2026-04-08T18:35:47Z</time></trkpt><trkpt lat="39.22722764397548" lon="9.253138051004171"><ele>27.0</ele><time>2026-04-08T18:35:48Z</time></trkpt><trkpt lat="39.22716636716027" lon="9.252931908832059"><ele>26.666666666666664</ele><time>2026-04-08T18:35:49Z</time></trkpt><trkpt lat="39.227105290793276" lon="9.252731304602886"><ele>26.333333333333332</ele><time>2026-04-08T18:35:50Z</time></trkpt><trkpt lat="39.227048949286306" lon="9.252540898648189"><ele>26.0</ele><time>2026-04-08T18:35:51Z</time></trkpt><trkpt lat="39.22699579442514" lon="9.252363187730394"><ele>26.5</ele><time>2026-04-08T18:35:52Z</time></trkpt><trkpt lat="39.226948521422884" lon="9.252192937509369"><ele>27.0</ele><time>2026-04-08T18:35:53Z</time></trkpt><trkpt lat="39.22690203993765" lon="9.25201549064884"><ele>27.5</ele><time>2026-04-08T18:35:54Z</time></trkpt><trkpt lat="39.226851678167804" lon="9.251829545708146"><ele>28.0</ele><time>2026-04-08T18:35:55Z</time></trkpt><trkpt lat="39.226801755140926" lon="9.251633785270846"><ele>27.666666666666668</ele><time>2026-04-08T18:35:56Z</time></trkpt><trkpt lat="39.226752686734606" lon="9.251422037755455"><ele>27.333333333333336</ele><time>2026-04-08T18:35:57Z</time></trkpt><trkpt lat="39.22671648202211" lon="9.251220396678725"><ele>27.0</ele><time>2026-04-08T18:35:58Z</time></trkpt><trkpt lat="39.2266923273489" lon="9.251027787598428"><ele>27.0</ele><time>2026-04-08T18:35:59Z</time></trkpt><trkpt lat="39.22667547668794" lon="9.250841940186286"><ele>27.0</ele><time>2026-04-08T18:36:00Z</time></trkpt><trkpt lat="39.22666431928201" lon="9.250665393159098"><ele>27.0</ele><time>2026-04-08T18:36:01Z</time></trkpt><trkpt lat="39.226667172069256" lon="9.250511214500996"><ele>27.0</ele><time>2026-04-08T18:36:02Z</time></trkpt><trkpt lat="39.22667330023585" lon="9.250368594987554"><ele>27.0</ele><time>2026-04-08T18:36:03Z</time></trkpt><trkpt lat="39.22667520138283" lon="9.25023610455431"><ele>27.000000000000004</ele><time>2026-04-08T18:36:04Z</time></trkpt><trkpt lat="39.226670967747665" lon="9.250104873594918"><ele>27.000000000000004</ele><time>2026-04-08T18:36:05Z</time></trkpt><trkpt lat="39.22666484303465" lon="9.24996122262225"><ele>27.0</ele><time>2026-04-08T18:36:06Z</time></trkpt><trkpt lat="39.226651410895094" lon="9.249807581624376"><ele>27.0</ele><time>2026-04-08T18:36:07Z</time></trkpt><trkpt lat="39.22663114786327" lon="9.24965722906188"><ele>27.25</ele><time>2026-04-08T18:36:08Z</time></trkpt><trkpt lat="39.22659614078569" lon="9.249517069149794"><ele>27.5</ele><time>2026-04-08T18:36:09Z</time></trkpt><trkpt lat="39.226551879440514" lon="9.249364999808058"><ele>27.75</ele><time>2026-04-08T18:36:10Z</time></trkpt><trkpt lat="39.226496961751025" lon="9.24921006256222"><ele>28.0</ele><time>2026-04-08T18:36:11Z</time></trkpt><trkpt lat="39.22643456636415" lon="9.249055431378729"><ele>26.75</ele><time>2026-04-08T18:36:12Z</time></trkpt><trkpt lat="39.22636834013292" lon="9.248907829691202"><ele>25.5</ele><time>2026-04-08T18:36:13Z</time></trkpt><trkpt lat="39.2263074863599" lon="9.248774152036928"><ele>24.25</ele><time>2026-04-08T18:36:14Z</time></trkpt><trkpt lat="39.22625331229798" lon="9.248652352427964"><ele>23.0</ele><time>2026-04-08T18:36:15Z</time></trkpt><trkpt lat="39.22620069440087" lon="9.248544916477085"><ele>23.0</ele><time>2026-04-08T18:36:16Z</time></trkpt><trkpt lat="39.22614015471219" lon="9.248435484364157"><ele>23.0</ele><time>2026-04-08T18:36:17Z</time></trkpt><trkpt lat="39.22606152378884" lon="9.248320632326292"><ele>23.0</ele><time>2026-04-08T18:36:18Z</time></trkpt><trkpt lat="39.22597594006719" lon="9.248207892980735"><ele>23.0</ele><time>2026-04-08T18:36:19Z</time></trkpt><trkpt lat="39.22588983832655" lon="9.248094360162648"><ele>22.25</ele><time>2026-04-08T18:36:20Z</time></trkpt><trkpt lat="39.225805535539585" lon="9.247970680126445"><ele>21.5</ele><time>2026-04-08T18:36:21Z</time></trkpt><trkpt lat="39.22572955376329" lon="9.247850659368533"><ele>20.75</ele><time>2026-04-08T18:36:22Z</time></trkpt><trkpt lat="39.225659550106826" lon="9.247738310814409"><ele>20.0</ele><time>2026-04-08T18:36:23Z</time></trkpt><trkpt lat="39.22559412903957" lon="9.247632793280953"><ele>19.8</ele><time>2026-04-08T18:36:24Z</time></trkpt><trkpt lat="39.22553106160284" lon="9.247532136015245"><ele>19.6</ele><time>2026-04-08T18:36:25Z</time></trkpt><trkpt lat="39.22547085245806" lon="9.247434984923192"><ele>19.4</ele><time>2026-04-08T18:36:26Z</time></trkpt><trkpt lat="39.22541329035136" lon="9.247337643750551"><ele>19.2</ele><time>2026-04-08T18:36:27Z</time></trkpt><trkpt lat="39.225367347084415" lon="9.247261555273212"><ele>19.0</ele><time>2026-04-08T18:36:28Z</time></trkpt><trkpt lat="39.22529056716127" lon="9.247146182177293"><ele>18.0</ele><time>2026-04-08T18:36:30Z</time></trkpt><trkpt lat="39.225225342931694" lon="9.247055051116396"><ele>17.0</ele><time>2026-04-08T18:36:32Z</time></trkpt><trkpt lat="39.22515696719313" lon="9.246973445209102"><ele>15.999999999999998</ele><time>2026-04-08T18:36:34Z</time></trkpt><trkpt lat="39.22506424291745" lon="9.24687099053799"><ele>15.0</ele><time>2026-04-08T18:36:36Z</time></trkpt><trkpt lat="39.22500790773662" lon="9.246811524613651"><ele>14.0</ele><time>2026-04-08T18:36:37Z</time></trkpt><trkpt lat="39.224942576331024" lon="9.246747289755584"><ele>14.000000000000002</ele><time>2026-04-08T18:36:38Z</time></trkpt><trkpt lat="39.22488224512328" lon="9.246684936035301"><ele>14.0</ele><time>2026-04-08T18:36:39Z</time></trkpt><trkpt lat="39.22483215038454" lon="9.24662047657946"><ele>14.0</ele><time>2026-04-08T18:36:40Z</time></trkpt><trkpt lat="39.224796159825516" lon="9.246545866857094"><ele>14.0</ele><time>2026-04-08T18:36:41Z</time></trkpt><trkpt lat="39.22478581048426" lon="9.24639473651207"><ele>14.000000000000002</ele><time>2026-04-08T18:36:43Z</time></trkpt><trkpt lat="39.224826461854974" lon="9.246283482675397"><ele>14.0</ele><time>2026-04-08T18:36:44Z</time></trkpt><trkpt lat="39.224910265516186" lon="9.246114998862094"><ele>12.5</ele><time>2026-04-08T18:36:45Z</time></trkpt><trkpt lat="39.224988484374144" lon="9.245959652479266"><ele>11.0</ele><time>2026-04-08T18:36:46Z</time></trkpt><trkpt lat="39.22506446733469" lon="9.245801195680711"><ele>9.5</ele><time>2026-04-08T18:36:47Z</time></trkpt><trkpt lat="39.22513616520552" lon="9.24564767110754"><ele>8.0</ele><time>2026-04-08T18:36:48Z</time></trkpt><trkpt lat="39.22520918637684" lon="9.245495006849445"><ele>7.25</ele><time>2026-04-08T18:36:49Z</time></trkpt><trkpt lat="39.225282291040884" lon="9.245342482804286"><ele>6.5</ele><time>2026-04-08T18:36:50Z</time></trkpt><trkpt lat="39.225353972672615" lon="9.245193716143717"><ele>5.75</ele><time>2026-04-08T18:36:51Z</time></trkpt><trkpt lat="39.225422465898795" lon="9.245057676518654"><ele>5.0</ele><time>2026-04-08T18:36:52Z</time></trkpt><trkpt lat="39.22548487388508" lon="9.244925111009701"><ele>5.0</ele><time>2026-04-08T18:36:53Z</time></trkpt><trkpt lat="39.225551753064025" lon="9.244791056979706"><ele>5.0</ele><time>2026-04-08T18:36:54Z</time></trkpt><trkpt lat="39.22562253910143" lon="9.244647181387927"><ele>5.0</ele><time>2026-04-08T18:36:55Z</time></trkpt><trkpt lat="39.22569154540752" lon="9.244496895642989"><ele>5.0</ele><time>2026-04-08T18:36:56Z</time></trkpt><trkpt lat="39.2257614897411" lon="9.24434707983087"><ele>5.25</ele><time>2026-04-08T18:36:57Z</time></trkpt><trkpt lat="39.225820952444764" lon="9.244202428820266"><ele>5.5</ele><time>2026-04-08T18:36:58Z</time></trkpt><trkpt lat="39.225873681885645" lon="9.24405342839923"><ele>5.75</ele><time>2026-04-08T18:36:59Z</time></trkpt><trkpt lat="39.22592120365518" lon="9.243890631151285"><ele>6.0</ele><time>2026-04-08T18:37:00Z</time></trkpt><trkpt lat="39.22596257888404" lon="9.24372045838133"><ele>6.0</ele><time>2026-04-08T18:37:01Z</time></trkpt><trkpt lat="39.22599750486323" lon="9.243546759069694"><ele>6.0</ele><time>2026-04-08T18:37:02Z</time></trkpt><trkpt lat="39.2260242999477" lon="9.243373181867778"><ele>6.0</ele><time>2026-04-08T18:37:03Z</time></trkpt><trkpt lat="39.22604644266747" lon="9.243195648804505"><ele>6.0</ele><time>2026-04-08T18:37:04Z</time></trkpt><trkpt lat="39.22606781926254" lon="9.243012471885333"><ele>6.75</ele><time>2026-04-08T18:37:05Z</time></trkpt><trkpt lat="39.22609145912684" lon="9.242823853048755"><ele>7.5</ele><time>2026-04-08T18:37:06Z</time></trkpt><trkpt lat="39.22611480359915" lon="9.242644071967268"><ele>8.25</ele><time>2026-04-08T18:37:07Z</time></trkpt><trkpt lat="39.22613301499648" lon="9.242476996586639"><ele>9.0</ele><time>2026-04-08T18:37:08Z</time></trkpt><trkpt lat="39.22615062059561" lon="9.242319873562137"><ele>8.75</ele><time>2026-04-08T18:37:09Z</time></trkpt><trkpt lat="39.2261737039348" lon="9.242165187785538"><ele>8.5</ele><time>2026-04-08T18:37:10Z</time></trkpt><trkpt lat="39.226197782726814" lon="9.241996185978337"><ele>8.25</ele><time>2026-04-08T18:37:11Z</time></trkpt><trkpt lat="39.226223269543375" lon="9.241817398413405"><ele>8.0</ele><time>2026-04-08T18:37:12Z</time></trkpt><trkpt lat="39.22624824222812" lon="9.241631995155776"><ele>7.75</ele><time>2026-04-08T18:37:13Z</time></trkpt><trkpt lat="39.22627486743806" lon="9.241442950046464"><ele>7.5</ele><time>2026-04-08T18:37:14Z</time></trkpt><trkpt lat="39.226296751800085" lon="9.241260805108515"><ele>7.25</ele><time>2026-04-08T18:37:15Z</time></trkpt><trkpt lat="39.22632024242323" lon="9.241084643451085"><ele>7.0</ele><time>2026-04-08T18:37:16Z</time></trkpt><trkpt lat="39.226343425739366" lon="9.240903675823754"><ele>7.0</ele><time>2026-04-08T18:37:17Z</time></trkpt><trkpt lat="39.22637274244807" lon="9.240725071991161"><ele>7.0</ele><time>2026-04-08T18:37:18Z</time></trkpt><trkpt lat="39.22639731447867" lon="9.240534776105712"><ele>7.0</ele><time>2026-04-08T18:37:19Z</time></trkpt><trkpt lat="39.22642504039982" lon="9.240351968521432"><ele>7.0</ele><time>2026-04-08T18:37:20Z</time></trkpt><trkpt lat="39.22644898493654" lon="9.240166948436302"><ele>7.25</ele><time>2026-04-08T18:37:21Z</time></trkpt><trkpt lat="39.226473035797795" lon="9.239985121411578"><ele>7.5</ele><time>2026-04-08T18:37:22Z</time></trkpt><trkpt lat="39.2264979830523" lon="9.239806233405043"><ele>7.75</ele><time>2026-04-08T18:37:23Z</time></trkpt><trkpt lat="39.226521693180224" lon="9.239626199666525"><ele>8.0</ele><time>2026-04-08T18:37:24Z</time></trkpt><trkpt lat="39.226544041852016" lon="9.239447385807939"><ele>8.0</ele><time>2026-04-08T18:37:25Z</time></trkpt><trkpt lat="39.22656782755119" lon="9.23927092823522"><ele>8.0</ele><time>2026-04-08T18:37:26Z</time></trkpt><trkpt lat="39.22659244182321" lon="9.23909264965339"><ele>8.0</ele><time>2026-04-08T18:37:27Z</time></trkpt><trkpt lat="39.226617004833486" lon="9.238915181002874"><ele>8.0</ele><time>2026-04-08T18:37:28Z</time></trkpt><trkpt lat="39.22664172189544" lon="9.238742299331953"><ele>8.25</ele><time>2026-04-08T18:37:29Z</time></trkpt><trkpt lat="39.22666705557774" lon="9.238573448861677"><ele>8.5</ele><time>2026-04-08T18:37:30Z</time></trkpt><trkpt lat="39.22669032449761" lon="9.238417246264813"><ele>8.75</ele><time>2026-04-08T18:37:31Z</time></trkpt><trkpt lat="39.226714533068346" lon="9.238274262893649"><ele>9.0</ele><time>2026-04-08T18:37:32Z</time></trkpt><trkpt lat="39.22673885871508" lon="9.238137625027935"><ele>8.666666666666666</ele><time>2026-04-08T18:37:33Z</time></trkpt><trkpt lat="39.22676754070585" lon="9.238024827094076"><ele>8.333333333333334</ele><time>2026-04-08T18:37:34Z</time></trkpt><trkpt lat="39.22680821103874" lon="9.23793843825883"><ele>8.0</ele><time>2026-04-08T18:37:35Z</time></trkpt><trkpt lat="39.226883170334446" lon="9.237887171695492"><ele>7.666666666666667</ele><time>2026-04-08T18:37:36Z</time></trkpt><trkpt lat="39.22692079532793" lon="9.237801618436785"><ele>7.333333333333334</ele><time>2026-04-08T18:37:37Z</time></trkpt><trkpt lat="39.22696687720001" lon="9.237661266406963"><ele>7.0</ele><time>2026-04-08T18:37:39Z</time></trkpt><trkpt lat="39.226943936329285" lon="9.237536587738619"><ele>7.0</ele><time>2026-04-08T18:37:40Z</time></trkpt><trkpt lat="39.2268403616947" lon="9.237379131798246"><ele>7.0</ele><time>2026-04-08T18:37:41Z</time></trkpt><trkpt lat="39.22684445506483" lon="9.237192571876164"><ele>7.0</ele><time>2026-04-08T18:37:42Z</time></trkpt><trkpt lat="39.226843263107256" lon="9.23698664479245"><ele>7.0</ele><time>2026-04-08T18:37:43Z</time></trkpt><trkpt lat="39.226859761420535" lon="9.236788339732666"><ele>7.0</ele><time>2026-04-08T18:37:44Z</time></trkpt><trkpt lat="39.22686017943148" lon="9.236618890463157"><ele>7.0</ele><time>2026-04-08T18:37:45Z</time></trkpt><trkpt lat="39.22685444195272" lon="9.236446662352686"><ele>7.0</ele><time>2026-04-08T18:37:46Z</time></trkpt><trkpt lat="39.22684746678117" lon="9.236264695573784"><ele>6.5</ele><time>2026-04-08T18:37:47Z</time></trkpt><trkpt lat="39.22683720826014" lon="9.236090776319548"><ele>6.0</ele><time>2026-04-08T18:37:48Z</time></trkpt><trkpt lat="39.2268328203716" lon="9.235923015262326"><ele>5.5</ele><time>2026-04-08T18:37:49Z</time></trkpt><trkpt lat="39.22683210724019" lon="9.235761911890915"><ele>5.0</ele><time>2026-04-08T18:37:50Z</time></trkpt><trkpt lat="39.2268374393655" lon="9.235597330466728"><ele>4.75</ele><time>2026-04-08T18:37:51Z</time></trkpt><trkpt lat="39.22684527311332" lon="9.235421854292314"><ele>4.5</ele><time>2026-04-08T18:37:52Z</time></trkpt><trkpt lat="39.226861813271874" lon="9.235246771019836"><ele>4.25</ele><time>2026-04-08T18:37:53Z</time></trkpt><trkpt lat="39.22688339070527" lon="9.235077561508348"><ele>4.0</ele><time>2026-04-08T18:37:54Z</time></trkpt><trkpt lat="39.22690302313962" lon="9.234908905247387"><ele>4.0</ele><time>2026-04-08T18:37:55Z</time></trkpt><trkpt lat="39.2269226223744" lon="9.234742154806625"><ele>4.0</ele><time>2026-04-08T18:37:56Z</time></trkpt><trkpt lat="39.22694287347478" lon="9.23457360219482"><ele>4.0</ele><time>2026-04-08T18:37:57Z</time></trkpt><trkpt lat="39.226957722616696" lon="9.234406320581426"><ele>4.0</ele><time>2026-04-08T18:37:58Z</time></trkpt><trkpt lat="39.22697152988146" lon="9.234245043417703"><ele>4.0</ele><time>2026-04-08T18:37:59Z</time></trkpt><trkpt lat="39.22698658940932" lon="9.234093799504857"><ele>4.0</ele><time>2026-04-08T18:38:00Z</time></trkpt><trkpt lat="39.22700657500527" lon="9.233944461937286"><ele>4.0</ele><time>2026-04-08T18:38:01Z</time></trkpt><trkpt lat="39.227028672518685" lon="9.23380867001224"><ele>4.0</ele><time>2026-04-08T18:38:02Z</time></trkpt><trkpt lat="39.22705369195378" lon="9.233686831605386"><ele>4.0</ele><time>2026-04-08T18:38:03Z</time></trkpt><trkpt lat="39.22708891471799" lon="9.233542860193792"><ele>4.0</ele><time>2026-04-08T18:38:04Z</time></trkpt><trkpt lat="39.22713617006071" lon="9.23339730167565"><ele>4.0</ele><time>2026-04-08T18:38:05Z</time></trkpt><trkpt lat="39.22719703220619" lon="9.233241351597954"><ele>4.0</ele><time>2026-04-08T18:38:06Z</time></trkpt><trkpt lat="39.227263910403394" lon="9.233078403028296"><ele>4.0</ele><time>2026-04-08T18:38:07Z</time></trkpt><trkpt lat="39.22732952656057" lon="9.232908998802355"><ele>4.0</ele><time>2026-04-08T18:38:08Z</time></trkpt><trkpt lat="39.2273909716136" lon="9.232740437932133"><ele>4.0</ele><time>2026-04-08T18:38:09Z</time></trkpt><trkpt lat="39.22744951269504" lon="9.232563323191389"><ele>4.0</ele><time>2026-04-08T18:38:10Z</time></trkpt><trkpt lat="39.22750270126184" lon="9.232379602731692"><ele>4.0</ele><time>2026-04-08T18:38:11Z</time></trkpt><trkpt lat="39.22756056686089" lon="9.232183154430876"><ele>4.0</ele><time>2026-04-08T18:38:12Z</time></trkpt><trkpt lat="39.22762253736265" lon="9.231981657969461"><ele>4.0</ele><time>2026-04-08T18:38:13Z</time></trkpt><trkpt lat="39.227684824921404" lon="9.231782271061979"><ele>4.0</ele><time>2026-04-08T18:38:14Z</time></trkpt><trkpt lat="39.227746606186564" lon="9.231578471645895"><ele>3.6666666666666665</ele><time>2026-04-08T18:38:15Z</time></trkpt><trkpt lat="39.227807325823235" lon="9.231371699568177"><ele>3.333333333333333</ele><time>2026-04-08T18:38:16Z</time></trkpt><trkpt lat="39.22786654012859" lon="9.231165097145269"><ele>3.0</ele><time>2026-04-08T18:38:17Z</time></trkpt><trkpt lat="39.2279280061301" lon="9.230966786109068"><ele>3.0</ele><time>2026-04-08T18:38:18Z</time></trkpt><trkpt lat="39.22798470814234" lon="9.230788261648597"><ele>3.0</ele><time>2026-04-08T18:38:19Z</time></trkpt><trkpt lat="39.228034214014706" lon="9.23061053846242"><ele>3.0</ele><time>2026-04-08T18:38:20Z</time></trkpt><trkpt lat="39.228086017681505" lon="9.2304320979248"><ele>3.0</ele><time>2026-04-08T18:38:21Z</time></trkpt><trkpt lat="39.22813384344689" lon="9.230252662811985"><ele>4.0</ele><time>2026-04-08T18:38:22Z</time></trkpt><trkpt lat="39.22818629523736" lon="9.230069585518928"><ele>5.0</ele><time>2026-04-08T18:38:23Z</time></trkpt><trkpt lat="39.22824177340836" lon="9.229883733679726"><ele>6.0</ele><time>2026-04-08T18:38:24Z</time></trkpt><trkpt lat="39.228291352611144" lon="9.229688105593919"><ele>6.75</ele><time>2026-04-08T18:38:25Z</time></trkpt><trkpt lat="39.228335422352686" lon="9.229503054613788"><ele>7.5</ele><time>2026-04-08T18:38:26Z</time></trkpt><trkpt lat="39.22836458729372" lon="9.229325637514947"><ele>8.25</ele><time>2026-04-08T18:38:27Z</time></trkpt><trkpt lat="39.228386578347106" lon="9.22916652173345"><ele>9.0</ele><time>2026-04-08T18:38:28Z</time></trkpt><trkpt lat="39.22840714031652" lon="9.229009423321095"><ele>9.25</ele><time>2026-04-08T18:38:29Z</time></trkpt><trkpt lat="39.228428831704406" lon="9.22884240367187"><ele>9.5</ele><time>2026-04-08T18:38:30Z</time></trkpt><trkpt lat="39.22845083200021" lon="9.228681210820756"><ele>9.75</ele><time>2026-04-08T18:38:31Z</time></trkpt><trkpt lat="39.22847065706281" lon="9.228536362226608"><ele>10.0</ele><time>2026-04-08T18:38:32Z</time></trkpt><trkpt lat="39.22848756126538" lon="9.228404452866501"><ele>10.0</ele><time>2026-04-08T18:38:33Z</time></trkpt><trkpt lat="39.22850541206134" lon="9.228279026083266"><ele>10.0</ele><time>2026-04-08T18:38:34Z</time></trkpt><trkpt lat="39.22852269902476" lon="9.228127917540482"><ele>10.0</ele><time>2026-04-08T18:38:35Z</time></trkpt><trkpt lat="39.22854548051645" lon="9.22796016557416"><ele>10.0</ele><time>2026-04-08T18:38:36Z</time></trkpt><trkpt lat="39.22856970778838" lon="9.227794959385689"><ele>8.75</ele><time>2026-04-08T18:38:37Z</time></trkpt><trkpt lat="39.22859762611559" lon="9.22763384993177"><ele>7.5</ele><time>2026-04-08T18:38:38Z</time></trkpt><trkpt lat="39.22863013785098" lon="9.227480136206024"><ele>6.25</ele><time>2026-04-08T18:38:39Z</time></trkpt><trkpt lat="39.22866334574681" lon="9.22732336296627"><ele>5.0</ele><time>2026-04-08T18:38:40Z</time></trkpt><trkpt lat="39.22870507575756" lon="9.227165192677111"><ele>4.5</ele><time>2026-04-08T18:38:41Z</time></trkpt><trkpt lat="39.22875068697803" lon="9.227020536460936"><ele>4.0</ele><time>2026-04-08T18:38:42Z</time></trkpt><trkpt lat="39.228793949636575" lon="9.226885905263664"><ele>3.5</ele><time>2026-04-08T18:38:43Z</time></trkpt><trkpt lat="39.2288351073867" lon="9.226753452952003"><ele>3.0</ele><time>2026-04-08T18:38:44Z</time></trkpt><trkpt lat="39.22887830208571" lon="9.226611458224987"><ele>3.0</ele><time>2026-04-08T18:38:45Z</time></trkpt><trkpt lat="39.228922500293244" lon="9.226480484875177"><ele>3.0</ele><time>2026-04-08T18:38:46Z</time></trkpt><trkpt lat="39.22896597517843" lon="9.226366136628647"><ele>3.0</ele><time>2026-04-08T18:38:47Z</time></trkpt><trkpt lat="39.229007142389406" lon="9.226232837883586"><ele>3.0</ele><time>2026-04-08T18:38:48Z</time></trkpt><trkpt lat="39.22904956360688" lon="9.226090275194597"><ele>3.0</ele><time>2026-04-08T18:38:49Z</time></trkpt><trkpt lat="39.22909525237481" lon="9.225945677338581"><ele>3.4</ele><time>2026-04-08T18:38:50Z</time></trkpt><trkpt lat="39.229138146681606" lon="9.22581015432107"><ele>3.8</ele><time>2026-04-08T18:38:51Z</time></trkpt><trkpt lat="39.22918038793471" lon="9.225684116353202"><ele>4.2</ele><time>2026-04-08T18:38:52Z</time></trkpt><trkpt lat="39.2292170132395" lon="9.225567529869242"><ele>4.6</ele><time>2026-04-08T18:38:53Z</time></trkpt><trkpt lat="39.22925392051161" lon="9.225449486575833"><ele>5.0</ele><time>2026-04-08T18:38:54Z</time></trkpt><trkpt lat="39.2292953478232" lon="9.225319662184651"><ele>5.0</ele><time>2026-04-08T18:38:55Z</time></trkpt><trkpt lat="39.22933825523421" lon="9.225186431883609"><ele>5.0</ele><time>2026-04-08T18:38:56Z</time></trkpt><trkpt lat="39.229380331767175" lon="9.225055516513173"><ele>5.0</ele><time>2026-04-08T18:38:57Z</time></trkpt><trkpt lat="39.229420720158615" lon="9.224924539054832"><ele>5.0</ele><time>2026-04-08T18:38:58Z</time></trkpt><trkpt lat="39.229465095602364" lon="9.22479705409703"><ele>5.0</ele><time>2026-04-08T18:38:59Z</time></trkpt><trkpt lat="39.22950854182158" lon="9.224667278053888"><ele>5.25</ele><time>2026-04-08T18:39:00Z</time></trkpt><trkpt lat="39.229554937852015" lon="9.224533098724221"><ele>5.5</ele><time>2026-04-08T18:39:01Z</time></trkpt><trkpt lat="39.229605394433655" lon="9.224393437191278"><ele>5.75</ele><time>2026-04-08T18:39:02Z</time></trkpt><trkpt lat="39.22965906049215" lon="9.224250204981313"><ele>6.0</ele><time>2026-04-08T18:39:03Z</time></trkpt><trkpt lat="39.2297173302967" lon="9.224109404923345"><ele>5.75</ele><time>2026-04-08T18:39:04Z</time></trkpt><trkpt lat="39.2297813361845" lon="9.223969837105857"><ele>5.5</ele><time>2026-04-08T18:39:05Z</time></trkpt><trkpt lat="39.22984714793802" lon="9.223838790250932"><ele>5.25</ele><time>2026-04-08T18:39:06Z</time></trkpt><trkpt lat="39.229906054797716" lon="9.223717220638878"><ele>5.0</ele><time>2026-04-08T18:39:07Z</time></trkpt><trkpt lat="39.22995881181718" lon="9.22360156388668"><ele>5.0</ele><time>2026-04-08T18:39:08Z</time></trkpt><trkpt lat="39.23000519456912" lon="9.223496802082582"><ele>5.0</ele><time>2026-04-08T18:39:09Z</time></trkpt><trkpt lat="39.23005012180441" lon="9.22339542542141"><ele>5.0</ele><time>2026-04-08T18:39:10Z</time></trkpt><trkpt lat="39.230098320387164" lon="9.223302453975402"><ele>5.0</ele><time>2026-04-08T18:39:11Z</time></trkpt><trkpt lat="39.23014815574517" lon="9.223195515885893"><ele>5.0</ele><time>2026-04-08T18:39:12Z</time></trkpt><trkpt lat="39.230201590148646" lon="9.223087139856338"><ele>5.0</ele><time>2026-04-08T18:39:13Z</time></trkpt><trkpt lat="39.2302563299554" lon="9.222970669884432"><ele>5.0</ele><time>2026-04-08T18:39:14Z</time></trkpt><trkpt lat="39.23031267079308" lon="9.222842976853428"><ele>5.0</ele><time>2026-04-08T18:39:15Z</time></trkpt><trkpt lat="39.23037503964554" lon="9.222719591484742"><ele>5.0</ele><time>2026-04-08T18:39:16Z</time></trkpt><trkpt lat="39.23043667338627" lon="9.22259279058522"><ele>5.0</ele><time>2026-04-08T18:39:17Z</time></trkpt><trkpt lat="39.230495007143226" lon="9.222459667227712"><ele>5.0</ele><time>2026-04-08T18:39:18Z</time></trkpt><trkpt lat="39.23055214530618" lon="9.222324309679122"><ele>5.0</ele><time>2026-04-08T18:39:19Z</time></trkpt><trkpt lat="39.2306066104789" lon="9.222192164236636"><ele>5.0</ele><time>2026-04-08T18:39:20Z</time></trkpt><trkpt lat="39.23066203301647" lon="9.222065018352865"><ele>5.0</ele><time>2026-04-08T18:39:21Z</time></trkpt><trkpt lat="39.230718424840056" lon="9.221949789553497"><ele>4.75</ele><time>2026-04-08T18:39:22Z</time></trkpt><trkpt lat="39.23078220662224" lon="9.221849655067885"><ele>4.5</ele><time>2026-04-08T18:39:23Z</time></trkpt><trkpt lat="39.230864616073575" lon="9.221745268003234"><ele>4.25</ele><time>2026-04-08T18:39:24Z</time></trkpt><trkpt lat="39.230967680611734" lon="9.221644866085466"><ele>4.0</ele><time>2026-04-08T18:39:25Z</time></trkpt><trkpt lat="39.23107339468921" lon="9.221543064742665"><ele>4.0</ele><time>2026-04-08T18:39:26Z</time></trkpt><trkpt lat="39.2311670815248" lon="9.221452437583679"><ele>4.0</ele><time>2026-04-08T18:39:27Z</time></trkpt><trkpt lat="39.23123578241284" lon="9.221333915091103"><ele>4.0</ele><time>2026-04-08T18:39:28Z</time></trkpt><trkpt lat="39.23128697474071" lon="9.221184791958798"><ele>4.0</ele><time>2026-04-08T18:39:29Z</time></trkpt><trkpt lat="39.23130788354683" lon="9.221013662801282"><ele>4.0</ele><time>2026-04-08T18:39:30Z</time></trkpt><trkpt lat="39.231356984266434" lon="9.220876055917818"><ele>4.0</ele><time>2026-04-08T18:39:31Z</time></trkpt><trkpt lat="39.23123816829387" lon="9.220687714114975"><ele>4.0</ele><time>2026-04-08T18:39:32Z</time></trkpt><trkpt lat="39.23116063234746" lon="9.22054326342936"><ele>4.0</ele><time>2026-04-08T18:39:33Z</time></trkpt><trkpt lat="39.23105673056153" lon="9.220427135129723"><ele>3.6666666666666665</ele><time>2026-04-08T18:39:34Z</time></trkpt><trkpt lat="39.23093158966195" lon="9.220347547129984"><ele>3.333333333333333</ele><time>2026-04-08T18:39:35Z</time></trkpt><trkpt lat="39.23078346620733" lon="9.220303439507077"><ele>3.0</ele><time>2026-04-08T18:39:36Z</time></trkpt><trkpt lat="39.230620441872674" lon="9.220287145336497"><ele>3.0</ele><time>2026-04-08T18:39:37Z</time></trkpt><trkpt lat="39.23046479523824" lon="9.220293606220157"><ele>3.0</ele><time>2026-04-08T18:39:38Z</time></trkpt><trkpt lat="39.23034348194704" lon="9.220284166039267"><ele>3.0</ele><time>2026-04-08T18:39:39Z</time></trkpt><trkpt lat="39.230231361519" lon="9.220247192817828"><ele>3.0</ele><time>2026-04-08T18:39:40Z</time></trkpt><trkpt lat="39.23012527074559" lon="9.220192812811261"><ele>3.0</ele><time>2026-04-08T18:39:41Z</time></trkpt><trkpt lat="39.23004013508617" lon="9.22009602509817"><ele>3.0</ele><time>2026-04-08T18:39:42Z</time></trkpt><trkpt lat="39.22996193090566" lon="9.21996835605333"><ele>3.0</ele><time>2026-04-08T18:39:43Z</time></trkpt><trkpt lat="39.22989948843185" lon="9.219825009980164"><ele>3.0</ele><time>2026-04-08T18:39:44Z</time></trkpt><trkpt lat="39.22984735764259" lon="9.219671399183662"><ele>3.25</ele><time>2026-04-08T18:39:45Z</time></trkpt><trkpt lat="39.229796741284474" lon="9.219505083756996"><ele>3.5</ele><time>2026-04-08T18:39:46Z</time></trkpt><trkpt lat="39.22974842380526" lon="9.21933021604928"><ele>3.75</ele><time>2026-04-08T18:39:47Z</time></trkpt><trkpt lat="39.229698521143554" lon="9.219136898226848"><ele>4.0</ele><time>2026-04-08T18:39:48Z</time></trkpt><trkpt lat="39.229649848889785" lon="9.218928996294279"><ele>3.0</ele><time>2026-04-08T18:39:49Z</time></trkpt><trkpt lat="39.22960528777332" lon="9.218729383409979"><ele>2.0</ele><time>2026-04-08T18:39:50Z</time></trkpt><trkpt lat="39.229561381738144" lon="9.218545026649991"><ele>1.0</ele><time>2026-04-08T18:39:51Z</time></trkpt><trkpt lat="39.22952016918472" lon="9.218372202052471"><ele>1.0</ele><time>2026-04-08T18:39:52Z</time></trkpt><trkpt lat="39.22947991929225" lon="9.21820579898575"><ele>1.0</ele><time>2026-04-08T18:39:53Z</time></trkpt><trkpt lat="39.22943911814755" lon="9.218030409576613"><ele>1.0</ele><time>2026-04-08T18:39:54Z</time></trkpt><trkpt lat="39.229396715098765" lon="9.217847741619023"><ele>1.0</ele><time>2026-04-08T18:39:55Z</time></trkpt><trkpt lat="39.229347013799526" lon="9.217644148517753"><ele>1.0</ele><time>2026-04-08T18:39:56Z</time></trkpt><trkpt lat="39.229296683116424" lon="9.217434730920472"><ele>1.0</ele><time>2026-04-08T18:39:57Z</time></trkpt><trkpt lat="39.22924444662025" lon="9.2172330464473"><ele>1.0</ele><time>2026-04-08T18:39:58Z</time></trkpt><trkpt lat="39.22919882871066" lon="9.217051289574975"><ele>1.0</ele><time>2026-04-08T18:39:59Z</time></trkpt><trkpt lat="39.229157856720335" lon="9.21688050369358"><ele>1.0</ele><time>2026-04-08T18:40:00Z</time></trkpt><trkpt lat="39.22911821276172" lon="9.216716476152778"><ele>1.0</ele><time>2026-04-08T18:40:01Z</time></trkpt><trkpt lat="39.229080344961666" lon="9.216559817421473"><ele>1.0</ele><time>2026-04-08T18:40:02Z</time></trkpt><trkpt lat="39.22904611823516" lon="9.216417301084105"><ele>1.0</ele><time>2026-04-08T18:40:03Z</time></trkpt><trkpt lat="39.22901226413419" lon="9.216280745839706"><ele>1.0</ele><time>2026-04-08T18:40:04Z</time></trkpt><trkpt lat="39.22897801083974" lon="9.216135546998151"><ele>1.0</ele><time>2026-04-08T18:40:05Z</time></trkpt><trkpt lat="39.22893884983319" lon="9.21597451635479"><ele>1.0</ele><time>2026-04-08T18:40:06Z</time></trkpt><trkpt lat="39.22889779131921" lon="9.215797864520372"><ele>1.3333333333333333</ele><time>2026-04-08T18:40:07Z</time></trkpt><trkpt lat="39.22885674905426" lon="9.215613180025207"><ele>1.6666666666666665</ele><time>2026-04-08T18:40:08Z</time></trkpt><trkpt lat="39.22881493443898" lon="9.215425255852367"><ele>2.0</ele><time>2026-04-08T18:40:09Z</time></trkpt><trkpt lat="39.22877032917507" lon="9.215237839271163"><ele>2.0</ele><time>2026-04-08T18:40:10Z</time></trkpt><trkpt lat="39.2287245693716" lon="9.215050609091959"><ele>2.0</ele><time>2026-04-08T18:40:11Z</time></trkpt><trkpt lat="39.228681379168705" lon="9.214869718793484"><ele>2.0</ele><time>2026-04-08T18:40:12Z</time></trkpt><trkpt lat="39.22864336041201" lon="9.214699382563373"><ele>2.0</ele><time>2026-04-08T18:40:13Z</time></trkpt><trkpt lat="39.22860107076678" lon="9.21452153725247"><ele>2.0</ele><time>2026-04-08T18:40:14Z</time></trkpt><trkpt lat="39.22855487388836" lon="9.214329008713625"><ele>2.0</ele><time>2026-04-08T18:40:15Z</time></trkpt><trkpt lat="39.22850829864768" lon="9.214122432145905"><ele>2.0</ele><time>2026-04-08T18:40:16Z</time></trkpt><trkpt lat="39.22846350848644" lon="9.213902992167476"><ele>2.0</ele><time>2026-04-08T18:40:17Z</time></trkpt><trkpt lat="39.22842366306494" lon="9.213681355839858"><ele>2.0</ele><time>2026-04-08T18:40:18Z</time></trkpt><trkpt lat="39.22839050814347" lon="9.213468944833819"><ele>2.0</ele><time>2026-04-08T18:40:19Z</time></trkpt><trkpt lat="39.22836015927491" lon="9.213271069561006"><ele>1.5</ele><time>2026-04-08T18:40:20Z</time></trkpt><trkpt lat="39.228332983033255" lon="9.21308250934743"><ele>1.0</ele><time>2026-04-08T18:40:21Z</time></trkpt><trkpt lat="39.22830651692177" lon="9.212898062340754"><ele>0.5</ele><time>2026-04-08T18:40:22Z</time></trkpt><trkpt lat="39.22828434972473" lon="9.212702809371489"><ele>0.0</ele><time>2026-04-08T18:40:23Z</time></trkpt><trkpt lat="39.22827106235219" lon="9.212496641781952"><ele>0.0</ele><time>2026-04-08T18:40:24Z</time></trkpt><trkpt lat="39.22827327562612" lon="9.212284498177967"><ele>0.0</ele><time>2026-04-08T18:40:25Z</time></trkpt><trkpt lat="39.228287285857164" lon="9.212051720374467"><ele>0.0</ele><time>2026-04-08T18:40:26Z</time></trkpt><trkpt lat="39.22831210586389" lon="9.211802742257364"><ele>0.0</ele><time>2026-04-08T18:40:27Z</time></trkpt><trkpt lat="39.22833410905233" lon="9.211552884249855"><ele>0.0</ele><time>2026-04-08T18:40:28Z</time></trkpt><trkpt lat="39.22835692788132" lon="9.21129887397959"><ele>0.0</ele><time>2026-04-08T18:40:29Z</time></trkpt><trkpt lat="39.228374840512934" lon="9.211045042436272"><ele>0.0</ele><time>2026-04-08T18:40:30Z</time></trkpt><trkpt lat="39.22838399481942" lon="9.21079405954602"><ele>0.0</ele><time>2026-04-08T18:40:31Z</time></trkpt><trkpt lat="39.228379096683376" lon="9.210540330496597"><ele>0.0</ele><time>2026-04-08T18:40:32Z</time></trkpt><trkpt lat="39.22835733875376" lon="9.210286521791774"><ele>-0.3333333333333333</ele><time>2026-04-08T18:40:33Z</time></trkpt><trkpt lat="39.228321205859274" lon="9.210038589754454"><ele>-0.6666666666666666</ele><time>2026-04-08T18:40:34Z</time></trkpt><trkpt lat="39.2282722343459" lon="9.209795815995953"><ele>-1.0</ele><time>2026-04-08T18:40:35Z</time></trkpt><trkpt lat="39.228215133309064" lon="9.209556061976686"><ele>-1.3333333333333333</ele><time>2026-04-08T18:40:36Z</time></trkpt><trkpt lat="39.22815404763376" lon="9.209317769027605"><ele>-1.6666666666666665</ele><time>2026-04-08T18:40:37Z</time></trkpt><trkpt lat="39.228091358621974" lon="9.209081664047256"><ele>-2.0</ele><time>2026-04-08T18:40:38Z</time></trkpt><trkpt lat="39.22802504343877" lon="9.208843396689533"><ele>-1.0</ele><time>2026-04-08T18:40:39Z</time></trkpt><trkpt lat="39.22795949646377" lon="9.208607960111701"><ele>0.0</ele><time>2026-04-08T18:40:40Z</time></trkpt><trkpt lat="39.22789422641497" lon="9.208369721757377"><ele>1.0</ele><time>2026-04-08T18:40:41Z</time></trkpt><trkpt lat="39.227829627232936" lon="9.208135568105543"><ele>1.0</ele><time>2026-04-08T18:40:42Z</time></trkpt><trkpt lat="39.22776275818355" lon="9.207898953640788"><ele>1.0</ele><time>2026-04-08T18:40:43Z</time></trkpt><trkpt lat="39.227701846269504" lon="9.207682945718217"><ele>1.0</ele><time>2026-04-08T18:40:44Z</time></trkpt><trkpt lat="39.2276519591072" lon="9.207497070524365"><ele>1.0</ele><time>2026-04-08T18:40:45Z</time></trkpt><trkpt lat="39.22760590855807" lon="9.207339668772223"><ele>1.0</ele><time>2026-04-08T18:40:46Z</time></trkpt><trkpt lat="39.22756858653499" lon="9.20720485327085"><ele>1.0</ele><time>2026-04-08T18:40:47Z</time></trkpt><trkpt lat="39.227537914186264" lon="9.207093612826354"><ele>1.0</ele><time>2026-04-08T18:40:48Z</time></trkpt><trkpt lat="39.227510196010805" lon="9.207000670741929"><ele>1.0</ele><time>2026-04-08T18:40:49Z</time></trkpt><trkpt lat="39.22748717073976" lon="9.206921184671614"><ele>0.6000000000000001</ele><time>2026-04-08T18:40:50Z</time></trkpt><trkpt lat="39.22746126836379" lon="9.206831047907844"><ele>0.20000000000000007</ele><time>2026-04-08T18:40:52Z</time></trkpt><trkpt lat="39.2274380948676" lon="9.20675295363527"><ele>-0.20000000000000007</ele><time>2026-04-08T18:41:14Z</time></trkpt><trkpt lat="39.22737567148917" lon="9.206556962088124"><ele>-0.6000000000000001</ele><time>2026-04-08T18:41:16Z</time></trkpt><trkpt lat="39.227342324906225" lon="9.206427991408633"><ele>-1.0</ele><time>2026-04-08T18:41:17Z</time></trkpt><trkpt lat="39.22730598973959" lon="9.206299055601406"><ele>-0.4</ele><time>2026-04-08T18:41:18Z</time></trkpt><trkpt lat="39.227271660425885" lon="9.206178338945803"><ele>0.19999999999999996</ele><time>2026-04-08T18:41:19Z</time></trkpt><trkpt lat="39.22723330213485" lon="9.20603898445671"><ele>0.8000000000000002</ele><time>2026-04-08T18:41:20Z</time></trkpt><trkpt lat="39.227197840158844" lon="9.205899883393698"><ele>1.4000000000000001</ele><time>2026-04-08T18:41:21Z</time></trkpt><trkpt lat="39.22717381716042" lon="9.205774967074529"><ele>2.0</ele><time>2026-04-08T18:41:22Z</time></trkpt><trkpt lat="39.227158177490324" lon="9.205643745401462"><ele>2.0</ele><time>2026-04-08T18:41:23Z</time></trkpt><trkpt lat="39.22714019300212" lon="9.205501855248166"><ele>2.0</ele><time>2026-04-08T18:41:24Z</time></trkpt><trkpt lat="39.22710326348447" lon="9.205357998765106"><ele>2.0</ele><time>2026-04-08T18:41:25Z</time></trkpt><trkpt lat="39.227031654369384" lon="9.205206372929048"><ele>2.0</ele><time>2026-04-08T18:41:26Z</time></trkpt><trkpt lat="39.226934014052496" lon="9.205011967624088"><ele>1.5</ele><time>2026-04-08T18:41:27Z</time></trkpt><trkpt lat="39.226843016135625" lon="9.204758933494253"><ele>1.0</ele><time>2026-04-08T18:41:28Z</time></trkpt><trkpt lat="39.226745556109904" lon="9.204454033011304"><ele>1.0</ele><time>2026-04-08T18:41:29Z</time></trkpt><trkpt lat="39.226634512970456" lon="9.204123215496988"><ele>1.0</ele><time>2026-04-08T18:41:30Z</time></trkpt><trkpt lat="39.226514897498674" lon="9.203769767297972"><ele>1.5</ele><time>2026-04-08T18:41:31Z</time></trkpt><trkpt lat="39.22640228776407" lon="9.203428460050985"><ele>2.0</ele><time>2026-04-08T18:41:32Z</time></trkpt><trkpt lat="39.22630933911184" lon="9.203149522809547"><ele>2.0</ele><time>2026-04-08T18:41:33Z</time></trkpt><trkpt lat="39.22623040947977" lon="9.20290542575048"><ele>2.0</ele><time>2026-04-08T18:41:34Z</time></trkpt><trkpt lat="39.22615957972206" lon="9.202681273027308"><ele>2.0</ele><time>2026-04-08T18:41:35Z</time></trkpt><trkpt lat="39.22609142662475" lon="9.202472675633063"><ele>2.0</ele><time>2026-04-08T18:41:36Z</time></trkpt><trkpt lat="39.22602645064368" lon="9.202279313273959"><ele>2.0</ele><time>2026-04-08T18:41:37Z</time></trkpt><trkpt lat="39.2259629970243" lon="9.20209688166812"><ele>2.0</ele><time>2026-04-08T18:41:38Z</time></trkpt><trkpt lat="39.2259089133057" lon="9.201932486629898"><ele>2.0</ele><time>2026-04-08T18:41:39Z</time></trkpt><trkpt lat="39.225855944652444" lon="9.201773193573555"><ele>2.0</ele><time>2026-04-08T18:41:40Z</time></trkpt><trkpt lat="39.225803453453786" lon="9.201617151913862"><ele>2.0</ele><time>2026-04-08T18:41:41Z</time></trkpt><trkpt lat="39.225748509063166" lon="9.201455400924557"><ele>2.0</ele><time>2026-04-08T18:41:42Z</time></trkpt><trkpt lat="39.22569523379786" lon="9.201294724106823"><ele>2.25</ele><time>2026-04-08T18:41:43Z</time></trkpt><trkpt lat="39.225641729003634" lon="9.20112889465738"><ele>2.5</ele><time>2026-04-08T18:41:44Z</time></trkpt><trkpt lat="39.22558698482545" lon="9.200963282889104"><ele>2.75</ele><time>2026-04-08T18:41:45Z</time></trkpt><trkpt lat="39.22553128885578" lon="9.200795097897533"><ele>3.0</ele><time>2026-04-08T18:41:46Z</time></trkpt><trkpt lat="39.22547556225819" lon="9.20062601264763"><ele>3.0</ele><time>2026-04-08T18:41:47Z</time></trkpt><trkpt lat="39.22541712542601" lon="9.20045062143668"><ele>3.0</ele><time>2026-04-08T18:41:48Z</time></trkpt><trkpt lat="39.225358917863026" lon="9.200278339809737"><ele>3.0</ele><time>2026-04-08T18:41:49Z</time></trkpt><trkpt lat="39.22529772746445" lon="9.200103059540972"><ele>3.0</ele><time>2026-04-08T18:41:50Z</time></trkpt><trkpt lat="39.22523633545479" lon="9.199926472075191"><ele>3.0</ele><time>2026-04-08T18:41:51Z</time></trkpt><trkpt lat="39.22517528533739" lon="9.199748557571898"><ele>3.0</ele><time>2026-04-08T18:41:52Z</time></trkpt><trkpt lat="39.22511453324208" lon="9.199566894316318"><ele>3.0</ele><time>2026-04-08T18:41:53Z</time></trkpt><trkpt lat="39.22505386510316" lon="9.19938440626078"><ele>3.0</ele><time>2026-04-08T18:41:54Z</time></trkpt><trkpt lat="39.22499377659562" lon="9.199200459699894"><ele>3.0</ele><time>2026-04-08T18:41:55Z</time></trkpt><trkpt lat="39.224932004143135" lon="9.19901632581509"><ele>3.0</ele><time>2026-04-08T18:41:56Z</time></trkpt><trkpt lat="39.22486649345046" lon="9.198834481938801"><ele>2.3333333333333335</ele><time>2026-04-08T18:41:57Z</time></trkpt><trkpt lat="39.224805154858764" lon="9.198648024874105"><ele>1.6666666666666665</ele><time>2026-04-08T18:41:58Z</time></trkpt><trkpt lat="39.22474203546661" lon="9.198458898388196"><ele>1.0</ele><time>2026-04-08T18:41:59Z</time></trkpt><trkpt lat="39.22467885650093" lon="9.198270485760412"><ele>1.0</ele><time>2026-04-08T18:42:00Z</time></trkpt><trkpt lat="39.22461055054986" lon="9.19807431273766"><ele>1.0</ele><time>2026-04-08T18:42:01Z</time></trkpt><trkpt lat="39.22456203216791" lon="9.197915879216492"><ele>1.0</ele><time>2026-04-08T18:42:02Z</time></trkpt><trkpt lat="39.22450459297836" lon="9.197736483235795"><ele>1.0</ele><time>2026-04-08T18:42:03Z</time></trkpt><trkpt lat="39.22444726312797" lon="9.19755787032373"><ele>1.0</ele><time>2026-04-08T18:42:04Z</time></trkpt><trkpt lat="39.22439317402079" lon="9.1973769426109"><ele>1.0</ele><time>2026-04-08T18:42:05Z</time></trkpt><trkpt lat="39.224334528632994" lon="9.197202834448255"><ele>1.0</ele><time>2026-04-08T18:42:06Z</time></trkpt><trkpt lat="39.22427300483407" lon="9.19703125271755"><ele>1.0</ele><time>2026-04-08T18:42:07Z</time></trkpt><trkpt lat="39.22421667327397" lon="9.196865006739785"><ele>1.25</ele><time>2026-04-08T18:42:08Z</time></trkpt><trkpt lat="39.22416608696304" lon="9.196706990842701"><ele>1.5</ele><time>2026-04-08T18:42:09Z</time></trkpt><trkpt lat="39.224117606023974" lon="9.19655696086803"><ele>1.75</ele><time>2026-04-08T18:42:10Z</time></trkpt><trkpt lat="39.224070504915595" lon="9.196424339266411"><ele>2.0</ele><time>2026-04-08T18:42:11Z</time></trkpt><trkpt lat="39.224023748706536" lon="9.19629390033702"><ele>2.0</ele><time>2026-04-08T18:42:12Z</time></trkpt><trkpt lat="39.223977941984906" lon="9.196157982731966"><ele>2.0</ele><time>2026-04-08T18:42:13Z</time></trkpt><trkpt lat="39.223933560921104" lon="9.196032363711266"><ele>2.0</ele><time>2026-04-08T18:42:14Z</time></trkpt><trkpt lat="39.22390012069655" lon="9.195920291193572"><ele>2.0</ele><time>2026-04-08T18:42:15Z</time></trkpt><trkpt lat="39.22388017934688" lon="9.19581194331357"><ele>2.0</ele><time>2026-04-08T18:42:16Z</time></trkpt><trkpt lat="39.223881077470566" lon="9.195720872949366"><ele>1.8</ele><time>2026-04-08T18:42:17Z</time></trkpt><trkpt lat="39.223903217554096" lon="9.195617193791689"><ele>1.6</ele><time>2026-04-08T18:42:18Z</time></trkpt><trkpt lat="39.22393598893215" lon="9.195514958443455"><ele>1.4000000000000001</ele><time>2026-04-08T18:42:19Z</time></trkpt><trkpt lat="39.22395079300938" lon="9.19540243727915"><ele>1.2000000000000002</ele><time>2026-04-08T18:42:20Z</time></trkpt><trkpt lat="39.223926413423776" lon="9.195278348856567"><ele>1.0</ele><time>2026-04-08T18:42:21Z</time></trkpt><trkpt lat="39.22385806849192" lon="9.195172945275115"><ele>1.0</ele><time>2026-04-08T18:42:22Z</time></trkpt><trkpt lat="39.22373337018575" lon="9.195108521293417"><ele>1.0</ele><time>2026-04-08T18:42:23Z</time></trkpt><trkpt lat="39.22363141321469" lon="9.19492634989832"><ele>1.0</ele><time>2026-04-08T18:42:24Z</time></trkpt><trkpt lat="39.22351622749731" lon="9.194731615154389"><ele>1.0</ele><time>2026-04-08T18:42:25Z</time></trkpt><trkpt lat="39.223449413520115" lon="9.194510695827587"><ele>1.0</ele><time>2026-04-08T18:42:26Z</time></trkpt><trkpt lat="39.22337086696829" lon="9.194252790066656"><ele>1.0</ele><time>2026-04-08T18:42:27Z</time></trkpt><trkpt lat="39.2232867461921" lon="9.193998132192082"><ele>1.3333333333333333</ele><time>2026-04-08T18:42:28Z</time></trkpt><trkpt lat="39.22320007773097" lon="9.193747973421534"><ele>1.6666666666666665</ele><time>2026-04-08T18:42:29Z</time></trkpt><trkpt lat="39.223116237186474" lon="9.193487448749128"><ele>2.0</ele><time>2026-04-08T18:42:30Z</time></trkpt><trkpt lat="39.223045021523376" lon="9.193230002599652"><ele>2.333333333333333</ele><time>2026-04-08T18:42:31Z</time></trkpt><trkpt lat="39.22299628068691" lon="9.192988692898824"><ele>2.6666666666666665</ele><time>2026-04-08T18:42:32Z</time></trkpt><trkpt lat="39.22295059144037" lon="9.19276791232633"><ele>3.0</ele><time>2026-04-08T18:42:33Z</time></trkpt><trkpt lat="39.22289373254515" lon="9.192574778157708"><ele>3.0</ele><time>2026-04-08T18:42:34Z</time></trkpt><trkpt lat="39.222835128191406" lon="9.19238264735264"><ele>3.0</ele><time>2026-04-08T18:42:35Z</time></trkpt><trkpt lat="39.222783057741886" lon="9.192187515778475"><ele>3.0</ele><time>2026-04-08T18:42:36Z</time></trkpt><trkpt lat="39.22272986685411" lon="9.191990652444778"><ele>2.0</ele><time>2026-04-08T18:42:37Z</time></trkpt><trkpt lat="39.222678515557945" lon="9.191788440509303"><ele>1.0</ele><time>2026-04-08T18:42:38Z</time></trkpt><trkpt lat="39.22262676087822" lon="9.19159485149484"><ele>0.0</ele><time>2026-04-08T18:42:39Z</time></trkpt><trkpt lat="39.22255806754204" lon="9.19140890762699"><ele>-0.3333333333333333</ele><time>2026-04-08T18:42:40Z</time></trkpt><trkpt lat="39.222503535642836" lon="9.191216484648619"><ele>-0.6666666666666666</ele><time>2026-04-08T18:42:41Z</time></trkpt><trkpt lat="39.222450018191935" lon="9.191027641384393"><ele>-1.0</ele><time>2026-04-08T18:42:42Z</time></trkpt><trkpt lat="39.222396541444176" lon="9.190838973064443"><ele>-1.3333333333333333</ele><time>2026-04-08T18:42:43Z</time></trkpt><trkpt lat="39.22234224803293" lon="9.190649815926848"><ele>-1.6666666666666665</ele><time>2026-04-08T18:42:44Z</time></trkpt><trkpt lat="39.222285085555576" lon="9.190460019447878"><ele>-2.0</ele><time>2026-04-08T18:42:45Z</time></trkpt><trkpt lat="39.22222798555826" lon="9.190276418617968"><ele>-1.3333333333333333</ele><time>2026-04-08T18:42:46Z</time></trkpt><trkpt lat="39.22217013603162" lon="9.190100966864113"><ele>-0.6666666666666666</ele><time>2026-04-08T18:42:47Z</time></trkpt><trkpt lat="39.22210924324867" lon="9.189923288323541"><ele>0.0</ele><time>2026-04-08T18:42:48Z</time></trkpt><trkpt lat="39.22204282682193" lon="9.1897408937315"><ele>0.0</ele><time>2026-04-08T18:42:49Z</time></trkpt><trkpt lat="39.221974398745836" lon="9.189558411392925"><ele>0.0</ele><time>2026-04-08T18:42:50Z</time></trkpt><trkpt lat="39.22191441393554" lon="9.189366128580106"><ele>0.0</ele><time>2026-04-08T18:42:51Z</time></trkpt><trkpt lat="39.221837434394686" lon="9.18917525114182"><ele>-0.6666666666666666</ele><time>2026-04-08T18:42:52Z</time></trkpt><trkpt lat="39.22173813805781" lon="9.188992020416588"><ele>-1.3333333333333333</ele><time>2026-04-08T18:42:53Z</time></trkpt><trkpt lat="39.221650211595986" lon="9.188798309104438"><ele>-2.0</ele><time>2026-04-08T18:42:54Z</time></trkpt><trkpt lat="39.221574428536705" lon="9.188596570088"><ele>-1.6666666666666665</ele><time>2026-04-08T18:42:55Z</time></trkpt><trkpt lat="39.22147733260861" lon="9.188405244305256"><ele>-1.3333333333333333</ele><time>2026-04-08T18:42:56Z</time></trkpt><trkpt lat="39.22137723403907" lon="9.18821705713573"><ele>-1.0</ele><time>2026-04-08T18:42:57Z</time></trkpt><trkpt lat="39.2212753460904" lon="9.188030261921744"><ele>-0.3333333333333333</ele><time>2026-04-08T18:42:58Z</time></trkpt><trkpt lat="39.22117114007385" lon="9.18784472361909"><ele>0.3333333333333333</ele><time>2026-04-08T18:42:59Z</time></trkpt><trkpt lat="39.22106254857868" lon="9.187653773332915"><ele>1.0</ele><time>2026-04-08T18:43:00Z</time></trkpt><trkpt lat="39.22095632133282" lon="9.187464086137659"><ele>1.0</ele><time>2026-04-08T18:43:01Z</time></trkpt><trkpt lat="39.22084928426529" lon="9.187272891740452"><ele>1.0</ele><time>2026-04-08T18:43:02Z</time></trkpt><trkpt lat="39.22074702638255" lon="9.18708399030622"><ele>1.0</ele><time>2026-04-08T18:43:03Z</time></trkpt><trkpt lat="39.22063729278499" lon="9.186890167723163"><ele>1.0</ele><time>2026-04-08T18:43:04Z</time></trkpt><trkpt lat="39.220529958209994" lon="9.186705452968743"><ele>1.0</ele><time>2026-04-08T18:43:05Z</time></trkpt><trkpt lat="39.22042080652546" lon="9.186514800603318"><ele>1.0</ele><time>2026-04-08T18:43:06Z</time></trkpt><trkpt lat="39.22030895644001" lon="9.186323519561908"><ele>1.0</ele><time>2026-04-08T18:43:07Z</time></trkpt><trkpt lat="39.220199225904835" lon="9.186134111495182"><ele>1.0</ele><time>2026-04-08T18:43:08Z</time></trkpt><trkpt lat="39.22008684124573" lon="9.185941095753911"><ele>1.0</ele><time>2026-04-08T18:43:09Z</time></trkpt><trkpt lat="39.219977456143056" lon="9.18574078812186"><ele>0.6666666666666666</ele><time>2026-04-08T18:43:10Z</time></trkpt><trkpt lat="39.21987198436597" lon="9.18553623895891"><ele>0.3333333333333333</ele><time>2026-04-08T18:43:11Z</time></trkpt><trkpt lat="39.21977345200892" lon="9.185327014904907"><ele>0.0</ele><time>2026-04-08T18:43:12Z</time></trkpt><trkpt lat="39.219675466485455" lon="9.185115525259292"><ele>0.0</ele><time>2026-04-08T18:43:13Z</time></trkpt><trkpt lat="39.21958053000506" lon="9.184901222308406"><ele>0.0</ele><time>2026-04-08T18:43:14Z</time></trkpt><trkpt lat="39.21948581436103" lon="9.184684640579741"><ele>0.0</ele><time>2026-04-08T18:43:15Z</time></trkpt><trkpt lat="39.21939316092953" lon="9.18447557681584"><ele>-0.3333333333333333</ele><time>2026-04-08T18:43:16Z</time></trkpt><trkpt lat="39.219300201507146" lon="9.184265270043001"><ele>-0.6666666666666666</ele><time>2026-04-08T18:43:17Z</time></trkpt><trkpt lat="39.219205299982185" lon="9.18405523714714"><ele>-1.0</ele><time>2026-04-08T18:43:18Z</time></trkpt><trkpt lat="39.21911233034431" lon="9.183847281470735"><ele>-1.0</ele><time>2026-04-08T18:43:19Z</time></trkpt><trkpt lat="39.21901966345067" lon="9.183633625945138"><ele>-1.0</ele><time>2026-04-08T18:43:20Z</time></trkpt><trkpt lat="39.218912421675796" lon="9.183430791437928"><ele>-1.0</ele><time>2026-04-08T18:43:21Z</time></trkpt><trkpt lat="39.21881657281147" lon="9.183219393551108"><ele>-0.6666666666666666</ele><time>2026-04-08T18:43:22Z</time></trkpt><trkpt lat="39.21871991535597" lon="9.183006212250602"><ele>-0.3333333333333333</ele><time>2026-04-08T18:43:23Z</time></trkpt><trkpt lat="39.21862267373243" lon="9.182791742637633"><ele>0.0</ele><time>2026-04-08T18:43:24Z</time></trkpt><trkpt lat="39.21852669454464" lon="9.182579779819607"><ele>0.0</ele><time>2026-04-08T18:43:25Z</time></trkpt><trkpt lat="39.21843078325245" lon="9.182365296127506"><ele>0.0</ele><time>2026-04-08T18:43:26Z</time></trkpt><trkpt lat="39.21834992849111" lon="9.182143866237658"><ele>0.0</ele><time>2026-04-08T18:43:27Z</time></trkpt><trkpt lat="39.21825286386849" lon="9.181933494050586"><ele>0.0</ele><time>2026-04-08T18:43:28Z</time></trkpt><trkpt lat="39.21816026026281" lon="9.181729089474105"><ele>0.0</ele><time>2026-04-08T18:43:29Z</time></trkpt><trkpt lat="39.21806834761265" lon="9.181531190417106"><ele>0.0</ele><time>2026-04-08T18:43:30Z</time></trkpt><trkpt lat="39.21797979944537" lon="9.181332645209839"><ele>0.0</ele><time>2026-04-08T18:43:31Z</time></trkpt><trkpt lat="39.21788566794939" lon="9.181127600445173"><ele>0.0</ele><time>2026-04-08T18:43:32Z</time></trkpt><trkpt lat="39.217794272753736" lon="9.18092555981722"><ele>0.0</ele><time>2026-04-08T18:43:33Z</time></trkpt><trkpt lat="39.21770264033362" lon="9.18072333816555"><ele>0.0</ele><time>2026-04-08T18:43:34Z</time></trkpt><trkpt lat="39.2176154125498" lon="9.180524374724138"><ele>0.0</ele><time>2026-04-08T18:43:35Z</time></trkpt><trkpt lat="39.21753104189584" lon="9.180332213587018"><ele>0.0</ele><time>2026-04-08T18:43:36Z</time></trkpt><trkpt lat="39.2174444439708" lon="9.180138941005147"><ele>0.0</ele><time>2026-04-08T18:43:37Z</time></trkpt><trkpt lat="39.21735528820887" lon="9.179946093691983"><ele>0.0</ele><time>2026-04-08T18:43:38Z</time></trkpt><trkpt lat="39.21726539062091" lon="9.179749553378308"><ele>0.0</ele><time>2026-04-08T18:43:39Z</time></trkpt><trkpt lat="39.21717587482713" lon="9.179551080053402"><ele>0.3333333333333333</ele><time>2026-04-08T18:43:40Z</time></trkpt><trkpt lat="39.21708694984776" lon="9.179359215983842"><ele>0.6666666666666666</ele><time>2026-04-08T18:43:41Z</time></trkpt><trkpt lat="39.21699905351228" lon="9.179163841504794"><ele>1.0</ele><time>2026-04-08T18:43:42Z</time></trkpt><trkpt lat="39.216916453230944" lon="9.17896986741247"><ele>1.3333333333333333</ele><time>2026-04-08T18:43:43Z</time></trkpt><trkpt lat="39.2168226675827" lon="9.178788406789781"><ele>1.6666666666666665</ele><time>2026-04-08T18:43:44Z</time></trkpt><trkpt lat="39.21674650252223" lon="9.178598742293191"><ele>2.0</ele><time>2026-04-08T18:43:45Z</time></trkpt><trkpt lat="39.21667331061176" lon="9.178410378661098"><ele>2.0</ele><time>2026-04-08T18:43:46Z</time></trkpt><trkpt lat="39.21659966222441" lon="9.178215418946975"><ele>2.0</ele><time>2026-04-08T18:43:47Z</time></trkpt><trkpt lat="39.216528324891385" lon="9.178012702155506"><ele>2.0</ele><time>2026-04-08T18:43:48Z</time></trkpt><trkpt lat="39.2164598248109" lon="9.177804982538131"><ele>2.0</ele><time>2026-04-08T18:43:49Z</time></trkpt><trkpt lat="39.21639413483858" lon="9.177596587008265"><ele>2.0</ele><time>2026-04-08T18:43:50Z</time></trkpt><trkpt lat="39.216344202276964" lon="9.177375073357176"><ele>2.0</ele><time>2026-04-08T18:43:51Z</time></trkpt><trkpt lat="39.21627778454286" lon="9.177163846094597"><ele>2.0</ele><time>2026-04-08T18:43:52Z</time></trkpt><trkpt lat="39.21621380697814" lon="9.176950957078937"><ele>2.0</ele><time>2026-04-08T18:43:53Z</time></trkpt><trkpt lat="39.21615334771906" lon="9.17673429616372"><ele>2.0</ele><time>2026-04-08T18:43:54Z</time></trkpt><trkpt lat="39.2160944360198" lon="9.176521353635422"><ele>1.6666666666666665</ele><time>2026-04-08T18:43:55Z</time></trkpt><trkpt lat="39.21603781133325" lon="9.176309093375236"><ele>1.3333333333333333</ele><time>2026-04-08T18:43:56Z</time></trkpt><trkpt lat="39.21596104857416" lon="9.17610524637071"><ele>1.0</ele><time>2026-04-08T18:43:57Z</time></trkpt><trkpt lat="39.21590026818782" lon="9.175895812749797"><ele>0.0</ele><time>2026-04-08T18:43:58Z</time></trkpt><trkpt lat="39.21583809824914" lon="9.175681591101633"><ele>-1.0</ele><time>2026-04-08T18:43:59Z</time></trkpt><trkpt lat="39.21577662954841" lon="9.175469785709513"><ele>-2.0</ele><time>2026-04-08T18:44:00Z</time></trkpt><trkpt lat="39.215715659307726" lon="9.175259697893797"><ele>-2.0</ele><time>2026-04-08T18:44:01Z</time></trkpt><trkpt lat="39.215655094128195" lon="9.175051715601754"><ele>-2.0</ele><time>2026-04-08T18:44:02Z</time></trkpt><trkpt lat="39.215594995921265" lon="9.174847331446072"><ele>-2.0</ele><time>2026-04-08T18:44:03Z</time></trkpt><trkpt lat="39.21553546562863" lon="9.17464304069794"><ele>-0.6666666666666666</ele><time>2026-04-08T18:44:04Z</time></trkpt><trkpt lat="39.21547858305112" lon="9.174443039254305"><ele>0.6666666666666666</ele><time>2026-04-08T18:44:05Z</time></trkpt><trkpt lat="39.21541965393243" lon="9.174238094973019"><ele>2.0</ele><time>2026-04-08T18:44:06Z</time></trkpt><trkpt lat="39.21537327899229" lon="9.174023728264295"><ele>2.0</ele><time>2026-04-08T18:44:07Z</time></trkpt><trkpt lat="39.215298541312684" lon="9.173824293422824"><ele>2.0</ele><time>2026-04-08T18:44:08Z</time></trkpt><trkpt lat="39.21525445321986" lon="9.173610600571365"><ele>2.0</ele><time>2026-04-08T18:44:09Z</time></trkpt><trkpt lat="39.21522582667166" lon="9.173393665527845"><ele>2.333333333333333</ele><time>2026-04-08T18:44:10Z</time></trkpt><trkpt lat="39.21523834166082" lon="9.173177565239188"><ele>2.6666666666666665</ele><time>2026-04-08T18:44:11Z</time></trkpt><trkpt lat="39.21525216950285" lon="9.172964860915817"><ele>3.0</ele><time>2026-04-08T18:44:12Z</time></trkpt><trkpt lat="39.21527626700679" lon="9.172746562835258"><ele>3.0</ele><time>2026-04-08T18:44:13Z</time></trkpt><trkpt lat="39.21534291086622" lon="9.172541688235466"><ele>3.0</ele><time>2026-04-08T18:44:14Z</time></trkpt><trkpt lat="39.21539216350052" lon="9.172326263122006"><ele>3.0</ele><time>2026-04-08T18:44:15Z</time></trkpt><trkpt lat="39.21544868785726" lon="9.172113502374723"><ele>2.75</ele><time>2026-04-08T18:44:16Z</time></trkpt><trkpt lat="39.21549709377955" lon="9.171915695550675"><ele>2.5</ele><time>2026-04-08T18:44:17Z</time></trkpt><trkpt lat="39.21554323573532" lon="9.171733793103218"><ele>2.25</ele><time>2026-04-08T18:44:18Z</time></trkpt><trkpt lat="39.21559020808193" lon="9.171564420476157"><ele>2.0</ele><time>2026-04-08T18:44:19Z</time></trkpt><trkpt lat="39.21563787336869" lon="9.171411066043797"><ele>1.6</ele><time>2026-04-08T18:44:20Z</time></trkpt><trkpt lat="39.21569085323081" lon="9.171279541771662"><ele>1.2000000000000002</ele><time>2026-04-08T18:44:21Z</time></trkpt><trkpt lat="39.215753228682516" lon="9.171163616270924"><ele>0.8</ele><time>2026-04-08T18:44:22Z</time></trkpt><trkpt lat="39.215819369157984" lon="9.171054829624055"><ele>0.4</ele><time>2026-04-08T18:44:23Z</time></trkpt><trkpt lat="39.215871933887385" lon="9.170944628973004"><ele>0.0</ele><time>2026-04-08T18:44:24Z</time></trkpt><trkpt lat="39.21590040845904" lon="9.170820380191019"><ele>-0.4</ele><time>2026-04-08T18:44:25Z</time></trkpt><trkpt lat="39.21589595001494" lon="9.170689780384972"><ele>-0.8</ele><time>2026-04-08T18:44:26Z</time></trkpt><trkpt lat="39.21585651403412" lon="9.170561656238066"><ele>-1.2000000000000002</ele><time>2026-04-08T18:44:27Z</time></trkpt><trkpt lat="39.21578806574833" lon="9.170447674229006"><ele>-1.6</ele><time>2026-04-08T18:44:28Z</time></trkpt><trkpt lat="39.21569420982025" lon="9.170364699205413"><ele>-2.0</ele><time>2026-04-08T18:44:29Z</time></trkpt><trkpt lat="39.21558406567566" lon="9.1703138238015"><ele>-2.0</ele><time>2026-04-08T18:44:30Z</time></trkpt><trkpt lat="39.21546692866338" lon="9.170304355649149"><ele>-2.0</ele><time>2026-04-08T18:44:31Z</time></trkpt><trkpt lat="39.215352437240554" lon="9.170295341294905"><ele>-2.0</ele><time>2026-04-08T18:44:32Z</time></trkpt><trkpt lat="39.21524410464012" lon="9.170236766846342"><ele>-2.0</ele><time>2026-04-08T18:44:33Z</time></trkpt><trkpt lat="39.21515268280695" lon="9.170121200930257"><ele>-2.0</ele><time>2026-04-08T18:44:34Z</time></trkpt><trkpt lat="39.21507778770491" lon="9.169952393191135"><ele>-2.0</ele><time>2026-04-08T18:44:35Z</time></trkpt><trkpt lat="39.21498261155483" lon="9.169791440176809"><ele>-2.0</ele><time>2026-04-08T18:44:36Z</time></trkpt><trkpt lat="39.21487042100468" lon="9.16962702713337"><ele>-1.3333333333333333</ele><time>2026-04-08T18:44:37Z</time></trkpt><trkpt lat="39.21473882138736" lon="9.169465117740561"><ele>-0.6666666666666666</ele><time>2026-04-08T18:44:38Z</time></trkpt><trkpt lat="39.21459164289683" lon="9.169301504687825"><ele>0.0</ele><time>2026-04-08T18:44:39Z</time></trkpt><trkpt lat="39.214442373059896" lon="9.169140892212152"><ele>0.0</ele><time>2026-04-08T18:44:40Z</time></trkpt><trkpt lat="39.21428544518424" lon="9.168977277945165"><ele>0.0</ele><time>2026-04-08T18:44:41Z</time></trkpt><trkpt lat="39.21411998457329" lon="9.168806749054504"><ele>0.0</ele><time>2026-04-08T18:44:42Z</time></trkpt><trkpt lat="39.21396230897992" lon="9.168646843784304"><ele>0.0</ele><time>2026-04-08T18:44:43Z</time></trkpt><trkpt lat="39.213810431854256" lon="9.168491734924558"><ele>0.0</ele><time>2026-04-08T18:44:44Z</time></trkpt><trkpt lat="39.21365454616801" lon="9.168335663588433"><ele>0.0</ele><time>2026-04-08T18:44:45Z</time></trkpt><trkpt lat="39.21349808662887" lon="9.168177027281725"><ele>-0.3333333333333333</ele><time>2026-04-08T18:44:46Z</time></trkpt><trkpt lat="39.21334231439084" lon="9.168017341857102"><ele>-0.6666666666666666</ele><time>2026-04-08T18:44:47Z</time></trkpt><trkpt lat="39.2131880994106" lon="9.167862014280354"><ele>-1.0</ele><time>2026-04-08T18:44:48Z</time></trkpt><trkpt lat="39.21304556646673" lon="9.1677154898628"><ele>-1.0</ele><time>2026-04-08T18:44:49Z</time></trkpt><trkpt lat="39.212909364676555" lon="9.167575755434981"><ele>-1.0</ele><time>2026-04-08T18:44:50Z</time></trkpt><trkpt lat="39.212773712480534" lon="9.167434943291445"><ele>-1.0</ele><time>2026-04-08T18:44:51Z</time></trkpt><trkpt lat="39.2126349559957" lon="9.16729163067721"><ele>-1.0</ele><time>2026-04-08T18:44:52Z</time></trkpt><trkpt lat="39.21249373392114" lon="9.16714839332985"><ele>-1.0</ele><time>2026-04-08T18:44:53Z</time></trkpt><trkpt lat="39.212355549305734" lon="9.167008690576491"><ele>-1.0</ele><time>2026-04-08T18:44:54Z</time></trkpt><trkpt lat="39.21222680598881" lon="9.166877135025798"><ele>-1.0</ele><time>2026-04-08T18:44:55Z</time></trkpt><trkpt lat="39.212099547733665" lon="9.16674628391827"><ele>-1.0</ele><time>2026-04-08T18:44:56Z</time></trkpt><trkpt lat="39.211970461097096" lon="9.166615531259836"><ele>-1.0</ele><time>2026-04-08T18:44:57Z</time></trkpt><trkpt lat="39.211832843192944" lon="9.166474467686713"><ele>-1.0</ele><time>2026-04-08T18:44:58Z</time></trkpt><trkpt lat="39.21169119774818" lon="9.166332039263892"><ele>-1.0</ele><time>2026-04-08T18:44:59Z</time></trkpt><trkpt lat="39.21155036877566" lon="9.16618964885936"><ele>-1.0</ele><time>2026-04-08T18:45:00Z</time></trkpt><trkpt lat="39.211406730254325" lon="9.16604918804979"><ele>-1.0</ele><time>2026-04-08T18:45:01Z</time></trkpt><trkpt lat="39.21126165274934" lon="9.16591234063804"><ele>-1.0</ele><time>2026-04-08T18:45:02Z</time></trkpt><trkpt lat="39.211115389752855" lon="9.165777003088442"><ele>-1.0</ele><time>2026-04-08T18:45:03Z</time></trkpt><trkpt lat="39.210968929814285" lon="9.165645497551399"><ele>-1.0</ele><time>2026-04-08T18:45:04Z</time></trkpt><trkpt lat="39.210823583305555" lon="9.165520076927345"><ele>-1.0</ele><time>2026-04-08T18:45:05Z</time></trkpt><trkpt lat="39.210692920595115" lon="9.165411364492273"><ele>-1.0</ele><time>2026-04-08T18:45:06Z</time></trkpt><trkpt lat="39.21057018511154" lon="9.165309707192947"><ele>-0.5</ele><time>2026-04-08T18:45:07Z</time></trkpt><trkpt lat="39.21045599450869" lon="9.165213062250691"><ele>0.0</ele><time>2026-04-08T18:45:08Z</time></trkpt><trkpt lat="39.21035220466668" lon="9.165124375534615"><ele>0.5</ele><time>2026-04-08T18:45:09Z</time></trkpt><trkpt lat="39.21025932400741" lon="9.165043098662624"><ele>1.0</ele><time>2026-04-08T18:45:10Z</time></trkpt><trkpt lat="39.21017209948606" lon="9.164969510967339"><ele>1.0</ele><time>2026-04-08T18:45:11Z</time></trkpt><trkpt lat="39.21009698391228" lon="9.164907932969781"><ele>0.9999999999999999</ele><time>2026-04-08T18:45:12Z</time></trkpt><trkpt lat="39.21003090829128" lon="9.164857309543258"><ele>1.0</ele><time>2026-04-08T18:45:13Z</time></trkpt><trkpt lat="39.20997187680705" lon="9.164815413920586"><ele>1.0</ele><time>2026-04-08T18:45:14Z</time></trkpt><trkpt lat="39.20991556223456" lon="9.164778231471889"><ele>0.9999999999999999</ele><time>2026-04-08T18:45:15Z</time></trkpt><trkpt lat="39.20985115229106" lon="9.164730866067062"><ele>1.0</ele><time>2026-04-08T18:45:16Z</time></trkpt><trkpt lat="39.209785456593806" lon="9.1646845571398"><ele>1.0</ele><time>2026-04-08T18:45:17Z</time></trkpt><trkpt lat="39.20966072239837" lon="9.164623183875667"><ele>1.0</ele><time>2026-04-08T18:45:19Z</time></trkpt><trkpt lat="39.20958548664796" lon="9.164655531220138"><ele>1.0</ele><time>2026-04-08T18:45:20Z</time></trkpt><trkpt lat="39.20952103792823" lon="9.164697234033252"><ele>1.0</ele><time>2026-04-08T18:45:21Z</time></trkpt><trkpt lat="39.209512030391785" lon="9.16490769160776"><ele>1.0</ele><time>2026-04-08T18:45:22Z</time></trkpt><trkpt lat="39.20946703515739" lon="9.16504028409514"><ele>1.0</ele><time>2026-04-08T18:45:23Z</time></trkpt><trkpt lat="39.20941426741447" lon="9.16514534137814"><ele>1.2000000000000002</ele><time>2026-04-08T18:45:24Z</time></trkpt><trkpt lat="39.209362877939654" lon="9.16524273226405"><ele>1.4000000000000001</ele><time>2026-04-08T18:45:25Z</time></trkpt><trkpt lat="39.20930555758175" lon="9.165314170241679"><ele>1.6</ele><time>2026-04-08T18:45:26Z</time></trkpt><trkpt lat="39.2092643360964" lon="9.16538317289955"><ele>1.8</ele><time>2026-04-08T18:45:27Z</time></trkpt><trkpt lat="39.209190670964446" lon="9.165470469758422"><ele>2.0</ele><time>2026-04-08T18:45:29Z</time></trkpt><trkpt lat="39.20896836250997" lon="9.165347367257459"><ele>2.5</ele><time>2026-04-08T18:45:32Z</time></trkpt><trkpt lat="39.20888020476853" lon="9.165240067749007"><ele>3.0</ele><time>2026-04-08T18:45:33Z</time></trkpt><trkpt lat="39.208786722807055" lon="9.165131922230564"><ele>3.5</ele><time>2026-04-08T18:45:34Z</time></trkpt><trkpt lat="39.20869321361282" lon="9.16502664838164"><ele>4.0</ele><time>2026-04-08T18:45:35Z</time></trkpt><trkpt lat="39.208598189570694" lon="9.164935035642458"><ele>3.25</ele><time>2026-04-08T18:45:36Z</time></trkpt><trkpt lat="39.20850258202364" lon="9.164834105284312"><ele>2.5</ele><time>2026-04-08T18:45:37Z</time></trkpt><trkpt lat="39.208412479240216" lon="9.164735765640636"><ele>1.75</ele><time>2026-04-08T18:45:38Z</time></trkpt><trkpt lat="39.20832840958631" lon="9.16463264239445"><ele>1.0</ele><time>2026-04-08T18:45:39Z</time></trkpt><trkpt lat="39.208239977173974" lon="9.164539508166591"><ele>1.25</ele><time>2026-04-08T18:45:40Z</time></trkpt><trkpt lat="39.208152354634855" lon="9.164474323513106"><ele>1.5</ele><time>2026-04-08T18:45:41Z</time></trkpt><trkpt lat="39.20805530470143" lon="9.164443366967573"><ele>1.75</ele><time>2026-04-08T18:45:42Z</time></trkpt><trkpt lat="39.20793156032503" lon="9.164437118037439"><ele>2.0</ele><time>2026-04-08T18:45:43Z</time></trkpt><trkpt lat="39.20780152403048" lon="9.164421279514"><ele>2.0</ele><time>2026-04-08T18:45:44Z</time></trkpt><trkpt lat="39.207679937775005" lon="9.164384718908728"><ele>2.0</ele><time>2026-04-08T18:45:45Z</time></trkpt><trkpt lat="39.20757204210983" lon="9.164362309022472"><ele>2.0</ele><time>2026-04-08T18:45:46Z</time></trkpt><trkpt lat="39.20747967007449" lon="9.164321029071637"><ele>2.0</ele><time>2026-04-08T18:45:47Z</time></trkpt><trkpt lat="39.20739435484142" lon="9.164334486132002"><ele>2.0</ele><time>2026-04-08T18:45:48Z</time></trkpt><trkpt lat="39.2073189365291" lon="9.164180335794992"><ele>1.9999999999999998</ele><time>2026-04-08T18:45:49Z</time></trkpt><trkpt lat="39.20725418238108" lon="9.164110329019286"><ele>2.0</ele><time>2026-04-08T18:45:50Z</time></trkpt><trkpt lat="39.207193530435276" lon="9.164059713297185"><ele>2.0</ele><time>2026-04-08T18:45:51Z</time></trkpt><trkpt lat="39.20712960036463" lon="9.163965568727953"><ele>2.0</ele><time>2026-04-08T18:45:53Z</time></trkpt><trkpt lat="39.20707666559827" lon="9.163875396430928"><ele>1.9999999999999998</ele><time>2026-04-08T18:46:03Z</time></trkpt><trkpt lat="39.206992412730905" lon="9.163818707543493"><ele>2.0</ele><time>2026-04-08T18:46:04Z</time></trkpt><trkpt lat="39.20690170494601" lon="9.163780669424629"><ele>2.0</ele><time>2026-04-08T18:46:05Z</time></trkpt><trkpt lat="39.20681308917013" lon="9.163712849406728"><ele>2.0</ele><time>2026-04-08T18:46:06Z</time></trkpt><trkpt lat="39.206726374803615" lon="9.163643701256731"><ele>2.0</ele><time>2026-04-08T18:46:07Z</time></trkpt><trkpt lat="39.2066399851357" lon="9.163581259063882"><ele>2.0</ele><time>2026-04-08T18:46:08Z</time></trkpt><trkpt lat="39.20656843307763" lon="9.16351856974996"><ele>2.0</ele><time>2026-04-08T18:46:09Z</time></trkpt><trkpt lat="39.20649928368934" lon="9.16347177617677"><ele>2.2</ele><time>2026-04-08T18:46:10Z</time></trkpt><trkpt lat="39.20642746704003" lon="9.163420602104893"><ele>2.4000000000000004</ele><time>2026-04-08T18:46:12Z</time></trkpt><trkpt lat="39.206339755678734" lon="9.163439363663251"><ele>2.5999999999999996</ele><time>2026-04-08T18:46:15Z</time></trkpt><trkpt lat="39.2062820047083" lon="9.163523954136068"><ele>2.8</ele><time>2026-04-08T18:46:16Z</time></trkpt><trkpt lat="39.20622353349253" lon="9.163667793744304"><ele>3.0</ele><time>2026-04-08T18:46:17Z</time></trkpt><trkpt lat="39.20618597897002" lon="9.16380139124321"><ele>3.0</ele><time>2026-04-08T18:46:18Z</time></trkpt><trkpt lat="39.20614436249389" lon="9.16389167565936"><ele>3.0</ele><time>2026-04-08T18:46:19Z</time></trkpt><trkpt lat="39.206087834895385" lon="9.163994113223588"><ele>3.0</ele><time>2026-04-08T18:46:21Z</time></trkpt><trkpt lat="39.20593703716104" lon="9.16392163517662"><ele>3.0</ele><time>2026-04-08T18:46:24Z</time></trkpt><trkpt lat="39.205848310986205" lon="9.163824224298535"><ele>3.0</ele><time>2026-04-08T18:46:25Z</time></trkpt><trkpt lat="39.20576534208989" lon="9.163722024175224"><ele>3.0</ele><time>2026-04-08T18:46:26Z</time></trkpt><trkpt lat="39.205682882533736" lon="9.163617446996328"><ele>3.0</ele><time>2026-04-08T18:46:27Z</time></trkpt><trkpt lat="39.20560559331285" lon="9.163523331812335"><ele>3.0</ele><time>2026-04-08T18:46:28Z</time></trkpt><trkpt lat="39.205529058526" lon="9.163425982646618"><ele>3.0</ele><time>2026-04-08T18:46:29Z</time></trkpt><trkpt lat="39.20544607286103" lon="9.163329253977867"><ele>3.0</ele><time>2026-04-08T18:46:30Z</time></trkpt><trkpt lat="39.20537746050833" lon="9.16322482761614"><ele>3.0</ele><time>2026-04-08T18:46:31Z</time></trkpt><trkpt lat="39.20529241753521" lon="9.16312495398039"><ele>3.0</ele><time>2026-04-08T18:46:32Z</time></trkpt><trkpt lat="39.205189925902644" lon="9.16304310467509"><ele>3.0</ele><time>2026-04-08T18:46:33Z</time></trkpt><trkpt lat="39.20511921779862" lon="9.162956678915167"><ele>3.0</ele><time>2026-04-08T18:46:34Z</time></trkpt><trkpt lat="39.20506630759005" lon="9.16289381879301"><ele>3.0</ele><time>2026-04-08T18:46:35Z</time></trkpt><trkpt lat="39.20501152629853" lon="9.162832400198115"><ele>3.0</ele><time>2026-04-08T18:46:36Z</time></trkpt><trkpt lat="39.204958775459936" lon="9.162760500536441"><ele>3.0</ele><time>2026-04-08T18:46:37Z</time></trkpt><trkpt lat="39.20489214379684" lon="9.162677234854291"><ele>3.0</ele><time>2026-04-08T18:46:38Z</time></trkpt><trkpt lat="39.20481733954182" lon="9.162589254673831"><ele>3.0</ele><time>2026-04-08T18:46:39Z</time></trkpt><trkpt lat="39.20473569592143" lon="9.162495928891465"><ele>3.0</ele><time>2026-04-08T18:46:40Z</time></trkpt><trkpt lat="39.204642986153615" lon="9.16240629821719"><ele>3.0</ele><time>2026-04-08T18:46:41Z</time></trkpt><trkpt lat="39.20454938495505" lon="9.162325739464952"><ele>3.0</ele><time>2026-04-08T18:46:42Z</time></trkpt><trkpt lat="39.20445996862226" lon="9.162247329112562"><ele>3.0</ele><time>2026-04-08T18:46:43Z</time></trkpt><trkpt lat="39.20438272693643" lon="9.162176799253912"><ele>3.0</ele><time>2026-04-08T18:46:44Z</time></trkpt><trkpt lat="39.20431024748459" lon="9.16211789821993"><ele>2.6</ele><time>2026-04-08T18:46:45Z</time></trkpt><trkpt lat="39.204236702824105" lon="9.162030649405446"><ele>2.1999999999999997</ele><time>2026-04-08T18:46:46Z</time></trkpt><trkpt lat="39.20414442561133" lon="9.161967558114695"><ele>1.8</ele><time>2026-04-08T18:46:47Z</time></trkpt><trkpt lat="39.20406428482818" lon="9.16190295729301"><ele>1.4</ele><time>2026-04-08T18:46:48Z</time></trkpt><trkpt lat="39.20399475156715" lon="9.161844576189331"><ele>1.0</ele><time>2026-04-08T18:46:49Z</time></trkpt><trkpt lat="39.203921861361195" lon="9.16178587347484"><ele>1.6666666666666665</ele><time>2026-04-08T18:46:50Z</time></trkpt><trkpt lat="39.20384871012737" lon="9.161727847538753"><ele>2.3333333333333335</ele><time>2026-04-08T18:46:51Z</time></trkpt><trkpt lat="39.20377995929264" lon="9.1616718204788"><ele>3.0</ele><time>2026-04-08T18:46:52Z</time></trkpt><trkpt lat="39.20372322750447" lon="9.161632182484807"><ele>3.666666666666667</ele><time>2026-04-08T18:46:53Z</time></trkpt><trkpt lat="39.20362192226722" lon="9.161580150800779"><ele>4.333333333333334</ele><time>2026-04-08T18:46:55Z</time></trkpt><trkpt lat="39.20355908586223" lon="9.161587339748218"><ele>5.0</ele><time>2026-04-08T18:46:56Z</time></trkpt><trkpt lat="39.20348711441592" lon="9.161545121305204"><ele>5.0</ele><time>2026-04-08T18:46:57Z</time></trkpt><trkpt lat="39.20341687795182" lon="9.161570203108143"><ele>5.0</ele><time>2026-04-08T18:46:58Z</time></trkpt><trkpt lat="39.20333289495591" lon="9.161492455480323"><ele>5.0</ele><time>2026-04-08T18:46:59Z</time></trkpt><trkpt lat="39.20323692535548" lon="9.161408780255137"><ele>5.0</ele><time>2026-04-08T18:47:00Z</time></trkpt><trkpt lat="39.203138208242834" lon="9.161328952637474"><ele>5.0</ele><time>2026-04-08T18:47:01Z</time></trkpt><trkpt lat="39.203045928938025" lon="9.161249582367992"><ele>4.666666666666667</ele><time>2026-04-08T18:47:02Z</time></trkpt><trkpt lat="39.202968806747954" lon="9.161186238784516"><ele>4.333333333333334</ele><time>2026-04-08T18:47:03Z</time></trkpt><trkpt lat="39.20290140738717" lon="9.161131983379569"><ele>4.0</ele><time>2026-04-08T18:47:04Z</time></trkpt><trkpt lat="39.20284377171707" lon="9.161084339808168"><ele>3.666666666666667</ele><time>2026-04-08T18:47:05Z</time></trkpt><trkpt lat="39.20274824321563" lon="9.161014550992018"><ele>3.3333333333333335</ele><time>2026-04-08T18:47:07Z</time></trkpt><trkpt lat="39.2026541856655" lon="9.161006798867394"><ele>3.0</ele><time>2026-04-08T18:47:09Z</time></trkpt><trkpt lat="39.20256572764574" lon="9.16113251609954"><ele>3.0</ele><time>2026-04-08T18:47:11Z</time></trkpt><trkpt lat="39.20252747977449" lon="9.161215627209591"><ele>3.0</ele><time>2026-04-08T18:47:12Z</time></trkpt><trkpt lat="39.20248860406207" lon="9.161292063440671"><ele>3.0</ele><time>2026-04-08T18:47:13Z</time></trkpt><trkpt lat="39.202426554867614" lon="9.161372774533534"><ele>3.0</ele><time>2026-04-08T18:47:15Z</time></trkpt><trkpt lat="39.20235804293987" lon="9.161342408673933"><ele>3.0</ele><time>2026-04-08T18:47:16Z</time></trkpt><trkpt lat="39.20228466779511" lon="9.161265315684497"><ele>3.0</ele><time>2026-04-08T18:47:17Z</time></trkpt><trkpt lat="39.20219875082143" lon="9.161194697786335"><ele>3.0</ele><time>2026-04-08T18:47:18Z</time></trkpt><trkpt lat="39.202120159984354" lon="9.161137060124718"><ele>3.0</ele><time>2026-04-08T18:47:19Z</time></trkpt><trkpt lat="39.202054824712064" lon="9.161081111539456"><ele>3.0</ele><time>2026-04-08T18:47:20Z</time></trkpt><trkpt lat="39.20199695912572" lon="9.161040463222706"><ele>3.0</ele><time>2026-04-08T18:47:21Z</time></trkpt><trkpt lat="39.20189873508007" lon="9.160982613195154"><ele>3.0</ele><time>2026-04-08T18:47:23Z</time></trkpt><trkpt lat="39.20181050825561" lon="9.161014442128947"><ele>3.0</ele><time>2026-04-08T18:47:25Z</time></trkpt><trkpt lat="39.20173630015528" lon="9.16115442484985"><ele>3.0</ele><time>2026-04-08T18:47:27Z</time></trkpt><trkpt lat="39.20167664605949" lon="9.161211814944165"><ele>3.0</ele><time>2026-04-08T18:47:28Z</time></trkpt><trkpt lat="39.20163555351311" lon="9.161298934108364"><ele>3.0</ele><time>2026-04-08T18:47:30Z</time></trkpt><trkpt lat="39.20176707243713" lon="9.161421566381684"><ele>3.0</ele><time>2026-04-08T18:47:31Z</time></trkpt><trkpt lat="39.201836264880605" lon="9.16146142275803"><ele>3.0</ele><time>2026-04-08T18:47:32Z</time></trkpt><trkpt lat="39.20190212204328" lon="9.161501884653736"><ele>3.0</ele><time>2026-04-08T18:47:33Z</time></trkpt><trkpt lat="39.20199993724378" lon="9.161557397617932"><ele>3.0</ele><time>2026-04-08T18:47:35Z</time></trkpt><trkpt lat="39.202055781040094" lon="9.16159621870742"><ele>3.0</ele><time>2026-04-08T18:47:37Z</time></trkpt><trkpt lat="39.202105305728736" lon="9.161660177219586"><ele>3.0</ele><time>2026-04-08T18:47:40Z</time></trkpt><trkpt lat="39.20208589182722" lon="9.16173982615184"><ele>3.0</ele><time>2026-04-08T18:47:46Z</time></trkpt></trkseg></trk></gpx>